<?xml version='1.0' encoding='UTF-8'?><gpx version="1.1" creator="JPX - https://github.com/jenetics/jpx" xmlns="http://www.topografix.com/GPX/1/1"><trk><trkseg><trkpt lat="43.66693227653122" lon="10.649631150366119"><ele>14.0</ele><time>2026-04-04T07:34:00Z</time></trkpt><trkpt lat="43.66686932770754" lon="10.6496715108451"><ele>14.0</ele><time>2026-04-04T07:34:15Z</time></trkpt><trkpt lat="43.66680486955982" lon="10.649723032545149"><ele>14.0</ele><time>2026-04-04T07:34:17Z</time></trkpt><trkpt lat="43.66676491553195" lon="10.64981906449667"><ele>14.0</ele><time>2026-04-04T07:34:20Z</time></trkpt><trkpt lat="43.66678234639457" lon="10.649915896087826"><ele>14.0</ele><time>2026-04-04T07:38:37Z</time></trkpt><trkpt lat="43.66684986816573" lon="10.649934936792437"><ele>14.0</ele><time>2026-04-04T07:38:40Z</time></trkpt><trkpt lat="43.666860987372814" lon="10.649831517813864"><ele>14.0</ele><time>2026-04-04T07:38:42Z</time></trkpt><trkpt lat="43.66686593998605" lon="10.64971662062"><ele>14.000000000000002</ele><time>2026-04-04T07:38:44Z</time></trkpt><trkpt lat="43.66682868941767" lon="10.649641878883813"><ele>14.0</ele><time>2026-04-04T07:38:46Z</time></trkpt><trkpt lat="43.666779873740744" lon="10.649701388002727"><ele>14.0</ele><time>2026-04-04T07:38:50Z</time></trkpt><trkpt lat="43.66676909505351" lon="10.649809030454765"><ele>14.0</ele><time>2026-04-04T07:47:21Z</time></trkpt><trkpt lat="43.66677160394683" lon="10.649897396131964"><ele>14.000000000000002</ele><time>2026-04-04T07:47:25Z</time></trkpt><trkpt lat="43.66678050901756" lon="10.650024680585501"><ele>14.0</ele><time>2026-04-04T07:51:26Z</time></trkpt><trkpt lat="43.66678797252364" lon="10.65017436913877"><ele>14.0</ele><time>2026-04-04T07:51:28Z</time></trkpt><trkpt lat="43.66678318901645" lon="10.650330388662658"><ele>13.999999999999998</ele><time>2026-04-04T07:51:30Z</time></trkpt><trkpt lat="43.666759680068054" lon="10.650554472082383"><ele>13.999999999999998</ele><time>2026-04-04T07:51:33Z</time></trkpt><trkpt lat="43.66674344919661" lon="10.65069952035885"><ele>14.0</ele><time>2026-04-04T07:51:35Z</time></trkpt><trkpt lat="43.666737106519946" lon="10.650790444706967"><ele>14.0</ele><time>2026-04-04T07:51:36Z</time></trkpt><trkpt lat="43.666731131326664" lon="10.650879278484144"><ele>14.000000000000002</ele><time>2026-04-04T07:51:37Z</time></trkpt><trkpt lat="43.66672791560784" lon="10.65097906225844"><ele>14.0</ele><time>2026-04-04T07:51:38Z</time></trkpt><trkpt lat="43.66673010691071" lon="10.65108388759513"><ele>14.0</ele><time>2026-04-04T07:51:39Z</time></trkpt><trkpt lat="43.66672418604595" lon="10.651187308034672"><ele>14.0</ele><time>2026-04-04T07:51:40Z</time></trkpt><trkpt lat="43.666722457697276" lon="10.651284191063848"><ele>14.000000000000002</ele><time>2026-04-04T07:51:41Z</time></trkpt><trkpt lat="43.66671820659538" lon="10.651385501957346"><ele>14.0</ele><time>2026-04-04T07:51:42Z</time></trkpt><trkpt lat="43.66670490415112" lon="10.651545823301015"><ele>13.799999999999999</ele><time>2026-04-04T07:51:44Z</time></trkpt><trkpt lat="43.66669748966732" lon="10.651696693070013"><ele>13.599999999999998</ele><time>2026-04-04T07:51:46Z</time></trkpt><trkpt lat="43.66666439786663" lon="10.651832613458811"><ele>13.4</ele><time>2026-04-04T07:51:48Z</time></trkpt><trkpt lat="43.66662908592226" lon="10.651954040026451"><ele>13.2</ele><time>2026-04-04T07:51:50Z</time></trkpt><trkpt lat="43.666600074502476" lon="10.652069559584694"><ele>13.0</ele><time>2026-04-04T07:51:52Z</time></trkpt><trkpt lat="43.66656908689369" lon="10.652150015523448"><ele>12.999999999999998</ele><time>2026-04-04T07:52:14Z</time></trkpt><trkpt lat="43.666518171503746" lon="10.652207642450543"><ele>13.0</ele><time>2026-04-04T07:52:18Z</time></trkpt><trkpt lat="43.666436797106165" lon="10.652206230828414"><ele>13.0</ele><time>2026-04-04T07:52:24Z</time></trkpt><trkpt lat="43.66637309725566" lon="10.652218522183905"><ele>13.0</ele><time>2026-04-04T07:52:28Z</time></trkpt><trkpt lat="43.66629662542227" lon="10.652355834077662"><ele>12.999999999999998</ele><time>2026-04-04T07:52:29.999Z</time></trkpt><trkpt lat="43.666265397261775" lon="10.652457856324117"><ele>13.0</ele><time>2026-04-04T07:52:30.999Z</time></trkpt><trkpt lat="43.66622247188179" lon="10.652562334148332"><ele>13.0</ele><time>2026-04-04T07:52:31.999Z</time></trkpt><trkpt lat="43.666206724409555" lon="10.652677564990046"><ele>13.0</ele><time>2026-04-04T07:52:32.999Z</time></trkpt><trkpt lat="43.66618188264423" lon="10.652800312255794"><ele>13.0</ele><time>2026-04-04T07:52:33.999Z</time></trkpt><trkpt lat="43.666123195528634" lon="10.652937429459342"><ele>13.0</ele><time>2026-04-04T07:52:34.999Z</time></trkpt><trkpt lat="43.666079655739914" lon="10.653067546015482"><ele>13.0</ele><time>2026-04-04T07:52:35.999Z</time></trkpt><trkpt lat="43.66604490993058" lon="10.653173213777455"><ele>13.0</ele><time>2026-04-04T07:52:36.999Z</time></trkpt><trkpt lat="43.666038815582134" lon="10.653283799787939"><ele>13.0</ele><time>2026-04-04T07:52:37.999Z</time></trkpt><trkpt lat="43.666019484396145" lon="10.653443619810664"><ele>13.0</ele><time>2026-04-04T07:52:38.999Z</time></trkpt><trkpt lat="43.666003938656" lon="10.65359081081194"><ele>13.0</ele><time>2026-04-04T07:52:39.999Z</time></trkpt><trkpt lat="43.666038305548774" lon="10.653751262190378"><ele>13.0</ele><time>2026-04-04T07:52:41Z</time></trkpt><trkpt lat="43.666046870444205" lon="10.653891910765962"><ele>13.0</ele><time>2026-04-04T07:52:42Z</time></trkpt><trkpt lat="43.66605601919963" lon="10.654042147111472"><ele>13.0</ele><time>2026-04-04T07:52:43Z</time></trkpt><trkpt lat="43.6660476293796" lon="10.654207749521785"><ele>13.0</ele><time>2026-04-04T07:52:44Z</time></trkpt><trkpt lat="43.66608301361942" lon="10.654388747960239"><ele>13.0</ele><time>2026-04-04T07:52:45Z</time></trkpt><trkpt lat="43.666102126993465" lon="10.654552441448304"><ele>13.0</ele><time>2026-04-04T07:52:46Z</time></trkpt><trkpt lat="43.66611969240411" lon="10.654722689482966"><ele>13.0</ele><time>2026-04-04T07:52:47Z</time></trkpt><trkpt lat="43.666123555331986" lon="10.654855118920285"><ele>13.0</ele><time>2026-04-04T07:52:48Z</time></trkpt><trkpt lat="43.66612630932197" lon="10.654973089752193"><ele>13.0</ele><time>2026-04-04T07:52:49Z</time></trkpt><trkpt lat="43.66611991735503" lon="10.655068825047076"><ele>13.0</ele><time>2026-04-04T07:52:50Z</time></trkpt><trkpt lat="43.66607838193044" lon="10.655186638888727"><ele>13.2</ele><time>2026-04-04T07:52:52Z</time></trkpt><trkpt lat="43.66603099227963" lon="10.655300593232129"><ele>13.4</ele><time>2026-04-04T07:52:55Z</time></trkpt><trkpt lat="43.66596085533448" lon="10.65543814761114"><ele>13.599999999999998</ele><time>2026-04-04T07:52:57Z</time></trkpt><trkpt lat="43.665916972041956" lon="10.655527422090072"><ele>13.799999999999999</ele><time>2026-04-04T07:52:58Z</time></trkpt><trkpt lat="43.6658565378822" lon="10.655594683142464"><ele>14.0</ele><time>2026-04-04T07:52:59Z</time></trkpt><trkpt lat="43.665761313269314" lon="10.655616681005792"><ele>14.0</ele><time>2026-04-04T07:53:00Z</time></trkpt><trkpt lat="43.66564770649719" lon="10.655680499852322"><ele>14.0</ele><time>2026-04-04T07:53:01Z</time></trkpt><trkpt lat="43.665525768005736" lon="10.65581603556594"><ele>14.0</ele><time>2026-04-04T07:53:02Z</time></trkpt><trkpt lat="43.6654649125963" lon="10.65596646930358"><ele>14.0</ele><time>2026-04-04T07:53:03Z</time></trkpt><trkpt lat="43.66541537615741" lon="10.656139285546693"><ele>14.0</ele><time>2026-04-04T07:53:04Z</time></trkpt><trkpt lat="43.66538866401487" lon="10.656340299945901"><ele>14.0</ele><time>2026-04-04T07:53:05Z</time></trkpt><trkpt lat="43.665346393671754" lon="10.656549136793295"><ele>14.0</ele><time>2026-04-04T07:53:06Z</time></trkpt><trkpt lat="43.665310438830275" lon="10.656733335073673"><ele>14.0</ele><time>2026-04-04T07:53:07Z</time></trkpt><trkpt lat="43.665278272788754" lon="10.656929645228763"><ele>14.0</ele><time>2026-04-04T07:53:08Z</time></trkpt><trkpt lat="43.665241464395294" lon="10.657106173174322"><ele>13.999999999999998</ele><time>2026-04-04T07:53:09Z</time></trkpt><trkpt lat="43.66521124590071" lon="10.657258266414145"><ele>13.999999999999998</ele><time>2026-04-04T07:53:10Z</time></trkpt><trkpt lat="43.665181045725994" lon="10.657379691913498"><ele>14.0</ele><time>2026-04-04T07:53:11Z</time></trkpt><trkpt lat="43.66515404186159" lon="10.657493616033964"><ele>14.0</ele><time>2026-04-04T07:53:12Z</time></trkpt><trkpt lat="43.66512189059611" lon="10.657603492880957"><ele>14.000000000000002</ele><time>2026-04-04T07:53:13Z</time></trkpt><trkpt lat="43.665090517449876" lon="10.65770136619158"><ele>14.0</ele><time>2026-04-04T07:53:14Z</time></trkpt><trkpt lat="43.6650374911263" lon="10.657763525853154"><ele>14.0</ele><time>2026-04-04T07:53:15Z</time></trkpt><trkpt lat="43.66494027265848" lon="10.657812888738617"><ele>14.0</ele><time>2026-04-04T07:53:17Z</time></trkpt><trkpt lat="43.66482779519701" lon="10.657836169365533"><ele>14.000000000000002</ele><time>2026-04-04T07:53:19Z</time></trkpt><trkpt lat="43.66475527467682" lon="10.657827761139034"><ele>14.0</ele><time>2026-04-04T07:53:20Z</time></trkpt><trkpt lat="43.66464845052265" lon="10.6578445513634"><ele>14.0</ele><time>2026-04-04T07:53:21Z</time></trkpt><trkpt lat="43.66453364183106" lon="10.657853781579687"><ele>14.0</ele><time>2026-04-04T07:53:22Z</time></trkpt><trkpt lat="43.66441649091125" lon="10.65784167497126"><ele>14.0</ele><time>2026-04-04T07:53:23Z</time></trkpt><trkpt lat="43.664304068666574" lon="10.657808060635558"><ele>14.0</ele><time>2026-04-04T07:53:24Z</time></trkpt><trkpt lat="43.66417497378199" lon="10.657725895517219"><ele>14.25</ele><time>2026-04-04T07:53:25Z</time></trkpt><trkpt lat="43.6640735282397" lon="10.657646388216765"><ele>14.5</ele><time>2026-04-04T07:53:26Z</time></trkpt><trkpt lat="43.66393891099635" lon="10.657566140746843"><ele>14.75</ele><time>2026-04-04T07:53:27Z</time></trkpt><trkpt lat="43.6638048671121" lon="10.65752394326646"><ele>15.0</ele><time>2026-04-04T07:53:28Z</time></trkpt><trkpt lat="43.66365540399921" lon="10.657484360057763"><ele>14.666666666666668</ele><time>2026-04-04T07:53:29Z</time></trkpt><trkpt lat="43.66348823227147" lon="10.657475822916817"><ele>14.333333333333334</ele><time>2026-04-04T07:53:30Z</time></trkpt><trkpt lat="43.6632946221465" lon="10.657472411106372"><ele>14.0</ele><time>2026-04-04T07:53:31Z</time></trkpt><trkpt lat="43.66307573850421" lon="10.657465954773413"><ele>14.0</ele><time>2026-04-04T07:53:32Z</time></trkpt><trkpt lat="43.66286620521619" lon="10.65746217316604"><ele>14.0</ele><time>2026-04-04T07:53:33Z</time></trkpt><trkpt lat="43.66265114286939" lon="10.6574887681663"><ele>14.0</ele><time>2026-04-04T07:53:34Z</time></trkpt><trkpt lat="43.66245193108929" lon="10.657505554407521"><ele>13.666666666666668</ele><time>2026-04-04T07:53:35Z</time></trkpt><trkpt lat="43.66227135627032" lon="10.657517190775703"><ele>13.333333333333332</ele><time>2026-04-04T07:53:36Z</time></trkpt><trkpt lat="43.66209563228186" lon="10.657536869901266"><ele>13.0</ele><time>2026-04-04T07:53:37Z</time></trkpt><trkpt lat="43.661906074987336" lon="10.65752213984449"><ele>13.0</ele><time>2026-04-04T07:53:38Z</time></trkpt><trkpt lat="43.66172146330425" lon="10.657550030438589"><ele>13.0</ele><time>2026-04-04T07:53:39Z</time></trkpt><trkpt lat="43.66156097218071" lon="10.657575970104155"><ele>13.0</ele><time>2026-04-04T07:53:40Z</time></trkpt><trkpt lat="43.661396212711786" lon="10.657571111842532"><ele>13.0</ele><time>2026-04-04T07:53:41Z</time></trkpt><trkpt lat="43.661230714269024" lon="10.657578167976759"><ele>13.0</ele><time>2026-04-04T07:53:42Z</time></trkpt><trkpt lat="43.661055064721054" lon="10.657585656912138"><ele>13.0</ele><time>2026-04-04T07:53:43Z</time></trkpt><trkpt lat="43.660870330884606" lon="10.657594367893829"><ele>13.0</ele><time>2026-04-04T07:53:44Z</time></trkpt><trkpt lat="43.660697911476376" lon="10.657602932532672"><ele>13.0</ele><time>2026-04-04T07:53:45Z</time></trkpt><trkpt lat="43.66054382143128" lon="10.657610586670433"><ele>13.0</ele><time>2026-04-04T07:53:46Z</time></trkpt><trkpt lat="43.66036623421263" lon="10.657618301054653"><ele>13.0</ele><time>2026-04-04T07:53:47Z</time></trkpt><trkpt lat="43.66019836187859" lon="10.657640091092405"><ele>13.0</ele><time>2026-04-04T07:53:48Z</time></trkpt><trkpt lat="43.66003899843069" lon="10.657646906503224"><ele>13.0</ele><time>2026-04-04T07:53:49Z</time></trkpt><trkpt lat="43.65987422240043" lon="10.657642436235804"><ele>13.0</ele><time>2026-04-04T07:53:50Z</time></trkpt><trkpt lat="43.65971529268293" lon="10.657655811608057"><ele>13.0</ele><time>2026-04-04T07:53:51Z</time></trkpt><trkpt lat="43.65956015183209" lon="10.657666011915008"><ele>13.0</ele><time>2026-04-04T07:53:52Z</time></trkpt><trkpt lat="43.65941770827967" lon="10.657677874347472"><ele>13.5</ele><time>2026-04-04T07:53:53Z</time></trkpt><trkpt lat="43.65926869862707" lon="10.657677134356272"><ele>14.0</ele><time>2026-04-04T07:53:54Z</time></trkpt><trkpt lat="43.659125143698375" lon="10.657671484866947"><ele>14.5</ele><time>2026-04-04T07:53:55Z</time></trkpt><trkpt lat="43.65898170401381" lon="10.65767992461676"><ele>15.0</ele><time>2026-04-04T07:53:56Z</time></trkpt><trkpt lat="43.658836040021185" lon="10.657691557031411"><ele>15.0</ele><time>2026-04-04T07:53:57Z</time></trkpt><trkpt lat="43.65868582645917" lon="10.657701611952536"><ele>15.0</ele><time>2026-04-04T07:53:58Z</time></trkpt><trkpt lat="43.65853398493657" lon="10.657708531453192"><ele>15.0</ele><time>2026-04-04T07:53:59Z</time></trkpt><trkpt lat="43.65837371299206" lon="10.657711789665814"><ele>15.0</ele><time>2026-04-04T07:54:00Z</time></trkpt><trkpt lat="43.658218022971525" lon="10.657713213350645"><ele>15.0</ele><time>2026-04-04T07:54:01Z</time></trkpt><trkpt lat="43.65806312235596" lon="10.657719036301222"><ele>15.0</ele><time>2026-04-04T07:54:02Z</time></trkpt><trkpt lat="43.65790367255407" lon="10.65772573422138"><ele>15.333333333333332</ele><time>2026-04-04T07:54:03Z</time></trkpt><trkpt lat="43.65774392065531" lon="10.657721269743352"><ele>15.666666666666666</ele><time>2026-04-04T07:54:04Z</time></trkpt><trkpt lat="43.657584215136076" lon="10.657724454802214"><ele>16.0</ele><time>2026-04-04T07:54:05Z</time></trkpt><trkpt lat="43.657429773213295" lon="10.657738927051575"><ele>16.0</ele><time>2026-04-04T07:54:06Z</time></trkpt><trkpt lat="43.657273282693815" lon="10.657736088149502"><ele>16.0</ele><time>2026-04-04T07:54:07Z</time></trkpt><trkpt lat="43.657127448093945" lon="10.657747398638616"><ele>16.0</ele><time>2026-04-04T07:54:08Z</time></trkpt><trkpt lat="43.65698394463294" lon="10.657745886006264"><ele>16.0</ele><time>2026-04-04T07:54:09Z</time></trkpt><trkpt lat="43.65683998391404" lon="10.657733390067488"><ele>16.0</ele><time>2026-04-04T07:54:10Z</time></trkpt><trkpt lat="43.65669593606283" lon="10.657715681246502"><ele>16.0</ele><time>2026-04-04T07:54:11Z</time></trkpt><trkpt lat="43.65655875555849" lon="10.657687536918633"><ele>16.0</ele><time>2026-04-04T07:54:12Z</time></trkpt><trkpt lat="43.65643101519654" lon="10.65763848929199"><ele>16.0</ele><time>2026-04-04T07:54:13Z</time></trkpt><trkpt lat="43.65631577999154" lon="10.657575693477002"><ele>16.0</ele><time>2026-04-04T07:54:14Z</time></trkpt><trkpt lat="43.6562050883605" lon="10.657510380759938"><ele>16.0</ele><time>2026-04-04T07:54:15Z</time></trkpt><trkpt lat="43.656098793039575" lon="10.657440622238159"><ele>16.0</ele><time>2026-04-04T07:54:16Z</time></trkpt><trkpt lat="43.65599481787809" lon="10.657368357820152"><ele>16.0</ele><time>2026-04-04T07:54:17Z</time></trkpt><trkpt lat="43.65588921891799" lon="10.65728403037046"><ele>15.75</ele><time>2026-04-04T07:54:18Z</time></trkpt><trkpt lat="43.65578001825018" lon="10.657193113442041"><ele>15.5</ele><time>2026-04-04T07:54:19Z</time></trkpt><trkpt lat="43.65567751250993" lon="10.657091061069565"><ele>15.25</ele><time>2026-04-04T07:54:20Z</time></trkpt><trkpt lat="43.655578846196505" lon="10.656970825057405"><ele>15.0</ele><time>2026-04-04T07:54:21Z</time></trkpt><trkpt lat="43.65548842960482" lon="10.656850529943679"><ele>15.0</ele><time>2026-04-04T07:54:22Z</time></trkpt><trkpt lat="43.65540482809942" lon="10.656738851640482"><ele>15.0</ele><time>2026-04-04T07:54:23Z</time></trkpt><trkpt lat="43.65533511327597" lon="10.65663547507637"><ele>15.0</ele><time>2026-04-04T07:54:24Z</time></trkpt><trkpt lat="43.655274475349565" lon="10.656540735159503"><ele>15.0</ele><time>2026-04-04T07:54:25Z</time></trkpt><trkpt lat="43.65522073688135" lon="10.656453633765743"><ele>15.0</ele><time>2026-04-04T07:54:26Z</time></trkpt><trkpt lat="43.655138504298435" lon="10.656332281889732"><ele>15.0</ele><time>2026-04-04T07:54:28Z</time></trkpt><trkpt lat="43.655087149001794" lon="10.656265669022646"><ele>15.0</ele><time>2026-04-04T07:54:29Z</time></trkpt><trkpt lat="43.65504314310097" lon="10.656201551115757"><ele>15.0</ele><time>2026-04-04T07:54:30Z</time></trkpt><trkpt lat="43.65499542096173" lon="10.656132894201807"><ele>15.0</ele><time>2026-04-04T07:54:31Z</time></trkpt><trkpt lat="43.654966513969335" lon="10.65599059545677"><ele>15.0</ele><time>2026-04-04T07:54:33Z</time></trkpt><trkpt lat="43.654953483578616" lon="10.655893736727437"><ele>15.0</ele><time>2026-04-04T07:54:34Z</time></trkpt><trkpt lat="43.65493806813591" lon="10.655781186086031"><ele>15.0</ele><time>2026-04-04T07:54:34.999Z</time></trkpt><trkpt lat="43.65493113526601" lon="10.655658244086554"><ele>15.0</ele><time>2026-04-04T07:54:35.999Z</time></trkpt><trkpt lat="43.65492412155652" lon="10.655549340770543"><ele>15.0</ele><time>2026-04-04T07:54:36.999Z</time></trkpt><trkpt lat="43.65487169142833" lon="10.655477604876342"><ele>15.0</ele><time>2026-04-04T07:54:37.999Z</time></trkpt><trkpt lat="43.65481718620951" lon="10.6553769957286"><ele>15.0</ele><time>2026-04-04T07:54:38.999Z</time></trkpt><trkpt lat="43.65475036089651" lon="10.65528328582219"><ele>15.0</ele><time>2026-04-04T07:54:39.999Z</time></trkpt><trkpt lat="43.654668757980446" lon="10.655171347126291"><ele>15.0</ele><time>2026-04-04T07:54:40.999Z</time></trkpt><trkpt lat="43.654584155067" lon="10.655074065410519"><ele>15.0</ele><time>2026-04-04T07:54:41.999Z</time></trkpt><trkpt lat="43.65448853644666" lon="10.654983936814736"><ele>15.0</ele><time>2026-04-04T07:54:42.999Z</time></trkpt><trkpt lat="43.6542661996065" lon="10.6549165352526"><ele>15.0</ele><time>2026-04-04T07:54:44.999Z</time></trkpt><trkpt lat="43.65412774864729" lon="10.654988344750931"><ele>15.0</ele><time>2026-04-04T07:54:45.999Z</time></trkpt><trkpt lat="43.654020792740496" lon="10.65505865841338"><ele>15.0</ele><time>2026-04-04T07:54:46.999Z</time></trkpt><trkpt lat="43.653955533706394" lon="10.655179565764014"><ele>15.0</ele><time>2026-04-04T07:54:47.999Z</time></trkpt><trkpt lat="43.653917748537395" lon="10.655284499378267"><ele>15.0</ele><time>2026-04-04T07:54:48.999Z</time></trkpt><trkpt lat="43.653735239870905" lon="10.65521461564358"><ele>15.0</ele><time>2026-04-04T07:54:49.999Z</time></trkpt><trkpt lat="43.653608818673774" lon="10.655172666288534"><ele>15.0</ele><time>2026-04-04T07:54:50.999Z</time></trkpt><trkpt lat="43.653483582910866" lon="10.655146129259979"><ele>15.0</ele><time>2026-04-04T07:54:51.999Z</time></trkpt><trkpt lat="43.65335955663908" lon="10.655110013242625"><ele>15.8</ele><time>2026-04-04T07:54:52.999Z</time></trkpt><trkpt lat="43.65324126792163" lon="10.65508924033704"><ele>16.6</ele><time>2026-04-04T07:54:53.999Z</time></trkpt><trkpt lat="43.65313093543033" lon="10.655086251132122"><ele>17.4</ele><time>2026-04-04T07:54:54.999Z</time></trkpt><trkpt lat="43.653021693473924" lon="10.655085716135082"><ele>18.2</ele><time>2026-04-04T07:54:55.999Z</time></trkpt><trkpt lat="43.65293718084132" lon="10.655095026698278"><ele>19.0</ele><time>2026-04-04T07:54:56.999Z</time></trkpt><trkpt lat="43.65286460666556" lon="10.65510450632165"><ele>19.0</ele><time>2026-04-04T07:54:57.999Z</time></trkpt><trkpt lat="43.65279832143777" lon="10.655100947224065"><ele>19.0</ele><time>2026-04-04T07:54:58.999Z</time></trkpt><trkpt lat="43.65271697646039" lon="10.655110895711806"><ele>19.0</ele><time>2026-04-04T07:54:59.999Z</time></trkpt><trkpt lat="43.65262524356687" lon="10.65513744620732"><ele>19.0</ele><time>2026-04-04T07:55:00.999Z</time></trkpt><trkpt lat="43.652536362086146" lon="10.655158365331808"><ele>19.0</ele><time>2026-04-04T07:55:01.999Z</time></trkpt><trkpt lat="43.652445389772794" lon="10.655190302175443"><ele>19.0</ele><time>2026-04-04T07:55:02.999Z</time></trkpt><trkpt lat="43.65235437003471" lon="10.655228429796567"><ele>19.75</ele><time>2026-04-04T07:55:03.999Z</time></trkpt><trkpt lat="43.65225740187957" lon="10.65526765736602"><ele>20.5</ele><time>2026-04-04T07:55:04.999Z</time></trkpt><trkpt lat="43.652152009361195" lon="10.655309949643712"><ele>21.25</ele><time>2026-04-04T07:55:05.999Z</time></trkpt><trkpt lat="43.65203847098379" lon="10.655359334563684"><ele>22.0</ele><time>2026-04-04T07:55:06.999Z</time></trkpt><trkpt lat="43.65192437939337" lon="10.65541354442885"><ele>23.0</ele><time>2026-04-04T07:55:07.999Z</time></trkpt><trkpt lat="43.65180605128068" lon="10.655473827725046"><ele>24.0</ele><time>2026-04-04T07:55:08.999Z</time></trkpt><trkpt lat="43.65168872434707" lon="10.655532453912269"><ele>25.0</ele><time>2026-04-04T07:55:09.999Z</time></trkpt><trkpt lat="43.65157825489051" lon="10.655585661429557"><ele>26.0</ele><time>2026-04-04T07:55:10.999Z</time></trkpt><trkpt lat="43.65146307671551" lon="10.655643356122338"><ele>26.0</ele><time>2026-04-04T07:55:11.999Z</time></trkpt><trkpt lat="43.65136014015341" lon="10.655701500338983"><ele>26.0</ele><time>2026-04-04T07:55:12.999Z</time></trkpt><trkpt lat="43.651259170945686" lon="10.655752331533467"><ele>26.0</ele><time>2026-04-04T07:55:13.999Z</time></trkpt><trkpt lat="43.65116476359101" lon="10.655793086298441"><ele>26.0</ele><time>2026-04-04T07:55:14.999Z</time></trkpt><trkpt lat="43.651060628599645" lon="10.65582554893902"><ele>26.0</ele><time>2026-04-04T07:55:15.999Z</time></trkpt><trkpt lat="43.65094646078201" lon="10.655860292339131"><ele>26.5</ele><time>2026-04-04T07:55:16.999Z</time></trkpt><trkpt lat="43.650844494489704" lon="10.655922443972765"><ele>27.0</ele><time>2026-04-04T07:55:17.999Z</time></trkpt><trkpt lat="43.65073511501103" lon="10.655974578612986"><ele>27.5</ele><time>2026-04-04T07:55:18.999Z</time></trkpt><trkpt lat="43.650627801826424" lon="10.656001034682104"><ele>28.0</ele><time>2026-04-04T07:55:19.999Z</time></trkpt><trkpt lat="43.65051464244497" lon="10.656024026540107"><ele>28.0</ele><time>2026-04-04T07:55:20.999Z</time></trkpt><trkpt lat="43.65040304235425" lon="10.656042624420778"><ele>27.999999999999996</ele><time>2026-04-04T07:55:21.999Z</time></trkpt><trkpt lat="43.65030727209743" lon="10.656066469631751"><ele>27.999999999999996</ele><time>2026-04-04T07:55:22.999Z</time></trkpt><trkpt lat="43.65020433643457" lon="10.656085083198015"><ele>28.0</ele><time>2026-04-04T07:55:23.999Z</time></trkpt><trkpt lat="43.65011295773283" lon="10.656110256851804"><ele>28.0</ele><time>2026-04-04T07:55:24.999Z</time></trkpt><trkpt lat="43.65001433028444" lon="10.656110095584033"><ele>28.333333333333336</ele><time>2026-04-04T07:55:25.999Z</time></trkpt><trkpt lat="43.649921042896985" lon="10.656105475159631"><ele>28.666666666666668</ele><time>2026-04-04T07:55:27Z</time></trkpt><trkpt lat="43.64983802734813" lon="10.656096524320079"><ele>29.0</ele><time>2026-04-04T07:55:28Z</time></trkpt><trkpt lat="43.649763606684296" lon="10.656090880730005"><ele>29.333333333333336</ele><time>2026-04-04T07:55:29Z</time></trkpt><trkpt lat="43.64969892614128" lon="10.656078356607708"><ele>29.666666666666668</ele><time>2026-04-04T07:55:30Z</time></trkpt><trkpt lat="43.64960528079629" lon="10.65606845497557"><ele>30.0</ele><time>2026-04-04T07:55:32Z</time></trkpt><trkpt lat="43.64953458227089" lon="10.656065578997447"><ele>30.0</ele><time>2026-04-04T07:55:34Z</time></trkpt><trkpt lat="43.649461428993654" lon="10.656051287290017"><ele>30.0</ele><time>2026-04-04T07:55:37Z</time></trkpt><trkpt lat="43.64939673869927" lon="10.656042723233503"><ele>30.0</ele><time>2026-04-04T07:55:41Z</time></trkpt><trkpt lat="43.64930824590631" lon="10.656058592797244"><ele>30.0</ele><time>2026-04-04T07:57:01.999Z</time></trkpt><trkpt lat="43.64920586594414" lon="10.656055978367505"><ele>30.0</ele><time>2026-04-04T07:57:03.999Z</time></trkpt><trkpt lat="43.6491463116243" lon="10.65602288574576"><ele>30.0</ele><time>2026-04-04T07:57:04.999Z</time></trkpt><trkpt lat="43.64907750055722" lon="10.656009758395873"><ele>30.2</ele><time>2026-04-04T07:57:05.999Z</time></trkpt><trkpt lat="43.6489924027936" lon="10.656012282128456"><ele>30.4</ele><time>2026-04-04T07:57:06.999Z</time></trkpt><trkpt lat="43.64889625421303" lon="10.655987953637556"><ele>30.6</ele><time>2026-04-04T07:57:07.999Z</time></trkpt><trkpt lat="43.648789249160544" lon="10.655959564950901"><ele>30.8</ele><time>2026-04-04T07:57:08.999Z</time></trkpt><trkpt lat="43.64867436865818" lon="10.655929690066367"><ele>31.0</ele><time>2026-04-04T07:57:09.999Z</time></trkpt><trkpt lat="43.64856710179201" lon="10.65589740647018"><ele>31.0</ele><time>2026-04-04T07:57:10.999Z</time></trkpt><trkpt lat="43.64845670399331" lon="10.655864922585947"><ele>31.0</ele><time>2026-04-04T07:57:11.999Z</time></trkpt><trkpt lat="43.648326015540654" lon="10.65582728990179"><ele>31.0</ele><time>2026-04-04T07:57:12.999Z</time></trkpt><trkpt lat="43.64819018860354" lon="10.65577706468515"><ele>31.0</ele><time>2026-04-04T07:57:13.999Z</time></trkpt><trkpt lat="43.648051587145076" lon="10.655716599588272"><ele>31.0</ele><time>2026-04-04T07:57:14.999Z</time></trkpt><trkpt lat="43.64790795673494" lon="10.655652775391372"><ele>31.0</ele><time>2026-04-04T07:57:15.999Z</time></trkpt><trkpt lat="43.647759681380045" lon="10.655562811067496"><ele>31.0</ele><time>2026-04-04T07:57:16.999Z</time></trkpt><trkpt lat="43.64761783240064" lon="10.655457684293852"><ele>31.0</ele><time>2026-04-04T07:57:17.999Z</time></trkpt><trkpt lat="43.64746765523652" lon="10.655380677569802"><ele>31.0</ele><time>2026-04-04T07:57:18.999Z</time></trkpt><trkpt lat="43.647321947137584" lon="10.655269530852204"><ele>31.0</ele><time>2026-04-04T07:57:19.999Z</time></trkpt><trkpt lat="43.64718015829789" lon="10.65513935495"><ele>31.333333333333336</ele><time>2026-04-04T07:57:20.999Z</time></trkpt><trkpt lat="43.64703311137541" lon="10.654988524225132"><ele>31.666666666666664</ele><time>2026-04-04T07:57:22Z</time></trkpt><trkpt lat="43.646889345506615" lon="10.654819718414139"><ele>32.0</ele><time>2026-04-04T07:57:23Z</time></trkpt><trkpt lat="43.64675720455956" lon="10.654645995526563"><ele>31.333333333333332</ele><time>2026-04-04T07:57:24Z</time></trkpt><trkpt lat="43.64663927642249" lon="10.654463678133062"><ele>30.666666666666664</ele><time>2026-04-04T07:57:25Z</time></trkpt><trkpt lat="43.64652353069708" lon="10.654272525474848"><ele>30.0</ele><time>2026-04-04T07:57:26Z</time></trkpt><trkpt lat="43.64641975234457" lon="10.654076994904127"><ele>28.666666666666664</ele><time>2026-04-04T07:57:27Z</time></trkpt><trkpt lat="43.64632736789101" lon="10.6538804930233"><ele>27.333333333333332</ele><time>2026-04-04T07:57:28Z</time></trkpt><trkpt lat="43.64624005981898" lon="10.653670964503803"><ele>26.0</ele><time>2026-04-04T07:57:29Z</time></trkpt><trkpt lat="43.64614125886318" lon="10.65346908014988"><ele>24.333333333333332</ele><time>2026-04-04T07:57:30Z</time></trkpt><trkpt lat="43.64605478212559" lon="10.653241673748633"><ele>22.666666666666664</ele><time>2026-04-04T07:57:31Z</time></trkpt><trkpt lat="43.64597383862028" lon="10.653012794151936"><ele>21.0</ele><time>2026-04-04T07:57:32Z</time></trkpt><trkpt lat="43.64589785703375" lon="10.65279938235394"><ele>19.666666666666668</ele><time>2026-04-04T07:57:33Z</time></trkpt><trkpt lat="43.64580689002878" lon="10.652560650128347"><ele>18.333333333333336</ele><time>2026-04-04T07:57:34Z</time></trkpt><trkpt lat="43.645731013432766" lon="10.652324027383267"><ele>17.0</ele><time>2026-04-04T07:57:35Z</time></trkpt><trkpt lat="43.64565084009572" lon="10.652081205725956"><ele>16.0</ele><time>2026-04-04T07:57:36Z</time></trkpt><trkpt lat="43.645574455617165" lon="10.65183067457979"><ele>15.0</ele><time>2026-04-04T07:57:37Z</time></trkpt><trkpt lat="43.645492003115514" lon="10.65158420266331"><ele>14.0</ele><time>2026-04-04T07:57:38Z</time></trkpt><trkpt lat="43.64540848418429" lon="10.65134741294852"><ele>13.666666666666668</ele><time>2026-04-04T07:57:39Z</time></trkpt><trkpt lat="43.645323213553816" lon="10.651115469509225"><ele>13.333333333333332</ele><time>2026-04-04T07:57:40Z</time></trkpt><trkpt lat="43.645231664719425" lon="10.650899791066475"><ele>13.0</ele><time>2026-04-04T07:57:41Z</time></trkpt><trkpt lat="43.64512073254989" lon="10.65070831720087"><ele>14.333333333333332</ele><time>2026-04-04T07:57:42Z</time></trkpt><trkpt lat="43.6449964127534" lon="10.650525882018012"><ele>15.666666666666668</ele><time>2026-04-04T07:57:43Z</time></trkpt><trkpt lat="43.64486341041569" lon="10.650344198599418"><ele>17.0</ele><time>2026-04-04T07:57:44Z</time></trkpt><trkpt lat="43.644721983455284" lon="10.650186637443937"><ele>17.0</ele><time>2026-04-04T07:57:45Z</time></trkpt><trkpt lat="43.64457331660209" lon="10.650045962113362"><ele>17.0</ele><time>2026-04-04T07:57:46Z</time></trkpt><trkpt lat="43.644420960590736" lon="10.649924617752433"><ele>17.0</ele><time>2026-04-04T07:57:47Z</time></trkpt><trkpt lat="43.644259542587875" lon="10.6498252400793"><ele>18.666666666666668</ele><time>2026-04-04T07:57:48Z</time></trkpt><trkpt lat="43.64409171167313" lon="10.649751885291725"><ele>20.333333333333332</ele><time>2026-04-04T07:57:49Z</time></trkpt><trkpt lat="43.64392937898781" lon="10.649700991009965"><ele>22.0</ele><time>2026-04-04T07:57:50Z</time></trkpt><trkpt lat="43.643767815532236" lon="10.649678826354648"><ele>22.25</ele><time>2026-04-04T07:57:51Z</time></trkpt><trkpt lat="43.643612636952085" lon="10.649666770602899"><ele>22.5</ele><time>2026-04-04T07:57:52Z</time></trkpt><trkpt lat="43.64346509426201" lon="10.649676842095833"><ele>22.75</ele><time>2026-04-04T07:57:53Z</time></trkpt><trkpt lat="43.64331970317305" lon="10.649688529611804"><ele>23.0</ele><time>2026-04-04T07:57:54Z</time></trkpt><trkpt lat="43.6431746768614" lon="10.649710772866724"><ele>23.0</ele><time>2026-04-04T07:57:55Z</time></trkpt><trkpt lat="43.64303654817567" lon="10.649745687557166"><ele>23.0</ele><time>2026-04-04T07:57:56Z</time></trkpt><trkpt lat="43.6428956663734" lon="10.649779068959576"><ele>23.0</ele><time>2026-04-04T07:57:57Z</time></trkpt><trkpt lat="43.642763987179265" lon="10.649824264094471"><ele>23.0</ele><time>2026-04-04T07:57:58Z</time></trkpt><trkpt lat="43.64262375743138" lon="10.6498722141881"><ele>22.666666666666668</ele><time>2026-04-04T07:57:59Z</time></trkpt><trkpt lat="43.642473942020295" lon="10.649927699125147"><ele>22.333333333333332</ele><time>2026-04-04T07:58:00Z</time></trkpt><trkpt lat="43.64232041360136" lon="10.64998127316043"><ele>22.0</ele><time>2026-04-04T07:58:01Z</time></trkpt><trkpt lat="43.64217081547558" lon="10.650032488847865"><ele>22.0</ele><time>2026-04-04T07:58:02Z</time></trkpt><trkpt lat="43.642023429496966" lon="10.650084174005405"><ele>22.0</ele><time>2026-04-04T07:58:03Z</time></trkpt><trkpt lat="43.641883251944236" lon="10.650135518499493"><ele>22.0</ele><time>2026-04-04T07:58:04Z</time></trkpt><trkpt lat="43.64174075769324" lon="10.650184245021352"><ele>22.0</ele><time>2026-04-04T07:58:05Z</time></trkpt><trkpt lat="43.641587816937744" lon="10.650211397490374"><ele>22.25</ele><time>2026-04-04T07:58:06Z</time></trkpt><trkpt lat="43.64142339556304" lon="10.65028118933578"><ele>22.5</ele><time>2026-04-04T07:58:07Z</time></trkpt><trkpt lat="43.6412804634213" lon="10.650318153979695"><ele>22.75</ele><time>2026-04-04T07:58:08Z</time></trkpt><trkpt lat="43.64115110298759" lon="10.65034742179236"><ele>23.0</ele><time>2026-04-04T07:58:09Z</time></trkpt><trkpt lat="43.64102312889048" lon="10.65038002215896"><ele>23.25</ele><time>2026-04-04T07:58:10Z</time></trkpt><trkpt lat="43.64089608836853" lon="10.65041380122212"><ele>23.5</ele><time>2026-04-04T07:58:11Z</time></trkpt><trkpt lat="43.640761407265884" lon="10.650428679916102"><ele>23.75</ele><time>2026-04-04T07:58:12Z</time></trkpt><trkpt lat="43.64062459444557" lon="10.650453082055293"><ele>24.0</ele><time>2026-04-04T07:58:13Z</time></trkpt><trkpt lat="43.64049406132353" lon="10.650481505808939"><ele>24.0</ele><time>2026-04-04T07:58:14Z</time></trkpt><trkpt lat="43.6403701740318" lon="10.650507224379497"><ele>24.0</ele><time>2026-04-04T07:58:15Z</time></trkpt><trkpt lat="43.64024516832449" lon="10.650553343947017"><ele>24.0</ele><time>2026-04-04T07:58:16Z</time></trkpt><trkpt lat="43.640130134284064" lon="10.650593025699662"><ele>24.0</ele><time>2026-04-04T07:58:17Z</time></trkpt><trkpt lat="43.64002459856225" lon="10.65063666978632"><ele>23.833333333333332</ele><time>2026-04-04T07:58:18Z</time></trkpt><trkpt lat="43.639924755696455" lon="10.650671821386409"><ele>23.666666666666668</ele><time>2026-04-04T07:58:19Z</time></trkpt><trkpt lat="43.63983977427032" lon="10.650697984116244"><ele>23.5</ele><time>2026-04-04T07:58:20Z</time></trkpt><trkpt lat="43.63976379925669" lon="10.650717137598226"><ele>23.333333333333336</ele><time>2026-04-04T07:58:21Z</time></trkpt><trkpt lat="43.639678199089886" lon="10.650748492992776"><ele>23.166666666666668</ele><time>2026-04-04T07:58:22Z</time></trkpt><trkpt lat="43.63959075076827" lon="10.650768253043179"><ele>23.0</ele><time>2026-04-04T07:58:23Z</time></trkpt><trkpt lat="43.639504798538894" lon="10.650794062296441"><ele>23.25</ele><time>2026-04-04T07:58:24Z</time></trkpt><trkpt lat="43.63937046678935" lon="10.650955627040545"><ele>23.5</ele><time>2026-04-04T07:58:26Z</time></trkpt><trkpt lat="43.63932041778674" lon="10.651085294869624"><ele>23.75</ele><time>2026-04-04T07:58:27Z</time></trkpt><trkpt lat="43.63925212563738" lon="10.651208454404513"><ele>24.0</ele><time>2026-04-04T07:58:28Z</time></trkpt><trkpt lat="43.63916532663723" lon="10.651344315975667"><ele>24.0</ele><time>2026-04-04T07:58:29Z</time></trkpt><trkpt lat="43.63906881267568" lon="10.651473158254282"><ele>24.0</ele><time>2026-04-04T07:58:30Z</time></trkpt><trkpt lat="43.63896312286806" lon="10.651593249188036"><ele>24.0</ele><time>2026-04-04T07:58:31Z</time></trkpt><trkpt lat="43.63886000880189" lon="10.651715683450302"><ele>24.0</ele><time>2026-04-04T07:58:32Z</time></trkpt><trkpt lat="43.63874586998002" lon="10.65184858383633"><ele>24.0</ele><time>2026-04-04T07:58:33Z</time></trkpt><trkpt lat="43.63863369494193" lon="10.651978933000237"><ele>24.0</ele><time>2026-04-04T07:58:34Z</time></trkpt><trkpt lat="43.638528718809305" lon="10.652114257559687"><ele>24.0</ele><time>2026-04-04T07:58:35Z</time></trkpt><trkpt lat="43.638429787541156" lon="10.652215876845661"><ele>24.0</ele><time>2026-04-04T07:58:36Z</time></trkpt><trkpt lat="43.638340399582155" lon="10.652333948902559"><ele>24.0</ele><time>2026-04-04T07:58:37Z</time></trkpt><trkpt lat="43.6382520015164" lon="10.652442590134244"><ele>24.0</ele><time>2026-04-04T07:58:38Z</time></trkpt><trkpt lat="43.63815766813271" lon="10.652557342438842"><ele>24.0</ele><time>2026-04-04T07:58:39Z</time></trkpt><trkpt lat="43.63806082359711" lon="10.652665848168322"><ele>24.0</ele><time>2026-04-04T07:58:40Z</time></trkpt><trkpt lat="43.63796611979199" lon="10.652774893018169"><ele>24.5</ele><time>2026-04-04T07:58:41Z</time></trkpt><trkpt lat="43.63787073087006" lon="10.652886712776409"><ele>25.0</ele><time>2026-04-04T07:58:42Z</time></trkpt><trkpt lat="43.637776526433235" lon="10.652996823302967"><ele>25.5</ele><time>2026-04-04T07:58:43Z</time></trkpt><trkpt lat="43.63767798143141" lon="10.653117601397856"><ele>26.0</ele><time>2026-04-04T07:58:44Z</time></trkpt><trkpt lat="43.63757749141115" lon="10.653241880602112"><ele>26.0</ele><time>2026-04-04T07:58:45Z</time></trkpt><trkpt lat="43.637479817189465" lon="10.653368831962483"><ele>26.0</ele><time>2026-04-04T07:58:46Z</time></trkpt><trkpt lat="43.63737800377308" lon="10.65349225721279"><ele>26.0</ele><time>2026-04-04T07:58:46.999Z</time></trkpt><trkpt lat="43.637269908354234" lon="10.653630660383547"><ele>26.0</ele><time>2026-04-04T07:58:47.999Z</time></trkpt><trkpt lat="43.63716313409539" lon="10.653775555568648"><ele>26.0</ele><time>2026-04-04T07:58:48.999Z</time></trkpt><trkpt lat="43.637048743219616" lon="10.65391958628335"><ele>26.0</ele><time>2026-04-04T07:58:49.999Z</time></trkpt><trkpt lat="43.63693328612581" lon="10.654064388946358"><ele>26.0</ele><time>2026-04-04T07:58:50.999Z</time></trkpt><trkpt lat="43.63682303522069" lon="10.65421205445804"><ele>25.333333333333332</ele><time>2026-04-04T07:58:51.999Z</time></trkpt><trkpt lat="43.636714434320965" lon="10.654356121726263"><ele>24.666666666666664</ele><time>2026-04-04T07:58:52.999Z</time></trkpt><trkpt lat="43.63659574865621" lon="10.654502017780302"><ele>24.0</ele><time>2026-04-04T07:58:53.999Z</time></trkpt><trkpt lat="43.63649460542329" lon="10.65465251503925"><ele>24.666666666666664</ele><time>2026-04-04T07:58:54.999Z</time></trkpt><trkpt lat="43.63636698995688" lon="10.654798783687488"><ele>25.333333333333332</ele><time>2026-04-04T07:58:55.999Z</time></trkpt><trkpt lat="43.63624387941379" lon="10.654960403957128"><ele>26.0</ele><time>2026-04-04T07:58:56.999Z</time></trkpt><trkpt lat="43.63610740533134" lon="10.655112222981078"><ele>26.0</ele><time>2026-04-04T07:58:57.999Z</time></trkpt><trkpt lat="43.635970856915186" lon="10.655253774809823"><ele>26.0</ele><time>2026-04-04T07:58:58.999Z</time></trkpt><trkpt lat="43.635832266523586" lon="10.655372880157886"><ele>26.0</ele><time>2026-04-04T07:58:59.999Z</time></trkpt><trkpt lat="43.635683574558264" lon="10.6554830345335"><ele>26.333333333333332</ele><time>2026-04-04T07:59:00.999Z</time></trkpt><trkpt lat="43.63553263161131" lon="10.655606002231858"><ele>26.666666666666664</ele><time>2026-04-04T07:59:01.999Z</time></trkpt><trkpt lat="43.63539163565927" lon="10.655721581162547"><ele>27.0</ele><time>2026-04-04T07:59:02.999Z</time></trkpt><trkpt lat="43.63525092579291" lon="10.655819854771954"><ele>27.0</ele><time>2026-04-04T07:59:03.999Z</time></trkpt><trkpt lat="43.63512013296416" lon="10.65593397568268"><ele>27.0</ele><time>2026-04-04T07:59:04.999Z</time></trkpt><trkpt lat="43.63499625495174" lon="10.656041916028377"><ele>27.0</ele><time>2026-04-04T07:59:05.999Z</time></trkpt><trkpt lat="43.634871179210336" lon="10.656143331270371"><ele>27.0</ele><time>2026-04-04T07:59:06.999Z</time></trkpt><trkpt lat="43.634749928371484" lon="10.656236345831953"><ele>26.75</ele><time>2026-04-04T07:59:07.999Z</time></trkpt><trkpt lat="43.63463461713617" lon="10.656324777826306"><ele>26.5</ele><time>2026-04-04T07:59:08.999Z</time></trkpt><trkpt lat="43.63452207013575" lon="10.656396651447968"><ele>26.25</ele><time>2026-04-04T07:59:09.999Z</time></trkpt><trkpt lat="43.634409412454445" lon="10.656475725869523"><ele>26.0</ele><time>2026-04-04T07:59:10.999Z</time></trkpt><trkpt lat="43.63429727719043" lon="10.656554666200888"><ele>26.0</ele><time>2026-04-04T07:59:11.999Z</time></trkpt><trkpt lat="43.634187241322195" lon="10.656639258419338"><ele>26.0</ele><time>2026-04-04T07:59:12.999Z</time></trkpt><trkpt lat="43.63407259879971" lon="10.65672454207009"><ele>26.0</ele><time>2026-04-04T07:59:14Z</time></trkpt><trkpt lat="43.63396397159178" lon="10.656814549771783"><ele>26.0</ele><time>2026-04-04T07:59:15Z</time></trkpt><trkpt lat="43.63385158116662" lon="10.656904733823824"><ele>25.75</ele><time>2026-04-04T07:59:16Z</time></trkpt><trkpt lat="43.6337425987209" lon="10.656995502910904"><ele>25.5</ele><time>2026-04-04T07:59:17Z</time></trkpt><trkpt lat="43.633631275929446" lon="10.657085913367911"><ele>25.25</ele><time>2026-04-04T07:59:18Z</time></trkpt><trkpt lat="43.63350603324776" lon="10.657192503523373"><ele>25.0</ele><time>2026-04-04T07:59:19Z</time></trkpt><trkpt lat="43.633371924666456" lon="10.657293084930828"><ele>25.0</ele><time>2026-04-04T07:59:20Z</time></trkpt><trkpt lat="43.63323483749167" lon="10.657396728557266"><ele>25.0</ele><time>2026-04-04T07:59:21Z</time></trkpt><trkpt lat="43.63309745334351" lon="10.657504686815985"><ele>25.0</ele><time>2026-04-04T07:59:22Z</time></trkpt><trkpt lat="43.63296226902895" lon="10.657611636296073"><ele>25.0</ele><time>2026-04-04T07:59:23Z</time></trkpt><trkpt lat="43.632828531839586" lon="10.657713960469342"><ele>25.0</ele><time>2026-04-04T07:59:24Z</time></trkpt><trkpt lat="43.632698250961255" lon="10.657808002412146"><ele>25.0</ele><time>2026-04-04T07:59:25Z</time></trkpt><trkpt lat="43.63256633796769" lon="10.657892133031533"><ele>25.0</ele><time>2026-04-04T07:59:26Z</time></trkpt><trkpt lat="43.63245248921067" lon="10.657980685645663"><ele>24.5</ele><time>2026-04-04T07:59:27Z</time></trkpt><trkpt lat="43.632338564345474" lon="10.658054865359444"><ele>24.0</ele><time>2026-04-04T07:59:28Z</time></trkpt><trkpt lat="43.63222782376926" lon="10.65811821631063"><ele>23.5</ele><time>2026-04-04T07:59:29Z</time></trkpt><trkpt lat="43.632122165017634" lon="10.658178931332808"><ele>23.0</ele><time>2026-04-04T07:59:30Z</time></trkpt><trkpt lat="43.63200982844401" lon="10.65823689545077"><ele>22.75</ele><time>2026-04-04T07:59:31Z</time></trkpt><trkpt lat="43.63191002366238" lon="10.658332230859703"><ele>22.5</ele><time>2026-04-04T07:59:32Z</time></trkpt><trkpt lat="43.631819311698905" lon="10.65843980280509"><ele>22.25</ele><time>2026-04-04T07:59:33Z</time></trkpt><trkpt lat="43.63172943012142" lon="10.658512856760007"><ele>22.0</ele><time>2026-04-04T07:59:34Z</time></trkpt><trkpt lat="43.63163187575006" lon="10.658580179167199"><ele>23.0</ele><time>2026-04-04T07:59:35Z</time></trkpt><trkpt lat="43.631531620822585" lon="10.658648214483307"><ele>24.0</ele><time>2026-04-04T07:59:36Z</time></trkpt><trkpt lat="43.63141784293737" lon="10.658725350215349"><ele>25.0</ele><time>2026-04-04T07:59:37Z</time></trkpt><trkpt lat="43.631325095701186" lon="10.65878269247225"><ele>26.0</ele><time>2026-04-04T07:59:38Z</time></trkpt><trkpt lat="43.631214402257086" lon="10.658857097490456"><ele>25.333333333333332</ele><time>2026-04-04T07:59:39Z</time></trkpt><trkpt lat="43.63106624640543" lon="10.658915174246932"><ele>24.666666666666664</ele><time>2026-04-04T07:59:40Z</time></trkpt><trkpt lat="43.630898396540246" lon="10.659019647245762"><ele>24.0</ele><time>2026-04-04T07:59:41Z</time></trkpt><trkpt lat="43.63069078386825" lon="10.659108665726299"><ele>24.0</ele><time>2026-04-04T07:59:42Z</time></trkpt><trkpt lat="43.6304928811745" lon="10.659199229114641"><ele>24.0</ele><time>2026-04-04T07:59:43Z</time></trkpt><trkpt lat="43.630279670653124" lon="10.659308827589573"><ele>24.0</ele><time>2026-04-04T07:59:44Z</time></trkpt><trkpt lat="43.63006260157483" lon="10.65939782538376"><ele>25.5</ele><time>2026-04-04T07:59:45Z</time></trkpt><trkpt lat="43.629841743503064" lon="10.659483907614879"><ele>27.0</ele><time>2026-04-04T07:59:46Z</time></trkpt><trkpt lat="43.62961624839034" lon="10.659559272250402"><ele>26.666666666666664</ele><time>2026-04-04T07:59:47Z</time></trkpt><trkpt lat="43.62941028009126" lon="10.659629838779033"><ele>26.333333333333332</ele><time>2026-04-04T07:59:48Z</time></trkpt><trkpt lat="43.62921609492169" lon="10.659664455940542"><ele>26.0</ele><time>2026-04-04T07:59:49Z</time></trkpt><trkpt lat="43.62904469522907" lon="10.659727366352305"><ele>26.0</ele><time>2026-04-04T07:59:50Z</time></trkpt><trkpt lat="43.62889137145368" lon="10.659762807724368"><ele>26.0</ele><time>2026-04-04T07:59:51Z</time></trkpt><trkpt lat="43.62875569370587" lon="10.659791250897149"><ele>26.0</ele><time>2026-04-04T07:59:52Z</time></trkpt><trkpt lat="43.628640352425926" lon="10.659803204153365"><ele>26.0</ele><time>2026-04-04T07:59:53Z</time></trkpt><trkpt lat="43.62855093357505" lon="10.659809221199223"><ele>26.200000000000003</ele><time>2026-04-04T07:59:54Z</time></trkpt><trkpt lat="43.62846775572355" lon="10.65980588624253"><ele>26.400000000000002</ele><time>2026-04-04T07:59:55Z</time></trkpt><trkpt lat="43.628379995698566" lon="10.659777084061254"><ele>26.6</ele><time>2026-04-04T07:59:56Z</time></trkpt><trkpt lat="43.628293471888554" lon="10.659711765630782"><ele>26.8</ele><time>2026-04-04T07:59:57Z</time></trkpt><trkpt lat="43.62820500258838" lon="10.659636015556345"><ele>27.0</ele><time>2026-04-04T07:59:58Z</time></trkpt><trkpt lat="43.628119624975575" lon="10.659538388551054"><ele>27.333333333333336</ele><time>2026-04-04T07:59:59Z</time></trkpt><trkpt lat="43.6280416596463" lon="10.659370519289222"><ele>27.666666666666668</ele><time>2026-04-04T08:00:00Z</time></trkpt><trkpt lat="43.627987112817785" lon="10.659155755418714"><ele>28.0</ele><time>2026-04-04T08:00:01Z</time></trkpt><trkpt lat="43.62793865596598" lon="10.658936389209543"><ele>28.0</ele><time>2026-04-04T08:00:02Z</time></trkpt><trkpt lat="43.62789985626173" lon="10.658708124648197"><ele>28.0</ele><time>2026-04-04T08:00:03Z</time></trkpt><trkpt lat="43.627858565672454" lon="10.658465693823194"><ele>28.0</ele><time>2026-04-04T08:00:04Z</time></trkpt><trkpt lat="43.6278184416311" lon="10.658207498121648"><ele>28.333333333333336</ele><time>2026-04-04T08:00:05Z</time></trkpt><trkpt lat="43.62777783811755" lon="10.657945586160308"><ele>28.666666666666664</ele><time>2026-04-04T08:00:06Z</time></trkpt><trkpt lat="43.62773555303688" lon="10.657680008209176"><ele>29.0</ele><time>2026-04-04T08:00:07Z</time></trkpt><trkpt lat="43.627691964395034" lon="10.657417475950373"><ele>29.0</ele><time>2026-04-04T08:00:08Z</time></trkpt><trkpt lat="43.627641120857184" lon="10.65716242507631"><ele>29.0</ele><time>2026-04-04T08:00:09Z</time></trkpt><trkpt lat="43.6275840146971" lon="10.656914813978817"><ele>29.0</ele><time>2026-04-04T08:00:10Z</time></trkpt><trkpt lat="43.62751793080908" lon="10.656668478054947"><ele>29.333333333333332</ele><time>2026-04-04T08:00:11Z</time></trkpt><trkpt lat="43.627442229919254" lon="10.656422732037068"><ele>29.666666666666664</ele><time>2026-04-04T08:00:12Z</time></trkpt><trkpt lat="43.627361586642316" lon="10.656179258820963"><ele>30.0</ele><time>2026-04-04T08:00:13Z</time></trkpt><trkpt lat="43.627269147336904" lon="10.655937964327023"><ele>29.333333333333336</ele><time>2026-04-04T08:00:14Z</time></trkpt><trkpt lat="43.627171800983746" lon="10.655699659826368"><ele>28.666666666666668</ele><time>2026-04-04T08:00:15Z</time></trkpt><trkpt lat="43.62706214917258" lon="10.6554622963343"><ele>28.0</ele><time>2026-04-04T08:00:16Z</time></trkpt><trkpt lat="43.62693855907478" lon="10.655225224123603"><ele>27.0</ele><time>2026-04-04T08:00:17Z</time></trkpt><trkpt lat="43.62680396198978" lon="10.654995476821256"><ele>26.0</ele><time>2026-04-04T08:00:18Z</time></trkpt><trkpt lat="43.62666844194223" lon="10.654780149293893"><ele>25.0</ele><time>2026-04-04T08:00:19Z</time></trkpt><trkpt lat="43.626532746137315" lon="10.654571072950649"><ele>24.333333333333336</ele><time>2026-04-04T08:00:20Z</time></trkpt><trkpt lat="43.62637680085202" lon="10.654371230545179"><ele>23.666666666666668</ele><time>2026-04-04T08:00:21Z</time></trkpt><trkpt lat="43.62622298154988" lon="10.654181237977166"><ele>23.0</ele><time>2026-04-04T08:00:22Z</time></trkpt><trkpt lat="43.62606213938109" lon="10.654003826311268"><ele>23.0</ele><time>2026-04-04T08:00:23Z</time></trkpt><trkpt lat="43.62589497557185" lon="10.653839618247495"><ele>23.0</ele><time>2026-04-04T08:00:24Z</time></trkpt><trkpt lat="43.62572666041923" lon="10.653680686899367"><ele>23.0</ele><time>2026-04-04T08:00:25Z</time></trkpt><trkpt lat="43.62556033989519" lon="10.65352212749201"><ele>23.0</ele><time>2026-04-04T08:00:26Z</time></trkpt><trkpt lat="43.62539432497793" lon="10.653358214158308"><ele>23.0</ele><time>2026-04-04T08:00:27Z</time></trkpt><trkpt lat="43.62523340338106" lon="10.6531901178816"><ele>23.0</ele><time>2026-04-04T08:00:28Z</time></trkpt><trkpt lat="43.6250756906117" lon="10.653003858016827"><ele>22.666666666666668</ele><time>2026-04-04T08:00:29Z</time></trkpt><trkpt lat="43.6249443142871" lon="10.65276695972043"><ele>22.333333333333332</ele><time>2026-04-04T08:00:30Z</time></trkpt><trkpt lat="43.624804457879215" lon="10.6525289562616"><ele>22.0</ele><time>2026-04-04T08:00:31Z</time></trkpt><trkpt lat="43.624666093139545" lon="10.652295695370112"><ele>22.0</ele><time>2026-04-04T08:00:32Z</time></trkpt><trkpt lat="43.6245245835615" lon="10.65205752040279"><ele>22.0</ele><time>2026-04-04T08:00:33Z</time></trkpt><trkpt lat="43.62437806295448" lon="10.651811145909335"><ele>22.5</ele><time>2026-04-04T08:00:34Z</time></trkpt><trkpt lat="43.624221455968645" lon="10.651547811737471"><ele>23.0</ele><time>2026-04-04T08:00:35Z</time></trkpt><trkpt lat="43.62405536624843" lon="10.651268532783497"><ele>23.0</ele><time>2026-04-04T08:00:36Z</time></trkpt><trkpt lat="43.62388852429941" lon="10.6509879880689"><ele>23.0</ele><time>2026-04-04T08:00:37Z</time></trkpt><trkpt lat="43.62373158446564" lon="10.650724093771508"><ele>22.5</ele><time>2026-04-04T08:00:38Z</time></trkpt><trkpt lat="43.62357637804618" lon="10.650465211243604"><ele>22.0</ele><time>2026-04-04T08:00:39Z</time></trkpt><trkpt lat="43.62342511134976" lon="10.650212942106064"><ele>22.0</ele><time>2026-04-04T08:00:40Z</time></trkpt><trkpt lat="43.62327605230392" lon="10.649964354715172"><ele>22.0</ele><time>2026-04-04T08:00:41Z</time></trkpt><trkpt lat="43.623129516558585" lon="10.649719720016176"><ele>22.0</ele><time>2026-04-04T08:00:42Z</time></trkpt><trkpt lat="43.622984371714445" lon="10.6494772401773"><ele>22.0</ele><time>2026-04-04T08:00:43Z</time></trkpt><trkpt lat="43.62284133591384" lon="10.649238283727621"><ele>22.5</ele><time>2026-04-04T08:00:44Z</time></trkpt><trkpt lat="43.622698232975885" lon="10.648999215120991"><ele>23.0</ele><time>2026-04-04T08:00:45.001Z</time></trkpt><trkpt lat="43.62254311476917" lon="10.648772099283667"><ele>22.666666666666668</ele><time>2026-04-04T08:00:46.001Z</time></trkpt><trkpt lat="43.62240256009044" lon="10.648528790605127"><ele>22.333333333333332</ele><time>2026-04-04T08:00:47.001Z</time></trkpt><trkpt lat="43.62226115072688" lon="10.64829510442107"><ele>22.0</ele><time>2026-04-04T08:00:48.001Z</time></trkpt><trkpt lat="43.62212562686233" lon="10.648072281957248"><ele>22.0</ele><time>2026-04-04T08:00:49.001Z</time></trkpt><trkpt lat="43.6219989248045" lon="10.647862076775322"><ele>22.0</ele><time>2026-04-04T08:00:50.001Z</time></trkpt><trkpt lat="43.62188248498157" lon="10.647648867242257"><ele>22.0</ele><time>2026-04-04T08:00:51.001Z</time></trkpt><trkpt lat="43.621773204223764" lon="10.647434506061476"><ele>21.666666666666664</ele><time>2026-04-04T08:00:52.001Z</time></trkpt><trkpt lat="43.62165386946088" lon="10.647237498415182"><ele>21.333333333333332</ele><time>2026-04-04T08:00:52.999Z</time></trkpt><trkpt lat="43.621544904391634" lon="10.647030358716451"><ele>21.0</ele><time>2026-04-04T08:00:53.999Z</time></trkpt><trkpt lat="43.62142609078753" lon="10.646833232949419"><ele>21.0</ele><time>2026-04-04T08:00:54.999Z</time></trkpt><trkpt lat="43.621309327267305" lon="10.646646467691436"><ele>21.0</ele><time>2026-04-04T08:00:55.999Z</time></trkpt><trkpt lat="43.62119271463702" lon="10.646476630737737"><ele>21.0</ele><time>2026-04-04T08:00:56.999Z</time></trkpt><trkpt lat="43.62107643778743" lon="10.646323540781419"><ele>21.0</ele><time>2026-04-04T08:00:57.999Z</time></trkpt><trkpt lat="43.62097462715053" lon="10.646176462972525"><ele>21.0</ele><time>2026-04-04T08:00:58.999Z</time></trkpt><trkpt lat="43.62085527376407" lon="10.646083476758127"><ele>21.0</ele><time>2026-04-04T08:00:59.999Z</time></trkpt><trkpt lat="43.620752744622116" lon="10.645988465260125"><ele>21.0</ele><time>2026-04-04T08:01:00.999Z</time></trkpt><trkpt lat="43.6206575499363" lon="10.64591060199076"><ele>21.0</ele><time>2026-04-04T08:01:01.999Z</time></trkpt><trkpt lat="43.62056471912647" lon="10.64584857837344"><ele>21.0</ele><time>2026-04-04T08:01:02.999Z</time></trkpt><trkpt lat="43.62047655826909" lon="10.645785752429477"><ele>21.0</ele><time>2026-04-04T08:01:03.999Z</time></trkpt><trkpt lat="43.62039335709147" lon="10.645731695631602"><ele>21.0</ele><time>2026-04-04T08:01:04.999Z</time></trkpt><trkpt lat="43.620318511148895" lon="10.645686814035427"><ele>21.0</ele><time>2026-04-04T08:01:05.999Z</time></trkpt><trkpt lat="43.62024782283547" lon="10.645644791300878"><ele>21.166666666666668</ele><time>2026-04-04T08:01:06.999Z</time></trkpt><trkpt lat="43.620189317604705" lon="10.645584912256814"><ele>21.333333333333332</ele><time>2026-04-04T08:01:07.999Z</time></trkpt><trkpt lat="43.62012464028771" lon="10.645558347437532"><ele>21.5</ele><time>2026-04-04T08:01:08.999Z</time></trkpt><trkpt lat="43.62002391153938" lon="10.64548783223309"><ele>21.666666666666664</ele><time>2026-04-04T08:01:10.999Z</time></trkpt><trkpt lat="43.61997517293365" lon="10.645413564416192"><ele>21.833333333333332</ele><time>2026-04-04T08:01:13Z</time></trkpt><trkpt lat="43.61989276270531" lon="10.645382669177751"><ele>22.0</ele><time>2026-04-04T08:02:22.001Z</time></trkpt><trkpt lat="43.619825953839594" lon="10.645345569379355"><ele>22.0</ele><time>2026-04-04T08:02:24.001Z</time></trkpt><trkpt lat="43.619763241680786" lon="10.645310374760182"><ele>22.0</ele><time>2026-04-04T08:02:26.001Z</time></trkpt><trkpt lat="43.61970975770974" lon="10.645255173602466"><ele>22.0</ele><time>2026-04-04T08:02:28.001Z</time></trkpt><trkpt lat="43.619671360541396" lon="10.64516996907045"><ele>22.0</ele><time>2026-04-04T08:02:31.001Z</time></trkpt><trkpt lat="43.61961856743928" lon="10.64508669709241"><ele>22.0</ele><time>2026-04-04T08:02:34.001Z</time></trkpt><trkpt lat="43.619572591309385" lon="10.644995129045867"><ele>22.0</ele><time>2026-04-04T08:02:36.001Z</time></trkpt><trkpt lat="43.619552908333944" lon="10.6448443657084"><ele>22.0</ele><time>2026-04-04T08:02:38.001Z</time></trkpt><trkpt lat="43.619525821823196" lon="10.6446720331747"><ele>22.0</ele><time>2026-04-04T08:02:40.001Z</time></trkpt><trkpt lat="43.619524146814605" lon="10.644569674309615"><ele>22.0</ele><time>2026-04-04T08:02:41.001Z</time></trkpt><trkpt lat="43.6194908272415" lon="10.644471071391944"><ele>22.0</ele><time>2026-04-04T08:02:42.001Z</time></trkpt><trkpt lat="43.61947346352072" lon="10.644365923968241"><ele>22.0</ele><time>2026-04-04T08:02:43.001Z</time></trkpt><trkpt lat="43.61946750560145" lon="10.6442581634277"><ele>22.0</ele><time>2026-04-04T08:02:44.001Z</time></trkpt><trkpt lat="43.61944298401715" lon="10.644156940878808"><ele>22.0</ele><time>2026-04-04T08:02:45.001Z</time></trkpt><trkpt lat="43.61939255745524" lon="10.644074760167708"><ele>22.0</ele><time>2026-04-04T08:02:46.001Z</time></trkpt><trkpt lat="43.61934096638711" lon="10.643994278661637"><ele>22.0</ele><time>2026-04-04T08:02:47.001Z</time></trkpt><trkpt lat="43.61927775254498" lon="10.643926866389535"><ele>22.0</ele><time>2026-04-04T08:02:48.001Z</time></trkpt><trkpt lat="43.6192003935333" lon="10.643888483636069"><ele>22.0</ele><time>2026-04-04T08:02:49.001Z</time></trkpt><trkpt lat="43.61913999622416" lon="10.643854543089168"><ele>22.0</ele><time>2026-04-04T08:02:50.001Z</time></trkpt><trkpt lat="43.619036009724994" lon="10.643797793876296"><ele>22.0</ele><time>2026-04-04T08:02:52.001Z</time></trkpt><trkpt lat="43.618942970037956" lon="10.64374812153441"><ele>22.0</ele><time>2026-04-04T08:02:54.001Z</time></trkpt><trkpt lat="43.618833793137895" lon="10.643690850201061"><ele>22.0</ele><time>2026-04-04T08:02:56.001Z</time></trkpt><trkpt lat="43.618772192507265" lon="10.643658536127825"><ele>22.0</ele><time>2026-04-04T08:02:57.001Z</time></trkpt><trkpt lat="43.6187043967812" lon="10.64362297227206"><ele>22.0</ele><time>2026-04-04T08:02:58.001Z</time></trkpt><trkpt lat="43.6186366095766" lon="10.643585449039634"><ele>22.0</ele><time>2026-04-04T08:02:58.999Z</time></trkpt><trkpt lat="43.6185772918536" lon="10.643548618694266"><ele>22.0</ele><time>2026-04-04T08:02:59.999Z</time></trkpt><trkpt lat="43.61851624277811" lon="10.643519903930677"><ele>22.0</ele><time>2026-04-04T08:03:00.999Z</time></trkpt><trkpt lat="43.61847984877768" lon="10.64344824439228"><ele>22.0</ele><time>2026-04-04T08:03:01.999Z</time></trkpt><trkpt lat="43.618464490459495" lon="10.643355557222705"><ele>22.0</ele><time>2026-04-04T08:03:02.999Z</time></trkpt><trkpt lat="43.618473234069334" lon="10.643258459391344"><ele>22.0</ele><time>2026-04-04T08:03:03.999Z</time></trkpt><trkpt lat="43.61849462328668" lon="10.643151226267783"><ele>22.0</ele><time>2026-04-04T08:03:04.999Z</time></trkpt><trkpt lat="43.61852447532004" lon="10.643036173026976"><ele>22.0</ele><time>2026-04-04T08:03:05.999Z</time></trkpt><trkpt lat="43.61856308479652" lon="10.64292410358944"><ele>22.0</ele><time>2026-04-04T08:03:06.999Z</time></trkpt><trkpt lat="43.61861872925882" lon="10.642820493318055"><ele>22.0</ele><time>2026-04-04T08:03:07.999Z</time></trkpt><trkpt lat="43.618684426691786" lon="10.642724642104632"><ele>22.0</ele><time>2026-04-04T08:03:08.999Z</time></trkpt><trkpt lat="43.618753411378144" lon="10.642627725071655"><ele>22.0</ele><time>2026-04-04T08:03:10Z</time></trkpt><trkpt lat="43.61881912506097" lon="10.64252895325976"><ele>22.0</ele><time>2026-04-04T08:03:11Z</time></trkpt><trkpt lat="43.61888133810733" lon="10.64243433505655"><ele>22.0</ele><time>2026-04-04T08:03:12Z</time></trkpt><trkpt lat="43.61893498827535" lon="10.64233250058461"><ele>22.0</ele><time>2026-04-04T08:03:13Z</time></trkpt><trkpt lat="43.618984095353134" lon="10.642223505957897"><ele>22.0</ele><time>2026-04-04T08:03:14Z</time></trkpt><trkpt lat="43.61901545155797" lon="10.642102616887156"><ele>22.0</ele><time>2026-04-04T08:03:15Z</time></trkpt><trkpt lat="43.61903273298542" lon="10.641977754303376"><ele>22.0</ele><time>2026-04-04T08:03:16Z</time></trkpt><trkpt lat="43.61904117324196" lon="10.641848214140024"><ele>22.200000000000003</ele><time>2026-04-04T08:03:17Z</time></trkpt><trkpt lat="43.619044113009686" lon="10.641720316378898"><ele>22.4</ele><time>2026-04-04T08:03:18Z</time></trkpt><trkpt lat="43.619045685193456" lon="10.64159319717878"><ele>22.6</ele><time>2026-04-04T08:03:19Z</time></trkpt><trkpt lat="43.61904930332627" lon="10.641471078833757"><ele>22.799999999999997</ele><time>2026-04-04T08:03:20Z</time></trkpt><trkpt lat="43.61905154382956" lon="10.641346304864081"><ele>23.0</ele><time>2026-04-04T08:03:21Z</time></trkpt><trkpt lat="43.619051475491354" lon="10.641220836810541"><ele>23.2</ele><time>2026-04-04T08:03:22Z</time></trkpt><trkpt lat="43.61905104531333" lon="10.641093407278612"><ele>23.4</ele><time>2026-04-04T08:03:23Z</time></trkpt><trkpt lat="43.619054323471616" lon="10.640965218872699"><ele>23.599999999999998</ele><time>2026-04-04T08:03:24Z</time></trkpt><trkpt lat="43.61905941054503" lon="10.640832147489819"><ele>23.799999999999997</ele><time>2026-04-04T08:03:25Z</time></trkpt><trkpt lat="43.61906454578921" lon="10.640703293367558"><ele>24.0</ele><time>2026-04-04T08:03:26Z</time></trkpt><trkpt lat="43.61906695332267" lon="10.64057021327565"><ele>24.0</ele><time>2026-04-04T08:03:27Z</time></trkpt><trkpt lat="43.619076968289974" lon="10.640435172618126"><ele>24.0</ele><time>2026-04-04T08:03:28Z</time></trkpt><trkpt lat="43.61907647917238" lon="10.64029650940682"><ele>24.0</ele><time>2026-04-04T08:03:29Z</time></trkpt><trkpt lat="43.61907926039046" lon="10.640162105966844"><ele>24.0</ele><time>2026-04-04T08:03:30Z</time></trkpt><trkpt lat="43.61908182826346" lon="10.640038012509107"><ele>24.0</ele><time>2026-04-04T08:03:31Z</time></trkpt><trkpt lat="43.619084645861356" lon="10.639894556256744"><ele>24.0</ele><time>2026-04-04T08:03:32Z</time></trkpt><trkpt lat="43.619087167762736" lon="10.639754707793571"><ele>24.0</ele><time>2026-04-04T08:03:33Z</time></trkpt><trkpt lat="43.619125856546255" lon="10.639615786525003"><ele>24.0</ele><time>2026-04-04T08:03:34Z</time></trkpt><trkpt lat="43.61953826655456" lon="10.63949992462844"><ele>25.0</ele><time>2026-04-04T08:03:35Z</time></trkpt><trkpt lat="43.61909661298906" lon="10.63936783375654"><ele>25.000000000000004</ele><time>2026-04-04T08:03:36Z</time></trkpt><trkpt lat="43.61909712675773" lon="10.63924979858623"><ele>25.0</ele><time>2026-04-04T08:03:37Z</time></trkpt><trkpt lat="43.619094157004" lon="10.639141301583434"><ele>25.0</ele><time>2026-04-04T08:03:38Z</time></trkpt><trkpt lat="43.61909410557761" lon="10.639030896767366"><ele>25.0</ele><time>2026-04-04T08:03:39Z</time></trkpt><trkpt lat="43.619096722251754" lon="10.638921619432576"><ele>25.000000000000004</ele><time>2026-04-04T08:03:40Z</time></trkpt><trkpt lat="43.619095875735994" lon="10.638798744468332"><ele>25.0</ele><time>2026-04-04T08:03:41Z</time></trkpt><trkpt lat="43.61909539819977" lon="10.63867872448853"><ele>24.666666666666668</ele><time>2026-04-04T08:03:42Z</time></trkpt><trkpt lat="43.61910212347511" lon="10.638568920665707"><ele>24.333333333333336</ele><time>2026-04-04T08:03:43Z</time></trkpt><trkpt lat="43.61910475461787" lon="10.638475849207623"><ele>24.0</ele><time>2026-04-04T08:03:44Z</time></trkpt><trkpt lat="43.61910072205309" lon="10.638356232749967"><ele>23.666666666666668</ele><time>2026-04-04T08:03:46Z</time></trkpt><trkpt lat="43.61898137653136" lon="10.638320646417633"><ele>23.333333333333336</ele><time>2026-04-04T08:03:47Z</time></trkpt><trkpt lat="43.618891277543405" lon="10.63831935271394"><ele>23.0</ele><time>2026-04-04T08:03:48Z</time></trkpt><trkpt lat="43.61879857033138" lon="10.638300849479357"><ele>23.0</ele><time>2026-04-04T08:03:49Z</time></trkpt><trkpt lat="43.618702544639916" lon="10.638274172171217"><ele>23.0</ele><time>2026-04-04T08:03:50Z</time></trkpt><trkpt lat="43.618615872079005" lon="10.638248076591415"><ele>23.0</ele><time>2026-04-04T08:03:51Z</time></trkpt><trkpt lat="43.61853030936983" lon="10.638215568012061"><ele>23.0</ele><time>2026-04-04T08:03:52Z</time></trkpt><trkpt lat="43.61844448726264" lon="10.638187703250404"><ele>23.0</ele><time>2026-04-04T08:03:53Z</time></trkpt><trkpt lat="43.61836049042888" lon="10.63817008871681"><ele>23.0</ele><time>2026-04-04T08:03:54Z</time></trkpt><trkpt lat="43.61828002674576" lon="10.638149815979867"><ele>23.28571428571429</ele><time>2026-04-04T08:03:55Z</time></trkpt><trkpt lat="43.618201236510906" lon="10.63812113187625"><ele>23.57142857142857</ele><time>2026-04-04T08:03:56Z</time></trkpt><trkpt lat="43.61812863256273" lon="10.638097524845744"><ele>23.857142857142858</ele><time>2026-04-04T08:03:57Z</time></trkpt><trkpt lat="43.61806365372972" lon="10.638079493510714"><ele>24.142857142857146</ele><time>2026-04-04T08:03:58Z</time></trkpt><trkpt lat="43.618003493825725" lon="10.638052085845066"><ele>24.42857142857143</ele><time>2026-04-04T08:03:59Z</time></trkpt><trkpt lat="43.61793956666893" lon="10.638036430162702"><ele>24.714285714285715</ele><time>2026-04-04T08:04:00Z</time></trkpt><trkpt lat="43.61787529388726" lon="10.638034195061648"><ele>25.0</ele><time>2026-04-04T08:04:01Z</time></trkpt><trkpt lat="43.617763708837806" lon="10.637998314223086"><ele>25.166666666666668</ele><time>2026-04-04T08:04:03Z</time></trkpt><trkpt lat="43.617681717314156" lon="10.637962798713128"><ele>25.333333333333336</ele><time>2026-04-04T08:04:05Z</time></trkpt><trkpt lat="43.617614536517074" lon="10.637925492235162"><ele>25.5</ele><time>2026-04-04T08:04:10.001Z</time></trkpt><trkpt lat="43.61754325207982" lon="10.637884626096378"><ele>25.666666666666664</ele><time>2026-04-04T08:04:16.001Z</time></trkpt><trkpt lat="43.61746635067924" lon="10.637955179766557"><ele>25.833333333333332</ele><time>2026-04-04T08:04:17.001Z</time></trkpt><trkpt lat="43.617401567971626" lon="10.638040255550962"><ele>26.0</ele><time>2026-04-04T08:04:18.001Z</time></trkpt><trkpt lat="43.61733172181988" lon="10.638151587130755"><ele>26.0</ele><time>2026-04-04T08:04:19.001Z</time></trkpt><trkpt lat="43.61726128476702" lon="10.638236143930989"><ele>26.0</ele><time>2026-04-04T08:04:20.001Z</time></trkpt><trkpt lat="43.6171800713325" lon="10.638361951061128"><ele>26.0</ele><time>2026-04-04T08:04:21.001Z</time></trkpt><trkpt lat="43.617089419303205" lon="10.638469319418707"><ele>26.0</ele><time>2026-04-04T08:04:22.001Z</time></trkpt><trkpt lat="43.61700993949999" lon="10.63857602490918"><ele>26.0</ele><time>2026-04-04T08:04:23.001Z</time></trkpt><trkpt lat="43.61691714971042" lon="10.63867959233685"><ele>25.8</ele><time>2026-04-04T08:04:24.001Z</time></trkpt><trkpt lat="43.616835237108596" lon="10.638789242546908"><ele>25.6</ele><time>2026-04-04T08:04:25.001Z</time></trkpt><trkpt lat="43.61676423682806" lon="10.638900821770088"><ele>25.4</ele><time>2026-04-04T08:04:26.001Z</time></trkpt><trkpt lat="43.61669560309633" lon="10.639004552558387"><ele>25.2</ele><time>2026-04-04T08:04:27.001Z</time></trkpt><trkpt lat="43.61662771440235" lon="10.639108069676775"><ele>25.0</ele><time>2026-04-04T08:04:28.001Z</time></trkpt><trkpt lat="43.61655257961798" lon="10.639211052910225"><ele>25.0</ele><time>2026-04-04T08:04:29.001Z</time></trkpt><trkpt lat="43.61647787634268" lon="10.63932464466755"><ele>25.0</ele><time>2026-04-04T08:04:30.001Z</time></trkpt><trkpt lat="43.61639489122605" lon="10.63944559403078"><ele>25.0</ele><time>2026-04-04T08:04:31.001Z</time></trkpt><trkpt lat="43.61631483864446" lon="10.639581188590254"><ele>25.0</ele><time>2026-04-04T08:04:32.001Z</time></trkpt><trkpt lat="43.61621870901273" lon="10.63969650870235"><ele>25.0</ele><time>2026-04-04T08:04:33.001Z</time></trkpt><trkpt lat="43.616157294161496" lon="10.639819392753395"><ele>25.0</ele><time>2026-04-04T08:04:34.001Z</time></trkpt><trkpt lat="43.61610071465386" lon="10.639928812697987"><ele>25.0</ele><time>2026-04-04T08:04:35.001Z</time></trkpt><trkpt lat="43.61605024372702" lon="10.640031139314424"><ele>25.0</ele><time>2026-04-04T08:04:36.001Z</time></trkpt><trkpt lat="43.615999318295046" lon="10.64012365604346"><ele>25.0</ele><time>2026-04-04T08:04:37.001Z</time></trkpt><trkpt lat="43.61592947814902" lon="10.64022782167372"><ele>25.5</ele><time>2026-04-04T08:04:38.001Z</time></trkpt><trkpt lat="43.61585112555042" lon="10.640341398788784"><ele>26.0</ele><time>2026-04-04T08:04:39.001Z</time></trkpt><trkpt lat="43.615750761305286" lon="10.640468141357262"><ele>26.5</ele><time>2026-04-04T08:04:40.001Z</time></trkpt><trkpt lat="43.61561942599335" lon="10.640596834782874"><ele>27.0</ele><time>2026-04-04T08:04:41.001Z</time></trkpt><trkpt lat="43.61547736680365" lon="10.640711124162593"><ele>27.0</ele><time>2026-04-04T08:04:42.001Z</time></trkpt><trkpt lat="43.61531995540478" lon="10.640811915769472"><ele>27.0</ele><time>2026-04-04T08:04:43.001Z</time></trkpt><trkpt lat="43.6151596749123" lon="10.640916178326588"><ele>27.0</ele><time>2026-04-04T08:04:44.001Z</time></trkpt><trkpt lat="43.6149980128385" lon="10.64102441345276"><ele>26.666666666666664</ele><time>2026-04-04T08:04:45.001Z</time></trkpt><trkpt lat="43.614838182322025" lon="10.641139141056865"><ele>26.333333333333332</ele><time>2026-04-04T08:04:46.001Z</time></trkpt><trkpt lat="43.614678330259274" lon="10.641253363624452"><ele>26.0</ele><time>2026-04-04T08:04:47.001Z</time></trkpt><trkpt lat="43.6145212253038" lon="10.641367018859254"><ele>25.666666666666664</ele><time>2026-04-04T08:04:48.001Z</time></trkpt><trkpt lat="43.61435809878742" lon="10.641480332509351"><ele>25.333333333333336</ele><time>2026-04-04T08:04:49.001Z</time></trkpt><trkpt lat="43.61418737560266" lon="10.64157934719017"><ele>25.0</ele><time>2026-04-04T08:04:50.001Z</time></trkpt><trkpt lat="43.61400998846251" lon="10.64165947436424"><ele>25.0</ele><time>2026-04-04T08:04:51.001Z</time></trkpt><trkpt lat="43.61382353326396" lon="10.641720778521679"><ele>25.0</ele><time>2026-04-04T08:04:52.001Z</time></trkpt><trkpt lat="43.61362977866889" lon="10.641785564827568"><ele>25.0</ele><time>2026-04-04T08:04:53.001Z</time></trkpt><trkpt lat="43.61343539323558" lon="10.641863877247836"><ele>26.0</ele><time>2026-04-04T08:04:54.001Z</time></trkpt><trkpt lat="43.613253239427216" lon="10.641971258631909"><ele>27.0</ele><time>2026-04-04T08:04:55.001Z</time></trkpt><trkpt lat="43.613089292088304" lon="10.642098159558694"><ele>28.0</ele><time>2026-04-04T08:04:56.001Z</time></trkpt><trkpt lat="43.612943091879174" lon="10.642238481853614"><ele>28.25</ele><time>2026-04-04T08:04:57.001Z</time></trkpt><trkpt lat="43.61280969300328" lon="10.64236783648118"><ele>28.5</ele><time>2026-04-04T08:04:58.001Z</time></trkpt><trkpt lat="43.61267817887275" lon="10.642476150422405"><ele>28.75</ele><time>2026-04-04T08:04:59.001Z</time></trkpt><trkpt lat="43.6125520469244" lon="10.642523335041448"><ele>29.0</ele><time>2026-04-04T08:05:00.001Z</time></trkpt><trkpt lat="43.612420276288724" lon="10.642556939023171"><ele>29.0</ele><time>2026-04-04T08:05:01.001Z</time></trkpt><trkpt lat="43.61228011309586" lon="10.64260584391592"><ele>29.0</ele><time>2026-04-04T08:05:02.001Z</time></trkpt><trkpt lat="43.61213065345072" lon="10.642638504385207"><ele>29.0</ele><time>2026-04-04T08:05:03.001Z</time></trkpt><trkpt lat="43.611978041764026" lon="10.64269186199366"><ele>29.333333333333332</ele><time>2026-04-04T08:05:04.001Z</time></trkpt><trkpt lat="43.61183240111907" lon="10.642767101801866"><ele>29.666666666666664</ele><time>2026-04-04T08:05:04.998Z</time></trkpt><trkpt lat="43.6116917203178" lon="10.64284486999491"><ele>30.0</ele><time>2026-04-04T08:05:05.998Z</time></trkpt><trkpt lat="43.61155521417623" lon="10.642908794223796"><ele>30.0</ele><time>2026-04-04T08:05:06.998Z</time></trkpt><trkpt lat="43.611419432288315" lon="10.642951074824445"><ele>30.0</ele><time>2026-04-04T08:05:07.998Z</time></trkpt><trkpt lat="43.61129575618631" lon="10.6429775300594"><ele>30.0</ele><time>2026-04-04T08:05:08.998Z</time></trkpt><trkpt lat="43.611188384009964" lon="10.642998826545572"><ele>30.0</ele><time>2026-04-04T08:05:09.998Z</time></trkpt><trkpt lat="43.61108906106054" lon="10.643014426830497"><ele>30.2</ele><time>2026-04-04T08:05:10.998Z</time></trkpt><trkpt lat="43.6110032545996" lon="10.643025373385766"><ele>30.4</ele><time>2026-04-04T08:05:11.998Z</time></trkpt><trkpt lat="43.610928892383534" lon="10.64301987333203"><ele>30.6</ele><time>2026-04-04T08:05:12.998Z</time></trkpt><trkpt lat="43.61081071837906" lon="10.642976558813496"><ele>30.8</ele><time>2026-04-04T08:05:14.999Z</time></trkpt><trkpt lat="43.61073742703883" lon="10.642938081635844"><ele>31.0</ele><time>2026-04-04T08:05:15.999Z</time></trkpt><trkpt lat="43.61066303929997" lon="10.642868117730204"><ele>30.8</ele><time>2026-04-04T08:05:16.999Z</time></trkpt><trkpt lat="43.61058062160701" lon="10.642795255711862"><ele>30.6</ele><time>2026-04-04T08:05:17.999Z</time></trkpt><trkpt lat="43.61048552839328" lon="10.642719567279581"><ele>30.4</ele><time>2026-04-04T08:05:18.999Z</time></trkpt><trkpt lat="43.61037135571615" lon="10.642700985767053"><ele>30.2</ele><time>2026-04-04T08:05:19.999Z</time></trkpt><trkpt lat="43.61025546990849" lon="10.642745073364086"><ele>30.0</ele><time>2026-04-04T08:05:20.999Z</time></trkpt><trkpt lat="43.6101408435296" lon="10.64282197386627"><ele>30.0</ele><time>2026-04-04T08:05:21.999Z</time></trkpt><trkpt lat="43.61004724880557" lon="10.642936767995758"><ele>30.0</ele><time>2026-04-04T08:05:22.999Z</time></trkpt><trkpt lat="43.609989915665864" lon="10.643088394771668"><ele>30.0</ele><time>2026-04-04T08:05:23.999Z</time></trkpt><trkpt lat="43.6099636864031" lon="10.643250623560009"><ele>30.0</ele><time>2026-04-04T08:05:24.999Z</time></trkpt><trkpt lat="43.609969910486704" lon="10.643399828187446"><ele>30.0</ele><time>2026-04-04T08:05:25.999Z</time></trkpt><trkpt lat="43.60999654411491" lon="10.643542714630234"><ele>30.0</ele><time>2026-04-04T08:05:26.999Z</time></trkpt><trkpt lat="43.610041336668246" lon="10.643650264497795"><ele>30.0</ele><time>2026-04-04T08:05:27.999Z</time></trkpt><trkpt lat="43.61007316228635" lon="10.643728658821638"><ele>30.0</ele><time>2026-04-04T08:05:28.999Z</time></trkpt><trkpt lat="43.609971924971425" lon="10.643810663869285"><ele>30.0</ele><time>2026-04-04T08:05:29.999Z</time></trkpt><trkpt lat="43.609925030910254" lon="10.64388109551955"><ele>30.0</ele><time>2026-04-04T08:05:30.999Z</time></trkpt><trkpt lat="43.60988708910193" lon="10.643958435622352"><ele>30.666666666666668</ele><time>2026-04-04T08:05:31.999Z</time></trkpt><trkpt lat="43.609831675755046" lon="10.64400617510924"><ele>31.333333333333336</ele><time>2026-04-04T08:05:32.999Z</time></trkpt><trkpt lat="43.60973055356671" lon="10.644034673021373"><ele>32.0</ele><time>2026-04-04T08:05:34.999Z</time></trkpt><trkpt lat="43.609633839727" lon="10.643954710252677"><ele>32.66666666666667</ele><time>2026-04-04T08:05:36.999Z</time></trkpt><trkpt lat="43.60958488183269" lon="10.643887656351637"><ele>33.333333333333336</ele><time>2026-04-04T08:05:37.999Z</time></trkpt><trkpt lat="43.609553661615955" lon="10.643790645251702"><ele>34.0</ele><time>2026-04-04T08:05:38.999Z</time></trkpt><trkpt lat="43.609538481120836" lon="10.643687669786216"><ele>33.333333333333336</ele><time>2026-04-04T08:05:39.999Z</time></trkpt><trkpt lat="43.609508017696754" lon="10.643584115774669"><ele>32.66666666666667</ele><time>2026-04-04T08:05:41Z</time></trkpt><trkpt lat="43.60946334331663" lon="10.643491510591657"><ele>32.0</ele><time>2026-04-04T08:05:42Z</time></trkpt><trkpt lat="43.60943648097875" lon="10.643393825117341"><ele>31.333333333333336</ele><time>2026-04-04T08:05:43Z</time></trkpt><trkpt lat="43.60940950776736" lon="10.643310079077267"><ele>30.666666666666668</ele><time>2026-04-04T08:05:44Z</time></trkpt><trkpt lat="43.60938675799388" lon="10.643208299660563"><ele>30.0</ele><time>2026-04-04T08:05:45Z</time></trkpt><trkpt lat="43.6093410705581" lon="10.643117272094205"><ele>29.666666666666668</ele><time>2026-04-04T08:05:46Z</time></trkpt><trkpt lat="43.60928034256221" lon="10.643037995409548"><ele>29.333333333333336</ele><time>2026-04-04T08:05:47Z</time></trkpt><trkpt lat="43.609206463216864" lon="10.642981853606809"><ele>29.0</ele><time>2026-04-04T08:05:48Z</time></trkpt><trkpt lat="43.60912345981245" lon="10.642973292024656"><ele>28.666666666666668</ele><time>2026-04-04T08:05:49Z</time></trkpt><trkpt lat="43.60904140271454" lon="10.642955949058537"><ele>28.333333333333336</ele><time>2026-04-04T08:05:50Z</time></trkpt><trkpt lat="43.60896331713291" lon="10.642931274563123"><ele>28.0</ele><time>2026-04-04T08:05:51Z</time></trkpt><trkpt lat="43.60888312688823" lon="10.642917679540455"><ele>28.000000000000004</ele><time>2026-04-04T08:05:52Z</time></trkpt><trkpt lat="43.60880123807081" lon="10.64290858449281"><ele>28.0</ele><time>2026-04-04T08:05:53Z</time></trkpt><trkpt lat="43.60872087499741" lon="10.642892917106638"><ele>28.0</ele><time>2026-04-04T08:05:54Z</time></trkpt><trkpt lat="43.608640611092014" lon="10.6428789944292"><ele>28.0</ele><time>2026-04-04T08:05:55Z</time></trkpt><trkpt lat="43.60856234267424" lon="10.642874017876887"><ele>28.000000000000004</ele><time>2026-04-04T08:05:56Z</time></trkpt><trkpt lat="43.608484001743925" lon="10.642865052607702"><ele>28.0</ele><time>2026-04-04T08:05:57Z</time></trkpt><trkpt lat="43.60840557478975" lon="10.642851862204425"><ele>27.500000000000004</ele><time>2026-04-04T08:05:58Z</time></trkpt><trkpt lat="43.6083254938914" lon="10.642841965498484"><ele>27.0</ele><time>2026-04-04T08:05:59Z</time></trkpt><trkpt lat="43.60824665959115" lon="10.642832975171778"><ele>26.5</ele><time>2026-04-04T08:06:00Z</time></trkpt><trkpt lat="43.60816717120747" lon="10.64282065468464"><ele>26.0</ele><time>2026-04-04T08:06:01Z</time></trkpt><trkpt lat="43.60808703096709" lon="10.642812066923717"><ele>25.500000000000004</ele><time>2026-04-04T08:06:02Z</time></trkpt><trkpt lat="43.608008152717126" lon="10.642785170774921"><ele>25.0</ele><time>2026-04-04T08:06:03Z</time></trkpt><trkpt lat="43.60792481710408" lon="10.642778203159764"><ele>24.8</ele><time>2026-04-04T08:06:04Z</time></trkpt><trkpt lat="43.60783876271561" lon="10.642766180669861"><ele>24.6</ele><time>2026-04-04T08:06:05Z</time></trkpt><trkpt lat="43.607752365375475" lon="10.642754327737915"><ele>24.4</ele><time>2026-04-04T08:06:06Z</time></trkpt><trkpt lat="43.60766097415261" lon="10.642746386742234"><ele>24.2</ele><time>2026-04-04T08:06:07Z</time></trkpt><trkpt lat="43.60757278176856" lon="10.642716741794532"><ele>24.0</ele><time>2026-04-04T08:06:08Z</time></trkpt><trkpt lat="43.6074782620635" lon="10.642702515730676"><ele>24.799999999999997</ele><time>2026-04-04T08:06:09Z</time></trkpt><trkpt lat="43.60738083195948" lon="10.64269513025087"><ele>25.599999999999998</ele><time>2026-04-04T08:06:10Z</time></trkpt><trkpt lat="43.60728285963017" lon="10.64268317941617"><ele>26.4</ele><time>2026-04-04T08:06:11Z</time></trkpt><trkpt lat="43.60718178741822" lon="10.642672855919933"><ele>27.2</ele><time>2026-04-04T08:06:12Z</time></trkpt><trkpt lat="43.60707603457065" lon="10.642654062887079"><ele>28.0</ele><time>2026-04-04T08:06:13Z</time></trkpt><trkpt lat="43.60696694023826" lon="10.64264337660869"><ele>28.75</ele><time>2026-04-04T08:06:14Z</time></trkpt><trkpt lat="43.60685328838728" lon="10.642619787221"><ele>29.5</ele><time>2026-04-04T08:06:15Z</time></trkpt><trkpt lat="43.60674292240693" lon="10.642602192719202"><ele>30.25</ele><time>2026-04-04T08:06:16Z</time></trkpt><trkpt lat="43.606620656186045" lon="10.642580273050395"><ele>31.0</ele><time>2026-04-04T08:06:17Z</time></trkpt><trkpt lat="43.606493352825765" lon="10.642568914278252"><ele>31.0</ele><time>2026-04-04T08:06:18Z</time></trkpt><trkpt lat="43.60637060432574" lon="10.642550220543031"><ele>31.0</ele><time>2026-04-04T08:06:19Z</time></trkpt><trkpt lat="43.60625680774399" lon="10.64252626782523"><ele>31.0</ele><time>2026-04-04T08:06:20Z</time></trkpt><trkpt lat="43.606135231025426" lon="10.642511409824627"><ele>31.0</ele><time>2026-04-04T08:06:21Z</time></trkpt><trkpt lat="43.60601975337937" lon="10.642497207887057"><ele>31.25</ele><time>2026-04-04T08:06:22Z</time></trkpt><trkpt lat="43.60590387212275" lon="10.642479516469908"><ele>31.5</ele><time>2026-04-04T08:06:23Z</time></trkpt><trkpt lat="43.60578443659858" lon="10.642459661184734"><ele>31.75</ele><time>2026-04-04T08:06:24Z</time></trkpt><trkpt lat="43.60566615999805" lon="10.642443317617028"><ele>32.0</ele><time>2026-04-04T08:06:25Z</time></trkpt><trkpt lat="43.60554803893065" lon="10.642432706983914"><ele>32.0</ele><time>2026-04-04T08:06:26Z</time></trkpt><trkpt lat="43.60543428052282" lon="10.642421046622202"><ele>32.0</ele><time>2026-04-04T08:06:27Z</time></trkpt><trkpt lat="43.60531566475803" lon="10.642419359959769"><ele>32.0</ele><time>2026-04-04T08:06:28Z</time></trkpt><trkpt lat="43.60519864291606" lon="10.642415015779196"><ele>32.0</ele><time>2026-04-04T08:06:29Z</time></trkpt><trkpt lat="43.60507773658153" lon="10.642415572350108"><ele>32.0</ele><time>2026-04-04T08:06:30.001Z</time></trkpt><trkpt lat="43.604947929341364" lon="10.642410682215074"><ele>32.0</ele><time>2026-04-04T08:06:31.001Z</time></trkpt><trkpt lat="43.60481553784934" lon="10.642407668718626"><ele>32.0</ele><time>2026-04-04T08:06:32.001Z</time></trkpt><trkpt lat="43.60468317337191" lon="10.642406195312235"><ele>32.0</ele><time>2026-04-04T08:06:33.001Z</time></trkpt><trkpt lat="43.60455319943254" lon="10.642386370749042"><ele>32.25</ele><time>2026-04-04T08:06:34.001Z</time></trkpt><trkpt lat="43.60442964855409" lon="10.642394773724542"><ele>32.5</ele><time>2026-04-04T08:06:35.001Z</time></trkpt><trkpt lat="43.60430152136497" lon="10.642376724825949"><ele>32.75</ele><time>2026-04-04T08:06:36.001Z</time></trkpt><trkpt lat="43.60417016336418" lon="10.642374916131539"><ele>33.0</ele><time>2026-04-04T08:06:37.001Z</time></trkpt><trkpt lat="43.60403703625094" lon="10.642373509306205"><ele>33.0</ele><time>2026-04-04T08:06:38.001Z</time></trkpt><trkpt lat="43.603904855408864" lon="10.642393838543393"><ele>33.0</ele><time>2026-04-04T08:06:39.001Z</time></trkpt><trkpt lat="43.603771732933765" lon="10.642383774593362"><ele>33.0</ele><time>2026-04-04T08:06:40.001Z</time></trkpt><trkpt lat="43.60363827943937" lon="10.642388755153897"><ele>33.0</ele><time>2026-04-04T08:06:41.001Z</time></trkpt><trkpt lat="43.60350378519965" lon="10.642389081612455"><ele>32.0</ele><time>2026-04-04T08:06:42.001Z</time></trkpt><trkpt lat="43.60336813630136" lon="10.64239059646376"><ele>31.0</ele><time>2026-04-04T08:06:43.001Z</time></trkpt><trkpt lat="43.60323242238322" lon="10.642389978079326"><ele>30.0</ele><time>2026-04-04T08:06:44.001Z</time></trkpt><trkpt lat="43.603104270895344" lon="10.642388824450903"><ele>29.0</ele><time>2026-04-04T08:06:45.001Z</time></trkpt><trkpt lat="43.60298009586369" lon="10.642387155570011"><ele>29.0</ele><time>2026-04-04T08:06:46.001Z</time></trkpt><trkpt lat="43.60286264839168" lon="10.642370622593619"><ele>29.0</ele><time>2026-04-04T08:06:47.001Z</time></trkpt><trkpt lat="43.60273955896769" lon="10.64237072516618"><ele>29.0</ele><time>2026-04-04T08:06:48.001Z</time></trkpt><trkpt lat="43.60261307559382" lon="10.642366857436947"><ele>29.0</ele><time>2026-04-04T08:06:49.001Z</time></trkpt><trkpt lat="43.602484253364665" lon="10.642363834360346"><ele>28.75</ele><time>2026-04-04T08:06:50.001Z</time></trkpt><trkpt lat="43.60236015203526" lon="10.64236006511827"><ele>28.5</ele><time>2026-04-04T08:06:51.001Z</time></trkpt><trkpt lat="43.602232878378565" lon="10.64236184048076"><ele>28.25</ele><time>2026-04-04T08:06:52.001Z</time></trkpt><trkpt lat="43.60209814435773" lon="10.642358557800108"><ele>28.0</ele><time>2026-04-04T08:06:53.001Z</time></trkpt><trkpt lat="43.60195780227592" lon="10.64235481198515"><ele>28.0</ele><time>2026-04-04T08:06:54.001Z</time></trkpt><trkpt lat="43.60181459838765" lon="10.642348184171986"><ele>28.0</ele><time>2026-04-04T08:06:55.001Z</time></trkpt><trkpt lat="43.601670622254346" lon="10.64235190373503"><ele>28.0</ele><time>2026-04-04T08:06:56.001Z</time></trkpt><trkpt lat="43.601532783608135" lon="10.642350036945471"><ele>28.0</ele><time>2026-04-04T08:06:57.001Z</time></trkpt><trkpt lat="43.60138930715619" lon="10.642347460602098"><ele>28.0</ele><time>2026-04-04T08:06:58.001Z</time></trkpt><trkpt lat="43.60125116480459" lon="10.64232799271961"><ele>28.0</ele><time>2026-04-04T08:06:59.001Z</time></trkpt><trkpt lat="43.60110648551126" lon="10.642326098891042"><ele>28.0</ele><time>2026-04-04T08:07:00.001Z</time></trkpt><trkpt lat="43.60096636991683" lon="10.642324459044051"><ele>28.0</ele><time>2026-04-04T08:07:01.001Z</time></trkpt><trkpt lat="43.60082359258496" lon="10.64234469777805"><ele>28.0</ele><time>2026-04-04T08:07:02.001Z</time></trkpt><trkpt lat="43.60068133811454" lon="10.642336411106243"><ele>28.0</ele><time>2026-04-04T08:07:03.001Z</time></trkpt><trkpt lat="43.60054253673938" lon="10.64233163932827"><ele>28.0</ele><time>2026-04-04T08:07:04.001Z</time></trkpt><trkpt lat="43.600400585495066" lon="10.6423277352932"><ele>28.0</ele><time>2026-04-04T08:07:05.001Z</time></trkpt><trkpt lat="43.60025891235327" lon="10.64232826136718"><ele>27.25</ele><time>2026-04-04T08:07:06.001Z</time></trkpt><trkpt lat="43.60011588495849" lon="10.642323774156285"><ele>26.5</ele><time>2026-04-04T08:07:07.001Z</time></trkpt><trkpt lat="43.59997645276552" lon="10.64232138072434"><ele>25.75</ele><time>2026-04-04T08:07:08.001Z</time></trkpt><trkpt lat="43.599839517891155" lon="10.64231980501646"><ele>25.0</ele><time>2026-04-04T08:07:09.001Z</time></trkpt><trkpt lat="43.59970516609932" lon="10.642318636613837"><ele>25.0</ele><time>2026-04-04T08:07:10.001Z</time></trkpt><trkpt lat="43.5995731202003" lon="10.642314183026453"><ele>25.0</ele><time>2026-04-04T08:07:10.999Z</time></trkpt><trkpt lat="43.59944592140858" lon="10.642312068990892"><ele>25.0</ele><time>2026-04-04T08:07:11.999Z</time></trkpt><trkpt lat="43.599328081317424" lon="10.642306619264478"><ele>25.0</ele><time>2026-04-04T08:07:12.999Z</time></trkpt><trkpt lat="43.59921470371616" lon="10.642309459409937"><ele>25.000000000000004</ele><time>2026-04-04T08:07:13.999Z</time></trkpt><trkpt lat="43.599103952270276" lon="10.642314086485673"><ele>25.0</ele><time>2026-04-04T08:07:14.999Z</time></trkpt><trkpt lat="43.59900613354449" lon="10.642313413227638"><ele>25.0</ele><time>2026-04-04T08:07:15.999Z</time></trkpt><trkpt lat="43.59892174637086" lon="10.642293301462017"><ele>25.0</ele><time>2026-04-04T08:07:16.999Z</time></trkpt><trkpt lat="43.59884156192518" lon="10.642290490657139"><ele>25.000000000000004</ele><time>2026-04-04T08:07:17.999Z</time></trkpt><trkpt lat="43.59877690171725" lon="10.642293149718256"><ele>25.0</ele><time>2026-04-04T08:07:18.999Z</time></trkpt><trkpt lat="43.59871133949806" lon="10.6423027981207"><ele>25.2</ele><time>2026-04-04T08:07:19.999Z</time></trkpt><trkpt lat="43.598604453386535" lon="10.642285094237849"><ele>25.4</ele><time>2026-04-04T08:07:21.999Z</time></trkpt><trkpt lat="43.59854687172341" lon="10.642458502194915"><ele>25.6</ele><time>2026-04-04T08:07:22.999Z</time></trkpt><trkpt lat="43.59850482732232" lon="10.642545993442695"><ele>25.8</ele><time>2026-04-04T08:07:23.999Z</time></trkpt><trkpt lat="43.59847200754183" lon="10.642644788465503"><ele>26.0</ele><time>2026-04-04T08:07:24.999Z</time></trkpt><trkpt lat="43.59842538747586" lon="10.64274542272849"><ele>26.166666666666664</ele><time>2026-04-04T08:07:25.999Z</time></trkpt><trkpt lat="43.59838103638774" lon="10.642845870413478"><ele>26.333333333333332</ele><time>2026-04-04T08:07:26.999Z</time></trkpt><trkpt lat="43.59833756775819" lon="10.642942453919826"><ele>26.5</ele><time>2026-04-04T08:07:27.999Z</time></trkpt><trkpt lat="43.598292701122205" lon="10.643038408949842"><ele>26.666666666666664</ele><time>2026-04-04T08:07:28.999Z</time></trkpt><trkpt lat="43.59824124438144" lon="10.643130822016174"><ele>26.833333333333332</ele><time>2026-04-04T08:07:29.999Z</time></trkpt><trkpt lat="43.598203875427245" lon="10.643234697951476"><ele>27.0</ele><time>2026-04-04T08:07:30.999Z</time></trkpt><trkpt lat="43.59815155007823" lon="10.64333352735677"><ele>27.0</ele><time>2026-04-04T08:07:31.999Z</time></trkpt><trkpt lat="43.59811830332139" lon="10.643441070943416"><ele>27.0</ele><time>2026-04-04T08:07:32.999Z</time></trkpt><trkpt lat="43.59808673559072" lon="10.643546783567887"><ele>27.0</ele><time>2026-04-04T08:07:33.999Z</time></trkpt><trkpt lat="43.59805555651014" lon="10.643646460013448"><ele>27.0</ele><time>2026-04-04T08:07:35Z</time></trkpt><trkpt lat="43.59802678832382" lon="10.643737152456062"><ele>27.0</ele><time>2026-04-04T08:07:36Z</time></trkpt><trkpt lat="43.59799740712564" lon="10.643826408396958"><ele>27.0</ele><time>2026-04-04T08:07:37Z</time></trkpt><trkpt lat="43.59796629745643" lon="10.643915621621268"><ele>27.5</ele><time>2026-04-04T08:07:38Z</time></trkpt><trkpt lat="43.59793345837884" lon="10.644004995971146"><ele>28.0</ele><time>2026-04-04T08:07:39Z</time></trkpt><trkpt lat="43.59789802478433" lon="10.644089057808864"><ele>28.5</ele><time>2026-04-04T08:07:40Z</time></trkpt><trkpt lat="43.59786398156011" lon="10.644177760057984"><ele>29.0</ele><time>2026-04-04T08:07:41Z</time></trkpt><trkpt lat="43.59782228831083" lon="10.644255806231227"><ele>29.5</ele><time>2026-04-04T08:07:42Z</time></trkpt><trkpt lat="43.59779156945186" lon="10.644332045838452"><ele>30.0</ele><time>2026-04-04T08:07:43Z</time></trkpt><trkpt lat="43.597760815608964" lon="10.644482463815848"><ele>30.8</ele><time>2026-04-04T08:07:45Z</time></trkpt><trkpt lat="43.59775984447991" lon="10.644635502851497"><ele>31.6</ele><time>2026-04-04T08:07:47Z</time></trkpt><trkpt lat="43.59783048691124" lon="10.644710447650647"><ele>32.4</ele><time>2026-04-04T08:07:48Z</time></trkpt><trkpt lat="43.59790850998221" lon="10.64485536889034"><ele>33.2</ele><time>2026-04-04T08:07:50Z</time></trkpt><trkpt lat="43.597974216295476" lon="10.644961455930936"><ele>34.0</ele><time>2026-04-04T08:07:51Z</time></trkpt><trkpt lat="43.59804601942993" lon="10.645067779982265"><ele>34.0</ele><time>2026-04-04T08:07:52Z</time></trkpt><trkpt lat="43.598120552050396" lon="10.645182296538321"><ele>34.0</ele><time>2026-04-04T08:07:53Z</time></trkpt><trkpt lat="43.59819996639056" lon="10.645308152767537"><ele>34.0</ele><time>2026-04-04T08:07:54Z</time></trkpt><trkpt lat="43.59828583517663" lon="10.645444165405445"><ele>34.0</ele><time>2026-04-04T08:07:55Z</time></trkpt><trkpt lat="43.59836267668259" lon="10.645581419336764"><ele>34.25</ele><time>2026-04-04T08:07:56Z</time></trkpt><trkpt lat="43.59846255424077" lon="10.645704635184988"><ele>34.5</ele><time>2026-04-04T08:07:57Z</time></trkpt><trkpt lat="43.59856308597833" lon="10.64584582053453"><ele>34.75</ele><time>2026-04-04T08:07:58Z</time></trkpt><trkpt lat="43.5986496199187" lon="10.645978067439996"><ele>35.0</ele><time>2026-04-04T08:07:59Z</time></trkpt><trkpt lat="43.59871432778411" lon="10.646101285550195"><ele>37.33333333333333</ele><time>2026-04-04T08:08:00Z</time></trkpt><trkpt lat="43.59878136386974" lon="10.6461997759155"><ele>39.666666666666664</ele><time>2026-04-04T08:08:01Z</time></trkpt><trkpt lat="43.59880443939438" lon="10.646313385092414"><ele>42.0</ele><time>2026-04-04T08:08:02Z</time></trkpt><trkpt lat="43.59881693632533" lon="10.646410615444209"><ele>44.33333333333333</ele><time>2026-04-04T08:08:03Z</time></trkpt><trkpt lat="43.59882096598448" lon="10.646516703876712"><ele>46.666666666666664</ele><time>2026-04-04T08:08:04Z</time></trkpt><trkpt lat="43.59875600837026" lon="10.646565029353559"><ele>49.0</ele><time>2026-04-04T08:08:05Z</time></trkpt><trkpt lat="43.59872795611294" lon="10.646667080543285"><ele>48.99999999999999</ele><time>2026-04-04T08:08:06Z</time></trkpt><trkpt lat="43.59869541888564" lon="10.646785684385861"><ele>49.0</ele><time>2026-04-04T08:08:07Z</time></trkpt><trkpt lat="43.598663085612735" lon="10.646901514179318"><ele>49.0</ele><time>2026-04-04T08:08:08Z</time></trkpt><trkpt lat="43.59863131680254" lon="10.647012668702718"><ele>49.0</ele><time>2026-04-04T08:08:09Z</time></trkpt><trkpt lat="43.59861573745582" lon="10.64712780743116"><ele>48.99999999999999</ele><time>2026-04-04T08:08:10Z</time></trkpt><trkpt lat="43.59856447556931" lon="10.647222024852065"><ele>49.0</ele><time>2026-04-04T08:08:11Z</time></trkpt><trkpt lat="43.59852985211614" lon="10.64732966316221"><ele>48.57142857142857</ele><time>2026-04-04T08:08:12Z</time></trkpt><trkpt lat="43.59850405939847" lon="10.647434956454418"><ele>48.14285714285714</ele><time>2026-04-04T08:08:13.001Z</time></trkpt><trkpt lat="43.59848036033312" lon="10.647531349676829"><ele>47.714285714285715</ele><time>2026-04-04T08:08:14.001Z</time></trkpt><trkpt lat="43.598456285728645" lon="10.647631385916805"><ele>47.285714285714285</ele><time>2026-04-04T08:08:15.001Z</time></trkpt><trkpt lat="43.59843659773636" lon="10.647732820325402"><ele>46.857142857142854</ele><time>2026-04-04T08:08:16.001Z</time></trkpt><trkpt lat="43.59843822940139" lon="10.647826427285242"><ele>46.42857142857143</ele><time>2026-04-04T08:08:17.001Z</time></trkpt><trkpt lat="43.59845335366317" lon="10.647926122198147"><ele>46.0</ele><time>2026-04-04T08:08:18.001Z</time></trkpt><trkpt lat="43.59848846254915" lon="10.648024217661291"><ele>46.0</ele><time>2026-04-04T08:08:19.001Z</time></trkpt><trkpt lat="43.59852573670519" lon="10.648118222605232"><ele>46.0</ele><time>2026-04-04T08:08:20.001Z</time></trkpt><trkpt lat="43.598562768655505" lon="10.648204224099805"><ele>46.0</ele><time>2026-04-04T08:08:21.001Z</time></trkpt><trkpt lat="43.598602654324466" lon="10.648292543746106"><ele>46.0</ele><time>2026-04-04T08:08:22.001Z</time></trkpt><trkpt lat="43.598647864309896" lon="10.64838284974286"><ele>46.0</ele><time>2026-04-04T08:08:23.001Z</time></trkpt><trkpt lat="43.598687430399735" lon="10.648470355094743"><ele>46.0</ele><time>2026-04-04T08:08:24.001Z</time></trkpt><trkpt lat="43.59873087304449" lon="10.648556252409556"><ele>49.16666666666667</ele><time>2026-04-04T08:08:25.001Z</time></trkpt><trkpt lat="43.59876363376412" lon="10.64865923475379"><ele>52.333333333333336</ele><time>2026-04-04T08:08:26.001Z</time></trkpt><trkpt lat="43.59879723519626" lon="10.648735859176838"><ele>55.5</ele><time>2026-04-04T08:08:27.001Z</time></trkpt><trkpt lat="43.59883990431559" lon="10.648823997047575"><ele>58.66666666666667</ele><time>2026-04-04T08:08:28.001Z</time></trkpt><trkpt lat="43.598883138170784" lon="10.648908175122598"><ele>61.833333333333336</ele><time>2026-04-04T08:08:29.001Z</time></trkpt><trkpt lat="43.598921553928534" lon="10.648999524113481"><ele>65.0</ele><time>2026-04-04T08:08:30.001Z</time></trkpt><trkpt lat="43.598946816493786" lon="10.64909851671657"><ele>65.00000000000001</ele><time>2026-04-04T08:08:31.001Z</time></trkpt><trkpt lat="43.598961066217974" lon="10.649200565537033"><ele>65.0</ele><time>2026-04-04T08:08:32.001Z</time></trkpt><trkpt lat="43.59894385327166" lon="10.649306014074549"><ele>65.0</ele><time>2026-04-04T08:08:33.001Z</time></trkpt><trkpt lat="43.598945945850595" lon="10.649402413146674"><ele>65.0</ele><time>2026-04-04T08:08:34.001Z</time></trkpt><trkpt lat="43.59893708902938" lon="10.649498608220776"><ele>65.0</ele><time>2026-04-04T08:08:35.001Z</time></trkpt><trkpt lat="43.59890585033649" lon="10.649592237481194"><ele>65.00000000000001</ele><time>2026-04-04T08:08:36.001Z</time></trkpt><trkpt lat="43.59888678926469" lon="10.649680438025511"><ele>65.0</ele><time>2026-04-04T08:08:37.001Z</time></trkpt><trkpt lat="43.598860565882" lon="10.649765248905025"><ele>64.8</ele><time>2026-04-04T08:08:38.001Z</time></trkpt><trkpt lat="43.598773998885584" lon="10.649879924311916"><ele>64.6</ele><time>2026-04-04T08:08:40.001Z</time></trkpt><trkpt lat="43.59871823116831" lon="10.649931017893463"><ele>64.4</ele><time>2026-04-04T08:08:41.001Z</time></trkpt><trkpt lat="43.59862660138807" lon="10.65002553620005"><ele>64.2</ele><time>2026-04-04T08:08:43.001Z</time></trkpt><trkpt lat="43.59853654267885" lon="10.650104363922733"><ele>64.0</ele><time>2026-04-04T08:08:45.001Z</time></trkpt><trkpt lat="43.598473989291485" lon="10.650128715130647"><ele>64.0</ele><time>2026-04-04T08:08:46.001Z</time></trkpt><trkpt lat="43.598341075219416" lon="10.65017627969419"><ele>64.0</ele><time>2026-04-04T08:08:48.001Z</time></trkpt><trkpt lat="43.59825617647027" lon="10.650204621984775"><ele>64.0</ele><time>2026-04-04T08:08:49.001Z</time></trkpt><trkpt lat="43.598173891568536" lon="10.650232091668757"><ele>64.0</ele><time>2026-04-04T08:08:50.001Z</time></trkpt><trkpt lat="43.598091961427976" lon="10.650259887619164"><ele>64.0</ele><time>2026-04-04T08:08:51.001Z</time></trkpt><trkpt lat="43.59801953786421" lon="10.650311159548801"><ele>63.49999999999999</ele><time>2026-04-04T08:08:52.001Z</time></trkpt><trkpt lat="43.59794982907722" lon="10.650338725403154"><ele>63.0</ele><time>2026-04-04T08:08:53.001Z</time></trkpt><trkpt lat="43.5978772019354" lon="10.65035322792242"><ele>62.5</ele><time>2026-04-04T08:08:54.001Z</time></trkpt><trkpt lat="43.59780355843883" lon="10.650413672383984"><ele>62.0</ele><time>2026-04-04T08:08:56.001Z</time></trkpt><trkpt lat="43.597758670904" lon="10.650559024803833"><ele>61.49999999999999</ele><time>2026-04-04T08:08:58.001Z</time></trkpt><trkpt lat="43.59772611702488" lon="10.65064696123888"><ele>61.0</ele><time>2026-04-04T08:08:59.001Z</time></trkpt><trkpt lat="43.59769235956763" lon="10.650737164696087"><ele>61.99999999999999</ele><time>2026-04-04T08:09:00.001Z</time></trkpt><trkpt lat="43.597639307827734" lon="10.65083567957518"><ele>63.0</ele><time>2026-04-04T08:09:01.001Z</time></trkpt><trkpt lat="43.59759848858836" lon="10.650941978600052"><ele>64.0</ele><time>2026-04-04T08:09:02.002Z</time></trkpt><trkpt lat="43.59756413735425" lon="10.651034807674133"><ele>65.0</ele><time>2026-04-04T08:09:03.002Z</time></trkpt><trkpt lat="43.59753657818916" lon="10.65112651820145"><ele>66.0</ele><time>2026-04-04T08:09:04.002Z</time></trkpt><trkpt lat="43.59750023242595" lon="10.651221244620677"><ele>67.0</ele><time>2026-04-04T08:09:05.002Z</time></trkpt><trkpt lat="43.5974570777409" lon="10.65131675888858"><ele>67.83333333333333</ele><time>2026-04-04T08:09:06.002Z</time></trkpt><trkpt lat="43.59742042307616" lon="10.651422187810388"><ele>68.66666666666666</ele><time>2026-04-04T08:09:07.002Z</time></trkpt><trkpt lat="43.59737788565663" lon="10.651528119991836"><ele>69.5</ele><time>2026-04-04T08:09:08.002Z</time></trkpt><trkpt lat="43.59733735477492" lon="10.6516287237093"><ele>70.33333333333333</ele><time>2026-04-04T08:09:09.002Z</time></trkpt><trkpt lat="43.597297808892165" lon="10.651730798140782"><ele>71.16666666666667</ele><time>2026-04-04T08:09:10.002Z</time></trkpt><trkpt lat="43.597260003731186" lon="10.65184346929174"><ele>72.0</ele><time>2026-04-04T08:09:11.002Z</time></trkpt><trkpt lat="43.59721661887496" lon="10.651957702767678"><ele>72.4</ele><time>2026-04-04T08:09:12.002Z</time></trkpt><trkpt lat="43.59717549818453" lon="10.652079541559564"><ele>72.80000000000001</ele><time>2026-04-04T08:09:13.002Z</time></trkpt><trkpt lat="43.59711300535239" lon="10.652191637498126"><ele>73.2</ele><time>2026-04-04T08:09:14.002Z</time></trkpt><trkpt lat="43.59706739810552" lon="10.652310382565203"><ele>73.60000000000001</ele><time>2026-04-04T08:09:15.002Z</time></trkpt><trkpt lat="43.59702590545811" lon="10.652426587389092"><ele>74.0</ele><time>2026-04-04T08:09:16.002Z</time></trkpt><trkpt lat="43.59700134120523" lon="10.652520398200434"><ele>73.16666666666667</ele><time>2026-04-04T08:09:17Z</time></trkpt><trkpt lat="43.596940061654735" lon="10.652635426710612"><ele>72.33333333333334</ele><time>2026-04-04T08:09:19Z</time></trkpt><trkpt lat="43.59683983800712" lon="10.652634072114058"><ele>71.5</ele><time>2026-04-04T08:09:21Z</time></trkpt><trkpt lat="43.5967770898219" lon="10.652672975071923"><ele>70.66666666666667</ele><time>2026-04-04T08:09:22Z</time></trkpt><trkpt lat="43.596714068622795" lon="10.652674407232787"><ele>69.83333333333333</ele><time>2026-04-04T08:09:23Z</time></trkpt><trkpt lat="43.596649872093465" lon="10.652709050983733"><ele>69.0</ele><time>2026-04-04T08:09:24Z</time></trkpt><trkpt lat="43.59659233835854" lon="10.652748698018138"><ele>70.2</ele><time>2026-04-04T08:09:25Z</time></trkpt><trkpt lat="43.596536634087606" lon="10.652801289420454"><ele>71.4</ele><time>2026-04-04T08:09:26Z</time></trkpt><trkpt lat="43.59648060423168" lon="10.652857892107154"><ele>72.6</ele><time>2026-04-04T08:09:27Z</time></trkpt><trkpt lat="43.59639476444518" lon="10.652978110502355"><ele>73.8</ele><time>2026-04-04T08:09:29Z</time></trkpt><trkpt lat="43.596333118246" lon="10.653122066418726"><ele>75.0</ele><time>2026-04-04T08:09:31Z</time></trkpt><trkpt lat="43.59628299808704" lon="10.653263710200124"><ele>75.0</ele><time>2026-04-04T08:09:33Z</time></trkpt><trkpt lat="43.596229352897524" lon="10.653394002959127"><ele>75.0</ele><time>2026-04-04T08:09:35Z</time></trkpt><trkpt lat="43.59617452339325" lon="10.65351886536546"><ele>75.0</ele><time>2026-04-04T08:09:37Z</time></trkpt><trkpt lat="43.59610325957462" lon="10.653603740179681"><ele>75.0</ele><time>2026-04-04T08:09:39Z</time></trkpt><trkpt lat="43.59600362676665" lon="10.653642963360653"><ele>75.0</ele><time>2026-04-04T08:09:41Z</time></trkpt><trkpt lat="43.59589151419091" lon="10.653700742556298"><ele>73.0</ele><time>2026-04-04T08:09:43Z</time></trkpt><trkpt lat="43.59580069242163" lon="10.653776784292337"><ele>71.0</ele><time>2026-04-04T08:09:45Z</time></trkpt><trkpt lat="43.59570717154347" lon="10.653840886782557"><ele>69.0</ele><time>2026-04-04T08:09:47Z</time></trkpt><trkpt lat="43.5956058565104" lon="10.653908273866831"><ele>67.0</ele><time>2026-04-04T08:09:49Z</time></trkpt><trkpt lat="43.59550899904798" lon="10.653972696002912"><ele>65.0</ele><time>2026-04-04T08:09:51Z</time></trkpt><trkpt lat="43.59541123206187" lon="10.654037723082345"><ele>66.0</ele><time>2026-04-04T08:09:53Z</time></trkpt><trkpt lat="43.595319115748445" lon="10.654099096028048"><ele>67.0</ele><time>2026-04-04T08:09:55Z</time></trkpt><trkpt lat="43.59522507792486" lon="10.654164113527875"><ele>68.0</ele><time>2026-04-04T08:09:57Z</time></trkpt><trkpt lat="43.59513850168514" lon="10.654208130120274"><ele>69.0</ele><time>2026-04-04T08:09:59.001Z</time></trkpt><trkpt lat="43.59505932694228" lon="10.654231490736688"><ele>70.0</ele><time>2026-04-04T08:10:01.001Z</time></trkpt><trkpt lat="43.59499064007885" lon="10.654257923146274"><ele>70.0</ele><time>2026-04-04T08:10:03.001Z</time></trkpt><trkpt lat="43.594914503453055" lon="10.654287880665358"><ele>70.0</ele><time>2026-04-04T08:10:05.001Z</time></trkpt><trkpt lat="43.59484521675927" lon="10.654313933542246"><ele>70.0</ele><time>2026-04-04T08:10:07.001Z</time></trkpt><trkpt lat="43.59478192387684" lon="10.654335591912865"><ele>70.0</ele><time>2026-04-04T08:10:09.001Z</time></trkpt><trkpt lat="43.594702924870596" lon="10.654358532826327"><ele>70.0</ele><time>2026-04-04T08:10:11.001Z</time></trkpt><trkpt lat="43.594616303317494" lon="10.654382142796281"><ele>70.0</ele><time>2026-04-04T08:10:13.001Z</time></trkpt><trkpt lat="43.59453791549151" lon="10.654403311321985"><ele>68.6</ele><time>2026-04-04T08:10:15.001Z</time></trkpt><trkpt lat="43.59445227314611" lon="10.654426438899991"><ele>67.2</ele><time>2026-04-04T08:10:17.001Z</time></trkpt><trkpt lat="43.5943690248863" lon="10.654448720753154"><ele>65.8</ele><time>2026-04-04T08:10:19.001Z</time></trkpt><trkpt lat="43.59428131168652" lon="10.654472084549653"><ele>64.4</ele><time>2026-04-04T08:10:21.001Z</time></trkpt><trkpt lat="43.5941852684054" lon="10.654520646990264"><ele>63.0</ele><time>2026-04-04T08:10:23.001Z</time></trkpt><trkpt lat="43.59408094305101" lon="10.654536187439083"><ele>62.666666666666664</ele><time>2026-04-04T08:10:25.001Z</time></trkpt><trkpt lat="43.59397879415054" lon="10.65456088116591"><ele>62.33333333333333</ele><time>2026-04-04T08:10:27.001Z</time></trkpt><trkpt lat="43.59385567940728" lon="10.65459744501778"><ele>62.0</ele><time>2026-04-04T08:10:29.001Z</time></trkpt><trkpt lat="43.593782021660644" lon="10.654600687698228"><ele>61.666666666666664</ele><time>2026-04-04T08:10:30.001Z</time></trkpt><trkpt lat="43.59371698876651" lon="10.654628400248466"><ele>61.33333333333333</ele><time>2026-04-04T08:10:31.001Z</time></trkpt><trkpt lat="43.5936533507683" lon="10.654658492849963"><ele>61.0</ele><time>2026-04-04T08:10:32.001Z</time></trkpt><trkpt lat="43.59357925735082" lon="10.65467060492186"><ele>61.666666666666664</ele><time>2026-04-04T08:10:33.001Z</time></trkpt><trkpt lat="43.59352089704222" lon="10.65472877986673"><ele>62.33333333333333</ele><time>2026-04-04T08:10:34.001Z</time></trkpt><trkpt lat="43.59345396782585" lon="10.654754134476091"><ele>63.0</ele><time>2026-04-04T08:10:35.001Z</time></trkpt><trkpt lat="43.59339224476323" lon="10.654809447909198"><ele>63.66666666666667</ele><time>2026-04-04T08:10:36.001Z</time></trkpt><trkpt lat="43.59333827388376" lon="10.65488291612104"><ele>64.33333333333334</ele><time>2026-04-04T08:10:37.001Z</time></trkpt><trkpt lat="43.593266852598624" lon="10.654935400150709"><ele>65.0</ele><time>2026-04-04T08:10:38.001Z</time></trkpt><trkpt lat="43.59320702697145" lon="10.655016419676668"><ele>65.0</ele><time>2026-04-04T08:10:39.001Z</time></trkpt><trkpt lat="43.593146881787284" lon="10.655087757459865"><ele>65.0</ele><time>2026-04-04T08:10:40.001Z</time></trkpt><trkpt lat="43.59308341875843" lon="10.65515329801596"><ele>65.0</ele><time>2026-04-04T08:10:41.001Z</time></trkpt><trkpt lat="43.59302515146909" lon="10.65523603038217"><ele>65.0</ele><time>2026-04-04T08:10:42.001Z</time></trkpt><trkpt lat="43.592975055187345" lon="10.655331850711253"><ele>65.0</ele><time>2026-04-04T08:10:43.001Z</time></trkpt><trkpt lat="43.59293245953901" lon="10.655432549815547"><ele>65.0</ele><time>2026-04-04T08:10:44.002Z</time></trkpt><trkpt lat="43.59289904032379" lon="10.655534158188301"><ele>64.66666666666667</ele><time>2026-04-04T08:10:45.002Z</time></trkpt><trkpt lat="43.592859047122225" lon="10.655640385786656"><ele>64.33333333333334</ele><time>2026-04-04T08:10:46.002Z</time></trkpt><trkpt lat="43.592817556066116" lon="10.655737474526267"><ele>64.0</ele><time>2026-04-04T08:10:47.002Z</time></trkpt><trkpt lat="43.59276374560623" lon="10.655830119964076"><ele>63.66666666666667</ele><time>2026-04-04T08:10:48.002Z</time></trkpt><trkpt lat="43.59272839177088" lon="10.65593478423119"><ele>63.333333333333336</ele><time>2026-04-04T08:10:49.002Z</time></trkpt><trkpt lat="43.59269560298636" lon="10.656030749204485"><ele>63.0</ele><time>2026-04-04T08:10:50.002Z</time></trkpt><trkpt lat="43.592662038140695" lon="10.656125339401967"><ele>63.0</ele><time>2026-04-04T08:10:51.002Z</time></trkpt><trkpt lat="43.592626249417336" lon="10.656220871772486"><ele>63.0</ele><time>2026-04-04T08:10:52.002Z</time></trkpt><trkpt lat="43.592594193803706" lon="10.656303684623273"><ele>63.0</ele><time>2026-04-04T08:10:53.002Z</time></trkpt><trkpt lat="43.592561536264505" lon="10.656392777777892"><ele>63.0</ele><time>2026-04-04T08:10:54.002Z</time></trkpt><trkpt lat="43.59253357907132" lon="10.656482332634246"><ele>63.0</ele><time>2026-04-04T08:10:55.002Z</time></trkpt><trkpt lat="43.592481703394206" lon="10.65662867411133"><ele>63.0</ele><time>2026-04-04T08:10:57.002Z</time></trkpt><trkpt lat="43.592444505855724" lon="10.656703706933376"><ele>63.0</ele><time>2026-04-04T08:10:58.002Z</time></trkpt><trkpt lat="43.59240360725793" lon="10.656776534348278"><ele>63.0</ele><time>2026-04-04T08:10:59.002Z</time></trkpt><trkpt lat="43.59236206498421" lon="10.656848431978588"><ele>63.0</ele><time>2026-04-04T08:11:00.002Z</time></trkpt><trkpt lat="43.59232210314619" lon="10.656923182809779"><ele>63.0</ele><time>2026-04-04T08:11:01.002Z</time></trkpt><trkpt lat="43.59227817604416" lon="10.656997735822724"><ele>63.0</ele><time>2026-04-04T08:11:02.002Z</time></trkpt><trkpt lat="43.59223155554591" lon="10.657075850530354"><ele>63.0</ele><time>2026-04-04T08:11:03.002Z</time></trkpt><trkpt lat="43.59219600455847" lon="10.657148528829035"><ele>63.0</ele><time>2026-04-04T08:11:04.002Z</time></trkpt><trkpt lat="43.59216145675193" lon="10.657221978049261"><ele>64.0</ele><time>2026-04-04T08:11:05.002Z</time></trkpt><trkpt lat="43.5921302184228" lon="10.65730800170608"><ele>65.0</ele><time>2026-04-04T08:11:06.002Z</time></trkpt><trkpt lat="43.59208001319643" lon="10.657401538612326"><ele>66.0</ele><time>2026-04-04T08:11:07.002Z</time></trkpt><trkpt lat="43.59205318610109" lon="10.657499035412728"><ele>67.0</ele><time>2026-04-04T08:11:08.002Z</time></trkpt><trkpt lat="43.59203938559771" lon="10.657608822138068"><ele>68.0</ele><time>2026-04-04T08:11:09.002Z</time></trkpt><trkpt lat="43.59201847475173" lon="10.65770165715827"><ele>69.0</ele><time>2026-04-04T08:11:10.002Z</time></trkpt><trkpt lat="43.59200133427726" lon="10.657798745613007"><ele>69.71428571428572</ele><time>2026-04-04T08:11:11.002Z</time></trkpt><trkpt lat="43.59199488167125" lon="10.657894654948349"><ele>70.42857142857143</ele><time>2026-04-04T08:11:12.002Z</time></trkpt><trkpt lat="43.59198273795228" lon="10.657992448082103"><ele>71.14285714285714</ele><time>2026-04-04T08:11:13.002Z</time></trkpt><trkpt lat="43.591959579050595" lon="10.658100361413142"><ele>71.85714285714286</ele><time>2026-04-04T08:11:14.002Z</time></trkpt><trkpt lat="43.591929210448825" lon="10.658188545826523"><ele>72.57142857142857</ele><time>2026-04-04T08:11:15.002Z</time></trkpt><trkpt lat="43.591909816378674" lon="10.658297959205573"><ele>73.28571428571429</ele><time>2026-04-04T08:11:16.002Z</time></trkpt><trkpt lat="43.59188017150777" lon="10.658381738653937"><ele>74.0</ele><time>2026-04-04T08:11:17.002Z</time></trkpt><trkpt lat="43.59187242574217" lon="10.658468608913404"><ele>74.0</ele><time>2026-04-04T08:11:18.002Z</time></trkpt><trkpt lat="43.59181701971069" lon="10.658610002481362"><ele>74.0</ele><time>2026-04-04T08:11:20.002Z</time></trkpt><trkpt lat="43.591751369085095" lon="10.658744314639732"><ele>74.0</ele><time>2026-04-04T08:11:22.002Z</time></trkpt><trkpt lat="43.59171071083291" lon="10.658813184167231"><ele>74.0</ele><time>2026-04-04T08:11:23Z</time></trkpt><trkpt lat="43.591651084587866" lon="10.658862078072035"><ele>74.0</ele><time>2026-04-04T08:11:24Z</time></trkpt><trkpt lat="43.59159141538697" lon="10.658922747996915"><ele>74.0</ele><time>2026-04-04T08:11:25Z</time></trkpt><trkpt lat="43.59152765510207" lon="10.658973115441297"><ele>73.33333333333334</ele><time>2026-04-04T08:11:26Z</time></trkpt><trkpt lat="43.59146071263474" lon="10.6590201161469"><ele>72.66666666666667</ele><time>2026-04-04T08:11:27Z</time></trkpt><trkpt lat="43.59140205683907" lon="10.659058727551152"><ele>72.0</ele><time>2026-04-04T08:11:28Z</time></trkpt><trkpt lat="43.59129791584809" lon="10.659127239023748"><ele>71.33333333333333</ele><time>2026-04-04T08:11:30Z</time></trkpt><trkpt lat="43.59118963602622" lon="10.659198473226583"><ele>70.66666666666666</ele><time>2026-04-04T08:11:32Z</time></trkpt><trkpt lat="43.59113005222697" lon="10.659237671768782"><ele>70.0</ele><time>2026-04-04T08:11:33Z</time></trkpt><trkpt lat="43.59107315864452" lon="10.659276343133534"><ele>69.71428571428571</ele><time>2026-04-04T08:11:34Z</time></trkpt><trkpt lat="43.5910237969536" lon="10.659333340862284"><ele>69.42857142857143</ele><time>2026-04-04T08:11:35Z</time></trkpt><trkpt lat="43.590955256296226" lon="10.659364832702606"><ele>69.14285714285714</ele><time>2026-04-04T08:11:36Z</time></trkpt><trkpt lat="43.590899653758626" lon="10.659415124873403"><ele>68.85714285714286</ele><time>2026-04-04T08:11:37Z</time></trkpt><trkpt lat="43.590845533836394" lon="10.659463867160083"><ele>68.57142857142857</ele><time>2026-04-04T08:11:38Z</time></trkpt><trkpt lat="43.59078376605766" lon="10.6594880947214"><ele>68.28571428571428</ele><time>2026-04-04T08:11:39Z</time></trkpt><trkpt lat="43.5907186661367" lon="10.659532010237745"><ele>68.0</ele><time>2026-04-04T08:11:40Z</time></trkpt><trkpt lat="43.59065135085166" lon="10.659576274288373"><ele>67.16666666666667</ele><time>2026-04-04T08:11:41Z</time></trkpt><trkpt lat="43.59059039112746" lon="10.659619333022684"><ele>66.33333333333334</ele><time>2026-04-04T08:11:42Z</time></trkpt><trkpt lat="43.59053990650654" lon="10.659681141774907"><ele>65.5</ele><time>2026-04-04T08:11:43Z</time></trkpt><trkpt lat="43.59046770721249" lon="10.659712310236047"><ele>64.66666666666667</ele><time>2026-04-04T08:11:44Z</time></trkpt><trkpt lat="43.59040788360713" lon="10.65975865213259"><ele>63.833333333333336</ele><time>2026-04-04T08:11:45Z</time></trkpt><trkpt lat="43.590302743089964" lon="10.659864736384637"><ele>63.0</ele><time>2026-04-04T08:11:47Z</time></trkpt><trkpt lat="43.590235656122516" lon="10.659922757246656"><ele>62.85714285714286</ele><time>2026-04-04T08:11:48Z</time></trkpt><trkpt lat="43.59016334463235" lon="10.659966670347357"><ele>62.714285714285715</ele><time>2026-04-04T08:11:49Z</time></trkpt><trkpt lat="43.59009842584418" lon="10.66001985687679"><ele>62.57142857142857</ele><time>2026-04-04T08:11:50Z</time></trkpt><trkpt lat="43.590039840934324" lon="10.660072637913284"><ele>62.42857142857143</ele><time>2026-04-04T08:11:51Z</time></trkpt><trkpt lat="43.58998261201302" lon="10.660129117289864"><ele>62.28571428571429</ele><time>2026-04-04T08:11:52Z</time></trkpt><trkpt lat="43.58992292311463" lon="10.660181099656995"><ele>62.142857142857146</ele><time>2026-04-04T08:11:53Z</time></trkpt><trkpt lat="43.58986145160209" lon="10.660236649891402"><ele>62.0</ele><time>2026-04-04T08:11:54Z</time></trkpt><trkpt lat="43.58980126796826" lon="10.660291434431318"><ele>61.2</ele><time>2026-04-04T08:11:55.001Z</time></trkpt><trkpt lat="43.589743819866364" lon="10.660349485242605"><ele>60.400000000000006</ele><time>2026-04-04T08:11:56.001Z</time></trkpt><trkpt lat="43.58969812508926" lon="10.660425179329367"><ele>59.599999999999994</ele><time>2026-04-04T08:11:57.001Z</time></trkpt><trkpt lat="43.58964147664523" lon="10.660476228755446"><ele>58.8</ele><time>2026-04-04T08:11:58.001Z</time></trkpt><trkpt lat="43.58954857172579" lon="10.660595190975913"><ele>58.0</ele><time>2026-04-04T08:12:00.001Z</time></trkpt><trkpt lat="43.589469198700556" lon="10.660726840529973"><ele>57.5</ele><time>2026-04-04T08:12:02.001Z</time></trkpt><trkpt lat="43.589373476995306" lon="10.660821101782112"><ele>57.0</ele><time>2026-04-04T08:12:04.001Z</time></trkpt><trkpt lat="43.58929091450387" lon="10.66093143436877"><ele>56.5</ele><time>2026-04-04T08:12:06.001Z</time></trkpt><trkpt lat="43.589198808627074" lon="10.661030975335414"><ele>56.0</ele><time>2026-04-04T08:12:08.001Z</time></trkpt><trkpt lat="43.58910921269203" lon="10.661116936627947"><ele>55.599999999999994</ele><time>2026-04-04T08:12:10.001Z</time></trkpt><trkpt lat="43.58903726554272" lon="10.661192077951132"><ele>55.199999999999996</ele><time>2026-04-04T08:12:12.001Z</time></trkpt><trkpt lat="43.588968974386276" lon="10.66128262620038"><ele>54.800000000000004</ele><time>2026-04-04T08:12:14.001Z</time></trkpt><trkpt lat="43.58890320035272" lon="10.661379280595677"><ele>54.400000000000006</ele><time>2026-04-04T08:12:16.001Z</time></trkpt><trkpt lat="43.588853286635036" lon="10.66150162531581"><ele>54.0</ele><time>2026-04-04T08:12:18.001Z</time></trkpt><trkpt lat="43.58879214183734" lon="10.66161502179921"><ele>54.0</ele><time>2026-04-04T08:12:20.001Z</time></trkpt><trkpt lat="43.58872780113908" lon="10.661735055230132"><ele>54.00000000000001</ele><time>2026-04-04T08:12:22.001Z</time></trkpt><trkpt lat="43.588666500917334" lon="10.661855845864991"><ele>54.00000000000001</ele><time>2026-04-04T08:12:24.001Z</time></trkpt><trkpt lat="43.58860226213212" lon="10.6619763030215"><ele>54.0</ele><time>2026-04-04T08:12:26.001Z</time></trkpt><trkpt lat="43.588538565911065" lon="10.662097068191411"><ele>54.0</ele><time>2026-04-04T08:12:28.001Z</time></trkpt><trkpt lat="43.588455654830966" lon="10.662218514923717"><ele>55.0</ele><time>2026-04-04T08:12:30.001Z</time></trkpt><trkpt lat="43.58840920724365" lon="10.662296519812836"><ele>56.0</ele><time>2026-04-04T08:12:31.001Z</time></trkpt><trkpt lat="43.58835584763501" lon="10.662387718551415"><ele>57.0</ele><time>2026-04-04T08:12:32.001Z</time></trkpt><trkpt lat="43.58831730930163" lon="10.662486801017922"><ele>58.0</ele><time>2026-04-04T08:12:33.001Z</time></trkpt><trkpt lat="43.5882620428235" lon="10.662583855939591"><ele>59.0</ele><time>2026-04-04T08:12:34.001Z</time></trkpt><trkpt lat="43.588215483793526" lon="10.6626984307915"><ele>60.0</ele><time>2026-04-04T08:12:35.001Z</time></trkpt><trkpt lat="43.588169130524484" lon="10.662811042446519"><ele>60.666666666666664</ele><time>2026-04-04T08:12:36.001Z</time></trkpt><trkpt lat="43.58814556546913" lon="10.662927791989878"><ele>61.33333333333333</ele><time>2026-04-04T08:12:37.001Z</time></trkpt><trkpt lat="43.58811461032751" lon="10.663025873961873"><ele>62.0</ele><time>2026-04-04T08:12:38.001Z</time></trkpt><trkpt lat="43.58808249432811" lon="10.6631024779842"><ele>62.666666666666664</ele><time>2026-04-04T08:12:39.001Z</time></trkpt><trkpt lat="43.58802036839331" lon="10.66323598829635"><ele>63.33333333333333</ele><time>2026-04-04T08:12:41.001Z</time></trkpt><trkpt lat="43.58797309006727" lon="10.663318497731787"><ele>64.0</ele><time>2026-04-04T08:12:42.001Z</time></trkpt><trkpt lat="43.58792516538541" lon="10.663391064850966"><ele>63.99999999999999</ele><time>2026-04-04T08:12:43.001Z</time></trkpt><trkpt lat="43.58787821759846" lon="10.663461222254606"><ele>64.0</ele><time>2026-04-04T08:12:44.002Z</time></trkpt><trkpt lat="43.58781618142646" lon="10.663523701126627"><ele>64.0</ele><time>2026-04-04T08:12:45.002Z</time></trkpt><trkpt lat="43.58776603962688" lon="10.663598681649061"><ele>64.0</ele><time>2026-04-04T08:12:46.002Z</time></trkpt><trkpt lat="43.58771947273306" lon="10.663671371374281"><ele>63.99999999999999</ele><time>2026-04-04T08:12:47.002Z</time></trkpt><trkpt lat="43.58767113992178" lon="10.663743484610409"><ele>64.0</ele><time>2026-04-04T08:12:48.002Z</time></trkpt><trkpt lat="43.58759206794593" lon="10.663877653061903"><ele>64.5</ele><time>2026-04-04T08:12:50.002Z</time></trkpt><trkpt lat="43.58753500952987" lon="10.663934126113872"><ele>65.0</ele><time>2026-04-04T08:12:51.002Z</time></trkpt><trkpt lat="43.587470581306235" lon="10.664070034752335"><ele>65.5</ele><time>2026-04-04T08:12:53.002Z</time></trkpt><trkpt lat="43.58745286413073" lon="10.664157578719989"><ele>66.0</ele><time>2026-04-04T08:12:54.002Z</time></trkpt><trkpt lat="43.587370588193934" lon="10.6642415207007"><ele>66.5</ele><time>2026-04-04T08:12:56.002Z</time></trkpt><trkpt lat="43.587314380176295" lon="10.664303146418376"><ele>67.0</ele><time>2026-04-04T08:12:57.002Z</time></trkpt><trkpt lat="43.58725126248445" lon="10.664344160573748"><ele>67.0</ele><time>2026-04-04T08:12:58.002Z</time></trkpt><trkpt lat="43.58715797665934" lon="10.664446248626883"><ele>67.0</ele><time>2026-04-04T08:13:00.002Z</time></trkpt><trkpt lat="43.58713084284639" lon="10.664535149127952"><ele>67.0</ele><time>2026-04-04T08:13:01.002Z</time></trkpt><trkpt lat="43.587061424293566" lon="10.664667275276834"><ele>67.0</ele><time>2026-04-04T08:13:03.002Z</time></trkpt><trkpt lat="43.58701139080546" lon="10.664818567570048"><ele>67.0</ele><time>2026-04-04T08:13:05.002Z</time></trkpt><trkpt lat="43.58693236425092" lon="10.664919391185887"><ele>67.2</ele><time>2026-04-04T08:13:07.002Z</time></trkpt><trkpt lat="43.58684716345473" lon="10.665013984332269"><ele>67.4</ele><time>2026-04-04T08:13:09.002Z</time></trkpt><trkpt lat="43.586748283621034" lon="10.665102762799371"><ele>67.6</ele><time>2026-04-04T08:13:11.002Z</time></trkpt><trkpt lat="43.58669914715706" lon="10.665168512327373"><ele>67.8</ele><time>2026-04-04T08:13:12.002Z</time></trkpt><trkpt lat="43.58660440225999" lon="10.665258358876255"><ele>68.0</ele><time>2026-04-04T08:13:14.002Z</time></trkpt><trkpt lat="43.58654283720974" lon="10.665289544775579"><ele>69.33333333333334</ele><time>2026-04-04T08:13:15.002Z</time></trkpt><trkpt lat="43.586440302259476" lon="10.665377178329372"><ele>70.66666666666667</ele><time>2026-04-04T08:13:17.002Z</time></trkpt><trkpt lat="43.58640085743233" lon="10.6654547934193"><ele>72.0</ele><time>2026-04-04T08:13:18.002Z</time></trkpt><trkpt lat="43.58635025134391" lon="10.66552020527805"><ele>73.33333333333333</ele><time>2026-04-04T08:13:19.002Z</time></trkpt><trkpt lat="43.5863091406417" lon="10.665601773812057"><ele>74.66666666666666</ele><time>2026-04-04T08:13:20.002Z</time></trkpt><trkpt lat="43.58627685157697" lon="10.665679611928827"><ele>76.0</ele><time>2026-04-04T08:13:21.002Z</time></trkpt><trkpt lat="43.58619503677538" lon="10.66578691730075"><ele>76.8</ele><time>2026-04-04T08:13:23.002Z</time></trkpt><trkpt lat="43.586121377751596" lon="10.665901775276902"><ele>77.6</ele><time>2026-04-04T08:13:25.002Z</time></trkpt><trkpt lat="43.58607941688658" lon="10.665967192700892"><ele>78.4</ele><time>2026-04-04T08:13:26.002Z</time></trkpt><trkpt lat="43.58602511613784" lon="10.66610881700582"><ele>79.2</ele><time>2026-04-04T08:13:28.002Z</time></trkpt><trkpt lat="43.586008383534974" lon="10.66623209780402"><ele>80.0</ele><time>2026-04-04T08:13:30Z</time></trkpt><trkpt lat="43.58600929986277" lon="10.666331036155624"><ele>80.16666666666667</ele><time>2026-04-04T08:13:32Z</time></trkpt><trkpt lat="43.585932109089775" lon="10.666361301989218"><ele>80.33333333333334</ele><time>2026-04-04T08:13:34Z</time></trkpt><trkpt lat="43.58587561293937" lon="10.666418025584946"><ele>80.5</ele><time>2026-04-04T08:13:35Z</time></trkpt><trkpt lat="43.58581378011821" lon="10.66648537081968"><ele>80.66666666666667</ele><time>2026-04-04T08:13:36Z</time></trkpt><trkpt lat="43.58575240912771" lon="10.666559413287771"><ele>80.83333333333333</ele><time>2026-04-04T08:13:37Z</time></trkpt><trkpt lat="43.585681621005385" lon="10.666644723565634"><ele>81.0</ele><time>2026-04-04T08:13:38Z</time></trkpt><trkpt lat="43.58561659944015" lon="10.666750527205231"><ele>81.0</ele><time>2026-04-04T08:13:39Z</time></trkpt><trkpt lat="43.58553349508431" lon="10.666813341055512"><ele>81.0</ele><time>2026-04-04T08:13:40Z</time></trkpt><trkpt lat="43.585464681043256" lon="10.666882396457122"><ele>81.0</ele><time>2026-04-04T08:13:41Z</time></trkpt><trkpt lat="43.58539120197519" lon="10.66696057043265"><ele>81.0</ele><time>2026-04-04T08:13:42Z</time></trkpt><trkpt lat="43.585321547434155" lon="10.66699800774634"><ele>81.0</ele><time>2026-04-04T08:13:43Z</time></trkpt><trkpt lat="43.58525655444593" lon="10.667050919898726"><ele>81.0</ele><time>2026-04-04T08:13:44Z</time></trkpt><trkpt lat="43.58519583069258" lon="10.667102512573834"><ele>81.66666666666667</ele><time>2026-04-04T08:13:45Z</time></trkpt><trkpt lat="43.58513495552368" lon="10.667155671760053"><ele>82.33333333333333</ele><time>2026-04-04T08:13:46Z</time></trkpt><trkpt lat="43.58503334548444" lon="10.667245639051128"><ele>83.0</ele><time>2026-04-04T08:13:48Z</time></trkpt><trkpt lat="43.584974011470145" lon="10.667298765996954"><ele>83.66666666666666</ele><time>2026-04-04T08:13:49Z</time></trkpt><trkpt lat="43.5849097370997" lon="10.667354842997833"><ele>84.33333333333333</ele><time>2026-04-04T08:13:50Z</time></trkpt><trkpt lat="43.5848440813476" lon="10.66740026639853"><ele>85.0</ele><time>2026-04-04T08:13:51Z</time></trkpt><trkpt lat="43.58476868916852" lon="10.667452983900077"><ele>85.0</ele><time>2026-04-04T08:13:52Z</time></trkpt><trkpt lat="43.58469263179231" lon="10.667522983135456"><ele>85.0</ele><time>2026-04-04T08:13:53Z</time></trkpt><trkpt lat="43.584638265073664" lon="10.667624474836728"><ele>85.0</ele><time>2026-04-04T08:13:54Z</time></trkpt><trkpt lat="43.58457650468139" lon="10.667700100969217"><ele>85.0</ele><time>2026-04-04T08:13:55Z</time></trkpt><trkpt lat="43.584543741224294" lon="10.667776583589841"><ele>85.0</ele><time>2026-04-04T08:13:56Z</time></trkpt><trkpt lat="43.58450415046736" lon="10.667926720487735"><ele>85.0</ele><time>2026-04-04T08:13:58Z</time></trkpt><trkpt lat="43.58447128261917" lon="10.668068319756275"><ele>85.0</ele><time>2026-04-04T08:14:00Z</time></trkpt><trkpt lat="43.58443165992942" lon="10.668210656055976"><ele>85.0</ele><time>2026-04-04T08:14:02Z</time></trkpt><trkpt lat="43.58439417398684" lon="10.668359656028262"><ele>85.0</ele><time>2026-04-04T08:14:04Z</time></trkpt><trkpt lat="43.584318546123875" lon="10.668491128416473"><ele>85.0</ele><time>2026-04-04T08:14:06Z</time></trkpt><trkpt lat="43.58427917477763" lon="10.668561774598743"><ele>85.0</ele><time>2026-04-04T08:14:07Z</time></trkpt><trkpt lat="43.5842348478172" lon="10.668627635704034"><ele>85.0</ele><time>2026-04-04T08:14:08.001Z</time></trkpt><trkpt lat="43.58419779124107" lon="10.668699866847314"><ele>85.0</ele><time>2026-04-04T08:14:09.001Z</time></trkpt><trkpt lat="43.58417289218425" lon="10.668786869889564"><ele>85.0</ele><time>2026-04-04T08:14:10.001Z</time></trkpt><trkpt lat="43.584157473249135" lon="10.668872018295863"><ele>85.0</ele><time>2026-04-04T08:14:11.001Z</time></trkpt><trkpt lat="43.58413277670915" lon="10.669031954994466"><ele>85.0</ele><time>2026-04-04T08:14:13.001Z</time></trkpt><trkpt lat="43.584063463252654" lon="10.669160623945352"><ele>85.0</ele><time>2026-04-04T08:14:15.001Z</time></trkpt><trkpt lat="43.583991637702574" lon="10.669259733759047"><ele>85.0</ele><time>2026-04-04T08:14:17.001Z</time></trkpt><trkpt lat="43.5839130204713" lon="10.669326764929798"><ele>85.0</ele><time>2026-04-04T08:14:19.001Z</time></trkpt><trkpt lat="43.58384686794734" lon="10.669381337781656"><ele>85.0</ele><time>2026-04-04T08:14:20.001Z</time></trkpt><trkpt lat="43.58378288822292" lon="10.669434118111807"><ele>85.0</ele><time>2026-04-04T08:14:21.001Z</time></trkpt><trkpt lat="43.58372231533017" lon="10.66948408641715"><ele>85.0</ele><time>2026-04-04T08:14:22.001Z</time></trkpt><trkpt lat="43.58366290748292" lon="10.669532955501662"><ele>85.0</ele><time>2026-04-04T08:14:23.001Z</time></trkpt><trkpt lat="43.58360117153116" lon="10.669583803658089"><ele>85.0</ele><time>2026-04-04T08:14:24.001Z</time></trkpt><trkpt lat="43.58354175276683" lon="10.669632251322383"><ele>85.0</ele><time>2026-04-04T08:14:25.001Z</time></trkpt><trkpt lat="43.58347669869923" lon="10.669683176942623"><ele>85.0</ele><time>2026-04-04T08:14:26.001Z</time></trkpt><trkpt lat="43.58341045724062" lon="10.669734306045994"><ele>85.0</ele><time>2026-04-04T08:14:27.001Z</time></trkpt><trkpt lat="43.583348484502515" lon="10.669780598090483"><ele>85.0</ele><time>2026-04-04T08:14:28.001Z</time></trkpt><trkpt lat="43.583224986736916" lon="10.669863488144884"><ele>85.0</ele><time>2026-04-04T08:14:30.001Z</time></trkpt><trkpt lat="43.58317251263145" lon="10.669938888112165"><ele>85.0</ele><time>2026-04-04T08:14:31.001Z</time></trkpt><trkpt lat="43.583121543538546" lon="10.670011058870651"><ele>85.0</ele><time>2026-04-04T08:14:32.001Z</time></trkpt><trkpt lat="43.583057863327724" lon="10.670060047522949"><ele>85.0</ele><time>2026-04-04T08:14:33.001Z</time></trkpt><trkpt lat="43.58300313720693" lon="10.67012517345541"><ele>85.0</ele><time>2026-04-04T08:14:34.001Z</time></trkpt><trkpt lat="43.58294403570985" lon="10.670185829728533"><ele>85.0</ele><time>2026-04-04T08:14:35.001Z</time></trkpt><trkpt lat="43.5828845072353" lon="10.670240325161531"><ele>85.0</ele><time>2026-04-04T08:14:36.001Z</time></trkpt><trkpt lat="43.58282045297902" lon="10.67029045132892"><ele>85.0</ele><time>2026-04-04T08:14:37.001Z</time></trkpt><trkpt lat="43.58275277578806" lon="10.670337900770111"><ele>85.5</ele><time>2026-04-04T08:14:38.001Z</time></trkpt><trkpt lat="43.5826887023184" lon="10.670377588607607"><ele>86.0</ele><time>2026-04-04T08:14:39.001Z</time></trkpt><trkpt lat="43.58262230106841" lon="10.670412619316206"><ele>86.5</ele><time>2026-04-04T08:14:40.001Z</time></trkpt><trkpt lat="43.58255361409789" lon="10.670446609386937"><ele>87.0</ele><time>2026-04-04T08:14:41.001Z</time></trkpt><trkpt lat="43.58248473485388" lon="10.670485157962304"><ele>87.5</ele><time>2026-04-04T08:14:42.001Z</time></trkpt><trkpt lat="43.5824366428955" lon="10.670541456755553"><ele>88.0</ele><time>2026-04-04T08:14:43.001Z</time></trkpt><trkpt lat="43.58233884922529" lon="10.670609497703602"><ele>88.0</ele><time>2026-04-04T08:14:45.001Z</time></trkpt><trkpt lat="43.58226317700076" lon="10.670722245879224"><ele>88.0</ele><time>2026-04-04T08:14:47.001Z</time></trkpt><trkpt lat="43.58221716110762" lon="10.670782342906037"><ele>88.0</ele><time>2026-04-04T08:14:48.001Z</time></trkpt><trkpt lat="43.58217041869804" lon="10.67084338764566"><ele>88.0</ele><time>2026-04-04T08:14:49.001Z</time></trkpt><trkpt lat="43.58211811320108" lon="10.670896564039122"><ele>88.0</ele><time>2026-04-04T08:14:50.001Z</time></trkpt><trkpt lat="43.582020277282915" lon="10.670961944850424"><ele>88.0</ele><time>2026-04-04T08:14:52.001Z</time></trkpt><trkpt lat="43.58191316226812" lon="10.6710070912043"><ele>87.83333333333333</ele><time>2026-04-04T08:14:54.001Z</time></trkpt><trkpt lat="43.58180793941723" lon="10.671041524928274"><ele>87.66666666666666</ele><time>2026-04-04T08:14:55.002Z</time></trkpt><trkpt lat="43.581720708271796" lon="10.671059169085273"><ele>87.5</ele><time>2026-04-04T08:14:56.002Z</time></trkpt><trkpt lat="43.581643356568854" lon="10.671061925482586"><ele>87.33333333333333</ele><time>2026-04-04T08:14:57.002Z</time></trkpt><trkpt lat="43.58156875137997" lon="10.67107231919276"><ele>87.16666666666667</ele><time>2026-04-04T08:14:58.002Z</time></trkpt><trkpt lat="43.581505494174344" lon="10.671090937502958"><ele>87.0</ele><time>2026-04-04T08:14:59.002Z</time></trkpt><trkpt lat="43.581455097820744" lon="10.671146860727825"><ele>86.85714285714286</ele><time>2026-04-04T08:15:00.002Z</time></trkpt><trkpt lat="43.58141290868347" lon="10.671218501943875"><ele>86.71428571428572</ele><time>2026-04-04T08:15:01.002Z</time></trkpt><trkpt lat="43.581360037120476" lon="10.671289030037622"><ele>86.57142857142858</ele><time>2026-04-04T08:15:02.002Z</time></trkpt><trkpt lat="43.581308741565145" lon="10.671361622224682"><ele>86.42857142857143</ele><time>2026-04-04T08:15:03.002Z</time></trkpt><trkpt lat="43.58124723983089" lon="10.671415013471616"><ele>86.28571428571429</ele><time>2026-04-04T08:15:04.002Z</time></trkpt><trkpt lat="43.581198499191984" lon="10.67148411393032"><ele>86.14285714285715</ele><time>2026-04-04T08:15:05.002Z</time></trkpt><trkpt lat="43.58116723980982" lon="10.671561049724557"><ele>86.0</ele><time>2026-04-04T08:15:06.002Z</time></trkpt><trkpt lat="43.58107571529691" lon="10.67166948748142"><ele>86.0</ele><time>2026-04-04T08:15:08.002Z</time></trkpt><trkpt lat="43.581004648058844" lon="10.671795716854207"><ele>86.0</ele><time>2026-04-04T08:15:10.002Z</time></trkpt><trkpt lat="43.580928149858465" lon="10.671922320643136"><ele>86.0</ele><time>2026-04-04T08:15:12.002Z</time></trkpt><trkpt lat="43.58087610868334" lon="10.67197481990953"><ele>86.0</ele><time>2026-04-04T08:15:13.002Z</time></trkpt><trkpt lat="43.58083272620688" lon="10.672046891353695"><ele>86.0</ele><time>2026-04-04T08:15:14.002Z</time></trkpt><trkpt lat="43.58075204666935" lon="10.672177535690897"><ele>85.5</ele><time>2026-04-04T08:15:16.002Z</time></trkpt><trkpt lat="43.58071250204888" lon="10.672255956510503"><ele>85.0</ele><time>2026-04-04T08:15:17.002Z</time></trkpt><trkpt lat="43.580664510447235" lon="10.672339335306713"><ele>84.5</ele><time>2026-04-04T08:15:18.002Z</time></trkpt><trkpt lat="43.58061415247127" lon="10.672417957993156"><ele>84.0</ele><time>2026-04-04T08:15:19.002Z</time></trkpt><trkpt lat="43.580568023544494" lon="10.672487673205268"><ele>83.5</ele><time>2026-04-04T08:15:20.002Z</time></trkpt><trkpt lat="43.580523083440916" lon="10.672559463165037"><ele>83.0</ele><time>2026-04-04T08:15:21.002Z</time></trkpt><trkpt lat="43.58044275863231" lon="10.672688278869893"><ele>82.83333333333334</ele><time>2026-04-04T08:15:23.002Z</time></trkpt><trkpt lat="43.580376369340385" lon="10.672787011876116"><ele>82.66666666666667</ele><time>2026-04-04T08:15:25.002Z</time></trkpt><trkpt lat="43.580322874559364" lon="10.672838664424015"><ele>82.5</ele><time>2026-04-04T08:15:28.002Z</time></trkpt><trkpt lat="43.58026336912419" lon="10.672690418134138"><ele>82.33333333333333</ele><time>2026-04-04T08:15:31.002Z</time></trkpt><trkpt lat="43.580208032073" lon="10.672606749564327"><ele>82.16666666666666</ele><time>2026-04-04T08:15:32.002Z</time></trkpt><trkpt lat="43.58017603956985" lon="10.672521579390121"><ele>82.0</ele><time>2026-04-04T08:15:33.002Z</time></trkpt><trkpt lat="43.580133715227916" lon="10.672423724535872"><ele>82.8</ele><time>2026-04-04T08:15:34.002Z</time></trkpt><trkpt lat="43.58007138727753" lon="10.672321512138604"><ele>83.6</ele><time>2026-04-04T08:15:35Z</time></trkpt><trkpt lat="43.57999602398269" lon="10.672213114044448"><ele>84.39999999999999</ele><time>2026-04-04T08:15:36Z</time></trkpt><trkpt lat="43.579921092411574" lon="10.672104322382179"><ele>85.19999999999999</ele><time>2026-04-04T08:15:37Z</time></trkpt><trkpt lat="43.57985664941265" lon="10.672010386740931"><ele>86.0</ele><time>2026-04-04T08:15:38Z</time></trkpt><trkpt lat="43.579798373046756" lon="10.671929426997659"><ele>86.0</ele><time>2026-04-04T08:15:39Z</time></trkpt><trkpt lat="43.5797444650726" lon="10.671853292246123"><ele>86.0</ele><time>2026-04-04T08:15:40Z</time></trkpt><trkpt lat="43.579696074030736" lon="10.67178625036973"><ele>86.0</ele><time>2026-04-04T08:15:41Z</time></trkpt><trkpt lat="43.57962314596485" lon="10.671687849002007"><ele>86.0</ele><time>2026-04-04T08:15:43Z</time></trkpt><trkpt lat="43.57954578937923" lon="10.671643623989024"><ele>86.0</ele><time>2026-04-04T08:15:46Z</time></trkpt><trkpt lat="43.57944986013349" lon="10.67183774381493"><ele>83.8</ele><time>2026-04-04T08:15:50Z</time></trkpt><trkpt lat="43.57944656189924" lon="10.67196370886686"><ele>81.6</ele><time>2026-04-04T08:15:51Z</time></trkpt><trkpt lat="43.57945284425609" lon="10.672085599110932"><ele>79.4</ele><time>2026-04-04T08:15:52Z</time></trkpt><trkpt lat="43.57946046185605" lon="10.672218802356621"><ele>77.2</ele><time>2026-04-04T08:15:53Z</time></trkpt><trkpt lat="43.57945274218691" lon="10.672374781649578"><ele>75.0</ele><time>2026-04-04T08:15:54Z</time></trkpt><trkpt lat="43.579461186569446" lon="10.672546818701674"><ele>75.0</ele><time>2026-04-04T08:15:55Z</time></trkpt><trkpt lat="43.579469840774266" lon="10.672729574147187"><ele>75.0</ele><time>2026-04-04T08:15:56Z</time></trkpt><trkpt lat="43.57947864732745" lon="10.67292297837033"><ele>75.0</ele><time>2026-04-04T08:15:57Z</time></trkpt><trkpt lat="43.57948792855887" lon="10.673126806891679"><ele>75.0</ele><time>2026-04-04T08:15:58Z</time></trkpt><trkpt lat="43.57949726000631" lon="10.673331738509257"><ele>75.0</ele><time>2026-04-04T08:15:59Z</time></trkpt><trkpt lat="43.579506622449586" lon="10.67353735075879"><ele>75.0</ele><time>2026-04-04T08:16:00Z</time></trkpt><trkpt lat="43.57951586566043" lon="10.673740341540785"><ele>75.0</ele><time>2026-04-04T08:16:01Z</time></trkpt><trkpt lat="43.57952519247179" lon="10.673940703660566"><ele>75.0</ele><time>2026-04-04T08:16:02Z</time></trkpt><trkpt lat="43.57953421387367" lon="10.67413725639187"><ele>75.0</ele><time>2026-04-04T08:16:03Z</time></trkpt><trkpt lat="43.57954336382158" lon="10.674336609837301"><ele>75.0</ele><time>2026-04-04T08:16:04Z</time></trkpt><trkpt lat="43.579552795471216" lon="10.67453974267853"><ele>75.0</ele><time>2026-04-04T08:16:05Z</time></trkpt><trkpt lat="43.579562732482685" lon="10.674746915254161"><ele>75.0</ele><time>2026-04-04T08:16:06Z</time></trkpt><trkpt lat="43.57958280618784" lon="10.674967710253853"><ele>73.66666666666667</ele><time>2026-04-04T08:16:07Z</time></trkpt><trkpt lat="43.57958862377589" lon="10.675204289294118"><ele>72.33333333333334</ele><time>2026-04-04T08:16:08Z</time></trkpt><trkpt lat="43.57959731900728" lon="10.675446085551968"><ele>71.0</ele><time>2026-04-04T08:16:09Z</time></trkpt><trkpt lat="43.57960340208993" lon="10.675700754067375"><ele>68.33333333333334</ele><time>2026-04-04T08:16:10Z</time></trkpt><trkpt lat="43.579611151775424" lon="10.675963671780778"><ele>65.66666666666667</ele><time>2026-04-04T08:16:11Z</time></trkpt><trkpt lat="43.579617061527884" lon="10.676220765304134"><ele>63.0</ele><time>2026-04-04T08:16:12Z</time></trkpt><trkpt lat="43.579623373502436" lon="10.67646945775482"><ele>60.66666666666667</ele><time>2026-04-04T08:16:13Z</time></trkpt><trkpt lat="43.57963396391546" lon="10.67671345062667"><ele>58.333333333333336</ele><time>2026-04-04T08:16:14Z</time></trkpt><trkpt lat="43.579640257863716" lon="10.676960687553954"><ele>56.0</ele><time>2026-04-04T08:16:15Z</time></trkpt><trkpt lat="43.57965774512136" lon="10.677195088165217"><ele>55.66666666666667</ele><time>2026-04-04T08:16:16Z</time></trkpt><trkpt lat="43.57966894794961" lon="10.677423563643929"><ele>55.33333333333333</ele><time>2026-04-04T08:16:17.001Z</time></trkpt><trkpt lat="43.57967396909285" lon="10.67765005349762"><ele>55.0</ele><time>2026-04-04T08:16:18.001Z</time></trkpt><trkpt lat="43.57967587996819" lon="10.677879125610794"><ele>54.0</ele><time>2026-04-04T08:16:19.001Z</time></trkpt><trkpt lat="43.5796852761265" lon="10.678110807141794"><ele>53.0</ele><time>2026-04-04T08:16:20.001Z</time></trkpt><trkpt lat="43.57968670093245" lon="10.678341820575495"><ele>52.0</ele><time>2026-04-04T08:16:21.001Z</time></trkpt><trkpt lat="43.579703924592806" lon="10.678559272947037"><ele>50.33333333333333</ele><time>2026-04-04T08:16:22.001Z</time></trkpt><trkpt lat="43.5797203357462" lon="10.67877945168259"><ele>48.666666666666664</ele><time>2026-04-04T08:16:23.001Z</time></trkpt><trkpt lat="43.57973581357592" lon="10.678994583367453"><ele>47.0</ele><time>2026-04-04T08:16:24.001Z</time></trkpt><trkpt lat="43.57974543653869" lon="10.679206923498375"><ele>47.0</ele><time>2026-04-04T08:16:25.001Z</time></trkpt><trkpt lat="43.579758654777905" lon="10.679406113348746"><ele>47.0</ele><time>2026-04-04T08:16:26.001Z</time></trkpt><trkpt lat="43.579773008568516" lon="10.679588937573659"><ele>47.0</ele><time>2026-04-04T08:16:27.001Z</time></trkpt><trkpt lat="43.57979066351142" lon="10.679760466897486"><ele>47.0</ele><time>2026-04-04T08:16:28.001Z</time></trkpt><trkpt lat="43.579804953628354" lon="10.679918674025194"><ele>46.166666666666664</ele><time>2026-04-04T08:16:29.001Z</time></trkpt><trkpt lat="43.57982286900563" lon="10.680057766782534"><ele>45.33333333333333</ele><time>2026-04-04T08:16:30.001Z</time></trkpt><trkpt lat="43.579850610230714" lon="10.68016417330579"><ele>44.5</ele><time>2026-04-04T08:16:31.001Z</time></trkpt><trkpt lat="43.57985781600194" lon="10.680270162443447"><ele>43.666666666666664</ele><time>2026-04-04T08:16:32.001Z</time></trkpt><trkpt lat="43.579878943307854" lon="10.680364144002423"><ele>42.833333333333336</ele><time>2026-04-04T08:16:33.001Z</time></trkpt><trkpt lat="43.579888291602074" lon="10.680488602468829"><ele>42.0</ele><time>2026-04-04T08:16:34.001Z</time></trkpt><trkpt lat="43.57991553788567" lon="10.680622887138115"><ele>41.25</ele><time>2026-04-04T08:16:35.001Z</time></trkpt><trkpt lat="43.57985329529519" lon="10.680800928157689"><ele>40.5</ele><time>2026-04-04T08:16:36.001Z</time></trkpt><trkpt lat="43.579861455027746" lon="10.680996602453892"><ele>39.75</ele><time>2026-04-04T08:16:37.001Z</time></trkpt><trkpt lat="43.57987172088516" lon="10.68119781338125"><ele>39.0</ele><time>2026-04-04T08:16:38.001Z</time></trkpt><trkpt lat="43.57988199447418" lon="10.681408044216187"><ele>39.0</ele><time>2026-04-04T08:16:39.001Z</time></trkpt><trkpt lat="43.57992577846085" lon="10.681612724217011"><ele>39.0</ele><time>2026-04-04T08:16:40.001Z</time></trkpt><trkpt lat="43.5799403093752" lon="10.681801183454516"><ele>39.0</ele><time>2026-04-04T08:16:41.001Z</time></trkpt><trkpt lat="43.5799480649617" lon="10.681973412309384"><ele>39.0</ele><time>2026-04-04T08:16:42.001Z</time></trkpt><trkpt lat="43.57996345485531" lon="10.68212287442631"><ele>39.0</ele><time>2026-04-04T08:16:43.001Z</time></trkpt><trkpt lat="43.57991610075989" lon="10.68224690756495"><ele>39.0</ele><time>2026-04-04T08:16:44.001Z</time></trkpt><trkpt lat="43.579918649440465" lon="10.682336373462174"><ele>39.0</ele><time>2026-04-04T08:16:45.001Z</time></trkpt><trkpt lat="43.57992271991828" lon="10.682479258878091"><ele>39.0</ele><time>2026-04-04T08:16:47.001Z</time></trkpt><trkpt lat="43.57992640361002" lon="10.682608565598983"><ele>39.0</ele><time>2026-04-04T08:16:49.001Z</time></trkpt><trkpt lat="43.57994837904201" lon="10.682727552060319"><ele>38.8</ele><time>2026-04-04T08:16:51.001Z</time></trkpt><trkpt lat="43.57989187534275" lon="10.682901842800165"><ele>38.599999999999994</ele><time>2026-04-04T08:16:53.001Z</time></trkpt><trkpt lat="43.5798804728011" lon="10.683005900267423"><ele>38.4</ele><time>2026-04-04T08:16:54.001Z</time></trkpt><trkpt lat="43.579883985232016" lon="10.68311716226589"><ele>38.199999999999996</ele><time>2026-04-04T08:16:55.001Z</time></trkpt><trkpt lat="43.57994992935144" lon="10.683228748506066"><ele>38.0</ele><time>2026-04-04T08:16:56.001Z</time></trkpt><trkpt lat="43.579997962662276" lon="10.683389425212786"><ele>37.666666666666664</ele><time>2026-04-04T08:16:57.001Z</time></trkpt><trkpt lat="43.579992638026404" lon="10.683601821042267"><ele>37.333333333333336</ele><time>2026-04-04T08:16:58.001Z</time></trkpt><trkpt lat="43.580002750076865" lon="10.683842104337314"><ele>37.0</ele><time>2026-04-04T08:16:59.001Z</time></trkpt><trkpt lat="43.580014829907974" lon="10.684124224703716"><ele>37.0</ele><time>2026-04-04T08:17:00.001Z</time></trkpt><trkpt lat="43.580037641157894" lon="10.684427664551492"><ele>37.0</ele><time>2026-04-04T08:17:01.001Z</time></trkpt><trkpt lat="43.5800501710702" lon="10.684753180795655"><ele>37.5</ele><time>2026-04-04T08:17:02.002Z</time></trkpt><trkpt lat="43.580065312728394" lon="10.685111683948003"><ele>38.0</ele><time>2026-04-04T08:17:03.002Z</time></trkpt><trkpt lat="43.58009138920832" lon="10.68547360598729"><ele>38.0</ele><time>2026-04-04T08:17:04.002Z</time></trkpt><trkpt lat="43.58011140387774" lon="10.685831884615904"><ele>38.0</ele><time>2026-04-04T08:17:05.002Z</time></trkpt><trkpt lat="43.58012671734268" lon="10.686174274466662"><ele>36.0</ele><time>2026-04-04T08:17:06.002Z</time></trkpt><trkpt lat="43.58014034904031" lon="10.686496730537336"><ele>34.0</ele><time>2026-04-04T08:17:07.002Z</time></trkpt><trkpt lat="43.580158416840604" lon="10.68681010085134"><ele>35.0</ele><time>2026-04-04T08:17:08.002Z</time></trkpt><trkpt lat="43.58016918446441" lon="10.687117938784809"><ele>36.0</ele><time>2026-04-04T08:17:09.002Z</time></trkpt><trkpt lat="43.58018765639772" lon="10.68743082876874"><ele>36.0</ele><time>2026-04-04T08:17:10.002Z</time></trkpt><trkpt lat="43.58020206219414" lon="10.687744754742972"><ele>36.0</ele><time>2026-04-04T08:17:11.002Z</time></trkpt><trkpt lat="43.58021641117624" lon="10.688055261057748"><ele>36.0</ele><time>2026-04-04T08:17:12.002Z</time></trkpt><trkpt lat="43.580230940633164" lon="10.68837178179943"><ele>36.0</ele><time>2026-04-04T08:17:13.002Z</time></trkpt><trkpt lat="43.58024562230853" lon="10.688692187691643"><ele>35.0</ele><time>2026-04-04T08:17:14.002Z</time></trkpt><trkpt lat="43.58026168501505" lon="10.68901452330934"><ele>34.0</ele><time>2026-04-04T08:17:15.002Z</time></trkpt><trkpt lat="43.58027496454918" lon="10.689335481184653"><ele>34.5</ele><time>2026-04-04T08:17:16.002Z</time></trkpt><trkpt lat="43.58029000892551" lon="10.68965920464257"><ele>35.0</ele><time>2026-04-04T08:17:17.002Z</time></trkpt><trkpt lat="43.58030289535987" lon="10.689983156747758"><ele>35.0</ele><time>2026-04-04T08:17:18.002Z</time></trkpt><trkpt lat="43.58032201688999" lon="10.690306077217164"><ele>35.0</ele><time>2026-04-04T08:17:19.002Z</time></trkpt><trkpt lat="43.580338037805674" lon="10.690625726006258"><ele>35.5</ele><time>2026-04-04T08:17:20.002Z</time></trkpt><trkpt lat="43.58035075309448" lon="10.69094373834146"><ele>36.0</ele><time>2026-04-04T08:17:21.002Z</time></trkpt><trkpt lat="43.58036416673956" lon="10.691258796817147"><ele>36.0</ele><time>2026-04-04T08:17:22.002Z</time></trkpt><trkpt lat="43.58037954794669" lon="10.69157016206834"><ele>36.0</ele><time>2026-04-04T08:17:23.002Z</time></trkpt><trkpt lat="43.58040687607703" lon="10.691877684638321"><ele>35.666666666666664</ele><time>2026-04-04T08:17:24.002Z</time></trkpt><trkpt lat="43.58044104246789" lon="10.692180605434077"><ele>35.33333333333333</ele><time>2026-04-04T08:17:25.002Z</time></trkpt><trkpt lat="43.58048873277367" lon="10.692477787767347"><ele>35.0</ele><time>2026-04-04T08:17:26.002Z</time></trkpt><trkpt lat="43.58053781366414" lon="10.69277071189814"><ele>35.666666666666664</ele><time>2026-04-04T08:17:27.002Z</time></trkpt><trkpt lat="43.58058833494633" lon="10.693053750515974"><ele>36.333333333333336</ele><time>2026-04-04T08:17:28.002Z</time></trkpt><trkpt lat="43.58062911889109" lon="10.693338796178137"><ele>37.0</ele><time>2026-04-04T08:17:29.002Z</time></trkpt><trkpt lat="43.58065698325675" lon="10.693623276050904"><ele>37.0</ele><time>2026-04-04T08:17:30.002Z</time></trkpt><trkpt lat="43.58066257374802" lon="10.693913272851896"><ele>37.0</ele><time>2026-04-04T08:17:31.002Z</time></trkpt><trkpt lat="43.580653834014676" lon="10.694209840515958"><ele>37.0</ele><time>2026-04-04T08:17:32.002Z</time></trkpt><trkpt lat="43.58066070633085" lon="10.694528067776753"><ele>36.66666666666667</ele><time>2026-04-04T08:17:33.002Z</time></trkpt><trkpt lat="43.58065982007995" lon="10.694837800105661"><ele>36.333333333333336</ele><time>2026-04-04T08:17:34.002Z</time></trkpt><trkpt lat="43.580661130077885" lon="10.695145310410181"><ele>36.0</ele><time>2026-04-04T08:17:35.002Z</time></trkpt><trkpt lat="43.58065751891955" lon="10.695424738704826"><ele>36.0</ele><time>2026-04-04T08:17:36.002Z</time></trkpt><trkpt lat="43.580661149021864" lon="10.69571452036193"><ele>36.0</ele><time>2026-04-04T08:17:37.002Z</time></trkpt><trkpt lat="43.58065541284415" lon="10.695990389545011"><ele>36.0</ele><time>2026-04-04T08:17:38.002Z</time></trkpt><trkpt lat="43.58065452121765" lon="10.696263290091222"><ele>36.333333333333336</ele><time>2026-04-04T08:17:39.002Z</time></trkpt><trkpt lat="43.58065241426958" lon="10.69652884958637"><ele>36.66666666666667</ele><time>2026-04-04T08:17:40.002Z</time></trkpt><trkpt lat="43.580647111194615" lon="10.69679496192437"><ele>37.0</ele><time>2026-04-04T08:17:40.999Z</time></trkpt><trkpt lat="43.58064648398282" lon="10.69707020923777"><ele>37.0</ele><time>2026-04-04T08:17:41.999Z</time></trkpt><trkpt lat="43.58063262600144" lon="10.697352647912433"><ele>37.0</ele><time>2026-04-04T08:17:42.999Z</time></trkpt><trkpt lat="43.58062835324288" lon="10.697664511511043"><ele>37.0</ele><time>2026-04-04T08:17:43.999Z</time></trkpt><trkpt lat="43.580624093800544" lon="10.698001887111568"><ele>37.0</ele><time>2026-04-04T08:17:44.999Z</time></trkpt><trkpt lat="43.58061824628062" lon="10.698356905611083"><ele>37.0</ele><time>2026-04-04T08:17:45.999Z</time></trkpt><trkpt lat="43.580614186685196" lon="10.698683588130752"><ele>36.66666666666667</ele><time>2026-04-04T08:17:46.999Z</time></trkpt><trkpt lat="43.58060992776983" lon="10.698994558198661"><ele>36.333333333333336</ele><time>2026-04-04T08:17:47.999Z</time></trkpt><trkpt lat="43.58060565771533" lon="10.699284416712787"><ele>36.0</ele><time>2026-04-04T08:17:48.999Z</time></trkpt><trkpt lat="43.58060179464658" lon="10.699546648036629"><ele>36.0</ele><time>2026-04-04T08:17:49.999Z</time></trkpt><trkpt lat="43.5806146003711" lon="10.699797582886884"><ele>36.0</ele><time>2026-04-04T08:17:50.999Z</time></trkpt><trkpt lat="43.58061010007384" lon="10.700033438225715"><ele>36.0</ele><time>2026-04-04T08:17:51.999Z</time></trkpt><trkpt lat="43.580591237103846" lon="10.700263311514732"><ele>35.666666666666664</ele><time>2026-04-04T08:17:52.999Z</time></trkpt><trkpt lat="43.580587761086306" lon="10.700499269640998"><ele>35.33333333333333</ele><time>2026-04-04T08:17:53.999Z</time></trkpt><trkpt lat="43.58058424605642" lon="10.700737879225592"><ele>35.0</ele><time>2026-04-04T08:17:54.999Z</time></trkpt><trkpt lat="43.58058073185458" lon="10.700976444094865"><ele>35.0</ele><time>2026-04-04T08:17:55.999Z</time></trkpt><trkpt lat="43.58060509555449" lon="10.701456998744312"><ele>35.0</ele><time>2026-04-04T08:17:58Z</time></trkpt><trkpt lat="43.58059799696184" lon="10.70169259157911"><ele>35.33333333333333</ele><time>2026-04-04T08:17:59Z</time></trkpt><trkpt lat="43.5805888621914" lon="10.701930776827203"><ele>35.666666666666664</ele><time>2026-04-04T08:18:00Z</time></trkpt><trkpt lat="43.58058538043171" lon="10.702152765370661"><ele>36.0</ele><time>2026-04-04T08:18:01Z</time></trkpt><trkpt lat="43.580581961028486" lon="10.702363875170255"><ele>36.0</ele><time>2026-04-04T08:18:02Z</time></trkpt><trkpt lat="43.58057853872041" lon="10.702560830993244"><ele>36.0</ele><time>2026-04-04T08:18:03Z</time></trkpt><trkpt lat="43.58057366935305" lon="10.702750565488996"><ele>36.0</ele><time>2026-04-04T08:18:04Z</time></trkpt><trkpt lat="43.58056833371348" lon="10.702942106205112"><ele>36.0</ele><time>2026-04-04T08:18:05Z</time></trkpt><trkpt lat="43.58056502183434" lon="10.703123092526669"><ele>36.0</ele><time>2026-04-04T08:18:06Z</time></trkpt><trkpt lat="43.58055786731042" lon="10.703290258454969"><ele>36.0</ele><time>2026-04-04T08:18:07Z</time></trkpt><trkpt lat="43.58054853169744" lon="10.703445559945857"><ele>36.0</ele><time>2026-04-04T08:18:08Z</time></trkpt><trkpt lat="43.580543995906616" lon="10.703588398395775"><ele>36.0</ele><time>2026-04-04T08:18:09Z</time></trkpt><trkpt lat="43.58054311518091" lon="10.703714023699293"><ele>36.0</ele><time>2026-04-04T08:18:10Z</time></trkpt><trkpt lat="43.58053063550269" lon="10.703827999383964"><ele>36.2</ele><time>2026-04-04T08:18:11Z</time></trkpt><trkpt lat="43.58049593083509" lon="10.703938769902797"><ele>36.400000000000006</ele><time>2026-04-04T08:18:12Z</time></trkpt><trkpt lat="43.58044162085051" lon="10.704038957739533"><ele>36.6</ele><time>2026-04-04T08:18:13Z</time></trkpt><trkpt lat="43.580389326789145" lon="10.704158427128961"><ele>36.800000000000004</ele><time>2026-04-04T08:18:14Z</time></trkpt><trkpt lat="43.58036247301981" lon="10.704308621279242"><ele>37.0</ele><time>2026-04-04T08:18:15Z</time></trkpt><trkpt lat="43.58037253030687" lon="10.704465424940615"><ele>37.0</ele><time>2026-04-04T08:18:16Z</time></trkpt><trkpt lat="43.580422560352496" lon="10.704626373987143"><ele>37.0</ele><time>2026-04-04T08:18:17Z</time></trkpt><trkpt lat="43.580484660671836" lon="10.70478565165715"><ele>37.0</ele><time>2026-04-04T08:18:18Z</time></trkpt><trkpt lat="43.58053265516199" lon="10.704970622861918"><ele>37.0</ele><time>2026-04-04T08:18:19Z</time></trkpt><trkpt lat="43.58055462629876" lon="10.705187722763771"><ele>37.0</ele><time>2026-04-04T08:18:20Z</time></trkpt><trkpt lat="43.58054822790244" lon="10.70542913774253"><ele>37.0</ele><time>2026-04-04T08:18:21Z</time></trkpt><trkpt lat="43.58053626369961" lon="10.705707428967527"><ele>37.0</ele><time>2026-04-04T08:18:22Z</time></trkpt><trkpt lat="43.58052680623907" lon="10.706017007264153"><ele>37.0</ele><time>2026-04-04T08:18:23Z</time></trkpt><trkpt lat="43.58052485059057" lon="10.706297039246811"><ele>37.0</ele><time>2026-04-04T08:18:24Z</time></trkpt><trkpt lat="43.58052187890035" lon="10.706559012952908"><ele>37.0</ele><time>2026-04-04T08:18:25Z</time></trkpt><trkpt lat="43.58051764426239" lon="10.706818119485266"><ele>37.333333333333336</ele><time>2026-04-04T08:18:26Z</time></trkpt><trkpt lat="43.580513356749556" lon="10.707083897044667"><ele>37.666666666666664</ele><time>2026-04-04T08:18:27Z</time></trkpt><trkpt lat="43.58050984511501" lon="10.707353091751427"><ele>38.0</ele><time>2026-04-04T08:18:28Z</time></trkpt><trkpt lat="43.580501656573816" lon="10.707625965270246"><ele>37.33333333333333</ele><time>2026-04-04T08:18:29Z</time></trkpt><trkpt lat="43.580487257517866" lon="10.707907411877155"><ele>36.666666666666664</ele><time>2026-04-04T08:18:30Z</time></trkpt><trkpt lat="43.58047727336402" lon="10.708200146251047"><ele>36.0</ele><time>2026-04-04T08:18:31Z</time></trkpt><trkpt lat="43.58047074008042" lon="10.708506231706272"><ele>35.5</ele><time>2026-04-04T08:18:32Z</time></trkpt><trkpt lat="43.580464947214246" lon="10.708824840381162"><ele>35.0</ele><time>2026-04-04T08:18:33.001Z</time></trkpt><trkpt lat="43.5804582747441" lon="10.709142862571218"><ele>35.0</ele><time>2026-04-04T08:18:34.001Z</time></trkpt><trkpt lat="43.58045853896564" lon="10.709443682590397"><ele>35.0</ele><time>2026-04-04T08:18:35.001Z</time></trkpt><trkpt lat="43.580456057637164" lon="10.70972873750781"><ele>35.0</ele><time>2026-04-04T08:18:36.001Z</time></trkpt><trkpt lat="43.580454765249875" lon="10.710015323357693"><ele>35.666666666666664</ele><time>2026-04-04T08:18:37.001Z</time></trkpt><trkpt lat="43.58045260393946" lon="10.710301844262986"><ele>36.333333333333336</ele><time>2026-04-04T08:18:38.001Z</time></trkpt><trkpt lat="43.58044707920926" lon="10.710583821869958"><ele>37.0</ele><time>2026-04-04T08:18:39.001Z</time></trkpt><trkpt lat="43.58044174982428" lon="10.710864595708825"><ele>36.66666666666667</ele><time>2026-04-04T08:18:40.001Z</time></trkpt><trkpt lat="43.580438399957615" lon="10.711145455867989"><ele>36.333333333333336</ele><time>2026-04-04T08:18:41.001Z</time></trkpt><trkpt lat="43.580438920307614" lon="10.711427934853052"><ele>36.0</ele><time>2026-04-04T08:18:42.001Z</time></trkpt><trkpt lat="43.58044552401057" lon="10.711703397067943"><ele>36.0</ele><time>2026-04-04T08:18:43.001Z</time></trkpt><trkpt lat="43.580455441526446" lon="10.711977596391488"><ele>36.0</ele><time>2026-04-04T08:18:44.001Z</time></trkpt><trkpt lat="43.58046230895107" lon="10.712254465766149"><ele>36.0</ele><time>2026-04-04T08:18:45.001Z</time></trkpt><trkpt lat="43.58047437076578" lon="10.712526657923133"><ele>36.666666666666664</ele><time>2026-04-04T08:18:46.001Z</time></trkpt><trkpt lat="43.58048560230656" lon="10.712802057583598"><ele>37.33333333333333</ele><time>2026-04-04T08:18:47.001Z</time></trkpt><trkpt lat="43.58046490211359" lon="10.713072591933395"><ele>38.0</ele><time>2026-04-04T08:18:48.001Z</time></trkpt><trkpt lat="43.580451231315216" lon="10.71335270760459"><ele>38.33333333333333</ele><time>2026-04-04T08:18:49.001Z</time></trkpt><trkpt lat="43.580443325212066" lon="10.713627850404093"><ele>38.666666666666664</ele><time>2026-04-04T08:18:50.001Z</time></trkpt><trkpt lat="43.58043636954093" lon="10.713900812581661"><ele>39.0</ele><time>2026-04-04T08:18:51.001Z</time></trkpt><trkpt lat="43.58042732031444" lon="10.714172095440864"><ele>39.333333333333336</ele><time>2026-04-04T08:18:52.001Z</time></trkpt><trkpt lat="43.580422357862375" lon="10.714430336969265"><ele>39.66666666666667</ele><time>2026-04-04T08:18:53.001Z</time></trkpt><trkpt lat="43.58041913889611" lon="10.714662005498962"><ele>40.0</ele><time>2026-04-04T08:18:54.001Z</time></trkpt><trkpt lat="43.58041487292866" lon="10.714874473230594"><ele>40.0</ele><time>2026-04-04T08:18:55.001Z</time></trkpt><trkpt lat="43.58040657163486" lon="10.71506715675892"><ele>40.0</ele><time>2026-04-04T08:18:56.001Z</time></trkpt><trkpt lat="43.58038816491068" lon="10.715229806687635"><ele>40.0</ele><time>2026-04-04T08:18:57.001Z</time></trkpt><trkpt lat="43.580372488672985" lon="10.71539450567501"><ele>40.0</ele><time>2026-04-04T08:18:58.001Z</time></trkpt><trkpt lat="43.58037186168488" lon="10.715557284570995"><ele>40.0</ele><time>2026-04-04T08:18:59.001Z</time></trkpt><trkpt lat="43.580362451948865" lon="10.715707584328928"><ele>40.0</ele><time>2026-04-04T08:19:00.001Z</time></trkpt><trkpt lat="43.58034670319272" lon="10.715850401555212"><ele>40.0</ele><time>2026-04-04T08:19:01.001Z</time></trkpt><trkpt lat="43.58031486009562" lon="10.716009452250654"><ele>40.0</ele><time>2026-04-04T08:19:02.001Z</time></trkpt><trkpt lat="43.58033360560147" lon="10.716145044828805"><ele>40.0</ele><time>2026-04-04T08:19:03.001Z</time></trkpt><trkpt lat="43.58033203866679" lon="10.71626795238876"><ele>39.8</ele><time>2026-04-04T08:19:04.001Z</time></trkpt><trkpt lat="43.580330771367834" lon="10.71636612957395"><ele>39.6</ele><time>2026-04-04T08:19:05.001Z</time></trkpt><trkpt lat="43.580328986589485" lon="10.716504394898326"><ele>39.4</ele><time>2026-04-04T08:19:07.001Z</time></trkpt><trkpt lat="43.58019618920358" lon="10.71660377340504"><ele>39.2</ele><time>2026-04-04T08:19:09.001Z</time></trkpt><trkpt lat="43.58007117086513" lon="10.716612706563462"><ele>39.0</ele><time>2026-04-04T08:19:11.001Z</time></trkpt><trkpt lat="43.58000465466132" lon="10.716616197100345"><ele>39.0</ele><time>2026-04-04T08:19:12.001Z</time></trkpt><trkpt lat="43.57992400192062" lon="10.716620226240805"><ele>39.0</ele><time>2026-04-04T08:19:13.001Z</time></trkpt><trkpt lat="43.579853487919806" lon="10.716640869672952"><ele>39.0</ele><time>2026-04-04T08:19:14.002Z</time></trkpt><trkpt lat="43.579753407526994" lon="10.716664709680293"><ele>39.0</ele><time>2026-04-04T08:19:15.002Z</time></trkpt><trkpt lat="43.5796674758462" lon="10.716692773982086"><ele>39.0</ele><time>2026-04-04T08:19:16.002Z</time></trkpt><trkpt lat="43.579560797005044" lon="10.716708897146194"><ele>39.0</ele><time>2026-04-04T08:19:17.002Z</time></trkpt><trkpt lat="43.57944307127223" lon="10.716730848442884"><ele>39.0</ele><time>2026-04-04T08:19:18.002Z</time></trkpt><trkpt lat="43.57932331346019" lon="10.716749041117593"><ele>39.0</ele><time>2026-04-04T08:19:19.002Z</time></trkpt><trkpt lat="43.579204261615935" lon="10.716739383542325"><ele>39.0</ele><time>2026-04-04T08:19:20.002Z</time></trkpt><trkpt lat="43.579081433032" lon="10.716771575875002"><ele>39.0</ele><time>2026-04-04T08:19:21.002Z</time></trkpt><trkpt lat="43.57895580664528" lon="10.716780432406896"><ele>39.0</ele><time>2026-04-04T08:19:22.002Z</time></trkpt><trkpt lat="43.57882514111916" lon="10.716793536522896"><ele>39.0</ele><time>2026-04-04T08:19:23.002Z</time></trkpt><trkpt lat="43.578686615042734" lon="10.716810335387082"><ele>39.0</ele><time>2026-04-04T08:19:24.002Z</time></trkpt><trkpt lat="43.5785388577599" lon="10.716829114167782"><ele>39.0</ele><time>2026-04-04T08:19:25.002Z</time></trkpt><trkpt lat="43.578394314554906" lon="10.716844814794605"><ele>39.0</ele><time>2026-04-04T08:19:26.002Z</time></trkpt><trkpt lat="43.578242183188806" lon="10.716861319215408"><ele>39.0</ele><time>2026-04-04T08:19:27.002Z</time></trkpt><trkpt lat="43.57809392422695" lon="10.716874693878992"><ele>39.0</ele><time>2026-04-04T08:19:28.002Z</time></trkpt><trkpt lat="43.57794351801262" lon="10.71689139009962"><ele>39.333333333333336</ele><time>2026-04-04T08:19:29.002Z</time></trkpt><trkpt lat="43.577785253364894" lon="10.71691478339707"><ele>39.66666666666667</ele><time>2026-04-04T08:19:30.002Z</time></trkpt><trkpt lat="43.57761963757084" lon="10.71691009514195"><ele>40.0</ele><time>2026-04-04T08:19:31.002Z</time></trkpt><trkpt lat="43.57745370147905" lon="10.716927222096649"><ele>40.0</ele><time>2026-04-04T08:19:32.002Z</time></trkpt><trkpt lat="43.5772862013808" lon="10.716944510460658"><ele>40.0</ele><time>2026-04-04T08:19:33.002Z</time></trkpt><trkpt lat="43.577125658488605" lon="10.716961238785473"><ele>40.0</ele><time>2026-04-04T08:19:34.002Z</time></trkpt><trkpt lat="43.576957376974526" lon="10.716979656585986"><ele>40.0</ele><time>2026-04-04T08:19:35.002Z</time></trkpt><trkpt lat="43.57678748174413" lon="10.71699923231165"><ele>40.0</ele><time>2026-04-04T08:19:36.002Z</time></trkpt><trkpt lat="43.57661769490774" lon="10.717020769426712"><ele>40.0</ele><time>2026-04-04T08:19:37.002Z</time></trkpt><trkpt lat="43.57644585906532" lon="10.717044348776595"><ele>40.0</ele><time>2026-04-04T08:19:38.002Z</time></trkpt><trkpt lat="43.57627039193387" lon="10.717073217633956"><ele>40.0</ele><time>2026-04-04T08:19:39.002Z</time></trkpt><trkpt lat="43.57609323198665" lon="10.717111013310236"><ele>40.0</ele><time>2026-04-04T08:19:40.002Z</time></trkpt><trkpt lat="43.57592065809334" lon="10.717156652224062"><ele>40.0</ele><time>2026-04-04T08:19:41.002Z</time></trkpt><trkpt lat="43.575744386242626" lon="10.717208350314024"><ele>40.0</ele><time>2026-04-04T08:19:42.002Z</time></trkpt><trkpt lat="43.57557189572387" lon="10.717258939404205"><ele>40.0</ele><time>2026-04-04T08:19:43.002Z</time></trkpt><trkpt lat="43.575392210219455" lon="10.717313360975394"><ele>40.333333333333336</ele><time>2026-04-04T08:19:44.002Z</time></trkpt><trkpt lat="43.57521716901655" lon="10.717367146208256"><ele>40.666666666666664</ele><time>2026-04-04T08:19:45.002Z</time></trkpt><trkpt lat="43.575036997829386" lon="10.717430648713558"><ele>41.0</ele><time>2026-04-04T08:19:46.002Z</time></trkpt><trkpt lat="43.57486201210625" lon="10.717498128509437"><ele>41.0</ele><time>2026-04-04T08:19:46.999Z</time></trkpt><trkpt lat="43.57468531057748" lon="10.717574990478724"><ele>41.0</ele><time>2026-04-04T08:19:47.999Z</time></trkpt><trkpt lat="43.57451287595457" lon="10.717650199887009"><ele>41.0</ele><time>2026-04-04T08:19:48.999Z</time></trkpt><trkpt lat="43.57434061027716" lon="10.717725335585206"><ele>41.0</ele><time>2026-04-04T08:19:49.999Z</time></trkpt><trkpt lat="43.574163928141914" lon="10.71779707214066"><ele>41.0</ele><time>2026-04-04T08:19:50.999Z</time></trkpt><trkpt lat="43.57398389091345" lon="10.717853125894994"><ele>41.0</ele><time>2026-04-04T08:19:51.999Z</time></trkpt><trkpt lat="43.57380053241738" lon="10.717901648555191"><ele>40.666666666666664</ele><time>2026-04-04T08:19:52.999Z</time></trkpt><trkpt lat="43.57361844135692" lon="10.717943266023404"><ele>40.333333333333336</ele><time>2026-04-04T08:19:53.999Z</time></trkpt><trkpt lat="43.57343482108035" lon="10.717978759989201"><ele>40.0</ele><time>2026-04-04T08:19:55Z</time></trkpt><trkpt lat="43.57325035397281" lon="10.718014417635251"><ele>40.0</ele><time>2026-04-04T08:19:56Z</time></trkpt><trkpt lat="43.57306400381047" lon="10.718052275947056"><ele>40.0</ele><time>2026-04-04T08:19:57Z</time></trkpt><trkpt lat="43.57288165091421" lon="10.718092997941"><ele>40.0</ele><time>2026-04-04T08:19:58Z</time></trkpt><trkpt lat="43.572698453744444" lon="10.71813444227587"><ele>40.333333333333336</ele><time>2026-04-04T08:19:59Z</time></trkpt><trkpt lat="43.57252169832947" lon="10.718174429336987"><ele>40.666666666666664</ele><time>2026-04-04T08:20:00Z</time></trkpt><trkpt lat="43.57235454785461" lon="10.718211497494096"><ele>41.0</ele><time>2026-04-04T08:20:01Z</time></trkpt><trkpt lat="43.57220416473235" lon="10.718243553594332"><ele>41.0</ele><time>2026-04-04T08:20:02Z</time></trkpt><trkpt lat="43.57205607421137" lon="10.718273489316783"><ele>41.0</ele><time>2026-04-04T08:20:03Z</time></trkpt><trkpt lat="43.57191142638059" lon="10.71830272918279"><ele>41.0</ele><time>2026-04-04T08:20:04Z</time></trkpt><trkpt lat="43.57177526544923" lon="10.718330253420762"><ele>41.0</ele><time>2026-04-04T08:20:05Z</time></trkpt><trkpt lat="43.57165060751916" lon="10.718355452445307"><ele>41.0</ele><time>2026-04-04T08:20:06Z</time></trkpt><trkpt lat="43.57154157959517" lon="10.718377491858085"><ele>41.0</ele><time>2026-04-04T08:20:07Z</time></trkpt><trkpt lat="43.57144414584082" lon="10.71839789674813"><ele>41.0</ele><time>2026-04-04T08:20:08Z</time></trkpt><trkpt lat="43.571352401371975" lon="10.718417602975531"><ele>41.0</ele><time>2026-04-04T08:20:09Z</time></trkpt><trkpt lat="43.57128617262418" lon="10.718431828611823"><ele>41.0</ele><time>2026-04-04T08:20:10Z</time></trkpt><trkpt lat="43.57118732424831" lon="10.718456710428645"><ele>41.25</ele><time>2026-04-04T08:20:12Z</time></trkpt><trkpt lat="43.57111843656339" lon="10.718630933677222"><ele>41.5</ele><time>2026-04-04T08:20:14Z</time></trkpt><trkpt lat="43.57110778767223" lon="10.71878369084062"><ele>41.75</ele><time>2026-04-04T08:20:16Z</time></trkpt><trkpt lat="43.57110242782717" lon="10.718924700763882"><ele>42.0</ele><time>2026-04-04T08:20:18Z</time></trkpt><trkpt lat="43.57110631397965" lon="10.719087266681894"><ele>42.0</ele><time>2026-04-04T08:20:20Z</time></trkpt><trkpt lat="43.57112173780031" lon="10.719173702706826"><ele>42.0</ele><time>2026-04-04T08:20:21Z</time></trkpt><trkpt lat="43.57114434051687" lon="10.719311832649398"><ele>42.0</ele><time>2026-04-04T08:20:23Z</time></trkpt><trkpt lat="43.57118171167379" lon="10.719429650996595"><ele>42.0</ele><time>2026-04-04T08:20:25Z</time></trkpt><trkpt lat="43.57120051946954" lon="10.719572487194442"><ele>42.0</ele><time>2026-04-04T08:20:27Z</time></trkpt><trkpt lat="43.571225629523376" lon="10.719720702433209"><ele>42.0</ele><time>2026-04-04T08:20:29Z</time></trkpt><trkpt lat="43.571247049529646" lon="10.719876912655984"><ele>42.0</ele><time>2026-04-04T08:20:31.001Z</time></trkpt><trkpt lat="43.57127574498091" lon="10.720039507897766"><ele>42.0</ele><time>2026-04-04T08:20:33.001Z</time></trkpt><trkpt lat="43.571305752681674" lon="10.720209926713892"><ele>42.0</ele><time>2026-04-04T08:20:35.001Z</time></trkpt><trkpt lat="43.5713258200764" lon="10.720298680697411"><ele>42.0</ele><time>2026-04-04T08:20:36.001Z</time></trkpt><trkpt lat="43.57134411423609" lon="10.720391691677994"><ele>42.0</ele><time>2026-04-04T08:20:37.001Z</time></trkpt><trkpt lat="43.57135934094493" lon="10.720488532263515"><ele>42.0</ele><time>2026-04-04T08:20:38.001Z</time></trkpt><trkpt lat="43.57137811819867" lon="10.72058611370525"><ele>42.0</ele><time>2026-04-04T08:20:39.001Z</time></trkpt><trkpt lat="43.57139554039165" lon="10.720683831709103"><ele>42.0</ele><time>2026-04-04T08:20:40.001Z</time></trkpt><trkpt lat="43.57141136334674" lon="10.720776495566032"><ele>42.0</ele><time>2026-04-04T08:20:41.001Z</time></trkpt><trkpt lat="43.571427061008876" lon="10.720869552283304"><ele>42.0</ele><time>2026-04-04T08:20:42.001Z</time></trkpt><trkpt lat="43.571441474595225" lon="10.720958958209637"><ele>42.0</ele><time>2026-04-04T08:20:43.001Z</time></trkpt><trkpt lat="43.57146070798433" lon="10.721052587011394"><ele>42.142857142857146</ele><time>2026-04-04T08:20:44.001Z</time></trkpt><trkpt lat="43.57147952860246" lon="10.721149508948034"><ele>42.285714285714285</ele><time>2026-04-04T08:20:45.001Z</time></trkpt><trkpt lat="43.57149912835488" lon="10.721242611164257"><ele>42.42857142857143</ele><time>2026-04-04T08:20:46.001Z</time></trkpt><trkpt lat="43.57151709071411" lon="10.72133695298975"><ele>42.57142857142857</ele><time>2026-04-04T08:20:47.001Z</time></trkpt><trkpt lat="43.571535829056145" lon="10.721436360538489"><ele>42.714285714285715</ele><time>2026-04-04T08:20:48.001Z</time></trkpt><trkpt lat="43.57155198514204" lon="10.721532854608885"><ele>42.85714285714286</ele><time>2026-04-04T08:20:49.001Z</time></trkpt><trkpt lat="43.571569836076854" lon="10.721627499408319"><ele>43.0</ele><time>2026-04-04T08:20:50.001Z</time></trkpt><trkpt lat="43.57158850134994" lon="10.721724214824603"><ele>43.0</ele><time>2026-04-04T08:20:51.001Z</time></trkpt><trkpt lat="43.571608435269376" lon="10.721825212961999"><ele>43.0</ele><time>2026-04-04T08:20:52.001Z</time></trkpt><trkpt lat="43.57162017091495" lon="10.721925470426388"><ele>43.0</ele><time>2026-04-04T08:20:53.001Z</time></trkpt><trkpt lat="43.571617963230715" lon="10.722025652907352"><ele>43.0</ele><time>2026-04-04T08:20:54.001Z</time></trkpt><trkpt lat="43.57160356208517" lon="10.722111258336737"><ele>43.0</ele><time>2026-04-04T08:20:55.001Z</time></trkpt><trkpt lat="43.571558263950784" lon="10.722172888213434"><ele>43.0</ele><time>2026-04-04T08:20:56.001Z</time></trkpt><trkpt lat="43.57147375538647" lon="10.72230793077943"><ele>43.16666666666667</ele><time>2026-04-04T08:20:58.001Z</time></trkpt><trkpt lat="43.57142253810896" lon="10.722382069663029"><ele>43.333333333333336</ele><time>2026-04-04T08:20:59.001Z</time></trkpt><trkpt lat="43.57137144113722" lon="10.722455156853714"><ele>43.5</ele><time>2026-04-04T08:21:00.001Z</time></trkpt><trkpt lat="43.571320846864545" lon="10.72252351308422"><ele>43.666666666666664</ele><time>2026-04-04T08:21:01.001Z</time></trkpt><trkpt lat="43.571266848396185" lon="10.722595626120654"><ele>43.83333333333333</ele><time>2026-04-04T08:21:02.001Z</time></trkpt><trkpt lat="43.57120971861819" lon="10.722646385365287"><ele>44.0</ele><time>2026-04-04T08:21:03.001Z</time></trkpt><trkpt lat="43.57110238250109" lon="10.722711276872586"><ele>43.666666666666664</ele><time>2026-04-04T08:21:05.001Z</time></trkpt><trkpt lat="43.570975344120995" lon="10.72274495908402"><ele>43.33333333333333</ele><time>2026-04-04T08:21:07.001Z</time></trkpt><trkpt lat="43.5709003377477" lon="10.722762599385282"><ele>43.0</ele><time>2026-04-04T08:21:08.002Z</time></trkpt><trkpt lat="43.57082084634718" lon="10.722775519216794"><ele>42.666666666666664</ele><time>2026-04-04T08:21:09.002Z</time></trkpt><trkpt lat="43.570730013520986" lon="10.722789561504802"><ele>42.333333333333336</ele><time>2026-04-04T08:21:10.002Z</time></trkpt><trkpt lat="43.57066306194147" lon="10.72282400402792"><ele>42.0</ele><time>2026-04-04T08:21:11.002Z</time></trkpt><trkpt lat="43.57057630094239" lon="10.722843436634408"><ele>42.0</ele><time>2026-04-04T08:21:12.002Z</time></trkpt><trkpt lat="43.570486866075555" lon="10.722848714471438"><ele>42.0</ele><time>2026-04-04T08:21:13.002Z</time></trkpt><trkpt lat="43.57041243957752" lon="10.722884161478342"><ele>42.0</ele><time>2026-04-04T08:21:14.002Z</time></trkpt><trkpt lat="43.57032650152744" lon="10.722913438639047"><ele>42.0</ele><time>2026-04-04T08:21:15.002Z</time></trkpt><trkpt lat="43.57024432592489" lon="10.722936720706606"><ele>42.0</ele><time>2026-04-04T08:21:16.002Z</time></trkpt><trkpt lat="43.57014600671299" lon="10.722950979730095"><ele>42.0</ele><time>2026-04-04T08:21:17.002Z</time></trkpt><trkpt lat="43.570063571018416" lon="10.722991433793394"><ele>41.833333333333336</ele><time>2026-04-04T08:21:18.002Z</time></trkpt><trkpt lat="43.56997530833829" lon="10.7230145583248"><ele>41.666666666666664</ele><time>2026-04-04T08:21:19.002Z</time></trkpt><trkpt lat="43.56990262622184" lon="10.723054039466628"><ele>41.5</ele><time>2026-04-04T08:21:20.002Z</time></trkpt><trkpt lat="43.569801788281474" lon="10.723101684389178"><ele>41.33333333333333</ele><time>2026-04-04T08:21:21.002Z</time></trkpt><trkpt lat="43.56973036891189" lon="10.723128610833776"><ele>41.166666666666664</ele><time>2026-04-04T08:21:22.002Z</time></trkpt><trkpt lat="43.569651359464466" lon="10.72313770433229"><ele>41.0</ele><time>2026-04-04T08:21:23.002Z</time></trkpt><trkpt lat="43.569576696312296" lon="10.723165118005678"><ele>41.199999999999996</ele><time>2026-04-04T08:21:24.002Z</time></trkpt><trkpt lat="43.56950580684308" lon="10.723216429057308"><ele>41.4</ele><time>2026-04-04T08:21:25.002Z</time></trkpt><trkpt lat="43.5694211318166" lon="10.72322637170467"><ele>41.6</ele><time>2026-04-04T08:21:26.002Z</time></trkpt><trkpt lat="43.56933293365573" lon="10.723264644969667"><ele>41.8</ele><time>2026-04-04T08:21:27.002Z</time></trkpt><trkpt lat="43.56924084546069" lon="10.72333243960336"><ele>42.0</ele><time>2026-04-04T08:21:28.002Z</time></trkpt><trkpt lat="43.56914516178524" lon="10.723372815270775"><ele>42.0</ele><time>2026-04-04T08:21:29.002Z</time></trkpt><trkpt lat="43.5690658119277" lon="10.723431719344463"><ele>42.0</ele><time>2026-04-04T08:21:30.002Z</time></trkpt><trkpt lat="43.56898755575362" lon="10.72346747376603"><ele>42.0</ele><time>2026-04-04T08:21:31.002Z</time></trkpt><trkpt lat="43.568912635297536" lon="10.723458703040862"><ele>42.0</ele><time>2026-04-04T08:21:32.002Z</time></trkpt><trkpt lat="43.568828501862725" lon="10.723482245835445"><ele>42.0</ele><time>2026-04-04T08:21:33.002Z</time></trkpt><trkpt lat="43.56874943487001" lon="10.723470018674533"><ele>42.0</ele><time>2026-04-04T08:21:34.002Z</time></trkpt><trkpt lat="43.56865873991444" lon="10.723452864466404"><ele>42.2</ele><time>2026-04-04T08:21:35.002Z</time></trkpt><trkpt lat="43.568569820366626" lon="10.723396414207404"><ele>42.400000000000006</ele><time>2026-04-04T08:21:36.002Z</time></trkpt><trkpt lat="43.5684735500847" lon="10.723358541423822"><ele>42.599999999999994</ele><time>2026-04-04T08:21:37.002Z</time></trkpt><trkpt lat="43.56837754050328" lon="10.723345256552758"><ele>42.8</ele><time>2026-04-04T08:21:38.002Z</time></trkpt><trkpt lat="43.56828637129822" lon="10.723301533881198"><ele>43.0</ele><time>2026-04-04T08:21:39.002Z</time></trkpt><trkpt lat="43.56819251376953" lon="10.723255097478193"><ele>43.0</ele><time>2026-04-04T08:21:40.002Z</time></trkpt><trkpt lat="43.568091432650476" lon="10.723231546421664"><ele>43.0</ele><time>2026-04-04T08:21:41.002Z</time></trkpt><trkpt lat="43.56799093741006" lon="10.723201620008984"><ele>43.0</ele><time>2026-04-04T08:21:42.002Z</time></trkpt><trkpt lat="43.56788913147233" lon="10.723159177062456"><ele>43.0</ele><time>2026-04-04T08:21:43.002Z</time></trkpt><trkpt lat="43.56779268087557" lon="10.723118210152393"><ele>43.0</ele><time>2026-04-04T08:21:44.002Z</time></trkpt><trkpt lat="43.56769615911355" lon="10.723080618245188"><ele>43.4</ele><time>2026-04-04T08:21:45.002Z</time></trkpt><trkpt lat="43.56760285488232" lon="10.723045455706698"><ele>43.8</ele><time>2026-04-04T08:21:46.002Z</time></trkpt><trkpt lat="43.56750771308773" lon="10.723016380266218"><ele>44.2</ele><time>2026-04-04T08:21:47.002Z</time></trkpt><trkpt lat="43.567410228804526" lon="10.722984446123489"><ele>44.6</ele><time>2026-04-04T08:21:48.003Z</time></trkpt><trkpt lat="43.56731331952597" lon="10.722953439273303"><ele>45.0</ele><time>2026-04-04T08:21:49.003Z</time></trkpt><trkpt lat="43.56722004828141" lon="10.722897785187302"><ele>45.0</ele><time>2026-04-04T08:21:50.003Z</time></trkpt><trkpt lat="43.567117863212005" lon="10.722863119126433"><ele>45.0</ele><time>2026-04-04T08:21:51.003Z</time></trkpt><trkpt lat="43.5670121195051" lon="10.722827059347976"><ele>45.0</ele><time>2026-04-04T08:21:52.003Z</time></trkpt><trkpt lat="43.56689458169569" lon="10.722786797429622"><ele>45.0</ele><time>2026-04-04T08:21:53Z</time></trkpt><trkpt lat="43.566784603131225" lon="10.722745767228643"><ele>45.0</ele><time>2026-04-04T08:21:54Z</time></trkpt><trkpt lat="43.56667117415161" lon="10.722700240804858"><ele>44.8</ele><time>2026-04-04T08:21:55Z</time></trkpt><trkpt lat="43.56656348713675" lon="10.722655296046531"><ele>44.6</ele><time>2026-04-04T08:21:56Z</time></trkpt><trkpt lat="43.56645615939741" lon="10.722608642924094"><ele>44.400000000000006</ele><time>2026-04-04T08:21:57Z</time></trkpt><trkpt lat="43.56635187528323" lon="10.722560172698984"><ele>44.2</ele><time>2026-04-04T08:21:58Z</time></trkpt><trkpt lat="43.56624779761202" lon="10.722507905043473"><ele>44.0</ele><time>2026-04-04T08:21:59Z</time></trkpt><trkpt lat="43.56614263561999" lon="10.722451937611615"><ele>44.0</ele><time>2026-04-04T08:22:00Z</time></trkpt><trkpt lat="43.566036455509746" lon="10.722394192424865"><ele>44.0</ele><time>2026-04-04T08:22:01Z</time></trkpt><trkpt lat="43.56593238396222" lon="10.7223369664038"><ele>44.0</ele><time>2026-04-04T08:22:02Z</time></trkpt><trkpt lat="43.565822902980145" lon="10.722276419892493"><ele>44.0</ele><time>2026-04-04T08:22:03Z</time></trkpt><trkpt lat="43.56571007116907" lon="10.72223830434813"><ele>44.0</ele><time>2026-04-04T08:22:04Z</time></trkpt><trkpt lat="43.565607140484694" lon="10.722156682217317"><ele>44.0</ele><time>2026-04-04T08:22:05Z</time></trkpt><trkpt lat="43.565489389968135" lon="10.722107897510933"><ele>44.0</ele><time>2026-04-04T08:22:06Z</time></trkpt><trkpt lat="43.565379452755636" lon="10.722053168031465"><ele>44.0</ele><time>2026-04-04T08:22:07Z</time></trkpt><trkpt lat="43.56527101270843" lon="10.721981467137223"><ele>43.75</ele><time>2026-04-04T08:22:08Z</time></trkpt><trkpt lat="43.565161858518884" lon="10.721925293759632"><ele>43.5</ele><time>2026-04-04T08:22:09Z</time></trkpt><trkpt lat="43.565051209549374" lon="10.721871024213534"><ele>43.25</ele><time>2026-04-04T08:22:10Z</time></trkpt><trkpt lat="43.564948883492185" lon="10.721806952050272"><ele>43.0</ele><time>2026-04-04T08:22:11Z</time></trkpt><trkpt lat="43.56484902298595" lon="10.721733138312672"><ele>43.0</ele><time>2026-04-04T08:22:12Z</time></trkpt><trkpt lat="43.56474242866906" lon="10.721682828727985"><ele>43.0</ele><time>2026-04-04T08:22:13Z</time></trkpt><trkpt lat="43.56463732891067" lon="10.721621895788477"><ele>43.0</ele><time>2026-04-04T08:22:14Z</time></trkpt><trkpt lat="43.56453109693882" lon="10.721565702115871"><ele>43.0</ele><time>2026-04-04T08:22:15Z</time></trkpt><trkpt lat="43.564424871321386" lon="10.721508326625395"><ele>42.8</ele><time>2026-04-04T08:22:16Z</time></trkpt><trkpt lat="43.56431944258342" lon="10.721450641664727"><ele>42.599999999999994</ele><time>2026-04-04T08:22:17Z</time></trkpt><trkpt lat="43.564221371435536" lon="10.721383329324158"><ele>42.400000000000006</ele><time>2026-04-04T08:22:18Z</time></trkpt><trkpt lat="43.564115490108236" lon="10.721331089036424"><ele>42.2</ele><time>2026-04-04T08:22:19Z</time></trkpt><trkpt lat="43.564009509021304" lon="10.721276159067964"><ele>42.0</ele><time>2026-04-04T08:22:20Z</time></trkpt><trkpt lat="43.56390182557258" lon="10.721219281362387"><ele>42.0</ele><time>2026-04-04T08:22:21.001Z</time></trkpt><trkpt lat="43.56379836500686" lon="10.72114181737175"><ele>42.0</ele><time>2026-04-04T08:22:22.001Z</time></trkpt><trkpt lat="43.5636895051897" lon="10.721080736349458"><ele>42.0</ele><time>2026-04-04T08:22:23.001Z</time></trkpt><trkpt lat="43.563580603203874" lon="10.721019631661479"><ele>42.0</ele><time>2026-04-04T08:22:24.001Z</time></trkpt><trkpt lat="43.56347179734076" lon="10.7209585809154"><ele>42.2</ele><time>2026-04-04T08:22:25.001Z</time></trkpt><trkpt lat="43.56336558729236" lon="10.720912883578013"><ele>42.400000000000006</ele><time>2026-04-04T08:22:26.001Z</time></trkpt><trkpt lat="43.5632668729888" lon="10.720862165730853"><ele>42.599999999999994</ele><time>2026-04-04T08:22:27.001Z</time></trkpt><trkpt lat="43.56316975234676" lon="10.720802769851696"><ele>42.8</ele><time>2026-04-04T08:22:28.001Z</time></trkpt><trkpt lat="43.56306692180105" lon="10.720738950667734"><ele>43.0</ele><time>2026-04-04T08:22:29.001Z</time></trkpt><trkpt lat="43.56296426121205" lon="10.720675200828518"><ele>43.2</ele><time>2026-04-04T08:22:30.001Z</time></trkpt><trkpt lat="43.56286235682295" lon="10.720613946707038"><ele>43.4</ele><time>2026-04-04T08:22:31.001Z</time></trkpt><trkpt lat="43.56276235204528" lon="10.720558335577689"><ele>43.6</ele><time>2026-04-04T08:22:32.001Z</time></trkpt><trkpt lat="43.5626607082942" lon="10.720506105665821"><ele>43.800000000000004</ele><time>2026-04-04T08:22:33.001Z</time></trkpt><trkpt lat="43.56257019122087" lon="10.720442144625197"><ele>44.0</ele><time>2026-04-04T08:22:34.001Z</time></trkpt><trkpt lat="43.562484388764965" lon="10.720402790780424"><ele>44.0</ele><time>2026-04-04T08:22:35.001Z</time></trkpt><trkpt lat="43.562411396703375" lon="10.72036548817334"><ele>44.0</ele><time>2026-04-04T08:22:36.001Z</time></trkpt><trkpt lat="43.562348065258064" lon="10.72033154871536"><ele>44.0</ele><time>2026-04-04T08:22:37.001Z</time></trkpt><trkpt lat="43.56224759513897" lon="10.720273709600402"><ele>44.0</ele><time>2026-04-04T08:22:39.001Z</time></trkpt><trkpt lat="43.562170333056635" lon="10.720231866892822"><ele>44.0</ele><time>2026-04-04T08:22:41.001Z</time></trkpt><trkpt lat="43.56207556379823" lon="10.720381531671276"><ele>45.0</ele><time>2026-04-04T08:22:42.001Z</time></trkpt><trkpt lat="43.56202772387098" lon="10.720460699816053"><ele>46.0</ele><time>2026-04-04T08:22:43.001Z</time></trkpt><trkpt lat="43.56195555254139" lon="10.720532467321137"><ele>47.0</ele><time>2026-04-04T08:22:44.001Z</time></trkpt><trkpt lat="43.56185928094223" lon="10.720603395032159"><ele>48.0</ele><time>2026-04-04T08:22:45.001Z</time></trkpt><trkpt lat="43.561752092782655" lon="10.720695326260774"><ele>49.0</ele><time>2026-04-04T08:22:46.001Z</time></trkpt><trkpt lat="43.56164291625803" lon="10.720779416446787"><ele>49.0</ele><time>2026-04-04T08:22:47.001Z</time></trkpt><trkpt lat="43.56152966916727" lon="10.720858862272378"><ele>49.0</ele><time>2026-04-04T08:22:48.001Z</time></trkpt><trkpt lat="43.56141074927233" lon="10.720932914440398"><ele>49.0</ele><time>2026-04-04T08:22:49.001Z</time></trkpt><trkpt lat="43.56128444136712" lon="10.720999966119022"><ele>49.0</ele><time>2026-04-04T08:22:50.001Z</time></trkpt><trkpt lat="43.56115345346021" lon="10.721071112897251"><ele>48.75</ele><time>2026-04-04T08:22:51.001Z</time></trkpt><trkpt lat="43.56101757612334" lon="10.721145969227202"><ele>48.5</ele><time>2026-04-04T08:22:52.001Z</time></trkpt><trkpt lat="43.56087597039979" lon="10.72122392056752"><ele>48.25</ele><time>2026-04-04T08:22:53.001Z</time></trkpt><trkpt lat="43.56074338558934" lon="10.721300040545303"><ele>48.0</ele><time>2026-04-04T08:22:54.001Z</time></trkpt><trkpt lat="43.56061042497662" lon="10.721376626658781"><ele>48.0</ele><time>2026-04-04T08:22:55.001Z</time></trkpt><trkpt lat="43.56047494432628" lon="10.721453092080782"><ele>48.0</ele><time>2026-04-04T08:22:56.001Z</time></trkpt><trkpt lat="43.560345838940385" lon="10.721545684194199"><ele>48.0</ele><time>2026-04-04T08:22:57.001Z</time></trkpt><trkpt lat="43.56022221203186" lon="10.721589486311936"><ele>48.0</ele><time>2026-04-04T08:22:58.001Z</time></trkpt><trkpt lat="43.56011217224113" lon="10.721643088276828"><ele>48.4</ele><time>2026-04-04T08:22:59.001Z</time></trkpt><trkpt lat="43.56000817404763" lon="10.72168739531419"><ele>48.8</ele><time>2026-04-04T08:23:00.001Z</time></trkpt><trkpt lat="43.559908429191864" lon="10.721707577255696"><ele>49.2</ele><time>2026-04-04T08:23:01.001Z</time></trkpt><trkpt lat="43.55980594278077" lon="10.721694037323513"><ele>49.6</ele><time>2026-04-04T08:23:02.001Z</time></trkpt><trkpt lat="43.55970570302607" lon="10.721660244465506"><ele>50.0</ele><time>2026-04-04T08:23:03.002Z</time></trkpt><trkpt lat="43.559597183477806" lon="10.721615890773247"><ele>50.25</ele><time>2026-04-04T08:23:04.002Z</time></trkpt><trkpt lat="43.55947040492481" lon="10.721567691309346"><ele>50.5</ele><time>2026-04-04T08:23:05.002Z</time></trkpt><trkpt lat="43.55934306211494" lon="10.721520423158454"><ele>50.75</ele><time>2026-04-04T08:23:06.002Z</time></trkpt><trkpt lat="43.5592075275617" lon="10.72149491295539"><ele>51.0</ele><time>2026-04-04T08:23:07.002Z</time></trkpt><trkpt lat="43.55908414481216" lon="10.721438153985655"><ele>51.0</ele><time>2026-04-04T08:23:08.002Z</time></trkpt><trkpt lat="43.558962830673075" lon="10.721402208249051"><ele>51.0</ele><time>2026-04-04T08:23:09.002Z</time></trkpt><trkpt lat="43.558850841783894" lon="10.721360282251776"><ele>51.0</ele><time>2026-04-04T08:23:10.002Z</time></trkpt><trkpt lat="43.558748189533276" lon="10.721318156295512"><ele>51.0</ele><time>2026-04-04T08:23:11.002Z</time></trkpt><trkpt lat="43.558575037628714" lon="10.721230084045828"><ele>51.0</ele><time>2026-04-04T08:23:13.002Z</time></trkpt><trkpt lat="43.55849781385035" lon="10.721217569581352"><ele>51.0</ele><time>2026-04-04T08:23:14.002Z</time></trkpt><trkpt lat="43.55842626521955" lon="10.721220112476093"><ele>51.0</ele><time>2026-04-04T08:23:15.002Z</time></trkpt><trkpt lat="43.55836190222303" lon="10.721221733585589"><ele>51.0</ele><time>2026-04-04T08:23:16.002Z</time></trkpt><trkpt lat="43.55829476210877" lon="10.721256642467928"><ele>51.0</ele><time>2026-04-04T08:23:17.002Z</time></trkpt><trkpt lat="43.55823851069521" lon="10.721366921676756"><ele>51.0</ele><time>2026-04-04T08:23:18.002Z</time></trkpt><trkpt lat="43.55820023354694" lon="10.721462635949386"><ele>51.0</ele><time>2026-04-04T08:23:19.002Z</time></trkpt><trkpt lat="43.55820929395538" lon="10.721593140083721"><ele>51.0</ele><time>2026-04-04T08:23:20.002Z</time></trkpt><trkpt lat="43.55820611782523" lon="10.721725859789071"><ele>51.0</ele><time>2026-04-04T08:23:21.002Z</time></trkpt><trkpt lat="43.558218652632235" lon="10.721887264135987"><ele>51.0</ele><time>2026-04-04T08:23:22.002Z</time></trkpt><trkpt lat="43.55823412551473" lon="10.722069230765985"><ele>51.0</ele><time>2026-04-04T08:23:23.002Z</time></trkpt><trkpt lat="43.558261187512834" lon="10.722270068956332"><ele>51.33333333333333</ele><time>2026-04-04T08:23:24.002Z</time></trkpt><trkpt lat="43.5582749582022" lon="10.722480916593124"><ele>51.666666666666664</ele><time>2026-04-04T08:23:25.002Z</time></trkpt><trkpt lat="43.55830786661339" lon="10.722688073566372"><ele>52.0</ele><time>2026-04-04T08:23:26.002Z</time></trkpt><trkpt lat="43.55834010932205" lon="10.7228860793022"><ele>52.0</ele><time>2026-04-04T08:23:27.002Z</time></trkpt><trkpt lat="43.55836451700351" lon="10.723074009161316"><ele>52.0</ele><time>2026-04-04T08:23:28.002Z</time></trkpt><trkpt lat="43.55839151761196" lon="10.723264238479674"><ele>52.0</ele><time>2026-04-04T08:23:29.002Z</time></trkpt><trkpt lat="43.55842166729289" lon="10.723453971534546"><ele>52.0</ele><time>2026-04-04T08:23:30.002Z</time></trkpt><trkpt lat="43.558442080536196" lon="10.72362205120216"><ele>51.400000000000006</ele><time>2026-04-04T08:23:31.002Z</time></trkpt><trkpt lat="43.55845732880637" lon="10.723778651587002"><ele>50.800000000000004</ele><time>2026-04-04T08:23:32.002Z</time></trkpt><trkpt lat="43.55846401762347" lon="10.723917108444924"><ele>50.2</ele><time>2026-04-04T08:23:33.002Z</time></trkpt><trkpt lat="43.558437376538514" lon="10.724031931157594"><ele>49.6</ele><time>2026-04-04T08:23:34.002Z</time></trkpt><trkpt lat="43.55840804919805" lon="10.724139129985634"><ele>49.0</ele><time>2026-04-04T08:23:35.002Z</time></trkpt><trkpt lat="43.55835125751518" lon="10.724245228916777"><ele>49.0</ele><time>2026-04-04T08:23:36.002Z</time></trkpt><trkpt lat="43.558286496243056" lon="10.72437214382955"><ele>49.0</ele><time>2026-04-04T08:23:37.002Z</time></trkpt><trkpt lat="43.55821183641" lon="10.72450777400859"><ele>49.0</ele><time>2026-04-04T08:23:38.002Z</time></trkpt><trkpt lat="43.5581348654115" lon="10.724648946934614"><ele>49.0</ele><time>2026-04-04T08:23:39.002Z</time></trkpt><trkpt lat="43.55806537127017" lon="10.724783613087657"><ele>49.2</ele><time>2026-04-04T08:23:40.002Z</time></trkpt><trkpt lat="43.55800111269223" lon="10.724908133763991"><ele>49.400000000000006</ele><time>2026-04-04T08:23:41.002Z</time></trkpt><trkpt lat="43.55794334504863" lon="10.725020076246393"><ele>49.6</ele><time>2026-04-04T08:23:42.002Z</time></trkpt><trkpt lat="43.557891129985876" lon="10.725110662131007"><ele>49.8</ele><time>2026-04-04T08:23:43.003Z</time></trkpt><trkpt lat="43.55784358514443" lon="10.725192964493534"><ele>50.0</ele><time>2026-04-04T08:23:44.003Z</time></trkpt><trkpt lat="43.557790397447526" lon="10.72531548889256"><ele>50.00000000000001</ele><time>2026-04-04T08:23:46.003Z</time></trkpt><trkpt lat="43.55773027907982" lon="10.725352106738177"><ele>50.0</ele><time>2026-04-04T08:23:48.003Z</time></trkpt><trkpt lat="43.55764041733422" lon="10.72531446557532"><ele>50.0</ele><time>2026-04-04T08:23:50.003Z</time></trkpt><trkpt lat="43.55754720729971" lon="10.725299793724336"><ele>50.0</ele><time>2026-04-04T08:23:51.003Z</time></trkpt><trkpt lat="43.557439564196464" lon="10.725295247869077"><ele>50.00000000000001</ele><time>2026-04-04T08:23:52.003Z</time></trkpt><trkpt lat="43.55735550564346" lon="10.725297644504545"><ele>50.0</ele><time>2026-04-04T08:23:53.003Z</time></trkpt><trkpt lat="43.55728518363744" lon="10.725301522330042"><ele>50.0</ele><time>2026-04-04T08:23:54.003Z</time></trkpt><trkpt lat="43.55716948185178" lon="10.725319236887392"><ele>50.0</ele><time>2026-04-04T08:23:56.003Z</time></trkpt><trkpt lat="43.557107647338874" lon="10.725353838121574"><ele>50.0</ele><time>2026-04-04T08:23:57.003Z</time></trkpt><trkpt lat="43.55702452570812" lon="10.725351090605196"><ele>50.0</ele><time>2026-04-04T08:23:58.003Z</time></trkpt><trkpt lat="43.556924986359014" lon="10.725245712109514"><ele>50.0</ele><time>2026-04-04T08:23:59Z</time></trkpt><trkpt lat="43.55677924915628" lon="10.725189932889052"><ele>55.0</ele><time>2026-04-04T08:24:00Z</time></trkpt><trkpt lat="43.556597892220445" lon="10.725120520566701"><ele>60.0</ele><time>2026-04-04T08:24:01Z</time></trkpt><trkpt lat="43.55641941579667" lon="10.725052765905291"><ele>65.0</ele><time>2026-04-04T08:24:02Z</time></trkpt><trkpt lat="43.556219930150846" lon="10.724980407208575"><ele>66.0</ele><time>2026-04-04T08:24:03Z</time></trkpt><trkpt lat="43.55599728575828" lon="10.724902473026805"><ele>67.0</ele><time>2026-04-04T08:24:04Z</time></trkpt><trkpt lat="43.555748572901" lon="10.72485297563106"><ele>67.0</ele><time>2026-04-04T08:24:05Z</time></trkpt><trkpt lat="43.55549272614191" lon="10.724923496243719"><ele>67.0</ele><time>2026-04-04T08:24:06Z</time></trkpt><trkpt lat="43.555231948685766" lon="10.724917557932091"><ele>69.5</ele><time>2026-04-04T08:24:07Z</time></trkpt><trkpt lat="43.55495868483151" lon="10.724923208340748"><ele>72.0</ele><time>2026-04-04T08:24:08Z</time></trkpt><trkpt lat="43.554687267536956" lon="10.724929399482216"><ele>76.5</ele><time>2026-04-04T08:24:09Z</time></trkpt><trkpt lat="43.55442474095084" lon="10.7248685135736"><ele>81.0</ele><time>2026-04-04T08:24:10Z</time></trkpt><trkpt lat="43.554187081881786" lon="10.724866753883264"><ele>81.0</ele><time>2026-04-04T08:24:11Z</time></trkpt><trkpt lat="43.55397987521752" lon="10.724831471972275"><ele>81.0</ele><time>2026-04-04T08:24:12Z</time></trkpt><trkpt lat="43.55379002747013" lon="10.72479006935401"><ele>81.0</ele><time>2026-04-04T08:24:13Z</time></trkpt><trkpt lat="43.553637716830835" lon="10.72475673261318"><ele>82.0</ele><time>2026-04-04T08:24:14Z</time></trkpt><trkpt lat="43.553513387478425" lon="10.724729177931431"><ele>83.0</ele><time>2026-04-04T08:24:15Z</time></trkpt><trkpt lat="43.553410727775145" lon="10.724706506304027"><ele>84.0</ele><time>2026-04-04T08:24:16Z</time></trkpt><trkpt lat="43.55332670891698" lon="10.724687951390653"><ele>85.0</ele><time>2026-04-04T08:24:17Z</time></trkpt><trkpt lat="43.553253605989674" lon="10.724672127558259"><ele>86.0</ele><time>2026-04-04T08:24:18Z</time></trkpt><trkpt lat="43.55312805130235" lon="10.724636146941837"><ele>86.0</ele><time>2026-04-04T08:24:20Z</time></trkpt><trkpt lat="43.5530620970573" lon="10.724609377491799"><ele>86.0</ele><time>2026-04-04T08:24:21Z</time></trkpt><trkpt lat="43.552989779906014" lon="10.724613302311965"><ele>86.0</ele><time>2026-04-04T08:24:22Z</time></trkpt><trkpt lat="43.55291647252656" lon="10.724607742925125"><ele>86.0</ele><time>2026-04-04T08:24:23Z</time></trkpt><trkpt lat="43.552835956104474" lon="10.724597177221845"><ele>86.0</ele><time>2026-04-04T08:24:24Z</time></trkpt><trkpt lat="43.55274879908781" lon="10.724563201313256"><ele>86.0</ele><time>2026-04-04T08:24:25.001Z</time></trkpt><trkpt lat="43.55265194168866" lon="10.724556224164363"><ele>88.25</ele><time>2026-04-04T08:24:26.001Z</time></trkpt><trkpt lat="43.5525511516981" lon="10.72454433161732"><ele>90.5</ele><time>2026-04-04T08:24:27.001Z</time></trkpt><trkpt lat="43.55243910377996" lon="10.724531870609251"><ele>92.75</ele><time>2026-04-04T08:24:28.001Z</time></trkpt><trkpt lat="43.55230108047884" lon="10.724527238381379"><ele>95.0</ele><time>2026-04-04T08:24:29.001Z</time></trkpt><trkpt lat="43.552166481104585" lon="10.724552610829955"><ele>95.0</ele><time>2026-04-04T08:24:30.001Z</time></trkpt><trkpt lat="43.552050715119115" lon="10.724575252103481"><ele>95.0</ele><time>2026-04-04T08:24:31.001Z</time></trkpt><trkpt lat="43.55193298796755" lon="10.72458046944987"><ele>95.0</ele><time>2026-04-04T08:24:32.001Z</time></trkpt><trkpt lat="43.55182214078751" lon="10.724574156605781"><ele>95.0</ele><time>2026-04-04T08:24:33.001Z</time></trkpt><trkpt lat="43.55170547498191" lon="10.724561846066107"><ele>96.5</ele><time>2026-04-04T08:24:34.001Z</time></trkpt><trkpt lat="43.55159091227487" lon="10.724524879282566"><ele>98.0</ele><time>2026-04-04T08:24:35.001Z</time></trkpt><trkpt lat="43.551471046896275" lon="10.724473005778306"><ele>99.5</ele><time>2026-04-04T08:24:36.001Z</time></trkpt><trkpt lat="43.551336479719495" lon="10.7244249962566"><ele>101.0</ele><time>2026-04-04T08:24:37.001Z</time></trkpt><trkpt lat="43.551188175864255" lon="10.724372435257445"><ele>107.25</ele><time>2026-04-04T08:24:38.001Z</time></trkpt><trkpt lat="43.551038221720745" lon="10.724323292838545"><ele>113.5</ele><time>2026-04-04T08:24:39.001Z</time></trkpt><trkpt lat="43.550890796430416" lon="10.724282848610434"><ele>119.75</ele><time>2026-04-04T08:24:40.001Z</time></trkpt><trkpt lat="43.55077179112202" lon="10.724272589054463"><ele>126.0</ele><time>2026-04-04T08:24:41.001Z</time></trkpt><trkpt lat="43.550670112344676" lon="10.724242941553499"><ele>126.0</ele><time>2026-04-04T08:24:42.001Z</time></trkpt><trkpt lat="43.550577817927405" lon="10.724229384864287"><ele>126.0</ele><time>2026-04-04T08:24:43.001Z</time></trkpt><trkpt lat="43.55049163524281" lon="10.72421928454999"><ele>126.0</ele><time>2026-04-04T08:24:44.001Z</time></trkpt><trkpt lat="43.55040794674752" lon="10.7241985143585"><ele>126.0</ele><time>2026-04-04T08:24:45.001Z</time></trkpt><trkpt lat="43.55032837637443" lon="10.72418415106953"><ele>126.0</ele><time>2026-04-04T08:24:46.001Z</time></trkpt><trkpt lat="43.550257135158915" lon="10.7240997339301"><ele>126.0</ele><time>2026-04-04T08:24:47.001Z</time></trkpt><trkpt lat="43.550189742356935" lon="10.724000011852267"><ele>125.0</ele><time>2026-04-04T08:24:48.001Z</time></trkpt><trkpt lat="43.55011769012454" lon="10.723894562646056"><ele>124.0</ele><time>2026-04-04T08:24:49.001Z</time></trkpt><trkpt lat="43.55007246160402" lon="10.723716085540831"><ele>123.0</ele><time>2026-04-04T08:24:50.001Z</time></trkpt><trkpt lat="43.55005745473921" lon="10.723547713690673"><ele>122.0</ele><time>2026-04-04T08:24:51.001Z</time></trkpt><trkpt lat="43.55002141274073" lon="10.72335076001"><ele>124.75</ele><time>2026-04-04T08:24:52.001Z</time></trkpt><trkpt lat="43.549967981513845" lon="10.723183212182802"><ele>127.5</ele><time>2026-04-04T08:24:53.001Z</time></trkpt><trkpt lat="43.54988954686081" lon="10.723033299029405"><ele>130.25</ele><time>2026-04-04T08:24:54.001Z</time></trkpt><trkpt lat="43.54985762009251" lon="10.722887873835312"><ele>133.0</ele><time>2026-04-04T08:24:55.001Z</time></trkpt><trkpt lat="43.54986707255882" lon="10.722730691644529"><ele>133.6</ele><time>2026-04-04T08:24:56.001Z</time></trkpt><trkpt lat="43.54988339362943" lon="10.722584128977006"><ele>134.20000000000002</ele><time>2026-04-04T08:24:57.001Z</time></trkpt><trkpt lat="43.549871847028655" lon="10.72245200233469"><ele>134.8</ele><time>2026-04-04T08:24:58.001Z</time></trkpt><trkpt lat="43.549842280863146" lon="10.722334859235183"><ele>135.4</ele><time>2026-04-04T08:24:59.001Z</time></trkpt><trkpt lat="43.5498226162791" lon="10.722241935662275"><ele>136.0</ele><time>2026-04-04T08:25:00.001Z</time></trkpt><trkpt lat="43.54977928160886" lon="10.722096452598755"><ele>136.0</ele><time>2026-04-04T08:25:02.001Z</time></trkpt><trkpt lat="43.54973518246382" lon="10.72196751448555"><ele>136.0</ele><time>2026-04-04T08:25:04.001Z</time></trkpt><trkpt lat="43.549690914236294" lon="10.721831392524523"><ele>136.0</ele><time>2026-04-04T08:25:06.001Z</time></trkpt><trkpt lat="43.54964954964969" lon="10.72171698545513"><ele>136.0</ele><time>2026-04-04T08:25:08.001Z</time></trkpt><trkpt lat="43.5496121754526" lon="10.721591065586267"><ele>136.0</ele><time>2026-04-04T08:25:11.002Z</time></trkpt><trkpt lat="43.54958834821722" lon="10.721499693790982"><ele>135.66666666666669</ele><time>2026-04-04T08:25:13.002Z</time></trkpt><trkpt lat="43.54960126813526" lon="10.721397119117118"><ele>135.33333333333334</ele><time>2026-04-04T08:25:15.002Z</time></trkpt><trkpt lat="43.54960681413194" lon="10.721266585463178"><ele>135.0</ele><time>2026-04-04T08:25:17.002Z</time></trkpt><trkpt lat="43.54966716201137" lon="10.721184502032031"><ele>134.66666666666666</ele><time>2026-04-04T08:25:18.002Z</time></trkpt><trkpt lat="43.54967021953762" lon="10.72108865079524"><ele>134.33333333333331</ele><time>2026-04-04T08:25:19.002Z</time></trkpt><trkpt lat="43.549680800205486" lon="10.720981373661948"><ele>134.0</ele><time>2026-04-04T08:25:20.002Z</time></trkpt><trkpt lat="43.549691455194356" lon="10.7208697659136"><ele>133.0</ele><time>2026-04-04T08:25:21.002Z</time></trkpt><trkpt lat="43.549701618073726" lon="10.720756096981575"><ele>132.0</ele><time>2026-04-04T08:25:22.002Z</time></trkpt><trkpt lat="43.549711650620594" lon="10.72064619821076"><ele>131.0</ele><time>2026-04-04T08:25:23.002Z</time></trkpt><trkpt lat="43.54971649405879" lon="10.720529828653762"><ele>130.0</ele><time>2026-04-04T08:25:24.002Z</time></trkpt><trkpt lat="43.54972182241534" lon="10.720422201438996"><ele>129.0</ele><time>2026-04-04T08:25:25.002Z</time></trkpt><trkpt lat="43.54972131439221" lon="10.72031504548885"><ele>128.0</ele><time>2026-04-04T08:25:26.002Z</time></trkpt><trkpt lat="43.54969300060524" lon="10.720209354780712"><ele>127.16666666666666</ele><time>2026-04-04T08:25:27.002Z</time></trkpt><trkpt lat="43.54965548660018" lon="10.720116385953986"><ele>126.33333333333333</ele><time>2026-04-04T08:25:28.002Z</time></trkpt><trkpt lat="43.549605430322224" lon="10.720021290808383"><ele>125.5</ele><time>2026-04-04T08:25:29.002Z</time></trkpt><trkpt lat="43.549564197261965" lon="10.71994038666519"><ele>124.66666666666666</ele><time>2026-04-04T08:25:30.002Z</time></trkpt><trkpt lat="43.54951394023231" lon="10.71985866096912"><ele>123.83333333333333</ele><time>2026-04-04T08:25:31.002Z</time></trkpt><trkpt lat="43.54945667052156" lon="10.719794025863822"><ele>123.0</ele><time>2026-04-04T08:25:32.002Z</time></trkpt><trkpt lat="43.549406545850836" lon="10.71970616112399"><ele>121.83333333333333</ele><time>2026-04-04T08:25:33.002Z</time></trkpt><trkpt lat="43.54935822338136" lon="10.719602029667152"><ele>120.66666666666666</ele><time>2026-04-04T08:25:34.002Z</time></trkpt><trkpt lat="43.54929835841067" lon="10.719520532613505"><ele>119.5</ele><time>2026-04-04T08:25:35.002Z</time></trkpt><trkpt lat="43.54922847695241" lon="10.719454096816385"><ele>118.33333333333333</ele><time>2026-04-04T08:25:36.002Z</time></trkpt><trkpt lat="43.54915509266659" lon="10.71940465755603"><ele>117.16666666666666</ele><time>2026-04-04T08:25:37.002Z</time></trkpt><trkpt lat="43.549073136436675" lon="10.719370041603206"><ele>116.0</ele><time>2026-04-04T08:25:38.002Z</time></trkpt><trkpt lat="43.548985567909604" lon="10.719336317135454"><ele>116.0</ele><time>2026-04-04T08:25:39.002Z</time></trkpt><trkpt lat="43.54889721863703" lon="10.719305313647443"><ele>116.0</ele><time>2026-04-04T08:25:40.002Z</time></trkpt><trkpt lat="43.548798059140054" lon="10.719276472982967"><ele>116.0</ele><time>2026-04-04T08:25:41.002Z</time></trkpt><trkpt lat="43.54869705714087" lon="10.719259654754183"><ele>116.0</ele><time>2026-04-04T08:25:42.002Z</time></trkpt><trkpt lat="43.54859801611218" lon="10.719260966204091"><ele>116.0</ele><time>2026-04-04T08:25:43.002Z</time></trkpt><trkpt lat="43.54849922561717" lon="10.71926453218783"><ele>115.6</ele><time>2026-04-04T08:25:44.002Z</time></trkpt><trkpt lat="43.54840581054189" lon="10.719268038495219"><ele>115.19999999999999</ele><time>2026-04-04T08:25:45.002Z</time></trkpt><trkpt lat="43.54831020328781" lon="10.719271873563757"><ele>114.80000000000001</ele><time>2026-04-04T08:25:46.002Z</time></trkpt><trkpt lat="43.54821256363916" lon="10.7192950952076"><ele>114.4</ele><time>2026-04-04T08:25:47.002Z</time></trkpt><trkpt lat="43.54812300251303" lon="10.71930053611295"><ele>114.0</ele><time>2026-04-04T08:25:48.002Z</time></trkpt><trkpt lat="43.54803215652968" lon="10.71929988108277"><ele>114.0</ele><time>2026-04-04T08:25:49.002Z</time></trkpt><trkpt lat="43.54794573155097" lon="10.719299415156694"><ele>114.0</ele><time>2026-04-04T08:25:50.002Z</time></trkpt><trkpt lat="43.54785652816734" lon="10.719304967861492"><ele>114.0</ele><time>2026-04-04T08:25:51.002Z</time></trkpt><trkpt lat="43.5477674826009" lon="10.719308525216373"><ele>114.0</ele><time>2026-04-04T08:25:52.002Z</time></trkpt><trkpt lat="43.5476841276532" lon="10.719294572597633"><ele>114.0</ele><time>2026-04-04T08:25:53.003Z</time></trkpt><trkpt lat="43.547597444235905" lon="10.719318842460678"><ele>114.0</ele><time>2026-04-04T08:25:54.003Z</time></trkpt><trkpt lat="43.54751466055684" lon="10.71932454708646"><ele>113.0</ele><time>2026-04-04T08:25:55.003Z</time></trkpt><trkpt lat="43.54743036550776" lon="10.71930650016738"><ele>112.0</ele><time>2026-04-04T08:25:56.003Z</time></trkpt><trkpt lat="43.54735173992435" lon="10.71933117931847"><ele>111.0</ele><time>2026-04-04T08:25:57.003Z</time></trkpt><trkpt lat="43.54727213901435" lon="10.719335122295355"><ele>110.0</ele><time>2026-04-04T08:25:58.003Z</time></trkpt><trkpt lat="43.54719363723984" lon="10.719339688105526"><ele>109.0</ele><time>2026-04-04T08:25:59.003Z</time></trkpt><trkpt lat="43.547118907951614" lon="10.719346318988277"><ele>108.0</ele><time>2026-04-04T08:26:00.003Z</time></trkpt><trkpt lat="43.547050872829686" lon="10.719352683266447"><ele>108.4</ele><time>2026-04-04T08:26:01.003Z</time></trkpt><trkpt lat="43.54698501435846" lon="10.71936058978876"><ele>108.80000000000001</ele><time>2026-04-04T08:26:02.003Z</time></trkpt><trkpt lat="43.54686260422471" lon="10.71936245217456"><ele>109.2</ele><time>2026-04-04T08:26:04.003Z</time></trkpt><trkpt lat="43.54675283965674" lon="10.719333261272784"><ele>109.6</ele><time>2026-04-04T08:26:06Z</time></trkpt><trkpt lat="43.546657523913304" lon="10.719284605962532"><ele>110.0</ele><time>2026-04-04T08:26:08Z</time></trkpt><trkpt lat="43.54654100506219" lon="10.71928838658752"><ele>110.0</ele><time>2026-04-04T08:26:10Z</time></trkpt><trkpt lat="43.54647026136827" lon="10.719332556057262"><ele>110.0</ele><time>2026-04-04T08:26:11Z</time></trkpt><trkpt lat="43.5463835157205" lon="10.71934569683651"><ele>110.0</ele><time>2026-04-04T08:26:12Z</time></trkpt><trkpt lat="43.54628136153327" lon="10.719389113572936"><ele>110.0</ele><time>2026-04-04T08:26:13Z</time></trkpt><trkpt lat="43.54616566281154" lon="10.7194415222585"><ele>110.0</ele><time>2026-04-04T08:26:14Z</time></trkpt><trkpt lat="43.54604809236238" lon="10.719494778885263"><ele>112.25</ele><time>2026-04-04T08:26:15Z</time></trkpt><trkpt lat="43.54592141114441" lon="10.719550858796705"><ele>114.5</ele><time>2026-04-04T08:26:16Z</time></trkpt><trkpt lat="43.545803397132886" lon="10.719625386169628"><ele>116.75</ele><time>2026-04-04T08:26:17Z</time></trkpt><trkpt lat="43.54569649002878" lon="10.719670938272907"><ele>119.0</ele><time>2026-04-04T08:26:18Z</time></trkpt><trkpt lat="43.54559107009363" lon="10.719725030629082"><ele>119.0</ele><time>2026-04-04T08:26:19Z</time></trkpt><trkpt lat="43.545475322305634" lon="10.719764407916985"><ele>119.0</ele><time>2026-04-04T08:26:20Z</time></trkpt><trkpt lat="43.5453657984619" lon="10.71984781173939"><ele>119.0</ele><time>2026-04-04T08:26:21Z</time></trkpt><trkpt lat="43.545272513343924" lon="10.719955795562916"><ele>119.0</ele><time>2026-04-04T08:26:22Z</time></trkpt><trkpt lat="43.5451837683762" lon="10.720068862211594"><ele>119.4</ele><time>2026-04-04T08:26:23Z</time></trkpt><trkpt lat="43.54510983780739" lon="10.720200826149544"><ele>119.80000000000001</ele><time>2026-04-04T08:26:24Z</time></trkpt><trkpt lat="43.545044023567534" lon="10.720314050688302"><ele>120.19999999999999</ele><time>2026-04-04T08:26:25Z</time></trkpt><trkpt lat="43.54498327751467" lon="10.720400251232267"><ele>120.6</ele><time>2026-04-04T08:26:26Z</time></trkpt><trkpt lat="43.54491873396868" lon="10.72048719141284"><ele>121.0</ele><time>2026-04-04T08:26:27.001Z</time></trkpt><trkpt lat="43.544830601104174" lon="10.72056693862416"><ele>121.0</ele><time>2026-04-04T08:26:28.001Z</time></trkpt><trkpt lat="43.5447386407483" lon="10.720626662383745"><ele>121.0</ele><time>2026-04-04T08:26:29.001Z</time></trkpt><trkpt lat="43.54464275586029" lon="10.720690357346538"><ele>121.0</ele><time>2026-04-04T08:26:30.001Z</time></trkpt><trkpt lat="43.54453881284034" lon="10.720754916441653"><ele>121.0</ele><time>2026-04-04T08:26:31.001Z</time></trkpt><trkpt lat="43.54443598927253" lon="10.720810468168407"><ele>121.0</ele><time>2026-04-04T08:26:32.001Z</time></trkpt><trkpt lat="43.544319623581835" lon="10.72088380826303"><ele>120.75</ele><time>2026-04-04T08:26:33.001Z</time></trkpt><trkpt lat="43.544194222766095" lon="10.720919356324256"><ele>120.5</ele><time>2026-04-04T08:26:34.001Z</time></trkpt><trkpt lat="43.544060969929966" lon="10.72095488138339"><ele>120.25</ele><time>2026-04-04T08:26:35.001Z</time></trkpt><trkpt lat="43.543924331849496" lon="10.720955101624034"><ele>120.0</ele><time>2026-04-04T08:26:36.001Z</time></trkpt><trkpt lat="43.54378707718141" lon="10.72096467500305"><ele>119.75</ele><time>2026-04-04T08:26:37.001Z</time></trkpt><trkpt lat="43.543645520265905" lon="10.720988323886212"><ele>119.5</ele><time>2026-04-04T08:26:38.001Z</time></trkpt><trkpt lat="43.543493795105086" lon="10.72098001010559"><ele>119.25</ele><time>2026-04-04T08:26:39.001Z</time></trkpt><trkpt lat="43.54335003425886" lon="10.720979169349764"><ele>119.0</ele><time>2026-04-04T08:26:40.001Z</time></trkpt><trkpt lat="43.543197073209136" lon="10.720959985868634"><ele>119.0</ele><time>2026-04-04T08:26:41.001Z</time></trkpt><trkpt lat="43.54305680652111" lon="10.72095452623922"><ele>119.0</ele><time>2026-04-04T08:26:42.001Z</time></trkpt><trkpt lat="43.54292063938004" lon="10.7209547821441"><ele>119.0</ele><time>2026-04-04T08:26:43.001Z</time></trkpt><trkpt lat="43.542791687826345" lon="10.720967802825909"><ele>119.0</ele><time>2026-04-04T08:26:44.001Z</time></trkpt><trkpt lat="43.54271103829852" lon="10.721005146683343"><ele>118.75</ele><time>2026-04-04T08:26:45.001Z</time></trkpt><trkpt lat="43.54259560945708" lon="10.721010246309334"><ele>118.5</ele><time>2026-04-04T08:26:46.001Z</time></trkpt><trkpt lat="43.542472263258674" lon="10.721022357026074"><ele>118.25</ele><time>2026-04-04T08:26:47.001Z</time></trkpt><trkpt lat="43.54234419180929" lon="10.72102615080309"><ele>118.0</ele><time>2026-04-04T08:26:48.001Z</time></trkpt><trkpt lat="43.54221905315207" lon="10.721036739578404"><ele>118.0</ele><time>2026-04-04T08:26:49.001Z</time></trkpt><trkpt lat="43.54209918217281" lon="10.72105348504925"><ele>118.0</ele><time>2026-04-04T08:26:50.001Z</time></trkpt><trkpt lat="43.54198219597909" lon="10.721072052737979"><ele>118.0</ele><time>2026-04-04T08:26:51.001Z</time></trkpt><trkpt lat="43.54186920849432" lon="10.721084606708924"><ele>118.0</ele><time>2026-04-04T08:26:52.001Z</time></trkpt><trkpt lat="43.5417502707932" lon="10.721086309875192"><ele>117.75</ele><time>2026-04-04T08:26:53.001Z</time></trkpt><trkpt lat="43.54162937075557" lon="10.72108842096308"><ele>117.5</ele><time>2026-04-04T08:26:54.001Z</time></trkpt><trkpt lat="43.54150610859011" lon="10.721092183998131"><ele>117.25</ele><time>2026-04-04T08:26:55.001Z</time></trkpt><trkpt lat="43.54137874060473" lon="10.721093198204683"><ele>117.0</ele><time>2026-04-04T08:26:56.001Z</time></trkpt><trkpt lat="43.54125017244408" lon="10.721089765186932"><ele>118.25</ele><time>2026-04-04T08:26:57.001Z</time></trkpt><trkpt lat="43.54111867660769" lon="10.721087667881983"><ele>119.5</ele><time>2026-04-04T08:26:58.001Z</time></trkpt><trkpt lat="43.5409867211886" lon="10.721082797852139"><ele>120.75</ele><time>2026-04-04T08:26:59.001Z</time></trkpt><trkpt lat="43.54085726171055" lon="10.721071683128981"><ele>122.0</ele><time>2026-04-04T08:27:00.001Z</time></trkpt><trkpt lat="43.54072872450237" lon="10.721061195712084"><ele>122.0</ele><time>2026-04-04T08:27:01.001Z</time></trkpt><trkpt lat="43.540595735219625" lon="10.721045830537383"><ele>122.0</ele><time>2026-04-04T08:27:02.001Z</time></trkpt><trkpt lat="43.54046150527276" lon="10.721037335410342"><ele>122.0</ele><time>2026-04-04T08:27:03.001Z</time></trkpt><trkpt lat="43.540325818856196" lon="10.721031371886454"><ele>122.0</ele><time>2026-04-04T08:27:04.001Z</time></trkpt><trkpt lat="43.54018883656163" lon="10.721025901423388"><ele>122.5</ele><time>2026-04-04T08:27:05.001Z</time></trkpt><trkpt lat="43.540054698884475" lon="10.721027658892561"><ele>123.0</ele><time>2026-04-04T08:27:06.001Z</time></trkpt><trkpt lat="43.5399216230415" lon="10.72104769324342"><ele>123.5</ele><time>2026-04-04T08:27:07.001Z</time></trkpt><trkpt lat="43.539787974943586" lon="10.72104856566231"><ele>124.0</ele><time>2026-04-04T08:27:08.001Z</time></trkpt><trkpt lat="43.53965796284028" lon="10.72108292954459"><ele>125.0</ele><time>2026-04-04T08:27:09.001Z</time></trkpt><trkpt lat="43.5395264168344" lon="10.7211031339659"><ele>126.0</ele><time>2026-04-04T08:27:10.001Z</time></trkpt><trkpt lat="43.53939204148041" lon="10.721097215050115"><ele>127.0</ele><time>2026-04-04T08:27:11.001Z</time></trkpt><trkpt lat="43.53925543981216" lon="10.72112049275792"><ele>128.0</ele><time>2026-04-04T08:27:12.001Z</time></trkpt><trkpt lat="43.539120831957234" lon="10.721154465922694"><ele>128.0</ele><time>2026-04-04T08:27:13.001Z</time></trkpt><trkpt lat="43.538984493858216" lon="10.72120603226174"><ele>128.0</ele><time>2026-04-04T08:27:14.001Z</time></trkpt><trkpt lat="43.538854561340685" lon="10.721236798134308"><ele>128.0</ele><time>2026-04-04T08:27:15.001Z</time></trkpt><trkpt lat="43.53871922547441" lon="10.721270112029522"><ele>128.0</ele><time>2026-04-04T08:27:16.002Z</time></trkpt><trkpt lat="43.538574327208714" lon="10.721303490235329"><ele>129.75</ele><time>2026-04-04T08:27:17.002Z</time></trkpt><trkpt lat="43.53842800213472" lon="10.721328437575345"><ele>131.5</ele><time>2026-04-04T08:27:18.002Z</time></trkpt><trkpt lat="43.53827987872355" lon="10.721336779339088"><ele>133.25</ele><time>2026-04-04T08:27:19.002Z</time></trkpt><trkpt lat="43.53813072118475" lon="10.721333164757088"><ele>135.0</ele><time>2026-04-04T08:27:20.002Z</time></trkpt><trkpt lat="43.5379819044123" lon="10.721312851057204"><ele>135.25</ele><time>2026-04-04T08:27:21.002Z</time></trkpt><trkpt lat="43.53783180015623" lon="10.721308729354385"><ele>135.5</ele><time>2026-04-04T08:27:22.002Z</time></trkpt><trkpt lat="43.537688532462965" lon="10.721311670339885"><ele>135.75</ele><time>2026-04-04T08:27:23.002Z</time></trkpt><trkpt lat="43.5375498177175" lon="10.721317788398462"><ele>136.0</ele><time>2026-04-04T08:27:24.002Z</time></trkpt><trkpt lat="43.53741249009761" lon="10.721329358447536"><ele>136.0</ele><time>2026-04-04T08:27:25.002Z</time></trkpt><trkpt lat="43.53727587678704" lon="10.72134454647549"><ele>136.0</ele><time>2026-04-04T08:27:26.002Z</time></trkpt><trkpt lat="43.53714640760194" lon="10.721369516627403"><ele>136.0</ele><time>2026-04-04T08:27:27.002Z</time></trkpt><trkpt lat="43.537020968378386" lon="10.72141860990171"><ele>136.0</ele><time>2026-04-04T08:27:28.002Z</time></trkpt><trkpt lat="43.536921447874185" lon="10.721467799519818"><ele>133.5</ele><time>2026-04-04T08:27:29.002Z</time></trkpt><trkpt lat="43.536809872608" lon="10.721500074838856"><ele>131.0</ele><time>2026-04-04T08:27:30.002Z</time></trkpt><trkpt lat="43.53668827480025" lon="10.721514485075035"><ele>128.5</ele><time>2026-04-04T08:27:31.002Z</time></trkpt><trkpt lat="43.53654052667266" lon="10.72149224501175"><ele>126.0</ele><time>2026-04-04T08:27:32.002Z</time></trkpt><trkpt lat="43.536385485857046" lon="10.721447251314649"><ele>126.0</ele><time>2026-04-04T08:27:33.002Z</time></trkpt><trkpt lat="43.536221062439544" lon="10.72139314073547"><ele>126.0</ele><time>2026-04-04T08:27:34.002Z</time></trkpt><trkpt lat="43.536051523438594" lon="10.721330561549815"><ele>126.0</ele><time>2026-04-04T08:27:35.002Z</time></trkpt><trkpt lat="43.53588422819784" lon="10.721273843549236"><ele>123.0</ele><time>2026-04-04T08:27:36.002Z</time></trkpt><trkpt lat="43.53571969753564" lon="10.721233057919333"><ele>120.0</ele><time>2026-04-04T08:27:37.002Z</time></trkpt><trkpt lat="43.535567022377606" lon="10.721192226221973"><ele>117.0</ele><time>2026-04-04T08:27:38.002Z</time></trkpt><trkpt lat="43.535424572858076" lon="10.721157011616052"><ele>118.0</ele><time>2026-04-04T08:27:39.002Z</time></trkpt><trkpt lat="43.53529018530047" lon="10.721088566894831"><ele>119.0</ele><time>2026-04-04T08:27:40.002Z</time></trkpt><trkpt lat="43.535155894743326" lon="10.721048269900079"><ele>120.0</ele><time>2026-04-04T08:27:41.002Z</time></trkpt><trkpt lat="43.535037686750506" lon="10.720960524026351"><ele>121.0</ele><time>2026-04-04T08:27:42.002Z</time></trkpt><trkpt lat="43.53491996193335" lon="10.720872997202092"><ele>121.5</ele><time>2026-04-04T08:27:43.002Z</time></trkpt><trkpt lat="43.53480448570097" lon="10.720779318826315"><ele>122.0</ele><time>2026-04-04T08:27:44.002Z</time></trkpt><trkpt lat="43.53468814282713" lon="10.720682120253684"><ele>122.5</ele><time>2026-04-04T08:27:45.002Z</time></trkpt><trkpt lat="43.534564725338214" lon="10.720590514233395"><ele>123.0</ele><time>2026-04-04T08:27:46.002Z</time></trkpt><trkpt lat="43.53443827776964" lon="10.7205128862864"><ele>124.5</ele><time>2026-04-04T08:27:47.002Z</time></trkpt><trkpt lat="43.53430498951397" lon="10.720441247606171"><ele>126.0</ele><time>2026-04-04T08:27:48.002Z</time></trkpt><trkpt lat="43.53417304251582" lon="10.720373653314898"><ele>127.5</ele><time>2026-04-04T08:27:49.002Z</time></trkpt><trkpt lat="43.534049526912916" lon="10.720315408009995"><ele>129.0</ele><time>2026-04-04T08:27:50.002Z</time></trkpt><trkpt lat="43.53393219199502" lon="10.720269295625943"><ele>129.0</ele><time>2026-04-04T08:27:51.002Z</time></trkpt><trkpt lat="43.53381465152601" lon="10.720247884222733"><ele>129.0</ele><time>2026-04-04T08:27:52.002Z</time></trkpt><trkpt lat="43.533700200757345" lon="10.720256578757107"><ele>129.0</ele><time>2026-04-04T08:27:53.002Z</time></trkpt><trkpt lat="43.53357164679721" lon="10.720283980845686"><ele>129.0</ele><time>2026-04-04T08:27:54.002Z</time></trkpt><trkpt lat="43.53344194063485" lon="10.720323568630233"><ele>128.25</ele><time>2026-04-04T08:27:55.002Z</time></trkpt><trkpt lat="43.53330723854394" lon="10.720378077608572"><ele>127.5</ele><time>2026-04-04T08:27:56.002Z</time></trkpt><trkpt lat="43.53317056939108" lon="10.720432167062866"><ele>126.75</ele><time>2026-04-04T08:27:57.002Z</time></trkpt><trkpt lat="43.533031545827605" lon="10.720489195932911"><ele>126.0</ele><time>2026-04-04T08:27:58.002Z</time></trkpt><trkpt lat="43.53289555910083" lon="10.72054735984521"><ele>124.25</ele><time>2026-04-04T08:27:59.002Z</time></trkpt><trkpt lat="43.53275800168588" lon="10.720612876768435"><ele>122.5</ele><time>2026-04-04T08:28:00.002Z</time></trkpt><trkpt lat="43.532633035366274" lon="10.720676264563261"><ele>120.75</ele><time>2026-04-04T08:28:01.003Z</time></trkpt><trkpt lat="43.532523084135924" lon="10.720735737580661"><ele>119.0</ele><time>2026-04-04T08:28:02.003Z</time></trkpt><trkpt lat="43.53242497228222" lon="10.720789122976461"><ele>119.0</ele><time>2026-04-04T08:28:03.003Z</time></trkpt><trkpt lat="43.53233006848349" lon="10.72084090286328"><ele>119.0</ele><time>2026-04-04T08:28:04.003Z</time></trkpt><trkpt lat="43.53223421864089" lon="10.720897567765522"><ele>119.0</ele><time>2026-04-04T08:28:05.003Z</time></trkpt><trkpt lat="43.5321388411936" lon="10.720955183105302"><ele>119.0</ele><time>2026-04-04T08:28:06.003Z</time></trkpt><trkpt lat="43.53205156076522" lon="10.721009161812995"><ele>119.0</ele><time>2026-04-04T08:28:07.003Z</time></trkpt><trkpt lat="43.53196680686362" lon="10.721062711884937"><ele>118.80000000000001</ele><time>2026-04-04T08:28:08.003Z</time></trkpt><trkpt lat="43.53188707398833" lon="10.721115627860545"><ele>118.60000000000001</ele><time>2026-04-04T08:28:09.003Z</time></trkpt><trkpt lat="43.531801073156025" lon="10.721172595960685"><ele>118.4</ele><time>2026-04-04T08:28:10.003Z</time></trkpt><trkpt lat="43.53171092832515" lon="10.721231766894872"><ele>118.2</ele><time>2026-04-04T08:28:11.001Z</time></trkpt><trkpt lat="43.53163209716841" lon="10.721283511543827"><ele>118.0</ele><time>2026-04-04T08:28:12.001Z</time></trkpt><trkpt lat="43.5315409395074" lon="10.721343347331542"><ele>118.0</ele><time>2026-04-04T08:28:13.001Z</time></trkpt><trkpt lat="43.531456696896456" lon="10.721398644062733"><ele>118.0</ele><time>2026-04-04T08:28:14.001Z</time></trkpt><trkpt lat="43.53135472464126" lon="10.721465578182356"><ele>118.0</ele><time>2026-04-04T08:28:15.001Z</time></trkpt><trkpt lat="43.53124465583787" lon="10.721533991910722"><ele>118.0</ele><time>2026-04-04T08:28:16.001Z</time></trkpt><trkpt lat="43.53110916475271" lon="10.721613164992275"><ele>119.0</ele><time>2026-04-04T08:28:17.001Z</time></trkpt><trkpt lat="43.53098709150202" lon="10.721682384810611"><ele>120.0</ele><time>2026-04-04T08:28:18Z</time></trkpt><trkpt lat="43.53084910193563" lon="10.721761632711159"><ele>121.0</ele><time>2026-04-04T08:28:19Z</time></trkpt><trkpt lat="43.530714239789155" lon="10.72186648048539"><ele>122.0</ele><time>2026-04-04T08:28:20Z</time></trkpt><trkpt lat="43.530571244336365" lon="10.721964673302368"><ele>122.0</ele><time>2026-04-04T08:28:21Z</time></trkpt><trkpt lat="43.53045015687856" lon="10.722119999096407"><ele>122.0</ele><time>2026-04-04T08:28:22Z</time></trkpt><trkpt lat="43.53034479649095" lon="10.722312713208487"><ele>122.0</ele><time>2026-04-04T08:28:23Z</time></trkpt><trkpt lat="43.53025002482908" lon="10.722532384719104"><ele>124.0</ele><time>2026-04-04T08:28:24Z</time></trkpt><trkpt lat="43.53014165830554" lon="10.722742026402399"><ele>126.0</ele><time>2026-04-04T08:28:25Z</time></trkpt><trkpt lat="43.53005070079551" lon="10.722954388155477"><ele>128.0</ele><time>2026-04-04T08:28:26Z</time></trkpt><trkpt lat="43.529965305601536" lon="10.723156619355192"><ele>128.0</ele><time>2026-04-04T08:28:27Z</time></trkpt><trkpt lat="43.529883182074435" lon="10.723352454890225"><ele>128.0</ele><time>2026-04-04T08:28:28Z</time></trkpt><trkpt lat="43.52980446524057" lon="10.723542518669463"><ele>128.0</ele><time>2026-04-04T08:28:29Z</time></trkpt><trkpt lat="43.52972361357803" lon="10.72373302318828"><ele>127.5</ele><time>2026-04-04T08:28:30Z</time></trkpt><trkpt lat="43.52964555701688" lon="10.723918814952544"><ele>127.0</ele><time>2026-04-04T08:28:31Z</time></trkpt><trkpt lat="43.529577513781774" lon="10.724102444009965"><ele>126.5</ele><time>2026-04-04T08:28:32Z</time></trkpt><trkpt lat="43.529522008473144" lon="10.724283109706748"><ele>126.0</ele><time>2026-04-04T08:28:33Z</time></trkpt><trkpt lat="43.52951347401181" lon="10.724498362161581"><ele>124.0</ele><time>2026-04-04T08:28:34Z</time></trkpt><trkpt lat="43.52950881812982" lon="10.724707933156868"><ele>122.0</ele><time>2026-04-04T08:28:35Z</time></trkpt><trkpt lat="43.52950936492214" lon="10.724899596495497"><ele>120.0</ele><time>2026-04-04T08:28:36.001Z</time></trkpt><trkpt lat="43.52951078304392" lon="10.725064681832588"><ele>118.0</ele><time>2026-04-04T08:28:37.001Z</time></trkpt><trkpt lat="43.52951343193973" lon="10.725219342365955"><ele>120.25</ele><time>2026-04-04T08:28:38.001Z</time></trkpt><trkpt lat="43.52951523604806" lon="10.725387840940604"><ele>122.5</ele><time>2026-04-04T08:28:39.001Z</time></trkpt><trkpt lat="43.52951176821514" lon="10.725558163309664"><ele>124.75</ele><time>2026-04-04T08:28:40.001Z</time></trkpt><trkpt lat="43.52950441490134" lon="10.725732124778327"><ele>127.0</ele><time>2026-04-04T08:28:41.001Z</time></trkpt><trkpt lat="43.52948613487053" lon="10.72591105253859"><ele>129.0</ele><time>2026-04-04T08:28:42.001Z</time></trkpt><trkpt lat="43.52945941070756" lon="10.726096217568019"><ele>131.0</ele><time>2026-04-04T08:28:43.001Z</time></trkpt><trkpt lat="43.52938187412285" lon="10.726266956447725"><ele>133.0</ele><time>2026-04-04T08:28:44.001Z</time></trkpt><trkpt lat="43.529293440490726" lon="10.726432399498993"><ele>135.0</ele><time>2026-04-04T08:28:45.001Z</time></trkpt><trkpt lat="43.52918888346811" lon="10.7265906610306"><ele>135.0</ele><time>2026-04-04T08:28:46.001Z</time></trkpt><trkpt lat="43.52908182094078" lon="10.726741662168717"><ele>135.0</ele><time>2026-04-04T08:28:47.001Z</time></trkpt><trkpt lat="43.52897231857995" lon="10.726895203457564"><ele>135.0</ele><time>2026-04-04T08:28:48.001Z</time></trkpt><trkpt lat="43.52886415595039" lon="10.727044363515944"><ele>136.25</ele><time>2026-04-04T08:28:49.001Z</time></trkpt><trkpt lat="43.528758559137636" lon="10.727190225640369"><ele>137.5</ele><time>2026-04-04T08:28:50.001Z</time></trkpt><trkpt lat="43.52866101046005" lon="10.7273390722192"><ele>138.75</ele><time>2026-04-04T08:28:51.001Z</time></trkpt><trkpt lat="43.52857233607661" lon="10.727488462240958"><ele>140.0</ele><time>2026-04-04T08:28:52.001Z</time></trkpt><trkpt lat="43.52848430928057" lon="10.727634824390524"><ele>140.0</ele><time>2026-04-04T08:28:53.001Z</time></trkpt><trkpt lat="43.52839446126333" lon="10.727775034466001"><ele>140.0</ele><time>2026-04-04T08:28:54.001Z</time></trkpt><trkpt lat="43.52830366982481" lon="10.727912258792973"><ele>140.0</ele><time>2026-04-04T08:28:55.001Z</time></trkpt><trkpt lat="43.52821366240189" lon="10.728048297416256"><ele>140.0</ele><time>2026-04-04T08:28:56.001Z</time></trkpt><trkpt lat="43.52812077129093" lon="10.728181015959402"><ele>140.0</ele><time>2026-04-04T08:28:57.001Z</time></trkpt><trkpt lat="43.52803263914338" lon="10.72830082506854"><ele>140.0</ele><time>2026-04-04T08:28:58.001Z</time></trkpt><trkpt lat="43.527944503199755" lon="10.728411371891612"><ele>140.0</ele><time>2026-04-04T08:28:59.001Z</time></trkpt><trkpt lat="43.5278538589466" lon="10.72854012663615"><ele>140.0</ele><time>2026-04-04T08:29:00.001Z</time></trkpt><trkpt lat="43.52774571832209" lon="10.728645891875152"><ele>139.5</ele><time>2026-04-04T08:29:01.001Z</time></trkpt><trkpt lat="43.527628567229605" lon="10.728735713362129"><ele>139.0</ele><time>2026-04-04T08:29:02.001Z</time></trkpt><trkpt lat="43.527518668547174" lon="10.728841805799139"><ele>138.5</ele><time>2026-04-04T08:29:03.001Z</time></trkpt><trkpt lat="43.527408802470305" lon="10.72897220700068"><ele>138.0</ele><time>2026-04-04T08:29:04.001Z</time></trkpt><trkpt lat="43.52728631891479" lon="10.729071623789492"><ele>138.0</ele><time>2026-04-04T08:29:05.001Z</time></trkpt><trkpt lat="43.527178109639316" lon="10.729196071960278"><ele>138.0</ele><time>2026-04-04T08:29:06.001Z</time></trkpt><trkpt lat="43.52707662400437" lon="10.729338171986976"><ele>138.0</ele><time>2026-04-04T08:29:07.001Z</time></trkpt><trkpt lat="43.5269797939908" lon="10.729490576164906"><ele>138.0</ele><time>2026-04-04T08:29:08.001Z</time></trkpt><trkpt lat="43.52689378396098" lon="10.7296562705294"><ele>141.66666666666666</ele><time>2026-04-04T08:29:09.001Z</time></trkpt><trkpt lat="43.52682516317586" lon="10.729841932589192"><ele>145.33333333333331</ele><time>2026-04-04T08:29:10.001Z</time></trkpt><trkpt lat="43.52679692504523" lon="10.730048826482108"><ele>149.0</ele><time>2026-04-04T08:29:11.001Z</time></trkpt><trkpt lat="43.52675582302097" lon="10.730250444523096"><ele>149.5</ele><time>2026-04-04T08:29:12.001Z</time></trkpt><trkpt lat="43.52672479181019" lon="10.73044950984721"><ele>150.0</ele><time>2026-04-04T08:29:13.001Z</time></trkpt><trkpt lat="43.526687876757165" lon="10.73064821313471"><ele>150.5</ele><time>2026-04-04T08:29:14.001Z</time></trkpt><trkpt lat="43.526649904693556" lon="10.730839573189803"><ele>151.0</ele><time>2026-04-04T08:29:15.001Z</time></trkpt><trkpt lat="43.52660318465268" lon="10.731011122866876"><ele>150.6</ele><time>2026-04-04T08:29:16.001Z</time></trkpt><trkpt lat="43.526546526272476" lon="10.731160396825368"><ele>150.2</ele><time>2026-04-04T08:29:17.001Z</time></trkpt><trkpt lat="43.52648668749344" lon="10.731298017781437"><ele>149.8</ele><time>2026-04-04T08:29:18.001Z</time></trkpt><trkpt lat="43.52643139981686" lon="10.731423654251103"><ele>149.4</ele><time>2026-04-04T08:29:19.001Z</time></trkpt><trkpt lat="43.5263540936696" lon="10.73149999501983"><ele>149.0</ele><time>2026-04-04T08:29:20.001Z</time></trkpt><trkpt lat="43.52627570633697" lon="10.731547916015655"><ele>149.2</ele><time>2026-04-04T08:29:21.001Z</time></trkpt><trkpt lat="43.52618602834068" lon="10.731580013330058"><ele>149.4</ele><time>2026-04-04T08:29:22.001Z</time></trkpt><trkpt lat="43.5260913907817" lon="10.731609780354646"><ele>149.6</ele><time>2026-04-04T08:29:23.001Z</time></trkpt><trkpt lat="43.52600263531874" lon="10.731631653491055"><ele>149.8</ele><time>2026-04-04T08:29:24.001Z</time></trkpt><trkpt lat="43.52590338471303" lon="10.731596568948712"><ele>150.0</ele><time>2026-04-04T08:29:25.001Z</time></trkpt><trkpt lat="43.52580300990427" lon="10.731549292185532"><ele>150.0</ele><time>2026-04-04T08:29:26.002Z</time></trkpt><trkpt lat="43.52571763327927" lon="10.731474549692972"><ele>150.0</ele><time>2026-04-04T08:29:27.002Z</time></trkpt><trkpt lat="43.525626462114474" lon="10.731402332718273"><ele>150.0</ele><time>2026-04-04T08:29:28.002Z</time></trkpt><trkpt lat="43.525517408803985" lon="10.731360296385796"><ele>150.0</ele><time>2026-04-04T08:29:29.002Z</time></trkpt><trkpt lat="43.52538817881222" lon="10.731363991977965"><ele>150.0</ele><time>2026-04-04T08:29:30.002Z</time></trkpt><trkpt lat="43.52526310800658" lon="10.731504913926482"><ele>149.25</ele><time>2026-04-04T08:29:31.002Z</time></trkpt><trkpt lat="43.525190435330856" lon="10.731673381042699"><ele>148.5</ele><time>2026-04-04T08:29:32.002Z</time></trkpt><trkpt lat="43.52513105032488" lon="10.731809927786077"><ele>147.75</ele><time>2026-04-04T08:29:33.002Z</time></trkpt><trkpt lat="43.525072651773876" lon="10.731945222147958"><ele>147.0</ele><time>2026-04-04T08:29:34.002Z</time></trkpt><trkpt lat="43.525014601437924" lon="10.732076021807732"><ele>144.75</ele><time>2026-04-04T08:29:35.002Z</time></trkpt><trkpt lat="43.52495343901988" lon="10.732213181075544"><ele>142.5</ele><time>2026-04-04T08:29:36.002Z</time></trkpt><trkpt lat="43.52487833064205" lon="10.732394041111577"><ele>140.25</ele><time>2026-04-04T08:29:37.002Z</time></trkpt><trkpt lat="43.52480830717142" lon="10.73257890947202"><ele>138.0</ele><time>2026-04-04T08:29:38.002Z</time></trkpt><trkpt lat="43.52476918019862" lon="10.732788992195314"><ele>135.66666666666666</ele><time>2026-04-04T08:29:39.002Z</time></trkpt><trkpt lat="43.52473056926721" lon="10.732995788583398"><ele>133.33333333333331</ele><time>2026-04-04T08:29:40.002Z</time></trkpt><trkpt lat="43.524705859818326" lon="10.733207899041954"><ele>131.0</ele><time>2026-04-04T08:29:41.002Z</time></trkpt><trkpt lat="43.524694092578855" lon="10.73342278882136"><ele>130.66666666666666</ele><time>2026-04-04T08:29:42.002Z</time></trkpt><trkpt lat="43.52466908537639" lon="10.733638820503943"><ele>130.33333333333334</ele><time>2026-04-04T08:29:43.002Z</time></trkpt><trkpt lat="43.52463677912478" lon="10.733849216609284"><ele>130.0</ele><time>2026-04-04T08:29:44.002Z</time></trkpt><trkpt lat="43.52460514645887" lon="10.734032876460272"><ele>130.0</ele><time>2026-04-04T08:29:45.002Z</time></trkpt><trkpt lat="43.524568099477875" lon="10.734201972112988"><ele>130.0</ele><time>2026-04-04T08:29:46.002Z</time></trkpt><trkpt lat="43.524520042841715" lon="10.734354223216322"><ele>130.0</ele><time>2026-04-04T08:29:47.002Z</time></trkpt><trkpt lat="43.52447936806787" lon="10.73450907686899"><ele>130.0</ele><time>2026-04-04T08:29:48.002Z</time></trkpt><trkpt lat="43.52441106468549" lon="10.73463475942592"><ele>132.25</ele><time>2026-04-04T08:29:49.002Z</time></trkpt><trkpt lat="43.524343723623616" lon="10.734767716918983"><ele>134.5</ele><time>2026-04-04T08:29:50.002Z</time></trkpt><trkpt lat="43.524271641621255" lon="10.734907329574845"><ele>136.75</ele><time>2026-04-04T08:29:51.002Z</time></trkpt><trkpt lat="43.52419494913543" lon="10.735055872053211"><ele>139.0</ele><time>2026-04-04T08:29:52.002Z</time></trkpt><trkpt lat="43.524124379884356" lon="10.7351945904575"><ele>135.0</ele><time>2026-04-04T08:29:53.002Z</time></trkpt><trkpt lat="43.524053551877664" lon="10.735335107675887"><ele>131.0</ele><time>2026-04-04T08:29:54.002Z</time></trkpt><trkpt lat="43.52397248465844" lon="10.735477457744642"><ele>127.0</ele><time>2026-04-04T08:29:55.002Z</time></trkpt><trkpt lat="43.523877207240425" lon="10.735611160900387"><ele>123.0</ele><time>2026-04-04T08:29:56.002Z</time></trkpt><trkpt lat="43.523772991496735" lon="10.735728578782997"><ele>123.75</ele><time>2026-04-04T08:29:57.002Z</time></trkpt><trkpt lat="43.523659017717335" lon="10.735824051945057"><ele>124.5</ele><time>2026-04-04T08:29:58.002Z</time></trkpt><trkpt lat="43.52355684230072" lon="10.735946013268606"><ele>125.25</ele><time>2026-04-04T08:29:59.002Z</time></trkpt><trkpt lat="43.52345213477281" lon="10.736072436700898"><ele>126.0</ele><time>2026-04-04T08:30:00.002Z</time></trkpt><trkpt lat="43.52334301793033" lon="10.736199318266431"><ele>126.0</ele><time>2026-04-04T08:30:01.002Z</time></trkpt><trkpt lat="43.52322520583905" lon="10.736317674938162"><ele>126.0</ele><time>2026-04-04T08:30:02.002Z</time></trkpt><trkpt lat="43.523100176743334" lon="10.736429955009378"><ele>126.0</ele><time>2026-04-04T08:30:03.002Z</time></trkpt><trkpt lat="43.52296767775533" lon="10.736522593544684"><ele>126.0</ele><time>2026-04-04T08:30:04.002Z</time></trkpt><trkpt lat="43.52283176600127" lon="10.736579565986355"><ele>129.75</ele><time>2026-04-04T08:30:05.002Z</time></trkpt><trkpt lat="43.522693697841795" lon="10.736609496682892"><ele>133.5</ele><time>2026-04-04T08:30:06.002Z</time></trkpt><trkpt lat="43.522564064075176" lon="10.736635525749348"><ele>137.25</ele><time>2026-04-04T08:30:07.002Z</time></trkpt><trkpt lat="43.52245304375176" lon="10.736673100111732"><ele>141.0</ele><time>2026-04-04T08:30:08.002Z</time></trkpt><trkpt lat="43.5223493574532" lon="10.736721251446818"><ele>141.0</ele><time>2026-04-04T08:30:09.002Z</time></trkpt><trkpt lat="43.52226775404531" lon="10.736798183574175"><ele>141.0</ele><time>2026-04-04T08:30:10.002Z</time></trkpt><trkpt lat="43.522186459949374" lon="10.736888717101646"><ele>141.0</ele><time>2026-04-04T08:30:11.002Z</time></trkpt><trkpt lat="43.52213386210131" lon="10.737008887050736"><ele>141.0</ele><time>2026-04-04T08:30:12.002Z</time></trkpt><trkpt lat="43.52210240209999" lon="10.73715881638376"><ele>141.0</ele><time>2026-04-04T08:30:13.003Z</time></trkpt><trkpt lat="43.52207149191028" lon="10.737367499164277"><ele>141.25</ele><time>2026-04-04T08:30:14.003Z</time></trkpt><trkpt lat="43.52202488497627" lon="10.73757277091803"><ele>141.5</ele><time>2026-04-04T08:30:15.003Z</time></trkpt><trkpt lat="43.52196314728371" lon="10.73771607084981"><ele>141.75</ele><time>2026-04-04T08:30:16.003Z</time></trkpt><trkpt lat="43.52188129419452" lon="10.737841366301701"><ele>142.0</ele><time>2026-04-04T08:30:17.001Z</time></trkpt><trkpt lat="43.52181147608134" lon="10.73793337809226"><ele>142.4</ele><time>2026-04-04T08:30:18.001Z</time></trkpt><trkpt lat="43.521765562144395" lon="10.737994417757292"><ele>142.79999999999998</ele><time>2026-04-04T08:30:19.001Z</time></trkpt><trkpt lat="43.521696880923976" lon="10.73807708746466"><ele>143.2</ele><time>2026-04-04T08:30:21.001Z</time></trkpt><trkpt lat="43.52171653313448" lon="10.73828382714604"><ele>143.6</ele><time>2026-04-04T08:30:22.001Z</time></trkpt><trkpt lat="43.52173496960479" lon="10.738419339467333"><ele>144.0</ele><time>2026-04-04T08:30:23.001Z</time></trkpt><trkpt lat="43.52176018728123" lon="10.738563328607933"><ele>144.0</ele><time>2026-04-04T08:30:24.001Z</time></trkpt><trkpt lat="43.52178166832825" lon="10.738676509542314"><ele>144.0</ele><time>2026-04-04T08:30:25.001Z</time></trkpt><trkpt lat="43.52181042183306" lon="10.738817778780604"><ele>144.0</ele><time>2026-04-04T08:30:26.001Z</time></trkpt><trkpt lat="43.521852822397086" lon="10.73894135532702"><ele>144.0</ele><time>2026-04-04T08:30:27.001Z</time></trkpt><trkpt lat="43.521874630846824" lon="10.739072870808451"><ele>144.0</ele><time>2026-04-04T08:30:28.001Z</time></trkpt><trkpt lat="43.52190070526261" lon="10.739185723398194"><ele>144.0</ele><time>2026-04-04T08:30:29.001Z</time></trkpt><trkpt lat="43.521950347221136" lon="10.739314850438198"><ele>144.0</ele><time>2026-04-04T08:30:30.001Z</time></trkpt><trkpt lat="43.52201519389629" lon="10.73945766064784"><ele>144.0</ele><time>2026-04-04T08:30:31.001Z</time></trkpt><trkpt lat="43.52207917367111" lon="10.739582949060184"><ele>144.0</ele><time>2026-04-04T08:30:32.001Z</time></trkpt><trkpt lat="43.52212584414076" lon="10.739752005402519"><ele>147.0</ele><time>2026-04-04T08:30:33.001Z</time></trkpt><trkpt lat="43.52217540267934" lon="10.739912894229475"><ele>150.0</ele><time>2026-04-04T08:30:34.001Z</time></trkpt><trkpt lat="43.52222412596291" lon="10.74007298272603"><ele>153.0</ele><time>2026-04-04T08:30:35.001Z</time></trkpt><trkpt lat="43.522291143288044" lon="10.740205974441016"><ele>156.0</ele><time>2026-04-04T08:30:36.001Z</time></trkpt><trkpt lat="43.52233349342337" lon="10.740347644910296"><ele>156.8</ele><time>2026-04-04T08:30:37.001Z</time></trkpt><trkpt lat="43.5223963682308" lon="10.740469182298135"><ele>157.6</ele><time>2026-04-04T08:30:38.001Z</time></trkpt><trkpt lat="43.522464199437856" lon="10.74060194079463"><ele>158.4</ele><time>2026-04-04T08:30:39.001Z</time></trkpt><trkpt lat="43.52252254538386" lon="10.740724591666954"><ele>159.2</ele><time>2026-04-04T08:30:40.001Z</time></trkpt><trkpt lat="43.52258618743379" lon="10.740850513633475"><ele>160.0</ele><time>2026-04-04T08:30:41.001Z</time></trkpt><trkpt lat="43.52264438684003" lon="10.740962573060562"><ele>159.8</ele><time>2026-04-04T08:30:42.001Z</time></trkpt><trkpt lat="43.5227018336424" lon="10.741079929264306"><ele>159.6</ele><time>2026-04-04T08:30:43.001Z</time></trkpt><trkpt lat="43.52274602067564" lon="10.741199576657277"><ele>159.4</ele><time>2026-04-04T08:30:44.001Z</time></trkpt><trkpt lat="43.52281541158169" lon="10.741286882185706"><ele>159.2</ele><time>2026-04-04T08:30:45.001Z</time></trkpt><trkpt lat="43.522889628639476" lon="10.741367764311722"><ele>159.0</ele><time>2026-04-04T08:30:46.001Z</time></trkpt><trkpt lat="43.5229575397857" lon="10.741454802418152"><ele>159.0</ele><time>2026-04-04T08:30:47.001Z</time></trkpt><trkpt lat="43.52303315061733" lon="10.741516072431534"><ele>159.0</ele><time>2026-04-04T08:30:48.001Z</time></trkpt><trkpt lat="43.523100607326484" lon="10.741593040364428"><ele>159.0</ele><time>2026-04-04T08:30:49.001Z</time></trkpt><trkpt lat="43.523172873807816" lon="10.741661437333727"><ele>159.0</ele><time>2026-04-04T08:30:50.001Z</time></trkpt><trkpt lat="43.52325145533467" lon="10.741735811015532"><ele>159.0</ele><time>2026-04-04T08:30:51.001Z</time></trkpt><trkpt lat="43.52332604963027" lon="10.741804897154385"><ele>159.0</ele><time>2026-04-04T08:30:52.001Z</time></trkpt><trkpt lat="43.5233931017089" lon="10.741866613042838"><ele>159.5</ele><time>2026-04-04T08:30:53.001Z</time></trkpt><trkpt lat="43.523453534819026" lon="10.741920439992338"><ele>160.0</ele><time>2026-04-04T08:30:54.001Z</time></trkpt><trkpt lat="43.52351909671854" lon="10.741979322289202"><ele>160.5</ele><time>2026-04-04T08:30:55.001Z</time></trkpt><trkpt lat="43.523588780702916" lon="10.742024207101146"><ele>161.0</ele><time>2026-04-04T08:30:56.001Z</time></trkpt><trkpt lat="43.52366970374802" lon="10.742052425158258"><ele>161.5</ele><time>2026-04-04T08:30:57.001Z</time></trkpt><trkpt lat="43.523744782890766" lon="10.742056573185355"><ele>162.0</ele><time>2026-04-04T08:30:58.001Z</time></trkpt><trkpt lat="43.523860773846046" lon="10.74199280618853"><ele>162.0</ele><time>2026-04-04T08:31:00.001Z</time></trkpt><trkpt lat="43.52393292977928" lon="10.74196756847503"><ele>162.0</ele><time>2026-04-04T08:31:01.001Z</time></trkpt><trkpt lat="43.524015887320644" lon="10.741953205986297"><ele>162.0</ele><time>2026-04-04T08:31:02.001Z</time></trkpt><trkpt lat="43.52409498761985" lon="10.741931154474889"><ele>162.0</ele><time>2026-04-04T08:31:03.001Z</time></trkpt><trkpt lat="43.524175851858764" lon="10.741906968082747"><ele>162.0</ele><time>2026-04-04T08:31:04.001Z</time></trkpt><trkpt lat="43.52425558567661" lon="10.741885185931237"><ele>162.0</ele><time>2026-04-04T08:31:05.001Z</time></trkpt><trkpt lat="43.52433282885498" lon="10.741859727218696"><ele>162.5</ele><time>2026-04-04T08:31:06.001Z</time></trkpt><trkpt lat="43.52440145693439" lon="10.741812074525793"><ele>163.0</ele><time>2026-04-04T08:31:07.001Z</time></trkpt><trkpt lat="43.52448445529468" lon="10.741796843773944"><ele>163.5</ele><time>2026-04-04T08:31:08.001Z</time></trkpt><trkpt lat="43.524578514191134" lon="10.741794909826076"><ele>164.0</ele><time>2026-04-04T08:31:09.001Z</time></trkpt><trkpt lat="43.52468237195782" lon="10.741808268906793"><ele>164.5</ele><time>2026-04-04T08:31:10.001Z</time></trkpt><trkpt lat="43.52476652550433" lon="10.741831493012644"><ele>165.0</ele><time>2026-04-04T08:31:11.001Z</time></trkpt><trkpt lat="43.524834222124014" lon="10.741850175281435"><ele>166.16666666666666</ele><time>2026-04-04T08:31:12.001Z</time></trkpt><trkpt lat="43.52490852015465" lon="10.741855108188421"><ele>167.33333333333334</ele><time>2026-04-04T08:31:13.001Z</time></trkpt><trkpt lat="43.52498689932548" lon="10.741846122113294"><ele>168.5</ele><time>2026-04-04T08:31:14.001Z</time></trkpt><trkpt lat="43.52506958674033" lon="10.741836562101623"><ele>169.66666666666669</ele><time>2026-04-04T08:31:15.001Z</time></trkpt><trkpt lat="43.525142431711416" lon="10.74183299441168"><ele>170.83333333333334</ele><time>2026-04-04T08:31:16.001Z</time></trkpt><trkpt lat="43.52520862600153" lon="10.74180847520105"><ele>172.0</ele><time>2026-04-04T08:31:17.001Z</time></trkpt><trkpt lat="43.52532003597876" lon="10.741763479375077"><ele>171.39999999999998</ele><time>2026-04-04T08:31:19.001Z</time></trkpt><trkpt lat="43.52541320763366" lon="10.741712691874776"><ele>170.79999999999998</ele><time>2026-04-04T08:31:21.001Z</time></trkpt><trkpt lat="43.52549237099938" lon="10.741640247184364"><ele>170.2</ele><time>2026-04-04T08:31:23.001Z</time></trkpt><trkpt lat="43.52557055939389" lon="10.74156929540742"><ele>169.6</ele><time>2026-04-04T08:31:25.001Z</time></trkpt><trkpt lat="43.52564975036993" lon="10.741509039402612"><ele>169.0</ele><time>2026-04-04T08:31:27.001Z</time></trkpt><trkpt lat="43.52572145746905" lon="10.74145198129411"><ele>169.0</ele><time>2026-04-04T08:31:29.001Z</time></trkpt><trkpt lat="43.525797173822006" lon="10.74137756548705"><ele>169.0</ele><time>2026-04-04T08:31:31.002Z</time></trkpt><trkpt lat="43.52586861786345" lon="10.7413242201131"><ele>169.0</ele><time>2026-04-04T08:31:33.002Z</time></trkpt><trkpt lat="43.52592906814908" lon="10.741293612251779"><ele>169.0</ele><time>2026-04-04T08:31:35.002Z</time></trkpt><trkpt lat="43.52605432743229" lon="10.74145721961887"><ele>169.0</ele><time>2026-04-04T08:31:38.002Z</time></trkpt><trkpt lat="43.52611223473232" lon="10.74154919248429"><ele>169.0</ele><time>2026-04-04T08:31:39.002Z</time></trkpt><trkpt lat="43.526177576702224" lon="10.741636701425158"><ele>169.0</ele><time>2026-04-04T08:31:40.002Z</time></trkpt><trkpt lat="43.52624143207581" lon="10.741698420715194"><ele>169.0</ele><time>2026-04-04T08:31:41.002Z</time></trkpt><trkpt lat="43.52630327899632" lon="10.741762686212361"><ele>169.0</ele><time>2026-04-04T08:31:42.002Z</time></trkpt><trkpt lat="43.52636276071497" lon="10.741833838597373"><ele>169.0</ele><time>2026-04-04T08:31:43.002Z</time></trkpt><trkpt lat="43.52641272292888" lon="10.741914444265367"><ele>169.0</ele><time>2026-04-04T08:31:44.002Z</time></trkpt><trkpt lat="43.52646230594974" lon="10.742001943933385"><ele>169.33333333333334</ele><time>2026-04-04T08:31:45.002Z</time></trkpt><trkpt lat="43.52652402451227" lon="10.742084544021818"><ele>169.66666666666669</ele><time>2026-04-04T08:31:46.002Z</time></trkpt><trkpt lat="43.52658379807525" lon="10.74216709470122"><ele>170.0</ele><time>2026-04-04T08:31:47.002Z</time></trkpt><trkpt lat="43.52665025540625" lon="10.742263807759294"><ele>170.33333333333334</ele><time>2026-04-04T08:31:48.002Z</time></trkpt><trkpt lat="43.526697352497706" lon="10.742342624717281"><ele>170.66666666666666</ele><time>2026-04-04T08:31:49.002Z</time></trkpt><trkpt lat="43.526741439427454" lon="10.742425408265515"><ele>171.0</ele><time>2026-04-04T08:31:50.002Z</time></trkpt><trkpt lat="43.526816416850394" lon="10.742513803273006"><ele>171.0</ele><time>2026-04-04T08:31:51.002Z</time></trkpt><trkpt lat="43.52688685711878" lon="10.742614256482828"><ele>171.0</ele><time>2026-04-04T08:31:52.002Z</time></trkpt><trkpt lat="43.52693276680126" lon="10.742699409117554"><ele>171.0</ele><time>2026-04-04T08:31:53.002Z</time></trkpt><trkpt lat="43.52697434793244" lon="10.742779142884798"><ele>171.0</ele><time>2026-04-04T08:31:54.002Z</time></trkpt><trkpt lat="43.527003761880266" lon="10.74293251625127"><ele>171.0</ele><time>2026-04-04T08:31:56.002Z</time></trkpt><trkpt lat="43.52705478340761" lon="10.74305203936643"><ele>171.0</ele><time>2026-04-04T08:31:58.002Z</time></trkpt><trkpt lat="43.52706733552403" lon="10.743152703059032"><ele>171.0</ele><time>2026-04-04T08:32:00.002Z</time></trkpt><trkpt lat="43.52701836254199" lon="10.74306855760437"><ele>171.0</ele><time>2026-04-04T08:32:10.002Z</time></trkpt><trkpt lat="43.52699528375882" lon="10.74294362967382"><ele>171.0</ele><time>2026-04-04T08:32:12.002Z</time></trkpt><trkpt lat="43.52699899607437" lon="10.742837373353249"><ele>171.0</ele><time>2026-04-04T08:32:14.002Z</time></trkpt><trkpt lat="43.52696815465205" lon="10.742727266469458"><ele>171.0</ele><time>2026-04-04T08:32:16.002Z</time></trkpt><trkpt lat="43.52689820520012" lon="10.74259461823545"><ele>171.0</ele><time>2026-04-04T08:32:18.002Z</time></trkpt><trkpt lat="43.526851344237976" lon="10.7425231076423"><ele>171.0</ele><time>2026-04-04T08:32:19.002Z</time></trkpt><trkpt lat="43.526797254685064" lon="10.742440912048735"><ele>171.0</ele><time>2026-04-04T08:32:20.002Z</time></trkpt><trkpt lat="43.526738106442174" lon="10.742362309653483"><ele>171.0</ele><time>2026-04-04T08:32:21.002Z</time></trkpt><trkpt lat="43.526673255699556" lon="10.74227550708305"><ele>171.0</ele><time>2026-04-04T08:32:22.002Z</time></trkpt><trkpt lat="43.52661683709751" lon="10.74219510813719"><ele>171.0</ele><time>2026-04-04T08:32:23Z</time></trkpt><trkpt lat="43.52657213880904" lon="10.742121491862441"><ele>171.0</ele><time>2026-04-04T08:32:24Z</time></trkpt><trkpt lat="43.52650301241565" lon="10.742004713221474"><ele>171.0</ele><time>2026-04-04T08:32:26Z</time></trkpt><trkpt lat="43.526440976344965" lon="10.741907374444803"><ele>171.0</ele><time>2026-04-04T08:32:28Z</time></trkpt><trkpt lat="43.52637046300422" lon="10.741835670101278"><ele>171.0</ele><time>2026-04-04T08:32:30Z</time></trkpt><trkpt lat="43.526296786641694" lon="10.741733416416777"><ele>171.0</ele><time>2026-04-04T08:32:32Z</time></trkpt><trkpt lat="43.5262069199755" lon="10.741642493851906"><ele>170.60000000000002</ele><time>2026-04-04T08:32:34Z</time></trkpt><trkpt lat="43.5261246910213" lon="10.741546380232956"><ele>170.2</ele><time>2026-04-04T08:32:36Z</time></trkpt><trkpt lat="43.52604906977155" lon="10.741455234920146"><ele>169.8</ele><time>2026-04-04T08:32:38Z</time></trkpt><trkpt lat="43.526002367219405" lon="10.741352845650724"><ele>169.39999999999998</ele><time>2026-04-04T08:32:40Z</time></trkpt><trkpt lat="43.5259577546065" lon="10.741261786935633"><ele>169.0</ele><time>2026-04-04T08:32:43Z</time></trkpt><trkpt lat="43.52585633102489" lon="10.741281844655118"><ele>169.0</ele><time>2026-04-04T08:32:45Z</time></trkpt><trkpt lat="43.52579809477796" lon="10.741355251801"><ele>169.0</ele><time>2026-04-04T08:32:46Z</time></trkpt><trkpt lat="43.525727946834614" lon="10.74138890388095"><ele>169.0</ele><time>2026-04-04T08:32:47Z</time></trkpt><trkpt lat="43.52566021349231" lon="10.741449709121563"><ele>169.0</ele><time>2026-04-04T08:32:48Z</time></trkpt><trkpt lat="43.52558204519827" lon="10.741516927718829"><ele>169.0</ele><time>2026-04-04T08:32:49Z</time></trkpt><trkpt lat="43.5254978252366" lon="10.741587259898651"><ele>169.0</ele><time>2026-04-04T08:32:50Z</time></trkpt><trkpt lat="43.52540410847708" lon="10.741654487259952"><ele>169.75</ele><time>2026-04-04T08:32:51Z</time></trkpt><trkpt lat="43.525297510139694" lon="10.741728771284954"><ele>170.5</ele><time>2026-04-04T08:32:52Z</time></trkpt><trkpt lat="43.5251800637072" lon="10.741744083279528"><ele>171.25</ele><time>2026-04-04T08:32:53Z</time></trkpt><trkpt lat="43.52505581721196" lon="10.741790136008113"><ele>172.0</ele><time>2026-04-04T08:32:54Z</time></trkpt><trkpt lat="43.524945663205635" lon="10.741802178829154"><ele>172.0</ele><time>2026-04-04T08:32:55Z</time></trkpt><trkpt lat="43.52485313012716" lon="10.741780214558736"><ele>172.0</ele><time>2026-04-04T08:32:56Z</time></trkpt><trkpt lat="43.52477775644196" lon="10.741766304822425"><ele>172.0</ele><time>2026-04-04T08:32:57Z</time></trkpt><trkpt lat="43.52469538384766" lon="10.74174301127182"><ele>172.0</ele><time>2026-04-04T08:32:58Z</time></trkpt><trkpt lat="43.52457588578446" lon="10.741726186970272"><ele>172.0</ele><time>2026-04-04T08:32:59Z</time></trkpt><trkpt lat="43.524445131283215" lon="10.741730876814183"><ele>170.25</ele><time>2026-04-04T08:33:00Z</time></trkpt><trkpt lat="43.52431162998872" lon="10.7417791990824"><ele>168.5</ele><time>2026-04-04T08:33:01Z</time></trkpt><trkpt lat="43.52419468823649" lon="10.741826801752545"><ele>166.75</ele><time>2026-04-04T08:33:02Z</time></trkpt><trkpt lat="43.524070278870695" lon="10.74187930065132"><ele>165.0</ele><time>2026-04-04T08:33:03Z</time></trkpt><trkpt lat="43.52395910178061" lon="10.741926881374832"><ele>164.5</ele><time>2026-04-04T08:33:04Z</time></trkpt><trkpt lat="43.52386028387922" lon="10.741969172759989"><ele>164.0</ele><time>2026-04-04T08:33:05.001Z</time></trkpt><trkpt lat="43.523770961205614" lon="10.742008814783867"><ele>163.5</ele><time>2026-04-04T08:33:06.001Z</time></trkpt><trkpt lat="43.523700073394195" lon="10.74201264946258"><ele>163.0</ele><time>2026-04-04T08:33:07.001Z</time></trkpt><trkpt lat="43.523631944575975" lon="10.742023253317148"><ele>162.5</ele><time>2026-04-04T08:33:08.001Z</time></trkpt><trkpt lat="43.52355388699943" lon="10.741979490858634"><ele>162.0</ele><time>2026-04-04T08:33:09.001Z</time></trkpt><trkpt lat="43.523484484531934" lon="10.741893469534306"><ele>161.4</ele><time>2026-04-04T08:33:10.001Z</time></trkpt><trkpt lat="43.5233984017087" lon="10.741816318508015"><ele>160.79999999999998</ele><time>2026-04-04T08:33:11.001Z</time></trkpt><trkpt lat="43.523310020172026" lon="10.741735120123506"><ele>160.2</ele><time>2026-04-04T08:33:12.001Z</time></trkpt><trkpt lat="43.523216318000564" lon="10.74164698641626"><ele>159.6</ele><time>2026-04-04T08:33:13.001Z</time></trkpt><trkpt lat="43.523112745894416" lon="10.741548960144286"><ele>159.0</ele><time>2026-04-04T08:33:14.001Z</time></trkpt><trkpt lat="43.52300630916826" lon="10.741448222774135"><ele>159.0</ele><time>2026-04-04T08:33:15.001Z</time></trkpt><trkpt lat="43.522915591296965" lon="10.741354172282454"><ele>159.0</ele><time>2026-04-04T08:33:16.001Z</time></trkpt><trkpt lat="43.52282515644366" lon="10.741266923517097"><ele>159.0</ele><time>2026-04-04T08:33:17.001Z</time></trkpt><trkpt lat="43.52276319456278" lon="10.741142291434874"><ele>159.0</ele><time>2026-04-04T08:33:18.001Z</time></trkpt><trkpt lat="43.52269408435428" lon="10.741012188705566"><ele>159.25</ele><time>2026-04-04T08:33:19.001Z</time></trkpt><trkpt lat="43.522630696740556" lon="10.74085736539091"><ele>159.5</ele><time>2026-04-04T08:33:20.001Z</time></trkpt><trkpt lat="43.52256922221485" lon="10.740723546109916"><ele>159.75</ele><time>2026-04-04T08:33:21.001Z</time></trkpt><trkpt lat="43.52251031982541" lon="10.740580099959082"><ele>160.0</ele><time>2026-04-04T08:33:22.001Z</time></trkpt><trkpt lat="43.5224490671737" lon="10.740425633457576"><ele>160.0</ele><time>2026-04-04T08:33:23.001Z</time></trkpt><trkpt lat="43.522385259819025" lon="10.74026891378176"><ele>160.0</ele><time>2026-04-04T08:33:24.001Z</time></trkpt><trkpt lat="43.522323061889196" lon="10.74012243472245"><ele>160.0</ele><time>2026-04-04T08:33:25.001Z</time></trkpt><trkpt lat="43.522263368921664" lon="10.739972697763669"><ele>160.0</ele><time>2026-04-04T08:33:26.001Z</time></trkpt><trkpt lat="43.52220881865052" lon="10.739813411132973"><ele>159.0</ele><time>2026-04-04T08:33:27.001Z</time></trkpt><trkpt lat="43.52215565445894" lon="10.739657583258877"><ele>158.0</ele><time>2026-04-04T08:33:28.001Z</time></trkpt><trkpt lat="43.5220961225467" lon="10.73951653958669"><ele>157.0</ele><time>2026-04-04T08:33:29.001Z</time></trkpt><trkpt lat="43.52204704544366" lon="10.739380668551872"><ele>156.0</ele><time>2026-04-04T08:33:30.001Z</time></trkpt><trkpt lat="43.52199652351472" lon="10.739250745278971"><ele>153.6</ele><time>2026-04-04T08:33:31.001Z</time></trkpt><trkpt lat="43.52194688201339" lon="10.739117043847447"><ele>151.2</ele><time>2026-04-04T08:33:32.001Z</time></trkpt><trkpt lat="43.52189825748402" lon="10.738985920406165"><ele>148.8</ele><time>2026-04-04T08:33:33.001Z</time></trkpt><trkpt lat="43.52186073885324" lon="10.738852919196578"><ele>146.4</ele><time>2026-04-04T08:33:34.001Z</time></trkpt><trkpt lat="43.52183953406739" lon="10.738723294804013"><ele>144.0</ele><time>2026-04-04T08:33:35.001Z</time></trkpt><trkpt lat="43.52180810174936" lon="10.73850885845407"><ele>144.0</ele><time>2026-04-04T08:33:37.001Z</time></trkpt><trkpt lat="43.52178754503682" lon="10.738409862766144"><ele>144.0</ele><time>2026-04-04T08:33:38.001Z</time></trkpt><trkpt lat="43.521772908645495" lon="10.738262120625116"><ele>144.0</ele><time>2026-04-04T08:33:40.001Z</time></trkpt><trkpt lat="43.521759984004916" lon="10.73817203222737"><ele>144.0</ele><time>2026-04-04T08:33:42.001Z</time></trkpt><trkpt lat="43.52168183934514" lon="10.738114748850277"><ele>144.0</ele><time>2026-04-04T08:33:46.001Z</time></trkpt><trkpt lat="43.52156064419393" lon="10.738194563652298"><ele>144.0</ele><time>2026-04-04T08:33:48.001Z</time></trkpt><trkpt lat="43.52149868967969" lon="10.7383109379517"><ele>144.0</ele><time>2026-04-04T08:33:49.001Z</time></trkpt><trkpt lat="43.52146533594798" lon="10.738459592022991"><ele>144.0</ele><time>2026-04-04T08:33:50.001Z</time></trkpt><trkpt lat="43.521490891901124" lon="10.738642240901036"><ele>144.0</ele><time>2026-04-04T08:33:51.001Z</time></trkpt><trkpt lat="43.52155067075137" lon="10.738822585965151"><ele>144.0</ele><time>2026-04-04T08:33:52.001Z</time></trkpt><trkpt lat="43.52159849248793" lon="10.739035561665057"><ele>144.0</ele><time>2026-04-04T08:33:53.001Z</time></trkpt><trkpt lat="43.52162695381698" lon="10.739249136688082"><ele>144.0</ele><time>2026-04-04T08:33:54.001Z</time></trkpt><trkpt lat="43.521655843896056" lon="10.73945630390386"><ele>143.25</ele><time>2026-04-04T08:33:55.002Z</time></trkpt><trkpt lat="43.52166221359564" lon="10.739650448282797"><ele>142.5</ele><time>2026-04-04T08:33:56.002Z</time></trkpt><trkpt lat="43.52168234306399" lon="10.73982348512311"><ele>141.75</ele><time>2026-04-04T08:33:57.002Z</time></trkpt><trkpt lat="43.52170174399537" lon="10.739976874014403"><ele>141.0</ele><time>2026-04-04T08:33:58.002Z</time></trkpt><trkpt lat="43.52171469440433" lon="10.74011516183038"><ele>141.2</ele><time>2026-04-04T08:33:59.002Z</time></trkpt><trkpt lat="43.521718991275606" lon="10.740250748786051"><ele>141.39999999999998</ele><time>2026-04-04T08:34:00.002Z</time></trkpt><trkpt lat="43.52172883127563" lon="10.740391731376835"><ele>141.6</ele><time>2026-04-04T08:34:01.002Z</time></trkpt><trkpt lat="43.52170146636632" lon="10.740540499901792"><ele>141.79999999999998</ele><time>2026-04-04T08:34:02.002Z</time></trkpt><trkpt lat="43.52164645965264" lon="10.740680747348062"><ele>142.0</ele><time>2026-04-04T08:34:03.002Z</time></trkpt><trkpt lat="43.52160568904177" lon="10.740825287070077"><ele>142.0</ele><time>2026-04-04T08:34:04.002Z</time></trkpt><trkpt lat="43.52158564750995" lon="10.740984783157092"><ele>142.0</ele><time>2026-04-04T08:34:05.002Z</time></trkpt><trkpt lat="43.52160646571575" lon="10.741168398202989"><ele>142.0</ele><time>2026-04-04T08:34:06.002Z</time></trkpt><trkpt lat="43.52165038530611" lon="10.741350662336908"><ele>142.0</ele><time>2026-04-04T08:34:07.002Z</time></trkpt><trkpt lat="43.52169389100911" lon="10.741534784000136"><ele>141.0</ele><time>2026-04-04T08:34:08.002Z</time></trkpt><trkpt lat="43.52173414611469" lon="10.741711948749199"><ele>140.0</ele><time>2026-04-04T08:34:09.002Z</time></trkpt><trkpt lat="43.521770885090824" lon="10.741883982006366"><ele>139.0</ele><time>2026-04-04T08:34:10.002Z</time></trkpt><trkpt lat="43.52180703543718" lon="10.742054425394347"><ele>138.0</ele><time>2026-04-04T08:34:11.002Z</time></trkpt><trkpt lat="43.521855145886896" lon="10.742227069874197"><ele>133.75</ele><time>2026-04-04T08:34:12.002Z</time></trkpt><trkpt lat="43.5218952860284" lon="10.742408999909381"><ele>129.5</ele><time>2026-04-04T08:34:13.002Z</time></trkpt><trkpt lat="43.52192595498776" lon="10.742598358346672"><ele>125.25</ele><time>2026-04-04T08:34:14.002Z</time></trkpt><trkpt lat="43.52198252274665" lon="10.742778638450277"><ele>121.0</ele><time>2026-04-04T08:34:15.002Z</time></trkpt><trkpt lat="43.52204726131518" lon="10.74295362753654"><ele>120.75</ele><time>2026-04-04T08:34:16.002Z</time></trkpt><trkpt lat="43.522127964037075" lon="10.743107335281369"><ele>120.5</ele><time>2026-04-04T08:34:17.002Z</time></trkpt><trkpt lat="43.522195121693514" lon="10.743262983629835"><ele>120.25</ele><time>2026-04-04T08:34:18.002Z</time></trkpt><trkpt lat="43.52225775927314" lon="10.743405770442914"><ele>120.0</ele><time>2026-04-04T08:34:19.002Z</time></trkpt><trkpt lat="43.52231703053422" lon="10.743547578078752"><ele>120.0</ele><time>2026-04-04T08:34:20.002Z</time></trkpt><trkpt lat="43.52237091656178" lon="10.74369212268249"><ele>120.0</ele><time>2026-04-04T08:34:21.002Z</time></trkpt><trkpt lat="43.52241205651139" lon="10.743842992990261"><ele>120.0</ele><time>2026-04-04T08:34:22.002Z</time></trkpt><trkpt lat="43.52243925275466" lon="10.743997207104915"><ele>120.0</ele><time>2026-04-04T08:34:23.002Z</time></trkpt><trkpt lat="43.522449802046246" lon="10.744158832874945"><ele>120.0</ele><time>2026-04-04T08:34:24.002Z</time></trkpt><trkpt lat="43.52244056684666" lon="10.744320708919938"><ele>120.0</ele><time>2026-04-04T08:34:25.002Z</time></trkpt><trkpt lat="43.52241938558689" lon="10.744491105450452"><ele>120.0</ele><time>2026-04-04T08:34:26.002Z</time></trkpt><trkpt lat="43.52239090549007" lon="10.7446681925332"><ele>120.0</ele><time>2026-04-04T08:34:27.002Z</time></trkpt><trkpt lat="43.52234874840364" lon="10.744851574850875"><ele>118.5</ele><time>2026-04-04T08:34:28.002Z</time></trkpt><trkpt lat="43.52230795495324" lon="10.74503164075279"><ele>117.0</ele><time>2026-04-04T08:34:29Z</time></trkpt><trkpt lat="43.5222718015765" lon="10.745206586665939"><ele>115.5</ele><time>2026-04-04T08:34:30Z</time></trkpt><trkpt lat="43.522237883835864" lon="10.74538268011289"><ele>114.0</ele><time>2026-04-04T08:34:31Z</time></trkpt><trkpt lat="43.52220542258916" lon="10.745565330201531"><ele>113.0</ele><time>2026-04-04T08:34:32Z</time></trkpt><trkpt lat="43.52217400751703" lon="10.745748932330345"><ele>112.0</ele><time>2026-04-04T08:34:33Z</time></trkpt><trkpt lat="43.52214015585062" lon="10.745931277349307"><ele>111.0</ele><time>2026-04-04T08:34:34Z</time></trkpt><trkpt lat="43.5221047873344" lon="10.746108942230533"><ele>110.0</ele><time>2026-04-04T08:34:35Z</time></trkpt><trkpt lat="43.522070136393495" lon="10.746276419575779"><ele>110.75</ele><time>2026-04-04T08:34:36Z</time></trkpt><trkpt lat="43.52203582389832" lon="10.74644026601498"><ele>111.5</ele><time>2026-04-04T08:34:37Z</time></trkpt><trkpt lat="43.522003345155774" lon="10.7466054959024"><ele>112.25</ele><time>2026-04-04T08:34:38Z</time></trkpt><trkpt lat="43.52197064451073" lon="10.746767949418148"><ele>113.0</ele><time>2026-04-04T08:34:39Z</time></trkpt><trkpt lat="43.521941310077864" lon="10.746926790780847"><ele>114.2</ele><time>2026-04-04T08:34:40Z</time></trkpt><trkpt lat="43.521902565489256" lon="10.74706821467588"><ele>115.4</ele><time>2026-04-04T08:34:41Z</time></trkpt><trkpt lat="43.521852773930334" lon="10.74718879275674"><ele>116.60000000000001</ele><time>2026-04-04T08:34:42Z</time></trkpt><trkpt lat="43.52178092587241" lon="10.747280144542145"><ele>117.80000000000001</ele><time>2026-04-04T08:34:43Z</time></trkpt><trkpt lat="43.52168448752448" lon="10.747320033128206"><ele>119.0</ele><time>2026-04-04T08:34:44Z</time></trkpt><trkpt lat="43.5215728388374" lon="10.747303377478318"><ele>119.0</ele><time>2026-04-04T08:34:45Z</time></trkpt><trkpt lat="43.521464665986386" lon="10.747237170901817"><ele>119.0</ele><time>2026-04-04T08:34:46Z</time></trkpt><trkpt lat="43.52135877017999" lon="10.747132503936847"><ele>119.0</ele><time>2026-04-04T08:34:47Z</time></trkpt><trkpt lat="43.52123654653856" lon="10.747005937568924"><ele>119.0</ele><time>2026-04-04T08:34:48Z</time></trkpt><trkpt lat="43.52110541196466" lon="10.746888473663015"><ele>120.5</ele><time>2026-04-04T08:34:49Z</time></trkpt><trkpt lat="43.520983458925215" lon="10.74675980066637"><ele>122.0</ele><time>2026-04-04T08:34:50Z</time></trkpt><trkpt lat="43.52086726993218" lon="10.746638484654449"><ele>123.5</ele><time>2026-04-04T08:34:51Z</time></trkpt><trkpt lat="43.52076421945392" lon="10.746523136235567"><ele>125.0</ele><time>2026-04-04T08:34:52Z</time></trkpt><trkpt lat="43.52065732938247" lon="10.746410945990787"><ele>125.0</ele><time>2026-04-04T08:34:53Z</time></trkpt><trkpt lat="43.52053862613327" lon="10.74628354321204"><ele>125.0</ele><time>2026-04-04T08:34:54Z</time></trkpt><trkpt lat="43.520420428599216" lon="10.7461736336432"><ele>125.0</ele><time>2026-04-04T08:34:55Z</time></trkpt><trkpt lat="43.520297225860965" lon="10.746071685667768"><ele>125.0</ele><time>2026-04-04T08:34:56Z</time></trkpt><trkpt lat="43.520168998885794" lon="10.745970118153858"><ele>125.5</ele><time>2026-04-04T08:34:57Z</time></trkpt><trkpt lat="43.52003389033837" lon="10.745877359908738"><ele>126.0</ele><time>2026-04-04T08:34:58Z</time></trkpt><trkpt lat="43.519896479651536" lon="10.745801123151276"><ele>126.5</ele><time>2026-04-04T08:34:59Z</time></trkpt><trkpt lat="43.51975479876758" lon="10.745751661712305"><ele>127.0</ele><time>2026-04-04T08:35:00Z</time></trkpt><trkpt lat="43.51963101987783" lon="10.745715419802455"><ele>128.2</ele><time>2026-04-04T08:35:01Z</time></trkpt><trkpt lat="43.519521212458855" lon="10.745681297251727"><ele>129.39999999999998</ele><time>2026-04-04T08:35:02Z</time></trkpt><trkpt lat="43.51942133520824" lon="10.745651287044513"><ele>130.60000000000002</ele><time>2026-04-04T08:35:03Z</time></trkpt><trkpt lat="43.51932418460522" lon="10.745618753743925"><ele>131.8</ele><time>2026-04-04T08:35:04Z</time></trkpt><trkpt lat="43.519228245547154" lon="10.745597013520698"><ele>133.0</ele><time>2026-04-04T08:35:05Z</time></trkpt><trkpt lat="43.519137347027666" lon="10.745599482004916"><ele>133.0</ele><time>2026-04-04T08:35:06Z</time></trkpt><trkpt lat="43.5190650565307" lon="10.745652712640384"><ele>133.0</ele><time>2026-04-04T08:35:07Z</time></trkpt><trkpt lat="43.51901786290293" lon="10.74573225919617"><ele>133.0</ele><time>2026-04-04T08:35:08Z</time></trkpt><trkpt lat="43.51900259573416" lon="10.745827432905745"><ele>133.0</ele><time>2026-04-04T08:35:09Z</time></trkpt><trkpt lat="43.51898676621316" lon="10.745947240364151"><ele>133.0</ele><time>2026-04-04T08:35:10Z</time></trkpt><trkpt lat="43.51898094010609" lon="10.74603570300583"><ele>133.0</ele><time>2026-04-04T08:35:11Z</time></trkpt><trkpt lat="43.51895401163386" lon="10.74642391962798"><ele>133.0</ele><time>2026-04-04T08:35:12.001Z</time></trkpt><trkpt lat="43.51894614134801" lon="10.74662979667048"><ele>133.0</ele><time>2026-04-04T08:35:13.001Z</time></trkpt><trkpt lat="43.51892763065382" lon="10.74684613568512"><ele>133.0</ele><time>2026-04-04T08:35:14.001Z</time></trkpt><trkpt lat="43.51886244583266" lon="10.747058950687268"><ele>133.0</ele><time>2026-04-04T08:35:15.001Z</time></trkpt><trkpt lat="43.51880630288992" lon="10.747280998757248"><ele>133.0</ele><time>2026-04-04T08:35:16.001Z</time></trkpt><trkpt lat="43.518750843089116" lon="10.747499911058632"><ele>133.0</ele><time>2026-04-04T08:35:17.001Z</time></trkpt><trkpt lat="43.5186986459931" lon="10.747706831389635"><ele>131.33333333333334</ele><time>2026-04-04T08:35:18.001Z</time></trkpt><trkpt lat="43.51864803719108" lon="10.747908231954192"><ele>129.66666666666666</ele><time>2026-04-04T08:35:19.001Z</time></trkpt><trkpt lat="43.51859893483017" lon="10.748103637558346"><ele>128.0</ele><time>2026-04-04T08:35:20.001Z</time></trkpt><trkpt lat="43.518559627589816" lon="10.748302299995776"><ele>128.0</ele><time>2026-04-04T08:35:21.001Z</time></trkpt><trkpt lat="43.51851127103173" lon="10.748495388372334"><ele>128.0</ele><time>2026-04-04T08:35:22.001Z</time></trkpt><trkpt lat="43.51845967344793" lon="10.748684318563964"><ele>128.0</ele><time>2026-04-04T08:35:23.001Z</time></trkpt><trkpt lat="43.518409464548334" lon="10.748866954298608"><ele>128.0</ele><time>2026-04-04T08:35:24.001Z</time></trkpt><trkpt lat="43.518364775251996" lon="10.74904801707941"><ele>128.5</ele><time>2026-04-04T08:35:25.001Z</time></trkpt><trkpt lat="43.51832028504803" lon="10.749231018073777"><ele>129.0</ele><time>2026-04-04T08:35:26.001Z</time></trkpt><trkpt lat="43.518277216615054" lon="10.749412638012046"><ele>129.5</ele><time>2026-04-04T08:35:27.001Z</time></trkpt><trkpt lat="43.51823635427937" lon="10.749596106155195"><ele>130.0</ele><time>2026-04-04T08:35:28.001Z</time></trkpt><trkpt lat="43.51819028242106" lon="10.74977727652301"><ele>130.25</ele><time>2026-04-04T08:35:29.001Z</time></trkpt><trkpt lat="43.51814635126213" lon="10.749960608163162"><ele>130.5</ele><time>2026-04-04T08:35:30.001Z</time></trkpt><trkpt lat="43.5181050840114" lon="10.750138167404284"><ele>130.75</ele><time>2026-04-04T08:35:31.001Z</time></trkpt><trkpt lat="43.51806120720227" lon="10.750317912667551"><ele>131.0</ele><time>2026-04-04T08:35:32.001Z</time></trkpt><trkpt lat="43.51801698232053" lon="10.750506531635091"><ele>130.5</ele><time>2026-04-04T08:35:33.001Z</time></trkpt><trkpt lat="43.51797257378679" lon="10.75069402759868"><ele>130.0</ele><time>2026-04-04T08:35:34.001Z</time></trkpt><trkpt lat="43.51791887014221" lon="10.750885804152453"><ele>129.5</ele><time>2026-04-04T08:35:35.001Z</time></trkpt><trkpt lat="43.51788587855905" lon="10.75108071303645"><ele>129.0</ele><time>2026-04-04T08:35:36.001Z</time></trkpt><trkpt lat="43.517861416752496" lon="10.751278683998015"><ele>129.0</ele><time>2026-04-04T08:35:37.001Z</time></trkpt><trkpt lat="43.51784738997217" lon="10.751481267417086"><ele>129.0</ele><time>2026-04-04T08:35:38.001Z</time></trkpt><trkpt lat="43.51784859061993" lon="10.75168291899413"><ele>129.0</ele><time>2026-04-04T08:35:39.001Z</time></trkpt><trkpt lat="43.517856871530945" lon="10.751876830289795"><ele>129.0</ele><time>2026-04-04T08:35:40.001Z</time></trkpt><trkpt lat="43.517866974261665" lon="10.75207085146589"><ele>129.0</ele><time>2026-04-04T08:35:41.001Z</time></trkpt><trkpt lat="43.51787583283865" lon="10.752260109270432"><ele>129.0</ele><time>2026-04-04T08:35:42.001Z</time></trkpt><trkpt lat="43.51787678007936" lon="10.752452801893071"><ele>129.0</ele><time>2026-04-04T08:35:43.001Z</time></trkpt><trkpt lat="43.517867285242254" lon="10.75264027979956"><ele>129.0</ele><time>2026-04-04T08:35:44.001Z</time></trkpt><trkpt lat="43.51785064876071" lon="10.752829285162447"><ele>129.25</ele><time>2026-04-04T08:35:45.001Z</time></trkpt><trkpt lat="43.51783108658876" lon="10.753014623571326"><ele>129.5</ele><time>2026-04-04T08:35:46.001Z</time></trkpt><trkpt lat="43.517790670891216" lon="10.753187528361952"><ele>129.75</ele><time>2026-04-04T08:35:47.001Z</time></trkpt><trkpt lat="43.51776589788859" lon="10.753367281028329"><ele>130.0</ele><time>2026-04-04T08:35:48.001Z</time></trkpt><trkpt lat="43.51773338988365" lon="10.753548120474083"><ele>131.75</ele><time>2026-04-04T08:35:49.001Z</time></trkpt><trkpt lat="43.517680283532044" lon="10.75371638666807"><ele>133.5</ele><time>2026-04-04T08:35:50.001Z</time></trkpt><trkpt lat="43.51761209131245" lon="10.753870882126956"><ele>135.25</ele><time>2026-04-04T08:35:51.001Z</time></trkpt><trkpt lat="43.51753000131485" lon="10.754006803294255"><ele>137.0</ele><time>2026-04-04T08:35:52.001Z</time></trkpt><trkpt lat="43.517441106789434" lon="10.754125850768256"><ele>137.0</ele><time>2026-04-04T08:35:53.001Z</time></trkpt><trkpt lat="43.51733720748479" lon="10.754235818300497"><ele>137.0</ele><time>2026-04-04T08:35:54.001Z</time></trkpt><trkpt lat="43.517231260095436" lon="10.754345886869915"><ele>137.0</ele><time>2026-04-04T08:35:55.001Z</time></trkpt><trkpt lat="43.51712514372761" lon="10.75446456605328"><ele>137.0</ele><time>2026-04-04T08:35:56.001Z</time></trkpt><trkpt lat="43.51701966112397" lon="10.754594553106939"><ele>138.0</ele><time>2026-04-04T08:35:57.001Z</time></trkpt><trkpt lat="43.516902147485354" lon="10.754698528397302"><ele>139.0</ele><time>2026-04-04T08:35:58.001Z</time></trkpt><trkpt lat="43.516789789474835" lon="10.754825991157313"><ele>140.0</ele><time>2026-04-04T08:35:59.002Z</time></trkpt><trkpt lat="43.51668028096879" lon="10.754958149711292"><ele>141.0</ele><time>2026-04-04T08:36:00.002Z</time></trkpt><trkpt lat="43.516557306021085" lon="10.755092252103424"><ele>139.66666666666666</ele><time>2026-04-04T08:36:01.002Z</time></trkpt><trkpt lat="43.516441918783705" lon="10.755221352632347"><ele>138.33333333333331</ele><time>2026-04-04T08:36:02.002Z</time></trkpt><trkpt lat="43.516315686237746" lon="10.755333057226435"><ele>137.0</ele><time>2026-04-04T08:36:03.002Z</time></trkpt><trkpt lat="43.516183211787066" lon="10.755447911573183"><ele>136.33333333333331</ele><time>2026-04-04T08:36:04.002Z</time></trkpt><trkpt lat="43.51600800876585" lon="10.755522753965309"><ele>135.66666666666666</ele><time>2026-04-04T08:36:05.002Z</time></trkpt><trkpt lat="43.51581250699367" lon="10.755540823816364"><ele>135.0</ele><time>2026-04-04T08:36:06.002Z</time></trkpt><trkpt lat="43.51559348292892" lon="10.755526053215256"><ele>139.5</ele><time>2026-04-04T08:36:07.002Z</time></trkpt><trkpt lat="43.51517043631509" lon="10.755544090545754"><ele>144.0</ele><time>2026-04-04T08:36:09.002Z</time></trkpt><trkpt lat="43.51499530127841" lon="10.755595861609741"><ele>144.0</ele><time>2026-04-04T08:36:10.002Z</time></trkpt><trkpt lat="43.514839726342245" lon="10.75563059494044"><ele>144.0</ele><time>2026-04-04T08:36:11.002Z</time></trkpt><trkpt lat="43.51470136519044" lon="10.75564855477449"><ele>144.0</ele><time>2026-04-04T08:36:12.002Z</time></trkpt><trkpt lat="43.514564698809615" lon="10.755633977240564"><ele>144.0</ele><time>2026-04-04T08:36:13.002Z</time></trkpt><trkpt lat="43.51442642495606" lon="10.755597816659774"><ele>145.5</ele><time>2026-04-04T08:36:14.002Z</time></trkpt><trkpt lat="43.51429754939818" lon="10.75555090222977"><ele>147.0</ele><time>2026-04-04T08:36:15.002Z</time></trkpt><trkpt lat="43.51418000747452" lon="10.755496208510282"><ele>148.5</ele><time>2026-04-04T08:36:16.002Z</time></trkpt><trkpt lat="43.51406444661327" lon="10.755440076996036"><ele>150.0</ele><time>2026-04-04T08:36:17.002Z</time></trkpt><trkpt lat="43.513946738697555" lon="10.755419242197355"><ele>150.0</ele><time>2026-04-04T08:36:18.002Z</time></trkpt><trkpt lat="43.51381837639107" lon="10.755441304267425"><ele>150.0</ele><time>2026-04-04T08:36:19.002Z</time></trkpt><trkpt lat="43.51368943839013" lon="10.755511055768311"><ele>150.0</ele><time>2026-04-04T08:36:20.002Z</time></trkpt><trkpt lat="43.5135638753688" lon="10.755622745336915"><ele>150.0</ele><time>2026-04-04T08:36:21.002Z</time></trkpt><trkpt lat="43.513437003450186" lon="10.755746973890643"><ele>147.5</ele><time>2026-04-04T08:36:22.002Z</time></trkpt><trkpt lat="43.51331444644421" lon="10.755868435463936"><ele>145.0</ele><time>2026-04-04T08:36:23.002Z</time></trkpt><trkpt lat="43.51319836496308" lon="10.755981753372815"><ele>142.5</ele><time>2026-04-04T08:36:24.002Z</time></trkpt><trkpt lat="43.513079138288994" lon="10.756050717105047"><ele>140.0</ele><time>2026-04-04T08:36:25.002Z</time></trkpt><trkpt lat="43.51297333542738" lon="10.75614136141198"><ele>139.75</ele><time>2026-04-04T08:36:26.002Z</time></trkpt><trkpt lat="43.5128477323813" lon="10.756177338914005"><ele>139.5</ele><time>2026-04-04T08:36:27.002Z</time></trkpt><trkpt lat="43.512724277273655" lon="10.75622524674715"><ele>139.25</ele><time>2026-04-04T08:36:28.002Z</time></trkpt><trkpt lat="43.512603267292334" lon="10.756271241973856"><ele>139.0</ele><time>2026-04-04T08:36:29.002Z</time></trkpt><trkpt lat="43.51248135497479" lon="10.756340668280725"><ele>139.0</ele><time>2026-04-04T08:36:30.002Z</time></trkpt><trkpt lat="43.512344456183676" lon="10.756379845646263"><ele>139.0</ele><time>2026-04-04T08:36:31.002Z</time></trkpt><trkpt lat="43.512217093915254" lon="10.75643486081658"><ele>139.0</ele><time>2026-04-04T08:36:32.002Z</time></trkpt><trkpt lat="43.51208764178636" lon="10.756478547703258"><ele>139.0</ele><time>2026-04-04T08:36:33.002Z</time></trkpt><trkpt lat="43.511963279398714" lon="10.756535353241897"><ele>139.5</ele><time>2026-04-04T08:36:34.002Z</time></trkpt><trkpt lat="43.51183181096398" lon="10.756587881113203"><ele>140.0</ele><time>2026-04-04T08:36:35Z</time></trkpt><trkpt lat="43.511704468606844" lon="10.756644140468056"><ele>140.5</ele><time>2026-04-04T08:36:36Z</time></trkpt><trkpt lat="43.511570688201346" lon="10.756705236592147"><ele>141.0</ele><time>2026-04-04T08:36:37Z</time></trkpt><trkpt lat="43.51144043959088" lon="10.756769501174775"><ele>141.0</ele><time>2026-04-04T08:36:38Z</time></trkpt><trkpt lat="43.5113087123958" lon="10.75682585699339"><ele>141.0</ele><time>2026-04-04T08:36:39Z</time></trkpt><trkpt lat="43.51118263295569" lon="10.756877566907956"><ele>141.0</ele><time>2026-04-04T08:36:40Z</time></trkpt><trkpt lat="43.511060998176795" lon="10.75692367390397"><ele>141.0</ele><time>2026-04-04T08:36:41Z</time></trkpt><trkpt lat="43.51094829219686" lon="10.756963686417901"><ele>140.6</ele><time>2026-04-04T08:36:42Z</time></trkpt><trkpt lat="43.51084424615527" lon="10.75699894100991"><ele>140.2</ele><time>2026-04-04T08:36:43Z</time></trkpt><trkpt lat="43.51074746104577" lon="10.757018883732746"><ele>139.8</ele><time>2026-04-04T08:36:44Z</time></trkpt><trkpt lat="43.51065513765979" lon="10.75703362836226"><ele>139.4</ele><time>2026-04-04T08:36:45Z</time></trkpt><trkpt lat="43.51056195346062" lon="10.757049436321603"><ele>139.0</ele><time>2026-04-04T08:36:46Z</time></trkpt><trkpt lat="43.51047272075116" lon="10.757063686713535"><ele>140.5</ele><time>2026-04-04T08:36:47Z</time></trkpt><trkpt lat="43.51038625446161" lon="10.75708165922116"><ele>142.0</ele><time>2026-04-04T08:36:48Z</time></trkpt><trkpt lat="43.51030089717018" lon="10.7571047900996"><ele>143.5</ele><time>2026-04-04T08:36:49Z</time></trkpt><trkpt lat="43.51021209550517" lon="10.757128302975733"><ele>145.0</ele><time>2026-04-04T08:36:50Z</time></trkpt><trkpt lat="43.51012192688507" lon="10.757156806823891"><ele>146.5</ele><time>2026-04-04T08:36:51Z</time></trkpt><trkpt lat="43.51003412453735" lon="10.75719058484247"><ele>148.0</ele><time>2026-04-04T08:36:52Z</time></trkpt><trkpt lat="43.5099380721438" lon="10.757208802367094"><ele>148.0</ele><time>2026-04-04T08:36:53Z</time></trkpt><trkpt lat="43.50984316079271" lon="10.757249536941368"><ele>148.0</ele><time>2026-04-04T08:36:54Z</time></trkpt><trkpt lat="43.50974438120322" lon="10.757294431086688"><ele>148.0</ele><time>2026-04-04T08:36:55Z</time></trkpt><trkpt lat="43.50965061366576" lon="10.757349823249957"><ele>148.0</ele><time>2026-04-04T08:36:56Z</time></trkpt><trkpt lat="43.509550676601734" lon="10.757385471738095"><ele>148.0</ele><time>2026-04-04T08:36:57Z</time></trkpt><trkpt lat="43.509461435455194" lon="10.75742537087271"><ele>149.8</ele><time>2026-04-04T08:36:58Z</time></trkpt><trkpt lat="43.50937479559304" lon="10.75745862384128"><ele>151.60000000000002</ele><time>2026-04-04T08:36:59Z</time></trkpt><trkpt lat="43.50928825990966" lon="10.757449339646216"><ele>153.39999999999998</ele><time>2026-04-04T08:37:00Z</time></trkpt><trkpt lat="43.50921968247554" lon="10.75747531471879"><ele>155.2</ele><time>2026-04-04T08:37:01Z</time></trkpt><trkpt lat="43.509131077949114" lon="10.757330965876712"><ele>157.0</ele><time>2026-04-04T08:37:02Z</time></trkpt><trkpt lat="43.50903572081779" lon="10.757302685097567"><ele>157.0</ele><time>2026-04-04T08:37:03Z</time></trkpt><trkpt lat="43.50895383768344" lon="10.757231086959374"><ele>157.0</ele><time>2026-04-04T08:37:04Z</time></trkpt><trkpt lat="43.50886453877512" lon="10.757166122902571"><ele>157.0</ele><time>2026-04-04T08:37:05Z</time></trkpt><trkpt lat="43.50876292802697" lon="10.75710923177952"><ele>157.0</ele><time>2026-04-04T08:37:06Z</time></trkpt><trkpt lat="43.50864672473563" lon="10.757046097598268"><ele>157.0</ele><time>2026-04-04T08:37:07Z</time></trkpt><trkpt lat="43.508509787269915" lon="10.756954301473614"><ele>157.33333333333334</ele><time>2026-04-04T08:37:08.001Z</time></trkpt><trkpt lat="43.50837087298767" lon="10.756857438546467"><ele>157.66666666666666</ele><time>2026-04-04T08:37:09.001Z</time></trkpt><trkpt lat="43.508227896837184" lon="10.75676087581324"><ele>158.0</ele><time>2026-04-04T08:37:10.001Z</time></trkpt><trkpt lat="43.50809215252694" lon="10.756682860887073"><ele>158.0</ele><time>2026-04-04T08:37:11.001Z</time></trkpt><trkpt lat="43.50795380009915" lon="10.756609031683356"><ele>158.0</ele><time>2026-04-04T08:37:12.001Z</time></trkpt><trkpt lat="43.50782119611347" lon="10.756529355546704"><ele>158.0</ele><time>2026-04-04T08:37:13.001Z</time></trkpt><trkpt lat="43.507687577046816" lon="10.756450105764571"><ele>158.0</ele><time>2026-04-04T08:37:14.001Z</time></trkpt><trkpt lat="43.50756553901537" lon="10.756367969966202"><ele>159.5</ele><time>2026-04-04T08:37:15.001Z</time></trkpt><trkpt lat="43.50743143699205" lon="10.756291817672015"><ele>161.0</ele><time>2026-04-04T08:37:16.001Z</time></trkpt><trkpt lat="43.50730009706003" lon="10.756217502907948"><ele>162.5</ele><time>2026-04-04T08:37:17.001Z</time></trkpt><trkpt lat="43.5071769869984" lon="10.756131642666716"><ele>164.0</ele><time>2026-04-04T08:37:18.001Z</time></trkpt><trkpt lat="43.50704698765294" lon="10.756047734662484"><ele>164.0</ele><time>2026-04-04T08:37:19.001Z</time></trkpt><trkpt lat="43.50692059017203" lon="10.755974438792606"><ele>164.0</ele><time>2026-04-04T08:37:20.001Z</time></trkpt><trkpt lat="43.5067982214728" lon="10.755896027700848"><ele>164.0</ele><time>2026-04-04T08:37:21.001Z</time></trkpt><trkpt lat="43.50667627560867" lon="10.75582316376637"><ele>164.0</ele><time>2026-04-04T08:37:22.001Z</time></trkpt><trkpt lat="43.50656158251933" lon="10.75576249711762"><ele>164.0</ele><time>2026-04-04T08:37:23.001Z</time></trkpt><trkpt lat="43.506458564802834" lon="10.755680831395487"><ele>164.0</ele><time>2026-04-04T08:37:24.001Z</time></trkpt><trkpt lat="43.50636287550521" lon="10.755638848795057"><ele>164.0</ele><time>2026-04-04T08:37:25.001Z</time></trkpt><trkpt lat="43.50627104493978" lon="10.75563815533771"><ele>164.0</ele><time>2026-04-04T08:37:26.001Z</time></trkpt><trkpt lat="43.50620474541228" lon="10.755634806736005"><ele>164.0</ele><time>2026-04-04T08:37:27.001Z</time></trkpt><trkpt lat="43.50610909990669" lon="10.755601990081468"><ele>164.2</ele><time>2026-04-04T08:37:29.001Z</time></trkpt><trkpt lat="43.50598818638823" lon="10.755562231738335"><ele>164.39999999999998</ele><time>2026-04-04T08:37:31.001Z</time></trkpt><trkpt lat="43.505934799724" lon="10.755502395467435"><ele>164.6</ele><time>2026-04-04T08:37:32.001Z</time></trkpt><trkpt lat="43.505876980616925" lon="10.755425876940022"><ele>164.8</ele><time>2026-04-04T08:37:33.001Z</time></trkpt><trkpt lat="43.50581343611206" lon="10.75533180173555"><ele>165.0</ele><time>2026-04-04T08:37:34.001Z</time></trkpt><trkpt lat="43.5057650315916" lon="10.755200844599951"><ele>165.0</ele><time>2026-04-04T08:37:35.001Z</time></trkpt><trkpt lat="43.50571389580739" lon="10.755064282588865"><ele>165.0</ele><time>2026-04-04T08:37:36.001Z</time></trkpt><trkpt lat="43.505659515200044" lon="10.754931284335903"><ele>165.0</ele><time>2026-04-04T08:37:37.001Z</time></trkpt><trkpt lat="43.505611700887094" lon="10.754801391725831"><ele>165.0</ele><time>2026-04-04T08:37:38.001Z</time></trkpt><trkpt lat="43.50556630360949" lon="10.754703981659233"><ele>165.0</ele><time>2026-04-04T08:37:39.001Z</time></trkpt><trkpt lat="43.50551764728812" lon="10.754595689152366"><ele>165.0</ele><time>2026-04-04T08:37:40.001Z</time></trkpt><trkpt lat="43.505472790951714" lon="10.754479385943378"><ele>165.0</ele><time>2026-04-04T08:37:41.001Z</time></trkpt><trkpt lat="43.505416509325954" lon="10.754372329880233"><ele>165.0</ele><time>2026-04-04T08:37:42.001Z</time></trkpt><trkpt lat="43.50538009930206" lon="10.754270569406268"><ele>165.0</ele><time>2026-04-04T08:37:43.001Z</time></trkpt><trkpt lat="43.50536383904894" lon="10.754172531626544"><ele>165.0</ele><time>2026-04-04T08:37:44.001Z</time></trkpt><trkpt lat="43.50535451316902" lon="10.75408465512891"><ele>165.0</ele><time>2026-04-04T08:37:45.001Z</time></trkpt><trkpt lat="43.50534187002942" lon="10.753991737171242"><ele>164.85714285714286</ele><time>2026-04-04T08:37:46.001Z</time></trkpt><trkpt lat="43.50533248690234" lon="10.753897979883979"><ele>164.71428571428572</ele><time>2026-04-04T08:37:47.001Z</time></trkpt><trkpt lat="43.50532016149905" lon="10.753802605060443"><ele>164.57142857142856</ele><time>2026-04-04T08:37:48.001Z</time></trkpt><trkpt lat="43.505306563710725" lon="10.753707415242483"><ele>164.42857142857144</ele><time>2026-04-04T08:37:49.001Z</time></trkpt><trkpt lat="43.50529731196355" lon="10.7536121809585"><ele>164.28571428571428</ele><time>2026-04-04T08:37:50.001Z</time></trkpt><trkpt lat="43.505276277804455" lon="10.753509255236631"><ele>164.14285714285714</ele><time>2026-04-04T08:37:51.001Z</time></trkpt><trkpt lat="43.50525013973062" lon="10.753390524795726"><ele>164.0</ele><time>2026-04-04T08:37:52.001Z</time></trkpt><trkpt lat="43.50521488906555" lon="10.753270209464072"><ele>164.0</ele><time>2026-04-04T08:37:53.001Z</time></trkpt><trkpt lat="43.50518863466945" lon="10.753131555219278"><ele>164.0</ele><time>2026-04-04T08:37:54.001Z</time></trkpt><trkpt lat="43.505126368833096" lon="10.753010872152101"><ele>164.0</ele><time>2026-04-04T08:37:55.001Z</time></trkpt><trkpt lat="43.50508542256592" lon="10.752877738793488"><ele>164.0</ele><time>2026-04-04T08:37:56.002Z</time></trkpt><trkpt lat="43.50503012681993" lon="10.752744630751412"><ele>164.0</ele><time>2026-04-04T08:37:57.002Z</time></trkpt><trkpt lat="43.504979129726806" lon="10.75261163106236"><ele>164.2</ele><time>2026-04-04T08:37:58.002Z</time></trkpt><trkpt lat="43.50494843393282" lon="10.752465809435803"><ele>164.39999999999998</ele><time>2026-04-04T08:37:59.002Z</time></trkpt><trkpt lat="43.50493354357956" lon="10.752316023967309"><ele>164.6</ele><time>2026-04-04T08:38:00.002Z</time></trkpt><trkpt lat="43.50492454050472" lon="10.752168346108679"><ele>164.8</ele><time>2026-04-04T08:38:01.002Z</time></trkpt><trkpt lat="43.50491215552101" lon="10.752023457790045"><ele>165.0</ele><time>2026-04-04T08:38:02.002Z</time></trkpt><trkpt lat="43.504895114872504" lon="10.75187911329056"><ele>164.6</ele><time>2026-04-04T08:38:03.002Z</time></trkpt><trkpt lat="43.50488402181103" lon="10.751744159078203"><ele>164.2</ele><time>2026-04-04T08:38:04.002Z</time></trkpt><trkpt lat="43.504868304714854" lon="10.751620968242596"><ele>163.8</ele><time>2026-04-04T08:38:05.002Z</time></trkpt><trkpt lat="43.50484912523726" lon="10.751502819835178"><ele>163.4</ele><time>2026-04-04T08:38:06.002Z</time></trkpt><trkpt lat="43.50483017739903" lon="10.751380880778829"><ele>163.0</ele><time>2026-04-04T08:38:07.002Z</time></trkpt><trkpt lat="43.50482799667164" lon="10.751254669595873"><ele>163.0</ele><time>2026-04-04T08:38:08.002Z</time></trkpt><trkpt lat="43.504813165766485" lon="10.751140058811169"><ele>163.0</ele><time>2026-04-04T08:38:09.002Z</time></trkpt><trkpt lat="43.50478192647356" lon="10.751028675728717"><ele>163.0</ele><time>2026-04-04T08:38:10.002Z</time></trkpt><trkpt lat="43.504771235494836" lon="10.750909978554812"><ele>163.0</ele><time>2026-04-04T08:38:11.002Z</time></trkpt><trkpt lat="43.50475499901047" lon="10.75079246440479"><ele>163.0</ele><time>2026-04-04T08:38:12.002Z</time></trkpt><trkpt lat="43.5047413683663" lon="10.750677042985465"><ele>163.0</ele><time>2026-04-04T08:38:13.002Z</time></trkpt><trkpt lat="43.50472253503894" lon="10.750557699884626"><ele>163.0</ele><time>2026-04-04T08:38:14.002Z</time></trkpt><trkpt lat="43.50470744142507" lon="10.750437010744978"><ele>163.0</ele><time>2026-04-04T08:38:15.002Z</time></trkpt><trkpt lat="43.50471090500365" lon="10.750307585100192"><ele>163.0</ele><time>2026-04-04T08:38:16.002Z</time></trkpt><trkpt lat="43.50467751835401" lon="10.750186003117298"><ele>163.0</ele><time>2026-04-04T08:38:17.002Z</time></trkpt><trkpt lat="43.504664754840306" lon="10.750056611794077"><ele>163.0</ele><time>2026-04-04T08:38:18.002Z</time></trkpt><trkpt lat="43.50464837945105" lon="10.749912214445033"><ele>162.25</ele><time>2026-04-04T08:38:19.002Z</time></trkpt><trkpt lat="43.50464007229999" lon="10.749749315010927"><ele>161.5</ele><time>2026-04-04T08:38:20.002Z</time></trkpt><trkpt lat="43.50461181067515" lon="10.749595206623862"><ele>160.75</ele><time>2026-04-04T08:38:21.002Z</time></trkpt><trkpt lat="43.50460227775142" lon="10.749444034862847"><ele>160.0</ele><time>2026-04-04T08:38:22.002Z</time></trkpt><trkpt lat="43.504591766049955" lon="10.749287414758456"><ele>161.8</ele><time>2026-04-04T08:38:23.002Z</time></trkpt><trkpt lat="43.504547735810995" lon="10.749156424733275"><ele>163.6</ele><time>2026-04-04T08:38:24.002Z</time></trkpt><trkpt lat="43.5045055778073" lon="10.749026482653118"><ele>165.39999999999998</ele><time>2026-04-04T08:38:25.002Z</time></trkpt><trkpt lat="43.50446218504741" lon="10.74890876593642"><ele>167.2</ele><time>2026-04-04T08:38:26.002Z</time></trkpt><trkpt lat="43.50441605497937" lon="10.748805317662319"><ele>169.0</ele><time>2026-04-04T08:38:27.002Z</time></trkpt><trkpt lat="43.50437875623276" lon="10.748705717547095"><ele>169.0</ele><time>2026-04-04T08:38:28.002Z</time></trkpt><trkpt lat="43.50433786014582" lon="10.748618376161996"><ele>169.0</ele><time>2026-04-04T08:38:29.002Z</time></trkpt><trkpt lat="43.50430650448351" lon="10.748523142034147"><ele>169.0</ele><time>2026-04-04T08:38:30.002Z</time></trkpt><trkpt lat="43.50426555136037" lon="10.748438436997063"><ele>169.0</ele><time>2026-04-04T08:38:31.002Z</time></trkpt><trkpt lat="43.504221238384226" lon="10.748346782658379"><ele>169.0</ele><time>2026-04-04T08:38:32.002Z</time></trkpt><trkpt lat="43.50417468294337" lon="10.748250490115808"><ele>169.0</ele><time>2026-04-04T08:38:33.002Z</time></trkpt><trkpt lat="43.504128287893984" lon="10.748146741369032"><ele>167.0</ele><time>2026-04-04T08:38:34.002Z</time></trkpt><trkpt lat="43.504073277127894" lon="10.748036144415867"><ele>165.0</ele><time>2026-04-04T08:38:35.002Z</time></trkpt><trkpt lat="43.50405107349136" lon="10.747889369714517"><ele>163.0</ele><time>2026-04-04T08:38:36.002Z</time></trkpt><trkpt lat="43.50402665210929" lon="10.747740966466935"><ele>161.0</ele><time>2026-04-04T08:38:37.002Z</time></trkpt><trkpt lat="43.50400023236087" lon="10.747599750761056"><ele>159.0</ele><time>2026-04-04T08:38:38.002Z</time></trkpt><trkpt lat="43.50397042807445" lon="10.747471803141213"><ele>158.6</ele><time>2026-04-04T08:38:39.002Z</time></trkpt><trkpt lat="43.50393216995801" lon="10.747352960596462"><ele>158.2</ele><time>2026-04-04T08:38:40.002Z</time></trkpt><trkpt lat="43.50389783613463" lon="10.747229081314918"><ele>157.79999999999998</ele><time>2026-04-04T08:38:41Z</time></trkpt><trkpt lat="43.5038252692553" lon="10.74713066935676"><ele>157.4</ele><time>2026-04-04T08:38:42Z</time></trkpt><trkpt lat="43.50374929634605" lon="10.7470591467317"><ele>157.0</ele><time>2026-04-04T08:38:43Z</time></trkpt><trkpt lat="43.50367916679072" lon="10.74700349540114"><ele>157.0</ele><time>2026-04-04T08:38:44Z</time></trkpt><trkpt lat="43.503618787093885" lon="10.746962751950912"><ele>157.0</ele><time>2026-04-04T08:38:45Z</time></trkpt><trkpt lat="43.50355388563968" lon="10.74693234136822"><ele>157.0</ele><time>2026-04-04T08:38:46Z</time></trkpt><trkpt lat="43.503442700365596" lon="10.746892912237428"><ele>157.0</ele><time>2026-04-04T08:38:48Z</time></trkpt><trkpt lat="43.50336150353342" lon="10.746865701700496"><ele>157.0</ele><time>2026-04-04T08:38:50Z</time></trkpt><trkpt lat="43.503257299455" lon="10.746834354523605"><ele>157.0</ele><time>2026-04-04T08:38:53Z</time></trkpt><trkpt lat="43.50318775806104" lon="10.746838123966214"><ele>153.2</ele><time>2026-04-04T08:38:55Z</time></trkpt><trkpt lat="43.50307670661992" lon="10.746818174800827"><ele>149.39999999999998</ele><time>2026-04-04T08:38:57Z</time></trkpt><trkpt lat="43.50294970488397" lon="10.746816470925538"><ele>145.60000000000002</ele><time>2026-04-04T08:38:59Z</time></trkpt><trkpt lat="43.50288380682297" lon="10.746813769112812"><ele>141.8</ele><time>2026-04-04T08:39:00Z</time></trkpt><trkpt lat="43.502772781761784" lon="10.7468137373972"><ele>138.0</ele><time>2026-04-04T08:39:02Z</time></trkpt><trkpt lat="43.50267273435987" lon="10.74680953448651"><ele>137.8</ele><time>2026-04-04T08:39:04Z</time></trkpt><trkpt lat="43.50257429681254" lon="10.746813242745667"><ele>137.60000000000002</ele><time>2026-04-04T08:39:06Z</time></trkpt><trkpt lat="43.50246960226008" lon="10.746819183968453"><ele>137.39999999999998</ele><time>2026-04-04T08:39:08Z</time></trkpt><trkpt lat="43.50234862669166" lon="10.746800647561004"><ele>137.2</ele><time>2026-04-04T08:39:10Z</time></trkpt><trkpt lat="43.50228345958022" lon="10.746787218579197"><ele>137.0</ele><time>2026-04-04T08:39:11Z</time></trkpt><trkpt lat="43.50221488452645" lon="10.746772656305087"><ele>137.00000000000003</ele><time>2026-04-04T08:39:12Z</time></trkpt><trkpt lat="43.50214567483301" lon="10.746771764193834"><ele>137.0</ele><time>2026-04-04T08:39:13Z</time></trkpt><trkpt lat="43.50207634811086" lon="10.746777076874574"><ele>137.0</ele><time>2026-04-04T08:39:14Z</time></trkpt><trkpt lat="43.50200770392763" lon="10.746786362513891"><ele>137.0</ele><time>2026-04-04T08:39:15Z</time></trkpt><trkpt lat="43.501935956696656" lon="10.74682005818736"><ele>137.0</ele><time>2026-04-04T08:39:16Z</time></trkpt><trkpt lat="43.50187144927608" lon="10.746850027955535"><ele>137.00000000000003</ele><time>2026-04-04T08:39:17Z</time></trkpt><trkpt lat="43.50180888602976" lon="10.746902544759502"><ele>137.0</ele><time>2026-04-04T08:39:18Z</time></trkpt><trkpt lat="43.5017426535755" lon="10.746975221680428"><ele>137.83333333333331</ele><time>2026-04-04T08:39:19.001Z</time></trkpt><trkpt lat="43.501684822906206" lon="10.747050423508357"><ele>138.66666666666666</ele><time>2026-04-04T08:39:20.001Z</time></trkpt><trkpt lat="43.501632529036605" lon="10.747130376113846"><ele>139.5</ele><time>2026-04-04T08:39:21.001Z</time></trkpt><trkpt lat="43.50158934412858" lon="10.747203197441236"><ele>140.33333333333334</ele><time>2026-04-04T08:39:22.001Z</time></trkpt><trkpt lat="43.5015448955098" lon="10.747276232101578"><ele>141.16666666666669</ele><time>2026-04-04T08:39:23.001Z</time></trkpt><trkpt lat="43.50149052532224" lon="10.74735645453004"><ele>142.0</ele><time>2026-04-04T08:39:24.001Z</time></trkpt><trkpt lat="43.50143402350338" lon="10.7474311354898"><ele>142.0</ele><time>2026-04-04T08:39:25.001Z</time></trkpt><trkpt lat="43.50137784257413" lon="10.74749865575633"><ele>142.0</ele><time>2026-04-04T08:39:26.001Z</time></trkpt><trkpt lat="43.501334530217036" lon="10.747578378722855"><ele>142.0</ele><time>2026-04-04T08:39:27.001Z</time></trkpt><trkpt lat="43.50127819637826" lon="10.747617403008675"><ele>142.0</ele><time>2026-04-04T08:39:28.001Z</time></trkpt><trkpt lat="43.501227027086955" lon="10.747681418827714"><ele>142.0</ele><time>2026-04-04T08:39:29.001Z</time></trkpt><trkpt lat="43.50116811606566" lon="10.747763987448801"><ele>142.0</ele><time>2026-04-04T08:39:30.001Z</time></trkpt><trkpt lat="43.501123673024296" lon="10.747860479982219"><ele>142.0</ele><time>2026-04-04T08:39:31.001Z</time></trkpt><trkpt lat="43.50110320218344" lon="10.747972516019415"><ele>138.2</ele><time>2026-04-04T08:39:32.001Z</time></trkpt><trkpt lat="43.50108844373206" lon="10.748133109355967"><ele>134.39999999999998</ele><time>2026-04-04T08:39:34.001Z</time></trkpt><trkpt lat="43.501042816875575" lon="10.74825938075019"><ele>130.60000000000002</ele><time>2026-04-04T08:39:36.001Z</time></trkpt><trkpt lat="43.50098835269351" lon="10.748314161838328"><ele>126.80000000000001</ele><time>2026-04-04T08:39:37.001Z</time></trkpt><trkpt lat="43.50090215697321" lon="10.748281157472347"><ele>123.0</ele><time>2026-04-04T08:39:38.001Z</time></trkpt><trkpt lat="43.50081905210567" lon="10.748281450049396"><ele>123.00000000000001</ele><time>2026-04-04T08:39:39.001Z</time></trkpt><trkpt lat="43.50074070781692" lon="10.748290815566026"><ele>123.0</ele><time>2026-04-04T08:39:40.001Z</time></trkpt><trkpt lat="43.50066728335282" lon="10.748271931286009"><ele>123.00000000000001</ele><time>2026-04-04T08:39:41.001Z</time></trkpt><trkpt lat="43.500601277746924" lon="10.748233678063901"><ele>123.00000000000001</ele><time>2026-04-04T08:39:42.001Z</time></trkpt><trkpt lat="43.50055804773628" lon="10.748147636604125"><ele>123.0</ele><time>2026-04-04T08:39:43.001Z</time></trkpt><trkpt lat="43.50054736167499" lon="10.748060602740463"><ele>123.00000000000001</ele><time>2026-04-04T08:39:44.001Z</time></trkpt><trkpt lat="43.50057146347595" lon="10.747961821337434"><ele>123.00000000000001</ele><time>2026-04-04T08:39:45.001Z</time></trkpt><trkpt lat="43.500615392030134" lon="10.74786234936832"><ele>123.0</ele><time>2026-04-04T08:39:46.001Z</time></trkpt><trkpt lat="43.500685239131506" lon="10.74777044588061"><ele>123.0</ele><time>2026-04-04T08:39:47.001Z</time></trkpt><trkpt lat="43.50075276978044" lon="10.74769291474787"><ele>123.0</ele><time>2026-04-04T08:39:48.001Z</time></trkpt><trkpt lat="43.50081203126057" lon="10.747624735935027"><ele>123.0</ele><time>2026-04-04T08:39:49.001Z</time></trkpt><trkpt lat="43.500855522880215" lon="10.747558807125339"><ele>123.0</ele><time>2026-04-04T08:39:50.001Z</time></trkpt><trkpt lat="43.50087201292342" lon="10.747470447298518"><ele>123.0</ele><time>2026-04-04T08:39:51.001Z</time></trkpt><trkpt lat="43.500852717959354" lon="10.747376603536527"><ele>122.66666666666667</ele><time>2026-04-04T08:39:52.001Z</time></trkpt><trkpt lat="43.50081068487977" lon="10.747302783270271"><ele>122.33333333333334</ele><time>2026-04-04T08:39:53.001Z</time></trkpt><trkpt lat="43.500738538793954" lon="10.74727125849764"><ele>122.0</ele><time>2026-04-04T08:39:54.001Z</time></trkpt><trkpt lat="43.50065233462818" lon="10.74728172456194"><ele>121.66666666666667</ele><time>2026-04-04T08:39:55.001Z</time></trkpt><trkpt lat="43.50056553586378" lon="10.747322347450666"><ele>121.33333333333334</ele><time>2026-04-04T08:39:56.001Z</time></trkpt><trkpt lat="43.500474677318074" lon="10.747345480688475"><ele>121.0</ele><time>2026-04-04T08:39:57.001Z</time></trkpt><trkpt lat="43.50038429990183" lon="10.747332479186344"><ele>118.0</ele><time>2026-04-04T08:39:58.001Z</time></trkpt><trkpt lat="43.500302025224514" lon="10.747326498706709"><ele>115.0</ele><time>2026-04-04T08:39:59.001Z</time></trkpt><trkpt lat="43.500226111474234" lon="10.747285402414535"><ele>112.0</ele><time>2026-04-04T08:40:00.001Z</time></trkpt><trkpt lat="43.50017926166127" lon="10.747188579731606"><ele>109.0</ele><time>2026-04-04T08:40:01.001Z</time></trkpt><trkpt lat="43.50011509745476" lon="10.74707552807297"><ele>106.0</ele><time>2026-04-04T08:40:02.001Z</time></trkpt><trkpt lat="43.50006586291991" lon="10.74693827073119"><ele>106.19999999999999</ele><time>2026-04-04T08:40:03.001Z</time></trkpt><trkpt lat="43.50001359079615" lon="10.746809701506509"><ele>106.39999999999999</ele><time>2026-04-04T08:40:04.001Z</time></trkpt><trkpt lat="43.499960501133216" lon="10.74668812713478"><ele>106.6</ele><time>2026-04-04T08:40:05.001Z</time></trkpt><trkpt lat="43.49991159808485" lon="10.746567470950888"><ele>106.8</ele><time>2026-04-04T08:40:06.001Z</time></trkpt><trkpt lat="43.49986332717047" lon="10.746447112481336"><ele>107.0</ele><time>2026-04-04T08:40:07.002Z</time></trkpt><trkpt lat="43.49981229422372" lon="10.746325673957475"><ele>107.0</ele><time>2026-04-04T08:40:08.002Z</time></trkpt><trkpt lat="43.49976513363846" lon="10.74620554632761"><ele>106.99999999999999</ele><time>2026-04-04T08:40:09.002Z</time></trkpt><trkpt lat="43.4997116492237" lon="10.74608557287912"><ele>106.99999999999999</ele><time>2026-04-04T08:40:10.002Z</time></trkpt><trkpt lat="43.49966467938073" lon="10.745968063693576"><ele>107.0</ele><time>2026-04-04T08:40:11.002Z</time></trkpt><trkpt lat="43.499613540552524" lon="10.745848293461126"><ele>107.0</ele><time>2026-04-04T08:40:12.002Z</time></trkpt><trkpt lat="43.49956470902006" lon="10.745735241168706"><ele>106.33333333333333</ele><time>2026-04-04T08:40:13.002Z</time></trkpt><trkpt lat="43.49952168724087" lon="10.745630514082366"><ele>105.66666666666666</ele><time>2026-04-04T08:40:14.002Z</time></trkpt><trkpt lat="43.49948039287151" lon="10.745528116047355"><ele>105.0</ele><time>2026-04-04T08:40:15.002Z</time></trkpt><trkpt lat="43.499440870968826" lon="10.745434735352358"><ele>104.33333333333334</ele><time>2026-04-04T08:40:16.002Z</time></trkpt><trkpt lat="43.49939859017065" lon="10.745344713839668"><ele>103.66666666666667</ele><time>2026-04-04T08:40:17.002Z</time></trkpt><trkpt lat="43.499345709647834" lon="10.745272950530126"><ele>103.0</ele><time>2026-04-04T08:40:18.002Z</time></trkpt><trkpt lat="43.49927812452642" lon="10.745224938759728"><ele>103.00000000000001</ele><time>2026-04-04T08:40:19.002Z</time></trkpt><trkpt lat="43.49920605884273" lon="10.74521045056105"><ele>103.0</ele><time>2026-04-04T08:40:20.002Z</time></trkpt><trkpt lat="43.49913736604788" lon="10.745235790562502"><ele>103.0</ele><time>2026-04-04T08:40:21.002Z</time></trkpt><trkpt lat="43.499066418346544" lon="10.745264497937233"><ele>103.0</ele><time>2026-04-04T08:40:22.002Z</time></trkpt><trkpt lat="43.49901985601171" lon="10.745360680295107"><ele>103.00000000000001</ele><time>2026-04-04T08:40:23.002Z</time></trkpt><trkpt lat="43.498984706770166" lon="10.745451808824388"><ele>103.0</ele><time>2026-04-04T08:40:24.002Z</time></trkpt><trkpt lat="43.49898338519836" lon="10.745572167923752"><ele>103.0</ele><time>2026-04-04T08:40:25.002Z</time></trkpt><trkpt lat="43.49900371936205" lon="10.74567131888132"><ele>103.0</ele><time>2026-04-04T08:40:26.002Z</time></trkpt><trkpt lat="43.499036328368724" lon="10.745785754874753"><ele>103.0</ele><time>2026-04-04T08:40:27.002Z</time></trkpt><trkpt lat="43.4990704647602" lon="10.745904027944503"><ele>103.0</ele><time>2026-04-04T08:40:28.002Z</time></trkpt><trkpt lat="43.4991013767031" lon="10.74603131161748"><ele>103.0</ele><time>2026-04-04T08:40:29.002Z</time></trkpt><trkpt lat="43.49912453462915" lon="10.746167240667464"><ele>101.80000000000001</ele><time>2026-04-04T08:40:30.002Z</time></trkpt><trkpt lat="43.49912714924642" lon="10.746319926249082"><ele>100.6</ele><time>2026-04-04T08:40:31.002Z</time></trkpt><trkpt lat="43.49912221829148" lon="10.746457625592837"><ele>99.4</ele><time>2026-04-04T08:40:32.002Z</time></trkpt><trkpt lat="43.499125207040436" lon="10.746589787565338"><ele>98.19999999999999</ele><time>2026-04-04T08:40:33.002Z</time></trkpt><trkpt lat="43.49913566466311" lon="10.746715696758313"><ele>97.0</ele><time>2026-04-04T08:40:34.002Z</time></trkpt><trkpt lat="43.499188441493715" lon="10.746814600151778"><ele>98.50000000000001</ele><time>2026-04-04T08:40:35.002Z</time></trkpt><trkpt lat="43.499255860235685" lon="10.746890147585214"><ele>100.0</ele><time>2026-04-04T08:40:36.002Z</time></trkpt><trkpt lat="43.49932691718673" lon="10.746956071994369"><ele>101.5</ele><time>2026-04-04T08:40:37.002Z</time></trkpt><trkpt lat="43.49939937460631" lon="10.747028992591924"><ele>103.0</ele><time>2026-04-04T08:40:38.002Z</time></trkpt><trkpt lat="43.49947180590858" lon="10.747102506806312"><ele>104.50000000000001</ele><time>2026-04-04T08:40:39.002Z</time></trkpt><trkpt lat="43.49954603000872" lon="10.74717627795628"><ele>106.0</ele><time>2026-04-04T08:40:40.002Z</time></trkpt><trkpt lat="43.49961592766292" lon="10.74726662055879"><ele>106.00000000000001</ele><time>2026-04-04T08:40:41.002Z</time></trkpt><trkpt lat="43.499683850003954" lon="10.747344492254067"><ele>106.0</ele><time>2026-04-04T08:40:42.002Z</time></trkpt><trkpt lat="43.49973423165849" lon="10.747421107487524"><ele>106.0</ele><time>2026-04-04T08:40:43.002Z</time></trkpt><trkpt lat="43.499766633001116" lon="10.747519832468091"><ele>106.0</ele><time>2026-04-04T08:40:44.002Z</time></trkpt><trkpt lat="43.49973005269106" lon="10.747633658232417"><ele>106.00000000000001</ele><time>2026-04-04T08:40:45.002Z</time></trkpt><trkpt lat="43.49969858220159" lon="10.747737262786062"><ele>106.0</ele><time>2026-04-04T08:40:46.002Z</time></trkpt><trkpt lat="43.499686244218715" lon="10.74785360306321"><ele>105.83333333333334</ele><time>2026-04-04T08:40:47Z</time></trkpt><trkpt lat="43.49970086805868" lon="10.747961092540246"><ele>105.66666666666667</ele><time>2026-04-04T08:40:48Z</time></trkpt><trkpt lat="43.499682937608014" lon="10.748045522910411"><ele>105.5</ele><time>2026-04-04T08:40:49Z</time></trkpt><trkpt lat="43.49961962862719" lon="10.748106739102894"><ele>105.33333333333334</ele><time>2026-04-04T08:40:50Z</time></trkpt><trkpt lat="43.49950788576852" lon="10.748099633867884"><ele>105.16666666666667</ele><time>2026-04-04T08:40:51Z</time></trkpt><trkpt lat="43.499399423115044" lon="10.748144347630639"><ele>105.0</ele><time>2026-04-04T08:40:52Z</time></trkpt><trkpt lat="43.49929482059057" lon="10.748210214440014"><ele>100.8</ele><time>2026-04-04T08:40:53Z</time></trkpt><trkpt lat="43.49919362425549" lon="10.748263853154924"><ele>96.6</ele><time>2026-04-04T08:40:54Z</time></trkpt><trkpt lat="43.49910090046152" lon="10.7483249449422"><ele>92.4</ele><time>2026-04-04T08:40:55Z</time></trkpt><trkpt lat="43.49903539550533" lon="10.748379871996349"><ele>88.2</ele><time>2026-04-04T08:40:56Z</time></trkpt><trkpt lat="43.49896417968719" lon="10.748436354021754"><ele>84.0</ele><time>2026-04-04T08:40:57Z</time></trkpt><trkpt lat="43.49894270419432" lon="10.748575261684007"><ele>83.6</ele><time>2026-04-04T08:40:58Z</time></trkpt><trkpt lat="43.49893873594284" lon="10.748709588569968"><ele>83.2</ele><time>2026-04-04T08:40:59Z</time></trkpt><trkpt lat="43.49894364891176" lon="10.74883628398487"><ele>82.8</ele><time>2026-04-04T08:41:00Z</time></trkpt><trkpt lat="43.49894147791716" lon="10.748933549706237"><ele>82.39999999999999</ele><time>2026-04-04T08:41:01Z</time></trkpt><trkpt lat="43.49889367009457" lon="10.749051958848426"><ele>82.0</ele><time>2026-04-04T08:41:03Z</time></trkpt><trkpt lat="43.49879752362143" lon="10.74901146576872"><ele>82.0</ele><time>2026-04-04T08:41:05Z</time></trkpt><trkpt lat="43.49875789954583" lon="10.748885525803205"><ele>82.0</ele><time>2026-04-04T08:41:06Z</time></trkpt><trkpt lat="43.49872753068243" lon="10.748745564258815"><ele>82.0</ele><time>2026-04-04T08:41:07Z</time></trkpt><trkpt lat="43.49868406317206" lon="10.748601247113061"><ele>82.0</ele><time>2026-04-04T08:41:08Z</time></trkpt><trkpt lat="43.498642582716734" lon="10.748458166673304"><ele>82.0</ele><time>2026-04-04T08:41:09Z</time></trkpt><trkpt lat="43.49860325648826" lon="10.748328406262996"><ele>79.39999999999999</ele><time>2026-04-04T08:41:10Z</time></trkpt><trkpt lat="43.49855791175405" lon="10.748205815758265"><ele>76.8</ele><time>2026-04-04T08:41:11Z</time></trkpt><trkpt lat="43.49851115530932" lon="10.748089738106183"><ele>74.2</ele><time>2026-04-04T08:41:12Z</time></trkpt><trkpt lat="43.49846963891955" lon="10.747978048665193"><ele>71.6</ele><time>2026-04-04T08:41:13Z</time></trkpt><trkpt lat="43.49841486635124" lon="10.747886754679449"><ele>69.0</ele><time>2026-04-04T08:41:14Z</time></trkpt><trkpt lat="43.49833176917266" lon="10.74783814558137"><ele>69.0</ele><time>2026-04-04T08:41:15Z</time></trkpt><trkpt lat="43.498242314140846" lon="10.747838015046566"><ele>69.0</ele><time>2026-04-04T08:41:16Z</time></trkpt><trkpt lat="43.498148969954606" lon="10.747878948678546"><ele>69.0</ele><time>2026-04-04T08:41:17Z</time></trkpt><trkpt lat="43.49805179729821" lon="10.747910663224497"><ele>69.0</ele><time>2026-04-04T08:41:18Z</time></trkpt><trkpt lat="43.497956104093205" lon="10.747950155655358"><ele>69.0</ele><time>2026-04-04T08:41:19Z</time></trkpt><trkpt lat="43.49785945029419" lon="10.747979098878957"><ele>68.0</ele><time>2026-04-04T08:41:20.001Z</time></trkpt><trkpt lat="43.49776228821423" lon="10.747995532634912"><ele>67.0</ele><time>2026-04-04T08:41:21.001Z</time></trkpt><trkpt lat="43.497661358885146" lon="10.748000481869983"><ele>66.0</ele><time>2026-04-04T08:41:22.001Z</time></trkpt><trkpt lat="43.49756626010505" lon="10.748001490366141"><ele>65.0</ele><time>2026-04-04T08:41:23.001Z</time></trkpt><trkpt lat="43.497478793901365" lon="10.74801697071606"><ele>64.0</ele><time>2026-04-04T08:41:24.001Z</time></trkpt><trkpt lat="43.49740231921673" lon="10.747970596639652"><ele>63.99999999999999</ele><time>2026-04-04T08:41:25.001Z</time></trkpt><trkpt lat="43.49733136114108" lon="10.747933359879806"><ele>64.0</ele><time>2026-04-04T08:41:26.001Z</time></trkpt><trkpt lat="43.497267690227325" lon="10.74789288421605"><ele>64.0</ele><time>2026-04-04T08:41:27.001Z</time></trkpt><trkpt lat="43.49722421124477" lon="10.747740347947673"><ele>64.0</ele><time>2026-04-04T08:41:29.001Z</time></trkpt><trkpt lat="43.49724640883426" lon="10.74765236773972"><ele>63.99999999999999</ele><time>2026-04-04T08:41:30.001Z</time></trkpt><trkpt lat="43.49728848590118" lon="10.74756500970598"><ele>64.0</ele><time>2026-04-04T08:41:31.001Z</time></trkpt><trkpt lat="43.497327557228374" lon="10.747476259164362"><ele>63.99999999999999</ele><time>2026-04-04T08:41:32.001Z</time></trkpt><trkpt lat="43.49735186067087" lon="10.74737554783622"><ele>64.0</ele><time>2026-04-04T08:41:33.001Z</time></trkpt><trkpt lat="43.49735348077428" lon="10.747263468125313"><ele>64.0</ele><time>2026-04-04T08:41:34.001Z</time></trkpt><trkpt lat="43.497332279236005" lon="10.747144902269799"><ele>64.0</ele><time>2026-04-04T08:41:35.001Z</time></trkpt><trkpt lat="43.49729395080759" lon="10.747024699338365"><ele>63.99999999999999</ele><time>2026-04-04T08:41:36.001Z</time></trkpt><trkpt lat="43.49723763276056" lon="10.746903590541507"><ele>64.0</ele><time>2026-04-04T08:41:37.001Z</time></trkpt><trkpt lat="43.497163307957905" lon="10.746785618868225"><ele>64.0</ele><time>2026-04-04T08:41:38.001Z</time></trkpt><trkpt lat="43.49708842967805" lon="10.746640750866817"><ele>64.0</ele><time>2026-04-04T08:41:39.001Z</time></trkpt><trkpt lat="43.4969855396961" lon="10.746520271299604"><ele>64.0</ele><time>2026-04-04T08:41:40.001Z</time></trkpt><trkpt lat="43.496892522018584" lon="10.746377677559797"><ele>64.0</ele><time>2026-04-04T08:41:41.001Z</time></trkpt><trkpt lat="43.49680013135847" lon="10.746251119651175"><ele>63.25</ele><time>2026-04-04T08:41:42.001Z</time></trkpt><trkpt lat="43.49673062861976" lon="10.74612506680888"><ele>62.5</ele><time>2026-04-04T08:41:43.001Z</time></trkpt><trkpt lat="43.49668516926737" lon="10.745970572716274"><ele>61.75</ele><time>2026-04-04T08:41:44.001Z</time></trkpt><trkpt lat="43.496679819767884" lon="10.745825976831714"><ele>61.0</ele><time>2026-04-04T08:41:45.001Z</time></trkpt><trkpt lat="43.496692453521156" lon="10.745669942008599"><ele>61.0</ele><time>2026-04-04T08:41:46.001Z</time></trkpt><trkpt lat="43.49666125476567" lon="10.745513648993999"><ele>61.0</ele><time>2026-04-04T08:41:47.001Z</time></trkpt><trkpt lat="43.496580910894" lon="10.74535145545942"><ele>61.0</ele><time>2026-04-04T08:41:48.001Z</time></trkpt><trkpt lat="43.496500846550724" lon="10.74517123304567"><ele>61.0</ele><time>2026-04-04T08:41:49.001Z</time></trkpt><trkpt lat="43.496433777337266" lon="10.745005768180304"><ele>61.0</ele><time>2026-04-04T08:41:50.001Z</time></trkpt><trkpt lat="43.49638033873899" lon="10.744832586111569"><ele>61.0</ele><time>2026-04-04T08:41:51.001Z</time></trkpt><trkpt lat="43.49633908978506" lon="10.744659749814861"><ele>61.0</ele><time>2026-04-04T08:41:52.001Z</time></trkpt><trkpt lat="43.49629306340231" lon="10.744481724560158"><ele>61.0</ele><time>2026-04-04T08:41:53.001Z</time></trkpt><trkpt lat="43.49623774238296" lon="10.744308506844565"><ele>60.5</ele><time>2026-04-04T08:41:54.001Z</time></trkpt><trkpt lat="43.496176279219" lon="10.744141744233673"><ele>60.0</ele><time>2026-04-04T08:41:55.001Z</time></trkpt><trkpt lat="43.49612253743388" lon="10.74396982398717"><ele>59.5</ele><time>2026-04-04T08:41:56.001Z</time></trkpt><trkpt lat="43.49608845834232" lon="10.74378890116421"><ele>59.0</ele><time>2026-04-04T08:41:57.001Z</time></trkpt><trkpt lat="43.49605772546101" lon="10.743614567964464"><ele>59.5</ele><time>2026-04-04T08:41:58.001Z</time></trkpt><trkpt lat="43.49601111064697" lon="10.743453705478473"><ele>60.0</ele><time>2026-04-04T08:41:59.001Z</time></trkpt><trkpt lat="43.49593414380605" lon="10.743310890276717"><ele>60.5</ele><time>2026-04-04T08:42:00.001Z</time></trkpt><trkpt lat="43.49584035226056" lon="10.743177024230807"><ele>61.0</ele><time>2026-04-04T08:42:01.001Z</time></trkpt><trkpt lat="43.495749367982754" lon="10.74304874854242"><ele>61.0</ele><time>2026-04-04T08:42:02.001Z</time></trkpt><trkpt lat="43.49567541667427" lon="10.742918487718187"><ele>61.0</ele><time>2026-04-04T08:42:03.001Z</time></trkpt><trkpt lat="43.49558687977537" lon="10.74282155448548"><ele>61.0</ele><time>2026-04-04T08:42:04.001Z</time></trkpt><trkpt lat="43.495466005862916" lon="10.742763767982979"><ele>61.0</ele><time>2026-04-04T08:42:05.001Z</time></trkpt><trkpt lat="43.49532909803105" lon="10.742795110377712"><ele>60.8</ele><time>2026-04-04T08:42:06.001Z</time></trkpt><trkpt lat="43.49523493984791" lon="10.742859898544769"><ele>60.599999999999994</ele><time>2026-04-04T08:42:07.001Z</time></trkpt><trkpt lat="43.49514248692977" lon="10.742922138620948"><ele>60.4</ele><time>2026-04-04T08:42:08.001Z</time></trkpt><trkpt lat="43.49504790153797" lon="10.74298152474828"><ele>60.2</ele><time>2026-04-04T08:42:09.001Z</time></trkpt><trkpt lat="43.49496651085483" lon="10.743026382662675"><ele>60.0</ele><time>2026-04-04T08:42:10.002Z</time></trkpt><trkpt lat="43.49486468504116" lon="10.743016561662012"><ele>60.0</ele><time>2026-04-04T08:42:11.002Z</time></trkpt><trkpt lat="43.494761407045466" lon="10.74296119914648"><ele>60.0</ele><time>2026-04-04T08:42:12.002Z</time></trkpt><trkpt lat="43.49467436563742" lon="10.742883739406045"><ele>60.0</ele><time>2026-04-04T08:42:13.002Z</time></trkpt><trkpt lat="43.494596386239145" lon="10.742749747639492"><ele>60.0</ele><time>2026-04-04T08:42:14.002Z</time></trkpt><trkpt lat="43.4945098681875" lon="10.74263428359141"><ele>59.8</ele><time>2026-04-04T08:42:15.002Z</time></trkpt><trkpt lat="43.49440878327891" lon="10.74255640225787"><ele>59.6</ele><time>2026-04-04T08:42:16.002Z</time></trkpt><trkpt lat="43.49430981450989" lon="10.742461332705076"><ele>59.400000000000006</ele><time>2026-04-04T08:42:17.002Z</time></trkpt><trkpt lat="43.49420479451233" lon="10.7424136976511"><ele>59.2</ele><time>2026-04-04T08:42:18.002Z</time></trkpt><trkpt lat="43.4941037089514" lon="10.74240232788623"><ele>59.0</ele><time>2026-04-04T08:42:19.002Z</time></trkpt><trkpt lat="43.49400627115502" lon="10.742423145081824"><ele>59.00000000000001</ele><time>2026-04-04T08:42:20.002Z</time></trkpt><trkpt lat="43.493925902027854" lon="10.742487999000573"><ele>59.0</ele><time>2026-04-04T08:42:21.002Z</time></trkpt><trkpt lat="43.49385603901104" lon="10.742573941344997"><ele>59.0</ele><time>2026-04-04T08:42:22.002Z</time></trkpt><trkpt lat="43.493805019303124" lon="10.742677425523645"><ele>59.0</ele><time>2026-04-04T08:42:23.002Z</time></trkpt><trkpt lat="43.4937692267755" lon="10.742767141722265"><ele>59.00000000000001</ele><time>2026-04-04T08:42:24.002Z</time></trkpt><trkpt lat="43.49373947013232" lon="10.742849952058808"><ele>59.0</ele><time>2026-04-04T08:42:25.002Z</time></trkpt><trkpt lat="43.493696585540384" lon="10.742921116147246"><ele>58.833333333333336</ele><time>2026-04-04T08:42:26.002Z</time></trkpt><trkpt lat="43.493640736359595" lon="10.743043250741222"><ele>58.66666666666667</ele><time>2026-04-04T08:42:28.002Z</time></trkpt><trkpt lat="43.49357416454676" lon="10.743113392376086"><ele>58.5</ele><time>2026-04-04T08:42:30.002Z</time></trkpt><trkpt lat="43.49348004096552" lon="10.74314865208711"><ele>58.33333333333333</ele><time>2026-04-04T08:42:32.002Z</time></trkpt><trkpt lat="43.49341822170345" lon="10.743114684417518"><ele>58.166666666666664</ele><time>2026-04-04T08:42:33.002Z</time></trkpt><trkpt lat="43.493352906396304" lon="10.743063863191923"><ele>58.0</ele><time>2026-04-04T08:42:34.002Z</time></trkpt><trkpt lat="43.49330932980516" lon="10.74296708119641"><ele>57.99999999999999</ele><time>2026-04-04T08:42:35.002Z</time></trkpt><trkpt lat="43.49327137066206" lon="10.742864866799572"><ele>58.0</ele><time>2026-04-04T08:42:36.002Z</time></trkpt><trkpt lat="43.493229738785665" lon="10.742774778658841"><ele>58.0</ele><time>2026-04-04T08:42:37.002Z</time></trkpt><trkpt lat="43.4931808876257" lon="10.74269044221289"><ele>58.0</ele><time>2026-04-04T08:42:38.002Z</time></trkpt><trkpt lat="43.49313775489969" lon="10.74260188321961"><ele>57.99999999999999</ele><time>2026-04-04T08:42:39.002Z</time></trkpt><trkpt lat="43.493094415198726" lon="10.742516861374115"><ele>58.0</ele><time>2026-04-04T08:42:40.002Z</time></trkpt><trkpt lat="43.49307143473099" lon="10.74242471200599"><ele>58.49999999999999</ele><time>2026-04-04T08:42:41.002Z</time></trkpt><trkpt lat="43.49305070376285" lon="10.742266961739439"><ele>59.0</ele><time>2026-04-04T08:42:43.002Z</time></trkpt><trkpt lat="43.493085723939636" lon="10.742181154565424"><ele>59.5</ele><time>2026-04-04T08:42:44.002Z</time></trkpt><trkpt lat="43.493120671502474" lon="10.742093515108346"><ele>60.0</ele><time>2026-04-04T08:42:45.002Z</time></trkpt><trkpt lat="43.493155314812256" lon="10.742001324886143"><ele>60.49999999999999</ele><time>2026-04-04T08:42:46.002Z</time></trkpt><trkpt lat="43.49314929766435" lon="10.74189406209101"><ele>61.0</ele><time>2026-04-04T08:42:47.002Z</time></trkpt><trkpt lat="43.493096216322364" lon="10.741808483655248"><ele>61.33333333333333</ele><time>2026-04-04T08:42:48.002Z</time></trkpt><trkpt lat="43.49304922063048" lon="10.741722808783065"><ele>61.666666666666664</ele><time>2026-04-04T08:42:49.002Z</time></trkpt><trkpt lat="43.49298754485776" lon="10.741659228826238"><ele>62.0</ele><time>2026-04-04T08:42:50.002Z</time></trkpt><trkpt lat="43.492914633798044" lon="10.74160593379117"><ele>62.33333333333333</ele><time>2026-04-04T08:42:51.002Z</time></trkpt><trkpt lat="43.492848190292484" lon="10.741571891398264"><ele>62.666666666666664</ele><time>2026-04-04T08:42:52.002Z</time></trkpt><trkpt lat="43.49278469479437" lon="10.741539481535062"><ele>63.0</ele><time>2026-04-04T08:42:53Z</time></trkpt><trkpt lat="43.49267067970856" lon="10.741490337082519"><ele>63.8</ele><time>2026-04-04T08:42:55Z</time></trkpt><trkpt lat="43.49256561482772" lon="10.74143569425091"><ele>64.6</ele><time>2026-04-04T08:42:57Z</time></trkpt><trkpt lat="43.49245563178145" lon="10.741373037043983"><ele>65.4</ele><time>2026-04-04T08:42:59Z</time></trkpt><trkpt lat="43.49239280978248" lon="10.741337479549948"><ele>66.2</ele><time>2026-04-04T08:43:00Z</time></trkpt><trkpt lat="43.49232625376275" lon="10.741291068334384"><ele>67.0</ele><time>2026-04-04T08:43:01Z</time></trkpt><trkpt lat="43.49226041895274" lon="10.74121410706584"><ele>67.0</ele><time>2026-04-04T08:43:02Z</time></trkpt><trkpt lat="43.492179844073206" lon="10.741162696944743"><ele>67.0</ele><time>2026-04-04T08:43:03Z</time></trkpt><trkpt lat="43.49209338653205" lon="10.741106608177981"><ele>67.0</ele><time>2026-04-04T08:43:04Z</time></trkpt><trkpt lat="43.492000058219716" lon="10.741043209098725"><ele>67.0</ele><time>2026-04-04T08:43:05Z</time></trkpt><trkpt lat="43.49190596886513" lon="10.74097260807938"><ele>67.0</ele><time>2026-04-04T08:43:06Z</time></trkpt><trkpt lat="43.49180995328022" lon="10.740910101691421"><ele>67.16666666666666</ele><time>2026-04-04T08:43:07Z</time></trkpt><trkpt lat="43.4917238476375" lon="10.740840398820366"><ele>67.33333333333333</ele><time>2026-04-04T08:43:08Z</time></trkpt><trkpt lat="43.49164815886772" lon="10.740777334231009"><ele>67.5</ele><time>2026-04-04T08:43:09Z</time></trkpt><trkpt lat="43.49157651229134" lon="10.740725778461298"><ele>67.66666666666667</ele><time>2026-04-04T08:43:10Z</time></trkpt><trkpt lat="43.49151544368451" lon="10.740678017539667"><ele>67.83333333333334</ele><time>2026-04-04T08:43:11Z</time></trkpt><trkpt lat="43.491456103481816" lon="10.74064308393501"><ele>68.0</ele><time>2026-04-04T08:43:12Z</time></trkpt><trkpt lat="43.491366724022974" lon="10.740589204324005"><ele>68.0</ele><time>2026-04-04T08:43:14Z</time></trkpt><trkpt lat="43.49130044482118" lon="10.740523903120147"><ele>68.0</ele><time>2026-04-04T08:43:17Z</time></trkpt><trkpt lat="43.491242805445374" lon="10.740473897730956"><ele>68.0</ele><time>2026-04-04T08:43:20Z</time></trkpt><trkpt lat="43.49116278141565" lon="10.74040893753263"><ele>68.0</ele><time>2026-04-04T08:43:23Z</time></trkpt><trkpt lat="43.491016024823296" lon="10.74049432563122"><ele>68.0</ele><time>2026-04-04T08:43:25Z</time></trkpt><trkpt lat="43.4909496721552" lon="10.74059835535595"><ele>68.0</ele><time>2026-04-04T08:43:26Z</time></trkpt><trkpt lat="43.49088207951497" lon="10.740699909354172"><ele>68.0</ele><time>2026-04-04T08:43:27Z</time></trkpt><trkpt lat="43.490810520526516" lon="10.740809490910273"><ele>68.0</ele><time>2026-04-04T08:43:28Z</time></trkpt><trkpt lat="43.49073509280289" lon="10.740932692810318"><ele>68.0</ele><time>2026-04-04T08:43:29Z</time></trkpt><trkpt lat="43.49063975423303" lon="10.741065721723947"><ele>68.0</ele><time>2026-04-04T08:43:30Z</time></trkpt><trkpt lat="43.49052457210511" lon="10.741202414862348"><ele>68.0</ele><time>2026-04-04T08:43:31.001Z</time></trkpt><trkpt lat="43.49040915024878" lon="10.74133190660237"><ele>68.0</ele><time>2026-04-04T08:43:32.001Z</time></trkpt><trkpt lat="43.49027723581025" lon="10.741416706803056"><ele>68.0</ele><time>2026-04-04T08:43:33.001Z</time></trkpt><trkpt lat="43.49016831656037" lon="10.741510758640914"><ele>69.0</ele><time>2026-04-04T08:43:34.001Z</time></trkpt><trkpt lat="43.49005497896538" lon="10.741599582236576"><ele>70.0</ele><time>2026-04-04T08:43:35.001Z</time></trkpt><trkpt lat="43.489935529701604" lon="10.741690384241323"><ele>71.0</ele><time>2026-04-04T08:43:36.001Z</time></trkpt><trkpt lat="43.48981260434954" lon="10.74179387079323"><ele>72.0</ele><time>2026-04-04T08:43:37.001Z</time></trkpt><trkpt lat="43.489686828118714" lon="10.74187801009945"><ele>71.5</ele><time>2026-04-04T08:43:38.001Z</time></trkpt><trkpt lat="43.489555889853015" lon="10.741953779937871"><ele>71.0</ele><time>2026-04-04T08:43:39.001Z</time></trkpt><trkpt lat="43.48943035055606" lon="10.742038745733892"><ele>70.5</ele><time>2026-04-04T08:43:40.001Z</time></trkpt><trkpt lat="43.489298057067536" lon="10.74211822999145"><ele>70.0</ele><time>2026-04-04T08:43:41.001Z</time></trkpt><trkpt lat="43.48917037807703" lon="10.74218483614511"><ele>70.0</ele><time>2026-04-04T08:43:42.001Z</time></trkpt><trkpt lat="43.48905340451887" lon="10.742267009808543"><ele>70.0</ele><time>2026-04-04T08:43:43.001Z</time></trkpt><trkpt lat="43.48894279985103" lon="10.742353762286761"><ele>70.0</ele><time>2026-04-04T08:43:44.001Z</time></trkpt><trkpt lat="43.48884183039499" lon="10.742439989232043"><ele>70.0</ele><time>2026-04-04T08:43:45.001Z</time></trkpt><trkpt lat="43.48875234979909" lon="10.742544004805541"><ele>70.25</ele><time>2026-04-04T08:43:46.001Z</time></trkpt><trkpt lat="43.48865247189737" lon="10.742631345702794"><ele>70.5</ele><time>2026-04-04T08:43:47.001Z</time></trkpt><trkpt lat="43.48856329918882" lon="10.742740718645011"><ele>70.75</ele><time>2026-04-04T08:43:48.001Z</time></trkpt><trkpt lat="43.488471453854196" lon="10.74284901561939"><ele>71.0</ele><time>2026-04-04T08:43:49.001Z</time></trkpt><trkpt lat="43.48837074171661" lon="10.74295911104975"><ele>71.0</ele><time>2026-04-04T08:43:50.001Z</time></trkpt><trkpt lat="43.48827798790148" lon="10.743098229536677"><ele>71.0</ele><time>2026-04-04T08:43:51.001Z</time></trkpt><trkpt lat="43.48818412666754" lon="10.743247224304753"><ele>71.0</ele><time>2026-04-04T08:43:52.001Z</time></trkpt><trkpt lat="43.48808811609906" lon="10.74341489047882"><ele>71.0</ele><time>2026-04-04T08:43:53.001Z</time></trkpt><trkpt lat="43.48799533075542" lon="10.743592699654206"><ele>72.33333333333334</ele><time>2026-04-04T08:43:54.001Z</time></trkpt><trkpt lat="43.487900284264526" lon="10.743788595026066"><ele>73.66666666666667</ele><time>2026-04-04T08:43:55.001Z</time></trkpt><trkpt lat="43.48780521656221" lon="10.743996359367042"><ele>75.0</ele><time>2026-04-04T08:43:56.001Z</time></trkpt><trkpt lat="43.48770959453479" lon="10.744205837369812"><ele>73.33333333333333</ele><time>2026-04-04T08:43:57.001Z</time></trkpt><trkpt lat="43.48760708771039" lon="10.744423562026784"><ele>71.66666666666666</ele><time>2026-04-04T08:43:58.001Z</time></trkpt><trkpt lat="43.48750221650862" lon="10.74463196784843"><ele>70.0</ele><time>2026-04-04T08:43:59.001Z</time></trkpt><trkpt lat="43.48738919685227" lon="10.744831469242433"><ele>70.0</ele><time>2026-04-04T08:44:00.001Z</time></trkpt><trkpt lat="43.4872806713953" lon="10.745029479963906"><ele>70.0</ele><time>2026-04-04T08:44:01.001Z</time></trkpt><trkpt lat="43.48715169890608" lon="10.745201882934873"><ele>70.0</ele><time>2026-04-04T08:44:02.001Z</time></trkpt><trkpt lat="43.487023453424264" lon="10.745359881160063"><ele>69.33333333333333</ele><time>2026-04-04T08:44:03.001Z</time></trkpt><trkpt lat="43.48688622614491" lon="10.745506442255365"><ele>68.66666666666667</ele><time>2026-04-04T08:44:04.001Z</time></trkpt><trkpt lat="43.48674527523741" lon="10.745641303485415"><ele>68.0</ele><time>2026-04-04T08:44:05.001Z</time></trkpt><trkpt lat="43.48660366989811" lon="10.745765851676849"><ele>68.0</ele><time>2026-04-04T08:44:06.001Z</time></trkpt><trkpt lat="43.486454741847716" lon="10.74587719429767"><ele>68.0</ele><time>2026-04-04T08:44:07.001Z</time></trkpt><trkpt lat="43.48629614688144" lon="10.745983973389173"><ele>68.0</ele><time>2026-04-04T08:44:08.001Z</time></trkpt><trkpt lat="43.48614776365604" lon="10.746103459478785"><ele>68.0</ele><time>2026-04-04T08:44:09.001Z</time></trkpt><trkpt lat="43.48600320069185" lon="10.746228843813743"><ele>68.0</ele><time>2026-04-04T08:44:10.001Z</time></trkpt><trkpt lat="43.48586524282894" lon="10.746369066670077"><ele>68.0</ele><time>2026-04-04T08:44:11.001Z</time></trkpt><trkpt lat="43.48573423224942" lon="10.746524632725547"><ele>68.0</ele><time>2026-04-04T08:44:12.001Z</time></trkpt><trkpt lat="43.48560727235245" lon="10.746686123850086"><ele>68.0</ele><time>2026-04-04T08:44:13.001Z</time></trkpt><trkpt lat="43.48550032513088" lon="10.746866988281383"><ele>68.0</ele><time>2026-04-04T08:44:14.001Z</time></trkpt><trkpt lat="43.48540590737332" lon="10.747065761257938"><ele>70.0</ele><time>2026-04-04T08:44:15.001Z</time></trkpt><trkpt lat="43.48530730700074" lon="10.74726275192328"><ele>72.0</ele><time>2026-04-04T08:44:16.001Z</time></trkpt><trkpt lat="43.48520829595541" lon="10.747453658162957"><ele>74.0</ele><time>2026-04-04T08:44:17.001Z</time></trkpt><trkpt lat="43.485103948275494" lon="10.747639089633298"><ele>71.66666666666667</ele><time>2026-04-04T08:44:18.001Z</time></trkpt><trkpt lat="43.48498538014275" lon="10.747805818825928"><ele>69.33333333333333</ele><time>2026-04-04T08:44:19.001Z</time></trkpt><trkpt lat="43.484855209373755" lon="10.747954754116694"><ele>67.0</ele><time>2026-04-04T08:44:20.001Z</time></trkpt><trkpt lat="43.48471603351253" lon="10.7480857438488"><ele>68.66666666666666</ele><time>2026-04-04T08:44:21.002Z</time></trkpt><trkpt lat="43.48456975763356" lon="10.748200032139607"><ele>70.33333333333333</ele><time>2026-04-04T08:44:22.002Z</time></trkpt><trkpt lat="43.484419028643586" lon="10.74829613165853"><ele>72.0</ele><time>2026-04-04T08:44:23.002Z</time></trkpt><trkpt lat="43.48426247655667" lon="10.748382480796705"><ele>72.0</ele><time>2026-04-04T08:44:24.002Z</time></trkpt><trkpt lat="43.48410681397876" lon="10.748472314864964"><ele>72.0</ele><time>2026-04-04T08:44:25.002Z</time></trkpt><trkpt lat="43.48395572542691" lon="10.748576127582883"><ele>72.0</ele><time>2026-04-04T08:44:26.002Z</time></trkpt><trkpt lat="43.48380786288716" lon="10.748687736267023"><ele>72.0</ele><time>2026-04-04T08:44:27.002Z</time></trkpt><trkpt lat="43.48365514848901" lon="10.748782356074928"><ele>72.0</ele><time>2026-04-04T08:44:28.002Z</time></trkpt><trkpt lat="43.48351014011428" lon="10.748906812195266"><ele>72.0</ele><time>2026-04-04T08:44:29.002Z</time></trkpt><trkpt lat="43.4833696910813" lon="10.749039112957377"><ele>72.0</ele><time>2026-04-04T08:44:30.002Z</time></trkpt><trkpt lat="43.48323552853296" lon="10.74917874372296"><ele>72.0</ele><time>2026-04-04T08:44:31.002Z</time></trkpt><trkpt lat="43.48310789128147" lon="10.749328816222803"><ele>72.0</ele><time>2026-04-04T08:44:32.002Z</time></trkpt><trkpt lat="43.48298335848808" lon="10.749478064846262"><ele>72.33333333333333</ele><time>2026-04-04T08:44:33.002Z</time></trkpt><trkpt lat="43.48285739184868" lon="10.749622603465308"><ele>72.66666666666666</ele><time>2026-04-04T08:44:34.002Z</time></trkpt><trkpt lat="43.482736914277986" lon="10.74976796564278"><ele>73.0</ele><time>2026-04-04T08:44:35.002Z</time></trkpt><trkpt lat="43.48261724361243" lon="10.749907051558933"><ele>73.0</ele><time>2026-04-04T08:44:36.002Z</time></trkpt><trkpt lat="43.4825019509127" lon="10.750043287626855"><ele>73.0</ele><time>2026-04-04T08:44:37.002Z</time></trkpt><trkpt lat="43.4823936631741" lon="10.75017302088751"><ele>73.0</ele><time>2026-04-04T08:44:38.002Z</time></trkpt><trkpt lat="43.48228657249227" lon="10.750298877039532"><ele>73.0</ele><time>2026-04-04T08:44:39.002Z</time></trkpt><trkpt lat="43.48218251513911" lon="10.75042116827712"><ele>73.25</ele><time>2026-04-04T08:44:40.002Z</time></trkpt><trkpt lat="43.48208354521261" lon="10.750540052828605"><ele>73.5</ele><time>2026-04-04T08:44:41.002Z</time></trkpt><trkpt lat="43.48198714406849" lon="10.750655930357585"><ele>73.75</ele><time>2026-04-04T08:44:42.002Z</time></trkpt><trkpt lat="43.481883093340564" lon="10.750778435963973"><ele>74.0</ele><time>2026-04-04T08:44:43.002Z</time></trkpt><trkpt lat="43.4817757741274" lon="10.750904376931036"><ele>74.0</ele><time>2026-04-04T08:44:44.002Z</time></trkpt><trkpt lat="43.48166646630825" lon="10.751032651552052"><ele>74.0</ele><time>2026-04-04T08:44:45.002Z</time></trkpt><trkpt lat="43.48155605866363" lon="10.75116398185779"><ele>74.0</ele><time>2026-04-04T08:44:46.002Z</time></trkpt><trkpt lat="43.48144271844261" lon="10.751299604876307"><ele>74.0</ele><time>2026-04-04T08:44:47.002Z</time></trkpt><trkpt lat="43.48132717703491" lon="10.751436842653613"><ele>74.33333333333334</ele><time>2026-04-04T08:44:48.002Z</time></trkpt><trkpt lat="43.4812185919135" lon="10.751592501601069"><ele>74.66666666666667</ele><time>2026-04-04T08:44:49.002Z</time></trkpt><trkpt lat="43.481098363883234" lon="10.751734586915383"><ele>75.0</ele><time>2026-04-04T08:44:50.002Z</time></trkpt><trkpt lat="43.48096957899108" lon="10.751866863379743"><ele>74.33333333333333</ele><time>2026-04-04T08:44:51.002Z</time></trkpt><trkpt lat="43.48085366522729" lon="10.75201837828027"><ele>73.66666666666666</ele><time>2026-04-04T08:44:52.002Z</time></trkpt><trkpt lat="43.480750113265124" lon="10.752187123690414"><ele>73.0</ele><time>2026-04-04T08:44:53.002Z</time></trkpt><trkpt lat="43.48065672424961" lon="10.75236532046373"><ele>73.0</ele><time>2026-04-04T08:44:54.002Z</time></trkpt><trkpt lat="43.48056523257088" lon="10.752545195212653"><ele>73.0</ele><time>2026-04-04T08:44:55.002Z</time></trkpt><trkpt lat="43.48047255303655" lon="10.752724711682795"><ele>73.0</ele><time>2026-04-04T08:44:56.002Z</time></trkpt><trkpt lat="43.48037840118776" lon="10.752906858263637"><ele>75.0</ele><time>2026-04-04T08:44:57.002Z</time></trkpt><trkpt lat="43.48028388845251" lon="10.753089702964216"><ele>77.0</ele><time>2026-04-04T08:44:58.002Z</time></trkpt><trkpt lat="43.48019015488468" lon="10.753267557058148"><ele>79.0</ele><time>2026-04-04T08:44:59Z</time></trkpt><trkpt lat="43.480099351965755" lon="10.753436477263397"><ele>77.5</ele><time>2026-04-04T08:44:59.999Z</time></trkpt><trkpt lat="43.480011546995684" lon="10.753590837083618"><ele>76.0</ele><time>2026-04-04T08:45:01Z</time></trkpt><trkpt lat="43.47992542961183" lon="10.753735163024631"><ele>74.5</ele><time>2026-04-04T08:45:02Z</time></trkpt><trkpt lat="43.4798419012959" lon="10.753871776867166"><ele>73.0</ele><time>2026-04-04T08:45:03Z</time></trkpt><trkpt lat="43.47977260229486" lon="10.754012389074914"><ele>73.0</ele><time>2026-04-04T08:45:04Z</time></trkpt><trkpt lat="43.47969296510586" lon="10.754130274524131"><ele>73.0</ele><time>2026-04-04T08:45:05Z</time></trkpt><trkpt lat="43.47962125056653" lon="10.754239501554867"><ele>73.0</ele><time>2026-04-04T08:45:06Z</time></trkpt><trkpt lat="43.47955018968876" lon="10.7543346371989"><ele>73.0</ele><time>2026-04-04T08:45:07Z</time></trkpt><trkpt lat="43.47948163786989" lon="10.754419433395439"><ele>73.0</ele><time>2026-04-04T08:45:08Z</time></trkpt><trkpt lat="43.47941720430739" lon="10.754499492337299"><ele>73.4</ele><time>2026-04-04T08:45:09Z</time></trkpt><trkpt lat="43.47929885899286" lon="10.754679447675626"><ele>73.8</ele><time>2026-04-04T08:45:11Z</time></trkpt><trkpt lat="43.479242066721056" lon="10.754761632357843"><ele>74.2</ele><time>2026-04-04T08:45:12Z</time></trkpt><trkpt lat="43.47919099225089" lon="10.754822489873003"><ele>74.6</ele><time>2026-04-04T08:45:13Z</time></trkpt><trkpt lat="43.479093299339986" lon="10.754869357099981"><ele>75.0</ele><time>2026-04-04T08:45:15Z</time></trkpt><trkpt lat="43.47901837175931" lon="10.754808756104932"><ele>75.0</ele><time>2026-04-04T08:45:17Z</time></trkpt><trkpt lat="43.47891551481713" lon="10.754727330529454"><ele>75.0</ele><time>2026-04-04T08:45:19Z</time></trkpt><trkpt lat="43.47884709667106" lon="10.754696463155652"><ele>75.0</ele><time>2026-04-04T08:45:20Z</time></trkpt><trkpt lat="43.47877348007228" lon="10.754671998583273"><ele>75.0</ele><time>2026-04-04T08:45:21Z</time></trkpt><trkpt lat="43.47869381089171" lon="10.754655154706533"><ele>75.0</ele><time>2026-04-04T08:45:22Z</time></trkpt><trkpt lat="43.47860901282225" lon="10.754652690778848"><ele>75.0</ele><time>2026-04-04T08:45:23Z</time></trkpt><trkpt lat="43.47852462681195" lon="10.754657050418864"><ele>75.5</ele><time>2026-04-04T08:45:24Z</time></trkpt><trkpt lat="43.47846257228683" lon="10.754690991833984"><ele>76.0</ele><time>2026-04-04T08:45:25Z</time></trkpt><trkpt lat="43.478383471109574" lon="10.754709242422"><ele>76.5</ele><time>2026-04-04T08:45:26Z</time></trkpt><trkpt lat="43.4783037745499" lon="10.754720130081436"><ele>77.0</ele><time>2026-04-04T08:45:27Z</time></trkpt><trkpt lat="43.478221819612905" lon="10.754709248938001"><ele>77.5</ele><time>2026-04-04T08:45:28Z</time></trkpt><trkpt lat="43.47814785054152" lon="10.754697540159945"><ele>78.0</ele><time>2026-04-04T08:45:29Z</time></trkpt><trkpt lat="43.47807571443118" lon="10.754673708902125"><ele>78.0</ele><time>2026-04-04T08:45:30Z</time></trkpt><trkpt lat="43.47802398231689" lon="10.754623027747265"><ele>78.0</ele><time>2026-04-04T08:45:31Z</time></trkpt><trkpt lat="43.47796701258388" lon="10.754566993692087"><ele>78.0</ele><time>2026-04-04T08:45:32Z</time></trkpt><trkpt lat="43.47790606824034" lon="10.754507217319468"><ele>78.0</ele><time>2026-04-04T08:45:33Z</time></trkpt><trkpt lat="43.477849425209456" lon="10.754449256468392"><ele>78.0</ele><time>2026-04-04T08:45:34Z</time></trkpt><trkpt lat="43.4777981469837" lon="10.75439095469837"><ele>78.0</ele><time>2026-04-04T08:45:35Z</time></trkpt><trkpt lat="43.47775371540701" lon="10.754325696484408"><ele>78.0</ele><time>2026-04-04T08:45:36Z</time></trkpt><trkpt lat="43.47771825862095" lon="10.75425282985683"><ele>79.33333333333333</ele><time>2026-04-04T08:45:37Z</time></trkpt><trkpt lat="43.47768844524748" lon="10.754168658917377"><ele>80.66666666666667</ele><time>2026-04-04T08:45:38Z</time></trkpt><trkpt lat="43.47766554039047" lon="10.75407092262251"><ele>82.0</ele><time>2026-04-04T08:45:39Z</time></trkpt><trkpt lat="43.47763494619078" lon="10.753962904583712"><ele>83.33333333333334</ele><time>2026-04-04T08:45:40Z</time></trkpt><trkpt lat="43.47760131122092" lon="10.753856125505632"><ele>84.66666666666667</ele><time>2026-04-04T08:45:41Z</time></trkpt><trkpt lat="43.47757705350446" lon="10.753751188610975"><ele>86.0</ele><time>2026-04-04T08:45:42.001Z</time></trkpt><trkpt lat="43.47755824780787" lon="10.753653392944738"><ele>86.0</ele><time>2026-04-04T08:45:43.001Z</time></trkpt><trkpt lat="43.47754972606121" lon="10.753561325417275"><ele>86.0</ele><time>2026-04-04T08:45:44.001Z</time></trkpt><trkpt lat="43.477544014676624" lon="10.753470308212956"><ele>86.0</ele><time>2026-04-04T08:45:45.001Z</time></trkpt><trkpt lat="43.47756381925748" lon="10.753301234644217"><ele>86.0</ele><time>2026-04-04T08:45:47.001Z</time></trkpt><trkpt lat="43.477613886965614" lon="10.753131165459736"><ele>86.0</ele><time>2026-04-04T08:45:49.001Z</time></trkpt><trkpt lat="43.47763784458088" lon="10.753035684336837"><ele>87.14285714285715</ele><time>2026-04-04T08:45:50.001Z</time></trkpt><trkpt lat="43.47767427806713" lon="10.752953311306824"><ele>88.28571428571429</ele><time>2026-04-04T08:45:51.001Z</time></trkpt><trkpt lat="43.477715488390345" lon="10.75285892691579"><ele>89.42857142857143</ele><time>2026-04-04T08:45:52.001Z</time></trkpt><trkpt lat="43.47776534136096" lon="10.752782490764401"><ele>90.57142857142858</ele><time>2026-04-04T08:45:53.001Z</time></trkpt><trkpt lat="43.47781280817727" lon="10.752708937231809"><ele>91.71428571428571</ele><time>2026-04-04T08:45:54.001Z</time></trkpt><trkpt lat="43.47786118193335" lon="10.752637740404305"><ele>92.85714285714286</ele><time>2026-04-04T08:45:55.001Z</time></trkpt><trkpt lat="43.477907503199646" lon="10.752565746100254"><ele>94.0</ele><time>2026-04-04T08:45:56.001Z</time></trkpt><trkpt lat="43.47798629296847" lon="10.752433999639921"><ele>96.28571428571428</ele><time>2026-04-04T08:45:58.001Z</time></trkpt><trkpt lat="43.478028377517674" lon="10.752364734722399"><ele>98.57142857142857</ele><time>2026-04-04T08:45:59.001Z</time></trkpt><trkpt lat="43.478071421553786" lon="10.752298798903043"><ele>100.85714285714286</ele><time>2026-04-04T08:46:00.001Z</time></trkpt><trkpt lat="43.47811637439725" lon="10.752232124934265"><ele>103.14285714285714</ele><time>2026-04-04T08:46:01.001Z</time></trkpt><trkpt lat="43.47816438917129" lon="10.752155672374915"><ele>105.42857142857143</ele><time>2026-04-04T08:46:02.001Z</time></trkpt><trkpt lat="43.47821475747134" lon="10.752087308921226"><ele>107.71428571428571</ele><time>2026-04-04T08:46:03.001Z</time></trkpt><trkpt lat="43.47825822388551" lon="10.752020473790243"><ele>110.0</ele><time>2026-04-04T08:46:04.001Z</time></trkpt><trkpt lat="43.478324324015965" lon="10.75190229309924"><ele>110.83333333333333</ele><time>2026-04-04T08:46:06.001Z</time></trkpt><trkpt lat="43.478356402758564" lon="10.751796390366225"><ele>111.66666666666666</ele><time>2026-04-04T08:46:08.001Z</time></trkpt><trkpt lat="43.4783904896682" lon="10.751715229490582"><ele>112.5</ele><time>2026-04-04T08:46:26.001Z</time></trkpt><trkpt lat="43.47844047982324" lon="10.751629638230119"><ele>113.33333333333334</ele><time>2026-04-04T08:46:30.002Z</time></trkpt><trkpt lat="43.478540450756114" lon="10.751595187273368"><ele>114.16666666666667</ele><time>2026-04-04T08:46:32.002Z</time></trkpt><trkpt lat="43.478597052086975" lon="10.751553559647604"><ele>115.0</ele><time>2026-04-04T08:46:33.002Z</time></trkpt><trkpt lat="43.47865413761714" lon="10.7514696349535"><ele>115.0</ele><time>2026-04-04T08:46:34.002Z</time></trkpt><trkpt lat="43.47868105145876" lon="10.751366681307264"><ele>115.0</ele><time>2026-04-04T08:46:35.002Z</time></trkpt><trkpt lat="43.47871009285078" lon="10.751277354838512"><ele>115.0</ele><time>2026-04-04T08:46:36.002Z</time></trkpt><trkpt lat="43.478751633235966" lon="10.751129789784938"><ele>115.0</ele><time>2026-04-04T08:46:38.002Z</time></trkpt><trkpt lat="43.47878676662076" lon="10.751007676164607"><ele>115.0</ele><time>2026-04-04T08:46:40.002Z</time></trkpt><trkpt lat="43.47881084646341" lon="10.750883453371127"><ele>114.6</ele><time>2026-04-04T08:46:42.002Z</time></trkpt><trkpt lat="43.47883439086671" lon="10.75074372160971"><ele>114.2</ele><time>2026-04-04T08:46:44.002Z</time></trkpt><trkpt lat="43.47885740436317" lon="10.750598240974771"><ele>113.80000000000001</ele><time>2026-04-04T08:46:46.002Z</time></trkpt><trkpt lat="43.47887762139385" lon="10.750457623316526"><ele>113.4</ele><time>2026-04-04T08:46:48.002Z</time></trkpt><trkpt lat="43.47890507733324" lon="10.750314689213058"><ele>113.0</ele><time>2026-04-04T08:46:50.002Z</time></trkpt><trkpt lat="43.478927320613316" lon="10.750194524636324"><ele>113.0</ele><time>2026-04-04T08:46:52.002Z</time></trkpt><trkpt lat="43.47896122019291" lon="10.750065934293463"><ele>113.0</ele><time>2026-04-04T08:46:54.002Z</time></trkpt><trkpt lat="43.47899661651649" lon="10.74992262883711"><ele>113.0</ele><time>2026-04-04T08:46:56.002Z</time></trkpt><trkpt lat="43.47903322539457" lon="10.749765637045837"><ele>113.0</ele><time>2026-04-04T08:46:58.002Z</time></trkpt><trkpt lat="43.47906614514486" lon="10.74959268546803"><ele>112.99999999999999</ele><time>2026-04-04T08:47:00.002Z</time></trkpt><trkpt lat="43.47908208064986" lon="10.74949754621606"><ele>113.0</ele><time>2026-04-04T08:47:01.002Z</time></trkpt><trkpt lat="43.47909813674062" lon="10.749401434444945"><ele>113.0</ele><time>2026-04-04T08:47:02.002Z</time></trkpt><trkpt lat="43.479117089547636" lon="10.749301822921007"><ele>113.0</ele><time>2026-04-04T08:47:03.002Z</time></trkpt><trkpt lat="43.47913749816058" lon="10.749194329240547"><ele>112.99999999999999</ele><time>2026-04-04T08:47:04.002Z</time></trkpt><trkpt lat="43.479166057232185" lon="10.74908629675238"><ele>113.0</ele><time>2026-04-04T08:47:05Z</time></trkpt><trkpt lat="43.47919092346228" lon="10.748970099766279"><ele>113.28571428571429</ele><time>2026-04-04T08:47:06Z</time></trkpt><trkpt lat="43.4792131570662" lon="10.748857591546832"><ele>113.57142857142856</ele><time>2026-04-04T08:47:07Z</time></trkpt><trkpt lat="43.47923846825129" lon="10.7487598503097"><ele>113.85714285714285</ele><time>2026-04-04T08:47:08Z</time></trkpt><trkpt lat="43.479266244266945" lon="10.748668064947232"><ele>114.14285714285714</ele><time>2026-04-04T08:47:09Z</time></trkpt><trkpt lat="43.47929824429983" lon="10.748586502409143"><ele>114.42857142857142</ele><time>2026-04-04T08:47:10Z</time></trkpt><trkpt lat="43.47933215587532" lon="10.74850940311969"><ele>114.7142857142857</ele><time>2026-04-04T08:47:11Z</time></trkpt><trkpt lat="43.47936647619874" lon="10.748427766207376"><ele>114.99999999999999</ele><time>2026-04-04T08:47:12Z</time></trkpt><trkpt lat="43.47940306485412" lon="10.748342931953308"><ele>114.66666666666667</ele><time>2026-04-04T08:47:13Z</time></trkpt><trkpt lat="43.479440050136645" lon="10.748257003882712"><ele>114.33333333333334</ele><time>2026-04-04T08:47:14Z</time></trkpt><trkpt lat="43.479481510066215" lon="10.748161118294831"><ele>114.0</ele><time>2026-04-04T08:47:15Z</time></trkpt><trkpt lat="43.47952187740686" lon="10.748067376001316"><ele>113.66666666666666</ele><time>2026-04-04T08:47:16Z</time></trkpt><trkpt lat="43.47956404142065" lon="10.747969860790954"><ele>113.33333333333333</ele><time>2026-04-04T08:47:17Z</time></trkpt><trkpt lat="43.4796116438726" lon="10.747875272015888"><ele>113.0</ele><time>2026-04-04T08:47:18Z</time></trkpt><trkpt lat="43.47966443443488" lon="10.747780526743"><ele>113.49999999999999</ele><time>2026-04-04T08:47:19Z</time></trkpt><trkpt lat="43.47971672402684" lon="10.747689979825738"><ele>114.0</ele><time>2026-04-04T08:47:20Z</time></trkpt><trkpt lat="43.47976538643074" lon="10.747587723371225"><ele>114.5</ele><time>2026-04-04T08:47:21Z</time></trkpt><trkpt lat="43.47981118343903" lon="10.747480833238857"><ele>115.0</ele><time>2026-04-04T08:47:22Z</time></trkpt><trkpt lat="43.47985714327535" lon="10.74737925840054"><ele>115.49999999999999</ele><time>2026-04-04T08:47:23Z</time></trkpt><trkpt lat="43.47989708398694" lon="10.747280400155455"><ele>116.0</ele><time>2026-04-04T08:47:24Z</time></trkpt><trkpt lat="43.479930782076224" lon="10.74718022941832"><ele>116.00000000000001</ele><time>2026-04-04T08:47:25Z</time></trkpt><trkpt lat="43.479958674362955" lon="10.74709111491357"><ele>116.0</ele><time>2026-04-04T08:47:26Z</time></trkpt><trkpt lat="43.47998253438231" lon="10.747005719473563"><ele>116.00000000000001</ele><time>2026-04-04T08:47:27Z</time></trkpt><trkpt lat="43.48001146818573" lon="10.74691861764858"><ele>116.00000000000001</ele><time>2026-04-04T08:47:28Z</time></trkpt><trkpt lat="43.480044113413875" lon="10.746822120208924"><ele>116.0</ele><time>2026-04-04T08:47:29Z</time></trkpt><trkpt lat="43.48007766428459" lon="10.746720198529104"><ele>116.00000000000001</ele><time>2026-04-04T08:47:30Z</time></trkpt><trkpt lat="43.48010798943509" lon="10.74661449704894"><ele>116.00000000000001</ele><time>2026-04-04T08:47:31Z</time></trkpt><trkpt lat="43.48014307047837" lon="10.746506305594474"><ele>116.19999999999999</ele><time>2026-04-04T08:47:32Z</time></trkpt><trkpt lat="43.48018048403135" lon="10.746392551748421"><ele>116.39999999999999</ele><time>2026-04-04T08:47:33Z</time></trkpt><trkpt lat="43.48021690198275" lon="10.74627301838845"><ele>116.6</ele><time>2026-04-04T08:47:34Z</time></trkpt><trkpt lat="43.48025425594565" lon="10.746145188480806"><ele>116.8</ele><time>2026-04-04T08:47:35Z</time></trkpt><trkpt lat="43.4802937105427" lon="10.746017435356947"><ele>117.0</ele><time>2026-04-04T08:47:36Z</time></trkpt><trkpt lat="43.480335252203595" lon="10.74589743331094"><ele>117.0</ele><time>2026-04-04T08:47:37Z</time></trkpt><trkpt lat="43.48037006564636" lon="10.745773271809522"><ele>116.99999999999999</ele><time>2026-04-04T08:47:38Z</time></trkpt><trkpt lat="43.480409073029215" lon="10.745652412023356"><ele>116.99999999999999</ele><time>2026-04-04T08:47:39Z</time></trkpt><trkpt lat="43.48044877553582" lon="10.7455270963915"><ele>117.0</ele><time>2026-04-04T08:47:40Z</time></trkpt><trkpt lat="43.480489360907555" lon="10.745402910390455"><ele>117.0</ele><time>2026-04-04T08:47:41.001Z</time></trkpt><trkpt lat="43.48052120871651" lon="10.745293827008313"><ele>116.0</ele><time>2026-04-04T08:47:42.001Z</time></trkpt><trkpt lat="43.48055409953879" lon="10.745186514927234"><ele>114.99999999999999</ele><time>2026-04-04T08:47:43.001Z</time></trkpt><trkpt lat="43.48058838842623" lon="10.745070522395629"><ele>113.99999999999999</ele><time>2026-04-04T08:47:44.001Z</time></trkpt><trkpt lat="43.4806296855933" lon="10.744938330804823"><ele>113.0</ele><time>2026-04-04T08:47:45.001Z</time></trkpt><trkpt lat="43.48068331899215" lon="10.744804440055727"><ele>112.0</ele><time>2026-04-04T08:47:46.001Z</time></trkpt><trkpt lat="43.48073698369473" lon="10.744663074575872"><ele>112.0</ele><time>2026-04-04T08:47:47.001Z</time></trkpt><trkpt lat="43.480787689147974" lon="10.744511111513667"><ele>112.0</ele><time>2026-04-04T08:47:48.001Z</time></trkpt><trkpt lat="43.480836949847735" lon="10.744346694000654"><ele>112.0</ele><time>2026-04-04T08:47:49.001Z</time></trkpt><trkpt lat="43.48088706757019" lon="10.744178501782812"><ele>112.0</ele><time>2026-04-04T08:47:50.001Z</time></trkpt><trkpt lat="43.48093372661041" lon="10.743997843165898"><ele>112.25</ele><time>2026-04-04T08:47:51.001Z</time></trkpt><trkpt lat="43.48096913022573" lon="10.743831266262756"><ele>112.5</ele><time>2026-04-04T08:47:52.001Z</time></trkpt><trkpt lat="43.48100301246608" lon="10.74366857220657"><ele>112.75</ele><time>2026-04-04T08:47:53.001Z</time></trkpt><trkpt lat="43.48103975981345" lon="10.743522813334247"><ele>113.0</ele><time>2026-04-04T08:47:54.001Z</time></trkpt><trkpt lat="43.48108463220382" lon="10.743380446685004"><ele>113.2</ele><time>2026-04-04T08:47:55.001Z</time></trkpt><trkpt lat="43.48112753860191" lon="10.743247790021915"><ele>113.4</ele><time>2026-04-04T08:47:56.001Z</time></trkpt><trkpt lat="43.481164912625154" lon="10.743116634490264"><ele>113.60000000000001</ele><time>2026-04-04T08:47:57.001Z</time></trkpt><trkpt lat="43.48119939591773" lon="10.742995253389296"><ele>113.80000000000001</ele><time>2026-04-04T08:47:58.001Z</time></trkpt><trkpt lat="43.481239178184246" lon="10.742897351742696"><ele>114.0</ele><time>2026-04-04T08:47:59.001Z</time></trkpt><trkpt lat="43.481281282104554" lon="10.742815125482604"><ele>114.0</ele><time>2026-04-04T08:48:00.001Z</time></trkpt><trkpt lat="43.481318522240066" lon="10.742721344012454"><ele>114.0</ele><time>2026-04-04T08:48:01.001Z</time></trkpt><trkpt lat="43.48134773282432" lon="10.742610941842266"><ele>114.0</ele><time>2026-04-04T08:48:02.001Z</time></trkpt><trkpt lat="43.48136708846802" lon="10.7424928003272"><ele>114.0</ele><time>2026-04-04T08:48:03.001Z</time></trkpt><trkpt lat="43.48137667993059" lon="10.74237086510647"><ele>114.0</ele><time>2026-04-04T08:48:04.001Z</time></trkpt><trkpt lat="43.481377291218585" lon="10.742248866011924"><ele>114.0</ele><time>2026-04-04T08:48:05.001Z</time></trkpt><trkpt lat="43.48136920511952" lon="10.742128979160599"><ele>114.16666666666667</ele><time>2026-04-04T08:48:06.001Z</time></trkpt><trkpt lat="43.48135060071281" lon="10.742013443355171"><ele>114.33333333333334</ele><time>2026-04-04T08:48:07.001Z</time></trkpt><trkpt lat="43.48132920742129" lon="10.741894915366123"><ele>114.5</ele><time>2026-04-04T08:48:08.001Z</time></trkpt><trkpt lat="43.481298359273495" lon="10.741782488553474"><ele>114.66666666666667</ele><time>2026-04-04T08:48:09.001Z</time></trkpt><trkpt lat="43.48127062873839" lon="10.741670865181353"><ele>114.83333333333334</ele><time>2026-04-04T08:48:10.001Z</time></trkpt><trkpt lat="43.48125202464249" lon="10.741559447423892"><ele>115.0</ele><time>2026-04-04T08:48:11.001Z</time></trkpt><trkpt lat="43.48121926258127" lon="10.741452089422845"><ele>115.8</ele><time>2026-04-04T08:48:12.001Z</time></trkpt><trkpt lat="43.48119710902307" lon="10.741341892526961"><ele>116.6</ele><time>2026-04-04T08:48:13.001Z</time></trkpt><trkpt lat="43.48115983584235" lon="10.741229786708981"><ele>117.4</ele><time>2026-04-04T08:48:14.001Z</time></trkpt><trkpt lat="43.481123045833385" lon="10.741094352418958"><ele>118.2</ele><time>2026-04-04T08:48:15.001Z</time></trkpt><trkpt lat="43.481085503561395" lon="10.740938470422105"><ele>119.0</ele><time>2026-04-04T08:48:16.001Z</time></trkpt><trkpt lat="43.48105432440547" lon="10.740785515007365"><ele>119.0</ele><time>2026-04-04T08:48:17.001Z</time></trkpt><trkpt lat="43.48103788109181" lon="10.740623208413417"><ele>119.0</ele><time>2026-04-04T08:48:18.001Z</time></trkpt><trkpt lat="43.48103343778712" lon="10.740462853130568"><ele>119.0</ele><time>2026-04-04T08:48:19.001Z</time></trkpt><trkpt lat="43.48103498180929" lon="10.740311889796374"><ele>119.0</ele><time>2026-04-04T08:48:20.001Z</time></trkpt><trkpt lat="43.4810356936809" lon="10.74017589135227"><ele>119.0</ele><time>2026-04-04T08:48:21.001Z</time></trkpt><trkpt lat="43.481034518225655" lon="10.740054963088774"><ele>118.99999999999999</ele><time>2026-04-04T08:48:22.001Z</time></trkpt><trkpt lat="43.48103244395568" lon="10.739947580540674"><ele>119.0</ele><time>2026-04-04T08:48:23.001Z</time></trkpt><trkpt lat="43.48102560724991" lon="10.73984693043134"><ele>119.0</ele><time>2026-04-04T08:48:24.001Z</time></trkpt><trkpt lat="43.481009111449055" lon="10.739737489879122"><ele>119.0</ele><time>2026-04-04T08:48:25.001Z</time></trkpt><trkpt lat="43.48098029691762" lon="10.739623516336017"><ele>118.99999999999999</ele><time>2026-04-04T08:48:26.001Z</time></trkpt><trkpt lat="43.48094228803858" lon="10.739505025171141"><ele>119.0</ele><time>2026-04-04T08:48:27.001Z</time></trkpt><trkpt lat="43.48090166163337" lon="10.739375091917783"><ele>118.49999999999999</ele><time>2026-04-04T08:48:28.001Z</time></trkpt><trkpt lat="43.480871374989405" lon="10.73925664663753"><ele>118.0</ele><time>2026-04-04T08:48:29.002Z</time></trkpt><trkpt lat="43.480849463934234" lon="10.739143354934095"><ele>117.5</ele><time>2026-04-04T08:48:30.002Z</time></trkpt><trkpt lat="43.48082381768096" lon="10.73904129932674"><ele>117.0</ele><time>2026-04-04T08:48:31.002Z</time></trkpt><trkpt lat="43.4808046631306" lon="10.73892958720312"><ele>116.49999999999999</ele><time>2026-04-04T08:48:32.002Z</time></trkpt><trkpt lat="43.480800130297915" lon="10.73881029024537"><ele>116.0</ele><time>2026-04-04T08:48:33.002Z</time></trkpt><trkpt lat="43.48079612861901" lon="10.738691137653483"><ele>116.0</ele><time>2026-04-04T08:48:34.002Z</time></trkpt><trkpt lat="43.48079082837911" lon="10.738569454521498"><ele>116.0</ele><time>2026-04-04T08:48:35.002Z</time></trkpt><trkpt lat="43.48078026104275" lon="10.738446903546512"><ele>116.0</ele><time>2026-04-04T08:48:36.002Z</time></trkpt><trkpt lat="43.48077068399078" lon="10.738299882270764"><ele>116.0</ele><time>2026-04-04T08:48:37.002Z</time></trkpt><trkpt lat="43.480761957444265" lon="10.738153154730092"><ele>116.0</ele><time>2026-04-04T08:48:38.002Z</time></trkpt><trkpt lat="43.48075098128525" lon="10.738028273149414"><ele>116.16666666666666</ele><time>2026-04-04T08:48:39.002Z</time></trkpt><trkpt lat="43.48074271375929" lon="10.737918745130766"><ele>116.33333333333333</ele><time>2026-04-04T08:48:40.002Z</time></trkpt><trkpt lat="43.48072528081382" lon="10.737827077472273"><ele>116.5</ele><time>2026-04-04T08:48:41.002Z</time></trkpt><trkpt lat="43.4807048548139" lon="10.73771937353519"><ele>116.66666666666666</ele><time>2026-04-04T08:48:42.002Z</time></trkpt><trkpt lat="43.48066340663895" lon="10.737620932016846"><ele>116.83333333333333</ele><time>2026-04-04T08:48:43.002Z</time></trkpt><trkpt lat="43.48062249998669" lon="10.737525715387742"><ele>117.0</ele><time>2026-04-04T08:48:44.002Z</time></trkpt><trkpt lat="43.4805408929418" lon="10.73743864216699"><ele>117.39999999999999</ele><time>2026-04-04T08:48:45.002Z</time></trkpt><trkpt lat="43.480456425834525" lon="10.737359379621896"><ele>117.79999999999998</ele><time>2026-04-04T08:48:46.002Z</time></trkpt><trkpt lat="43.48037434995133" lon="10.737282806306762"><ele>118.2</ele><time>2026-04-04T08:48:47.002Z</time></trkpt><trkpt lat="43.480292652176054" lon="10.737206035592504"><ele>118.6</ele><time>2026-04-04T08:48:48.002Z</time></trkpt><trkpt lat="43.48020550587876" lon="10.737133938051574"><ele>119.0</ele><time>2026-04-04T08:48:49.002Z</time></trkpt><trkpt lat="43.480122946341716" lon="10.737065998696531"><ele>119.4</ele><time>2026-04-04T08:48:50.002Z</time></trkpt><trkpt lat="43.48004670918126" lon="10.737003418154679"><ele>119.80000000000001</ele><time>2026-04-04T08:48:51.002Z</time></trkpt><trkpt lat="43.47996828403678" lon="10.736936514280025"><ele>120.19999999999999</ele><time>2026-04-04T08:48:52.002Z</time></trkpt><trkpt lat="43.479902263784375" lon="10.736844916878324"><ele>120.6</ele><time>2026-04-04T08:48:53.002Z</time></trkpt><trkpt lat="43.47982274744839" lon="10.736762679366242"><ele>121.0</ele><time>2026-04-04T08:48:54.002Z</time></trkpt><trkpt lat="43.47974584602363" lon="10.736674581290059"><ele>121.33333333333334</ele><time>2026-04-04T08:48:55.002Z</time></trkpt><trkpt lat="43.47968133768508" lon="10.73658683734449"><ele>121.66666666666667</ele><time>2026-04-04T08:48:56.002Z</time></trkpt><trkpt lat="43.47961856005294" lon="10.736504510755429"><ele>122.0</ele><time>2026-04-04T08:48:57.002Z</time></trkpt><trkpt lat="43.4795482591607" lon="10.73644548370114"><ele>122.33333333333334</ele><time>2026-04-04T08:48:58.002Z</time></trkpt><trkpt lat="43.479478838145695" lon="10.736381515016552"><ele>122.66666666666667</ele><time>2026-04-04T08:48:59.002Z</time></trkpt><trkpt lat="43.4793966278455" lon="10.73632384393919"><ele>123.0</ele><time>2026-04-04T08:49:00.002Z</time></trkpt><trkpt lat="43.47930443736056" lon="10.736261803404625"><ele>124.0</ele><time>2026-04-04T08:49:01.002Z</time></trkpt><trkpt lat="43.47920537849017" lon="10.736202292850143"><ele>125.00000000000001</ele><time>2026-04-04T08:49:02.002Z</time></trkpt><trkpt lat="43.47911353616002" lon="10.736149463650447"><ele>126.00000000000001</ele><time>2026-04-04T08:49:03.002Z</time></trkpt><trkpt lat="43.47904911789188" lon="10.73606467833301"><ele>127.0</ele><time>2026-04-04T08:49:04.002Z</time></trkpt><trkpt lat="43.47898845863457" lon="10.73599012722683"><ele>128.0</ele><time>2026-04-04T08:49:05.002Z</time></trkpt><trkpt lat="43.47894210571814" lon="10.73590753991151"><ele>129.66666666666666</ele><time>2026-04-04T08:49:06.002Z</time></trkpt><trkpt lat="43.478907510954066" lon="10.735815129703724"><ele>131.33333333333331</ele><time>2026-04-04T08:49:07.002Z</time></trkpt><trkpt lat="43.478872570552056" lon="10.735714858756438"><ele>133.0</ele><time>2026-04-04T08:49:08.002Z</time></trkpt><trkpt lat="43.47882717722588" lon="10.735611192247262"><ele>134.66666666666666</ele><time>2026-04-04T08:49:09.002Z</time></trkpt><trkpt lat="43.47879734465598" lon="10.73548292766546"><ele>136.33333333333334</ele><time>2026-04-04T08:49:10.002Z</time></trkpt><trkpt lat="43.47876706707749" lon="10.735341516615131"><ele>138.0</ele><time>2026-04-04T08:49:10.999Z</time></trkpt><trkpt lat="43.4787343412448" lon="10.735171325869102"><ele>142.0</ele><time>2026-04-04T08:49:11.999Z</time></trkpt><trkpt lat="43.478710664534105" lon="10.734983578600037"><ele>146.0</ele><time>2026-04-04T08:49:12.999Z</time></trkpt><trkpt lat="43.478672919455555" lon="10.734804535491126"><ele>150.0</ele><time>2026-04-04T08:49:13.999Z</time></trkpt><trkpt lat="43.47863890585269" lon="10.734627449897369"><ele>154.0</ele><time>2026-04-04T08:49:14.999Z</time></trkpt><trkpt lat="43.47864119779812" lon="10.734446263450778"><ele>155.5</ele><time>2026-04-04T08:49:15.999Z</time></trkpt><trkpt lat="43.478637150946" lon="10.734273063425787"><ele>157.0</ele><time>2026-04-04T08:49:16.999Z</time></trkpt><trkpt lat="43.47861647123268" lon="10.7341099383868"><ele>158.5</ele><time>2026-04-04T08:49:17.999Z</time></trkpt><trkpt lat="43.47859652084527" lon="10.7339656808854"><ele>160.0</ele><time>2026-04-04T08:49:18.999Z</time></trkpt><trkpt lat="43.47855991463321" lon="10.733832391522132"><ele>160.0</ele><time>2026-04-04T08:49:19.999Z</time></trkpt><trkpt lat="43.478515901897254" lon="10.733699412375731"><ele>160.0</ele><time>2026-04-04T08:49:20.999Z</time></trkpt><trkpt lat="43.47847300316355" lon="10.733601205893091"><ele>160.0</ele><time>2026-04-04T08:49:21.999Z</time></trkpt><trkpt lat="43.478458223871336" lon="10.733510277524063"><ele>160.0</ele><time>2026-04-04T08:49:22.999Z</time></trkpt><trkpt lat="43.47835334934968" lon="10.733425372284742"><ele>160.0</ele><time>2026-04-04T08:49:24.999Z</time></trkpt><trkpt lat="43.47826472734408" lon="10.733379909044862"><ele>160.6</ele><time>2026-04-04T08:49:25.999Z</time></trkpt><trkpt lat="43.478210870470356" lon="10.733284081159224"><ele>161.2</ele><time>2026-04-04T08:49:27Z</time></trkpt><trkpt lat="43.47815817086734" lon="10.733154392179287"><ele>161.8</ele><time>2026-04-04T08:49:28Z</time></trkpt><trkpt lat="43.478089078653746" lon="10.733009219985098"><ele>162.4</ele><time>2026-04-04T08:49:29Z</time></trkpt><trkpt lat="43.4780076521893" lon="10.732899211720492"><ele>163.0</ele><time>2026-04-04T08:49:30Z</time></trkpt><trkpt lat="43.47794769236583" lon="10.7328072033958"><ele>164.2</ele><time>2026-04-04T08:49:31Z</time></trkpt><trkpt lat="43.47788187756647" lon="10.732669212096305"><ele>165.4</ele><time>2026-04-04T08:49:33Z</time></trkpt><trkpt lat="43.47785860874679" lon="10.732580375888292"><ele>166.6</ele><time>2026-04-04T08:49:34Z</time></trkpt><trkpt lat="43.4778435411056" lon="10.732448118203676"><ele>167.79999999999998</ele><time>2026-04-04T08:49:35Z</time></trkpt><trkpt lat="43.477826710150225" lon="10.732297304579347"><ele>169.0</ele><time>2026-04-04T08:49:36Z</time></trkpt><trkpt lat="43.477810786132075" lon="10.732153837097222"><ele>169.0</ele><time>2026-04-04T08:49:37Z</time></trkpt><trkpt lat="43.47779577976351" lon="10.732050517312507"><ele>169.0</ele><time>2026-04-04T08:49:38Z</time></trkpt><trkpt lat="43.477793851532226" lon="10.731961082780924"><ele>169.0</ele><time>2026-04-04T08:49:41Z</time></trkpt><trkpt lat="43.47767226900181" lon="10.731909041768704"><ele>169.0</ele><time>2026-04-04T08:49:43Z</time></trkpt><trkpt lat="43.47757171439245" lon="10.731842593218442"><ele>169.0</ele><time>2026-04-04T08:49:44Z</time></trkpt><trkpt lat="43.477515339387786" lon="10.731702122549857"><ele>172.25</ele><time>2026-04-04T08:49:45Z</time></trkpt><trkpt lat="43.47746697855279" lon="10.731553656735608"><ele>175.5</ele><time>2026-04-04T08:49:46Z</time></trkpt><trkpt lat="43.47742219632312" lon="10.73136334425353"><ele>178.75</ele><time>2026-04-04T08:49:47Z</time></trkpt><trkpt lat="43.4774019665157" lon="10.731139133048327"><ele>182.0</ele><time>2026-04-04T08:49:48Z</time></trkpt><trkpt lat="43.477383414545905" lon="10.730903141537144"><ele>184.0</ele><time>2026-04-04T08:49:49Z</time></trkpt><trkpt lat="43.47736291843389" lon="10.730690346076026"><ele>186.0</ele><time>2026-04-04T08:49:50Z</time></trkpt><trkpt lat="43.47732672824423" lon="10.73049515168361"><ele>188.0</ele><time>2026-04-04T08:49:51Z</time></trkpt><trkpt lat="43.47727163118835" lon="10.730323278548752"><ele>190.0</ele><time>2026-04-04T08:49:52Z</time></trkpt><trkpt lat="43.47720775516891" lon="10.730171042546054"><ele>192.5</ele><time>2026-04-04T08:49:53Z</time></trkpt><trkpt lat="43.477142727431584" lon="10.73001869172928"><ele>195.0</ele><time>2026-04-04T08:49:54Z</time></trkpt><trkpt lat="43.477112073516665" lon="10.729855941539212"><ele>197.5</ele><time>2026-04-04T08:49:55Z</time></trkpt><trkpt lat="43.4771060665672" lon="10.729698978491248"><ele>200.0</ele><time>2026-04-04T08:49:56Z</time></trkpt><trkpt lat="43.47709848787222" lon="10.729561826733926"><ele>200.33333333333334</ele><time>2026-04-04T08:49:57Z</time></trkpt><trkpt lat="43.4770798768579" lon="10.72945227779"><ele>200.66666666666669</ele><time>2026-04-04T08:49:58Z</time></trkpt><trkpt lat="43.47704830376883" lon="10.729367206009977"><ele>201.0</ele><time>2026-04-04T08:49:59.001Z</time></trkpt><trkpt lat="43.476937344385064" lon="10.729290016475522"><ele>201.33333333333331</ele><time>2026-04-04T08:50:01.001Z</time></trkpt><trkpt lat="43.47686415298589" lon="10.729254297007078"><ele>201.66666666666666</ele><time>2026-04-04T08:50:02.001Z</time></trkpt><trkpt lat="43.476779091219214" lon="10.729254183132554"><ele>202.0</ele><time>2026-04-04T08:50:03.001Z</time></trkpt><trkpt lat="43.47668843443535" lon="10.729230381476219"><ele>202.49999999999997</ele><time>2026-04-04T08:50:04.001Z</time></trkpt><trkpt lat="43.47660772465577" lon="10.729184441786392"><ele>203.0</ele><time>2026-04-04T08:50:05.001Z</time></trkpt><trkpt lat="43.47652248396981" lon="10.729140674498387"><ele>203.5</ele><time>2026-04-04T08:50:06.001Z</time></trkpt><trkpt lat="43.476461123122654" lon="10.729087546919947"><ele>204.0</ele><time>2026-04-04T08:50:07.001Z</time></trkpt><trkpt lat="43.47635909634924" lon="10.729006321682268"><ele>204.49999999999997</ele><time>2026-04-04T08:50:09.001Z</time></trkpt><trkpt lat="43.47629720059845" lon="10.7289709099577"><ele>205.0</ele><time>2026-04-04T08:50:10.001Z</time></trkpt><trkpt lat="43.476244568608735" lon="10.728900994709976"><ele>204.99999999999997</ele><time>2026-04-04T08:50:11.001Z</time></trkpt><trkpt lat="43.47618090287244" lon="10.728835159579"><ele>205.0</ele><time>2026-04-04T08:50:12.001Z</time></trkpt><trkpt lat="43.47611577189309" lon="10.728766673704598"><ele>205.0</ele><time>2026-04-04T08:50:13.001Z</time></trkpt><trkpt lat="43.47605747718435" lon="10.728698266734545"><ele>205.0</ele><time>2026-04-04T08:50:14.001Z</time></trkpt><trkpt lat="43.476017922811515" lon="10.728617253870288"><ele>204.99999999999997</ele><time>2026-04-04T08:50:15.001Z</time></trkpt><trkpt lat="43.4759384407382" lon="10.728487266434941"><ele>205.0</ele><time>2026-04-04T08:50:17.001Z</time></trkpt><trkpt lat="43.475863531570155" lon="10.72837140863518"><ele>206.33333333333331</ele><time>2026-04-04T08:50:19.001Z</time></trkpt><trkpt lat="43.475793233597905" lon="10.72827685310384"><ele>207.66666666666666</ele><time>2026-04-04T08:50:21.001Z</time></trkpt><trkpt lat="43.47572997030137" lon="10.72817638113787"><ele>209.0</ele><time>2026-04-04T08:50:23.001Z</time></trkpt><trkpt lat="43.47568545608634" lon="10.728103084077494"><ele>210.33333333333331</ele><time>2026-04-04T08:50:25.001Z</time></trkpt><trkpt lat="43.47562495398417" lon="10.728029606277952"><ele>211.66666666666666</ele><time>2026-04-04T08:50:38.001Z</time></trkpt><trkpt lat="43.47556513815161" lon="10.727941576808877"><ele>213.0</ele><time>2026-04-04T08:50:41.002Z</time></trkpt><trkpt lat="43.475513913442306" lon="10.727881606769795"><ele>213.0</ele><time>2026-04-04T08:50:43.002Z</time></trkpt><trkpt lat="43.475499941612505" lon="10.727785668687263"><ele>213.0</ele><time>2026-04-04T08:50:45.002Z</time></trkpt><trkpt lat="43.47547561215167" lon="10.727665435801399"><ele>213.0</ele><time>2026-04-04T08:50:47.002Z</time></trkpt><trkpt lat="43.475427518552586" lon="10.727580025849724"><ele>213.0</ele><time>2026-04-04T08:50:49.002Z</time></trkpt><trkpt lat="43.47535060879249" lon="10.72752516773157"><ele>213.0</ele><time>2026-04-04T08:50:52.002Z</time></trkpt><trkpt lat="43.475325609770245" lon="10.727438652305267"><ele>213.0</ele><time>2026-04-04T08:50:54.002Z</time></trkpt><trkpt lat="43.475325173502256" lon="10.727304138155834"><ele>213.2</ele><time>2026-04-04T08:50:56.002Z</time></trkpt><trkpt lat="43.4752973759691" lon="10.727149955979238"><ele>213.4</ele><time>2026-04-04T08:50:58.002Z</time></trkpt><trkpt lat="43.47525134734949" lon="10.727035713603229"><ele>213.59999999999997</ele><time>2026-04-04T08:51:00.002Z</time></trkpt><trkpt lat="43.47517524013325" lon="10.726971217514507"><ele>213.79999999999998</ele><time>2026-04-04T08:51:02.002Z</time></trkpt><trkpt lat="43.47505864126113" lon="10.726984817297124"><ele>214.0</ele><time>2026-04-04T08:51:04.002Z</time></trkpt><trkpt lat="43.474981439894904" lon="10.726963558632502"><ele>213.99999999999997</ele><time>2026-04-04T08:51:05.002Z</time></trkpt><trkpt lat="43.47490852967722" lon="10.726994504086171"><ele>214.0</ele><time>2026-04-04T08:51:06.002Z</time></trkpt><trkpt lat="43.474839646569194" lon="10.727000339739984"><ele>214.0</ele><time>2026-04-04T08:51:07.002Z</time></trkpt><trkpt lat="43.47471405949082" lon="10.726967189862929"><ele>214.0</ele><time>2026-04-04T08:51:09.002Z</time></trkpt><trkpt lat="43.47465697972899" lon="10.72690801443867"><ele>213.99999999999997</ele><time>2026-04-04T08:51:10.002Z</time></trkpt><trkpt lat="43.47460996006146" lon="10.726837775492662"><ele>214.0</ele><time>2026-04-04T08:51:11.002Z</time></trkpt><trkpt lat="43.474553674955075" lon="10.72676128752087"><ele>211.66666666666666</ele><time>2026-04-04T08:51:12.002Z</time></trkpt><trkpt lat="43.47450296402476" lon="10.726666246771964"><ele>209.33333333333331</ele><time>2026-04-04T08:51:13.002Z</time></trkpt><trkpt lat="43.47445173416695" lon="10.726571754127978"><ele>207.0</ele><time>2026-04-04T08:51:14.002Z</time></trkpt><trkpt lat="43.474425867120814" lon="10.72644076452665"><ele>204.66666666666669</ele><time>2026-04-04T08:51:15.002Z</time></trkpt><trkpt lat="43.47439310207261" lon="10.726332752382262"><ele>202.33333333333334</ele><time>2026-04-04T08:51:16.002Z</time></trkpt><trkpt lat="43.47436680283143" lon="10.72623570082551"><ele>200.0</ele><time>2026-04-04T08:51:16.999Z</time></trkpt><trkpt lat="43.474335176614844" lon="10.726100481021398"><ele>195.75</ele><time>2026-04-04T08:51:17.999Z</time></trkpt><trkpt lat="43.47425449496296" lon="10.725992982857923"><ele>191.5</ele><time>2026-04-04T08:51:18.999Z</time></trkpt><trkpt lat="43.47414402494883" lon="10.725947195694097"><ele>187.25</ele><time>2026-04-04T08:51:19.999Z</time></trkpt><trkpt lat="43.47403327619469" lon="10.72597728588916"><ele>183.0</ele><time>2026-04-04T08:51:20.999Z</time></trkpt><trkpt lat="43.4739097689056" lon="10.72602406032581"><ele>185.0</ele><time>2026-04-04T08:51:22.999Z</time></trkpt><trkpt lat="43.47380846391257" lon="10.72610130161495"><ele>187.0</ele><time>2026-04-04T08:51:23.999Z</time></trkpt><trkpt lat="43.47370843198944" lon="10.726182310353622"><ele>189.0</ele><time>2026-04-04T08:51:24.999Z</time></trkpt><trkpt lat="43.47360553255816" lon="10.726257330350988"><ele>191.0</ele><time>2026-04-04T08:51:25.999Z</time></trkpt><trkpt lat="43.473514864590406" lon="10.72631131694138"><ele>193.0</ele><time>2026-04-04T08:51:26.999Z</time></trkpt><trkpt lat="43.47335404882861" lon="10.726402811085856"><ele>193.0</ele><time>2026-04-04T08:51:28.999Z</time></trkpt><trkpt lat="43.47322760391725" lon="10.726454467370559"><ele>193.0</ele><time>2026-04-04T08:51:29.999Z</time></trkpt><trkpt lat="43.47306052722229" lon="10.726509840092294"><ele>193.0</ele><time>2026-04-04T08:51:30.999Z</time></trkpt><trkpt lat="43.472894159863216" lon="10.726625115475425"><ele>191.60000000000002</ele><time>2026-04-04T08:51:32Z</time></trkpt><trkpt lat="43.47275796761063" lon="10.726708069522356"><ele>190.20000000000002</ele><time>2026-04-04T08:51:33Z</time></trkpt><trkpt lat="43.47264018373693" lon="10.726766112223572"><ele>188.8</ele><time>2026-04-04T08:51:34Z</time></trkpt><trkpt lat="43.47254961764368" lon="10.726803578521697"><ele>187.4</ele><time>2026-04-04T08:51:35Z</time></trkpt><trkpt lat="43.47248840659192" lon="10.72683380262507"><ele>186.0</ele><time>2026-04-04T08:51:36Z</time></trkpt><trkpt lat="43.47241394250696" lon="10.72686310043778"><ele>186.0</ele><time>2026-04-04T08:51:37Z</time></trkpt><trkpt lat="43.47231774004751" lon="10.72689301910601"><ele>186.0</ele><time>2026-04-04T08:51:39Z</time></trkpt><trkpt lat="43.47224547986242" lon="10.727119706329285"><ele>186.0</ele><time>2026-04-04T08:51:41Z</time></trkpt><trkpt lat="43.4722094797939" lon="10.727237295217952"><ele>186.0</ele><time>2026-04-04T08:51:42Z</time></trkpt><trkpt lat="43.47215533187196" lon="10.727385310684843"><ele>189.33333333333331</ele><time>2026-04-04T08:51:43Z</time></trkpt><trkpt lat="43.47207566341107" lon="10.727559981052925"><ele>192.66666666666666</ele><time>2026-04-04T08:51:44Z</time></trkpt><trkpt lat="43.47200004030627" lon="10.727756636123734"><ele>196.0</ele><time>2026-04-04T08:51:45Z</time></trkpt><trkpt lat="43.471922366617314" lon="10.72793735349754"><ele>198.25</ele><time>2026-04-04T08:51:46Z</time></trkpt><trkpt lat="43.47186479023083" lon="10.7281031228988"><ele>200.5</ele><time>2026-04-04T08:51:47Z</time></trkpt><trkpt lat="43.471856547631056" lon="10.728247637272698"><ele>202.75</ele><time>2026-04-04T08:51:48Z</time></trkpt><trkpt lat="43.47186479059316" lon="10.728350020026852"><ele>205.0</ele><time>2026-04-04T08:51:50Z</time></trkpt><trkpt lat="43.47170694721019" lon="10.728403544638947"><ele>205.0</ele><time>2026-04-04T08:52:01Z</time></trkpt><trkpt lat="43.47162168698936" lon="10.728443760716534"><ele>205.0</ele><time>2026-04-04T08:52:02Z</time></trkpt><trkpt lat="43.471552497449785" lon="10.728477477572968"><ele>205.0</ele><time>2026-04-04T08:52:03.001Z</time></trkpt><trkpt lat="43.47148503514509" lon="10.728510271401397"><ele>205.0</ele><time>2026-04-04T08:52:04.001Z</time></trkpt><trkpt lat="43.47141990059729" lon="10.728545127427116"><ele>205.0</ele><time>2026-04-04T08:52:05.001Z</time></trkpt><trkpt lat="43.471352163427504" lon="10.728574076766385"><ele>205.0</ele><time>2026-04-04T08:52:06.001Z</time></trkpt><trkpt lat="43.47128480402329" lon="10.728604925935041"><ele>205.0</ele><time>2026-04-04T08:52:07.001Z</time></trkpt><trkpt lat="43.47121052272633" lon="10.728638945071632"><ele>204.75</ele><time>2026-04-04T08:52:08.001Z</time></trkpt><trkpt lat="43.47112192878084" lon="10.728681579007988"><ele>204.5</ele><time>2026-04-04T08:52:09.001Z</time></trkpt><trkpt lat="43.47101528319111" lon="10.728761639145864"><ele>204.25</ele><time>2026-04-04T08:52:10.001Z</time></trkpt><trkpt lat="43.470913897604994" lon="10.728853867281309"><ele>204.0</ele><time>2026-04-04T08:52:11.001Z</time></trkpt><trkpt lat="43.470815596037895" lon="10.728942451614529"><ele>204.0</ele><time>2026-04-04T08:52:12.001Z</time></trkpt><trkpt lat="43.47072000465671" lon="10.72903255223746"><ele>204.0</ele><time>2026-04-04T08:52:13.001Z</time></trkpt><trkpt lat="43.47063259005813" lon="10.729105256942544"><ele>204.0</ele><time>2026-04-04T08:52:14.001Z</time></trkpt><trkpt lat="43.4705566635751" lon="10.729166741379105"><ele>204.0</ele><time>2026-04-04T08:52:15.001Z</time></trkpt><trkpt lat="43.47050246402551" lon="10.729210930310058"><ele>204.0</ele><time>2026-04-04T08:52:16.001Z</time></trkpt><trkpt lat="43.47044521395717" lon="10.729261784304255"><ele>204.0</ele><time>2026-04-04T08:52:19.001Z</time></trkpt><trkpt lat="43.47048239597458" lon="10.72956502452255"><ele>202.25</ele><time>2026-04-04T08:52:29.001Z</time></trkpt><trkpt lat="43.470506896524064" lon="10.729695083731006"><ele>200.5</ele><time>2026-04-04T08:52:30.001Z</time></trkpt><trkpt lat="43.47053837850515" lon="10.729838913187715"><ele>198.75</ele><time>2026-04-04T08:52:31.001Z</time></trkpt><trkpt lat="43.470591439534275" lon="10.73000417586765"><ele>197.0</ele><time>2026-04-04T08:52:32.001Z</time></trkpt><trkpt lat="43.47061915407701" lon="10.730170981316286"><ele>197.0</ele><time>2026-04-04T08:52:33.001Z</time></trkpt><trkpt lat="43.4706547026105" lon="10.730329374884368"><ele>197.0</ele><time>2026-04-04T08:52:34.001Z</time></trkpt><trkpt lat="43.470685544928074" lon="10.730476572491858"><ele>197.0</ele><time>2026-04-04T08:52:35.001Z</time></trkpt><trkpt lat="43.47071279709238" lon="10.73060407671194"><ele>197.0</ele><time>2026-04-04T08:52:36.001Z</time></trkpt><trkpt lat="43.470723959957795" lon="10.730716045220516"><ele>197.0</ele><time>2026-04-04T08:52:37.001Z</time></trkpt><trkpt lat="43.470701840158384" lon="10.730809014528285"><ele>197.00000000000003</ele><time>2026-04-04T08:52:38.001Z</time></trkpt><trkpt lat="43.470695437716905" lon="10.730901043587416"><ele>197.0</ele><time>2026-04-04T08:52:39.001Z</time></trkpt><trkpt lat="43.47068538578267" lon="10.73100799257744"><ele>197.0</ele><time>2026-04-04T08:52:40.001Z</time></trkpt><trkpt lat="43.470685057093675" lon="10.731128458831813"><ele>197.0</ele><time>2026-04-04T08:52:41.002Z</time></trkpt><trkpt lat="43.47066665469375" lon="10.731250196171654"><ele>197.00000000000003</ele><time>2026-04-04T08:52:42.002Z</time></trkpt><trkpt lat="43.47065034804524" lon="10.731386471927228"><ele>197.0</ele><time>2026-04-04T08:52:43.002Z</time></trkpt><trkpt lat="43.470622179193626" lon="10.731532642839662"><ele>196.75</ele><time>2026-04-04T08:52:44.002Z</time></trkpt><trkpt lat="43.470601957674155" lon="10.73169155411513"><ele>196.5</ele><time>2026-04-04T08:52:45.002Z</time></trkpt><trkpt lat="43.470573682454535" lon="10.731846592232507"><ele>196.25</ele><time>2026-04-04T08:52:46.002Z</time></trkpt><trkpt lat="43.47054809784066" lon="10.732000016070836"><ele>196.0</ele><time>2026-04-04T08:52:47.002Z</time></trkpt><trkpt lat="43.470514395753206" lon="10.732160831947033"><ele>193.75</ele><time>2026-04-04T08:52:48.002Z</time></trkpt><trkpt lat="43.47048430902926" lon="10.732335252486418"><ele>191.5</ele><time>2026-04-04T08:52:49.002Z</time></trkpt><trkpt lat="43.47044388587758" lon="10.732514784695917"><ele>189.25</ele><time>2026-04-04T08:52:50.002Z</time></trkpt><trkpt lat="43.470411417774216" lon="10.732695697235195"><ele>187.0</ele><time>2026-04-04T08:52:51.002Z</time></trkpt><trkpt lat="43.470388586844116" lon="10.732886039895273"><ele>184.75</ele><time>2026-04-04T08:52:52.002Z</time></trkpt><trkpt lat="43.47037613957416" lon="10.733066373822599"><ele>182.5</ele><time>2026-04-04T08:52:53.002Z</time></trkpt><trkpt lat="43.47037766059112" lon="10.733248592124966"><ele>180.25</ele><time>2026-04-04T08:52:54.002Z</time></trkpt><trkpt lat="43.47037315035773" lon="10.73342383561531"><ele>178.0</ele><time>2026-04-04T08:52:55.002Z</time></trkpt><trkpt lat="43.470372649185705" lon="10.733593638446388"><ele>178.0</ele><time>2026-04-04T08:52:56.002Z</time></trkpt><trkpt lat="43.470338479711536" lon="10.733745724717382"><ele>178.0</ele><time>2026-04-04T08:52:57.002Z</time></trkpt><trkpt lat="43.470320179077156" lon="10.733888550251821"><ele>178.0</ele><time>2026-04-04T08:52:58.002Z</time></trkpt><trkpt lat="43.4703032155101" lon="10.734042714263566"><ele>178.0</ele><time>2026-04-04T08:52:59.002Z</time></trkpt><trkpt lat="43.47029988936696" lon="10.734200737877647"><ele>178.0</ele><time>2026-04-04T08:53:00.002Z</time></trkpt><trkpt lat="43.47031686724442" lon="10.734370625992733"><ele>178.0</ele><time>2026-04-04T08:53:01.002Z</time></trkpt><trkpt lat="43.47034515513555" lon="10.734523435144547"><ele>178.0</ele><time>2026-04-04T08:53:02.002Z</time></trkpt><trkpt lat="43.470368024293506" lon="10.734666958921947"><ele>178.0</ele><time>2026-04-04T08:53:03.002Z</time></trkpt><trkpt lat="43.47038236502417" lon="10.734771646937887"><ele>178.0</ele><time>2026-04-04T08:53:04.002Z</time></trkpt><trkpt lat="43.47062752745337" lon="10.734790397903353"><ele>173.5</ele><time>2026-04-04T08:53:05.002Z</time></trkpt><trkpt lat="43.47074895852402" lon="10.734798116895613"><ele>169.0</ele><time>2026-04-04T08:53:07.002Z</time></trkpt><trkpt lat="43.47036731961777" lon="10.735255710544818"><ele>167.6</ele><time>2026-04-04T08:53:09.002Z</time></trkpt><trkpt lat="43.47034318030869" lon="10.73538621123684"><ele>166.2</ele><time>2026-04-04T08:53:10.002Z</time></trkpt><trkpt lat="43.47032466071256" lon="10.735507450884182"><ele>164.79999999999998</ele><time>2026-04-04T08:53:11.002Z</time></trkpt><trkpt lat="43.47030288307246" lon="10.73562325707729"><ele>163.39999999999998</ele><time>2026-04-04T08:53:12.002Z</time></trkpt><trkpt lat="43.47026191943819" lon="10.735742242914629"><ele>162.0</ele><time>2026-04-04T08:53:13.002Z</time></trkpt><trkpt lat="43.47023694091247" lon="10.735853476810425"><ele>162.0</ele><time>2026-04-04T08:53:14.002Z</time></trkpt><trkpt lat="43.4702086148421" lon="10.735941889083584"><ele>162.0</ele><time>2026-04-04T08:53:15.002Z</time></trkpt><trkpt lat="43.47017550971964" lon="10.736036794772401"><ele>162.0</ele><time>2026-04-04T08:53:16.002Z</time></trkpt><trkpt lat="43.4701385496876" lon="10.736134122449782"><ele>162.0</ele><time>2026-04-04T08:53:17.002Z</time></trkpt><trkpt lat="43.47011669965131" lon="10.736228909621172"><ele>162.0</ele><time>2026-04-04T08:53:18.002Z</time></trkpt><trkpt lat="43.47006826191905" lon="10.736316241263657"><ele>162.0</ele><time>2026-04-04T08:53:19.002Z</time></trkpt><trkpt lat="43.47002359605576" lon="10.736410566325745"><ele>160.6</ele><time>2026-04-04T08:53:20.002Z</time></trkpt><trkpt lat="43.469980526100386" lon="10.73651104382698"><ele>159.2</ele><time>2026-04-04T08:53:21.003Z</time></trkpt><trkpt lat="43.46993598126124" lon="10.73661901755723"><ele>157.8</ele><time>2026-04-04T08:53:22.003Z</time></trkpt><trkpt lat="43.46988992813203" lon="10.736730167567233"><ele>156.4</ele><time>2026-04-04T08:53:23Z</time></trkpt><trkpt lat="43.46984105656694" lon="10.736846062541389"><ele>155.0</ele><time>2026-04-04T08:53:24Z</time></trkpt><trkpt lat="43.46977828192961" lon="10.736962010171329"><ele>153.8</ele><time>2026-04-04T08:53:25Z</time></trkpt><trkpt lat="43.469723008948314" lon="10.737080035231523"><ele>152.6</ele><time>2026-04-04T08:53:26Z</time></trkpt><trkpt lat="43.469663096775655" lon="10.73720121348493"><ele>151.4</ele><time>2026-04-04T08:53:27Z</time></trkpt><trkpt lat="43.46960137590824" lon="10.737314688086121"><ele>150.2</ele><time>2026-04-04T08:53:28Z</time></trkpt><trkpt lat="43.469544914481396" lon="10.737428205956494"><ele>149.0</ele><time>2026-04-04T08:53:29Z</time></trkpt><trkpt lat="43.46948672678676" lon="10.737548601525738"><ele>147.2</ele><time>2026-04-04T08:53:30Z</time></trkpt><trkpt lat="43.46941591315449" lon="10.73764909408219"><ele>145.4</ele><time>2026-04-04T08:53:31Z</time></trkpt><trkpt lat="43.46935870437778" lon="10.737749693069938"><ele>143.6</ele><time>2026-04-04T08:53:32Z</time></trkpt><trkpt lat="43.469297034546734" lon="10.737840002387774"><ele>141.8</ele><time>2026-04-04T08:53:33Z</time></trkpt><trkpt lat="43.46923041373849" lon="10.737925443169143"><ele>140.0</ele><time>2026-04-04T08:53:34Z</time></trkpt><trkpt lat="43.46915397196805" lon="10.737990686683748"><ele>140.0</ele><time>2026-04-04T08:53:35Z</time></trkpt><trkpt lat="43.46906147584487" lon="10.738025605359905"><ele>140.0</ele><time>2026-04-04T08:53:36Z</time></trkpt><trkpt lat="43.468963579595844" lon="10.738049487893019"><ele>140.0</ele><time>2026-04-04T08:53:37Z</time></trkpt><trkpt lat="43.46886054193296" lon="10.73805247431422"><ele>140.0</ele><time>2026-04-04T08:53:38Z</time></trkpt><trkpt lat="43.46875774684474" lon="10.738042191476792"><ele>140.0</ele><time>2026-04-04T08:53:39Z</time></trkpt><trkpt lat="43.46866371236412" lon="10.738065011832859"><ele>137.0</ele><time>2026-04-04T08:53:40Z</time></trkpt><trkpt lat="43.46858227909481" lon="10.738071616988583"><ele>137.0</ele><time>2026-04-04T08:53:41Z</time></trkpt><trkpt lat="43.468480049377995" lon="10.738118090714199"><ele>137.0</ele><time>2026-04-04T08:53:43Z</time></trkpt><trkpt lat="43.46841435217875" lon="10.738167273736444"><ele>137.0</ele><time>2026-04-04T08:53:45Z</time></trkpt></trkseg><trkseg><trkpt lat="43.46829314078861" lon="10.738185220208154"><ele>137.0</ele><time>2026-04-04T09:04:01.001Z</time></trkpt><trkpt lat="43.46831432755" lon="10.738284728139615"><ele>137.0</ele><time>2026-04-04T09:04:10.001Z</time></trkpt><trkpt lat="43.46822895478925" lon="10.738374329983625"><ele>137.0</ele><time>2026-04-04T09:04:14.001Z</time></trkpt><trkpt lat="43.468192340167654" lon="10.738462720662051"><ele>137.0</ele><time>2026-04-04T09:04:17.001Z</time></trkpt><trkpt lat="43.46817746198555" lon="10.738594962582596"><ele>137.0</ele><time>2026-04-04T09:04:20.001Z</time></trkpt><trkpt lat="43.46822362679961" lon="10.738705837625547"><ele>137.0</ele><time>2026-04-04T09:04:22.001Z</time></trkpt><trkpt lat="43.46826540430515" lon="10.738814048973474"><ele>136.2</ele><time>2026-04-04T09:04:24.001Z</time></trkpt><trkpt lat="43.468315340251046" lon="10.738911369864299"><ele>135.39999999999998</ele><time>2026-04-04T09:04:26.001Z</time></trkpt><trkpt lat="43.46837750540956" lon="10.73902776547545"><ele>134.60000000000002</ele><time>2026-04-04T09:04:27.998Z</time></trkpt><trkpt lat="43.468428032080915" lon="10.739143641301375"><ele>133.8</ele><time>2026-04-04T09:04:29.998Z</time></trkpt><trkpt lat="43.46848058918729" lon="10.73924679299108"><ele>133.0</ele><time>2026-04-04T09:04:31.998Z</time></trkpt><trkpt lat="43.46851704910221" lon="10.739387090088973"><ele>132.71428571428572</ele><time>2026-04-04T09:04:33.998Z</time></trkpt><trkpt lat="43.468508363208876" lon="10.73947965772593"><ele>132.42857142857144</ele><time>2026-04-04T09:04:34.998Z</time></trkpt><trkpt lat="43.46850834897491" lon="10.739580804518798"><ele>132.14285714285714</ele><time>2026-04-04T09:04:35.998Z</time></trkpt><trkpt lat="43.46851930985865" lon="10.739683454053843"><ele>131.85714285714286</ele><time>2026-04-04T09:04:36.998Z</time></trkpt><trkpt lat="43.46851078887073" lon="10.73978278477407"><ele>131.57142857142858</ele><time>2026-04-04T09:04:37.998Z</time></trkpt><trkpt lat="43.46850059794801" lon="10.739884007207431"><ele>131.28571428571428</ele><time>2026-04-04T09:04:38.998Z</time></trkpt><trkpt lat="43.46847696924995" lon="10.739973234498164"><ele>131.0</ele><time>2026-04-04T09:04:39.998Z</time></trkpt><trkpt lat="43.468475686424426" lon="10.7400671263174"><ele>131.0</ele><time>2026-04-04T09:04:40.998Z</time></trkpt><trkpt lat="43.468469494049074" lon="10.740164923130981"><ele>131.0</ele><time>2026-04-04T09:04:41.998Z</time></trkpt><trkpt lat="43.468458441117896" lon="10.740267860755795"><ele>131.0</ele><time>2026-04-04T09:04:42.998Z</time></trkpt><trkpt lat="43.46844390577826" lon="10.740377480978337"><ele>131.0</ele><time>2026-04-04T09:04:43.998Z</time></trkpt><trkpt lat="43.46841010510908" lon="10.740488854410096"><ele>131.0</ele><time>2026-04-04T09:04:44.998Z</time></trkpt><trkpt lat="43.46837989388799" lon="10.740599187059887"><ele>131.0</ele><time>2026-04-04T09:04:45.998Z</time></trkpt><trkpt lat="43.46833201738585" lon="10.74069160125588"><ele>131.0</ele><time>2026-04-04T09:04:46.998Z</time></trkpt><trkpt lat="43.468280228232075" lon="10.74077330669022"><ele>131.0</ele><time>2026-04-04T09:04:47.999Z</time></trkpt><trkpt lat="43.46822170454077" lon="10.740856825765091"><ele>131.0</ele><time>2026-04-04T09:04:48.999Z</time></trkpt><trkpt lat="43.46815119918019" lon="10.740942639260984"><ele>131.0</ele><time>2026-04-04T09:04:49.999Z</time></trkpt><trkpt lat="43.468075253406816" lon="10.741032361994158"><ele>131.0</ele><time>2026-04-04T09:04:50.999Z</time></trkpt><trkpt lat="43.46802539788448" lon="10.741130666083384"><ele>131.0</ele><time>2026-04-04T09:04:51.999Z</time></trkpt><trkpt lat="43.467975710474164" lon="10.741195190619948"><ele>131.6</ele><time>2026-04-04T09:04:52.999Z</time></trkpt><trkpt lat="43.46791711536183" lon="10.741305583287575"><ele>132.2</ele><time>2026-04-04T09:04:54.999Z</time></trkpt><trkpt lat="43.46784300303305" lon="10.741423960829527"><ele>132.8</ele><time>2026-04-04T09:04:56.999Z</time></trkpt><trkpt lat="43.46778194864828" lon="10.741569827088805"><ele>133.4</ele><time>2026-04-04T09:04:58.999Z</time></trkpt><trkpt lat="43.46774952719307" lon="10.741657825758116"><ele>134.0</ele><time>2026-04-04T09:04:59.999Z</time></trkpt><trkpt lat="43.467716193020436" lon="10.74175164706092"><ele>134.0</ele><time>2026-04-04T09:05:00.999Z</time></trkpt><trkpt lat="43.467682588930714" lon="10.741849007495635"><ele>134.0</ele><time>2026-04-04T09:05:01.999Z</time></trkpt><trkpt lat="43.46764822746539" lon="10.741949016169311"><ele>134.0</ele><time>2026-04-04T09:05:02.999Z</time></trkpt><trkpt lat="43.46761492875618" lon="10.742049201354485"><ele>134.0</ele><time>2026-04-04T09:05:03.999Z</time></trkpt><trkpt lat="43.46758148172228" lon="10.742149696965543"><ele>134.0</ele><time>2026-04-04T09:05:04.999Z</time></trkpt><trkpt lat="43.46754871542199" lon="10.742245667588529"><ele>134.0</ele><time>2026-04-04T09:05:05.999Z</time></trkpt><trkpt lat="43.46752334967585" lon="10.742337273133343"><ele>133.85714285714286</ele><time>2026-04-04T09:05:06.999Z</time></trkpt><trkpt lat="43.467496226300334" lon="10.74242654671268"><ele>133.71428571428572</ele><time>2026-04-04T09:05:07.999Z</time></trkpt><trkpt lat="43.467456348238585" lon="10.742504560545651"><ele>133.57142857142856</ele><time>2026-04-04T09:05:08.999Z</time></trkpt><trkpt lat="43.467428676963806" lon="10.742591406904259"><ele>133.42857142857144</ele><time>2026-04-04T09:05:09.999Z</time></trkpt><trkpt lat="43.46739373692703" lon="10.742678280047095"><ele>133.28571428571428</ele><time>2026-04-04T09:05:10.999Z</time></trkpt><trkpt lat="43.467372005098504" lon="10.742774919096973"><ele>133.14285714285714</ele><time>2026-04-04T09:05:11.999Z</time></trkpt><trkpt lat="43.46735292289893" lon="10.742870066131651"><ele>133.0</ele><time>2026-04-04T09:05:13Z</time></trkpt><trkpt lat="43.46733556640392" lon="10.742970064318826"><ele>133.33333333333334</ele><time>2026-04-04T09:05:14Z</time></trkpt><trkpt lat="43.467323373088014" lon="10.74307885079361"><ele>133.66666666666669</ele><time>2026-04-04T09:05:15Z</time></trkpt><trkpt lat="43.4673113841755" lon="10.743188286331309"><ele>134.0</ele><time>2026-04-04T09:05:16Z</time></trkpt><trkpt lat="43.46730457930966" lon="10.743297858705674"><ele>134.33333333333334</ele><time>2026-04-04T09:05:17Z</time></trkpt><trkpt lat="43.467296786421386" lon="10.74340615927311"><ele>134.66666666666666</ele><time>2026-04-04T09:05:18Z</time></trkpt><trkpt lat="43.46728130967276" lon="10.743514242401575"><ele>135.0</ele><time>2026-04-04T09:05:19Z</time></trkpt><trkpt lat="43.46727370518414" lon="10.743627867829098"><ele>135.0</ele><time>2026-04-04T09:05:20Z</time></trkpt><trkpt lat="43.46725551384312" lon="10.743738399410685"><ele>135.0</ele><time>2026-04-04T09:05:21Z</time></trkpt><trkpt lat="43.467237046929064" lon="10.743842210707028"><ele>135.0</ele><time>2026-04-04T09:05:22Z</time></trkpt><trkpt lat="43.46722664904189" lon="10.743945280132117"><ele>135.0</ele><time>2026-04-04T09:05:23Z</time></trkpt><trkpt lat="43.46721639903496" lon="10.744046546865697"><ele>135.0</ele><time>2026-04-04T09:05:24Z</time></trkpt><trkpt lat="43.467216622922486" lon="10.74414830685412"><ele>135.0</ele><time>2026-04-04T09:05:25Z</time></trkpt><trkpt lat="43.46723787068168" lon="10.744246825364112"><ele>135.0</ele><time>2026-04-04T09:05:26Z</time></trkpt><trkpt lat="43.46727145214941" lon="10.744341271100199"><ele>135.0</ele><time>2026-04-04T09:05:27Z</time></trkpt><trkpt lat="43.46732803631264" lon="10.744425522240517"><ele>135.0</ele><time>2026-04-04T09:05:28Z</time></trkpt><trkpt lat="43.467395098598246" lon="10.74449920715207"><ele>135.0</ele><time>2026-04-04T09:05:29Z</time></trkpt><trkpt lat="43.46747516003508" lon="10.744550971674885"><ele>135.0</ele><time>2026-04-04T09:05:30Z</time></trkpt><trkpt lat="43.467551100555006" lon="10.74459161766497"><ele>135.0</ele><time>2026-04-04T09:05:31Z</time></trkpt><trkpt lat="43.46761987598807" lon="10.74464067843864"><ele>135.83333333333334</ele><time>2026-04-04T09:05:32Z</time></trkpt><trkpt lat="43.46768483715274" lon="10.744688049245005"><ele>136.66666666666666</ele><time>2026-04-04T09:05:33Z</time></trkpt><trkpt lat="43.46774801147358" lon="10.744743275688425"><ele>137.5</ele><time>2026-04-04T09:05:34Z</time></trkpt><trkpt lat="43.46781693249799" lon="10.74479730462907"><ele>138.33333333333331</ele><time>2026-04-04T09:05:35Z</time></trkpt><trkpt lat="43.46788538151223" lon="10.74484652909454"><ele>139.16666666666666</ele><time>2026-04-04T09:05:36Z</time></trkpt><trkpt lat="43.46794778282803" lon="10.74489824017337"><ele>140.0</ele><time>2026-04-04T09:05:37Z</time></trkpt><trkpt lat="43.468012596318296" lon="10.744955926616617"><ele>139.28571428571428</ele><time>2026-04-04T09:05:38Z</time></trkpt><trkpt lat="43.468076172367496" lon="10.745010310944677"><ele>138.57142857142856</ele><time>2026-04-04T09:05:39Z</time></trkpt><trkpt lat="43.468133908172994" lon="10.745072811487953"><ele>137.85714285714286</ele><time>2026-04-04T09:05:40Z</time></trkpt><trkpt lat="43.468181743370444" lon="10.745138005377623"><ele>137.14285714285714</ele><time>2026-04-04T09:05:41Z</time></trkpt><trkpt lat="43.468226374197975" lon="10.745209485393294"><ele>136.42857142857142</ele><time>2026-04-04T09:05:42Z</time></trkpt><trkpt lat="43.46826569499678" lon="10.745277501203537"><ele>135.71428571428572</ele><time>2026-04-04T09:05:43Z</time></trkpt><trkpt lat="43.46830166178607" lon="10.74535474428887"><ele>135.0</ele><time>2026-04-04T09:05:44Z</time></trkpt><trkpt lat="43.46833695226058" lon="10.745436952585521"><ele>135.0</ele><time>2026-04-04T09:05:45Z</time></trkpt><trkpt lat="43.46837304671248" lon="10.745530382028488"><ele>135.0</ele><time>2026-04-04T09:05:46Z</time></trkpt><trkpt lat="43.46840574306227" lon="10.74563827212071"><ele>135.0</ele><time>2026-04-04T09:05:47Z</time></trkpt><trkpt lat="43.46843598674316" lon="10.745755019908025"><ele>135.0</ele><time>2026-04-04T09:05:48Z</time></trkpt><trkpt lat="43.4684638791129" lon="10.745884313770302"><ele>135.0</ele><time>2026-04-04T09:05:49Z</time></trkpt><trkpt lat="43.46849057756923" lon="10.746020603611884"><ele>135.2</ele><time>2026-04-04T09:05:50Z</time></trkpt><trkpt lat="43.468525482691966" lon="10.746150142801426"><ele>135.4</ele><time>2026-04-04T09:05:51Z</time></trkpt><trkpt lat="43.46855705184626" lon="10.746282430538443"><ele>135.6</ele><time>2026-04-04T09:05:52Z</time></trkpt><trkpt lat="43.468585654440844" lon="10.746410453038541"><ele>135.8</ele><time>2026-04-04T09:05:53Z</time></trkpt><trkpt lat="43.46861969712894" lon="10.746526215651938"><ele>136.0</ele><time>2026-04-04T09:05:54Z</time></trkpt><trkpt lat="43.468647893451156" lon="10.74663691354511"><ele>136.0</ele><time>2026-04-04T09:05:55Z</time></trkpt><trkpt lat="43.46868334585171" lon="10.746731716884092"><ele>136.0</ele><time>2026-04-04T09:05:56Z</time></trkpt><trkpt lat="43.46873539323809" lon="10.746826018499025"><ele>136.0</ele><time>2026-04-04T09:05:57Z</time></trkpt><trkpt lat="43.46879378818088" lon="10.74691386444331"><ele>136.0</ele><time>2026-04-04T09:05:58Z</time></trkpt><trkpt lat="43.46885870262703" lon="10.74699002769206"><ele>136.0</ele><time>2026-04-04T09:05:59Z</time></trkpt><trkpt lat="43.46892967686726" lon="10.747061594129091"><ele>136.0</ele><time>2026-04-04T09:06:00.001Z</time></trkpt><trkpt lat="43.46900235397176" lon="10.74713191775728"><ele>134.66666666666669</ele><time>2026-04-04T09:06:01.001Z</time></trkpt><trkpt lat="43.469077472905276" lon="10.747197735713772"><ele>133.33333333333334</ele><time>2026-04-04T09:06:02.001Z</time></trkpt><trkpt lat="43.46915251517346" lon="10.747264800258753"><ele>132.0</ele><time>2026-04-04T09:06:03.001Z</time></trkpt><trkpt lat="43.46922675564585" lon="10.747331813193503"><ele>130.66666666666666</ele><time>2026-04-04T09:06:04.001Z</time></trkpt><trkpt lat="43.46930153212686" lon="10.747393588164751"><ele>129.33333333333331</ele><time>2026-04-04T09:06:05.001Z</time></trkpt><trkpt lat="43.4693738966668" lon="10.747458926929797"><ele>128.0</ele><time>2026-04-04T09:06:06.001Z</time></trkpt><trkpt lat="43.469446068085134" lon="10.747523189722259"><ele>128.0</ele><time>2026-04-04T09:06:07.001Z</time></trkpt><trkpt lat="43.4695191564024" lon="10.747591879278643"><ele>128.0</ele><time>2026-04-04T09:06:08.001Z</time></trkpt><trkpt lat="43.469594347927675" lon="10.747662205987771"><ele>128.0</ele><time>2026-04-04T09:06:09.001Z</time></trkpt><trkpt lat="43.46967565791487" lon="10.747731869815608"><ele>128.0</ele><time>2026-04-04T09:06:10.001Z</time></trkpt><trkpt lat="43.46975502516417" lon="10.747803800302362"><ele>128.0</ele><time>2026-04-04T09:06:11.001Z</time></trkpt><trkpt lat="43.469833088832694" lon="10.747879403704333"><ele>126.83333333333333</ele><time>2026-04-04T09:06:12.001Z</time></trkpt><trkpt lat="43.469918207034716" lon="10.747922956016087"><ele>125.66666666666666</ele><time>2026-04-04T09:06:13.001Z</time></trkpt><trkpt lat="43.469986205376706" lon="10.747998152884982"><ele>124.5</ele><time>2026-04-04T09:06:14.001Z</time></trkpt><trkpt lat="43.47007148469233" lon="10.748035982384417"><ele>123.33333333333334</ele><time>2026-04-04T09:06:15.001Z</time></trkpt><trkpt lat="43.47014106923086" lon="10.748100105054299"><ele>122.16666666666667</ele><time>2026-04-04T09:06:16.001Z</time></trkpt><trkpt lat="43.470225541213395" lon="10.748157755953402"><ele>121.0</ele><time>2026-04-04T09:06:17.001Z</time></trkpt><trkpt lat="43.470310037278246" lon="10.748195650195925"><ele>121.0</ele><time>2026-04-04T09:06:18.001Z</time></trkpt><trkpt lat="43.47040053434314" lon="10.748243397670077"><ele>121.0</ele><time>2026-04-04T09:06:19.001Z</time></trkpt><trkpt lat="43.47049274133216" lon="10.748297588142721"><ele>121.0</ele><time>2026-04-04T09:06:20.001Z</time></trkpt><trkpt lat="43.470590607383194" lon="10.748354813899978"><ele>121.0</ele><time>2026-04-04T09:06:21.001Z</time></trkpt><trkpt lat="43.47068874042044" lon="10.748408937288294"><ele>121.0</ele><time>2026-04-04T09:06:22.001Z</time></trkpt><trkpt lat="43.470787135351976" lon="10.748454164131264"><ele>121.19999999999999</ele><time>2026-04-04T09:06:23.001Z</time></trkpt><trkpt lat="43.470877354248856" lon="10.748514957338717"><ele>121.39999999999999</ele><time>2026-04-04T09:06:24.001Z</time></trkpt><trkpt lat="43.47097488872226" lon="10.748577891581942"><ele>121.6</ele><time>2026-04-04T09:06:25.001Z</time></trkpt><trkpt lat="43.47106743739296" lon="10.74865161011374"><ele>121.8</ele><time>2026-04-04T09:06:26.001Z</time></trkpt><trkpt lat="43.47115309709103" lon="10.748731455859918"><ele>122.0</ele><time>2026-04-04T09:06:27.001Z</time></trkpt><trkpt lat="43.4712317360174" lon="10.748834149844912"><ele>121.75</ele><time>2026-04-04T09:06:28.001Z</time></trkpt><trkpt lat="43.47130564643641" lon="10.748950216742928"><ele>121.5</ele><time>2026-04-04T09:06:29.001Z</time></trkpt><trkpt lat="43.47135451736772" lon="10.749092872215835"><ele>121.25</ele><time>2026-04-04T09:06:30.001Z</time></trkpt><trkpt lat="43.47142451453337" lon="10.749238578274264"><ele>121.0</ele><time>2026-04-04T09:06:31.001Z</time></trkpt><trkpt lat="43.47148460306145" lon="10.74942153697612"><ele>121.5</ele><time>2026-04-04T09:06:32.001Z</time></trkpt><trkpt lat="43.47155329061954" lon="10.749616319126396"><ele>122.0</ele><time>2026-04-04T09:06:33.001Z</time></trkpt><trkpt lat="43.47162085101351" lon="10.749782164155919"><ele>122.5</ele><time>2026-04-04T09:06:33.996Z</time></trkpt><trkpt lat="43.4716800447699" lon="10.74992671511681"><ele>123.0</ele><time>2026-04-04T09:06:34.996Z</time></trkpt><trkpt lat="43.47173401891363" lon="10.7500595731289"><ele>123.0</ele><time>2026-04-04T09:06:35.996Z</time></trkpt><trkpt lat="43.471782794093414" lon="10.750192880875181"><ele>123.00000000000001</ele><time>2026-04-04T09:06:36.996Z</time></trkpt><trkpt lat="43.47180837395324" lon="10.750326739586907"><ele>123.00000000000001</ele><time>2026-04-04T09:06:37.996Z</time></trkpt><trkpt lat="43.47185421163351" lon="10.750444610831488"><ele>123.0</ele><time>2026-04-04T09:06:38.997Z</time></trkpt><trkpt lat="43.47189745671046" lon="10.750581048295455"><ele>123.0</ele><time>2026-04-04T09:06:39.997Z</time></trkpt><trkpt lat="43.47193654387028" lon="10.750716747961137"><ele>123.0</ele><time>2026-04-04T09:06:40.997Z</time></trkpt><trkpt lat="43.471977072070715" lon="10.750860799474639"><ele>123.00000000000001</ele><time>2026-04-04T09:06:41.997Z</time></trkpt><trkpt lat="43.47201331474994" lon="10.751008009034088"><ele>123.00000000000001</ele><time>2026-04-04T09:06:42.997Z</time></trkpt><trkpt lat="43.47204704240995" lon="10.75114895617175"><ele>123.0</ele><time>2026-04-04T09:06:43.997Z</time></trkpt><trkpt lat="43.47208604548355" lon="10.751293825024852"><ele>123.0</ele><time>2026-04-04T09:06:44.997Z</time></trkpt><trkpt lat="43.47212893866105" lon="10.751442891089395"><ele>123.25</ele><time>2026-04-04T09:06:45.997Z</time></trkpt><trkpt lat="43.472169044587" lon="10.75159753262314"><ele>123.5</ele><time>2026-04-04T09:06:46.997Z</time></trkpt><trkpt lat="43.47220969280972" lon="10.75175392118124"><ele>123.75</ele><time>2026-04-04T09:06:47.997Z</time></trkpt><trkpt lat="43.472250615518405" lon="10.75190824189688"><ele>124.0</ele><time>2026-04-04T09:06:48.997Z</time></trkpt><trkpt lat="43.47229611540321" lon="10.75206707461429"><ele>124.5</ele><time>2026-04-04T09:06:49.997Z</time></trkpt><trkpt lat="43.472332145373" lon="10.752237091492416"><ele>125.0</ele><time>2026-04-04T09:06:50.998Z</time></trkpt><trkpt lat="43.47238672448269" lon="10.752407008232925"><ele>125.5</ele><time>2026-04-04T09:06:51.998Z</time></trkpt><trkpt lat="43.4724366236752" lon="10.752582031746615"><ele>126.0</ele><time>2026-04-04T09:06:52.998Z</time></trkpt><trkpt lat="43.47248320173382" lon="10.752747136162807"><ele>126.0</ele><time>2026-04-04T09:06:53.998Z</time></trkpt><trkpt lat="43.472527428341664" lon="10.752906080941244"><ele>126.0</ele><time>2026-04-04T09:06:54.998Z</time></trkpt><trkpt lat="43.4725705203892" lon="10.753071536540892"><ele>126.0</ele><time>2026-04-04T09:06:55.998Z</time></trkpt><trkpt lat="43.472607979659905" lon="10.753237355093423"><ele>126.0</ele><time>2026-04-04T09:06:56.998Z</time></trkpt><trkpt lat="43.47264590385875" lon="10.753406094615915"><ele>125.75</ele><time>2026-04-04T09:06:57.998Z</time></trkpt><trkpt lat="43.47268334289181" lon="10.753565466966474"><ele>125.5</ele><time>2026-04-04T09:06:58.998Z</time></trkpt><trkpt lat="43.472723751332566" lon="10.753721417676035"><ele>125.25</ele><time>2026-04-04T09:06:59.998Z</time></trkpt><trkpt lat="43.472767583251944" lon="10.753876648880329"><ele>125.0</ele><time>2026-04-04T09:07:00.998Z</time></trkpt><trkpt lat="43.47281008028679" lon="10.754031348789164"><ele>125.0</ele><time>2026-04-04T09:07:01.998Z</time></trkpt><trkpt lat="43.47285776090166" lon="10.75418495835257"><ele>125.0</ele><time>2026-04-04T09:07:02.999Z</time></trkpt><trkpt lat="43.47290705113278" lon="10.754327364385606"><ele>125.0</ele><time>2026-04-04T09:07:03.999Z</time></trkpt><trkpt lat="43.472954296782135" lon="10.754473130102316"><ele>125.0</ele><time>2026-04-04T09:07:04.999Z</time></trkpt><trkpt lat="43.47300211095976" lon="10.75460979700472"><ele>125.25</ele><time>2026-04-04T09:07:05.999Z</time></trkpt><trkpt lat="43.47306203486603" lon="10.75474912286031"><ele>125.5</ele><time>2026-04-04T09:07:06.999Z</time></trkpt><trkpt lat="43.47311760232348" lon="10.754886899265067"><ele>125.75</ele><time>2026-04-04T09:07:07.999Z</time></trkpt><trkpt lat="43.47317132323339" lon="10.755026157826533"><ele>126.0</ele><time>2026-04-04T09:07:08.999Z</time></trkpt><trkpt lat="43.473231011854516" lon="10.755160966575957"><ele>126.25</ele><time>2026-04-04T09:07:09.999Z</time></trkpt><trkpt lat="43.47328896011828" lon="10.755304363669886"><ele>126.5</ele><time>2026-04-04T09:07:10.999Z</time></trkpt><trkpt lat="43.47333927876088" lon="10.755441803689399"><ele>126.75</ele><time>2026-04-04T09:07:11.999Z</time></trkpt><trkpt lat="43.47338802019705" lon="10.755586277219976"><ele>127.0</ele><time>2026-04-04T09:07:12.999Z</time></trkpt><trkpt lat="43.473419304970626" lon="10.755738870095426"><ele>127.0</ele><time>2026-04-04T09:07:13.999Z</time></trkpt><trkpt lat="43.4734616518239" lon="10.755882049904935"><ele>126.99999999999999</ele><time>2026-04-04T09:07:14.999Z</time></trkpt><trkpt lat="43.47350385063982" lon="10.756024729405967"><ele>126.99999999999999</ele><time>2026-04-04T09:07:15.999Z</time></trkpt><trkpt lat="43.47354544655956" lon="10.75616537005637"><ele>127.0</ele><time>2026-04-04T09:07:16.999Z</time></trkpt><trkpt lat="43.47360106704335" lon="10.756295729685656"><ele>127.0</ele><time>2026-04-04T09:07:17.999Z</time></trkpt><trkpt lat="43.473626560774356" lon="10.75643404388962"><ele>126.83333333333334</ele><time>2026-04-04T09:07:18.999Z</time></trkpt><trkpt lat="43.47365908804284" lon="10.756555414126655"><ele>126.66666666666667</ele><time>2026-04-04T09:07:19.999Z</time></trkpt><trkpt lat="43.47370737128678" lon="10.756658412680165"><ele>126.5</ele><time>2026-04-04T09:07:20.999Z</time></trkpt><trkpt lat="43.473752024886245" lon="10.756756555650082"><ele>126.33333333333334</ele><time>2026-04-04T09:07:21.999Z</time></trkpt><trkpt lat="43.473797950290106" lon="10.756845630207684"><ele>126.16666666666667</ele><time>2026-04-04T09:07:22.999Z</time></trkpt><trkpt lat="43.47385475840967" lon="10.756928057472038"><ele>126.0</ele><time>2026-04-04T09:07:24Z</time></trkpt><trkpt lat="43.47391747504817" lon="10.757007186959802"><ele>126.33333333333333</ele><time>2026-04-04T09:07:25Z</time></trkpt><trkpt lat="43.47398040519351" lon="10.757079960682391"><ele>126.66666666666666</ele><time>2026-04-04T09:07:26Z</time></trkpt><trkpt lat="43.47404693055134" lon="10.75715261598827"><ele>127.0</ele><time>2026-04-04T09:07:27Z</time></trkpt><trkpt lat="43.47411213429411" lon="10.757218364635497"><ele>127.33333333333333</ele><time>2026-04-04T09:07:28Z</time></trkpt><trkpt lat="43.474179246266694" lon="10.757289666659714"><ele>127.66666666666666</ele><time>2026-04-04T09:07:29Z</time></trkpt><trkpt lat="43.47424665031225" lon="10.757365862760993"><ele>128.0</ele><time>2026-04-04T09:07:30Z</time></trkpt><trkpt lat="43.474313985803576" lon="10.757432674690788"><ele>127.99999999999999</ele><time>2026-04-04T09:07:31Z</time></trkpt><trkpt lat="43.47437905882097" lon="10.757493653651961"><ele>128.0</ele><time>2026-04-04T09:07:32Z</time></trkpt><trkpt lat="43.47444243188759" lon="10.757556970273564"><ele>128.0</ele><time>2026-04-04T09:07:33Z</time></trkpt><trkpt lat="43.474504924603885" lon="10.757620287462029"><ele>128.0</ele><time>2026-04-04T09:07:34Z</time></trkpt><trkpt lat="43.47456706827683" lon="10.757679532291268"><ele>127.99999999999999</ele><time>2026-04-04T09:07:35Z</time></trkpt><trkpt lat="43.47462653629025" lon="10.757737082689161"><ele>128.0</ele><time>2026-04-04T09:07:36Z</time></trkpt><trkpt lat="43.47468840367095" lon="10.7578028803498"><ele>126.83333333333333</ele><time>2026-04-04T09:07:37Z</time></trkpt><trkpt lat="43.47475349459727" lon="10.757866302092106"><ele>125.66666666666666</ele><time>2026-04-04T09:07:38Z</time></trkpt><trkpt lat="43.474819511812896" lon="10.757927433553581"><ele>124.5</ele><time>2026-04-04T09:07:39Z</time></trkpt><trkpt lat="43.474883697434144" lon="10.75798505754279"><ele>123.33333333333334</ele><time>2026-04-04T09:07:40Z</time></trkpt><trkpt lat="43.474938995383994" lon="10.758052088835568"><ele>122.16666666666667</ele><time>2026-04-04T09:07:41Z</time></trkpt><trkpt lat="43.47498986885439" lon="10.758136462661549"><ele>121.0</ele><time>2026-04-04T09:07:42Z</time></trkpt><trkpt lat="43.47503045130795" lon="10.758225838006746"><ele>121.00000000000001</ele><time>2026-04-04T09:07:43Z</time></trkpt><trkpt lat="43.475063768639544" lon="10.75832531434723"><ele>121.0</ele><time>2026-04-04T09:07:44Z</time></trkpt><trkpt lat="43.47509399599633" lon="10.758431653173044"><ele>121.0</ele><time>2026-04-04T09:07:45Z</time></trkpt><trkpt lat="43.475119789313915" lon="10.758539354409065"><ele>121.0</ele><time>2026-04-04T09:07:46Z</time></trkpt><trkpt lat="43.47514320499627" lon="10.75865098047395"><ele>121.00000000000001</ele><time>2026-04-04T09:07:47Z</time></trkpt><trkpt lat="43.47516484213567" lon="10.758771480151513"><ele>121.0</ele><time>2026-04-04T09:07:48Z</time></trkpt><trkpt lat="43.47518640909191" lon="10.758891500612304"><ele>119.8</ele><time>2026-04-04T09:07:49Z</time></trkpt><trkpt lat="43.47518996461007" lon="10.759016372099413"><ele>118.6</ele><time>2026-04-04T09:07:50Z</time></trkpt><trkpt lat="43.475198114451125" lon="10.759145571372082"><ele>117.4</ele><time>2026-04-04T09:07:51Z</time></trkpt><trkpt lat="43.47520368500909" lon="10.75927750352696"><ele>116.2</ele><time>2026-04-04T09:07:52Z</time></trkpt><trkpt lat="43.475209073381095" lon="10.75940751887812"><ele>115.0</ele><time>2026-04-04T09:07:53Z</time></trkpt><trkpt lat="43.475215434875494" lon="10.759537148597014"><ele>114.66666666666667</ele><time>2026-04-04T09:07:54Z</time></trkpt><trkpt lat="43.475226093784826" lon="10.759661612251797"><ele>114.33333333333334</ele><time>2026-04-04T09:07:55Z</time></trkpt><trkpt lat="43.47523258155109" lon="10.759787028458181"><ele>114.0</ele><time>2026-04-04T09:07:56.001Z</time></trkpt><trkpt lat="43.47523877340615" lon="10.759914229551775"><ele>113.66666666666666</ele><time>2026-04-04T09:07:57.001Z</time></trkpt><trkpt lat="43.47524489186918" lon="10.760031736608518"><ele>113.33333333333333</ele><time>2026-04-04T09:07:58.001Z</time></trkpt><trkpt lat="43.47525235161052" lon="10.760148513062193"><ele>113.0</ele><time>2026-04-04T09:07:59.001Z</time></trkpt><trkpt lat="43.47526045654621" lon="10.760272157335157"><ele>111.80000000000001</ele><time>2026-04-04T09:08:00.001Z</time></trkpt><trkpt lat="43.47526127271932" lon="10.760408019720325"><ele>110.60000000000001</ele><time>2026-04-04T09:08:01.001Z</time></trkpt><trkpt lat="43.475254933782935" lon="10.760546840858463"><ele>109.39999999999999</ele><time>2026-04-04T09:08:02.001Z</time></trkpt><trkpt lat="43.47523842294709" lon="10.760692713405662"><ele>108.19999999999999</ele><time>2026-04-04T09:08:03.001Z</time></trkpt><trkpt lat="43.475208924793534" lon="10.760839457769173"><ele>107.0</ele><time>2026-04-04T09:08:04.001Z</time></trkpt><trkpt lat="43.47516410853399" lon="10.760981447877406"><ele>104.6</ele><time>2026-04-04T09:08:05.001Z</time></trkpt><trkpt lat="43.47508888011038" lon="10.761093280008426"><ele>102.19999999999999</ele><time>2026-04-04T09:08:06.001Z</time></trkpt><trkpt lat="43.475008345802436" lon="10.761190547923709"><ele>99.8</ele><time>2026-04-04T09:08:07.001Z</time></trkpt><trkpt lat="43.47491868981029" lon="10.761279074268856"><ele>97.4</ele><time>2026-04-04T09:08:08.001Z</time></trkpt><trkpt lat="43.474816444545105" lon="10.761369305336219"><ele>95.0</ele><time>2026-04-04T09:08:09.001Z</time></trkpt><trkpt lat="43.47470180130467" lon="10.761467036952196"><ele>96.25</ele><time>2026-04-04T09:08:10.001Z</time></trkpt><trkpt lat="43.47458118120239" lon="10.761567559516985"><ele>97.5</ele><time>2026-04-04T09:08:11.001Z</time></trkpt><trkpt lat="43.47444986434412" lon="10.761671861885485"><ele>98.75</ele><time>2026-04-04T09:08:12.001Z</time></trkpt><trkpt lat="43.47432063316674" lon="10.761774507743358"><ele>100.0</ele><time>2026-04-04T09:08:13.001Z</time></trkpt><trkpt lat="43.47418996197707" lon="10.761879298477464"><ele>97.25</ele><time>2026-04-04T09:08:14.001Z</time></trkpt><trkpt lat="43.47406322838817" lon="10.761982154341135"><ele>94.5</ele><time>2026-04-04T09:08:15.001Z</time></trkpt><trkpt lat="43.473938162227704" lon="10.762083656982194"><ele>91.75</ele><time>2026-04-04T09:08:16.001Z</time></trkpt><trkpt lat="43.473819912808516" lon="10.762179627192154"><ele>89.0</ele><time>2026-04-04T09:08:17.001Z</time></trkpt><trkpt lat="43.473703893296644" lon="10.762273095774459"><ele>89.0</ele><time>2026-04-04T09:08:18.001Z</time></trkpt><trkpt lat="43.4735867588528" lon="10.76236400402032"><ele>89.0</ele><time>2026-04-04T09:08:19.001Z</time></trkpt><trkpt lat="43.47346352577837" lon="10.762447695688016"><ele>89.0</ele><time>2026-04-04T09:08:20.001Z</time></trkpt><trkpt lat="43.473351010963434" lon="10.76252348941955"><ele>89.0</ele><time>2026-04-04T09:08:21.001Z</time></trkpt><trkpt lat="43.473250659651725" lon="10.762613544520683"><ele>87.80000000000001</ele><time>2026-04-04T09:08:22.001Z</time></trkpt><trkpt lat="43.47317715771312" lon="10.762738295905233"><ele>86.60000000000001</ele><time>2026-04-04T09:08:23.001Z</time></trkpt><trkpt lat="43.473107216815784" lon="10.762859857778064"><ele>85.4</ele><time>2026-04-04T09:08:24.001Z</time></trkpt><trkpt lat="43.47308147764126" lon="10.762976995704859"><ele>84.2</ele><time>2026-04-04T09:08:25.001Z</time></trkpt><trkpt lat="43.4730626666412" lon="10.763060290305992"><ele>83.0</ele><time>2026-04-04T09:08:26.001Z</time></trkpt><trkpt lat="43.473033940559375" lon="10.763145995252927"><ele>83.0</ele><time>2026-04-04T09:08:29.001Z</time></trkpt><trkpt lat="43.47302338752589" lon="10.763239530195408"><ele>83.0</ele><time>2026-04-04T09:08:36.002Z</time></trkpt><trkpt lat="43.47299426490209" lon="10.763343950714694"><ele>83.0</ele><time>2026-04-04T09:08:39.002Z</time></trkpt><trkpt lat="43.47288318086997" lon="10.763267269611873"><ele>83.0</ele><time>2026-04-04T09:08:39.997Z</time></trkpt><trkpt lat="43.472772055771124" lon="10.76324866765907"><ele>83.0</ele><time>2026-04-04T09:08:40.997Z</time></trkpt><trkpt lat="43.47265613251467" lon="10.763230185550771"><ele>82.33333333333334</ele><time>2026-04-04T09:08:41.997Z</time></trkpt><trkpt lat="43.47252704651968" lon="10.763206315532896"><ele>81.66666666666667</ele><time>2026-04-04T09:08:42.997Z</time></trkpt><trkpt lat="43.47237285288894" lon="10.763167377704711"><ele>81.0</ele><time>2026-04-04T09:08:43.997Z</time></trkpt><trkpt lat="43.472193986722665" lon="10.76308776041988"><ele>80.66666666666667</ele><time>2026-04-04T09:08:44.997Z</time></trkpt><trkpt lat="43.47199841725978" lon="10.76298248056327"><ele>80.33333333333334</ele><time>2026-04-04T09:08:45.997Z</time></trkpt><trkpt lat="43.47180514719507" lon="10.762871173463216"><ele>80.0</ele><time>2026-04-04T09:08:46.997Z</time></trkpt><trkpt lat="43.47159531136717" lon="10.762745048395931"><ele>81.0</ele><time>2026-04-04T09:08:47.997Z</time></trkpt><trkpt lat="43.47140235528502" lon="10.762627212065874"><ele>82.0</ele><time>2026-04-04T09:08:48.997Z</time></trkpt><trkpt lat="43.4712257218316" lon="10.7625207045521"><ele>83.0</ele><time>2026-04-04T09:08:49.997Z</time></trkpt><trkpt lat="43.47106106160788" lon="10.762421424138712"><ele>83.0</ele><time>2026-04-04T09:08:50.997Z</time></trkpt><trkpt lat="43.47090352850175" lon="10.762326578736605"><ele>83.0</ele><time>2026-04-04T09:08:51.997Z</time></trkpt><trkpt lat="43.470756124865765" lon="10.762239049042524"><ele>83.0</ele><time>2026-04-04T09:08:52.998Z</time></trkpt><trkpt lat="43.47061095015153" lon="10.76217668433228"><ele>83.0</ele><time>2026-04-04T09:08:53.998Z</time></trkpt><trkpt lat="43.47047744995592" lon="10.762098292352787"><ele>83.0</ele><time>2026-04-04T09:08:54.998Z</time></trkpt><trkpt lat="43.470350590620384" lon="10.76199711413426"><ele>83.0</ele><time>2026-04-04T09:08:55.998Z</time></trkpt><trkpt lat="43.47021507791662" lon="10.761915159737224"><ele>83.0</ele><time>2026-04-04T09:08:56.998Z</time></trkpt><trkpt lat="43.47007087202314" lon="10.761829285044017"><ele>83.33333333333334</ele><time>2026-04-04T09:08:57.998Z</time></trkpt><trkpt lat="43.46992007460546" lon="10.7617452507694"><ele>83.66666666666667</ele><time>2026-04-04T09:08:58.998Z</time></trkpt><trkpt lat="43.46976793017872" lon="10.761669213008572"><ele>84.0</ele><time>2026-04-04T09:08:59.998Z</time></trkpt><trkpt lat="43.469607061933495" lon="10.761605862271352"><ele>84.0</ele><time>2026-04-04T09:09:00.998Z</time></trkpt><trkpt lat="43.469450935098756" lon="10.761552575997632"><ele>84.0</ele><time>2026-04-04T09:09:01.998Z</time></trkpt><trkpt lat="43.469307924789696" lon="10.761507548530997"><ele>84.0</ele><time>2026-04-04T09:09:02.999Z</time></trkpt><trkpt lat="43.46917569789181" lon="10.761466372741898"><ele>84.0</ele><time>2026-04-04T09:09:03.999Z</time></trkpt><trkpt lat="43.46905000202146" lon="10.761427348239211"><ele>84.0</ele><time>2026-04-04T09:09:04.999Z</time></trkpt><trkpt lat="43.46892192363198" lon="10.761387897779574"><ele>84.0</ele><time>2026-04-04T09:09:05.999Z</time></trkpt><trkpt lat="43.468786425176944" lon="10.761345113127593"><ele>84.0</ele><time>2026-04-04T09:09:06.999Z</time></trkpt><trkpt lat="43.46864368502139" lon="10.761299041099527"><ele>84.0</ele><time>2026-04-04T09:09:07.999Z</time></trkpt><trkpt lat="43.468497890968216" lon="10.761253741619472"><ele>83.0</ele><time>2026-04-04T09:09:08.999Z</time></trkpt><trkpt lat="43.46834942624025" lon="10.761208460885756"><ele>82.0</ele><time>2026-04-04T09:09:09.999Z</time></trkpt><trkpt lat="43.468190451714364" lon="10.761158965984535"><ele>81.0</ele><time>2026-04-04T09:09:10.999Z</time></trkpt><trkpt lat="43.46802916181328" lon="10.761107964314837"><ele>81.0</ele><time>2026-04-04T09:09:11.999Z</time></trkpt><trkpt lat="43.46786536402073" lon="10.761056169721376"><ele>81.0</ele><time>2026-04-04T09:09:12.999Z</time></trkpt><trkpt lat="43.467695884058344" lon="10.761003014359764"><ele>81.0</ele><time>2026-04-04T09:09:13.999Z</time></trkpt><trkpt lat="43.46752590561474" lon="10.760949815000597"><ele>81.66666666666667</ele><time>2026-04-04T09:09:14.999Z</time></trkpt><trkpt lat="43.46734861574684" lon="10.760894496210796"><ele>82.33333333333334</ele><time>2026-04-04T09:09:15.999Z</time></trkpt><trkpt lat="43.467174990702965" lon="10.760841401298464"><ele>83.0</ele><time>2026-04-04T09:09:16.999Z</time></trkpt><trkpt lat="43.46700899523473" lon="10.760790308687588"><ele>83.0</ele><time>2026-04-04T09:09:17.999Z</time></trkpt><trkpt lat="43.46683859518157" lon="10.760735980794474"><ele>83.0</ele><time>2026-04-04T09:09:18.999Z</time></trkpt><trkpt lat="43.46666715555292" lon="10.760681357109975"><ele>83.0</ele><time>2026-04-04T09:09:20Z</time></trkpt><trkpt lat="43.46648759430614" lon="10.760624146152727"><ele>83.0</ele><time>2026-04-04T09:09:21Z</time></trkpt><trkpt lat="43.4663033659962" lon="10.760567281511078"><ele>83.0</ele><time>2026-04-04T09:09:22Z</time></trkpt><trkpt lat="43.46611221514027" lon="10.760508715076465"><ele>83.0</ele><time>2026-04-04T09:09:23Z</time></trkpt><trkpt lat="43.46591996062044" lon="10.760453123173823"><ele>82.66666666666667</ele><time>2026-04-04T09:09:24Z</time></trkpt><trkpt lat="43.46571411681154" lon="10.760426111080898"><ele>82.33333333333333</ele><time>2026-04-04T09:09:25Z</time></trkpt><trkpt lat="43.465500768927924" lon="10.760418228153897"><ele>82.0</ele><time>2026-04-04T09:09:26Z</time></trkpt><trkpt lat="43.46527872188489" lon="10.760432402613052"><ele>82.0</ele><time>2026-04-04T09:09:27Z</time></trkpt><trkpt lat="43.465053997129665" lon="10.760460592585105"><ele>82.0</ele><time>2026-04-04T09:09:28Z</time></trkpt><trkpt lat="43.464825282736136" lon="10.760498227125037"><ele>82.33333333333333</ele><time>2026-04-04T09:09:29Z</time></trkpt><trkpt lat="43.46460254043937" lon="10.760538821645605"><ele>82.66666666666667</ele><time>2026-04-04T09:09:30Z</time></trkpt><trkpt lat="43.4643939201219" lon="10.76057327742537"><ele>83.0</ele><time>2026-04-04T09:09:31Z</time></trkpt><trkpt lat="43.46419596470973" lon="10.76060805290529"><ele>83.0</ele><time>2026-04-04T09:09:32Z</time></trkpt><trkpt lat="43.46399504374679" lon="10.760624588514876"><ele>83.0</ele><time>2026-04-04T09:09:33Z</time></trkpt><trkpt lat="43.46378641473431" lon="10.760610985706558"><ele>83.0</ele><time>2026-04-04T09:09:34Z</time></trkpt><trkpt lat="43.46356665390525" lon="10.760591799467319"><ele>84.0</ele><time>2026-04-04T09:09:35Z</time></trkpt><trkpt lat="43.46334280185503" lon="10.760567088082986"><ele>85.0</ele><time>2026-04-04T09:09:36Z</time></trkpt><trkpt lat="43.46312839051986" lon="10.760554819519514"><ele>86.0</ele><time>2026-04-04T09:09:37Z</time></trkpt><trkpt lat="43.46291179078871" lon="10.760588298986528"><ele>86.66666666666667</ele><time>2026-04-04T09:09:38Z</time></trkpt><trkpt lat="43.4626978014869" lon="10.760656823601973"><ele>87.33333333333333</ele><time>2026-04-04T09:09:39Z</time></trkpt><trkpt lat="43.46250330685014" lon="10.760717121174885"><ele>88.0</ele><time>2026-04-04T09:09:40Z</time></trkpt><trkpt lat="43.46232423322592" lon="10.760768376385986"><ele>88.0</ele><time>2026-04-04T09:09:41Z</time></trkpt><trkpt lat="43.46214533019114" lon="10.760785738843886"><ele>88.0</ele><time>2026-04-04T09:09:42Z</time></trkpt><trkpt lat="43.461973696328684" lon="10.760757294787743"><ele>88.0</ele><time>2026-04-04T09:09:43Z</time></trkpt><trkpt lat="43.46181171025369" lon="10.760684871348863"><ele>88.0</ele><time>2026-04-04T09:09:44Z</time></trkpt><trkpt lat="43.461654606671146" lon="10.760585320127563"><ele>88.0</ele><time>2026-04-04T09:09:45Z</time></trkpt><trkpt lat="43.46149586031124" lon="10.760478093285789"><ele>88.0</ele><time>2026-04-04T09:09:46.001Z</time></trkpt><trkpt lat="43.46131838116694" lon="10.760355121168221"><ele>87.0</ele><time>2026-04-04T09:09:47.001Z</time></trkpt><trkpt lat="43.46113278678555" lon="10.760226525936915"><ele>86.0</ele><time>2026-04-04T09:09:48.001Z</time></trkpt><trkpt lat="43.4609561471624" lon="10.76010286715258"><ele>85.0</ele><time>2026-04-04T09:09:49.001Z</time></trkpt><trkpt lat="43.46078012947791" lon="10.759978231286782"><ele>86.5</ele><time>2026-04-04T09:09:50.001Z</time></trkpt><trkpt lat="43.46059857572345" lon="10.759849675400817"><ele>88.0</ele><time>2026-04-04T09:09:51.001Z</time></trkpt><trkpt lat="43.460300331920486" lon="10.760045206463545"><ele>88.0</ele><time>2026-04-04T09:09:52.001Z</time></trkpt><trkpt lat="43.460105040871625" lon="10.759995950864349"><ele>88.0</ele><time>2026-04-04T09:09:53.001Z</time></trkpt><trkpt lat="43.460291064547135" lon="10.759652999878993"><ele>88.0</ele><time>2026-04-04T09:09:54.001Z</time></trkpt><trkpt lat="43.46016596647739" lon="10.759570549219767"><ele>88.0</ele><time>2026-04-04T09:09:55.001Z</time></trkpt><trkpt lat="43.46005183698733" lon="10.759499394614428"><ele>88.0</ele><time>2026-04-04T09:09:56.001Z</time></trkpt><trkpt lat="43.45994134279146" lon="10.759450155553878"><ele>88.0</ele><time>2026-04-04T09:09:57.001Z</time></trkpt><trkpt lat="43.45982016980503" lon="10.7594400936194"><ele>88.0</ele><time>2026-04-04T09:09:58.001Z</time></trkpt><trkpt lat="43.45969677380538" lon="10.759464380204077"><ele>88.0</ele><time>2026-04-04T09:09:59.001Z</time></trkpt><trkpt lat="43.45957415956256" lon="10.759524140582778"><ele>88.0</ele><time>2026-04-04T09:10:00.001Z</time></trkpt><trkpt lat="43.4594549586489" lon="10.759612980742533"><ele>88.0</ele><time>2026-04-04T09:10:01.001Z</time></trkpt><trkpt lat="43.45934679367484" lon="10.759739202112938"><ele>87.0</ele><time>2026-04-04T09:10:02.001Z</time></trkpt><trkpt lat="43.45925173877108" lon="10.75991111844881"><ele>86.0</ele><time>2026-04-04T09:10:03.001Z</time></trkpt><trkpt lat="43.459168611792535" lon="10.760129490958684"><ele>85.0</ele><time>2026-04-04T09:10:04.001Z</time></trkpt><trkpt lat="43.459090132034945" lon="10.760374446165242"><ele>85.0</ele><time>2026-04-04T09:10:05.001Z</time></trkpt><trkpt lat="43.459017416501865" lon="10.760616939532905"><ele>85.0</ele><time>2026-04-04T09:10:06.001Z</time></trkpt><trkpt lat="43.45893368103362" lon="10.760861705876014"><ele>85.0</ele><time>2026-04-04T09:10:07.001Z</time></trkpt><trkpt lat="43.45885114183421" lon="10.761117285328078"><ele>86.33333333333333</ele><time>2026-04-04T09:10:08.001Z</time></trkpt><trkpt lat="43.458759172781974" lon="10.76136911967223"><ele>87.66666666666667</ele><time>2026-04-04T09:10:09.001Z</time></trkpt><trkpt lat="43.45867139585312" lon="10.76162000728803"><ele>89.0</ele><time>2026-04-04T09:10:10.001Z</time></trkpt><trkpt lat="43.45858650111764" lon="10.761858996723285"><ele>89.66666666666667</ele><time>2026-04-04T09:10:11.001Z</time></trkpt><trkpt lat="43.4585087441171" lon="10.762077524741366"><ele>90.33333333333333</ele><time>2026-04-04T09:10:12.001Z</time></trkpt><trkpt lat="43.458459702302015" lon="10.762304514005681"><ele>91.0</ele><time>2026-04-04T09:10:13.001Z</time></trkpt><trkpt lat="43.45845822750658" lon="10.76254757128854"><ele>90.66666666666666</ele><time>2026-04-04T09:10:14.001Z</time></trkpt><trkpt lat="43.4584831135219" lon="10.762809251517174"><ele>90.33333333333333</ele><time>2026-04-04T09:10:15.001Z</time></trkpt><trkpt lat="43.45848918310583" lon="10.763065823747844"><ele>90.0</ele><time>2026-04-04T09:10:16.001Z</time></trkpt><trkpt lat="43.45850168466099" lon="10.763289008170918"><ele>90.0</ele><time>2026-04-04T09:10:17.001Z</time></trkpt><trkpt lat="43.45847609066808" lon="10.763494736311003"><ele>90.0</ele><time>2026-04-04T09:10:18.002Z</time></trkpt><trkpt lat="43.458412539736024" lon="10.763675254963362"><ele>90.0</ele><time>2026-04-04T09:10:19.002Z</time></trkpt><trkpt lat="43.45830727772848" lon="10.763834080183894"><ele>89.0</ele><time>2026-04-04T09:10:20.002Z</time></trkpt><trkpt lat="43.45816796905144" lon="10.763973213092225"><ele>88.0</ele><time>2026-04-04T09:10:21.002Z</time></trkpt><trkpt lat="43.458013527653" lon="10.764129431449524"><ele>87.0</ele><time>2026-04-04T09:10:22.002Z</time></trkpt><trkpt lat="43.45785451233409" lon="10.764315539089804"><ele>87.66666666666667</ele><time>2026-04-04T09:10:23.002Z</time></trkpt><trkpt lat="43.457694211323634" lon="10.76450618129498"><ele>88.33333333333334</ele><time>2026-04-04T09:10:24.002Z</time></trkpt><trkpt lat="43.45753712507955" lon="10.764688687791462"><ele>89.0</ele><time>2026-04-04T09:10:25.002Z</time></trkpt><trkpt lat="43.45738121720584" lon="10.764869081378407"><ele>89.0</ele><time>2026-04-04T09:10:26.002Z</time></trkpt><trkpt lat="43.45722422697849" lon="10.76504993199281"><ele>89.0</ele><time>2026-04-04T09:10:27.002Z</time></trkpt><trkpt lat="43.45706285228584" lon="10.765230991318179"><ele>89.0</ele><time>2026-04-04T09:10:28.002Z</time></trkpt><trkpt lat="43.456896581634005" lon="10.765414865067154"><ele>89.33333333333334</ele><time>2026-04-04T09:10:29.002Z</time></trkpt><trkpt lat="43.45672939571132" lon="10.765599385084329"><ele>89.66666666666667</ele><time>2026-04-04T09:10:30.002Z</time></trkpt><trkpt lat="43.45656247808289" lon="10.765790258023214"><ele>90.0</ele><time>2026-04-04T09:10:31.002Z</time></trkpt><trkpt lat="43.45639594157956" lon="10.76598233368424"><ele>90.66666666666667</ele><time>2026-04-04T09:10:32.002Z</time></trkpt><trkpt lat="43.45623084409379" lon="10.766171363192145"><ele>91.33333333333334</ele><time>2026-04-04T09:10:33.002Z</time></trkpt><trkpt lat="43.45606366624596" lon="10.766358687211687"><ele>92.0</ele><time>2026-04-04T09:10:34.002Z</time></trkpt><trkpt lat="43.45589658542288" lon="10.766542601747567"><ele>92.0</ele><time>2026-04-04T09:10:35.002Z</time></trkpt><trkpt lat="43.45573467193218" lon="10.766729387861648"><ele>92.0</ele><time>2026-04-04T09:10:36.002Z</time></trkpt><trkpt lat="43.455570347701446" lon="10.766910885885776"><ele>92.0</ele><time>2026-04-04T09:10:37.002Z</time></trkpt><trkpt lat="43.45541824614274" lon="10.767088807033634"><ele>93.0</ele><time>2026-04-04T09:10:38.002Z</time></trkpt><trkpt lat="43.45526437422652" lon="10.76727075873966"><ele>94.0</ele><time>2026-04-04T09:10:39.002Z</time></trkpt><trkpt lat="43.45511174405894" lon="10.767454763878836"><ele>95.0</ele><time>2026-04-04T09:10:40.002Z</time></trkpt><trkpt lat="43.454962295545045" lon="10.767634716714326"><ele>95.33333333333334</ele><time>2026-04-04T09:10:41.002Z</time></trkpt><trkpt lat="43.45480321160006" lon="10.76778770686843"><ele>95.66666666666667</ele><time>2026-04-04T09:10:42.002Z</time></trkpt><trkpt lat="43.454646262361436" lon="10.767945448620962"><ele>96.0</ele><time>2026-04-04T09:10:43.002Z</time></trkpt><trkpt lat="43.454477200429594" lon="10.768088748723846"><ele>96.0</ele><time>2026-04-04T09:10:44.002Z</time></trkpt><trkpt lat="43.4543029428358" lon="10.768217540460226"><ele>96.0</ele><time>2026-04-04T09:10:45.002Z</time></trkpt><trkpt lat="43.45411694263568" lon="10.768330803822527"><ele>96.0</ele><time>2026-04-04T09:10:45.998Z</time></trkpt><trkpt lat="43.45392846144024" lon="10.768429921076539"><ele>96.33333333333334</ele><time>2026-04-04T09:10:46.998Z</time></trkpt><trkpt lat="43.45373423884501" lon="10.768530716609348"><ele>96.66666666666667</ele><time>2026-04-04T09:10:47.998Z</time></trkpt><trkpt lat="43.45353969026188" lon="10.768633055743601"><ele>97.0</ele><time>2026-04-04T09:10:48.998Z</time></trkpt><trkpt lat="43.453343816571056" lon="10.768741541435915"><ele>97.0</ele><time>2026-04-04T09:10:49.998Z</time></trkpt><trkpt lat="43.45314819523348" lon="10.76885299674919"><ele>97.0</ele><time>2026-04-04T09:10:50.999Z</time></trkpt><trkpt lat="43.452950065310056" lon="10.76897297703705"><ele>97.0</ele><time>2026-04-04T09:10:51.999Z</time></trkpt><trkpt lat="43.4527492926732" lon="10.769087092172176"><ele>96.66666666666667</ele><time>2026-04-04T09:10:52.999Z</time></trkpt><trkpt lat="43.45255149026648" lon="10.769201147779878"><ele>96.33333333333334</ele><time>2026-04-04T09:10:53.999Z</time></trkpt><trkpt lat="43.4523553065484" lon="10.769311480029064"><ele>96.0</ele><time>2026-04-04T09:10:54.999Z</time></trkpt><trkpt lat="43.45213768630946" lon="10.76936584836939"><ele>97.0</ele><time>2026-04-04T09:10:55.999Z</time></trkpt><trkpt lat="43.451939367961046" lon="10.769476471218233"><ele>98.0</ele><time>2026-04-04T09:10:56.999Z</time></trkpt><trkpt lat="43.45173939764661" lon="10.76958803636525"><ele>99.0</ele><time>2026-04-04T09:10:57.999Z</time></trkpt><trkpt lat="43.45153882707713" lon="10.769700354043408"><ele>99.0</ele><time>2026-04-04T09:10:58.999Z</time></trkpt><trkpt lat="43.451344301555274" lon="10.769809896362517"><ele>99.0</ele><time>2026-04-04T09:10:59.999Z</time></trkpt><trkpt lat="43.45116451792673" lon="10.76991113710598"><ele>99.0</ele><time>2026-04-04T09:11:00.999Z</time></trkpt><trkpt lat="43.45099307554209" lon="10.77000768074358"><ele>99.33333333333334</ele><time>2026-04-04T09:11:01.999Z</time></trkpt><trkpt lat="43.45082962316925" lon="10.770099724995468"><ele>99.66666666666667</ele><time>2026-04-04T09:11:02.999Z</time></trkpt><trkpt lat="43.45067426582895" lon="10.770187210690537"><ele>100.0</ele><time>2026-04-04T09:11:04Z</time></trkpt><trkpt lat="43.45052872131405" lon="10.770269170557485"><ele>100.25</ele><time>2026-04-04T09:11:05Z</time></trkpt><trkpt lat="43.450401134099145" lon="10.770341018196161"><ele>100.5</ele><time>2026-04-04T09:11:06Z</time></trkpt><trkpt lat="43.4502751213484" lon="10.770411979181429"><ele>100.75</ele><time>2026-04-04T09:11:07Z</time></trkpt><trkpt lat="43.45015753658521" lon="10.770482498679327"><ele>101.0</ele><time>2026-04-04T09:11:08Z</time></trkpt><trkpt lat="43.45004887955252" lon="10.770588832794832"><ele>101.0</ele><time>2026-04-04T09:11:09Z</time></trkpt><trkpt lat="43.44996768958357" lon="10.770742605135172"><ele>101.0</ele><time>2026-04-04T09:11:10Z</time></trkpt><trkpt lat="43.44991486843716" lon="10.770955272058822"><ele>101.0</ele><time>2026-04-04T09:11:11Z</time></trkpt><trkpt lat="43.44990699690613" lon="10.77120547177445"><ele>100.33333333333333</ele><time>2026-04-04T09:11:12Z</time></trkpt><trkpt lat="43.44994483036553" lon="10.771457871394484"><ele>99.66666666666666</ele><time>2026-04-04T09:11:13Z</time></trkpt><trkpt lat="43.44993789507895" lon="10.771671484093316"><ele>99.0</ele><time>2026-04-04T09:11:14Z</time></trkpt><trkpt lat="43.449941248827706" lon="10.771854594746824"><ele>98.75</ele><time>2026-04-04T09:11:15Z</time></trkpt><trkpt lat="43.4499346290209" lon="10.77201502163786"><ele>98.5</ele><time>2026-04-04T09:11:16Z</time></trkpt><trkpt lat="43.44989647490872" lon="10.77214723499817"><ele>98.25</ele><time>2026-04-04T09:11:17Z</time></trkpt><trkpt lat="43.449821884648216" lon="10.772257018405952"><ele>98.0</ele><time>2026-04-04T09:11:18Z</time></trkpt><trkpt lat="43.44970475726871" lon="10.772319202447612"><ele>99.0</ele><time>2026-04-04T09:11:19Z</time></trkpt><trkpt lat="43.449571238370744" lon="10.772293112541044"><ele>100.0</ele><time>2026-04-04T09:11:20Z</time></trkpt><trkpt lat="43.44940634783582" lon="10.7722653837011"><ele>101.0</ele><time>2026-04-04T09:11:21Z</time></trkpt><trkpt lat="43.44926068429509" lon="10.772238826702495"><ele>102.0</ele><time>2026-04-04T09:11:22Z</time></trkpt><trkpt lat="43.449122016916185" lon="10.772213549726798"><ele>102.0</ele><time>2026-04-04T09:11:23.001Z</time></trkpt><trkpt lat="43.44899226016542" lon="10.77219039995358"><ele>102.0</ele><time>2026-04-04T09:11:24.001Z</time></trkpt><trkpt lat="43.44885277919971" lon="10.77216782682833"><ele>102.0</ele><time>2026-04-04T09:11:25.001Z</time></trkpt><trkpt lat="43.44870829584914" lon="10.772152685675952"><ele>102.0</ele><time>2026-04-04T09:11:26.001Z</time></trkpt><trkpt lat="43.4485587385276" lon="10.77215076910933"><ele>104.33333333333334</ele><time>2026-04-04T09:11:27.001Z</time></trkpt><trkpt lat="43.44840674391434" lon="10.772190217720883"><ele>106.66666666666667</ele><time>2026-04-04T09:11:28.001Z</time></trkpt><trkpt lat="43.448250268544626" lon="10.772193164476432"><ele>109.0</ele><time>2026-04-04T09:11:29.001Z</time></trkpt><trkpt lat="43.448093099596186" lon="10.772218667426799"><ele>109.0</ele><time>2026-04-04T09:11:30.001Z</time></trkpt><trkpt lat="43.44792801053403" lon="10.772245453618101"><ele>109.0</ele><time>2026-04-04T09:11:31.001Z</time></trkpt><trkpt lat="43.44775896617117" lon="10.77227288156784"><ele>109.0</ele><time>2026-04-04T09:11:32.001Z</time></trkpt><trkpt lat="43.44758564985635" lon="10.772301002615777"><ele>109.0</ele><time>2026-04-04T09:11:33.001Z</time></trkpt><trkpt lat="43.44740802094276" lon="10.77233794404949"><ele>109.0</ele><time>2026-04-04T09:11:34.001Z</time></trkpt><trkpt lat="43.447227506646534" lon="10.772374746127214"><ele>109.0</ele><time>2026-04-04T09:11:35.001Z</time></trkpt><trkpt lat="43.44704584367107" lon="10.772408022221589"><ele>108.66666666666667</ele><time>2026-04-04T09:11:36.001Z</time></trkpt><trkpt lat="43.44686564200594" lon="10.772439135475699"><ele>108.33333333333334</ele><time>2026-04-04T09:11:37.001Z</time></trkpt><trkpt lat="43.44669038259849" lon="10.77244600075741"><ele>108.0</ele><time>2026-04-04T09:11:38.001Z</time></trkpt><trkpt lat="43.44651733369868" lon="10.772476096217606"><ele>108.0</ele><time>2026-04-04T09:11:39.001Z</time></trkpt><trkpt lat="43.44635116618997" lon="10.772504121525092"><ele>108.0</ele><time>2026-04-04T09:11:40.001Z</time></trkpt><trkpt lat="43.446192197285114" lon="10.772525344907907"><ele>108.0</ele><time>2026-04-04T09:11:41.001Z</time></trkpt><trkpt lat="43.44604495816938" lon="10.772541621194526"><ele>108.25</ele><time>2026-04-04T09:11:42.001Z</time></trkpt><trkpt lat="43.44590379901088" lon="10.77255548299547"><ele>108.5</ele><time>2026-04-04T09:11:43.001Z</time></trkpt><trkpt lat="43.44576948235693" lon="10.772567060954609"><ele>108.75</ele><time>2026-04-04T09:11:44.001Z</time></trkpt><trkpt lat="43.445632128126725" lon="10.772576997667176"><ele>109.0</ele><time>2026-04-04T09:11:45.001Z</time></trkpt><trkpt lat="43.445489596912616" lon="10.77258694992781"><ele>109.66666666666667</ele><time>2026-04-04T09:11:46.001Z</time></trkpt><trkpt lat="43.44533884999237" lon="10.772597475855509"><ele>110.33333333333334</ele><time>2026-04-04T09:11:47.001Z</time></trkpt><trkpt lat="43.445182123245345" lon="10.772608419325698"><ele>111.0</ele><time>2026-04-04T09:11:48.001Z</time></trkpt><trkpt lat="43.445024225529046" lon="10.772619444552994"><ele>111.0</ele><time>2026-04-04T09:11:49.001Z</time></trkpt><trkpt lat="43.44485970599172" lon="10.77263100455152"><ele>111.0</ele><time>2026-04-04T09:11:50.001Z</time></trkpt><trkpt lat="43.444692293881054" lon="10.77264284113778"><ele>111.0</ele><time>2026-04-04T09:11:51.002Z</time></trkpt><trkpt lat="43.444513855800324" lon="10.772669133735148"><ele>111.0</ele><time>2026-04-04T09:11:52.002Z</time></trkpt><trkpt lat="43.44433278450998" lon="10.772668184725086"><ele>111.0</ele><time>2026-04-04T09:11:53.002Z</time></trkpt><trkpt lat="43.444146496775865" lon="10.772681315237795"><ele>111.0</ele><time>2026-04-04T09:11:54.002Z</time></trkpt><trkpt lat="43.44395005312833" lon="10.772730365313715"><ele>111.33333333333334</ele><time>2026-04-04T09:11:55.002Z</time></trkpt><trkpt lat="43.44374657758854" lon="10.772744419785427"><ele>111.66666666666667</ele><time>2026-04-04T09:11:56.002Z</time></trkpt><trkpt lat="43.443542112575756" lon="10.7727348189118"><ele>112.0</ele><time>2026-04-04T09:11:57.002Z</time></trkpt><trkpt lat="43.443331258920445" lon="10.772690732495377"><ele>113.0</ele><time>2026-04-04T09:11:58.002Z</time></trkpt><trkpt lat="43.44311248337432" lon="10.772550166131612"><ele>114.0</ele><time>2026-04-04T09:11:59.002Z</time></trkpt><trkpt lat="43.44288690296801" lon="10.772455238597852"><ele>114.33333333333334</ele><time>2026-04-04T09:12:00.002Z</time></trkpt><trkpt lat="43.44268487193086" lon="10.772370628094462"><ele>114.66666666666667</ele><time>2026-04-04T09:12:01.002Z</time></trkpt><trkpt lat="43.442497931738714" lon="10.772292376658331"><ele>115.0</ele><time>2026-04-04T09:12:02.002Z</time></trkpt><trkpt lat="43.44232963046597" lon="10.772222420847099"><ele>115.0</ele><time>2026-04-04T09:12:03.002Z</time></trkpt><trkpt lat="43.44216707277193" lon="10.772154852403453"><ele>115.0</ele><time>2026-04-04T09:12:04.002Z</time></trkpt><trkpt lat="43.442014253556444" lon="10.772091331845232"><ele>115.0</ele><time>2026-04-04T09:12:05.002Z</time></trkpt><trkpt lat="43.441864812210625" lon="10.772029215315623"><ele>114.33333333333334</ele><time>2026-04-04T09:12:06.002Z</time></trkpt><trkpt lat="43.441715175855585" lon="10.771967017740826"><ele>113.66666666666666</ele><time>2026-04-04T09:12:07.002Z</time></trkpt><trkpt lat="43.44156040052429" lon="10.771902684098322"><ele>113.0</ele><time>2026-04-04T09:12:08.002Z</time></trkpt><trkpt lat="43.44140106985003" lon="10.771836444599195"><ele>114.66666666666666</ele><time>2026-04-04T09:12:09.002Z</time></trkpt><trkpt lat="43.44123750990848" lon="10.771768349681343"><ele>116.33333333333334</ele><time>2026-04-04T09:12:10.002Z</time></trkpt><trkpt lat="43.44106828831304" lon="10.771697897658557"><ele>118.0</ele><time>2026-04-04T09:12:11.002Z</time></trkpt><trkpt lat="43.44088813542389" lon="10.77162342560551"><ele>118.0</ele><time>2026-04-04T09:12:12.002Z</time></trkpt><trkpt lat="43.44070246391125" lon="10.771547739850664"><ele>118.0</ele><time>2026-04-04T09:12:13.002Z</time></trkpt><trkpt lat="43.440514835045484" lon="10.771461379183675"><ele>118.0</ele><time>2026-04-04T09:12:14.002Z</time></trkpt><trkpt lat="43.4403437828817" lon="10.771328632231702"><ele>118.33333333333334</ele><time>2026-04-04T09:12:15.002Z</time></trkpt><trkpt lat="43.440189755327125" lon="10.771140143269339"><ele>118.66666666666666</ele><time>2026-04-04T09:12:16.002Z</time></trkpt><trkpt lat="43.44003898920465" lon="10.770935012974743"><ele>119.0</ele><time>2026-04-04T09:12:17.002Z</time></trkpt><trkpt lat="43.43987473277294" lon="10.770738741061715"><ele>119.0</ele><time>2026-04-04T09:12:18.002Z</time></trkpt><trkpt lat="43.4397245668559" lon="10.770542254340153"><ele>119.0</ele><time>2026-04-04T09:12:19.002Z</time></trkpt><trkpt lat="43.439579162144526" lon="10.770343887627403"><ele>119.0</ele><time>2026-04-04T09:12:20.002Z</time></trkpt><trkpt lat="43.439428474536" lon="10.7701428306043"><ele>119.66666666666666</ele><time>2026-04-04T09:12:21.002Z</time></trkpt><trkpt lat="43.43929153765225" lon="10.769929615331122"><ele>120.33333333333334</ele><time>2026-04-04T09:12:22.002Z</time></trkpt><trkpt lat="43.439143619182445" lon="10.769731994844937"><ele>121.0</ele><time>2026-04-04T09:12:23.003Z</time></trkpt><trkpt lat="43.43899669578897" lon="10.769535703813293"><ele>121.66666666666667</ele><time>2026-04-04T09:12:24.003Z</time></trkpt><trkpt lat="43.43884725458306" lon="10.769336048983446"><ele>122.33333333333334</ele><time>2026-04-04T09:12:25.003Z</time></trkpt><trkpt lat="43.43869447859443" lon="10.76913193883866"><ele>123.0</ele><time>2026-04-04T09:12:26.003Z</time></trkpt><trkpt lat="43.43852944769719" lon="10.76893853599342"><ele>123.0</ele><time>2026-04-04T09:12:27.003Z</time></trkpt><trkpt lat="43.43837536853451" lon="10.768726529633472"><ele>123.0</ele><time>2026-04-04T09:12:28.003Z</time></trkpt><trkpt lat="43.43821854503393" lon="10.768520762467734"><ele>123.0</ele><time>2026-04-04T09:12:29.003Z</time></trkpt><trkpt lat="43.438069709894776" lon="10.768294988638678"><ele>124.0</ele><time>2026-04-04T09:12:30.003Z</time></trkpt><trkpt lat="43.43790501120077" lon="10.768075529916498"><ele>125.0</ele><time>2026-04-04T09:12:31.003Z</time></trkpt><trkpt lat="43.437730729747386" lon="10.767844109764514"><ele>124.5</ele><time>2026-04-04T09:12:32.003Z</time></trkpt><trkpt lat="43.437560877215866" lon="10.76761731235073"><ele>124.0</ele><time>2026-04-04T09:12:33.003Z</time></trkpt><trkpt lat="43.43739594485179" lon="10.767396931980999"><ele>124.0</ele><time>2026-04-04T09:12:34.003Z</time></trkpt><trkpt lat="43.437232075827104" lon="10.767176952439174"><ele>124.0</ele><time>2026-04-04T09:12:35.003Z</time></trkpt><trkpt lat="43.43706191927014" lon="10.766962471164181"><ele>125.0</ele><time>2026-04-04T09:12:36.003Z</time></trkpt><trkpt lat="43.436920161073026" lon="10.76671164019471"><ele>126.0</ele><time>2026-04-04T09:12:37.003Z</time></trkpt><trkpt lat="43.43679481730795" lon="10.76643257268513"><ele>126.0</ele><time>2026-04-04T09:12:38.003Z</time></trkpt><trkpt lat="43.436692851107736" lon="10.766126567407998"><ele>126.0</ele><time>2026-04-04T09:12:39.003Z</time></trkpt><trkpt lat="43.43657004464373" lon="10.7658044754239"><ele>125.5</ele><time>2026-04-04T09:12:40.003Z</time></trkpt><trkpt lat="43.43643939533432" lon="10.765464557284243"><ele>125.0</ele><time>2026-04-04T09:12:41.003Z</time></trkpt><trkpt lat="43.43630499565576" lon="10.765113740379325"><ele>129.0</ele><time>2026-04-04T09:12:42.003Z</time></trkpt><trkpt lat="43.43616979550768" lon="10.76475908951554"><ele>133.0</ele><time>2026-04-04T09:12:43.003Z</time></trkpt><trkpt lat="43.43603440784167" lon="10.764403947172864"><ele>132.0</ele><time>2026-04-04T09:12:44.003Z</time></trkpt><trkpt lat="43.43589237958722" lon="10.764056513582922"><ele>131.0</ele><time>2026-04-04T09:12:45.003Z</time></trkpt><trkpt lat="43.43576037042196" lon="10.763708171573755"><ele>130.0</ele><time>2026-04-04T09:12:46.003Z</time></trkpt><trkpt lat="43.435630879874296" lon="10.763375735133106"><ele>129.0</ele><time>2026-04-04T09:12:47.003Z</time></trkpt><trkpt lat="43.43550707338657" lon="10.763061525946869"><ele>131.0</ele><time>2026-04-04T09:12:48.003Z</time></trkpt><trkpt lat="43.43539244741212" lon="10.762764037988832"><ele>133.0</ele><time>2026-04-04T09:12:49.003Z</time></trkpt><trkpt lat="43.43527904103987" lon="10.762470869100472"><ele>133.0</ele><time>2026-04-04T09:12:50.003Z</time></trkpt><trkpt lat="43.435167914569206" lon="10.76217982443242"><ele>133.0</ele><time>2026-04-04T09:12:51.003Z</time></trkpt><trkpt lat="43.4350607847291" lon="10.761905369918633"><ele>132.66666666666669</ele><time>2026-04-04T09:12:52Z</time></trkpt><trkpt lat="43.4349578309541" lon="10.76164485129688"><ele>132.33333333333334</ele><time>2026-04-04T09:12:53Z</time></trkpt><trkpt lat="43.43486626463518" lon="10.76139667257624"><ele>132.0</ele><time>2026-04-04T09:12:54Z</time></trkpt><trkpt lat="43.43477292748051" lon="10.761163576758122"><ele>131.66666666666666</ele><time>2026-04-04T09:12:55Z</time></trkpt><trkpt lat="43.434682200088155" lon="10.760927062264221"><ele>131.33333333333331</ele><time>2026-04-04T09:12:56Z</time></trkpt><trkpt lat="43.43455848263975" lon="10.760724291885415"><ele>131.0</ele><time>2026-04-04T09:12:57Z</time></trkpt><trkpt lat="43.43441895569227" lon="10.760550500570762"><ele>132.0</ele><time>2026-04-04T09:12:58Z</time></trkpt><trkpt lat="43.434276439428025" lon="10.760382969973886"><ele>133.0</ele><time>2026-04-04T09:12:59Z</time></trkpt><trkpt lat="43.43413577644797" lon="10.760216275737081"><ele>134.0</ele><time>2026-04-04T09:13:00Z</time></trkpt><trkpt lat="43.43399373892025" lon="10.760073553360893"><ele>134.0</ele><time>2026-04-04T09:13:01Z</time></trkpt><trkpt lat="43.43387357845499" lon="10.759927843892282"><ele>134.0</ele><time>2026-04-04T09:13:02Z</time></trkpt><trkpt lat="43.433767525272614" lon="10.75978135951499"><ele>134.0</ele><time>2026-04-04T09:13:03Z</time></trkpt><trkpt lat="43.43365259166846" lon="10.759668462242255"><ele>135.5</ele><time>2026-04-04T09:13:04Z</time></trkpt><trkpt lat="43.43351876261713" lon="10.759588616726377"><ele>137.0</ele><time>2026-04-04T09:13:05Z</time></trkpt><trkpt lat="43.433378590794845" lon="10.759533515685504"><ele>138.5</ele><time>2026-04-04T09:13:06Z</time></trkpt><trkpt lat="43.43323729869487" lon="10.759483208817779"><ele>140.0</ele><time>2026-04-04T09:13:07Z</time></trkpt><trkpt lat="43.43309188913551" lon="10.7594330191313"><ele>139.5</ele><time>2026-04-04T09:13:08Z</time></trkpt><trkpt lat="43.43294976910271" lon="10.759386158939156"><ele>139.0</ele><time>2026-04-04T09:13:09Z</time></trkpt><trkpt lat="43.432811425982734" lon="10.759344034415362"><ele>138.5</ele><time>2026-04-04T09:13:10Z</time></trkpt><trkpt lat="43.43267520929021" lon="10.759307415012247"><ele>138.0</ele><time>2026-04-04T09:13:11Z</time></trkpt><trkpt lat="43.432540729388265" lon="10.759279807439324"><ele>138.0</ele><time>2026-04-04T09:13:12Z</time></trkpt><trkpt lat="43.432405438922586" lon="10.759260686390194"><ele>138.0</ele><time>2026-04-04T09:13:13Z</time></trkpt><trkpt lat="43.43226685939673" lon="10.759255351333758"><ele>138.0</ele><time>2026-04-04T09:13:14Z</time></trkpt><trkpt lat="43.432125799285814" lon="10.759259624569605"><ele>138.0</ele><time>2026-04-04T09:13:15Z</time></trkpt><trkpt lat="43.43197356592734" lon="10.75928726181913"><ele>139.66666666666666</ele><time>2026-04-04T09:13:16Z</time></trkpt><trkpt lat="43.431805587858335" lon="10.759338564965384"><ele>141.33333333333331</ele><time>2026-04-04T09:13:17Z</time></trkpt><trkpt lat="43.43162547380198" lon="10.759395393567557"><ele>143.0</ele><time>2026-04-04T09:13:18Z</time></trkpt><trkpt lat="43.43143054926388" lon="10.759457435487866"><ele>145.0</ele><time>2026-04-04T09:13:19Z</time></trkpt><trkpt lat="43.43121848316806" lon="10.759524656544935"><ele>147.0</ele><time>2026-04-04T09:13:20Z</time></trkpt><trkpt lat="43.430993742576185" lon="10.759595010154221"><ele>149.0</ele><time>2026-04-04T09:13:21Z</time></trkpt><trkpt lat="43.43077859799653" lon="10.759662359739874"><ele>149.0</ele><time>2026-04-04T09:13:22Z</time></trkpt><trkpt lat="43.43058259436812" lon="10.759722894673073"><ele>149.0</ele><time>2026-04-04T09:13:23Z</time></trkpt><trkpt lat="43.43039638703895" lon="10.759776590096084"><ele>149.0</ele><time>2026-04-04T09:13:24Z</time></trkpt><trkpt lat="43.43021605900851" lon="10.759809000167445"><ele>148.33333333333331</ele><time>2026-04-04T09:13:25Z</time></trkpt><trkpt lat="43.43003871755566" lon="10.759821358897124"><ele>147.66666666666666</ele><time>2026-04-04T09:13:26Z</time></trkpt><trkpt lat="43.42985096651266" lon="10.759687178926862"><ele>147.0</ele><time>2026-04-04T09:13:27Z</time></trkpt><trkpt lat="43.42968553177718" lon="10.759610268382552"><ele>148.25</ele><time>2026-04-04T09:13:28Z</time></trkpt><trkpt lat="43.42953355181271" lon="10.75954789396214"><ele>149.5</ele><time>2026-04-04T09:13:29Z</time></trkpt><trkpt lat="43.42938917024087" lon="10.7595060731019"><ele>150.75</ele><time>2026-04-04T09:13:30Z</time></trkpt><trkpt lat="43.42925323438917" lon="10.759517779022879"><ele>152.0</ele><time>2026-04-04T09:13:31Z</time></trkpt><trkpt lat="43.429109302067786" lon="10.759590538130269"><ele>152.0</ele><time>2026-04-04T09:13:32.001Z</time></trkpt><trkpt lat="43.42897898097678" lon="10.759689890240894"><ele>152.0</ele><time>2026-04-04T09:13:33.001Z</time></trkpt><trkpt lat="43.42885158697195" lon="10.759824213788262"><ele>152.0</ele><time>2026-04-04T09:13:34.001Z</time></trkpt><trkpt lat="43.42874571491535" lon="10.759972686178651"><ele>154.0</ele><time>2026-04-04T09:13:35.001Z</time></trkpt><trkpt lat="43.42864256627176" lon="10.760116884610111"><ele>156.0</ele><time>2026-04-04T09:13:36.001Z</time></trkpt><trkpt lat="43.4285146223808" lon="10.760231912266697"><ele>158.0</ele><time>2026-04-04T09:13:37.001Z</time></trkpt><trkpt lat="43.428363757495255" lon="10.760304835822849"><ele>158.0</ele><time>2026-04-04T09:13:38.001Z</time></trkpt><trkpt lat="43.42822757780906" lon="10.760329590414509"><ele>158.0</ele><time>2026-04-04T09:13:39.001Z</time></trkpt><trkpt lat="43.428113056836416" lon="10.76035108623196"><ele>158.0</ele><time>2026-04-04T09:13:40.001Z</time></trkpt><trkpt lat="43.42800333875466" lon="10.760435169126294"><ele>158.0</ele><time>2026-04-04T09:13:41.001Z</time></trkpt><trkpt lat="43.427913950865566" lon="10.760574469951804"><ele>156.75</ele><time>2026-04-04T09:13:42.001Z</time></trkpt><trkpt lat="43.42787010031494" lon="10.760751683527808"><ele>155.5</ele><time>2026-04-04T09:13:43.001Z</time></trkpt><trkpt lat="43.42781048994127" lon="10.760932680811443"><ele>154.25</ele><time>2026-04-04T09:13:44.001Z</time></trkpt><trkpt lat="43.42773344075918" lon="10.76109581358952"><ele>153.0</ele><time>2026-04-04T09:13:45.001Z</time></trkpt><trkpt lat="43.4276495027873" lon="10.76125739912688"><ele>153.0</ele><time>2026-04-04T09:13:46.001Z</time></trkpt><trkpt lat="43.42757149971082" lon="10.761413025102042"><ele>153.0</ele><time>2026-04-04T09:13:47.001Z</time></trkpt><trkpt lat="43.4275084296771" lon="10.761574059256292"><ele>153.0</ele><time>2026-04-04T09:13:48.001Z</time></trkpt><trkpt lat="43.42746078276306" lon="10.761767267567148"><ele>153.0</ele><time>2026-04-04T09:13:49.001Z</time></trkpt><trkpt lat="43.42744833652598" lon="10.76197691399051"><ele>153.25</ele><time>2026-04-04T09:13:50.001Z</time></trkpt><trkpt lat="43.42746061689334" lon="10.76217346915424"><ele>153.5</ele><time>2026-04-04T09:13:51.001Z</time></trkpt><trkpt lat="43.427477247990254" lon="10.762349370217152"><ele>153.75</ele><time>2026-04-04T09:13:52.001Z</time></trkpt><trkpt lat="43.427498910364086" lon="10.76250271539744"><ele>154.0</ele><time>2026-04-04T09:13:53.001Z</time></trkpt><trkpt lat="43.42749547632046" lon="10.762650272159664"><ele>154.75</ele><time>2026-04-04T09:13:54.001Z</time></trkpt><trkpt lat="43.42744811549126" lon="10.762788290546357"><ele>155.5</ele><time>2026-04-04T09:13:55.001Z</time></trkpt><trkpt lat="43.427344494719414" lon="10.762874930997382"><ele>156.25</ele><time>2026-04-04T09:13:56.001Z</time></trkpt><trkpt lat="43.42721656445111" lon="10.762932475676948"><ele>157.0</ele><time>2026-04-04T09:13:57.001Z</time></trkpt><trkpt lat="43.42709665764658" lon="10.762995693913062"><ele>154.0</ele><time>2026-04-04T09:13:58.001Z</time></trkpt><trkpt lat="43.426973977126224" lon="10.763059266536992"><ele>151.0</ele><time>2026-04-04T09:13:59.001Z</time></trkpt><trkpt lat="43.426859604434995" lon="10.76312438850266"><ele>148.0</ele><time>2026-04-04T09:14:00.001Z</time></trkpt><trkpt lat="43.426762392380375" lon="10.763215699750903"><ele>145.0</ele><time>2026-04-04T09:14:01.001Z</time></trkpt><trkpt lat="43.4266888208326" lon="10.763340605530287"><ele>145.0</ele><time>2026-04-04T09:14:02.001Z</time></trkpt><trkpt lat="43.42663509566128" lon="10.763500960212742"><ele>145.0</ele><time>2026-04-04T09:14:03.001Z</time></trkpt><trkpt lat="43.42661398237038" lon="10.763669016566745"><ele>145.0</ele><time>2026-04-04T09:14:04.001Z</time></trkpt><trkpt lat="43.426602571741256" lon="10.763838739679965"><ele>145.0</ele><time>2026-04-04T09:14:05.001Z</time></trkpt><trkpt lat="43.426584912533194" lon="10.763997526342436"><ele>145.6</ele><time>2026-04-04T09:14:06.001Z</time></trkpt><trkpt lat="43.42653833380272" lon="10.764129531375884"><ele>146.2</ele><time>2026-04-04T09:14:07.001Z</time></trkpt><trkpt lat="43.42645005001226" lon="10.764205929817528"><ele>146.8</ele><time>2026-04-04T09:14:08.001Z</time></trkpt><trkpt lat="43.42635847017185" lon="10.764252355394266"><ele>147.4</ele><time>2026-04-04T09:14:09.002Z</time></trkpt><trkpt lat="43.42628216077433" lon="10.764340512657375"><ele>148.0</ele><time>2026-04-04T09:14:10.002Z</time></trkpt><trkpt lat="43.426229910180425" lon="10.764449067572528"><ele>145.6</ele><time>2026-04-04T09:14:11.002Z</time></trkpt><trkpt lat="43.42618198547067" lon="10.76457913434561"><ele>143.20000000000002</ele><time>2026-04-04T09:14:12.002Z</time></trkpt><trkpt lat="43.42616249303097" lon="10.764722444071971"><ele>140.8</ele><time>2026-04-04T09:14:13.002Z</time></trkpt><trkpt lat="43.426156813557704" lon="10.764844232857877"><ele>138.4</ele><time>2026-04-04T09:14:14.002Z</time></trkpt><trkpt lat="43.426136088085805" lon="10.764990336998427"><ele>136.0</ele><time>2026-04-04T09:14:15.002Z</time></trkpt><trkpt lat="43.426142512060714" lon="10.765129467918255"><ele>136.0</ele><time>2026-04-04T09:14:16.002Z</time></trkpt><trkpt lat="43.426107794864414" lon="10.765263591890648"><ele>136.0</ele><time>2026-04-04T09:14:17.002Z</time></trkpt><trkpt lat="43.42607450906551" lon="10.765385643143537"><ele>136.0</ele><time>2026-04-04T09:14:18.002Z</time></trkpt><trkpt lat="43.42602217569371" lon="10.765508560340011"><ele>136.0</ele><time>2026-04-04T09:14:19.002Z</time></trkpt><trkpt lat="43.425948793231306" lon="10.765605606738731"><ele>136.0</ele><time>2026-04-04T09:14:20.002Z</time></trkpt><trkpt lat="43.425851032209415" lon="10.765719851497813"><ele>136.0</ele><time>2026-04-04T09:14:21.002Z</time></trkpt><trkpt lat="43.42574476509211" lon="10.765849363671588"><ele>136.0</ele><time>2026-04-04T09:14:22.002Z</time></trkpt><trkpt lat="43.42565031392199" lon="10.766024688645212"><ele>136.0</ele><time>2026-04-04T09:14:23.002Z</time></trkpt><trkpt lat="43.42555954924932" lon="10.76623690516923"><ele>137.66666666666669</ele><time>2026-04-04T09:14:24.002Z</time></trkpt><trkpt lat="43.4254811942309" lon="10.766437887981699"><ele>139.33333333333334</ele><time>2026-04-04T09:14:25.002Z</time></trkpt><trkpt lat="43.42540682382146" lon="10.766631905215014"><ele>141.0</ele><time>2026-04-04T09:14:26.002Z</time></trkpt><trkpt lat="43.42532462533987" lon="10.76684436922203"><ele>137.0</ele><time>2026-04-04T09:14:27.002Z</time></trkpt><trkpt lat="43.42524339409492" lon="10.767054014017525"><ele>133.0</ele><time>2026-04-04T09:14:28.002Z</time></trkpt><trkpt lat="43.42516749612069" lon="10.767249336619948"><ele>129.0</ele><time>2026-04-04T09:14:29.002Z</time></trkpt><trkpt lat="43.42509444780947" lon="10.76743732573237"><ele>129.0</ele><time>2026-04-04T09:14:30.002Z</time></trkpt><trkpt lat="43.425019258894245" lon="10.767620381957244"><ele>129.0</ele><time>2026-04-04T09:14:31.002Z</time></trkpt><trkpt lat="43.42492541149728" lon="10.76778001187187"><ele>129.0</ele><time>2026-04-04T09:14:32.002Z</time></trkpt><trkpt lat="43.424810713332" lon="10.767914233396885"><ele>127.66666666666666</ele><time>2026-04-04T09:14:33.002Z</time></trkpt><trkpt lat="43.42468963311255" lon="10.768055208989777"><ele>126.33333333333333</ele><time>2026-04-04T09:14:34.002Z</time></trkpt><trkpt lat="43.42455276876706" lon="10.768180119672385"><ele>125.0</ele><time>2026-04-04T09:14:35.002Z</time></trkpt><trkpt lat="43.42442240244262" lon="10.768320879102214"><ele>125.0</ele><time>2026-04-04T09:14:36.002Z</time></trkpt><trkpt lat="43.42431304665727" lon="10.768467545957531"><ele>125.0</ele><time>2026-04-04T09:14:37.002Z</time></trkpt><trkpt lat="43.42419403528669" lon="10.768615393950205"><ele>125.0</ele><time>2026-04-04T09:14:38.002Z</time></trkpt><trkpt lat="43.424093802347336" lon="10.76875260963675"><ele>124.2</ele><time>2026-04-04T09:14:39.002Z</time></trkpt><trkpt lat="43.42402452911276" lon="10.768860733540238"><ele>123.4</ele><time>2026-04-04T09:14:40.002Z</time></trkpt><trkpt lat="43.42394461616582" lon="10.768968998413131"><ele>122.6</ele><time>2026-04-04T09:14:41.002Z</time></trkpt><trkpt lat="43.42388162906627" lon="10.769069048380258"><ele>121.8</ele><time>2026-04-04T09:14:42.002Z</time></trkpt><trkpt lat="43.42383539765659" lon="10.76917344796951"><ele>121.0</ele><time>2026-04-04T09:14:43.003Z</time></trkpt><trkpt lat="43.423842549006025" lon="10.76930666295707"><ele>121.5</ele><time>2026-04-04T09:14:44.003Z</time></trkpt><trkpt lat="43.42386335614412" lon="10.76944790463056"><ele>122.0</ele><time>2026-04-04T09:14:45.003Z</time></trkpt><trkpt lat="43.42395014460906" lon="10.769588593071598"><ele>122.5</ele><time>2026-04-04T09:14:46.003Z</time></trkpt><trkpt lat="43.424049925153675" lon="10.769721057370376"><ele>123.0</ele><time>2026-04-04T09:14:47.003Z</time></trkpt><trkpt lat="43.424131673596115" lon="10.769866527342634"><ele>123.0</ele><time>2026-04-04T09:14:48.003Z</time></trkpt><trkpt lat="43.42419799704524" lon="10.770001086722766"><ele>123.0</ele><time>2026-04-04T09:14:49.003Z</time></trkpt><trkpt lat="43.42425371270214" lon="10.770139861960203"><ele>123.0</ele><time>2026-04-04T09:14:50.003Z</time></trkpt><trkpt lat="43.42429269741042" lon="10.770288303828975"><ele>123.0</ele><time>2026-04-04T09:14:51.003Z</time></trkpt><trkpt lat="43.42430107604311" lon="10.77044079017779"><ele>123.5</ele><time>2026-04-04T09:14:52.003Z</time></trkpt><trkpt lat="43.4242802798326" lon="10.77059998329896"><ele>124.0</ele><time>2026-04-04T09:14:53.003Z</time></trkpt><trkpt lat="43.4242278275636" lon="10.770750569067689"><ele>124.5</ele><time>2026-04-04T09:14:54.003Z</time></trkpt><trkpt lat="43.42415150438152" lon="10.770902925944128"><ele>125.0</ele><time>2026-04-04T09:14:55.003Z</time></trkpt><trkpt lat="43.42407321082624" lon="10.771039335817184"><ele>125.0</ele><time>2026-04-04T09:14:56.003Z</time></trkpt><trkpt lat="43.42399080618336" lon="10.771175156885784"><ele>125.0</ele><time>2026-04-04T09:14:57.003Z</time></trkpt><trkpt lat="43.4239070691227" lon="10.771305905426223"><ele>125.0</ele><time>2026-04-04T09:14:58Z</time></trkpt><trkpt lat="43.42382199124842" lon="10.771428931515949"><ele>125.0</ele><time>2026-04-04T09:14:59Z</time></trkpt><trkpt lat="43.42374459394364" lon="10.771525181881735"><ele>124.83333333333333</ele><time>2026-04-04T09:15:00Z</time></trkpt><trkpt lat="43.42367346478001" lon="10.771596012506816"><ele>124.66666666666666</ele><time>2026-04-04T09:15:01Z</time></trkpt><trkpt lat="43.423616507582935" lon="10.771646222294153"><ele>124.5</ele><time>2026-04-04T09:15:02Z</time></trkpt><trkpt lat="43.42353036676396" lon="10.77171192258763"><ele>124.33333333333334</ele><time>2026-04-04T09:15:04Z</time></trkpt><trkpt lat="43.42348111998322" lon="10.771772539800768"><ele>124.16666666666667</ele><time>2026-04-04T09:15:06Z</time></trkpt><trkpt lat="43.42341636340806" lon="10.771801819922171"><ele>124.0</ele><time>2026-04-04T09:15:59.001Z</time></trkpt><trkpt lat="43.42332859059084" lon="10.771895390210702"><ele>124.0</ele><time>2026-04-04T09:16:02.001Z</time></trkpt><trkpt lat="43.423283542328335" lon="10.771975735259176"><ele>124.0</ele><time>2026-04-04T09:16:03.002Z</time></trkpt><trkpt lat="43.423241372527805" lon="10.77210235879727"><ele>124.0</ele><time>2026-04-04T09:16:04.002Z</time></trkpt><trkpt lat="43.42323787125005" lon="10.772235258611401"><ele>124.0</ele><time>2026-04-04T09:16:05.002Z</time></trkpt><trkpt lat="43.42325387369573" lon="10.772362045737854"><ele>124.0</ele><time>2026-04-04T09:16:06.002Z</time></trkpt><trkpt lat="43.423276660191654" lon="10.772482622693998"><ele>124.0</ele><time>2026-04-04T09:16:07.002Z</time></trkpt><trkpt lat="43.42330431870311" lon="10.772609014618123"><ele>124.0</ele><time>2026-04-04T09:16:08.002Z</time></trkpt><trkpt lat="43.4232917482177" lon="10.772745035821828"><ele>124.0</ele><time>2026-04-04T09:16:09.002Z</time></trkpt><trkpt lat="43.42323737463514" lon="10.772903393737232"><ele>124.0</ele><time>2026-04-04T09:16:10.002Z</time></trkpt><trkpt lat="43.42313003136623" lon="10.773034393276982"><ele>124.0</ele><time>2026-04-04T09:16:11.002Z</time></trkpt><trkpt lat="43.423009190925626" lon="10.77317896183441"><ele>124.0</ele><time>2026-04-04T09:16:12.002Z</time></trkpt><trkpt lat="43.422871126422784" lon="10.773335850514906"><ele>124.0</ele><time>2026-04-04T09:16:13.002Z</time></trkpt><trkpt lat="43.422696802360186" lon="10.773532126468695"><ele>124.5</ele><time>2026-04-04T09:16:14.002Z</time></trkpt><trkpt lat="43.422544185509125" lon="10.77370466815969"><ele>125.0</ele><time>2026-04-04T09:16:15.002Z</time></trkpt><trkpt lat="43.42244246921356" lon="10.773837902545251"><ele>125.5</ele><time>2026-04-04T09:16:16.002Z</time></trkpt><trkpt lat="43.4223500121325" lon="10.77389604750551"><ele>126.0</ele><time>2026-04-04T09:16:17.002Z</time></trkpt><trkpt lat="43.42228397113762" lon="10.773963593152375"><ele>126.0</ele><time>2026-04-04T09:16:18.002Z</time></trkpt><trkpt lat="43.4222286828649" lon="10.77400634929456"><ele>126.0</ele><time>2026-04-04T09:16:19.002Z</time></trkpt><trkpt lat="43.422163934271914" lon="10.774042023913335"><ele>126.0</ele><time>2026-04-04T09:16:21.002Z</time></trkpt><trkpt lat="43.42216618502572" lon="10.774237299651249"><ele>126.0</ele><time>2026-04-04T09:16:24.002Z</time></trkpt><trkpt lat="43.42222331616669" lon="10.774383678254084"><ele>126.0</ele><time>2026-04-04T09:16:26.002Z</time></trkpt><trkpt lat="43.422256092244375" lon="10.774465489176075"><ele>126.6</ele><time>2026-04-04T09:16:27.002Z</time></trkpt><trkpt lat="43.42229594534313" lon="10.77456308978117"><ele>127.19999999999999</ele><time>2026-04-04T09:16:28.002Z</time></trkpt><trkpt lat="43.42233975270157" lon="10.774675498182571"><ele>127.80000000000001</ele><time>2026-04-04T09:16:29.002Z</time></trkpt><trkpt lat="43.42238385581452" lon="10.774807240362275"><ele>128.4</ele><time>2026-04-04T09:16:30.002Z</time></trkpt><trkpt lat="43.422430228471946" lon="10.774941027837238"><ele>129.0</ele><time>2026-04-04T09:16:31.002Z</time></trkpt><trkpt lat="43.42247908793118" lon="10.775066112575235"><ele>129.4</ele><time>2026-04-04T09:16:32.002Z</time></trkpt><trkpt lat="43.422530270976566" lon="10.775200093570556"><ele>129.8</ele><time>2026-04-04T09:16:33.002Z</time></trkpt><trkpt lat="43.422568309678645" lon="10.775341339140196"><ele>130.2</ele><time>2026-04-04T09:16:34.002Z</time></trkpt><trkpt lat="43.42261269545831" lon="10.77547389561019"><ele>130.6</ele><time>2026-04-04T09:16:35.002Z</time></trkpt><trkpt lat="43.42265817529373" lon="10.775605867988077"><ele>131.0</ele><time>2026-04-04T09:16:36.003Z</time></trkpt><trkpt lat="43.422702604759564" lon="10.775733553638837"><ele>131.0</ele><time>2026-04-04T09:16:37.003Z</time></trkpt><trkpt lat="43.42274193724833" lon="10.775854361797176"><ele>131.0</ele><time>2026-04-04T09:16:38.003Z</time></trkpt><trkpt lat="43.42279179835863" lon="10.775976409808111"><ele>131.0</ele><time>2026-04-04T09:16:39.003Z</time></trkpt><trkpt lat="43.42283640201232" lon="10.776090770811376"><ele>131.0</ele><time>2026-04-04T09:16:40.003Z</time></trkpt><trkpt lat="43.42290351077405" lon="10.776214486264537"><ele>131.0</ele><time>2026-04-04T09:16:41.003Z</time></trkpt><trkpt lat="43.42302255630406" lon="10.776308726807518"><ele>131.2</ele><time>2026-04-04T09:16:42.003Z</time></trkpt><trkpt lat="43.423138744445346" lon="10.776348379953834"><ele>131.39999999999998</ele><time>2026-04-04T09:16:43.003Z</time></trkpt><trkpt lat="43.42325489794866" lon="10.776368091100613"><ele>131.6</ele><time>2026-04-04T09:16:44.003Z</time></trkpt><trkpt lat="43.423361412355305" lon="10.77638064955669"><ele>131.79999999999998</ele><time>2026-04-04T09:16:45.003Z</time></trkpt><trkpt lat="43.42327253669337" lon="10.77639410343743"><ele>132.0</ele><time>2026-04-04T09:16:46.003Z</time></trkpt><trkpt lat="43.423374395654946" lon="10.776404948172464"><ele>132.0</ele><time>2026-04-04T09:16:47.003Z</time></trkpt><trkpt lat="43.423475465857955" lon="10.776406189010205"><ele>132.0</ele><time>2026-04-04T09:16:48.003Z</time></trkpt><trkpt lat="43.42357139093159" lon="10.77639729805858"><ele>132.0</ele><time>2026-04-04T09:16:49.003Z</time></trkpt><trkpt lat="43.42364368513348" lon="10.776383825453447"><ele>132.0</ele><time>2026-04-04T09:16:50.003Z</time></trkpt><trkpt lat="43.42375245561166" lon="10.776375200965767"><ele>132.0</ele><time>2026-04-04T09:16:52.003Z</time></trkpt><trkpt lat="43.42387105736937" lon="10.77631909106456"><ele>133.28571428571428</ele><time>2026-04-04T09:16:54.003Z</time></trkpt><trkpt lat="43.4239319149058" lon="10.776292484822585"><ele>134.57142857142858</ele><time>2026-04-04T09:16:55.003Z</time></trkpt><trkpt lat="43.42399655292596" lon="10.776259770971693"><ele>135.85714285714286</ele><time>2026-04-04T09:16:56.003Z</time></trkpt><trkpt lat="43.42406673766258" lon="10.776225125562586"><ele>137.14285714285714</ele><time>2026-04-04T09:16:57.003Z</time></trkpt><trkpt lat="43.42413389735319" lon="10.776179414324107"><ele>138.42857142857142</ele><time>2026-04-04T09:16:58.003Z</time></trkpt><trkpt lat="43.42419624764354" lon="10.776121376707964"><ele>139.71428571428572</ele><time>2026-04-04T09:16:59.003Z</time></trkpt><trkpt lat="43.42425517353992" lon="10.776056920464809"><ele>141.0</ele><time>2026-04-04T09:17:00.003Z</time></trkpt><trkpt lat="43.42430581932" lon="10.775977211133188"><ele>141.0</ele><time>2026-04-04T09:17:01.003Z</time></trkpt><trkpt lat="43.424346452630395" lon="10.775881852040975"><ele>141.0</ele><time>2026-04-04T09:17:02.003Z</time></trkpt><trkpt lat="43.42437242064025" lon="10.775775935198217"><ele>141.0</ele><time>2026-04-04T09:17:03.003Z</time></trkpt><trkpt lat="43.424389530708886" lon="10.775667809829551"><ele>141.0</ele><time>2026-04-04T09:17:04Z</time></trkpt><trkpt lat="43.42440203124414" lon="10.77555306180801"><ele>141.0</ele><time>2026-04-04T09:17:05Z</time></trkpt><trkpt lat="43.42441229780895" lon="10.775425569206323"><ele>141.0</ele><time>2026-04-04T09:17:06Z</time></trkpt><trkpt lat="43.42443449948216" lon="10.775296049800634"><ele>140.2</ele><time>2026-04-04T09:17:07Z</time></trkpt><trkpt lat="43.42447065015444" lon="10.775170412292553"><ele>139.39999999999998</ele><time>2026-04-04T09:17:08Z</time></trkpt><trkpt lat="43.424521341682315" lon="10.775037725512515"><ele>138.6</ele><time>2026-04-04T09:17:09Z</time></trkpt><trkpt lat="43.42458374197953" lon="10.774923741416066"><ele>137.79999999999998</ele><time>2026-04-04T09:17:10Z</time></trkpt><trkpt lat="43.424644822694844" lon="10.774823176953042"><ele>137.0</ele><time>2026-04-04T09:17:11Z</time></trkpt><trkpt lat="43.424710185943525" lon="10.774729919497744"><ele>138.71428571428572</ele><time>2026-04-04T09:17:12Z</time></trkpt><trkpt lat="43.42477631773404" lon="10.774655030139932"><ele>140.42857142857144</ele><time>2026-04-04T09:17:13Z</time></trkpt><trkpt lat="43.42483815768619" lon="10.774607983649922"><ele>142.14285714285714</ele><time>2026-04-04T09:17:14Z</time></trkpt><trkpt lat="43.42490500915091" lon="10.774590646035756"><ele>143.85714285714286</ele><time>2026-04-04T09:17:15Z</time></trkpt><trkpt lat="43.42497145694903" lon="10.774603653088814"><ele>145.57142857142856</ele><time>2026-04-04T09:17:16Z</time></trkpt><trkpt lat="43.42502984945331" lon="10.77463982053822"><ele>147.28571428571428</ele><time>2026-04-04T09:17:17Z</time></trkpt><trkpt lat="43.42507231463645" lon="10.774706753129953"><ele>149.0</ele><time>2026-04-04T09:17:18Z</time></trkpt><trkpt lat="43.425108242990284" lon="10.774807938915751"><ele>149.0</ele><time>2026-04-04T09:17:19Z</time></trkpt><trkpt lat="43.4250864288031" lon="10.774920722581665"><ele>149.0</ele><time>2026-04-04T09:17:20Z</time></trkpt><trkpt lat="43.42507355628248" lon="10.775010802348998"><ele>149.0</ele><time>2026-04-04T09:17:21Z</time></trkpt><trkpt lat="43.42507829705405" lon="10.775122620518381"><ele>149.0</ele><time>2026-04-04T09:17:22Z</time></trkpt><trkpt lat="43.42509496499945" lon="10.775239085672691"><ele>149.0</ele><time>2026-04-04T09:17:23Z</time></trkpt><trkpt lat="43.42508928927891" lon="10.775383697532664"><ele>149.0</ele><time>2026-04-04T09:17:24Z</time></trkpt><trkpt lat="43.425105725497836" lon="10.77553609148141"><ele>150.16666666666666</ele><time>2026-04-04T09:17:25Z</time></trkpt><trkpt lat="43.42511793831509" lon="10.77567144040099"><ele>151.33333333333331</ele><time>2026-04-04T09:17:26Z</time></trkpt><trkpt lat="43.42513018216087" lon="10.775796772102357"><ele>152.5</ele><time>2026-04-04T09:17:27Z</time></trkpt><trkpt lat="43.425138440482556" lon="10.775912751760469"><ele>153.66666666666666</ele><time>2026-04-04T09:17:28Z</time></trkpt><trkpt lat="43.42514803127351" lon="10.776026088798357"><ele>154.83333333333334</ele><time>2026-04-04T09:17:29Z</time></trkpt><trkpt lat="43.42515146504725" lon="10.776140600719044"><ele>156.0</ele><time>2026-04-04T09:17:30Z</time></trkpt><trkpt lat="43.425150364893696" lon="10.776248219602996"><ele>157.33333333333334</ele><time>2026-04-04T09:17:31Z</time></trkpt><trkpt lat="43.425121756464634" lon="10.776353030252306"><ele>158.66666666666666</ele><time>2026-04-04T09:17:32Z</time></trkpt><trkpt lat="43.425090673479765" lon="10.776459695891997"><ele>160.0</ele><time>2026-04-04T09:17:33Z</time></trkpt><trkpt lat="43.42505488601744" lon="10.776555790659584"><ele>161.33333333333331</ele><time>2026-04-04T09:17:34Z</time></trkpt><trkpt lat="43.42501109045538" lon="10.776647450237991"><ele>162.66666666666666</ele><time>2026-04-04T09:17:35.001Z</time></trkpt><trkpt lat="43.42496608124056" lon="10.776742535616206"><ele>164.0</ele><time>2026-04-04T09:17:36.001Z</time></trkpt><trkpt lat="43.42493742158043" lon="10.776844791343086"><ele>165.16666666666666</ele><time>2026-04-04T09:17:37.001Z</time></trkpt><trkpt lat="43.42489017239863" lon="10.776934460850814"><ele>166.33333333333331</ele><time>2026-04-04T09:17:38.001Z</time></trkpt><trkpt lat="43.42484637747624" lon="10.7770317732238"><ele>167.5</ele><time>2026-04-04T09:17:39.001Z</time></trkpt><trkpt lat="43.42479971809429" lon="10.777138585936411"><ele>168.66666666666666</ele><time>2026-04-04T09:17:40.001Z</time></trkpt><trkpt lat="43.42474326713155" lon="10.77723595057736"><ele>169.83333333333334</ele><time>2026-04-04T09:17:41.001Z</time></trkpt><trkpt lat="43.42471296899562" lon="10.777349052283661"><ele>171.0</ele><time>2026-04-04T09:17:42.001Z</time></trkpt><trkpt lat="43.424686368231235" lon="10.777462532244934"><ele>171.0</ele><time>2026-04-04T09:17:43.001Z</time></trkpt><trkpt lat="43.424664551753565" lon="10.777570754491897"><ele>171.0</ele><time>2026-04-04T09:17:44.001Z</time></trkpt><trkpt lat="43.42464782574581" lon="10.777685899357094"><ele>171.0</ele><time>2026-04-04T09:17:45.001Z</time></trkpt><trkpt lat="43.424635969986795" lon="10.777805784529058"><ele>171.0</ele><time>2026-04-04T09:17:46.001Z</time></trkpt><trkpt lat="43.42463106453281" lon="10.777924622960224"><ele>171.0</ele><time>2026-04-04T09:17:47.001Z</time></trkpt><trkpt lat="43.42462825550143" lon="10.778038673437418"><ele>171.0</ele><time>2026-04-04T09:17:48.001Z</time></trkpt><trkpt lat="43.424628755325976" lon="10.778153372874582"><ele>172.0</ele><time>2026-04-04T09:17:49.001Z</time></trkpt><trkpt lat="43.42463558740924" lon="10.778261093527316"><ele>173.0</ele><time>2026-04-04T09:17:50.001Z</time></trkpt><trkpt lat="43.42465528429834" lon="10.778366074010304"><ele>174.0</ele><time>2026-04-04T09:17:51.001Z</time></trkpt><trkpt lat="43.424684858421735" lon="10.778465268922798"><ele>175.0</ele><time>2026-04-04T09:17:52.001Z</time></trkpt><trkpt lat="43.424720264950146" lon="10.778566943884508"><ele>176.0</ele><time>2026-04-04T09:17:53.001Z</time></trkpt><trkpt lat="43.42476681551988" lon="10.778669382360619"><ele>177.0</ele><time>2026-04-04T09:17:54.001Z</time></trkpt><trkpt lat="43.42482229754783" lon="10.778777583963262"><ele>177.0</ele><time>2026-04-04T09:17:55.001Z</time></trkpt><trkpt lat="43.424884905830126" lon="10.77888339116669"><ele>177.0</ele><time>2026-04-04T09:17:56.001Z</time></trkpt><trkpt lat="43.42495501325649" lon="10.778996432930377"><ele>177.0</ele><time>2026-04-04T09:17:57.001Z</time></trkpt><trkpt lat="43.42502317864696" lon="10.779113267862993"><ele>177.0</ele><time>2026-04-04T09:17:58.001Z</time></trkpt><trkpt lat="43.425087801817625" lon="10.779230464967059"><ele>177.0</ele><time>2026-04-04T09:17:59.001Z</time></trkpt><trkpt lat="43.425150846898745" lon="10.779348332904243"><ele>175.6</ele><time>2026-04-04T09:18:00.001Z</time></trkpt><trkpt lat="43.42521441395617" lon="10.779462173131694"><ele>174.2</ele><time>2026-04-04T09:18:01.001Z</time></trkpt><trkpt lat="43.425279002379206" lon="10.779575932250118"><ele>172.8</ele><time>2026-04-04T09:18:02.001Z</time></trkpt><trkpt lat="43.425336282051454" lon="10.77968248533288"><ele>171.4</ele><time>2026-04-04T09:18:03.001Z</time></trkpt><trkpt lat="43.425394940768086" lon="10.779790945253731"><ele>170.0</ele><time>2026-04-04T09:18:04.001Z</time></trkpt><trkpt lat="43.42545870573428" lon="10.77988976827697"><ele>171.0</ele><time>2026-04-04T09:18:05.001Z</time></trkpt><trkpt lat="43.42553241240693" lon="10.779978615949322"><ele>172.0</ele><time>2026-04-04T09:18:06.001Z</time></trkpt><trkpt lat="43.42561129538229" lon="10.780058074000742"><ele>173.0</ele><time>2026-04-04T09:18:07.001Z</time></trkpt><trkpt lat="43.42570365568715" lon="10.780128577487545"><ele>174.0</ele><time>2026-04-04T09:18:08.001Z</time></trkpt><trkpt lat="43.42579814675572" lon="10.780186215091815"><ele>175.0</ele><time>2026-04-04T09:18:09.002Z</time></trkpt><trkpt lat="43.42588994771602" lon="10.78024116748111"><ele>175.0</ele><time>2026-04-04T09:18:10.002Z</time></trkpt><trkpt lat="43.42598891305264" lon="10.780301758171213"><ele>175.0</ele><time>2026-04-04T09:18:11.002Z</time></trkpt><trkpt lat="43.42608492066687" lon="10.780350069367657"><ele>175.0</ele><time>2026-04-04T09:18:12.002Z</time></trkpt><trkpt lat="43.426180164858515" lon="10.780384934878622"><ele>175.0</ele><time>2026-04-04T09:18:13.002Z</time></trkpt><trkpt lat="43.42627798675662" lon="10.780395011660971"><ele>175.0</ele><time>2026-04-04T09:18:14.002Z</time></trkpt><trkpt lat="43.426378604509814" lon="10.780393548821058"><ele>177.2</ele><time>2026-04-04T09:18:15.002Z</time></trkpt><trkpt lat="43.42647870553334" lon="10.780397216661289"><ele>179.4</ele><time>2026-04-04T09:18:16.002Z</time></trkpt><trkpt lat="43.42657699388498" lon="10.780407481042278"><ele>181.60000000000002</ele><time>2026-04-04T09:18:17.002Z</time></trkpt><trkpt lat="43.426674944307884" lon="10.780435125755163"><ele>183.8</ele><time>2026-04-04T09:18:18.002Z</time></trkpt><trkpt lat="43.426773892201155" lon="10.780500728574628"><ele>186.0</ele><time>2026-04-04T09:18:19.002Z</time></trkpt><trkpt lat="43.42687500411148" lon="10.780602126951099"><ele>186.0</ele><time>2026-04-04T09:18:20.002Z</time></trkpt><trkpt lat="43.42697239944858" lon="10.78072183937613"><ele>186.0</ele><time>2026-04-04T09:18:21.002Z</time></trkpt><trkpt lat="43.42706696659164" lon="10.780859879805668"><ele>186.0</ele><time>2026-04-04T09:18:22.002Z</time></trkpt><trkpt lat="43.427164830549806" lon="10.781008026451653"><ele>186.0</ele><time>2026-04-04T09:18:23.002Z</time></trkpt><trkpt lat="43.42726547320755" lon="10.781162855194651"><ele>188.33333333333331</ele><time>2026-04-04T09:18:24.002Z</time></trkpt><trkpt lat="43.42736858564495" lon="10.781322175331571"><ele>190.66666666666666</ele><time>2026-04-04T09:18:25.002Z</time></trkpt><trkpt lat="43.427476166875906" lon="10.78148394040804"><ele>193.0</ele><time>2026-04-04T09:18:26.002Z</time></trkpt><trkpt lat="43.42758924460044" lon="10.78165100409394"><ele>193.0</ele><time>2026-04-04T09:18:27.002Z</time></trkpt><trkpt lat="43.42770428102903" lon="10.781817586562688"><ele>193.0</ele><time>2026-04-04T09:18:28.002Z</time></trkpt><trkpt lat="43.42781242545523" lon="10.781992210618426"><ele>193.0</ele><time>2026-04-04T09:18:29.002Z</time></trkpt><trkpt lat="43.42792182794093" lon="10.782169364949532"><ele>195.33333333333331</ele><time>2026-04-04T09:18:30.002Z</time></trkpt><trkpt lat="43.42803511048182" lon="10.782362813014252"><ele>197.66666666666669</ele><time>2026-04-04T09:18:31.002Z</time></trkpt><trkpt lat="43.42814357990244" lon="10.782562713675382"><ele>200.0</ele><time>2026-04-04T09:18:32.002Z</time></trkpt><trkpt lat="43.42823018752037" lon="10.78275190427878"><ele>200.33333333333334</ele><time>2026-04-04T09:18:33.002Z</time></trkpt><trkpt lat="43.42830351329102" lon="10.782944438333598"><ele>200.66666666666669</ele><time>2026-04-04T09:18:34.002Z</time></trkpt><trkpt lat="43.42836868101307" lon="10.783150775428"><ele>201.0</ele><time>2026-04-04T09:18:35.002Z</time></trkpt><trkpt lat="43.42842553567593" lon="10.783366144065456"><ele>199.0</ele><time>2026-04-04T09:18:36.002Z</time></trkpt><trkpt lat="43.42847482336083" lon="10.783582451373046"><ele>197.0</ele><time>2026-04-04T09:18:37.002Z</time></trkpt><trkpt lat="43.42851635498904" lon="10.78378387759266"><ele>195.0</ele><time>2026-04-04T09:18:38.002Z</time></trkpt><trkpt lat="43.42854246938161" lon="10.783962785392221"><ele>193.0</ele><time>2026-04-04T09:18:39.002Z</time></trkpt><trkpt lat="43.42856880680437" lon="10.784137795471533"><ele>193.0</ele><time>2026-04-04T09:18:40.002Z</time></trkpt><trkpt lat="43.42859954343461" lon="10.7843130727701"><ele>193.0</ele><time>2026-04-04T09:18:41.002Z</time></trkpt><trkpt lat="43.42863581103908" lon="10.784476348567196"><ele>193.0</ele><time>2026-04-04T09:18:42.003Z</time></trkpt><trkpt lat="43.42867168312368" lon="10.78463058137573"><ele>193.0</ele><time>2026-04-04T09:18:43.003Z</time></trkpt><trkpt lat="43.428699130900554" lon="10.78477679630572"><ele>193.75</ele><time>2026-04-04T09:18:44.003Z</time></trkpt><trkpt lat="43.42872073746359" lon="10.784925186972927"><ele>194.5</ele><time>2026-04-04T09:18:45.003Z</time></trkpt><trkpt lat="43.428719931412616" lon="10.785091683639617"><ele>195.25</ele><time>2026-04-04T09:18:46.003Z</time></trkpt><trkpt lat="43.42871435590467" lon="10.785258471257334"><ele>196.0</ele><time>2026-04-04T09:18:47.003Z</time></trkpt><trkpt lat="43.42872108758797" lon="10.785431859964762"><ele>196.0</ele><time>2026-04-04T09:18:48.003Z</time></trkpt><trkpt lat="43.42868947289321" lon="10.785602904279287"><ele>196.0</ele><time>2026-04-04T09:18:49.003Z</time></trkpt><trkpt lat="43.42863666903072" lon="10.785774139507984"><ele>196.0</ele><time>2026-04-04T09:18:50.003Z</time></trkpt><trkpt lat="43.4285660510577" lon="10.785939909320266"><ele>196.0</ele><time>2026-04-04T09:18:51.003Z</time></trkpt><trkpt lat="43.42849217077682" lon="10.786098539057567"><ele>198.75</ele><time>2026-04-04T09:18:52.003Z</time></trkpt><trkpt lat="43.42837301121884" lon="10.786188298949716"><ele>201.5</ele><time>2026-04-04T09:18:53.003Z</time></trkpt><trkpt lat="43.42830159824573" lon="10.786306509415049"><ele>204.25</ele><time>2026-04-04T09:18:54.003Z</time></trkpt><trkpt lat="43.42823028098174" lon="10.78641379894337"><ele>207.0</ele><time>2026-04-04T09:18:55.003Z</time></trkpt><trkpt lat="43.428144745085184" lon="10.78652720278059"><ele>207.0</ele><time>2026-04-04T09:18:56.003Z</time></trkpt><trkpt lat="43.42805450460442" lon="10.786639652224789"><ele>207.0</ele><time>2026-04-04T09:18:57.003Z</time></trkpt><trkpt lat="43.427965849216434" lon="10.786746196305069"><ele>207.0</ele><time>2026-04-04T09:18:58.003Z</time></trkpt><trkpt lat="43.42787489619739" lon="10.786851793181938"><ele>207.0</ele><time>2026-04-04T09:18:59.003Z</time></trkpt><trkpt lat="43.42779745530522" lon="10.786969659696455"><ele>205.75</ele><time>2026-04-04T09:19:00.003Z</time></trkpt><trkpt lat="43.42770231339929" lon="10.787048688860981"><ele>204.5</ele><time>2026-04-04T09:19:01.003Z</time></trkpt><trkpt lat="43.42761584837155" lon="10.787151008893057"><ele>203.25</ele><time>2026-04-04T09:19:02.003Z</time></trkpt><trkpt lat="43.427526828175985" lon="10.787261049664707"><ele>202.0</ele><time>2026-04-04T09:19:03.003Z</time></trkpt><trkpt lat="43.427448525216825" lon="10.787377165263232"><ele>202.0</ele><time>2026-04-04T09:19:04.003Z</time></trkpt><trkpt lat="43.42736529520176" lon="10.787504206872637"><ele>202.0</ele><time>2026-04-04T09:19:05.003Z</time></trkpt><trkpt lat="43.42728240427485" lon="10.787630861321647"><ele>202.0</ele><time>2026-04-04T09:19:06.003Z</time></trkpt><trkpt lat="43.4272004576518" lon="10.78775936395967"><ele>202.0</ele><time>2026-04-04T09:19:07.003Z</time></trkpt><trkpt lat="43.427129295486125" lon="10.787880859802238"><ele>201.6</ele><time>2026-04-04T09:19:08.003Z</time></trkpt><trkpt lat="43.42707820259706" lon="10.7880080673792"><ele>201.2</ele><time>2026-04-04T09:19:09.003Z</time></trkpt><trkpt lat="43.42701419777689" lon="10.788100881744514"><ele>200.8</ele><time>2026-04-04T09:19:09.999Z</time></trkpt><trkpt lat="43.42697970985549" lon="10.78821286652819"><ele>200.4</ele><time>2026-04-04T09:19:10.999Z</time></trkpt><trkpt lat="43.42693992430495" lon="10.788318350484372"><ele>200.0</ele><time>2026-04-04T09:19:11.999Z</time></trkpt><trkpt lat="43.42691415802088" lon="10.788438666877807"><ele>198.2</ele><time>2026-04-04T09:19:12.999Z</time></trkpt><trkpt lat="43.42689928872526" lon="10.788573197613792"><ele>196.4</ele><time>2026-04-04T09:19:13.999Z</time></trkpt><trkpt lat="43.4268884034323" lon="10.788714132879152"><ele>194.60000000000002</ele><time>2026-04-04T09:19:14.999Z</time></trkpt><trkpt lat="43.42687965344915" lon="10.788861644112599"><ele>192.8</ele><time>2026-04-04T09:19:15.999Z</time></trkpt><trkpt lat="43.42686738839805" lon="10.789014750169208"><ele>191.0</ele><time>2026-04-04T09:19:16.999Z</time></trkpt><trkpt lat="43.426856639863416" lon="10.789172175849439"><ele>191.0</ele><time>2026-04-04T09:19:17.999Z</time></trkpt><trkpt lat="43.426856572778284" lon="10.789332907587074"><ele>191.0</ele><time>2026-04-04T09:19:18.999Z</time></trkpt><trkpt lat="43.4268516241363" lon="10.789498212171166"><ele>191.0</ele><time>2026-04-04T09:19:19.999Z</time></trkpt><trkpt lat="43.426845182790814" lon="10.789666826888823"><ele>191.0</ele><time>2026-04-04T09:19:20.999Z</time></trkpt><trkpt lat="43.426840174936665" lon="10.789838248494092"><ele>190.25</ele><time>2026-04-04T09:19:21.999Z</time></trkpt><trkpt lat="43.42683763906725" lon="10.79000989230525"><ele>189.5</ele><time>2026-04-04T09:19:22.999Z</time></trkpt><trkpt lat="43.426836075431744" lon="10.790181703363132"><ele>188.75</ele><time>2026-04-04T09:19:23.999Z</time></trkpt><trkpt lat="43.42682633891552" lon="10.790345683625448"><ele>188.0</ele><time>2026-04-04T09:19:24.999Z</time></trkpt><trkpt lat="43.4268191306019" lon="10.790501853927475"><ele>187.25</ele><time>2026-04-04T09:19:25.999Z</time></trkpt><trkpt lat="43.426812797717076" lon="10.790658195710966"><ele>186.5</ele><time>2026-04-04T09:19:26.999Z</time></trkpt><trkpt lat="43.42680229058642" lon="10.790815161655107"><ele>185.75</ele><time>2026-04-04T09:19:27.999Z</time></trkpt><trkpt lat="43.42679924702158" lon="10.790972490300312"><ele>185.0</ele><time>2026-04-04T09:19:29Z</time></trkpt><trkpt lat="43.426790475229325" lon="10.791131444683437"><ele>184.5</ele><time>2026-04-04T09:19:30Z</time></trkpt><trkpt lat="43.426785166689875" lon="10.791294236096245"><ele>184.0</ele><time>2026-04-04T09:19:31Z</time></trkpt><trkpt lat="43.42677959347415" lon="10.791461961213415"><ele>183.5</ele><time>2026-04-04T09:19:32Z</time></trkpt><trkpt lat="43.42676627989796" lon="10.791625700241623"><ele>183.0</ele><time>2026-04-04T09:19:33Z</time></trkpt><trkpt lat="43.42676278615744" lon="10.791796814455251"><ele>181.5</ele><time>2026-04-04T09:19:34Z</time></trkpt><trkpt lat="43.426745002569234" lon="10.791960766360237"><ele>180.0</ele><time>2026-04-04T09:19:35Z</time></trkpt><trkpt lat="43.42674198179705" lon="10.79212397687462"><ele>178.5</ele><time>2026-04-04T09:19:36Z</time></trkpt><trkpt lat="43.426737730599754" lon="10.792286592814573"><ele>177.0</ele><time>2026-04-04T09:19:37Z</time></trkpt><trkpt lat="43.426722899605245" lon="10.792444204478013"><ele>177.0</ele><time>2026-04-04T09:19:38Z</time></trkpt><trkpt lat="43.42670897908584" lon="10.792601793016752"><ele>177.0</ele><time>2026-04-04T09:19:39Z</time></trkpt><trkpt lat="43.42669604165665" lon="10.792769172961883"><ele>177.0</ele><time>2026-04-04T09:19:40Z</time></trkpt><trkpt lat="43.42668629832924" lon="10.792943216666957"><ele>177.0</ele><time>2026-04-04T09:19:41Z</time></trkpt><trkpt lat="43.42668293158349" lon="10.793116859674276"><ele>175.75</ele><time>2026-04-04T09:19:42Z</time></trkpt><trkpt lat="43.426675249474606" lon="10.793288667150089"><ele>174.5</ele><time>2026-04-04T09:19:43Z</time></trkpt><trkpt lat="43.42666444885677" lon="10.793461929231547"><ele>173.25</ele><time>2026-04-04T09:19:44Z</time></trkpt><trkpt lat="43.42665652789515" lon="10.793632665847383"><ele>172.0</ele><time>2026-04-04T09:19:45Z</time></trkpt><trkpt lat="43.4266521771817" lon="10.793810362356396"><ele>171.25</ele><time>2026-04-04T09:19:46Z</time></trkpt><trkpt lat="43.42664603215861" lon="10.793982567126113"><ele>170.5</ele><time>2026-04-04T09:19:47Z</time></trkpt><trkpt lat="43.426650081869944" lon="10.794145117699943"><ele>169.75</ele><time>2026-04-04T09:19:48Z</time></trkpt><trkpt lat="43.42665874446715" lon="10.794303807723914"><ele>169.0</ele><time>2026-04-04T09:19:49Z</time></trkpt><trkpt lat="43.42666441060578" lon="10.794450868741226"><ele>168.6</ele><time>2026-04-04T09:19:50Z</time></trkpt><trkpt lat="43.4266805037608" lon="10.794595045427485"><ele>168.2</ele><time>2026-04-04T09:19:51.001Z</time></trkpt><trkpt lat="43.426707193996855" lon="10.794736053729853"><ele>167.79999999999998</ele><time>2026-04-04T09:19:52.001Z</time></trkpt><trkpt lat="43.426741790524346" lon="10.794875809973352"><ele>167.39999999999998</ele><time>2026-04-04T09:19:53.001Z</time></trkpt><trkpt lat="43.42678394831367" lon="10.795008358785024"><ele>167.0</ele><time>2026-04-04T09:19:54.001Z</time></trkpt><trkpt lat="43.42683396120224" lon="10.79512743036296"><ele>167.39999999999998</ele><time>2026-04-04T09:19:55.001Z</time></trkpt><trkpt lat="43.42689381453874" lon="10.795234152358722"><ele>167.79999999999998</ele><time>2026-04-04T09:19:56.001Z</time></trkpt><trkpt lat="43.426963724445045" lon="10.795328737181798"><ele>168.2</ele><time>2026-04-04T09:19:57.001Z</time></trkpt><trkpt lat="43.42704345515258" lon="10.795412959163881"><ele>168.6</ele><time>2026-04-04T09:19:58.001Z</time></trkpt><trkpt lat="43.4271231007662" lon="10.795493989941601"><ele>169.0</ele><time>2026-04-04T09:19:59.001Z</time></trkpt><trkpt lat="43.42721219829658" lon="10.795569099736984"><ele>165.5</ele><time>2026-04-04T09:20:00.001Z</time></trkpt><trkpt lat="43.42730651982377" lon="10.79563822816437"><ele>162.0</ele><time>2026-04-04T09:20:01.001Z</time></trkpt><trkpt lat="43.42740667200713" lon="10.795705875729045"><ele>158.5</ele><time>2026-04-04T09:20:02.001Z</time></trkpt><trkpt lat="43.42751817923754" lon="10.795775133146503"><ele>155.0</ele><time>2026-04-04T09:20:03.001Z</time></trkpt><trkpt lat="43.427634221184974" lon="10.795840025307662"><ele>155.0</ele><time>2026-04-04T09:20:04.001Z</time></trkpt><trkpt lat="43.42775222773786" lon="10.795903172202602"><ele>155.0</ele><time>2026-04-04T09:20:05.001Z</time></trkpt><trkpt lat="43.42787239606417" lon="10.795960984611522"><ele>155.0</ele><time>2026-04-04T09:20:06.001Z</time></trkpt><trkpt lat="43.42798824381521" lon="10.796017432147872"><ele>155.0</ele><time>2026-04-04T09:20:07.001Z</time></trkpt><trkpt lat="43.42810060972567" lon="10.796078404482454"><ele>154.6</ele><time>2026-04-04T09:20:08.001Z</time></trkpt><trkpt lat="43.42820888640965" lon="10.796144753641435"><ele>154.2</ele><time>2026-04-04T09:20:09.001Z</time></trkpt><trkpt lat="43.4283124471558" lon="10.796208031274057"><ele>153.8</ele><time>2026-04-04T09:20:10.001Z</time></trkpt><trkpt lat="43.42840415887691" lon="10.796263731309802"><ele>153.4</ele><time>2026-04-04T09:20:11.001Z</time></trkpt><trkpt lat="43.428488762400825" lon="10.79632249529965"><ele>153.0</ele><time>2026-04-04T09:20:12.001Z</time></trkpt><trkpt lat="43.42857288845381" lon="10.796391741708524"><ele>153.0</ele><time>2026-04-04T09:20:13.001Z</time></trkpt><trkpt lat="43.42865123673138" lon="10.796468086419864"><ele>153.0</ele><time>2026-04-04T09:20:14.001Z</time></trkpt><trkpt lat="43.42872377020143" lon="10.796573382827884"><ele>153.0</ele><time>2026-04-04T09:20:15.001Z</time></trkpt><trkpt lat="43.428802497153654" lon="10.796661949511758"><ele>153.0</ele><time>2026-04-04T09:20:16.001Z</time></trkpt><trkpt lat="43.428887039522074" lon="10.796744120647695"><ele>153.0</ele><time>2026-04-04T09:20:17.001Z</time></trkpt><trkpt lat="43.428979168868544" lon="10.796820544488732"><ele>149.5</ele><time>2026-04-04T09:20:18.001Z</time></trkpt><trkpt lat="43.42907735615825" lon="10.796902808519691"><ele>146.0</ele><time>2026-04-04T09:20:19.001Z</time></trkpt><trkpt lat="43.42917414045878" lon="10.796994743382328"><ele>142.5</ele><time>2026-04-04T09:20:20.001Z</time></trkpt><trkpt lat="43.429273981639156" lon="10.797103552838234"><ele>139.0</ele><time>2026-04-04T09:20:21.002Z</time></trkpt><trkpt lat="43.42937470143542" lon="10.79722573905081"><ele>139.0</ele><time>2026-04-04T09:20:22.002Z</time></trkpt><trkpt lat="43.42947302803582" lon="10.797364583794474"><ele>139.0</ele><time>2026-04-04T09:20:23.002Z</time></trkpt><trkpt lat="43.42956731896293" lon="10.797503102828022"><ele>139.0</ele><time>2026-04-04T09:20:24.002Z</time></trkpt><trkpt lat="43.429658558933255" lon="10.797651216225892"><ele>139.0</ele><time>2026-04-04T09:20:25.002Z</time></trkpt><trkpt lat="43.42974187718394" lon="10.797796146357708"><ele>137.25</ele><time>2026-04-04T09:20:26.002Z</time></trkpt><trkpt lat="43.42981536976075" lon="10.797937980658103"><ele>135.5</ele><time>2026-04-04T09:20:27.002Z</time></trkpt><trkpt lat="43.429895130688124" lon="10.798104919122697"><ele>133.75</ele><time>2026-04-04T09:20:28.002Z</time></trkpt><trkpt lat="43.429976329665436" lon="10.798266647198098"><ele>132.0</ele><time>2026-04-04T09:20:29.002Z</time></trkpt><trkpt lat="43.430058144564825" lon="10.798400926467018"><ele>133.0</ele><time>2026-04-04T09:20:30.002Z</time></trkpt><trkpt lat="43.430140986021584" lon="10.798515829182728"><ele>134.0</ele><time>2026-04-04T09:20:31.002Z</time></trkpt><trkpt lat="43.43022397122296" lon="10.79861890298391"><ele>135.0</ele><time>2026-04-04T09:20:32.002Z</time></trkpt><trkpt lat="43.43031087951255" lon="10.798721897086086"><ele>136.0</ele><time>2026-04-04T09:20:33.002Z</time></trkpt><trkpt lat="43.430379049717935" lon="10.798842576231939"><ele>136.0</ele><time>2026-04-04T09:20:34.002Z</time></trkpt><trkpt lat="43.430440495728504" lon="10.798970240639946"><ele>136.0</ele><time>2026-04-04T09:20:35.002Z</time></trkpt><trkpt lat="43.43049959213613" lon="10.799100127671014"><ele>136.0</ele><time>2026-04-04T09:20:36.002Z</time></trkpt><trkpt lat="43.43054443266406" lon="10.799239960880277"><ele>136.0</ele><time>2026-04-04T09:20:37.002Z</time></trkpt><trkpt lat="43.43057227730157" lon="10.799384919436473"><ele>136.0</ele><time>2026-04-04T09:20:38.002Z</time></trkpt><trkpt lat="43.43058481985072" lon="10.799531499786609"><ele>132.6</ele><time>2026-04-04T09:20:39.002Z</time></trkpt><trkpt lat="43.43057935327098" lon="10.799685456280905"><ele>129.2</ele><time>2026-04-04T09:20:40.002Z</time></trkpt><trkpt lat="43.43056941807256" lon="10.799839961313658"><ele>125.80000000000001</ele><time>2026-04-04T09:20:41.002Z</time></trkpt><trkpt lat="43.4305440698849" lon="10.799989069247433"><ele>122.4</ele><time>2026-04-04T09:20:42.002Z</time></trkpt><trkpt lat="43.4304954864924" lon="10.800117519717375"><ele>119.0</ele><time>2026-04-04T09:20:43.002Z</time></trkpt><trkpt lat="43.43042987987894" lon="10.800220369817692"><ele>117.75</ele><time>2026-04-04T09:20:44.002Z</time></trkpt><trkpt lat="43.430346208350855" lon="10.800305399358752"><ele>116.5</ele><time>2026-04-04T09:20:45.002Z</time></trkpt><trkpt lat="43.43024666048841" lon="10.800372051946743"><ele>115.25</ele><time>2026-04-04T09:20:46.002Z</time></trkpt><trkpt lat="43.430129207097195" lon="10.80043219631201"><ele>114.0</ele><time>2026-04-04T09:20:47.002Z</time></trkpt><trkpt lat="43.430002657755075" lon="10.80048563176261"><ele>114.0</ele><time>2026-04-04T09:20:48.002Z</time></trkpt><trkpt lat="43.429885950849346" lon="10.800526114722857"><ele>114.0</ele><time>2026-04-04T09:20:49.002Z</time></trkpt><trkpt lat="43.429773337277936" lon="10.800563048892483"><ele>114.0</ele><time>2026-04-04T09:20:50.002Z</time></trkpt><trkpt lat="43.429667696199985" lon="10.800590202953526"><ele>114.0</ele><time>2026-04-04T09:20:51.002Z</time></trkpt><trkpt lat="43.42956344003781" lon="10.800591990483476"><ele>114.0</ele><time>2026-04-04T09:20:52.002Z</time></trkpt><trkpt lat="43.42946725134254" lon="10.800588476497968"><ele>114.25</ele><time>2026-04-04T09:20:53.002Z</time></trkpt><trkpt lat="43.4293553453686" lon="10.800580922017092"><ele>114.5</ele><time>2026-04-04T09:20:54.002Z</time></trkpt><trkpt lat="43.429224177325864" lon="10.80056082472007"><ele>114.75</ele><time>2026-04-04T09:20:55.002Z</time></trkpt><trkpt lat="43.42908442185243" lon="10.800533202679057"><ele>115.0</ele><time>2026-04-04T09:20:56.003Z</time></trkpt><trkpt lat="43.42893795892196" lon="10.800516455042311"><ele>115.0</ele><time>2026-04-04T09:20:57.003Z</time></trkpt><trkpt lat="43.42879085093906" lon="10.800510871244473"><ele>115.0</ele><time>2026-04-04T09:20:58.003Z</time></trkpt><trkpt lat="43.42865836127518" lon="10.80050625963377"><ele>115.0</ele><time>2026-04-04T09:20:59.003Z</time></trkpt><trkpt lat="43.428532075552624" lon="10.800503068695575"><ele>115.0</ele><time>2026-04-04T09:21:00.003Z</time></trkpt><trkpt lat="43.4284151263994" lon="10.80050909834927"><ele>115.0</ele><time>2026-04-04T09:21:01.003Z</time></trkpt><trkpt lat="43.428303174925475" lon="10.800528621167455"><ele>115.0</ele><time>2026-04-04T09:21:02.003Z</time></trkpt><trkpt lat="43.42819691683513" lon="10.800554946563956"><ele>115.0</ele><time>2026-04-04T09:21:03.003Z</time></trkpt><trkpt lat="43.42809332520244" lon="10.80058699899565"><ele>115.0</ele><time>2026-04-04T09:21:04.003Z</time></trkpt><trkpt lat="43.42800013043641" lon="10.800621340368204"><ele>115.0</ele><time>2026-04-04T09:21:05.003Z</time></trkpt><trkpt lat="43.42791565929692" lon="10.80066471914204"><ele>114.6</ele><time>2026-04-04T09:21:06.003Z</time></trkpt><trkpt lat="43.42784372041595" lon="10.800741594818"><ele>114.2</ele><time>2026-04-04T09:21:07.003Z</time></trkpt><trkpt lat="43.42778371485453" lon="10.800838952516253"><ele>113.80000000000001</ele><time>2026-04-04T09:21:08.003Z</time></trkpt><trkpt lat="43.427740445108896" lon="10.800949163794733"><ele>113.4</ele><time>2026-04-04T09:21:09.003Z</time></trkpt><trkpt lat="43.427708385258136" lon="10.8010820948437"><ele>113.0</ele><time>2026-04-04T09:21:10.003Z</time></trkpt><trkpt lat="43.42768345673376" lon="10.801238873721275"><ele>113.0</ele><time>2026-04-04T09:21:11.003Z</time></trkpt><trkpt lat="43.427659887359994" lon="10.801409495048272"><ele>113.0</ele><time>2026-04-04T09:21:12.003Z</time></trkpt><trkpt lat="43.42763630348685" lon="10.801584661571287"><ele>113.0</ele><time>2026-04-04T09:21:13.003Z</time></trkpt><trkpt lat="43.4276123211188" lon="10.801752787525665"><ele>113.0</ele><time>2026-04-04T09:21:14.003Z</time></trkpt><trkpt lat="43.427591420531336" lon="10.801913095618906"><ele>112.60000000000001</ele><time>2026-04-04T09:21:15.003Z</time></trkpt><trkpt lat="43.42757153915364" lon="10.802067801204476"><ele>112.20000000000002</ele><time>2026-04-04T09:21:16Z</time></trkpt><trkpt lat="43.42754603770966" lon="10.802204619364147"><ele>111.8</ele><time>2026-04-04T09:21:17Z</time></trkpt><trkpt lat="43.42752258624533" lon="10.802328436993314"><ele>111.4</ele><time>2026-04-04T09:21:18Z</time></trkpt><trkpt lat="43.42750230801029" lon="10.802446824126324"><ele>111.0</ele><time>2026-04-04T09:21:19Z</time></trkpt><trkpt lat="43.42749189501315" lon="10.802551081064642"><ele>111.0</ele><time>2026-04-04T09:21:20Z</time></trkpt><trkpt lat="43.42750105378636" lon="10.802645246757173"><ele>111.0</ele><time>2026-04-04T09:21:21Z</time></trkpt><trkpt lat="43.427526883527705" lon="10.802747564797775"><ele>111.0</ele><time>2026-04-04T09:21:22Z</time></trkpt><trkpt lat="43.427569262347994" lon="10.802841602031126"><ele>111.0</ele><time>2026-04-04T09:21:23Z</time></trkpt><trkpt lat="43.427627081394704" lon="10.802911924503421"><ele>111.0</ele><time>2026-04-04T09:21:24Z</time></trkpt><trkpt lat="43.42769090336934" lon="10.802971068062984"><ele>111.0</ele><time>2026-04-04T09:21:25Z</time></trkpt><trkpt lat="43.427763777830336" lon="10.803004441053785"><ele>112.0</ele><time>2026-04-04T09:21:26Z</time></trkpt><trkpt lat="43.42784638309082" lon="10.803018631364711"><ele>113.0</ele><time>2026-04-04T09:21:27Z</time></trkpt><trkpt lat="43.42793850155059" lon="10.803019527747862"><ele>114.0</ele><time>2026-04-04T09:21:28Z</time></trkpt><trkpt lat="43.42804802771625" lon="10.80301694997768"><ele>115.0</ele><time>2026-04-04T09:21:29Z</time></trkpt><trkpt lat="43.428161924411306" lon="10.803014056742136"><ele>116.0</ele><time>2026-04-04T09:21:30Z</time></trkpt><trkpt lat="43.4282621995311" lon="10.80301145017844"><ele>116.83333333333333</ele><time>2026-04-04T09:21:31Z</time></trkpt><trkpt lat="43.42834102930455" lon="10.803018421653054"><ele>117.66666666666666</ele><time>2026-04-04T09:21:32Z</time></trkpt><trkpt lat="43.42841495089226" lon="10.803047138993639"><ele>118.5</ele><time>2026-04-04T09:21:33Z</time></trkpt><trkpt lat="43.4284864173221" lon="10.803106121380239"><ele>119.33333333333334</ele><time>2026-04-04T09:21:34Z</time></trkpt><trkpt lat="43.428554924047226" lon="10.803185528071122"><ele>120.16666666666667</ele><time>2026-04-04T09:21:35Z</time></trkpt><trkpt lat="43.42863325324953" lon="10.803293477257247"><ele>121.0</ele><time>2026-04-04T09:21:36Z</time></trkpt><trkpt lat="43.42869914007279" lon="10.803409983192148"><ele>123.8</ele><time>2026-04-04T09:21:37Z</time></trkpt><trkpt lat="43.42876900160002" lon="10.803520180624812"><ele>126.6</ele><time>2026-04-04T09:21:38Z</time></trkpt><trkpt lat="43.4288363733332" lon="10.803623458917851"><ele>129.4</ele><time>2026-04-04T09:21:39Z</time></trkpt><trkpt lat="43.42891041215951" lon="10.803714387529759"><ele>132.2</ele><time>2026-04-04T09:21:40Z</time></trkpt><trkpt lat="43.428994521840345" lon="10.803775193392669"><ele>135.0</ele><time>2026-04-04T09:21:41Z</time></trkpt><trkpt lat="43.429092220949926" lon="10.803800777622152"><ele>135.0</ele><time>2026-04-04T09:21:42Z</time></trkpt><trkpt lat="43.42918972605136" lon="10.803811375336116"><ele>135.0</ele><time>2026-04-04T09:21:43Z</time></trkpt><trkpt lat="43.4292846793667" lon="10.80381037232755"><ele>135.0</ele><time>2026-04-04T09:21:44Z</time></trkpt><trkpt lat="43.42937901677787" lon="10.80382251224765"><ele>135.0</ele><time>2026-04-04T09:21:45Z</time></trkpt><trkpt lat="43.42947325268497" lon="10.803846624608795"><ele>135.0</ele><time>2026-04-04T09:21:46Z</time></trkpt><trkpt lat="43.42956110566371" lon="10.803887233505803"><ele>135.0</ele><time>2026-04-04T09:21:47.001Z</time></trkpt><trkpt lat="43.429640642131346" lon="10.80394333115493"><ele>135.0</ele><time>2026-04-04T09:21:48.001Z</time></trkpt><trkpt lat="43.429713147585666" lon="10.804025539980618"><ele>135.0</ele><time>2026-04-04T09:21:49.001Z</time></trkpt><trkpt lat="43.42977198508457" lon="10.804130931559284"><ele>135.0</ele><time>2026-04-04T09:21:50.001Z</time></trkpt><trkpt lat="43.42982482472978" lon="10.804259615953084"><ele>135.0</ele><time>2026-04-04T09:21:51.001Z</time></trkpt><trkpt lat="43.429861137133386" lon="10.804396543170743"><ele>134.4</ele><time>2026-04-04T09:21:52.001Z</time></trkpt><trkpt lat="43.42986300938308" lon="10.804539696067135"><ele>133.8</ele><time>2026-04-04T09:21:53.001Z</time></trkpt><trkpt lat="43.42986254885147" lon="10.804671015470188"><ele>133.2</ele><time>2026-04-04T09:21:54.001Z</time></trkpt><trkpt lat="43.42984142139081" lon="10.804799749588353"><ele>132.6</ele><time>2026-04-04T09:21:55.001Z</time></trkpt><trkpt lat="43.42980291307348" lon="10.804924109914335"><ele>132.0</ele><time>2026-04-04T09:21:56.001Z</time></trkpt><trkpt lat="43.42976061957609" lon="10.80506003052097"><ele>133.25</ele><time>2026-04-04T09:21:57.001Z</time></trkpt><trkpt lat="43.4297053443193" lon="10.805220109444065"><ele>134.5</ele><time>2026-04-04T09:21:58.001Z</time></trkpt><trkpt lat="43.42964528033055" lon="10.805383810671255"><ele>135.75</ele><time>2026-04-04T09:21:59.001Z</time></trkpt><trkpt lat="43.42958959823059" lon="10.805541685100089"><ele>137.0</ele><time>2026-04-04T09:22:00.001Z</time></trkpt><trkpt lat="43.42955648849007" lon="10.80569882927409"><ele>140.25</ele><time>2026-04-04T09:22:01.001Z</time></trkpt><trkpt lat="43.4295002658341" lon="10.805858471252824"><ele>143.5</ele><time>2026-04-04T09:22:02.001Z</time></trkpt><trkpt lat="43.42945079788186" lon="10.806016130146878"><ele>146.75</ele><time>2026-04-04T09:22:03.001Z</time></trkpt><trkpt lat="43.429399893523254" lon="10.806166091229695"><ele>150.0</ele><time>2026-04-04T09:22:04.001Z</time></trkpt><trkpt lat="43.42934838294047" lon="10.806311251540395"><ele>150.75</ele><time>2026-04-04T09:22:05.001Z</time></trkpt><trkpt lat="43.42931251048577" lon="10.80647071191863"><ele>151.5</ele><time>2026-04-04T09:22:06.001Z</time></trkpt><trkpt lat="43.42927987287654" lon="10.806632975476324"><ele>152.25</ele><time>2026-04-04T09:22:07.001Z</time></trkpt><trkpt lat="43.429220006389556" lon="10.806787242918427"><ele>153.0</ele><time>2026-04-04T09:22:08.001Z</time></trkpt><trkpt lat="43.42916977192628" lon="10.806966760056476"><ele>153.75</ele><time>2026-04-04T09:22:09.001Z</time></trkpt><trkpt lat="43.42912290796949" lon="10.807144206588042"><ele>154.5</ele><time>2026-04-04T09:22:10.001Z</time></trkpt><trkpt lat="43.42908743971693" lon="10.807302991612948"><ele>155.25</ele><time>2026-04-04T09:22:11.001Z</time></trkpt><trkpt lat="43.42904545005855" lon="10.80743546225173"><ele>156.0</ele><time>2026-04-04T09:22:12.001Z</time></trkpt><trkpt lat="43.429011890760634" lon="10.807549393487138"><ele>156.0</ele><time>2026-04-04T09:22:13.001Z</time></trkpt><trkpt lat="43.428974736061015" lon="10.807643423573696"><ele>156.0</ele><time>2026-04-04T09:22:14.001Z</time></trkpt><trkpt lat="43.42892761668257" lon="10.807732976356258"><ele>156.0</ele><time>2026-04-04T09:22:15.001Z</time></trkpt><trkpt lat="43.428868058344285" lon="10.807825655944809"><ele>156.0</ele><time>2026-04-04T09:22:16.001Z</time></trkpt><trkpt lat="43.42879067339095" lon="10.80792329447651"><ele>156.0</ele><time>2026-04-04T09:22:17.001Z</time></trkpt><trkpt lat="43.42869489169555" lon="10.808042367270701"><ele>158.4</ele><time>2026-04-04T09:22:18.001Z</time></trkpt><trkpt lat="43.42859602199718" lon="10.808173855574385"><ele>160.8</ele><time>2026-04-04T09:22:19.002Z</time></trkpt><trkpt lat="43.42851784660679" lon="10.8083049489231"><ele>163.20000000000002</ele><time>2026-04-04T09:22:20.002Z</time></trkpt><trkpt lat="43.42844874965754" lon="10.808398112315755"><ele>165.6</ele><time>2026-04-04T09:22:21.002Z</time></trkpt><trkpt lat="43.42841903267994" lon="10.808503774996739"><ele>168.0</ele><time>2026-04-04T09:22:22.002Z</time></trkpt><trkpt lat="43.42840433039006" lon="10.808610681315647"><ele>168.4</ele><time>2026-04-04T09:22:23.002Z</time></trkpt><trkpt lat="43.4283928042967" lon="10.808723240651501"><ele>168.8</ele><time>2026-04-04T09:22:24.002Z</time></trkpt><trkpt lat="43.42838639638035" lon="10.808856081788727"><ele>169.2</ele><time>2026-04-04T09:22:25.002Z</time></trkpt><trkpt lat="43.42839093594361" lon="10.809016380025957"><ele>169.6</ele><time>2026-04-04T09:22:26.002Z</time></trkpt><trkpt lat="43.428387702137286" lon="10.809183823151317"><ele>170.0</ele><time>2026-04-04T09:22:27.002Z</time></trkpt><trkpt lat="43.42837087763618" lon="10.809344514645169"><ele>171.0</ele><time>2026-04-04T09:22:28.002Z</time></trkpt><trkpt lat="43.42835923338176" lon="10.809508583692011"><ele>172.0</ele><time>2026-04-04T09:22:29.002Z</time></trkpt><trkpt lat="43.42834981138108" lon="10.809687006293592"><ele>173.0</ele><time>2026-04-04T09:22:30.002Z</time></trkpt><trkpt lat="43.42834051620765" lon="10.809882555503568"><ele>174.0</ele><time>2026-04-04T09:22:31.002Z</time></trkpt><trkpt lat="43.42831232133367" lon="10.810089371841354"><ele>175.5</ele><time>2026-04-04T09:22:32.002Z</time></trkpt><trkpt lat="43.428305638434715" lon="10.810299933469297"><ele>177.0</ele><time>2026-04-04T09:22:33.002Z</time></trkpt><trkpt lat="43.4282930677797" lon="10.81049212415104"><ele>178.5</ele><time>2026-04-04T09:22:34.002Z</time></trkpt><trkpt lat="43.42827588198416" lon="10.81067487412069"><ele>180.0</ele><time>2026-04-04T09:22:35.002Z</time></trkpt><trkpt lat="43.42825887630705" lon="10.810839307212163"><ele>180.0</ele><time>2026-04-04T09:22:36.002Z</time></trkpt><trkpt lat="43.4282505454186" lon="10.811000439424882"><ele>180.0</ele><time>2026-04-04T09:22:37.002Z</time></trkpt><trkpt lat="43.428258196238076" lon="10.811148235520786"><ele>180.0</ele><time>2026-04-04T09:22:38.002Z</time></trkpt><trkpt lat="43.428287476849135" lon="10.81128191389357"><ele>180.0</ele><time>2026-04-04T09:22:39.002Z</time></trkpt><trkpt lat="43.42833570156227" lon="10.811421375862688"><ele>180.0</ele><time>2026-04-04T09:22:40.002Z</time></trkpt><trkpt lat="43.42840723075521" lon="10.811580752666321"><ele>180.0</ele><time>2026-04-04T09:22:41.002Z</time></trkpt><trkpt lat="43.42849737668638" lon="10.811758097040544"><ele>180.0</ele><time>2026-04-04T09:22:42.002Z</time></trkpt><trkpt lat="43.428599379257484" lon="10.811948159907972"><ele>180.0</ele><time>2026-04-04T09:22:43.002Z</time></trkpt><trkpt lat="43.42868049058839" lon="10.81209866242329"><ele>178.4</ele><time>2026-04-04T09:22:44.002Z</time></trkpt><trkpt lat="43.428738943713235" lon="10.812238340764152"><ele>176.8</ele><time>2026-04-04T09:22:45.002Z</time></trkpt><trkpt lat="43.4287899055482" lon="10.81236943080714"><ele>175.2</ele><time>2026-04-04T09:22:46.002Z</time></trkpt><trkpt lat="43.42883352970582" lon="10.81250307440078"><ele>173.6</ele><time>2026-04-04T09:22:47.002Z</time></trkpt><trkpt lat="43.42886933876036" lon="10.812645033981546"><ele>172.0</ele><time>2026-04-04T09:22:48.002Z</time></trkpt><trkpt lat="43.428896210767554" lon="10.812787977457594"><ele>176.2</ele><time>2026-04-04T09:22:49.002Z</time></trkpt><trkpt lat="43.42891997788313" lon="10.81292724819212"><ele>180.39999999999998</ele><time>2026-04-04T09:22:50.002Z</time></trkpt><trkpt lat="43.42894315666589" lon="10.81306555945348"><ele>184.60000000000002</ele><time>2026-04-04T09:22:51.002Z</time></trkpt><trkpt lat="43.428964662872154" lon="10.813207213163713"><ele>188.8</ele><time>2026-04-04T09:22:52.003Z</time></trkpt><trkpt lat="43.42898521912316" lon="10.813342536138078"><ele>193.0</ele><time>2026-04-04T09:22:53.003Z</time></trkpt><trkpt lat="43.4290123516974" lon="10.813476054654114"><ele>191.60000000000002</ele><time>2026-04-04T09:22:54.003Z</time></trkpt><trkpt lat="43.429048006289975" lon="10.813603124567559"><ele>190.20000000000002</ele><time>2026-04-04T09:22:55.003Z</time></trkpt><trkpt lat="43.4290945308784" lon="10.813723166894361"><ele>188.8</ele><time>2026-04-04T09:22:56.003Z</time></trkpt><trkpt lat="43.42914380254186" lon="10.813819730640816"><ele>187.4</ele><time>2026-04-04T09:22:57.003Z</time></trkpt><trkpt lat="43.42918686359981" lon="10.813887219422073"><ele>186.0</ele><time>2026-04-04T09:22:58.003Z</time></trkpt><trkpt lat="43.429264427856744" lon="10.81399580653888"><ele>186.0</ele><time>2026-04-04T09:23:00.003Z</time></trkpt><trkpt lat="43.429346891236825" lon="10.814100000146427"><ele>186.0</ele><time>2026-04-04T09:23:02.003Z</time></trkpt><trkpt lat="43.42943397890617" lon="10.8141922389553"><ele>186.0</ele><time>2026-04-04T09:23:04.003Z</time></trkpt><trkpt lat="43.42953495523971" lon="10.814289504433752"><ele>186.0</ele><time>2026-04-04T09:23:06.003Z</time></trkpt><trkpt lat="43.42959846350605" lon="10.81436108079363"><ele>186.0</ele><time>2026-04-04T09:23:07.003Z</time></trkpt><trkpt lat="43.429674548431315" lon="10.814441017634678"><ele>186.75</ele><time>2026-04-04T09:23:08.003Z</time></trkpt><trkpt lat="43.429761497541115" lon="10.814526792994313"><ele>187.5</ele><time>2026-04-04T09:23:09.003Z</time></trkpt><trkpt lat="43.42985225308433" lon="10.814617328591572"><ele>188.25</ele><time>2026-04-04T09:23:10.003Z</time></trkpt><trkpt lat="43.42993644184461" lon="10.814722522525669"><ele>189.0</ele><time>2026-04-04T09:23:11.003Z</time></trkpt><trkpt lat="43.430012292794785" lon="10.814846954931888"><ele>189.0</ele><time>2026-04-04T09:23:12.003Z</time></trkpt><trkpt lat="43.43007764405113" lon="10.814986302496829"><ele>189.0</ele><time>2026-04-04T09:23:13.003Z</time></trkpt><trkpt lat="43.43010583104635" lon="10.815148963591572"><ele>189.0</ele><time>2026-04-04T09:23:14.003Z</time></trkpt><trkpt lat="43.4301390944028" lon="10.815312355953427"><ele>189.0</ele><time>2026-04-04T09:23:15.003Z</time></trkpt><trkpt lat="43.4301849199578" lon="10.8154652811468"><ele>189.75</ele><time>2026-04-04T09:23:16.003Z</time></trkpt><trkpt lat="43.43020622728338" lon="10.815626151608148"><ele>190.5</ele><time>2026-04-04T09:23:17.003Z</time></trkpt><trkpt lat="43.430244902138256" lon="10.815778846734476"><ele>191.25</ele><time>2026-04-04T09:23:18.003Z</time></trkpt><trkpt lat="43.43029035254401" lon="10.815929974879074"><ele>192.0</ele><time>2026-04-04T09:23:19.003Z</time></trkpt><trkpt lat="43.43034525068052" lon="10.81607443195288"><ele>192.75</ele><time>2026-04-04T09:23:20.003Z</time></trkpt><trkpt lat="43.43041081833581" lon="10.816219380692063"><ele>193.5</ele><time>2026-04-04T09:23:21.003Z</time></trkpt><trkpt lat="43.43048746880729" lon="10.816359819179402"><ele>194.25</ele><time>2026-04-04T09:23:22Z</time></trkpt><trkpt lat="43.4305738277847" lon="10.81650139397268"><ele>195.0</ele><time>2026-04-04T09:23:23Z</time></trkpt><trkpt lat="43.43066029347375" lon="10.816638949859481"><ele>195.5</ele><time>2026-04-04T09:23:24Z</time></trkpt><trkpt lat="43.4307532536501" lon="10.816772072567552"><ele>196.0</ele><time>2026-04-04T09:23:25Z</time></trkpt><trkpt lat="43.43084580819077" lon="10.816903152566793"><ele>196.5</ele><time>2026-04-04T09:23:26Z</time></trkpt><trkpt lat="43.4309362212113" lon="10.81703527270411"><ele>197.0</ele><time>2026-04-04T09:23:27Z</time></trkpt><trkpt lat="43.431021410034354" lon="10.817156658995039"><ele>200.75</ele><time>2026-04-04T09:23:28Z</time></trkpt><trkpt lat="43.43109959841762" lon="10.817280028544078"><ele>204.5</ele><time>2026-04-04T09:23:29Z</time></trkpt><trkpt lat="43.43116549013226" lon="10.817411638608784"><ele>208.25</ele><time>2026-04-04T09:23:30Z</time></trkpt><trkpt lat="43.43122842323163" lon="10.817557768594028"><ele>212.0</ele><time>2026-04-04T09:23:31Z</time></trkpt><trkpt lat="43.43126077404546" lon="10.817723676159007"><ele>212.0</ele><time>2026-04-04T09:23:32Z</time></trkpt><trkpt lat="43.43129716276486" lon="10.81788195139387"><ele>212.0</ele><time>2026-04-04T09:23:33Z</time></trkpt><trkpt lat="43.431329661771045" lon="10.818043877878832"><ele>212.0</ele><time>2026-04-04T09:23:34Z</time></trkpt><trkpt lat="43.431364575595154" lon="10.818172795593956"><ele>212.0</ele><time>2026-04-04T09:23:35Z</time></trkpt><trkpt lat="43.431398402943884" lon="10.818270618414052"><ele>212.0</ele><time>2026-04-04T09:23:36Z</time></trkpt><trkpt lat="43.431429311299844" lon="10.818358130863633"><ele>211.33333333333334</ele><time>2026-04-04T09:23:37Z</time></trkpt><trkpt lat="43.43147924942725" lon="10.818435633468647"><ele>210.66666666666669</ele><time>2026-04-04T09:23:38Z</time></trkpt><trkpt lat="43.43153678126285" lon="10.818507505835154"><ele>210.0</ele><time>2026-04-04T09:23:39Z</time></trkpt><trkpt lat="43.431596433156244" lon="10.81858623056111"><ele>209.33333333333331</ele><time>2026-04-04T09:23:40Z</time></trkpt><trkpt lat="43.43166412024208" lon="10.818660197590994"><ele>208.66666666666666</ele><time>2026-04-04T09:23:41Z</time></trkpt><trkpt lat="43.431738015987676" lon="10.81873330344515"><ele>208.0</ele><time>2026-04-04T09:23:42Z</time></trkpt><trkpt lat="43.43181188190131" lon="10.818807922465203"><ele>207.99999999999997</ele><time>2026-04-04T09:23:43Z</time></trkpt><trkpt lat="43.43188417613158" lon="10.81888297929843"><ele>208.0</ele><time>2026-04-04T09:23:44Z</time></trkpt><trkpt lat="43.43195923278456" lon="10.818959605404133"><ele>208.0</ele><time>2026-04-04T09:23:45Z</time></trkpt><trkpt lat="43.43202955927003" lon="10.819035380668414"><ele>208.0</ele><time>2026-04-04T09:23:46Z</time></trkpt><trkpt lat="43.432094865905526" lon="10.819101813885206"><ele>207.99999999999997</ele><time>2026-04-04T09:23:47Z</time></trkpt><trkpt lat="43.432163330661325" lon="10.819163300524995"><ele>208.0</ele><time>2026-04-04T09:23:48Z</time></trkpt><trkpt lat="43.43223505563085" lon="10.81923694920143"><ele>210.2</ele><time>2026-04-04T09:23:49Z</time></trkpt><trkpt lat="43.43230084761139" lon="10.819326059306631"><ele>212.4</ele><time>2026-04-04T09:23:50Z</time></trkpt><trkpt lat="43.43236012103954" lon="10.81942881146691"><ele>214.59999999999997</ele><time>2026-04-04T09:23:51Z</time></trkpt><trkpt lat="43.43241274476858" lon="10.8195351883006"><ele>216.79999999999998</ele><time>2026-04-04T09:23:52Z</time></trkpt><trkpt lat="43.43246734127272" lon="10.819653092290567"><ele>219.0</ele><time>2026-04-04T09:23:53.001Z</time></trkpt><trkpt lat="43.43252440168502" lon="10.819769318071316"><ele>219.0</ele><time>2026-04-04T09:23:54.001Z</time></trkpt><trkpt lat="43.4325849014322" lon="10.81988766925907"><ele>219.0</ele><time>2026-04-04T09:23:55.001Z</time></trkpt><trkpt lat="43.43264875308637" lon="10.820012105828082"><ele>219.0</ele><time>2026-04-04T09:23:56.001Z</time></trkpt><trkpt lat="43.432718989309905" lon="10.820147300855451"><ele>219.0</ele><time>2026-04-04T09:23:57.001Z</time></trkpt><trkpt lat="43.43280601295098" lon="10.820287107603384"><ele>219.0</ele><time>2026-04-04T09:23:58.001Z</time></trkpt><trkpt lat="43.43291404199315" lon="10.820422758348098"><ele>219.0</ele><time>2026-04-04T09:23:59.001Z</time></trkpt><trkpt lat="43.43301939198478" lon="10.820543147634151"><ele>219.0</ele><time>2026-04-04T09:24:00.001Z</time></trkpt><trkpt lat="43.43313382541872" lon="10.820651076038915"><ele>219.0</ele><time>2026-04-04T09:24:01.001Z</time></trkpt><trkpt lat="43.433284683382475" lon="10.820763775407746"><ele>220.66666666666669</ele><time>2026-04-04T09:24:02.001Z</time></trkpt><trkpt lat="43.43346461096626" lon="10.82088790997368"><ele>222.33333333333334</ele><time>2026-04-04T09:24:03.001Z</time></trkpt><trkpt lat="43.43364709948894" lon="10.821023400771878"><ele>224.0</ele><time>2026-04-04T09:24:04.001Z</time></trkpt><trkpt lat="43.43377925145244" lon="10.821113717601289"><ele>222.0</ele><time>2026-04-04T09:24:05.001Z</time></trkpt><trkpt lat="43.433876095682315" lon="10.821186740395788"><ele>219.99999999999997</ele><time>2026-04-04T09:24:06.001Z</time></trkpt><trkpt lat="43.4339618472155" lon="10.821251821418631"><ele>217.99999999999997</ele><time>2026-04-04T09:24:07.001Z</time></trkpt><trkpt lat="43.43405056108914" lon="10.82131414542265"><ele>216.0</ele><time>2026-04-04T09:24:08.001Z</time></trkpt><trkpt lat="43.43413852949683" lon="10.82137350344029"><ele>214.0</ele><time>2026-04-04T09:24:09.001Z</time></trkpt><trkpt lat="43.43422765090866" lon="10.821437325862348"><ele>214.0</ele><time>2026-04-04T09:24:10.001Z</time></trkpt><trkpt lat="43.434319799485145" lon="10.821502536282887"><ele>214.0</ele><time>2026-04-04T09:24:11.001Z</time></trkpt><trkpt lat="43.43441649714702" lon="10.821574670157146"><ele>214.0</ele><time>2026-04-04T09:24:12.001Z</time></trkpt><trkpt lat="43.43452017239087" lon="10.821648188099783"><ele>214.0</ele><time>2026-04-04T09:24:13.001Z</time></trkpt><trkpt lat="43.43463285312632" lon="10.821723840388513"><ele>215.25</ele><time>2026-04-04T09:24:14.001Z</time></trkpt><trkpt lat="43.43475035129906" lon="10.821801367735599"><ele>216.5</ele><time>2026-04-04T09:24:15.001Z</time></trkpt><trkpt lat="43.43485728806312" lon="10.821873191310662"><ele>217.75</ele><time>2026-04-04T09:24:16.001Z</time></trkpt><trkpt lat="43.434947888323364" lon="10.821946138360913"><ele>219.0</ele><time>2026-04-04T09:24:17.001Z</time></trkpt><trkpt lat="43.435032588005306" lon="10.822022204782568"><ele>219.0</ele><time>2026-04-04T09:24:18.001Z</time></trkpt><trkpt lat="43.43511150874826" lon="10.822126869852198"><ele>219.0</ele><time>2026-04-04T09:24:19.001Z</time></trkpt><trkpt lat="43.43518567434232" lon="10.822245000041846"><ele>219.0</ele><time>2026-04-04T09:24:20.001Z</time></trkpt><trkpt lat="43.43525990745508" lon="10.822391798395778"><ele>219.0</ele><time>2026-04-04T09:24:21.001Z</time></trkpt><trkpt lat="43.43533764464809" lon="10.8225797062412"><ele>218.75</ele><time>2026-04-04T09:24:22.001Z</time></trkpt><trkpt lat="43.43540116351281" lon="10.822741311486995"><ele>218.5</ele><time>2026-04-04T09:24:23.001Z</time></trkpt><trkpt lat="43.43546560661878" lon="10.822885978467426"><ele>218.25</ele><time>2026-04-04T09:24:24.001Z</time></trkpt><trkpt lat="43.43552931429227" lon="10.823016461942709"><ele>218.0</ele><time>2026-04-04T09:24:25.001Z</time></trkpt><trkpt lat="43.435593718002266" lon="10.82315083021875"><ele>218.0</ele><time>2026-04-04T09:24:26.001Z</time></trkpt><trkpt lat="43.435650123690586" lon="10.823286348909868"><ele>218.0</ele><time>2026-04-04T09:24:27.001Z</time></trkpt><trkpt lat="43.435706294904065" lon="10.823415904270535"><ele>218.0</ele><time>2026-04-04T09:24:28.002Z</time></trkpt><trkpt lat="43.43574592021208" lon="10.823542236462746"><ele>218.0</ele><time>2026-04-04T09:24:29.002Z</time></trkpt><trkpt lat="43.435745870254884" lon="10.823687547935739"><ele>218.0</ele><time>2026-04-04T09:24:30.002Z</time></trkpt><trkpt lat="43.43577490922901" lon="10.823817713604118"><ele>218.0</ele><time>2026-04-04T09:24:31.002Z</time></trkpt><trkpt lat="43.435777935742294" lon="10.82393329901519"><ele>218.0</ele><time>2026-04-04T09:24:32.002Z</time></trkpt><trkpt lat="43.43580632448647" lon="10.824040812087025"><ele>218.0</ele><time>2026-04-04T09:24:33.002Z</time></trkpt><trkpt lat="43.43585017864922" lon="10.8241597623562"><ele>218.0</ele><time>2026-04-04T09:24:34.002Z</time></trkpt><trkpt lat="43.435904604538536" lon="10.824265194709167"><ele>218.0</ele><time>2026-04-04T09:24:35.002Z</time></trkpt><trkpt lat="43.4359768916317" lon="10.824367614842132"><ele>216.8</ele><time>2026-04-04T09:24:36.002Z</time></trkpt><trkpt lat="43.43605105553345" lon="10.82446334324968"><ele>215.60000000000002</ele><time>2026-04-04T09:24:37.002Z</time></trkpt><trkpt lat="43.436111924346385" lon="10.824572544102542"><ele>214.39999999999998</ele><time>2026-04-04T09:24:38.002Z</time></trkpt><trkpt lat="43.4361556198565" lon="10.824683390736324"><ele>213.2</ele><time>2026-04-04T09:24:39.002Z</time></trkpt><trkpt lat="43.436182750522896" lon="10.824790649644326"><ele>212.0</ele><time>2026-04-04T09:24:40.002Z</time></trkpt><trkpt lat="43.4361818064065" lon="10.824898403258853"><ele>212.00000000000003</ele><time>2026-04-04T09:24:41.002Z</time></trkpt><trkpt lat="43.436174102850295" lon="10.824993822422703"><ele>212.0</ele><time>2026-04-04T09:24:42.002Z</time></trkpt><trkpt lat="43.43616113653407" lon="10.825083233302104"><ele>212.0</ele><time>2026-04-04T09:24:43.002Z</time></trkpt><trkpt lat="43.43614900298877" lon="10.825180380159981"><ele>212.0</ele><time>2026-04-04T09:24:44.002Z</time></trkpt><trkpt lat="43.43612153980829" lon="10.825276019968454"><ele>212.00000000000003</ele><time>2026-04-04T09:24:45.002Z</time></trkpt><trkpt lat="43.43611421564465" lon="10.82539429545206"><ele>212.0</ele><time>2026-04-04T09:24:46.002Z</time></trkpt><trkpt lat="43.43612958889446" lon="10.825514108865072"><ele>211.66666666666669</ele><time>2026-04-04T09:24:47.002Z</time></trkpt><trkpt lat="43.43613586103291" lon="10.825631917647348"><ele>211.33333333333334</ele><time>2026-04-04T09:24:48.002Z</time></trkpt><trkpt lat="43.43614887041486" lon="10.825750165213305"><ele>211.0</ele><time>2026-04-04T09:24:49.002Z</time></trkpt><trkpt lat="43.43617109245382" lon="10.825865323351975"><ele>210.66666666666669</ele><time>2026-04-04T09:24:50.002Z</time></trkpt><trkpt lat="43.43619528728387" lon="10.825978981022054"><ele>210.33333333333334</ele><time>2026-04-04T09:24:51.002Z</time></trkpt><trkpt lat="43.43622624876962" lon="10.826099115494136"><ele>210.0</ele><time>2026-04-04T09:24:52.002Z</time></trkpt><trkpt lat="43.436226081570275" lon="10.826232693356204"><ele>210.0</ele><time>2026-04-04T09:24:53.002Z</time></trkpt><trkpt lat="43.43622386476436" lon="10.826358677232712"><ele>210.0</ele><time>2026-04-04T09:24:54.002Z</time></trkpt><trkpt lat="43.43619959299544" lon="10.82648043558025"><ele>210.0</ele><time>2026-04-04T09:24:55.002Z</time></trkpt><trkpt lat="43.4361470549233" lon="10.826597080922529"><ele>210.0</ele><time>2026-04-04T09:24:56.002Z</time></trkpt><trkpt lat="43.43607375414474" lon="10.826710568846709"><ele>210.0</ele><time>2026-04-04T09:24:57.002Z</time></trkpt><trkpt lat="43.435976155898686" lon="10.826849630462798"><ele>211.0</ele><time>2026-04-04T09:24:58.002Z</time></trkpt><trkpt lat="43.43585911780929" lon="10.827022126104463"><ele>212.0</ele><time>2026-04-04T09:24:59.002Z</time></trkpt><trkpt lat="43.435757497110515" lon="10.827187028692697"><ele>213.0</ele><time>2026-04-04T09:25:00.002Z</time></trkpt><trkpt lat="43.43566096098447" lon="10.8273204771186"><ele>213.0</ele><time>2026-04-04T09:25:01.002Z</time></trkpt><trkpt lat="43.43557559809154" lon="10.827440904925227"><ele>213.0</ele><time>2026-04-04T09:25:02.003Z</time></trkpt><trkpt lat="43.435500679139835" lon="10.827563161807094"><ele>213.0</ele><time>2026-04-04T09:25:03.003Z</time></trkpt><trkpt lat="43.43543525004495" lon="10.827685796655242"><ele>213.0</ele><time>2026-04-04T09:25:04.003Z</time></trkpt><trkpt lat="43.43539660284019" lon="10.827833449780938"><ele>216.4</ele><time>2026-04-04T09:25:05.003Z</time></trkpt><trkpt lat="43.43534116634192" lon="10.827960508690623"><ele>219.8</ele><time>2026-04-04T09:25:06.003Z</time></trkpt><trkpt lat="43.43530421473618" lon="10.82809222105491"><ele>223.2</ele><time>2026-04-04T09:25:07.003Z</time></trkpt><trkpt lat="43.43527207544469" lon="10.828220864761324"><ele>226.6</ele><time>2026-04-04T09:25:08.003Z</time></trkpt><trkpt lat="43.43524285141876" lon="10.828339498467239"><ele>230.0</ele><time>2026-04-04T09:25:09.003Z</time></trkpt><trkpt lat="43.435215184102766" lon="10.828455637235429"><ele>229.66666666666669</ele><time>2026-04-04T09:25:10.003Z</time></trkpt><trkpt lat="43.435189585530125" lon="10.828570356317059"><ele>229.33333333333334</ele><time>2026-04-04T09:25:11.003Z</time></trkpt><trkpt lat="43.43516856540954" lon="10.828688231577106"><ele>229.0</ele><time>2026-04-04T09:25:12.003Z</time></trkpt><trkpt lat="43.435166778057216" lon="10.828804264423377"><ele>228.66666666666669</ele><time>2026-04-04T09:25:13.003Z</time></trkpt><trkpt lat="43.4351414593052" lon="10.82891404693817"><ele>228.33333333333334</ele><time>2026-04-04T09:25:14.003Z</time></trkpt><trkpt lat="43.43514826797371" lon="10.829033201358973"><ele>228.0</ele><time>2026-04-04T09:25:15.003Z</time></trkpt><trkpt lat="43.43515367603517" lon="10.829146171104771"><ele>228.0</ele><time>2026-04-04T09:25:16.003Z</time></trkpt><trkpt lat="43.435166772213165" lon="10.829256250636234"><ele>228.0</ele><time>2026-04-04T09:25:17.003Z</time></trkpt><trkpt lat="43.4351851373314" lon="10.829368317144176"><ele>228.0</ele><time>2026-04-04T09:25:18.003Z</time></trkpt><trkpt lat="43.435202388339505" lon="10.829485013193827"><ele>228.0</ele><time>2026-04-04T09:25:19.003Z</time></trkpt><trkpt lat="43.43522430442941" lon="10.829602198873058"><ele>228.0</ele><time>2026-04-04T09:25:20.003Z</time></trkpt><trkpt lat="43.43525137919167" lon="10.829724781952923"><ele>228.0</ele><time>2026-04-04T09:25:21.003Z</time></trkpt><trkpt lat="43.435285883774924" lon="10.829847444902322"><ele>228.0</ele><time>2026-04-04T09:25:22.003Z</time></trkpt><trkpt lat="43.43534145761103" lon="10.8299639000054"><ele>228.0</ele><time>2026-04-04T09:25:23.003Z</time></trkpt><trkpt lat="43.435413090531185" lon="10.83008536109696"><ele>228.0</ele><time>2026-04-04T09:25:24.003Z</time></trkpt><trkpt lat="43.43549709382339" lon="10.830209957758372"><ele>228.0</ele><time>2026-04-04T09:25:25.003Z</time></trkpt><trkpt lat="43.43559554933307" lon="10.830338949526542"><ele>228.0</ele><time>2026-04-04T09:25:26.003Z</time></trkpt><trkpt lat="43.435690156129645" lon="10.830472775842484"><ele>228.0</ele><time>2026-04-04T09:25:26.999Z</time></trkpt><trkpt lat="43.43577137600745" lon="10.830619077089095"><ele>228.0</ele><time>2026-04-04T09:25:27.999Z</time></trkpt><trkpt lat="43.43583756091537" lon="10.830761530907564"><ele>228.0</ele><time>2026-04-04T09:25:28.999Z</time></trkpt><trkpt lat="43.43588604310815" lon="10.830909930958377"><ele>228.75</ele><time>2026-04-04T09:25:29.999Z</time></trkpt><trkpt lat="43.43591514415612" lon="10.831077721363632"><ele>229.5</ele><time>2026-04-04T09:25:30.999Z</time></trkpt><trkpt lat="43.43591475879275" lon="10.831281636604292"><ele>230.25</ele><time>2026-04-04T09:25:31.999Z</time></trkpt><trkpt lat="43.4359415809956" lon="10.83151957295479"><ele>231.0</ele><time>2026-04-04T09:25:32.999Z</time></trkpt><trkpt lat="43.43595326005402" lon="10.831757416182718"><ele>231.0</ele><time>2026-04-04T09:25:33.999Z</time></trkpt><trkpt lat="43.435967112211024" lon="10.83196322526993"><ele>231.0</ele><time>2026-04-04T09:25:34.999Z</time></trkpt><trkpt lat="43.43596386543978" lon="10.832149493983255"><ele>231.0</ele><time>2026-04-04T09:25:35.999Z</time></trkpt><trkpt lat="43.435967082014805" lon="10.832300882674508"><ele>231.0</ele><time>2026-04-04T09:25:36.999Z</time></trkpt><trkpt lat="43.435957020392415" lon="10.832418600267367"><ele>231.0</ele><time>2026-04-04T09:25:38Z</time></trkpt><trkpt lat="43.43592753590817" lon="10.832526866362032"><ele>231.0</ele><time>2026-04-04T09:25:39Z</time></trkpt><trkpt lat="43.43588645219845" lon="10.832618288038049"><ele>231.0</ele><time>2026-04-04T09:25:40Z</time></trkpt><trkpt lat="43.43582424037034" lon="10.832693283499845"><ele>231.0</ele><time>2026-04-04T09:25:41Z</time></trkpt><trkpt lat="43.43575214625154" lon="10.832731926761303"><ele>231.0</ele><time>2026-04-04T09:25:42Z</time></trkpt><trkpt lat="43.43566639486197" lon="10.832745991605412"><ele>231.0</ele><time>2026-04-04T09:25:43Z</time></trkpt><trkpt lat="43.43557429212581" lon="10.83273908981034"><ele>229.0</ele><time>2026-04-04T09:25:44Z</time></trkpt><trkpt lat="43.435456150183015" lon="10.832735206299057"><ele>227.0</ele><time>2026-04-04T09:25:45Z</time></trkpt><trkpt lat="43.435318935956765" lon="10.832725503743562"><ele>225.0</ele><time>2026-04-04T09:25:46Z</time></trkpt><trkpt lat="43.43518978891635" lon="10.832726519877994"><ele>223.0</ele><time>2026-04-04T09:25:47Z</time></trkpt><trkpt lat="43.43507851809233" lon="10.832734265142017"><ele>223.0</ele><time>2026-04-04T09:25:48Z</time></trkpt><trkpt lat="43.434979823594354" lon="10.832761714366939"><ele>223.0</ele><time>2026-04-04T09:25:49Z</time></trkpt><trkpt lat="43.4348855859268" lon="10.832816033365443"><ele>223.0</ele><time>2026-04-04T09:25:50Z</time></trkpt><trkpt lat="43.4347974941615" lon="10.832895229294962"><ele>223.0</ele><time>2026-04-04T09:25:51Z</time></trkpt><trkpt lat="43.43472701426017" lon="10.833011666768103"><ele>223.0</ele><time>2026-04-04T09:25:52Z</time></trkpt><trkpt lat="43.43466782450429" lon="10.833151450984339"><ele>223.25</ele><time>2026-04-04T09:25:53Z</time></trkpt><trkpt lat="43.43461103822467" lon="10.833299827455077"><ele>223.5</ele><time>2026-04-04T09:25:54Z</time></trkpt><trkpt lat="43.43455592231714" lon="10.833461338744042"><ele>223.75</ele><time>2026-04-04T09:25:55Z</time></trkpt><trkpt lat="43.43450556990595" lon="10.833608492016536"><ele>224.0</ele><time>2026-04-04T09:25:56Z</time></trkpt><trkpt lat="43.43445089960587" lon="10.833738586195679"><ele>224.0</ele><time>2026-04-04T09:25:57Z</time></trkpt><trkpt lat="43.43439033871797" lon="10.833857903506122"><ele>223.99999999999997</ele><time>2026-04-04T09:25:58Z</time></trkpt><trkpt lat="43.434328365957946" lon="10.83397006337157"><ele>223.99999999999997</ele><time>2026-04-04T09:25:59Z</time></trkpt><trkpt lat="43.43426438175678" lon="10.834077514528449"><ele>224.0</ele><time>2026-04-04T09:26:00Z</time></trkpt><trkpt lat="43.43420201652029" lon="10.834175866474437"><ele>224.0</ele><time>2026-04-04T09:26:01Z</time></trkpt><trkpt lat="43.43413019940715" lon="10.834248417372672"><ele>221.6</ele><time>2026-04-04T09:26:02.001Z</time></trkpt><trkpt lat="43.434052536590556" lon="10.834316551597144"><ele>219.2</ele><time>2026-04-04T09:26:03.001Z</time></trkpt><trkpt lat="43.433967788304386" lon="10.834389413300327"><ele>216.79999999999998</ele><time>2026-04-04T09:26:04.001Z</time></trkpt><trkpt lat="43.43388649231069" lon="10.834459223748876"><ele>214.39999999999998</ele><time>2026-04-04T09:26:05.001Z</time></trkpt><trkpt lat="43.43380904910849" lon="10.834529261811483"><ele>212.0</ele><time>2026-04-04T09:26:06.001Z</time></trkpt><trkpt lat="43.43374712668484" lon="10.834617769639435"><ele>212.0</ele><time>2026-04-04T09:26:07.001Z</time></trkpt><trkpt lat="43.43369184244654" lon="10.834702942922483"><ele>212.0</ele><time>2026-04-04T09:26:08.001Z</time></trkpt><trkpt lat="43.43364801345485" lon="10.834806766625169"><ele>212.0</ele><time>2026-04-04T09:26:09.001Z</time></trkpt><trkpt lat="43.43362746476136" lon="10.834938912013055"><ele>212.0</ele><time>2026-04-04T09:26:10.001Z</time></trkpt><trkpt lat="43.43362713189115" lon="10.835094235503275"><ele>212.0</ele><time>2026-04-04T09:26:11.001Z</time></trkpt><trkpt lat="43.43361745537719" lon="10.83527536291683"><ele>212.0</ele><time>2026-04-04T09:26:12.001Z</time></trkpt><trkpt lat="43.433595968208934" lon="10.83545938134224"><ele>212.0</ele><time>2026-04-04T09:26:13.001Z</time></trkpt><trkpt lat="43.433547916980274" lon="10.835647987618515"><ele>212.0</ele><time>2026-04-04T09:26:14.001Z</time></trkpt><trkpt lat="43.43348275332686" lon="10.835833134131985"><ele>212.0</ele><time>2026-04-04T09:26:15.001Z</time></trkpt><trkpt lat="43.43340340835953" lon="10.8360083558982"><ele>213.5</ele><time>2026-04-04T09:26:16.001Z</time></trkpt><trkpt lat="43.4333259195807" lon="10.836178864112828"><ele>215.0</ele><time>2026-04-04T09:26:17.001Z</time></trkpt><trkpt lat="43.43327875052356" lon="10.836330427847018"><ele>216.5</ele><time>2026-04-04T09:26:18.001Z</time></trkpt><trkpt lat="43.433232751349166" lon="10.836451537011673"><ele>218.0</ele><time>2026-04-04T09:26:19.001Z</time></trkpt><trkpt lat="43.43321045293595" lon="10.836578004009718"><ele>218.0</ele><time>2026-04-04T09:26:20.001Z</time></trkpt><trkpt lat="43.43320685237865" lon="10.83671200466557"><ele>218.0</ele><time>2026-04-04T09:26:21.001Z</time></trkpt><trkpt lat="43.43322605437726" lon="10.836847251479595"><ele>218.0</ele><time>2026-04-04T09:26:22.001Z</time></trkpt><trkpt lat="43.4332582041468" lon="10.836982191093695"><ele>218.0</ele><time>2026-04-04T09:26:23.001Z</time></trkpt><trkpt lat="43.43330950908893" lon="10.837111677682428"><ele>218.0</ele><time>2026-04-04T09:26:24.001Z</time></trkpt><trkpt lat="43.433381314311944" lon="10.837224549090394"><ele>221.5</ele><time>2026-04-04T09:26:25.001Z</time></trkpt><trkpt lat="43.43346586158655" lon="10.837322763776747"><ele>225.0</ele><time>2026-04-04T09:26:26.001Z</time></trkpt><trkpt lat="43.433581879196716" lon="10.837428506934302"><ele>228.5</ele><time>2026-04-04T09:26:27.001Z</time></trkpt><trkpt lat="43.43371514815095" lon="10.837533409716892"><ele>232.0</ele><time>2026-04-04T09:26:28.001Z</time></trkpt><trkpt lat="43.43385100507747" lon="10.837649336788171"><ele>234.0</ele><time>2026-04-04T09:26:29.001Z</time></trkpt><trkpt lat="43.43396780938185" lon="10.837744771998697"><ele>236.0</ele><time>2026-04-04T09:26:30.001Z</time></trkpt><trkpt lat="43.43406017560166" lon="10.83783047611887"><ele>238.0</ele><time>2026-04-04T09:26:31.001Z</time></trkpt><trkpt lat="43.434154054545985" lon="10.837901758509256"><ele>240.0</ele><time>2026-04-04T09:26:32.002Z</time></trkpt><trkpt lat="43.43423367035642" lon="10.837993288762364"><ele>240.0</ele><time>2026-04-04T09:26:33.002Z</time></trkpt><trkpt lat="43.434295520925325" lon="10.83808987882719"><ele>240.0</ele><time>2026-04-04T09:26:34.002Z</time></trkpt><trkpt lat="43.43433603067657" lon="10.838199537519333"><ele>240.0</ele><time>2026-04-04T09:26:35.002Z</time></trkpt><trkpt lat="43.43435988516248" lon="10.838319130802658"><ele>240.0</ele><time>2026-04-04T09:26:36.002Z</time></trkpt><trkpt lat="43.43433814915894" lon="10.838444140572305"><ele>240.0</ele><time>2026-04-04T09:26:37.002Z</time></trkpt><trkpt lat="43.43431022446873" lon="10.838550314924072"><ele>240.0</ele><time>2026-04-04T09:26:38.002Z</time></trkpt><trkpt lat="43.434261129257884" lon="10.838636144840265"><ele>238.4</ele><time>2026-04-04T09:26:39.002Z</time></trkpt><trkpt lat="43.43419410527633" lon="10.838699584708904"><ele>236.8</ele><time>2026-04-04T09:26:40.002Z</time></trkpt><trkpt lat="43.43412059813112" lon="10.838737957236464"><ele>235.2</ele><time>2026-04-04T09:26:41.002Z</time></trkpt><trkpt lat="43.43403495300132" lon="10.838750855588506"><ele>233.6</ele><time>2026-04-04T09:26:42.002Z</time></trkpt><trkpt lat="43.433928901892195" lon="10.838746742376298"><ele>232.0</ele><time>2026-04-04T09:26:43.002Z</time></trkpt><trkpt lat="43.43379828098707" lon="10.838765599818045"><ele>232.0</ele><time>2026-04-04T09:26:44.002Z</time></trkpt><trkpt lat="43.43366066328241" lon="10.838798387523683"><ele>232.0</ele><time>2026-04-04T09:26:45.002Z</time></trkpt><trkpt lat="43.433512947147015" lon="10.83886433968689"><ele>232.0</ele><time>2026-04-04T09:26:46.002Z</time></trkpt><trkpt lat="43.43338306997105" lon="10.83893799767806"><ele>232.0</ele><time>2026-04-04T09:26:47.002Z</time></trkpt><trkpt lat="43.43326436038753" lon="10.839002410827344"><ele>232.0</ele><time>2026-04-04T09:26:48.002Z</time></trkpt><trkpt lat="43.43314190463671" lon="10.839056066696209"><ele>232.0</ele><time>2026-04-04T09:26:49.002Z</time></trkpt><trkpt lat="43.433023146644416" lon="10.839108387702735"><ele>232.0</ele><time>2026-04-04T09:26:50.002Z</time></trkpt><trkpt lat="43.43291932764903" lon="10.839151594560322"><ele>232.0</ele><time>2026-04-04T09:26:51.002Z</time></trkpt><trkpt lat="43.43282187609183" lon="10.839207054180239"><ele>229.0</ele><time>2026-04-04T09:26:52.002Z</time></trkpt><trkpt lat="43.43272839086654" lon="10.839303769373124"><ele>226.0</ele><time>2026-04-04T09:26:53.002Z</time></trkpt><trkpt lat="43.43262815619429" lon="10.839406103005038"><ele>223.0</ele><time>2026-04-04T09:26:54.002Z</time></trkpt><trkpt lat="43.43251991971619" lon="10.839540450375567"><ele>220.0</ele><time>2026-04-04T09:26:55.002Z</time></trkpt><trkpt lat="43.43238363344114" lon="10.839685773243545"><ele>220.0</ele><time>2026-04-04T09:26:56.002Z</time></trkpt><trkpt lat="43.432238200066365" lon="10.839863198576879"><ele>220.0</ele><time>2026-04-04T09:26:57.002Z</time></trkpt><trkpt lat="43.43209948380756" lon="10.84003557662032"><ele>220.0</ele><time>2026-04-04T09:26:58.002Z</time></trkpt><trkpt lat="43.43198276790348" lon="10.840186813642937"><ele>224.75</ele><time>2026-04-04T09:26:59.002Z</time></trkpt><trkpt lat="43.43189180892904" lon="10.84033143977759"><ele>229.5</ele><time>2026-04-04T09:27:00.002Z</time></trkpt><trkpt lat="43.43178739941185" lon="10.840429269325787"><ele>234.25</ele><time>2026-04-04T09:27:01.002Z</time></trkpt><trkpt lat="43.4316938471271" lon="10.840537992915216"><ele>239.0</ele><time>2026-04-04T09:27:02.002Z</time></trkpt><trkpt lat="43.43163194475307" lon="10.840651071017858"><ele>239.00000000000003</ele><time>2026-04-04T09:27:03.002Z</time></trkpt><trkpt lat="43.431574529082745" lon="10.840745811892972"><ele>239.0</ele><time>2026-04-04T09:27:04.002Z</time></trkpt><trkpt lat="43.43152829358787" lon="10.840830623691508"><ele>239.0</ele><time>2026-04-04T09:27:05.003Z</time></trkpt><trkpt lat="43.43147666655201" lon="10.840918616069018"><ele>239.0</ele><time>2026-04-04T09:27:06.003Z</time></trkpt><trkpt lat="43.431449610988444" lon="10.841032246844286"><ele>239.00000000000003</ele><time>2026-04-04T09:27:07.003Z</time></trkpt><trkpt lat="43.43144485699995" lon="10.841164147358375"><ele>239.0</ele><time>2026-04-04T09:27:08.003Z</time></trkpt><trkpt lat="43.4314542846201" lon="10.841286456897716"><ele>240.39999999999998</ele><time>2026-04-04T09:27:09.003Z</time></trkpt><trkpt lat="43.43146560214338" lon="10.84141142339713"><ele>241.79999999999998</ele><time>2026-04-04T09:27:10.003Z</time></trkpt><trkpt lat="43.43148954905519" lon="10.841541960827584"><ele>243.20000000000002</ele><time>2026-04-04T09:27:11.003Z</time></trkpt><trkpt lat="43.431526737282205" lon="10.841673045937993"><ele>244.60000000000002</ele><time>2026-04-04T09:27:12.003Z</time></trkpt><trkpt lat="43.431576472957595" lon="10.841782466967508"><ele>246.0</ele><time>2026-04-04T09:27:13.003Z</time></trkpt><trkpt lat="43.43164051979303" lon="10.841885032460521"><ele>247.20000000000002</ele><time>2026-04-04T09:27:14.003Z</time></trkpt><trkpt lat="43.431707097629065" lon="10.841975643726668"><ele>248.40000000000003</ele><time>2026-04-04T09:27:15.003Z</time></trkpt><trkpt lat="43.43178667671779" lon="10.842024591210146"><ele>249.6</ele><time>2026-04-04T09:27:16.003Z</time></trkpt><trkpt lat="43.43189421607061" lon="10.842037739553398"><ele>250.8</ele><time>2026-04-04T09:27:17.003Z</time></trkpt><trkpt lat="43.43201254231562" lon="10.842089023274955"><ele>252.0</ele><time>2026-04-04T09:27:18.003Z</time></trkpt><trkpt lat="43.432142458783545" lon="10.842126174242512"><ele>252.0</ele><time>2026-04-04T09:27:19.003Z</time></trkpt><trkpt lat="43.43227261220087" lon="10.842160991038511"><ele>252.0</ele><time>2026-04-04T09:27:20.003Z</time></trkpt><trkpt lat="43.432402099835905" lon="10.842197519766124"><ele>252.0</ele><time>2026-04-04T09:27:21.003Z</time></trkpt><trkpt lat="43.432517959723754" lon="10.842254666399363"><ele>252.0</ele><time>2026-04-04T09:27:22.003Z</time></trkpt><trkpt lat="43.43261774010631" lon="10.842312430878723"><ele>252.0</ele><time>2026-04-04T09:27:23.003Z</time></trkpt><trkpt lat="43.43268739170073" lon="10.842387868745451"><ele>252.0</ele><time>2026-04-04T09:27:24.003Z</time></trkpt><trkpt lat="43.43273766921148" lon="10.842473398210405"><ele>252.0</ele><time>2026-04-04T09:27:25.003Z</time></trkpt><trkpt lat="43.432763168389144" lon="10.842575641634678"><ele>252.0</ele><time>2026-04-04T09:27:26.003Z</time></trkpt><trkpt lat="43.432758957228984" lon="10.842682140478333"><ele>252.0</ele><time>2026-04-04T09:27:27.003Z</time></trkpt><trkpt lat="43.43276767429554" lon="10.842769239928394"><ele>252.0</ele><time>2026-04-04T09:27:28.003Z</time></trkpt><trkpt lat="43.43278097000767" lon="10.842880921770398"><ele>250.5</ele><time>2026-04-04T09:27:30.003Z</time></trkpt><trkpt lat="43.43268696990958" lon="10.84287054024557"><ele>249.0</ele><time>2026-04-04T09:28:26.001Z</time></trkpt><trkpt lat="43.432535128710875" lon="10.84285610404604"><ele>247.5</ele><time>2026-04-04T09:28:28.001Z</time></trkpt><trkpt lat="43.432391814492206" lon="10.842867085633868"><ele>246.0</ele><time>2026-04-04T09:28:29.001Z</time></trkpt><trkpt lat="43.432248468269464" lon="10.842892625880134"><ele>249.0</ele><time>2026-04-04T09:28:30.001Z</time></trkpt><trkpt lat="43.432074339106684" lon="10.842949036234671"><ele>252.0</ele><time>2026-04-04T09:28:31.001Z</time></trkpt><trkpt lat="43.43190581732082" lon="10.843060282011932"><ele>255.0</ele><time>2026-04-04T09:28:32.001Z</time></trkpt><trkpt lat="43.43172631788468" lon="10.843187815303104"><ele>255.0</ele><time>2026-04-04T09:28:33.001Z</time></trkpt><trkpt lat="43.431564269439605" lon="10.843299992294025"><ele>255.0</ele><time>2026-04-04T09:28:34.002Z</time></trkpt><trkpt lat="43.431416426745706" lon="10.843402337208127"><ele>255.0</ele><time>2026-04-04T09:28:35.002Z</time></trkpt><trkpt lat="43.43128249833892" lon="10.843485840169933"><ele>256.4</ele><time>2026-04-04T09:28:36.002Z</time></trkpt><trkpt lat="43.43116361694669" lon="10.843551467940834"><ele>257.8</ele><time>2026-04-04T09:28:37.002Z</time></trkpt><trkpt lat="43.431053137266375" lon="10.843608265513554"><ele>259.2</ele><time>2026-04-04T09:28:38.002Z</time></trkpt><trkpt lat="43.43095851906355" lon="10.843645116654361"><ele>260.6</ele><time>2026-04-04T09:28:39.002Z</time></trkpt><trkpt lat="43.430867897783216" lon="10.843664574104231"><ele>262.0</ele><time>2026-04-04T09:28:40.002Z</time></trkpt><trkpt lat="43.43077142599899" lon="10.843670697160913"><ele>262.0</ele><time>2026-04-04T09:28:41.002Z</time></trkpt><trkpt lat="43.430680518176615" lon="10.84365111279571"><ele>262.0</ele><time>2026-04-04T09:28:42.002Z</time></trkpt><trkpt lat="43.43057397544969" lon="10.843635025195933"><ele>262.0</ele><time>2026-04-04T09:28:43.002Z</time></trkpt><trkpt lat="43.43047872972645" lon="10.843563527320384"><ele>262.0</ele><time>2026-04-04T09:28:44.002Z</time></trkpt><trkpt lat="43.43038563538106" lon="10.843487180184958"><ele>262.0</ele><time>2026-04-04T09:28:45.002Z</time></trkpt><trkpt lat="43.43029152407347" lon="10.843394550068433"><ele>261.5</ele><time>2026-04-04T09:28:46.002Z</time></trkpt><trkpt lat="43.43018601015016" lon="10.84330328198136"><ele>261.0</ele><time>2026-04-04T09:28:47.002Z</time></trkpt><trkpt lat="43.430073305854876" lon="10.843203682872266"><ele>260.5</ele><time>2026-04-04T09:28:48.002Z</time></trkpt><trkpt lat="43.429968732946" lon="10.843086026016488"><ele>260.0</ele><time>2026-04-04T09:28:49.002Z</time></trkpt><trkpt lat="43.42987050851011" lon="10.842939720805049"><ele>260.0</ele><time>2026-04-04T09:28:50.002Z</time></trkpt><trkpt lat="43.42979932705519" lon="10.842743859351454"><ele>260.0</ele><time>2026-04-04T09:28:51.002Z</time></trkpt><trkpt lat="43.42972290006012" lon="10.842508204558303"><ele>260.0</ele><time>2026-04-04T09:28:52.002Z</time></trkpt><trkpt lat="43.42959661685679" lon="10.842266870387364"><ele>262.6666666666667</ele><time>2026-04-04T09:28:53.002Z</time></trkpt><trkpt lat="43.42944561234927" lon="10.842051561028459"><ele>265.3333333333333</ele><time>2026-04-04T09:28:54.002Z</time></trkpt><trkpt lat="43.429309116749074" lon="10.841896263880697"><ele>268.0</ele><time>2026-04-04T09:28:55.002Z</time></trkpt><trkpt lat="43.429175539111085" lon="10.84173961871364"><ele>268.0</ele><time>2026-04-04T09:28:56.002Z</time></trkpt><trkpt lat="43.429066354581465" lon="10.841584674700833"><ele>268.0</ele><time>2026-04-04T09:28:57.002Z</time></trkpt><trkpt lat="43.42896498317861" lon="10.841463350250805"><ele>268.0</ele><time>2026-04-04T09:28:58.002Z</time></trkpt><trkpt lat="43.42887056540056" lon="10.841334787402142"><ele>268.0</ele><time>2026-04-04T09:28:59.002Z</time></trkpt><trkpt lat="43.42878480362245" lon="10.841175893181598"><ele>266.75</ele><time>2026-04-04T09:29:00.002Z</time></trkpt><trkpt lat="43.428689043550825" lon="10.841010277173009"><ele>265.5</ele><time>2026-04-04T09:29:01.002Z</time></trkpt><trkpt lat="43.42861783924443" lon="10.840830591539804"><ele>264.25</ele><time>2026-04-04T09:29:02.002Z</time></trkpt><trkpt lat="43.42855505371902" lon="10.840671309411123"><ele>263.0</ele><time>2026-04-04T09:29:03.002Z</time></trkpt><trkpt lat="43.428464315901195" lon="10.840541880246535"><ele>263.0</ele><time>2026-04-04T09:29:04.002Z</time></trkpt><trkpt lat="43.42834000315915" lon="10.840427465463433"><ele>263.0</ele><time>2026-04-04T09:29:05.002Z</time></trkpt><trkpt lat="43.42817132333834" lon="10.84039299574945"><ele>263.0</ele><time>2026-04-04T09:29:06.002Z</time></trkpt><trkpt lat="43.427987026676874" lon="10.840364107933482"><ele>261.0</ele><time>2026-04-04T09:29:07.003Z</time></trkpt><trkpt lat="43.4278014771198" lon="10.840315484616227"><ele>259.0</ele><time>2026-04-04T09:29:08.003Z</time></trkpt><trkpt lat="43.42764050455239" lon="10.840254817965395"><ele>257.0</ele><time>2026-04-04T09:29:09.003Z</time></trkpt><trkpt lat="43.427493776204166" lon="10.84018912932255"><ele>258.33333333333337</ele><time>2026-04-04T09:29:10.003Z</time></trkpt><trkpt lat="43.42735659193533" lon="10.840130621969656"><ele>259.6666666666667</ele><time>2026-04-04T09:29:11.003Z</time></trkpt><trkpt lat="43.42720709153156" lon="10.840093483516837"><ele>261.0</ele><time>2026-04-04T09:29:12.003Z</time></trkpt><trkpt lat="43.42704358123107" lon="10.840141212399628"><ele>261.0</ele><time>2026-04-04T09:29:13.003Z</time></trkpt><trkpt lat="43.426868095801844" lon="10.840248381770003"><ele>261.0</ele><time>2026-04-04T09:29:14.003Z</time></trkpt><trkpt lat="43.42670198370043" lon="10.840366126352423"><ele>261.0</ele><time>2026-04-04T09:29:15.003Z</time></trkpt><trkpt lat="43.42653085011491" lon="10.84047172590853"><ele>261.0</ele><time>2026-04-04T09:29:16.003Z</time></trkpt><trkpt lat="43.426336966189105" lon="10.840576816574213"><ele>261.0</ele><time>2026-04-04T09:29:17.003Z</time></trkpt><trkpt lat="43.426159993596606" lon="10.840663770136803"><ele>261.0</ele><time>2026-04-04T09:29:18.003Z</time></trkpt><trkpt lat="43.425999731586536" lon="10.840750545893231"><ele>263.3333333333333</ele><time>2026-04-04T09:29:19.003Z</time></trkpt><trkpt lat="43.42585131419746" lon="10.840840108989639"><ele>265.66666666666663</ele><time>2026-04-04T09:29:20.003Z</time></trkpt><trkpt lat="43.425716630725745" lon="10.84094677764938"><ele>268.0</ele><time>2026-04-04T09:29:21.003Z</time></trkpt><trkpt lat="43.42559669773704" lon="10.841105789347793"><ele>268.0</ele><time>2026-04-04T09:29:22.003Z</time></trkpt><trkpt lat="43.425492312525286" lon="10.84126683052277"><ele>268.0</ele><time>2026-04-04T09:29:23.003Z</time></trkpt><trkpt lat="43.4254014130991" lon="10.841415868992064"><ele>268.0</ele><time>2026-04-04T09:29:24.003Z</time></trkpt><trkpt lat="43.425327970017804" lon="10.841540657595312"><ele>268.0</ele><time>2026-04-04T09:29:25.003Z</time></trkpt><trkpt lat="43.42527135384996" lon="10.841634912446123"><ele>268.3333333333333</ele><time>2026-04-04T09:29:26.003Z</time></trkpt><trkpt lat="43.425216307296054" lon="10.841715764261389"><ele>268.66666666666663</ele><time>2026-04-04T09:29:27.003Z</time></trkpt><trkpt lat="43.42515879863541" lon="10.841785363079756"><ele>269.0</ele><time>2026-04-04T09:29:28.003Z</time></trkpt><trkpt lat="43.42508484321939" lon="10.841835334480189"><ele>269.3333333333333</ele><time>2026-04-04T09:29:29.003Z</time></trkpt><trkpt lat="43.42500218931971" lon="10.841827854478643"><ele>269.6666666666667</ele><time>2026-04-04T09:29:30.003Z</time></trkpt><trkpt lat="43.424912341471654" lon="10.841772848299044"><ele>270.0</ele><time>2026-04-04T09:29:31.003Z</time></trkpt><trkpt lat="43.424798944828126" lon="10.841654042832404"><ele>268.3333333333333</ele><time>2026-04-04T09:29:32.003Z</time></trkpt><trkpt lat="43.42468291262562" lon="10.841476512025753"><ele>266.66666666666663</ele><time>2026-04-04T09:29:33.003Z</time></trkpt><trkpt lat="43.424561543093795" lon="10.841294370740963"><ele>265.0</ele><time>2026-04-04T09:29:34.003Z</time></trkpt><trkpt lat="43.42442978251267" lon="10.84108815920781"><ele>270.66666666666663</ele><time>2026-04-04T09:29:35.003Z</time></trkpt><trkpt lat="43.424296263681875" lon="10.840956921348365"><ele>276.3333333333333</ele><time>2026-04-04T09:29:36.003Z</time></trkpt><trkpt lat="43.424161179806" lon="10.84082466387697"><ele>282.0</ele><time>2026-04-04T09:29:37.003Z</time></trkpt><trkpt lat="43.42401677145622" lon="10.840725727062518"><ele>282.0</ele><time>2026-04-04T09:29:38.003Z</time></trkpt><trkpt lat="43.42387978158632" lon="10.840625583938483"><ele>282.0</ele><time>2026-04-04T09:29:39.001Z</time></trkpt><trkpt lat="43.42373168092922" lon="10.840520790561616"><ele>282.0</ele><time>2026-04-04T09:29:40.001Z</time></trkpt><trkpt lat="43.42357543019077" lon="10.840358541974469"><ele>283.0</ele><time>2026-04-04T09:29:41.001Z</time></trkpt><trkpt lat="43.423415469684066" lon="10.840197906029573"><ele>284.0</ele><time>2026-04-04T09:29:42.001Z</time></trkpt><trkpt lat="43.423260576761045" lon="10.840088989914532"><ele>285.0</ele><time>2026-04-04T09:29:43.001Z</time></trkpt><trkpt lat="43.42311841834685" lon="10.840022009705029"><ele>285.0</ele><time>2026-04-04T09:29:44.001Z</time></trkpt><trkpt lat="43.422988402818056" lon="10.83997018254953"><ele>285.0</ele><time>2026-04-04T09:29:45Z</time></trkpt><trkpt lat="43.42286052026365" lon="10.839926435654217"><ele>285.0</ele><time>2026-04-04T09:29:46Z</time></trkpt><trkpt lat="43.42272688767054" lon="10.839891362035821"><ele>285.0</ele><time>2026-04-04T09:29:47Z</time></trkpt><trkpt lat="43.422577799808266" lon="10.839894174106334"><ele>284.3333333333333</ele><time>2026-04-04T09:29:48Z</time></trkpt><trkpt lat="43.42241566836716" lon="10.839937043224506"><ele>283.66666666666663</ele><time>2026-04-04T09:29:49Z</time></trkpt><trkpt lat="43.4222535063513" lon="10.839985678870532"><ele>283.0</ele><time>2026-04-04T09:29:50Z</time></trkpt><trkpt lat="43.42209439511706" lon="10.840030238878462"><ele>283.0</ele><time>2026-04-04T09:29:51Z</time></trkpt><trkpt lat="43.42193442078316" lon="10.840073662252047"><ele>283.0</ele><time>2026-04-04T09:29:52Z</time></trkpt><trkpt lat="43.421769495451294" lon="10.840157911075073"><ele>283.0</ele><time>2026-04-04T09:29:53Z</time></trkpt><trkpt lat="43.4216239535252" lon="10.840280232253775"><ele>279.66666666666663</ele><time>2026-04-04T09:29:54Z</time></trkpt><trkpt lat="43.42148756850643" lon="10.840404054903289"><ele>276.3333333333333</ele><time>2026-04-04T09:29:55Z</time></trkpt><trkpt lat="43.421355383936195" lon="10.84052358289387"><ele>273.0</ele><time>2026-04-04T09:29:56Z</time></trkpt><trkpt lat="43.42122685882527" lon="10.840642455983312"><ele>273.0</ele><time>2026-04-04T09:29:57Z</time></trkpt><trkpt lat="43.42109112022225" lon="10.84078063384097"><ele>273.0</ele><time>2026-04-04T09:29:58Z</time></trkpt><trkpt lat="43.42097226771983" lon="10.84095705378586"><ele>273.0</ele><time>2026-04-04T09:29:59Z</time></trkpt><trkpt lat="43.4208573478611" lon="10.841144551820388"><ele>274.6666666666667</ele><time>2026-04-04T09:30:00Z</time></trkpt><trkpt lat="43.42074612436025" lon="10.841326524750002"><ele>276.33333333333337</ele><time>2026-04-04T09:30:01Z</time></trkpt><trkpt lat="43.4206477339218" lon="10.841517280114607"><ele>278.0</ele><time>2026-04-04T09:30:02Z</time></trkpt><trkpt lat="43.42053868840896" lon="10.8416782510718"><ele>282.6666666666667</ele><time>2026-04-04T09:30:03Z</time></trkpt><trkpt lat="43.42045306391483" lon="10.841858627856588"><ele>287.3333333333333</ele><time>2026-04-04T09:30:04Z</time></trkpt><trkpt lat="43.420419599546385" lon="10.842083269050933"><ele>292.0</ele><time>2026-04-04T09:30:05.001Z</time></trkpt><trkpt lat="43.42043269201941" lon="10.842321457420837"><ele>292.0</ele><time>2026-04-04T09:30:06.001Z</time></trkpt><trkpt lat="43.42046308885077" lon="10.842552410852038"><ele>292.0</ele><time>2026-04-04T09:30:07.001Z</time></trkpt><trkpt lat="43.42046539404321" lon="10.84276355958376"><ele>292.0</ele><time>2026-04-04T09:30:08.001Z</time></trkpt><trkpt lat="43.420440604682106" lon="10.842965962695898"><ele>291.5</ele><time>2026-04-04T09:30:09.001Z</time></trkpt><trkpt lat="43.420405681192264" lon="10.84315621870164"><ele>291.0</ele><time>2026-04-04T09:30:10.001Z</time></trkpt><trkpt lat="43.420367582039006" lon="10.843312609367171"><ele>290.5</ele><time>2026-04-04T09:30:11.001Z</time></trkpt><trkpt lat="43.42033275791119" lon="10.843443584669089"><ele>290.0</ele><time>2026-04-04T09:30:12.001Z</time></trkpt><trkpt lat="43.42028855172493" lon="10.84356905702536"><ele>290.0</ele><time>2026-04-04T09:30:13.001Z</time></trkpt><trkpt lat="43.42023309679292" lon="10.843689588740697"><ele>290.0</ele><time>2026-04-04T09:30:14.001Z</time></trkpt><trkpt lat="43.420148733373544" lon="10.843798863467775"><ele>290.0</ele><time>2026-04-04T09:30:15.001Z</time></trkpt><trkpt lat="43.42003771811258" lon="10.84389610400712"><ele>290.0</ele><time>2026-04-04T09:30:16.001Z</time></trkpt><trkpt lat="43.41991680928341" lon="10.84397306114627"><ele>290.0</ele><time>2026-04-04T09:30:17.001Z</time></trkpt><trkpt lat="43.419780717019215" lon="10.844034054156555"><ele>290.0</ele><time>2026-04-04T09:30:18.001Z</time></trkpt><trkpt lat="43.41962086255799" lon="10.84405612086952"><ele>290.0</ele><time>2026-04-04T09:30:19.001Z</time></trkpt><trkpt lat="43.419485527319516" lon="10.84415790107311"><ele>291.33333333333337</ele><time>2026-04-04T09:30:20.001Z</time></trkpt><trkpt lat="43.419316918700034" lon="10.844301771580271"><ele>292.6666666666667</ele><time>2026-04-04T09:30:21.001Z</time></trkpt><trkpt lat="43.41915039229187" lon="10.844466625135437"><ele>294.0</ele><time>2026-04-04T09:30:22.001Z</time></trkpt><trkpt lat="43.41906147856265" lon="10.844601449103944"><ele>294.0</ele><time>2026-04-04T09:30:23.001Z</time></trkpt><trkpt lat="43.41896546000217" lon="10.844723581551241"><ele>294.0</ele><time>2026-04-04T09:30:24.001Z</time></trkpt><trkpt lat="43.4188569980622" lon="10.84482360453163"><ele>294.0</ele><time>2026-04-04T09:30:25.001Z</time></trkpt><trkpt lat="43.418760832301004" lon="10.844939628588216"><ele>294.0</ele><time>2026-04-04T09:30:26.001Z</time></trkpt><trkpt lat="43.41869727874633" lon="10.84508543489279"><ele>296.25</ele><time>2026-04-04T09:30:27.001Z</time></trkpt><trkpt lat="43.41866989447617" lon="10.845274016818014"><ele>298.5</ele><time>2026-04-04T09:30:28.001Z</time></trkpt><trkpt lat="43.41865003271324" lon="10.845450049949143"><ele>300.75</ele><time>2026-04-04T09:30:29.001Z</time></trkpt><trkpt lat="43.41862998079871" lon="10.845615980350162"><ele>303.0</ele><time>2026-04-04T09:30:30.001Z</time></trkpt><trkpt lat="43.41860428491628" lon="10.845796441212551"><ele>305.5</ele><time>2026-04-04T09:30:31.001Z</time></trkpt><trkpt lat="43.418576576845965" lon="10.845990914412479"><ele>308.0</ele><time>2026-04-04T09:30:32.001Z</time></trkpt><trkpt lat="43.41852362870905" lon="10.84616631267621"><ele>310.5</ele><time>2026-04-04T09:30:33.001Z</time></trkpt><trkpt lat="43.41844189082501" lon="10.846310499025638"><ele>313.0</ele><time>2026-04-04T09:30:34.001Z</time></trkpt><trkpt lat="43.418380221237214" lon="10.846448715320744"><ele>313.0</ele><time>2026-04-04T09:30:35.001Z</time></trkpt><trkpt lat="43.41835473684327" lon="10.8465995264471"><ele>313.0</ele><time>2026-04-04T09:30:36.001Z</time></trkpt><trkpt lat="43.41836951089512" lon="10.846759404347145"><ele>313.0</ele><time>2026-04-04T09:30:37.001Z</time></trkpt><trkpt lat="43.41836800218536" lon="10.846895130364189"><ele>313.0</ele><time>2026-04-04T09:30:38.001Z</time></trkpt><trkpt lat="43.41826828512717" lon="10.846980159723897"><ele>313.0</ele><time>2026-04-04T09:30:39.001Z</time></trkpt><trkpt lat="43.41816366894684" lon="10.847087265064227"><ele>313.0</ele><time>2026-04-04T09:30:40.001Z</time></trkpt><trkpt lat="43.418080048425466" lon="10.847216570264004"><ele>313.0</ele><time>2026-04-04T09:30:41.001Z</time></trkpt><trkpt lat="43.4180025776217" lon="10.84734397311173"><ele>313.0</ele><time>2026-04-04T09:30:42.001Z</time></trkpt><trkpt lat="43.417951810060835" lon="10.847500752777703"><ele>313.0</ele><time>2026-04-04T09:30:43.001Z</time></trkpt><trkpt lat="43.417933607989845" lon="10.84768102352517"><ele>319.0</ele><time>2026-04-04T09:30:44.001Z</time></trkpt><trkpt lat="43.41794456877568" lon="10.847881815982372"><ele>325.0</ele><time>2026-04-04T09:30:45.001Z</time></trkpt><trkpt lat="43.417960342628625" lon="10.848073852454416"><ele>331.0</ele><time>2026-04-04T09:30:46.001Z</time></trkpt><trkpt lat="43.41797802255833" lon="10.848275694932354"><ele>337.0</ele><time>2026-04-04T09:30:47.001Z</time></trkpt><trkpt lat="43.418002328320945" lon="10.848480183995255"><ele>337.0</ele><time>2026-04-04T09:30:48.002Z</time></trkpt><trkpt lat="43.41805159057501" lon="10.848668919356262"><ele>337.0</ele><time>2026-04-04T09:30:49.002Z</time></trkpt><trkpt lat="43.41815100621976" lon="10.848828131464398"><ele>337.0</ele><time>2026-04-04T09:30:50.002Z</time></trkpt><trkpt lat="43.41823821279424" lon="10.848964550653443"><ele>337.0</ele><time>2026-04-04T09:30:51.002Z</time></trkpt><trkpt lat="43.41830867743071" lon="10.849096696858426"><ele>337.0</ele><time>2026-04-04T09:30:52.002Z</time></trkpt><trkpt lat="43.418376543324726" lon="10.849229379814703"><ele>337.0</ele><time>2026-04-04T09:30:53.002Z</time></trkpt><trkpt lat="43.418364749370696" lon="10.849433689906299"><ele>337.0</ele><time>2026-04-04T09:30:54.002Z</time></trkpt><trkpt lat="43.418349827448765" lon="10.849667597612934"><ele>337.0</ele><time>2026-04-04T09:30:55.002Z</time></trkpt><trkpt lat="43.4183403493752" lon="10.849925543948752"><ele>343.0</ele><time>2026-04-04T09:30:56.002Z</time></trkpt><trkpt lat="43.418377805731545" lon="10.85016962275927"><ele>349.0</ele><time>2026-04-04T09:30:57.002Z</time></trkpt><trkpt lat="43.41841771640693" lon="10.850383325509915"><ele>355.0</ele><time>2026-04-04T09:30:58.002Z</time></trkpt><trkpt lat="43.41844063910866" lon="10.850590520580258"><ele>355.0</ele><time>2026-04-04T09:30:59.002Z</time></trkpt><trkpt lat="43.41845538977519" lon="10.850784561492022"><ele>355.0</ele><time>2026-04-04T09:31:00.002Z</time></trkpt><trkpt lat="43.41845119309942" lon="10.850956414457777"><ele>355.0</ele><time>2026-04-04T09:31:01.002Z</time></trkpt><trkpt lat="43.41844923213362" lon="10.851139803872625"><ele>355.0</ele><time>2026-04-04T09:31:02.002Z</time></trkpt><trkpt lat="43.41840791047139" lon="10.851316838313076"><ele>356.25</ele><time>2026-04-04T09:31:03.002Z</time></trkpt><trkpt lat="43.41838298469466" lon="10.851492237758823"><ele>357.5</ele><time>2026-04-04T09:31:04.002Z</time></trkpt><trkpt lat="43.41838709792817" lon="10.851666522243004"><ele>358.75</ele><time>2026-04-04T09:31:05.002Z</time></trkpt><trkpt lat="43.418414287289494" lon="10.851835674755904"><ele>360.0</ele><time>2026-04-04T09:31:06.002Z</time></trkpt><trkpt lat="43.41847463441733" lon="10.851991632936432"><ele>361.6666666666667</ele><time>2026-04-04T09:31:07.002Z</time></trkpt><trkpt lat="43.41855065980448" lon="10.852150956916713"><ele>363.33333333333337</ele><time>2026-04-04T09:31:08.002Z</time></trkpt><trkpt lat="43.41860867193993" lon="10.852354495665372"><ele>365.0</ele><time>2026-04-04T09:31:09.002Z</time></trkpt><trkpt lat="43.41866982689612" lon="10.852551914885039"><ele>368.0</ele><time>2026-04-04T09:31:10.002Z</time></trkpt><trkpt lat="43.418720317649296" lon="10.852746058851249"><ele>371.0</ele><time>2026-04-04T09:31:11.002Z</time></trkpt><trkpt lat="43.41874283316425" lon="10.85293093153512"><ele>374.0</ele><time>2026-04-04T09:31:12.002Z</time></trkpt><trkpt lat="43.41877342885986" lon="10.853093279672795"><ele>377.0</ele><time>2026-04-04T09:31:13.002Z</time></trkpt><trkpt lat="43.41877638818476" lon="10.85325073464819"><ele>377.0</ele><time>2026-04-04T09:31:14.002Z</time></trkpt><trkpt lat="43.418769665817" lon="10.853399001691791"><ele>377.0</ele><time>2026-04-04T09:31:15.002Z</time></trkpt><trkpt lat="43.41873456703044" lon="10.853551975235407"><ele>377.0</ele><time>2026-04-04T09:31:16.002Z</time></trkpt><trkpt lat="43.418639876048324" lon="10.853719668106171"><ele>377.0</ele><time>2026-04-04T09:31:17.002Z</time></trkpt><trkpt lat="43.41856224465255" lon="10.853916331028172"><ele>377.0</ele><time>2026-04-04T09:31:18.002Z</time></trkpt><trkpt lat="43.41852607814115" lon="10.854144888814814"><ele>377.0</ele><time>2026-04-04T09:31:19.002Z</time></trkpt><trkpt lat="43.41849530609518" lon="10.854400249018694"><ele>377.0</ele><time>2026-04-04T09:31:20.002Z</time></trkpt><trkpt lat="43.41846949624579" lon="10.854665207378192"><ele>377.0</ele><time>2026-04-04T09:31:21.002Z</time></trkpt><trkpt lat="43.41846817958052" lon="10.854893075262055"><ele>377.0</ele><time>2026-04-04T09:31:22.002Z</time></trkpt><trkpt lat="43.418475403907195" lon="10.85514054957238"><ele>377.0</ele><time>2026-04-04T09:31:23.002Z</time></trkpt><trkpt lat="43.418482262736376" lon="10.855384771669334"><ele>375.0</ele><time>2026-04-04T09:31:24.002Z</time></trkpt><trkpt lat="43.418535424517245" lon="10.85556714410687"><ele>373.0</ele><time>2026-04-04T09:31:25.002Z</time></trkpt><trkpt lat="43.41851806317231" lon="10.855686631403955"><ele>371.0</ele><time>2026-04-04T09:31:26.002Z</time></trkpt><trkpt lat="43.418480201212915" lon="10.85583640512653"><ele>369.0</ele><time>2026-04-04T09:31:27.003Z</time></trkpt><trkpt lat="43.41837556978755" lon="10.855913300635338"><ele>369.0</ele><time>2026-04-04T09:31:28.003Z</time></trkpt><trkpt lat="43.418293474628015" lon="10.85591956462513"><ele>369.0</ele><time>2026-04-04T09:31:29.003Z</time></trkpt><trkpt lat="43.41813694703738" lon="10.855933571645481"><ele>369.0</ele><time>2026-04-04T09:31:30.003Z</time></trkpt><trkpt lat="43.418017215594794" lon="10.856084031253586"><ele>369.0</ele><time>2026-04-04T09:31:31.003Z</time></trkpt><trkpt lat="43.41790405391752" lon="10.856185843410627"><ele>369.0</ele><time>2026-04-04T09:31:32.003Z</time></trkpt><trkpt lat="43.417835402124624" lon="10.856385572033021"><ele>369.0</ele><time>2026-04-04T09:31:33.003Z</time></trkpt><trkpt lat="43.4178945351137" lon="10.856647030733933"><ele>369.0</ele><time>2026-04-04T09:31:34.003Z</time></trkpt><trkpt lat="43.41787712159816" lon="10.85679057993872"><ele>369.0</ele><time>2026-04-04T09:31:35.003Z</time></trkpt><trkpt lat="43.41779774006912" lon="10.856927889502883"><ele>369.0</ele><time>2026-04-04T09:31:37.003Z</time></trkpt><trkpt lat="43.417722709698175" lon="10.856994424051667"><ele>369.0</ele><time>2026-04-04T09:31:38.003Z</time></trkpt><trkpt lat="43.41764363934069" lon="10.85693968563055"><ele>369.0</ele><time>2026-04-04T09:31:39.003Z</time></trkpt><trkpt lat="43.417541741291316" lon="10.856870126054051"><ele>369.0</ele><time>2026-04-04T09:31:40.003Z</time></trkpt><trkpt lat="43.41745389569524" lon="10.856771897285602"><ele>369.0</ele><time>2026-04-04T09:31:41.003Z</time></trkpt><trkpt lat="43.41737046994942" lon="10.85659340509364"><ele>369.0</ele><time>2026-04-04T09:31:42.003Z</time></trkpt><trkpt lat="43.417334817438494" lon="10.856374723088463"><ele>369.0</ele><time>2026-04-04T09:31:43.003Z</time></trkpt><trkpt lat="43.41733275846963" lon="10.856182089652162"><ele>373.3333333333333</ele><time>2026-04-04T09:31:44.003Z</time></trkpt><trkpt lat="43.417323557898754" lon="10.855949689125111"><ele>377.66666666666663</ele><time>2026-04-04T09:31:44.999Z</time></trkpt><trkpt lat="43.417308111590444" lon="10.855688405865788"><ele>382.0</ele><time>2026-04-04T09:31:45.999Z</time></trkpt><trkpt lat="43.41728659083429" lon="10.855343724019624"><ele>384.66666666666663</ele><time>2026-04-04T09:31:46.999Z</time></trkpt><trkpt lat="43.417253997788464" lon="10.855064225992402"><ele>387.3333333333333</ele><time>2026-04-04T09:31:47.999Z</time></trkpt><trkpt lat="43.41719653036538" lon="10.85480420936224"><ele>390.0</ele><time>2026-04-04T09:31:48.999Z</time></trkpt><trkpt lat="43.41711387791103" lon="10.854560056571808"><ele>387.0</ele><time>2026-04-04T09:31:49.999Z</time></trkpt><trkpt lat="43.41704929414724" lon="10.85433338701494"><ele>384.0</ele><time>2026-04-04T09:31:50.999Z</time></trkpt><trkpt lat="43.41700509705053" lon="10.854137839520368"><ele>381.0</ele><time>2026-04-04T09:31:51.999Z</time></trkpt><trkpt lat="43.416974840613534" lon="10.853953193862012"><ele>381.0</ele><time>2026-04-04T09:31:52.999Z</time></trkpt><trkpt lat="43.416970872091966" lon="10.853779273857926"><ele>381.0</ele><time>2026-04-04T09:31:53.999Z</time></trkpt><trkpt lat="43.416977745904966" lon="10.853618310011983"><ele>381.0</ele><time>2026-04-04T09:31:54.999Z</time></trkpt><trkpt lat="43.41698144026021" lon="10.853450379903498"><ele>381.0</ele><time>2026-04-04T09:31:55.999Z</time></trkpt><trkpt lat="43.41695577792237" lon="10.853272902846344"><ele>388.33333333333337</ele><time>2026-04-04T09:31:56.999Z</time></trkpt><trkpt lat="43.41687750654286" lon="10.85312288505492"><ele>395.6666666666667</ele><time>2026-04-04T09:31:57.999Z</time></trkpt><trkpt lat="43.416749643079434" lon="10.853005627832381"><ele>403.0</ele><time>2026-04-04T09:31:58.999Z</time></trkpt><trkpt lat="43.41660178899476" lon="10.852914114276803"><ele>403.0</ele><time>2026-04-04T09:31:59.999Z</time></trkpt><trkpt lat="43.416470482021666" lon="10.852802268162376"><ele>403.0</ele><time>2026-04-04T09:32:01Z</time></trkpt><trkpt lat="43.416366765886025" lon="10.852667458339983"><ele>403.0</ele><time>2026-04-04T09:32:02Z</time></trkpt><trkpt lat="43.41627175609544" lon="10.852476786228912"><ele>403.0</ele><time>2026-04-04T09:32:03Z</time></trkpt><trkpt lat="43.4161648291996" lon="10.85229065798505"><ele>403.0</ele><time>2026-04-04T09:32:04Z</time></trkpt><trkpt lat="43.41605554335133" lon="10.852083764710143"><ele>403.0</ele><time>2026-04-04T09:32:05Z</time></trkpt><trkpt lat="43.41593519938863" lon="10.851880321301154"><ele>405.33333333333337</ele><time>2026-04-04T09:32:06Z</time></trkpt><trkpt lat="43.41578176735868" lon="10.851737436241693"><ele>407.66666666666663</ele><time>2026-04-04T09:32:07Z</time></trkpt><trkpt lat="43.41562620512138" lon="10.851603640850001"><ele>410.0</ele><time>2026-04-04T09:32:08Z</time></trkpt><trkpt lat="43.415484816230475" lon="10.851484245072138"><ele>410.0</ele><time>2026-04-04T09:32:09Z</time></trkpt><trkpt lat="43.4153544545011" lon="10.851361873647024"><ele>410.0</ele><time>2026-04-04T09:32:10Z</time></trkpt><trkpt lat="43.41523555962038" lon="10.851245515814988"><ele>410.0</ele><time>2026-04-04T09:32:11Z</time></trkpt><trkpt lat="43.4151172855046" lon="10.851126477519534"><ele>410.0</ele><time>2026-04-04T09:32:12Z</time></trkpt><trkpt lat="43.41498037458928" lon="10.851040275662058"><ele>410.0</ele><time>2026-04-04T09:32:13Z</time></trkpt><trkpt lat="43.41482268169946" lon="10.851012148788515"><ele>410.0</ele><time>2026-04-04T09:32:14Z</time></trkpt><trkpt lat="43.414655660493366" lon="10.851051738517471"><ele>417.66666666666663</ele><time>2026-04-04T09:32:15Z</time></trkpt><trkpt lat="43.414496383220644" lon="10.851140540481012"><ele>425.33333333333337</ele><time>2026-04-04T09:32:16Z</time></trkpt><trkpt lat="43.41436045023243" lon="10.851249734840824"><ele>433.0</ele><time>2026-04-04T09:32:17Z</time></trkpt><trkpt lat="43.414262986816425" lon="10.851428854024787"><ele>433.0</ele><time>2026-04-04T09:32:18Z</time></trkpt><trkpt lat="43.414201540706216" lon="10.851648153877155"><ele>433.0</ele><time>2026-04-04T09:32:19Z</time></trkpt><trkpt lat="43.41415557667172" lon="10.851877959187494"><ele>433.0</ele><time>2026-04-04T09:32:20Z</time></trkpt><trkpt lat="43.414107358199125" lon="10.852069039261712"><ele>432.1666666666667</ele><time>2026-04-04T09:32:21Z</time></trkpt><trkpt lat="43.414067347349324" lon="10.852211674588848"><ele>431.33333333333337</ele><time>2026-04-04T09:32:22Z</time></trkpt><trkpt lat="43.41403704491234" lon="10.852326253179239"><ele>430.5</ele><time>2026-04-04T09:32:23Z</time></trkpt><trkpt lat="43.41400757499388" lon="10.852414694516204"><ele>429.66666666666663</ele><time>2026-04-04T09:32:24Z</time></trkpt><trkpt lat="43.41397572866862" lon="10.852509349334849"><ele>428.8333333333333</ele><time>2026-04-04T09:32:25.001Z</time></trkpt><trkpt lat="43.41393479168502" lon="10.852607027055123"><ele>428.0</ele><time>2026-04-04T09:32:26.001Z</time></trkpt><trkpt lat="43.41387287061179" lon="10.852697076071374"><ele>427.59999999999997</ele><time>2026-04-04T09:32:27.001Z</time></trkpt><trkpt lat="43.41381144620583" lon="10.852805386034222"><ele>427.19999999999993</ele><time>2026-04-04T09:32:28.001Z</time></trkpt><trkpt lat="43.4137292029753" lon="10.852912401994027"><ele>426.8</ele><time>2026-04-04T09:32:29.001Z</time></trkpt><trkpt lat="43.41362477186681" lon="10.852991370666622"><ele>426.4</ele><time>2026-04-04T09:32:30.001Z</time></trkpt><trkpt lat="43.41351839521943" lon="10.853019982262326"><ele>426.0</ele><time>2026-04-04T09:32:31.001Z</time></trkpt><trkpt lat="43.41342550993981" lon="10.852981330791113"><ele>426.0</ele><time>2026-04-04T09:32:32.001Z</time></trkpt><trkpt lat="43.41334502477777" lon="10.852914646292943"><ele>426.0</ele><time>2026-04-04T09:32:33.001Z</time></trkpt><trkpt lat="43.41327927540673" lon="10.852792820338651"><ele>426.0</ele><time>2026-04-04T09:32:34.001Z</time></trkpt><trkpt lat="43.413192487449656" lon="10.85268310175639"><ele>426.0</ele><time>2026-04-04T09:32:35.001Z</time></trkpt><trkpt lat="43.41313699861362" lon="10.852537759885218"><ele>426.0</ele><time>2026-04-04T09:32:36.001Z</time></trkpt><trkpt lat="43.41305519150323" lon="10.85241891173886"><ele>426.0</ele><time>2026-04-04T09:32:37.001Z</time></trkpt><trkpt lat="43.41297428633523" lon="10.852309121332743"><ele>426.0</ele><time>2026-04-04T09:32:38.001Z</time></trkpt><trkpt lat="43.41289390088876" lon="10.852186176536204"><ele>426.0</ele><time>2026-04-04T09:32:39.001Z</time></trkpt><trkpt lat="43.412816736110194" lon="10.852060675538452"><ele>426.0</ele><time>2026-04-04T09:32:40.001Z</time></trkpt><trkpt lat="43.41273643124337" lon="10.851932089849706"><ele>426.0</ele><time>2026-04-04T09:32:41.001Z</time></trkpt><trkpt lat="43.41263058810465" lon="10.851838581040065"><ele>426.0</ele><time>2026-04-04T09:32:42.001Z</time></trkpt><trkpt lat="43.412505060805" lon="10.851778075987905"><ele>426.0</ele><time>2026-04-04T09:32:43.001Z</time></trkpt><trkpt lat="43.41239334990704" lon="10.851703520665117"><ele>426.0</ele><time>2026-04-04T09:32:44.001Z</time></trkpt><trkpt lat="43.412283469260466" lon="10.851651138018397"><ele>427.0</ele><time>2026-04-04T09:32:45.001Z</time></trkpt><trkpt lat="43.41218340949399" lon="10.851640468060605"><ele>428.0</ele><time>2026-04-04T09:32:46.001Z</time></trkpt><trkpt lat="43.41209070051893" lon="10.851683495648343"><ele>429.0</ele><time>2026-04-04T09:32:47.001Z</time></trkpt><trkpt lat="43.41200561765641" lon="10.851740594528419"><ele>430.0</ele><time>2026-04-04T09:32:48.001Z</time></trkpt><trkpt lat="43.41191568341502" lon="10.851770195032238"><ele>431.0</ele><time>2026-04-04T09:32:49.001Z</time></trkpt><trkpt lat="43.41182852144235" lon="10.851814382333407"><ele>431.0</ele><time>2026-04-04T09:32:50.001Z</time></trkpt><trkpt lat="43.411742213352746" lon="10.851861837092995"><ele>431.0</ele><time>2026-04-04T09:32:51.001Z</time></trkpt><trkpt lat="43.4116645144199" lon="10.851932463700141"><ele>431.0</ele><time>2026-04-04T09:32:52.001Z</time></trkpt><trkpt lat="43.41157615886973" lon="10.851983981014925"><ele>431.0</ele><time>2026-04-04T09:32:53.001Z</time></trkpt><trkpt lat="43.41147387278919" lon="10.852007092990615"><ele>431.0</ele><time>2026-04-04T09:32:54.001Z</time></trkpt><trkpt lat="43.4113693997426" lon="10.852036118833581"><ele>433.0</ele><time>2026-04-04T09:32:55.002Z</time></trkpt><trkpt lat="43.41124948823344" lon="10.852042691432237"><ele>435.0</ele><time>2026-04-04T09:32:56.002Z</time></trkpt><trkpt lat="43.411113570398314" lon="10.85204315612074"><ele>437.0</ele><time>2026-04-04T09:32:57.002Z</time></trkpt><trkpt lat="43.41097492774879" lon="10.852040661664054"><ele>439.0</ele><time>2026-04-04T09:32:58.002Z</time></trkpt><trkpt lat="43.41083317778707" lon="10.852038111299999"><ele>439.0</ele><time>2026-04-04T09:32:59.002Z</time></trkpt><trkpt lat="43.41068149694445" lon="10.852035382254568"><ele>439.0</ele><time>2026-04-04T09:33:00.002Z</time></trkpt><trkpt lat="43.41051020056539" lon="10.852066941237906"><ele>439.0</ele><time>2026-04-04T09:33:01.002Z</time></trkpt><trkpt lat="43.41033545911336" lon="10.85206250046155"><ele>440.6666666666667</ele><time>2026-04-04T09:33:02.002Z</time></trkpt><trkpt lat="43.410163458589" lon="10.852059739250604"><ele>442.33333333333337</ele><time>2026-04-04T09:33:03.002Z</time></trkpt><trkpt lat="43.41000587790297" lon="10.8520744247261"><ele>444.0</ele><time>2026-04-04T09:33:04.002Z</time></trkpt><trkpt lat="43.409864224556635" lon="10.852100428091463"><ele>444.0</ele><time>2026-04-04T09:33:05.002Z</time></trkpt><trkpt lat="43.40973451291711" lon="10.85213259190327"><ele>444.0</ele><time>2026-04-04T09:33:06.002Z</time></trkpt><trkpt lat="43.409609759396524" lon="10.852140828909755"><ele>444.0</ele><time>2026-04-04T09:33:07.002Z</time></trkpt><trkpt lat="43.409490944819105" lon="10.852168766048697"><ele>444.0</ele><time>2026-04-04T09:33:08.002Z</time></trkpt><trkpt lat="43.409385099705766" lon="10.852194261820149"><ele>446.1666666666667</ele><time>2026-04-04T09:33:09.002Z</time></trkpt><trkpt lat="43.409294331306086" lon="10.852216125924771"><ele>448.33333333333337</ele><time>2026-04-04T09:33:10.002Z</time></trkpt><trkpt lat="43.40921644895269" lon="10.852254490510022"><ele>450.5</ele><time>2026-04-04T09:33:11.002Z</time></trkpt><trkpt lat="43.409138686037814" lon="10.852269693057195"><ele>452.6666666666667</ele><time>2026-04-04T09:33:12.002Z</time></trkpt><trkpt lat="43.40906654058869" lon="10.852297317301979"><ele>454.83333333333337</ele><time>2026-04-04T09:33:13.002Z</time></trkpt><trkpt lat="43.408993074341865" lon="10.852302165793958"><ele>457.0</ele><time>2026-04-04T09:33:14.002Z</time></trkpt><trkpt lat="43.408921305977046" lon="10.852333897900794"><ele>457.00000000000006</ele><time>2026-04-04T09:33:15.002Z</time></trkpt><trkpt lat="43.408857091207054" lon="10.852390181814785"><ele>457.0</ele><time>2026-04-04T09:33:16.002Z</time></trkpt><trkpt lat="43.408794984514905" lon="10.852426138331733"><ele>457.0</ele><time>2026-04-04T09:33:17.002Z</time></trkpt><trkpt lat="43.408700840168294" lon="10.852488074700213"><ele>457.0</ele><time>2026-04-04T09:33:19.002Z</time></trkpt><trkpt lat="43.40864652639705" lon="10.852552286646322"><ele>457.00000000000006</ele><time>2026-04-04T09:33:21.002Z</time></trkpt><trkpt lat="43.408603688504556" lon="10.852627703725581"><ele>457.0</ele><time>2026-04-04T09:33:24.002Z</time></trkpt><trkpt lat="43.40853809248216" lon="10.852664003485671"><ele>460.20000000000005</ele><time>2026-04-04T09:33:26.002Z</time></trkpt><trkpt lat="43.408467444566234" lon="10.852768556138475"><ele>463.40000000000003</ele><time>2026-04-04T09:33:28.003Z</time></trkpt><trkpt lat="43.40844178840308" lon="10.852900036662266"><ele>466.59999999999997</ele><time>2026-04-04T09:33:30.003Z</time></trkpt><trkpt lat="43.40841628118168" lon="10.852997731230998"><ele>469.79999999999995</ele><time>2026-04-04T09:33:32.003Z</time></trkpt><trkpt lat="43.40836060561093" lon="10.853128543112577"><ele>473.0</ele><time>2026-04-04T09:33:34.003Z</time></trkpt><trkpt lat="43.40832834019178" lon="10.853203435416892"><ele>473.0</ele><time>2026-04-04T09:33:35.003Z</time></trkpt><trkpt lat="43.40828831680938" lon="10.853274473592313"><ele>473.0</ele><time>2026-04-04T09:33:36.003Z</time></trkpt><trkpt lat="43.4082378204011" lon="10.853344337934777"><ele>473.0</ele><time>2026-04-04T09:33:37.003Z</time></trkpt><trkpt lat="43.40818305373786" lon="10.85340360472911"><ele>473.0</ele><time>2026-04-04T09:33:38.003Z</time></trkpt><trkpt lat="43.40812632886223" lon="10.853453734781718"><ele>473.0</ele><time>2026-04-04T09:33:39.003Z</time></trkpt><trkpt lat="43.40806235741556" lon="10.853501770835933"><ele>473.0</ele><time>2026-04-04T09:33:40.003Z</time></trkpt><trkpt lat="43.407994370770126" lon="10.853539764494132"><ele>473.0</ele><time>2026-04-04T09:33:41.003Z</time></trkpt><trkpt lat="43.40792754745451" lon="10.853571544608931"><ele>474.2</ele><time>2026-04-04T09:33:42.003Z</time></trkpt><trkpt lat="43.407865673054225" lon="10.853597287920183"><ele>475.4</ele><time>2026-04-04T09:33:43.003Z</time></trkpt><trkpt lat="43.407740246663174" lon="10.853643062017436"><ele>476.59999999999997</ele><time>2026-04-04T09:33:45.003Z</time></trkpt><trkpt lat="43.407676501736276" lon="10.853662880908246"><ele>477.79999999999995</ele><time>2026-04-04T09:33:46.003Z</time></trkpt><trkpt lat="43.40761422040859" lon="10.853680761812683"><ele>479.0</ele><time>2026-04-04T09:33:47.003Z</time></trkpt><trkpt lat="43.407487568786" lon="10.853720210675716"><ele>479.0</ele><time>2026-04-04T09:33:49.003Z</time></trkpt><trkpt lat="43.40742303018833" lon="10.853736936145134"><ele>479.0</ele><time>2026-04-04T09:33:50.003Z</time></trkpt><trkpt lat="43.40735657304349" lon="10.853757995719075"><ele>479.0</ele><time>2026-04-04T09:33:50.999Z</time></trkpt><trkpt lat="43.407288979248285" lon="10.853773197209307"><ele>479.0</ele><time>2026-04-04T09:33:51.999Z</time></trkpt><trkpt lat="43.407223334228846" lon="10.853799285353332"><ele>479.0</ele><time>2026-04-04T09:33:52.999Z</time></trkpt><trkpt lat="43.40714971793104" lon="10.853825727376826"><ele>479.0</ele><time>2026-04-04T09:33:53.999Z</time></trkpt><trkpt lat="43.40708386056388" lon="10.853849143518836"><ele>479.0</ele><time>2026-04-04T09:33:54.999Z</time></trkpt><trkpt lat="43.40701618135535" lon="10.853871310447191"><ele>479.71428571428567</ele><time>2026-04-04T09:33:55.999Z</time></trkpt><trkpt lat="43.40694741715585" lon="10.853894554348834"><ele>480.42857142857144</ele><time>2026-04-04T09:33:56.999Z</time></trkpt><trkpt lat="43.406877655669604" lon="10.85391580031894"><ele>481.1428571428571</ele><time>2026-04-04T09:33:57.999Z</time></trkpt><trkpt lat="43.406807412904534" lon="10.853937643805331"><ele>481.85714285714283</ele><time>2026-04-04T09:33:58.999Z</time></trkpt><trkpt lat="43.40673554206326" lon="10.853958866624522"><ele>482.57142857142856</ele><time>2026-04-04T09:33:59.999Z</time></trkpt><trkpt lat="43.40666285769731" lon="10.853981271837977"><ele>483.2857142857143</ele><time>2026-04-04T09:34:00.999Z</time></trkpt><trkpt lat="43.40659041479641" lon="10.854012200862808"><ele>484.0</ele><time>2026-04-04T09:34:01.999Z</time></trkpt><trkpt lat="43.406523159085076" lon="10.854050684355379"><ele>484.00000000000006</ele><time>2026-04-04T09:34:02.999Z</time></trkpt><trkpt lat="43.406461005719" lon="10.854096930076661"><ele>484.0</ele><time>2026-04-04T09:34:03.999Z</time></trkpt><trkpt lat="43.40635656508518" lon="10.854141441812734"><ele>484.0</ele><time>2026-04-04T09:34:05.999Z</time></trkpt><trkpt lat="43.40627829150632" lon="10.854223958942956"><ele>484.0</ele><time>2026-04-04T09:34:08Z</time></trkpt><trkpt lat="43.406196518641316" lon="10.854279446695013"><ele>484.00000000000006</ele><time>2026-04-04T09:34:10Z</time></trkpt><trkpt lat="43.406139697225214" lon="10.854331624908557"><ele>484.0</ele><time>2026-04-04T09:34:12Z</time></trkpt><trkpt lat="43.40607086198289" lon="10.854398790848574"><ele>485.6666666666667</ele><time>2026-04-04T09:34:14Z</time></trkpt><trkpt lat="43.40600927808351" lon="10.854459218790767"><ele>487.33333333333337</ele><time>2026-04-04T09:34:16Z</time></trkpt><trkpt lat="43.4059506846304" lon="10.85453393775455"><ele>489.0</ele><time>2026-04-04T09:34:19Z</time></trkpt><trkpt lat="43.40587321523612" lon="10.854604994551531"><ele>490.66666666666663</ele><time>2026-04-04T09:34:22Z</time></trkpt><trkpt lat="43.405812096795145" lon="10.854667834744369"><ele>492.3333333333333</ele><time>2026-04-04T09:34:24Z</time></trkpt><trkpt lat="43.405743684356906" lon="10.854734104292552"><ele>494.0</ele><time>2026-04-04T09:34:26Z</time></trkpt><trkpt lat="43.4056651093985" lon="10.854804615299374"><ele>493.99999999999994</ele><time>2026-04-04T09:34:28.001Z</time></trkpt><trkpt lat="43.40559151177184" lon="10.854878033346267"><ele>494.0</ele><time>2026-04-04T09:34:30.001Z</time></trkpt><trkpt lat="43.405497538344" lon="10.854967918422284"><ele>494.0</ele><time>2026-04-04T09:34:32.001Z</time></trkpt><trkpt lat="43.40542398979914" lon="10.855027460723207"><ele>494.0</ele><time>2026-04-04T09:34:34.001Z</time></trkpt><trkpt lat="43.40534448565887" lon="10.855070306974033"><ele>493.99999999999994</ele><time>2026-04-04T09:34:36.001Z</time></trkpt><trkpt lat="43.4052749373531" lon="10.855061076078067"><ele>494.0</ele><time>2026-04-04T09:34:38.001Z</time></trkpt><trkpt lat="43.40519107041667" lon="10.855046798791538"><ele>496.6</ele><time>2026-04-04T09:34:41.001Z</time></trkpt><trkpt lat="43.40512683727152" lon="10.855049155828251"><ele>499.2</ele><time>2026-04-04T09:34:43.001Z</time></trkpt><trkpt lat="43.40505777068867" lon="10.85505679287176"><ele>501.80000000000007</ele><time>2026-04-04T09:34:45.001Z</time></trkpt><trkpt lat="43.4049860732595" lon="10.855062668938293"><ele>504.40000000000003</ele><time>2026-04-04T09:34:48.001Z</time></trkpt><trkpt lat="43.40502127436273" lon="10.85527252229076"><ele>507.0</ele><time>2026-04-04T09:34:50.001Z</time></trkpt><trkpt lat="43.4050434075463" lon="10.855431364369402"><ele>507.1666666666667</ele><time>2026-04-04T09:34:52.001Z</time></trkpt><trkpt lat="43.40505646863361" lon="10.855518209437598"><ele>507.33333333333337</ele><time>2026-04-04T09:34:53.001Z</time></trkpt><trkpt lat="43.40508092337234" lon="10.855611107210958"><ele>507.5</ele><time>2026-04-04T09:34:54.001Z</time></trkpt><trkpt lat="43.40509852018404" lon="10.855717675489691"><ele>507.6666666666667</ele><time>2026-04-04T09:34:55.001Z</time></trkpt><trkpt lat="43.405107375048644" lon="10.855825687647627"><ele>507.83333333333337</ele><time>2026-04-04T09:34:56.002Z</time></trkpt><trkpt lat="43.40510458561803" lon="10.855938565341752"><ele>508.0</ele><time>2026-04-04T09:34:57.002Z</time></trkpt><trkpt lat="43.405081544023524" lon="10.856050239712024"><ele>507.1666666666667</ele><time>2026-04-04T09:34:58.002Z</time></trkpt><trkpt lat="43.405030895158376" lon="10.856144354670416"><ele>506.33333333333337</ele><time>2026-04-04T09:34:59.002Z</time></trkpt><trkpt lat="43.40497791442308" lon="10.856229762580226"><ele>505.5</ele><time>2026-04-04T09:35:00.002Z</time></trkpt><trkpt lat="43.40491878563548" lon="10.85631528872056"><ele>504.66666666666663</ele><time>2026-04-04T09:35:01.002Z</time></trkpt><trkpt lat="43.40485674450548" lon="10.856408373806572"><ele>503.8333333333333</ele><time>2026-04-04T09:35:02.002Z</time></trkpt><trkpt lat="43.40479487488829" lon="10.856504235137017"><ele>503.0</ele><time>2026-04-04T09:35:03.002Z</time></trkpt><trkpt lat="43.40473505867003" lon="10.856606014979507"><ele>503.0</ele><time>2026-04-04T09:35:04.002Z</time></trkpt><trkpt lat="43.40466338138085" lon="10.856702305643573"><ele>502.99999999999994</ele><time>2026-04-04T09:35:05.002Z</time></trkpt><trkpt lat="43.40459776783549" lon="10.856803878720946"><ele>502.99999999999994</ele><time>2026-04-04T09:35:06.002Z</time></trkpt><trkpt lat="43.404536210082064" lon="10.856914717716558"><ele>503.0</ele><time>2026-04-04T09:35:07.002Z</time></trkpt><trkpt lat="43.404473262811734" lon="10.857024454479212"><ele>503.0</ele><time>2026-04-04T09:35:08.002Z</time></trkpt><trkpt lat="43.404401159127616" lon="10.857133156956934"><ele>503.0</ele><time>2026-04-04T09:35:09.002Z</time></trkpt><trkpt lat="43.40435303712444" lon="10.85727288354652"><ele>502.99999999999994</ele><time>2026-04-04T09:35:10.002Z</time></trkpt><trkpt lat="43.40431908169849" lon="10.857404468018641"><ele>502.99999999999994</ele><time>2026-04-04T09:35:11.002Z</time></trkpt><trkpt lat="43.404287248318106" lon="10.8575310368413"><ele>503.0</ele><time>2026-04-04T09:35:12.002Z</time></trkpt><trkpt lat="43.404259113005764" lon="10.857641390251889"><ele>503.0</ele><time>2026-04-04T09:35:13.002Z</time></trkpt><trkpt lat="43.40423489407828" lon="10.85774614367447"><ele>502.99999999999994</ele><time>2026-04-04T09:35:14.002Z</time></trkpt><trkpt lat="43.404203113087796" lon="10.857848673040616"><ele>503.0</ele><time>2026-04-04T09:35:15.002Z</time></trkpt><trkpt lat="43.404170628790645" lon="10.857954435788157"><ele>503.0</ele><time>2026-04-04T09:35:16.002Z</time></trkpt><trkpt lat="43.40415006587971" lon="10.85806015320792"><ele>503.0</ele><time>2026-04-04T09:35:17.002Z</time></trkpt><trkpt lat="43.404146497118674" lon="10.858172895721616"><ele>502.99999999999994</ele><time>2026-04-04T09:35:18.002Z</time></trkpt><trkpt lat="43.404148037465916" lon="10.858290495569719"><ele>503.0</ele><time>2026-04-04T09:35:19.002Z</time></trkpt><trkpt lat="43.4041434834368" lon="10.858408672703948"><ele>502.49999999999994</ele><time>2026-04-04T09:35:20.002Z</time></trkpt><trkpt lat="43.40416505943943" lon="10.858535698375352"><ele>502.0</ele><time>2026-04-04T09:35:21.002Z</time></trkpt><trkpt lat="43.40417603260586" lon="10.858650284904975"><ele>501.5</ele><time>2026-04-04T09:35:22.002Z</time></trkpt><trkpt lat="43.40417075276855" lon="10.858766952996001"><ele>501.0</ele><time>2026-04-04T09:35:23.002Z</time></trkpt><trkpt lat="43.40417470008354" lon="10.858885167910062"><ele>500.49999999999994</ele><time>2026-04-04T09:35:24.002Z</time></trkpt><trkpt lat="43.404178264122145" lon="10.859005772396076"><ele>500.0</ele><time>2026-04-04T09:35:25.002Z</time></trkpt><trkpt lat="43.40417888054183" lon="10.859124843226196"><ele>499.99999999999994</ele><time>2026-04-04T09:35:26.002Z</time></trkpt><trkpt lat="43.40417769450176" lon="10.859243900477509"><ele>500.0</ele><time>2026-04-04T09:35:27.002Z</time></trkpt><trkpt lat="43.404178369301874" lon="10.859363770183288"><ele>500.0</ele><time>2026-04-04T09:35:28.002Z</time></trkpt><trkpt lat="43.40417369233581" lon="10.859484044882226"><ele>500.0</ele><time>2026-04-04T09:35:29.003Z</time></trkpt><trkpt lat="43.40416555746311" lon="10.859602704602707"><ele>499.99999999999994</ele><time>2026-04-04T09:35:30.003Z</time></trkpt><trkpt lat="43.40415515332952" lon="10.859720259231743"><ele>500.0</ele><time>2026-04-04T09:35:31.003Z</time></trkpt><trkpt lat="43.40413677219533" lon="10.859833510068563"><ele>500.16666666666663</ele><time>2026-04-04T09:35:32.003Z</time></trkpt><trkpt lat="43.40412425674066" lon="10.859941561278568"><ele>500.3333333333333</ele><time>2026-04-04T09:35:33.003Z</time></trkpt><trkpt lat="43.404119067795335" lon="10.860050553799686"><ele>500.5</ele><time>2026-04-04T09:35:34.003Z</time></trkpt><trkpt lat="43.4041132821921" lon="10.860158251724707"><ele>500.66666666666663</ele><time>2026-04-04T09:35:35.003Z</time></trkpt><trkpt lat="43.40411384146898" lon="10.860263199454629"><ele>500.8333333333333</ele><time>2026-04-04T09:35:36.003Z</time></trkpt><trkpt lat="43.40411642220583" lon="10.86036848481511"><ele>501.0</ele><time>2026-04-04T09:35:37.003Z</time></trkpt><trkpt lat="43.40411634121242" lon="10.860473240120282"><ele>502.5</ele><time>2026-04-04T09:35:38.003Z</time></trkpt><trkpt lat="43.40410896967518" lon="10.860575007698966"><ele>504.0</ele><time>2026-04-04T09:35:39.003Z</time></trkpt><trkpt lat="43.40410035382634" lon="10.860721043321602"><ele>505.5</ele><time>2026-04-04T09:35:41.003Z</time></trkpt><trkpt lat="43.40409619091613" lon="10.860820177377631"><ele>507.0</ele><time>2026-04-04T09:35:43.003Z</time></trkpt><trkpt lat="43.40410733444716" lon="10.860919412876557"><ele>508.5</ele><time>2026-04-04T09:35:45.003Z</time></trkpt><trkpt lat="43.404105237414186" lon="10.861040998091774"><ele>510.0</ele><time>2026-04-04T09:35:47.003Z</time></trkpt><trkpt lat="43.40411793288917" lon="10.861146413416053"><ele>511.0</ele><time>2026-04-04T09:35:49.003Z</time></trkpt><trkpt lat="43.40411821461632" lon="10.861241434319354"><ele>512.0</ele><time>2026-04-04T09:35:51.003Z</time></trkpt><trkpt lat="43.404261840918984" lon="10.861245327250439"><ele>513.0</ele><time>2026-04-04T09:35:55.003Z</time></trkpt><trkpt lat="43.40432360407862" lon="10.861191327081427"><ele>514.0</ele><time>2026-04-04T09:35:56.003Z</time></trkpt><trkpt lat="43.40438764233522" lon="10.86115352948125"><ele>515.0</ele><time>2026-04-04T09:35:56.999Z</time></trkpt><trkpt lat="43.404499704625394" lon="10.861094571319198"><ele>515.0</ele><time>2026-04-04T09:35:58.999Z</time></trkpt><trkpt lat="43.404589762701235" lon="10.861016603414235"><ele>515.0</ele><time>2026-04-04T09:36:00.999Z</time></trkpt><trkpt lat="43.4046998324093" lon="10.860984174465033"><ele>515.0</ele><time>2026-04-04T09:36:02.999Z</time></trkpt><trkpt lat="43.40480520507034" lon="10.860925247710162"><ele>515.0</ele><time>2026-04-04T09:36:04.999Z</time></trkpt><trkpt lat="43.40490283993278" lon="10.860837490321947"><ele>515.0</ele><time>2026-04-04T09:36:06.999Z</time></trkpt><trkpt lat="43.40501954516056" lon="10.860750451776124"><ele>512.8333333333333</ele><time>2026-04-04T09:36:08.999Z</time></trkpt><trkpt lat="43.40508642451692" lon="10.860714222547825"><ele>510.66666666666663</ele><time>2026-04-04T09:36:09.999Z</time></trkpt><trkpt lat="43.405145315359896" lon="10.860677817045769"><ele>508.5</ele><time>2026-04-04T09:36:10.999Z</time></trkpt><trkpt lat="43.40521095322374" lon="10.860620510647076"><ele>506.33333333333337</ele><time>2026-04-04T09:36:11.999Z</time></trkpt><trkpt lat="43.40527468612386" lon="10.860605043996012"><ele>504.1666666666667</ele><time>2026-04-04T09:36:12.999Z</time></trkpt><trkpt lat="43.40537554014602" lon="10.860574845892373"><ele>502.0</ele><time>2026-04-04T09:36:15Z</time></trkpt><trkpt lat="43.405480137730244" lon="10.860508039329027"><ele>502.0</ele><time>2026-04-04T09:36:17Z</time></trkpt><trkpt lat="43.40540457277695" lon="10.860152638159507"><ele>502.0</ele><time>2026-04-04T09:36:19Z</time></trkpt><trkpt lat="43.40538624220416" lon="10.860040927511006"><ele>502.0</ele><time>2026-04-04T09:36:20Z</time></trkpt><trkpt lat="43.40536155700287" lon="10.859933862852694"><ele>502.0</ele><time>2026-04-04T09:36:21Z</time></trkpt><trkpt lat="43.40534667825498" lon="10.859809972499596"><ele>494.0</ele><time>2026-04-04T09:36:22Z</time></trkpt><trkpt lat="43.405806123461836" lon="10.860802286000995"><ele>493.99999999999994</ele><time>2026-04-04T09:36:23Z</time></trkpt><trkpt lat="43.405878774424714" lon="10.860913980494217"><ele>494.0</ele><time>2026-04-04T09:36:25Z</time></trkpt><trkpt lat="43.40594036710579" lon="10.860963111682768"><ele>494.0</ele><time>2026-04-04T09:36:26Z</time></trkpt><trkpt lat="43.406004476457305" lon="10.860988701903407"><ele>494.0</ele><time>2026-04-04T09:36:27Z</time></trkpt><trkpt lat="43.406057374393065" lon="10.86106105433728"><ele>493.99999999999994</ele><time>2026-04-04T09:36:28Z</time></trkpt><trkpt lat="43.40612506797068" lon="10.861074990808543"><ele>494.0</ele><time>2026-04-04T09:36:29Z</time></trkpt><trkpt lat="43.4061945700732" lon="10.860975847121699"><ele>494.0</ele><time>2026-04-04T09:36:30Z</time></trkpt><trkpt lat="43.40625866409531" lon="10.860951999749686"><ele>494.0</ele><time>2026-04-04T09:36:31Z</time></trkpt><trkpt lat="43.406325851583105" lon="10.860921284907791"><ele>494.0</ele><time>2026-04-04T09:36:32Z</time></trkpt><trkpt lat="43.40638462879006" lon="10.860858596967816"><ele>494.0</ele><time>2026-04-04T09:36:33Z</time></trkpt><trkpt lat="43.406441794912496" lon="10.860776940092439"><ele>494.0</ele><time>2026-04-04T09:36:34.001Z</time></trkpt><trkpt lat="43.40648650020423" lon="10.8606852937247"><ele>494.0</ele><time>2026-04-04T09:36:35.001Z</time></trkpt><trkpt lat="43.40653413879411" lon="10.860611949435174"><ele>494.0</ele><time>2026-04-04T09:36:36.001Z</time></trkpt><trkpt lat="43.406617275354954" lon="10.860493683963986"><ele>492.8571428571429</ele><time>2026-04-04T09:36:38.001Z</time></trkpt><trkpt lat="43.40665301253414" lon="10.860417846958985"><ele>491.71428571428567</ele><time>2026-04-04T09:36:39.001Z</time></trkpt><trkpt lat="43.40670233013639" lon="10.860333271823976"><ele>490.57142857142856</ele><time>2026-04-04T09:36:40.001Z</time></trkpt><trkpt lat="43.40675879833537" lon="10.86026253468673"><ele>489.42857142857144</ele><time>2026-04-04T09:36:41.001Z</time></trkpt><trkpt lat="43.40680216906424" lon="10.860185001443563"><ele>488.28571428571433</ele><time>2026-04-04T09:36:42.001Z</time></trkpt><trkpt lat="43.406849072741124" lon="10.860104233713841"><ele>487.1428571428571</ele><time>2026-04-04T09:36:43.001Z</time></trkpt><trkpt lat="43.40689076206709" lon="10.860019451972308"><ele>486.0</ele><time>2026-04-04T09:36:44.001Z</time></trkpt><trkpt lat="43.40694275519678" lon="10.859944287899234"><ele>486.0</ele><time>2026-04-04T09:36:45.001Z</time></trkpt><trkpt lat="43.4069788093352" lon="10.85985280860353"><ele>486.0</ele><time>2026-04-04T09:36:46.001Z</time></trkpt><trkpt lat="43.40702080454733" lon="10.859785937011642"><ele>486.0</ele><time>2026-04-04T09:36:47.001Z</time></trkpt><trkpt lat="43.40707611117716" lon="10.859742281659443"><ele>486.0</ele><time>2026-04-04T09:36:48.001Z</time></trkpt><trkpt lat="43.40718481240367" lon="10.85968692325928"><ele>486.0</ele><time>2026-04-04T09:36:50.001Z</time></trkpt><trkpt lat="43.40730214108639" lon="10.859691406997795"><ele>486.0</ele><time>2026-04-04T09:36:52.001Z</time></trkpt><trkpt lat="43.4074041161429" lon="10.859777732176523"><ele>484.57142857142856</ele><time>2026-04-04T09:36:54.001Z</time></trkpt><trkpt lat="43.40744200715664" lon="10.859868451737114"><ele>483.14285714285717</ele><time>2026-04-04T09:36:55.001Z</time></trkpt><trkpt lat="43.40748490878834" lon="10.859955866420993"><ele>481.7142857142857</ele><time>2026-04-04T09:36:56.001Z</time></trkpt><trkpt lat="43.40749317693802" lon="10.860053189552014"><ele>480.2857142857143</ele><time>2026-04-04T09:36:57.001Z</time></trkpt><trkpt lat="43.40750104913955" lon="10.860149347426821"><ele>478.8571428571429</ele><time>2026-04-04T09:36:58.001Z</time></trkpt><trkpt lat="43.40748382723142" lon="10.860243884559866"><ele>477.42857142857144</ele><time>2026-04-04T09:36:59.001Z</time></trkpt><trkpt lat="43.407449652011266" lon="10.860333851315355"><ele>476.0</ele><time>2026-04-04T09:37:00.001Z</time></trkpt><trkpt lat="43.407392658307316" lon="10.860474302685917"><ele>475.8333333333333</ele><time>2026-04-04T09:37:01.001Z</time></trkpt><trkpt lat="43.40734034557114" lon="10.860605358745849"><ele>475.66666666666663</ele><time>2026-04-04T09:37:02.002Z</time></trkpt><trkpt lat="43.407311158478954" lon="10.860721901818975"><ele>475.5</ele><time>2026-04-04T09:37:03.002Z</time></trkpt><trkpt lat="43.407252785051455" lon="10.860796997042401"><ele>475.33333333333337</ele><time>2026-04-04T09:37:04.002Z</time></trkpt><trkpt lat="43.40721281965869" lon="10.860884056050232"><ele>475.1666666666667</ele><time>2026-04-04T09:37:05.002Z</time></trkpt><trkpt lat="43.40718169070243" lon="10.860974373345952"><ele>475.0</ele><time>2026-04-04T09:37:06.002Z</time></trkpt><trkpt lat="43.40714983289208" lon="10.861114442570514"><ele>473.00000000000006</ele><time>2026-04-04T09:37:08.002Z</time></trkpt><trkpt lat="43.40722247719233" lon="10.861206991311446"><ele>471.0</ele><time>2026-04-04T09:37:10.002Z</time></trkpt><trkpt lat="43.40729579890786" lon="10.861228232848594"><ele>469.0</ele><time>2026-04-04T09:37:11.002Z</time></trkpt><trkpt lat="43.40735551044604" lon="10.861261742498094"><ele>467.0</ele><time>2026-04-04T09:37:12.002Z</time></trkpt><trkpt lat="43.4074275124951" lon="10.861345983938273"><ele>465.00000000000006</ele><time>2026-04-04T09:37:15.002Z</time></trkpt><trkpt lat="43.4074869835796" lon="10.861393869345179"><ele>463.0</ele><time>2026-04-04T09:37:19.002Z</time></trkpt><trkpt lat="43.4075553149357" lon="10.861420657371319"><ele>463.00000000000006</ele><time>2026-04-04T09:37:52.003Z</time></trkpt><trkpt lat="43.40756117619651" lon="10.861538347687851"><ele>463.0</ele><time>2026-04-04T09:37:57.003Z</time></trkpt><trkpt lat="43.40761953994886" lon="10.861461986720936"><ele>463.0</ele><time>2026-04-04T09:38:19Z</time></trkpt><trkpt lat="43.407572561956705" lon="10.8615635069224"><ele>463.0</ele><time>2026-04-04T09:42:13.002Z</time></trkpt><trkpt lat="43.40761100817969" lon="10.861455938557052"><ele>463.00000000000006</ele><time>2026-04-04T09:42:17.001Z</time></trkpt><trkpt lat="43.40756934400591" lon="10.861566505844712"><ele>463.0</ele><time>2026-04-04T09:42:19.001Z</time></trkpt><trkpt lat="43.40761100820578" lon="10.861455938487829"><ele>463.00000000000006</ele><time>2026-04-04T09:42:23.001Z</time></trkpt><trkpt lat="43.40757460860606" lon="10.861567322855924"><ele>463.0</ele><time>2026-04-04T09:42:31Z</time></trkpt><trkpt lat="43.40763696242264" lon="10.861538989585632"><ele>463.0</ele><time>2026-04-04T09:42:34Z</time></trkpt><trkpt lat="43.40770445412743" lon="10.861494451042416"><ele>463.0</ele><time>2026-04-04T09:42:38Z</time></trkpt><trkpt lat="43.40779631881581" lon="10.861540177939558"><ele>463.00000000000006</ele><time>2026-04-04T09:42:40Z</time></trkpt><trkpt lat="43.40784802493348" lon="10.861612760001327"><ele>463.0</ele><time>2026-04-04T09:42:41Z</time></trkpt><trkpt lat="43.4079042785745" lon="10.861668539263714"><ele>463.0</ele><time>2026-04-04T09:42:42Z</time></trkpt><trkpt lat="43.40797691982721" lon="10.861734503163008"><ele>462.99999999999994</ele><time>2026-04-04T09:42:43.001Z</time></trkpt><trkpt lat="43.40806442898776" lon="10.861786682516707"><ele>462.99999999999994</ele><time>2026-04-04T09:42:44.001Z</time></trkpt><trkpt lat="43.40814674594684" lon="10.86185958503393"><ele>463.0</ele><time>2026-04-04T09:42:45.001Z</time></trkpt><trkpt lat="43.40823013482733" lon="10.861940712758166"><ele>463.0</ele><time>2026-04-04T09:42:46.001Z</time></trkpt><trkpt lat="43.40831355028256" lon="10.862016330598733"><ele>461.79999999999995</ele><time>2026-04-04T09:42:47.001Z</time></trkpt><trkpt lat="43.40840975415877" lon="10.862051758691763"><ele>460.59999999999997</ele><time>2026-04-04T09:42:48.001Z</time></trkpt><trkpt lat="43.408490454225536" lon="10.862118609651464"><ele>459.40000000000003</ele><time>2026-04-04T09:42:49.001Z</time></trkpt><trkpt lat="43.40857055824891" lon="10.862191008917671"><ele>458.20000000000005</ele><time>2026-04-04T09:42:50.001Z</time></trkpt><trkpt lat="43.40865335138591" lon="10.862240131027304"><ele>457.0</ele><time>2026-04-04T09:42:51.001Z</time></trkpt><trkpt lat="43.40872791369949" lon="10.862299910234444"><ele>457.0</ele><time>2026-04-04T09:42:52.001Z</time></trkpt><trkpt lat="43.40879421646116" lon="10.862381868621622"><ele>457.0</ele><time>2026-04-04T09:42:53.001Z</time></trkpt><trkpt lat="43.40894674406076" lon="10.862347533277571"><ele>457.0</ele><time>2026-04-04T09:42:54.001Z</time></trkpt><trkpt lat="43.40902549987301" lon="10.862459728685417"><ele>457.0</ele><time>2026-04-04T09:42:55.001Z</time></trkpt><trkpt lat="43.40909768150366" lon="10.862558833638928"><ele>457.5</ele><time>2026-04-04T09:42:56.001Z</time></trkpt><trkpt lat="43.40887011553485" lon="10.863073744550238"><ele>458.0</ele><time>2026-04-04T09:42:57.001Z</time></trkpt><trkpt lat="43.408954127673525" lon="10.863177588518921"><ele>457.99999999999994</ele><time>2026-04-04T09:42:58.001Z</time></trkpt><trkpt lat="43.40900977580622" lon="10.863238237718294"><ele>458.0</ele><time>2026-04-04T09:42:59.001Z</time></trkpt><trkpt lat="43.40906780673975" lon="10.863301484985382"><ele>458.0</ele><time>2026-04-04T09:43:00.001Z</time></trkpt><trkpt lat="43.40913508382237" lon="10.863374809531338"><ele>458.0</ele><time>2026-04-04T09:43:02.001Z</time></trkpt><trkpt lat="43.409129767274834" lon="10.86353282382989"><ele>457.99999999999994</ele><time>2026-04-04T09:43:03.001Z</time></trkpt><trkpt lat="43.409183112160605" lon="10.863608668750345"><ele>458.0</ele><time>2026-04-04T09:43:04.001Z</time></trkpt><trkpt lat="43.40926825398862" lon="10.863641976000363"><ele>454.25</ele><time>2026-04-04T09:43:05.001Z</time></trkpt><trkpt lat="43.409369844394796" lon="10.863648661148718"><ele>450.5</ele><time>2026-04-04T09:43:06.001Z</time></trkpt><trkpt lat="43.40947476630173" lon="10.863803825715515"><ele>446.75</ele><time>2026-04-04T09:43:07.001Z</time></trkpt><trkpt lat="43.409594979896745" lon="10.863804637647325"><ele>443.0</ele><time>2026-04-04T09:43:08.001Z</time></trkpt><trkpt lat="43.40970660465762" lon="10.863760801931765"><ele>443.0</ele><time>2026-04-04T09:43:09.001Z</time></trkpt><trkpt lat="43.409777511370095" lon="10.86373870509181"><ele>442.99999999999994</ele><time>2026-04-04T09:43:10.001Z</time></trkpt><trkpt lat="43.40984091282084" lon="10.863654539848236"><ele>442.99999999999994</ele><time>2026-04-04T09:43:11.001Z</time></trkpt><trkpt lat="43.40984858770654" lon="10.863491824992122"><ele>443.0</ele><time>2026-04-04T09:43:12.001Z</time></trkpt><trkpt lat="43.409928788372596" lon="10.863376267977962"><ele>443.0</ele><time>2026-04-04T09:43:13.001Z</time></trkpt><trkpt lat="43.41000959021621" lon="10.863233678541974"><ele>443.5</ele><time>2026-04-04T09:43:14.001Z</time></trkpt><trkpt lat="43.41010444118567" lon="10.863094809197158"><ele>444.0</ele><time>2026-04-04T09:43:15.001Z</time></trkpt><trkpt lat="43.41020100149116" lon="10.862972261263737"><ele>444.5</ele><time>2026-04-04T09:43:16.001Z</time></trkpt><trkpt lat="43.410288416686825" lon="10.862872889104342"><ele>445.0</ele><time>2026-04-04T09:43:17.001Z</time></trkpt><trkpt lat="43.410383259596536" lon="10.86285056697935"><ele>445.0</ele><time>2026-04-04T09:43:18.001Z</time></trkpt><trkpt lat="43.41047103294156" lon="10.86284798655811"><ele>445.0</ele><time>2026-04-04T09:43:19.001Z</time></trkpt><trkpt lat="43.41055751812373" lon="10.862891549401038"><ele>445.0</ele><time>2026-04-04T09:43:20.001Z</time></trkpt><trkpt lat="43.410624287738756" lon="10.862982325500267"><ele>445.0</ele><time>2026-04-04T09:43:21.001Z</time></trkpt><trkpt lat="43.41072387897229" lon="10.86310104162855"><ele>445.0</ele><time>2026-04-04T09:43:22.001Z</time></trkpt><trkpt lat="43.410841098353096" lon="10.863228071426283"><ele>441.6666666666667</ele><time>2026-04-04T09:43:23.001Z</time></trkpt><trkpt lat="43.41096263976973" lon="10.863362714265662"><ele>438.33333333333337</ele><time>2026-04-04T09:43:24.001Z</time></trkpt><trkpt lat="43.41107720543654" lon="10.863495113181283"><ele>435.0</ele><time>2026-04-04T09:43:25.001Z</time></trkpt><trkpt lat="43.41118739357541" lon="10.863635306928249"><ele>435.0</ele><time>2026-04-04T09:43:26.001Z</time></trkpt><trkpt lat="43.41127979577701" lon="10.86379096353155"><ele>435.0</ele><time>2026-04-04T09:43:27.001Z</time></trkpt><trkpt lat="43.411362244976274" lon="10.863958277825986"><ele>435.0</ele><time>2026-04-04T09:43:28.001Z</time></trkpt><trkpt lat="43.41146092078372" lon="10.864103354381843"><ele>435.0</ele><time>2026-04-04T09:43:29.001Z</time></trkpt><trkpt lat="43.41155984177925" lon="10.864233832797025"><ele>431.0</ele><time>2026-04-04T09:43:30.001Z</time></trkpt><trkpt lat="43.4116896991587" lon="10.86431241157645"><ele>427.0</ele><time>2026-04-04T09:43:31.001Z</time></trkpt><trkpt lat="43.41183082666198" lon="10.864320488522615"><ele>423.0</ele><time>2026-04-04T09:43:32.001Z</time></trkpt><trkpt lat="43.411990495329924" lon="10.864302661239977"><ele>419.0</ele><time>2026-04-04T09:43:33.001Z</time></trkpt><trkpt lat="43.41216906946777" lon="10.864277710660872"><ele>414.0</ele><time>2026-04-04T09:43:34.001Z</time></trkpt><trkpt lat="43.412335265696875" lon="10.864245934911374"><ele>409.0</ele><time>2026-04-04T09:43:35.001Z</time></trkpt><trkpt lat="43.412505404534954" lon="10.864216325551673"><ele>404.0</ele><time>2026-04-04T09:43:36.001Z</time></trkpt><trkpt lat="43.41265651053673" lon="10.864181062026907"><ele>404.0</ele><time>2026-04-04T09:43:37.001Z</time></trkpt><trkpt lat="43.41278648374294" lon="10.864164121638838"><ele>404.0</ele><time>2026-04-04T09:43:38.001Z</time></trkpt><trkpt lat="43.41290519704599" lon="10.864167754300137"><ele>404.0</ele><time>2026-04-04T09:43:39.001Z</time></trkpt><trkpt lat="43.413030014360096" lon="10.86419444645393"><ele>404.0</ele><time>2026-04-04T09:43:40.001Z</time></trkpt><trkpt lat="43.4131692760611" lon="10.864249059046728"><ele>402.3333333333333</ele><time>2026-04-04T09:43:41.001Z</time></trkpt><trkpt lat="43.41332263845449" lon="10.864297839431753"><ele>400.66666666666663</ele><time>2026-04-04T09:43:42.001Z</time></trkpt><trkpt lat="43.413490644993516" lon="10.864340287748599"><ele>399.0</ele><time>2026-04-04T09:43:43.001Z</time></trkpt><trkpt lat="43.41366600900393" lon="10.864384126525154"><ele>396.66666666666663</ele><time>2026-04-04T09:43:44.001Z</time></trkpt><trkpt lat="43.4138460783466" lon="10.864433153927758"><ele>394.3333333333333</ele><time>2026-04-04T09:43:45.001Z</time></trkpt><trkpt lat="43.41402646132852" lon="10.864470678339911"><ele>392.0</ele><time>2026-04-04T09:43:46.001Z</time></trkpt><trkpt lat="43.41420789636219" lon="10.864482394076598"><ele>392.0</ele><time>2026-04-04T09:43:47.001Z</time></trkpt><trkpt lat="43.414377791342076" lon="10.864493539402153"><ele>392.0</ele><time>2026-04-04T09:43:48.001Z</time></trkpt><trkpt lat="43.41454263278218" lon="10.86450463437897"><ele>392.0</ele><time>2026-04-04T09:43:49.001Z</time></trkpt><trkpt lat="43.41469622721908" lon="10.864523791138405"><ele>391.0</ele><time>2026-04-04T09:43:50.001Z</time></trkpt><trkpt lat="43.41484074150986" lon="10.864555467757093"><ele>390.0</ele><time>2026-04-04T09:43:51.001Z</time></trkpt><trkpt lat="43.414983411632555" lon="10.864570571380062"><ele>389.0</ele><time>2026-04-04T09:43:52.001Z</time></trkpt><trkpt lat="43.415126840644284" lon="10.864572624806517"><ele>388.0</ele><time>2026-04-04T09:43:53.001Z</time></trkpt><trkpt lat="43.41527005318002" lon="10.864585050578418"><ele>388.0</ele><time>2026-04-04T09:43:54.001Z</time></trkpt><trkpt lat="43.41540076931092" lon="10.864586387725518"><ele>388.0</ele><time>2026-04-04T09:43:55.001Z</time></trkpt><trkpt lat="43.41551794293038" lon="10.864605622232832"><ele>388.0</ele><time>2026-04-04T09:43:56.001Z</time></trkpt><trkpt lat="43.4156308941965" lon="10.864643320127433"><ele>388.0</ele><time>2026-04-04T09:43:57.002Z</time></trkpt><trkpt lat="43.41572753167346" lon="10.864713434799603"><ele>384.0</ele><time>2026-04-04T09:43:58.002Z</time></trkpt><trkpt lat="43.415819537389844" lon="10.864818206263994"><ele>380.0</ele><time>2026-04-04T09:43:59.002Z</time></trkpt><trkpt lat="43.415926427936405" lon="10.864934860951957"><ele>376.0</ele><time>2026-04-04T09:44:00.002Z</time></trkpt><trkpt lat="43.416044572316565" lon="10.86505303131045"><ele>372.0</ele><time>2026-04-04T09:44:01.002Z</time></trkpt><trkpt lat="43.41616150550943" lon="10.865194328903797"><ele>370.0</ele><time>2026-04-04T09:44:02.002Z</time></trkpt><trkpt lat="43.416284408923794" lon="10.865333163325847"><ele>368.0</ele><time>2026-04-04T09:44:03.002Z</time></trkpt><trkpt lat="43.41640442933605" lon="10.86546436168117"><ele>366.0</ele><time>2026-04-04T09:44:04.002Z</time></trkpt><trkpt lat="43.41651525057112" lon="10.865581326365259"><ele>363.0</ele><time>2026-04-04T09:44:05.002Z</time></trkpt><trkpt lat="43.416603738071885" lon="10.86567911661761"><ele>360.0</ele><time>2026-04-04T09:44:06.002Z</time></trkpt><trkpt lat="43.41666380830152" lon="10.865735440472875"><ele>357.0</ele><time>2026-04-04T09:44:07.002Z</time></trkpt><trkpt lat="43.41672645291488" lon="10.8657766646252"><ele>354.0</ele><time>2026-04-04T09:44:08.002Z</time></trkpt><trkpt lat="43.416829407760176" lon="10.865743250195228"><ele>351.0</ele><time>2026-04-04T09:44:09.002Z</time></trkpt><trkpt lat="43.41689724387147" lon="10.865595872396543"><ele>351.0</ele><time>2026-04-04T09:44:10.002Z</time></trkpt><trkpt lat="43.41688356609895" lon="10.865455809804498"><ele>351.0</ele><time>2026-04-04T09:44:11.002Z</time></trkpt><trkpt lat="43.416755133835856" lon="10.865399360912459"><ele>351.0</ele><time>2026-04-04T09:44:12.002Z</time></trkpt><trkpt lat="43.41665796602493" lon="10.865338655834579"><ele>351.0</ele><time>2026-04-04T09:44:13.002Z</time></trkpt><trkpt lat="43.416557118274724" lon="10.865309023755616"><ele>351.0</ele><time>2026-04-04T09:44:14.002Z</time></trkpt><trkpt lat="43.416509451147995" lon="10.865211792540107"><ele>351.0</ele><time>2026-04-04T09:44:16.002Z</time></trkpt><trkpt lat="43.41662489656655" lon="10.86513697842701"><ele>351.0</ele><time>2026-04-04T09:44:18.002Z</time></trkpt><trkpt lat="43.41671603484591" lon="10.865203575840312"><ele>351.0</ele><time>2026-04-04T09:44:19.002Z</time></trkpt><trkpt lat="43.41682708672616" lon="10.865277469921926"><ele>351.0</ele><time>2026-04-04T09:44:20.002Z</time></trkpt><trkpt lat="43.41693102423984" lon="10.865366748908214"><ele>351.0</ele><time>2026-04-04T09:44:20.999Z</time></trkpt><trkpt lat="43.41701097829477" lon="10.865483631816824"><ele>351.0</ele><time>2026-04-04T09:44:21.999Z</time></trkpt><trkpt lat="43.41706088882595" lon="10.86561908314488"><ele>351.0</ele><time>2026-04-04T09:44:22.999Z</time></trkpt><trkpt lat="43.417091464706466" lon="10.865761692511157"><ele>351.0</ele><time>2026-04-04T09:44:23.999Z</time></trkpt><trkpt lat="43.417034571433476" lon="10.865907612107158"><ele>346.0</ele><time>2026-04-04T09:44:24.999Z</time></trkpt><trkpt lat="43.41698367306919" lon="10.866001415533313"><ele>341.0</ele><time>2026-04-04T09:44:25.999Z</time></trkpt><trkpt lat="43.41689490423362" lon="10.866088601050505"><ele>336.0</ele><time>2026-04-04T09:44:26.999Z</time></trkpt><trkpt lat="43.41677934589536" lon="10.866133972404713"><ele>331.0</ele><time>2026-04-04T09:44:27.999Z</time></trkpt><trkpt lat="43.41663926958604" lon="10.866163667107093"><ele>331.0</ele><time>2026-04-04T09:44:28.999Z</time></trkpt><trkpt lat="43.4164678914698" lon="10.866198614353562"><ele>331.0</ele><time>2026-04-04T09:44:29.999Z</time></trkpt><trkpt lat="43.416315117399705" lon="10.866259774858385"><ele>331.0</ele><time>2026-04-04T09:44:30.999Z</time></trkpt><trkpt lat="43.41618756040898" lon="10.866367043781663"><ele>333.20000000000005</ele><time>2026-04-04T09:44:31.999Z</time></trkpt><trkpt lat="43.41604668841938" lon="10.866496363501055"><ele>335.40000000000003</ele><time>2026-04-04T09:44:32.999Z</time></trkpt><trkpt lat="43.415954430875345" lon="10.866592682789184"><ele>337.6</ele><time>2026-04-04T09:44:33.999Z</time></trkpt><trkpt lat="43.41588088206688" lon="10.86667567610292"><ele>339.8</ele><time>2026-04-04T09:44:34.999Z</time></trkpt><trkpt lat="43.41585416292686" lon="10.866760246400656"><ele>342.0</ele><time>2026-04-04T09:44:35.999Z</time></trkpt><trkpt lat="43.415868048194525" lon="10.86687152612653"><ele>342.0</ele><time>2026-04-04T09:44:36.999Z</time></trkpt><trkpt lat="43.41593112490573" lon="10.86693301663783"><ele>342.0</ele><time>2026-04-04T09:44:37.999Z</time></trkpt><trkpt lat="43.41598343838183" lon="10.866994533724329"><ele>342.0</ele><time>2026-04-04T09:44:38.999Z</time></trkpt><trkpt lat="43.416111769424525" lon="10.866983896344918"><ele>342.0</ele><time>2026-04-04T09:44:39.999Z</time></trkpt><trkpt lat="43.416247189741526" lon="10.86702983706121"><ele>342.0</ele><time>2026-04-04T09:44:40.999Z</time></trkpt><trkpt lat="43.416414214182666" lon="10.86708503192832"><ele>339.3333333333333</ele><time>2026-04-04T09:44:41.999Z</time></trkpt><trkpt lat="43.41658901545572" lon="10.867142622653683"><ele>336.66666666666663</ele><time>2026-04-04T09:44:42.999Z</time></trkpt><trkpt lat="43.41675924043448" lon="10.86719333358337"><ele>334.0</ele><time>2026-04-04T09:44:43.999Z</time></trkpt><trkpt lat="43.41691676438859" lon="10.867248872626412"><ele>334.0</ele><time>2026-04-04T09:44:44.999Z</time></trkpt><trkpt lat="43.417056602377244" lon="10.867309154568577"><ele>334.0</ele><time>2026-04-04T09:44:45.999Z</time></trkpt><trkpt lat="43.41718730803839" lon="10.86739997877067"><ele>334.0</ele><time>2026-04-04T09:44:47Z</time></trkpt><trkpt lat="43.41733260147764" lon="10.867513544999257"><ele>324.66666666666663</ele><time>2026-04-04T09:44:48Z</time></trkpt><trkpt lat="43.41745920412041" lon="10.867645426593572"><ele>315.3333333333333</ele><time>2026-04-04T09:44:49Z</time></trkpt><trkpt lat="43.41756285002167" lon="10.867804062861683"><ele>306.0</ele><time>2026-04-04T09:44:50Z</time></trkpt><trkpt lat="43.41767829162037" lon="10.867959871142608"><ele>306.0</ele><time>2026-04-04T09:44:51Z</time></trkpt><trkpt lat="43.41782858183918" lon="10.868065642832297"><ele>306.0</ele><time>2026-04-04T09:44:52Z</time></trkpt><trkpt lat="43.41798527774968" lon="10.86810890010169"><ele>306.0</ele><time>2026-04-04T09:44:53Z</time></trkpt><trkpt lat="43.41813984001924" lon="10.86815600439983"><ele>305.3333333333333</ele><time>2026-04-04T09:44:54Z</time></trkpt><trkpt lat="43.418300583956494" lon="10.868188682358385"><ele>304.66666666666663</ele><time>2026-04-04T09:44:55Z</time></trkpt><trkpt lat="43.418474493868516" lon="10.86820221679644"><ele>304.0</ele><time>2026-04-04T09:44:56Z</time></trkpt><trkpt lat="43.41866681154806" lon="10.868190558544898"><ele>304.0</ele><time>2026-04-04T09:44:57Z</time></trkpt><trkpt lat="43.41885992632029" lon="10.868187263974706"><ele>304.0</ele><time>2026-04-04T09:44:58Z</time></trkpt><trkpt lat="43.41904776219758" lon="10.8681867688034"><ele>304.0</ele><time>2026-04-04T09:44:59Z</time></trkpt><trkpt lat="43.41922043335688" lon="10.868222021264845"><ele>304.0</ele><time>2026-04-04T09:45:00Z</time></trkpt><trkpt lat="43.419369518893554" lon="10.868287210369893"><ele>304.0</ele><time>2026-04-04T09:45:01Z</time></trkpt><trkpt lat="43.41949358225232" lon="10.868352530202406"><ele>304.0</ele><time>2026-04-04T09:45:02Z</time></trkpt><trkpt lat="43.419602955790204" lon="10.86840593662927"><ele>304.0</ele><time>2026-04-04T09:45:03Z</time></trkpt><trkpt lat="43.41970010473162" lon="10.868400339896882"><ele>302.8</ele><time>2026-04-04T09:45:04Z</time></trkpt><trkpt lat="43.419794549355906" lon="10.868345530242369"><ele>301.59999999999997</ele><time>2026-04-04T09:45:05Z</time></trkpt><trkpt lat="43.419871726203354" lon="10.868251005214727"><ele>300.4</ele><time>2026-04-04T09:45:06Z</time></trkpt><trkpt lat="43.419927582203215" lon="10.868119479139244"><ele>299.2</ele><time>2026-04-04T09:45:07Z</time></trkpt><trkpt lat="43.419971805013134" lon="10.867953855083673"><ele>298.0</ele><time>2026-04-04T09:45:08Z</time></trkpt><trkpt lat="43.4199840632256" lon="10.86775266314566"><ele>297.25</ele><time>2026-04-04T09:45:09Z</time></trkpt><trkpt lat="43.41999553216373" lon="10.867549652889897"><ele>296.5</ele><time>2026-04-04T09:45:10Z</time></trkpt><trkpt lat="43.42000532400733" lon="10.867376328671826"><ele>295.75</ele><time>2026-04-04T09:45:11Z</time></trkpt><trkpt lat="43.42001414982618" lon="10.867220103927458"><ele>295.0</ele><time>2026-04-04T09:45:12Z</time></trkpt><trkpt lat="43.42000797838561" lon="10.867089615172393"><ele>295.0</ele><time>2026-04-04T09:45:13Z</time></trkpt><trkpt lat="43.42004275515866" lon="10.866983716878073"><ele>295.0</ele><time>2026-04-04T09:45:14Z</time></trkpt><trkpt lat="43.420114864184775" lon="10.866919285197444"><ele>295.0</ele><time>2026-04-04T09:45:15Z</time></trkpt><trkpt lat="43.42020790767523" lon="10.866925025656471"><ele>295.0</ele><time>2026-04-04T09:45:16Z</time></trkpt><trkpt lat="43.420300896013195" lon="10.86698210850589"><ele>295.0</ele><time>2026-04-04T09:45:17Z</time></trkpt><trkpt lat="43.420377487440156" lon="10.867063828910002"><ele>295.0</ele><time>2026-04-04T09:45:18Z</time></trkpt><trkpt lat="43.420422708804544" lon="10.867169686189637"><ele>295.0</ele><time>2026-04-04T09:45:19Z</time></trkpt><trkpt lat="43.420391082164414" lon="10.867277462092831"><ele>295.0</ele><time>2026-04-04T09:45:20Z</time></trkpt><trkpt lat="43.42034813676679" lon="10.867351667409858"><ele>295.0</ele><time>2026-04-04T09:45:21Z</time></trkpt><trkpt lat="43.4202911724238" lon="10.867458414006313"><ele>295.0</ele><time>2026-04-04T09:45:22Z</time></trkpt><trkpt lat="43.42023800958749" lon="10.867686730897166"><ele>295.0</ele><time>2026-04-04T09:45:23.001Z</time></trkpt><trkpt lat="43.42024289283966" lon="10.867886682684905"><ele>295.0</ele><time>2026-04-04T09:45:24.001Z</time></trkpt><trkpt lat="43.42027651895537" lon="10.86810052143939"><ele>295.0</ele><time>2026-04-04T09:45:25.001Z</time></trkpt><trkpt lat="43.420587148728515" lon="10.868677241078535"><ele>296.0</ele><time>2026-04-04T09:45:26.001Z</time></trkpt><trkpt lat="43.42032830548254" lon="10.868416048826605"><ele>297.0</ele><time>2026-04-04T09:45:27.001Z</time></trkpt><trkpt lat="43.42035899031269" lon="10.868513610031945"><ele>298.0</ele><time>2026-04-04T09:45:28.001Z</time></trkpt><trkpt lat="43.42044552355579" lon="10.868619407359159"><ele>298.0</ele><time>2026-04-04T09:45:30.001Z</time></trkpt><trkpt lat="43.42050144743607" lon="10.868562730989892"><ele>298.0</ele><time>2026-04-04T09:45:31.001Z</time></trkpt><trkpt lat="43.420533535031225" lon="10.868388601177283"><ele>298.0</ele><time>2026-04-04T09:45:33.001Z</time></trkpt><trkpt lat="43.42049210519485" lon="10.86824160004676"><ele>298.0</ele><time>2026-04-04T09:45:34.001Z</time></trkpt><trkpt lat="43.42045439233619" lon="10.868109330564868"><ele>298.0</ele><time>2026-04-04T09:45:35.001Z</time></trkpt><trkpt lat="43.4204251457724" lon="10.867986565265735"><ele>298.0</ele><time>2026-04-04T09:45:36.001Z</time></trkpt><trkpt lat="43.42044876988837" lon="10.867869450045582"><ele>298.0</ele><time>2026-04-04T09:45:37.001Z</time></trkpt><trkpt lat="43.42050509071771" lon="10.86776087641808"><ele>298.0</ele><time>2026-04-04T09:45:38.001Z</time></trkpt><trkpt lat="43.420576263991464" lon="10.867671556303693"><ele>298.0</ele><time>2026-04-04T09:45:39.001Z</time></trkpt><trkpt lat="43.420646651397426" lon="10.867579108336605"><ele>298.0</ele><time>2026-04-04T09:45:40.001Z</time></trkpt><trkpt lat="43.420724685532335" lon="10.867519019754715"><ele>294.0</ele><time>2026-04-04T09:45:41.001Z</time></trkpt><trkpt lat="43.42080518103655" lon="10.867475861506087"><ele>290.0</ele><time>2026-04-04T09:45:42.001Z</time></trkpt><trkpt lat="43.420908570363586" lon="10.867476774754667"><ele>286.0</ele><time>2026-04-04T09:45:43.001Z</time></trkpt><trkpt lat="43.4210125095027" lon="10.867430051084984"><ele>282.0</ele><time>2026-04-04T09:45:44.001Z</time></trkpt><trkpt lat="43.42112978064964" lon="10.867398710638774"><ele>278.0</ele><time>2026-04-04T09:45:45.001Z</time></trkpt><trkpt lat="43.42123653577229" lon="10.867334418001471"><ele>274.4</ele><time>2026-04-04T09:45:46.001Z</time></trkpt><trkpt lat="43.42133926575469" lon="10.867266319697883"><ele>270.8</ele><time>2026-04-04T09:45:47.001Z</time></trkpt><trkpt lat="43.421421436096765" lon="10.867195610409619"><ele>267.2</ele><time>2026-04-04T09:45:48.001Z</time></trkpt><trkpt lat="43.421492931071036" lon="10.867122248766803"><ele>263.6</ele><time>2026-04-04T09:45:49.001Z</time></trkpt><trkpt lat="43.42153937100285" lon="10.867018608485473"><ele>260.0</ele><time>2026-04-04T09:45:50.001Z</time></trkpt><trkpt lat="43.42156140748959" lon="10.866893453383431"><ele>260.4</ele><time>2026-04-04T09:45:51.001Z</time></trkpt><trkpt lat="43.42155956730689" lon="10.866754062205455"><ele>260.8</ele><time>2026-04-04T09:45:52.001Z</time></trkpt><trkpt lat="43.42155656198214" lon="10.866607178485422"><ele>261.2</ele><time>2026-04-04T09:45:53.001Z</time></trkpt><trkpt lat="43.421559582349786" lon="10.866480798385037"><ele>261.6</ele><time>2026-04-04T09:45:54.001Z</time></trkpt><trkpt lat="43.42155102945589" lon="10.866372767159257"><ele>262.0</ele><time>2026-04-04T09:45:55.001Z</time></trkpt><trkpt lat="43.42152720854842" lon="10.866270209894633"><ele>262.0</ele><time>2026-04-04T09:45:56.001Z</time></trkpt><trkpt lat="43.42148758556325" lon="10.86618549905388"><ele>262.0</ele><time>2026-04-04T09:45:57.001Z</time></trkpt><trkpt lat="43.42145141393933" lon="10.866058054885235"><ele>262.0</ele><time>2026-04-04T09:45:59.001Z</time></trkpt><trkpt lat="43.421473969880275" lon="10.865949943999526"><ele>262.0</ele><time>2026-04-04T09:46:01.001Z</time></trkpt><trkpt lat="43.421572194414914" lon="10.865911763620138"><ele>262.0</ele><time>2026-04-04T09:46:03.001Z</time></trkpt><trkpt lat="43.421671720015915" lon="10.865952345459936"><ele>262.0</ele><time>2026-04-04T09:46:05.001Z</time></trkpt><trkpt lat="43.421702525452375" lon="10.866083348373143"><ele>262.0</ele><time>2026-04-04T09:46:06.001Z</time></trkpt><trkpt lat="43.42174105006824" lon="10.866171269348971"><ele>262.0</ele><time>2026-04-04T09:46:07.001Z</time></trkpt><trkpt lat="43.421789484538806" lon="10.86628624043944"><ele>262.0</ele><time>2026-04-04T09:46:08.001Z</time></trkpt><trkpt lat="43.421832866302246" lon="10.866426916784354"><ele>262.0</ele><time>2026-04-04T09:46:09.001Z</time></trkpt><trkpt lat="43.42189099137083" lon="10.866593091096458"><ele>262.0</ele><time>2026-04-04T09:46:10.001Z</time></trkpt><trkpt lat="43.42195293933999" lon="10.866761613037282"><ele>262.0</ele><time>2026-04-04T09:46:11.001Z</time></trkpt><trkpt lat="43.42201465671465" lon="10.866940251994622"><ele>262.0</ele><time>2026-04-04T09:46:12.001Z</time></trkpt><trkpt lat="43.42204902895503" lon="10.867121602729481"><ele>262.0</ele><time>2026-04-04T09:46:13.002Z</time></trkpt><trkpt lat="43.422045942821015" lon="10.867306454127291"><ele>261.5</ele><time>2026-04-04T09:46:14.002Z</time></trkpt><trkpt lat="43.422065950121684" lon="10.867482724342079"><ele>261.0</ele><time>2026-04-04T09:46:15.002Z</time></trkpt><trkpt lat="43.42206257824295" lon="10.867638429197394"><ele>260.5</ele><time>2026-04-04T09:46:16.002Z</time></trkpt><trkpt lat="43.422078220628684" lon="10.867774262679891"><ele>260.0</ele><time>2026-04-04T09:46:17.002Z</time></trkpt><trkpt lat="43.42213100442916" lon="10.867907061585493"><ele>255.5</ele><time>2026-04-04T09:46:18.002Z</time></trkpt><trkpt lat="43.42222806983596" lon="10.868028208669669"><ele>251.0</ele><time>2026-04-04T09:46:19.002Z</time></trkpt><trkpt lat="43.42236599317486" lon="10.868129211106014"><ele>246.5</ele><time>2026-04-04T09:46:20.002Z</time></trkpt><trkpt lat="43.42249472985891" lon="10.868222810626436"><ele>242.0</ele><time>2026-04-04T09:46:21.002Z</time></trkpt><trkpt lat="43.42260267407442" lon="10.868299622290738"><ele>242.0</ele><time>2026-04-04T09:46:22.002Z</time></trkpt><trkpt lat="43.42269385648343" lon="10.868389643607317"><ele>242.0</ele><time>2026-04-04T09:46:23.002Z</time></trkpt><trkpt lat="43.422758267856146" lon="10.868522407043878"><ele>242.0</ele><time>2026-04-04T09:46:24.002Z</time></trkpt><trkpt lat="43.422815742035546" lon="10.868708782226397"><ele>242.0</ele><time>2026-04-04T09:46:25.002Z</time></trkpt><trkpt lat="43.42287193225294" lon="10.86891702071187"><ele>238.33333333333334</ele><time>2026-04-04T09:46:26.002Z</time></trkpt><trkpt lat="43.42298794818776" lon="10.869093479216003"><ele>234.66666666666669</ele><time>2026-04-04T09:46:26.998Z</time></trkpt><trkpt lat="43.42311425711314" lon="10.86925890169568"><ele>231.0</ele><time>2026-04-04T09:46:27.998Z</time></trkpt><trkpt lat="43.42321108097596" lon="10.86943488988928"><ele>231.0</ele><time>2026-04-04T09:46:28.998Z</time></trkpt><trkpt lat="43.42328069735054" lon="10.86964919948929"><ele>231.0</ele><time>2026-04-04T09:46:29.998Z</time></trkpt><trkpt lat="43.423364929933754" lon="10.869863860557777"><ele>231.0</ele><time>2026-04-04T09:46:30.998Z</time></trkpt><trkpt lat="43.42342913070528" lon="10.870076803609432"><ele>232.0</ele><time>2026-04-04T09:46:31.998Z</time></trkpt><trkpt lat="43.42348624790948" lon="10.870264452220066"><ele>233.0</ele><time>2026-04-04T09:46:32.998Z</time></trkpt><trkpt lat="43.42353388028661" lon="10.870421042301961"><ele>234.0</ele><time>2026-04-04T09:46:33.998Z</time></trkpt><trkpt lat="43.42357977543938" lon="10.870543645094338"><ele>235.0</ele><time>2026-04-04T09:46:34.998Z</time></trkpt><trkpt lat="43.4236178058297" lon="10.87064409875146"><ele>235.0</ele><time>2026-04-04T09:46:35.998Z</time></trkpt><trkpt lat="43.423726822278574" lon="10.870720764424451"><ele>235.0</ele><time>2026-04-04T09:46:37.998Z</time></trkpt><trkpt lat="43.42379638826675" lon="10.870672654797456"><ele>235.0</ele><time>2026-04-04T09:46:38.998Z</time></trkpt><trkpt lat="43.423815077128594" lon="10.870552826277812"><ele>235.0</ele><time>2026-04-04T09:46:39.998Z</time></trkpt><trkpt lat="43.42379196938819" lon="10.870394785722686"><ele>235.0</ele><time>2026-04-04T09:46:40.998Z</time></trkpt><trkpt lat="43.423770775601476" lon="10.870198553218124"><ele>233.66666666666666</ele><time>2026-04-04T09:46:41.998Z</time></trkpt><trkpt lat="43.423740680719284" lon="10.869962612863949"><ele>232.33333333333331</ele><time>2026-04-04T09:46:42.999Z</time></trkpt><trkpt lat="43.42369227708857" lon="10.86971118355276"><ele>231.0</ele><time>2026-04-04T09:46:43.999Z</time></trkpt><trkpt lat="43.42367271278022" lon="10.86948311608138"><ele>231.0</ele><time>2026-04-04T09:46:44.999Z</time></trkpt><trkpt lat="43.42363876725879" lon="10.869291935032503"><ele>231.0</ele><time>2026-04-04T09:46:45.999Z</time></trkpt><trkpt lat="43.423612240082804" lon="10.86913338989883"><ele>231.0</ele><time>2026-04-04T09:46:46.999Z</time></trkpt><trkpt lat="43.42361474127999" lon="10.869009827463397"><ele>231.0</ele><time>2026-04-04T09:46:47.999Z</time></trkpt><trkpt lat="43.42364264042307" lon="10.86887340642774"><ele>229.5</ele><time>2026-04-04T09:46:49.999Z</time></trkpt><trkpt lat="43.42372271901263" lon="10.868869965640696"><ele>228.0</ele><time>2026-04-04T09:46:50.999Z</time></trkpt><trkpt lat="43.42379139611941" lon="10.86897042761572"><ele>226.5</ele><time>2026-04-04T09:46:51.999Z</time></trkpt><trkpt lat="43.42381932493971" lon="10.869134822398662"><ele>225.0</ele><time>2026-04-04T09:46:52.999Z</time></trkpt><trkpt lat="43.423863288925375" lon="10.869339480919004"><ele>218.66666666666669</ele><time>2026-04-04T09:46:53.999Z</time></trkpt><trkpt lat="43.42392792062749" lon="10.869571864619418"><ele>212.33333333333334</ele><time>2026-04-04T09:46:54.999Z</time></trkpt><trkpt lat="43.4240003629914" lon="10.869816054808933"><ele>206.0</ele><time>2026-04-04T09:46:55.999Z</time></trkpt><trkpt lat="43.424092482536" lon="10.870049691760821"><ele>207.33333333333334</ele><time>2026-04-04T09:46:56.999Z</time></trkpt><trkpt lat="43.42420553531638" lon="10.87027394041495"><ele>208.66666666666669</ele><time>2026-04-04T09:46:57.999Z</time></trkpt><trkpt lat="43.42429613128468" lon="10.870491025710377"><ele>210.0</ele><time>2026-04-04T09:46:58.999Z</time></trkpt><trkpt lat="43.4243506226352" lon="10.870707192650558"><ele>210.0</ele><time>2026-04-04T09:46:59.999Z</time></trkpt><trkpt lat="43.424387793711865" lon="10.870901822500201"><ele>210.0</ele><time>2026-04-04T09:47:00.999Z</time></trkpt><trkpt lat="43.424425114783766" lon="10.871090194953531"><ele>210.0</ele><time>2026-04-04T09:47:01.999Z</time></trkpt><trkpt lat="43.42450546805782" lon="10.871256614919572"><ele>210.0</ele><time>2026-04-04T09:47:03Z</time></trkpt><trkpt lat="43.424626855520266" lon="10.871413261552883"><ele>203.33333333333334</ele><time>2026-04-04T09:47:04Z</time></trkpt><trkpt lat="43.42476287184067" lon="10.871561378270732"><ele>196.66666666666669</ele><time>2026-04-04T09:47:05Z</time></trkpt><trkpt lat="43.42489165707133" lon="10.871767004680764"><ele>190.0</ele><time>2026-04-04T09:47:06Z</time></trkpt><trkpt lat="43.425062716935955" lon="10.871995483509762"><ele>190.0</ele><time>2026-04-04T09:47:07Z</time></trkpt><trkpt lat="43.42519623616504" lon="10.872203556138167"><ele>190.0</ele><time>2026-04-04T09:47:08Z</time></trkpt><trkpt lat="43.42531993303236" lon="10.872377626187985"><ele>190.0</ele><time>2026-04-04T09:47:09Z</time></trkpt><trkpt lat="43.42542822864955" lon="10.872524107270081"><ele>189.2</ele><time>2026-04-04T09:47:10Z</time></trkpt><trkpt lat="43.42551144102601" lon="10.872640672448862"><ele>188.4</ele><time>2026-04-04T09:47:11Z</time></trkpt><trkpt lat="43.425564767454816" lon="10.872729401789723"><ele>187.60000000000002</ele><time>2026-04-04T09:47:12Z</time></trkpt><trkpt lat="43.42555294893058" lon="10.872894121683904"><ele>186.8</ele><time>2026-04-04T09:47:14Z</time></trkpt><trkpt lat="43.42550541689351" lon="10.872960593548859"><ele>186.0</ele><time>2026-04-04T09:47:15Z</time></trkpt><trkpt lat="43.42541928807724" lon="10.872975530290129"><ele>186.0</ele><time>2026-04-04T09:47:16Z</time></trkpt><trkpt lat="43.4253320088798" lon="10.87305161059498"><ele>186.0</ele><time>2026-04-04T09:47:17Z</time></trkpt><trkpt lat="43.42522872189127" lon="10.873142042907565"><ele>186.0</ele><time>2026-04-04T09:47:18Z</time></trkpt><trkpt lat="43.42511343897907" lon="10.873265235236985"><ele>186.0</ele><time>2026-04-04T09:47:19Z</time></trkpt><trkpt lat="43.42501533660191" lon="10.873400511565329"><ele>181.0</ele><time>2026-04-04T09:47:20Z</time></trkpt><trkpt lat="43.42493117530758" lon="10.873594646396832"><ele>176.0</ele><time>2026-04-04T09:47:21Z</time></trkpt><trkpt lat="43.42483759746451" lon="10.873831214410096"><ele>171.0</ele><time>2026-04-04T09:47:22Z</time></trkpt><trkpt lat="43.42472429605686" lon="10.874068521862181"><ele>170.0</ele><time>2026-04-04T09:47:23Z</time></trkpt><trkpt lat="43.42458091054953" lon="10.874275821604934"><ele>169.0</ele><time>2026-04-04T09:47:24Z</time></trkpt><trkpt lat="43.42447919572717" lon="10.874505461540773"><ele>168.0</ele><time>2026-04-04T09:47:25Z</time></trkpt><trkpt lat="43.424365000875476" lon="10.874713489548036"><ele>168.0</ele><time>2026-04-04T09:47:26Z</time></trkpt><trkpt lat="43.42430271487522" lon="10.874913961242319"><ele>168.0</ele><time>2026-04-04T09:47:27Z</time></trkpt><trkpt lat="43.42424467162339" lon="10.875094124606033"><ele>168.0</ele><time>2026-04-04T09:47:28Z</time></trkpt><trkpt lat="43.42420127908327" lon="10.875267990351542"><ele>168.0</ele><time>2026-04-04T09:47:29Z</time></trkpt><trkpt lat="43.4241757623308" lon="10.875440017983275"><ele>167.0</ele><time>2026-04-04T09:47:30Z</time></trkpt><trkpt lat="43.424155294284525" lon="10.875589611717684"><ele>166.0</ele><time>2026-04-04T09:47:31Z</time></trkpt><trkpt lat="43.424141514744385" lon="10.875724386088269"><ele>165.0</ele><time>2026-04-04T09:47:32Z</time></trkpt><trkpt lat="43.42414723219809" lon="10.87585496648235"><ele>164.0</ele><time>2026-04-04T09:47:33Z</time></trkpt><trkpt lat="43.42414301616835" lon="10.875984618270817"><ele>163.0</ele><time>2026-04-04T09:47:34Z</time></trkpt><trkpt lat="43.424160702162986" lon="10.876082377635122"><ele>162.8</ele><time>2026-04-04T09:47:35.001Z</time></trkpt><trkpt lat="43.4242086469875" lon="10.87617290810709"><ele>162.60000000000002</ele><time>2026-04-04T09:47:36.001Z</time></trkpt><trkpt lat="43.424283458532166" lon="10.876257243912873"><ele>162.39999999999998</ele><time>2026-04-04T09:47:37.001Z</time></trkpt><trkpt lat="43.424380910159186" lon="10.876342668447817"><ele>162.2</ele><time>2026-04-04T09:47:38.001Z</time></trkpt><trkpt lat="43.424496943667656" lon="10.876419815318696"><ele>162.0</ele><time>2026-04-04T09:47:39.001Z</time></trkpt><trkpt lat="43.424598490612404" lon="10.876467996404918"><ele>161.33333333333334</ele><time>2026-04-04T09:47:40.001Z</time></trkpt><trkpt lat="43.42468096417417" lon="10.876487265151104"><ele>160.66666666666666</ele><time>2026-04-04T09:47:41.001Z</time></trkpt><trkpt lat="43.42478771840029" lon="10.876503932082986"><ele>160.0</ele><time>2026-04-04T09:47:43.001Z</time></trkpt><trkpt lat="43.424856302689314" lon="10.876484387884114"><ele>159.33333333333331</ele><time>2026-04-04T09:47:47.001Z</time></trkpt><trkpt lat="43.42494352250876" lon="10.876488317682792"><ele>158.66666666666666</ele><time>2026-04-04T09:47:50.001Z</time></trkpt><trkpt lat="43.42502669467121" lon="10.876443892820284"><ele>158.0</ele><time>2026-04-04T09:47:52.001Z</time></trkpt><trkpt lat="43.42508091944895" lon="10.876395748378938"><ele>158.0</ele><time>2026-04-04T09:47:53.001Z</time></trkpt><trkpt lat="43.4251491894299" lon="10.87637278311535"><ele>158.0</ele><time>2026-04-04T09:47:54.001Z</time></trkpt><trkpt lat="43.42522495657696" lon="10.876401355694409"><ele>158.0</ele><time>2026-04-04T09:47:55.001Z</time></trkpt><trkpt lat="43.42530382314043" lon="10.876448177751893"><ele>158.0</ele><time>2026-04-04T09:47:56.001Z</time></trkpt><trkpt lat="43.425379334190836" lon="10.876505708519678"><ele>158.0</ele><time>2026-04-04T09:47:57.001Z</time></trkpt><trkpt lat="43.425451000295645" lon="10.87655817557931"><ele>158.0</ele><time>2026-04-04T09:47:58.001Z</time></trkpt><trkpt lat="43.425514127807816" lon="10.876591873195297"><ele>157.8</ele><time>2026-04-04T09:47:59.001Z</time></trkpt><trkpt lat="43.42562869224122" lon="10.876657157871652"><ele>157.60000000000002</ele><time>2026-04-04T09:48:01.001Z</time></trkpt><trkpt lat="43.42573144369265" lon="10.876719955354089"><ele>157.39999999999998</ele><time>2026-04-04T09:48:03.001Z</time></trkpt><trkpt lat="43.425827792025785" lon="10.876785167763305"><ele>157.2</ele><time>2026-04-04T09:48:05.001Z</time></trkpt><trkpt lat="43.42589342562585" lon="10.876832618276167"><ele>157.0</ele><time>2026-04-04T09:48:07.001Z</time></trkpt><trkpt lat="43.425979078503204" lon="10.876878906519734"><ele>157.0</ele><time>2026-04-04T09:48:10.001Z</time></trkpt><trkpt lat="43.426039794050794" lon="10.876922255079712"><ele>157.0</ele><time>2026-04-04T09:48:12.001Z</time></trkpt><trkpt lat="43.4261207447799" lon="10.876981548090358"><ele>157.0</ele><time>2026-04-04T09:48:14.002Z</time></trkpt><trkpt lat="43.42622298816453" lon="10.877050385016803"><ele>157.0</ele><time>2026-04-04T09:48:16.002Z</time></trkpt><trkpt lat="43.4262859575568" lon="10.877106820620845"><ele>157.0</ele><time>2026-04-04T09:48:17.002Z</time></trkpt><trkpt lat="43.42636005041263" lon="10.877159858209408"><ele>157.0</ele><time>2026-04-04T09:48:18.002Z</time></trkpt><trkpt lat="43.42643612908191" lon="10.877217346308178"><ele>155.6</ele><time>2026-04-04T09:48:19.002Z</time></trkpt><trkpt lat="43.426519481829274" lon="10.877272874457944"><ele>154.2</ele><time>2026-04-04T09:48:20.002Z</time></trkpt><trkpt lat="43.4266056517239" lon="10.877333618805991"><ele>152.8</ele><time>2026-04-04T09:48:21.002Z</time></trkpt><trkpt lat="43.42669568149565" lon="10.877396692560128"><ele>151.4</ele><time>2026-04-04T09:48:22.002Z</time></trkpt><trkpt lat="43.42678734125519" lon="10.877463144700316"><ele>150.0</ele><time>2026-04-04T09:48:23.002Z</time></trkpt><trkpt lat="43.42687358869796" lon="10.877537478945646"><ele>150.0</ele><time>2026-04-04T09:48:24.002Z</time></trkpt><trkpt lat="43.426962727753356" lon="10.877601599029244"><ele>150.0</ele><time>2026-04-04T09:48:25.002Z</time></trkpt><trkpt lat="43.427054925688566" lon="10.877662524673475"><ele>150.0</ele><time>2026-04-04T09:48:26.002Z</time></trkpt><trkpt lat="43.42714395375413" lon="10.877726430379802"><ele>150.0</ele><time>2026-04-04T09:48:27.002Z</time></trkpt><trkpt lat="43.427231553561626" lon="10.877788859977793"><ele>150.0</ele><time>2026-04-04T09:48:28.002Z</time></trkpt><trkpt lat="43.42731790915567" lon="10.877854136052209"><ele>150.0</ele><time>2026-04-04T09:48:29.002Z</time></trkpt><trkpt lat="43.427406204217924" lon="10.877927394606338"><ele>150.0</ele><time>2026-04-04T09:48:30.002Z</time></trkpt><trkpt lat="43.42750400871732" lon="10.878004802145517"><ele>150.0</ele><time>2026-04-04T09:48:31.002Z</time></trkpt><trkpt lat="43.42760495016446" lon="10.878089804734207"><ele>150.0</ele><time>2026-04-04T09:48:32.002Z</time></trkpt><trkpt lat="43.4276975827041" lon="10.878192720889034"><ele>150.0</ele><time>2026-04-04T09:48:32.997Z</time></trkpt><trkpt lat="43.427771625926226" lon="10.87833874620812"><ele>150.0</ele><time>2026-04-04T09:48:33.997Z</time></trkpt><trkpt lat="43.42783394639604" lon="10.878520628902615"><ele>150.0</ele><time>2026-04-04T09:48:34.997Z</time></trkpt><trkpt lat="43.427893637911" lon="10.878729031624035"><ele>150.0</ele><time>2026-04-04T09:48:35.997Z</time></trkpt><trkpt lat="43.42795602172701" lon="10.878941514135308"><ele>150.0</ele><time>2026-04-04T09:48:36.997Z</time></trkpt><trkpt lat="43.42801774750534" lon="10.87914741358476"><ele>150.0</ele><time>2026-04-04T09:48:37.998Z</time></trkpt><trkpt lat="43.42808166779433" lon="10.87934767424608"><ele>150.0</ele><time>2026-04-04T09:48:38.998Z</time></trkpt><trkpt lat="43.42814122477101" lon="10.879539349358273"><ele>150.75</ele><time>2026-04-04T09:48:39.998Z</time></trkpt><trkpt lat="43.42819604728204" lon="10.879713014793191"><ele>151.5</ele><time>2026-04-04T09:48:40.998Z</time></trkpt><trkpt lat="43.42824161940412" lon="10.879873400733368"><ele>152.25</ele><time>2026-04-04T09:48:41.998Z</time></trkpt><trkpt lat="43.42828390056239" lon="10.880030798248596"><ele>153.0</ele><time>2026-04-04T09:48:42.998Z</time></trkpt><trkpt lat="43.428327723733695" lon="10.880190660297156"><ele>154.5</ele><time>2026-04-04T09:48:43.998Z</time></trkpt><trkpt lat="43.428375964916256" lon="10.88035005028242"><ele>156.0</ele><time>2026-04-04T09:48:44.998Z</time></trkpt><trkpt lat="43.4284220561679" lon="10.880513415044927"><ele>157.5</ele><time>2026-04-04T09:48:45.998Z</time></trkpt><trkpt lat="43.42846592729399" lon="10.880681636774277"><ele>159.0</ele><time>2026-04-04T09:48:46.998Z</time></trkpt><trkpt lat="43.42851366557857" lon="10.880851398518713"><ele>160.5</ele><time>2026-04-04T09:48:47.998Z</time></trkpt><trkpt lat="43.428562683287105" lon="10.881023961532293"><ele>162.0</ele><time>2026-04-04T09:48:48.998Z</time></trkpt><trkpt lat="43.42861732605045" lon="10.881203180592662"><ele>163.5</ele><time>2026-04-04T09:48:49.998Z</time></trkpt><trkpt lat="43.42866823637101" lon="10.881395165795144"><ele>165.0</ele><time>2026-04-04T09:48:50.998Z</time></trkpt><trkpt lat="43.42872159273698" lon="10.881599530980253"><ele>165.66666666666666</ele><time>2026-04-04T09:48:51.998Z</time></trkpt><trkpt lat="43.42878375456267" lon="10.881804644351234"><ele>166.33333333333331</ele><time>2026-04-04T09:48:52.999Z</time></trkpt><trkpt lat="43.42884372278683" lon="10.882020693456315"><ele>167.0</ele><time>2026-04-04T09:48:53.999Z</time></trkpt><trkpt lat="43.428905837182405" lon="10.882252551351531"><ele>164.33333333333331</ele><time>2026-04-04T09:48:54.999Z</time></trkpt><trkpt lat="43.42897323169969" lon="10.88249464027872"><ele>161.66666666666666</ele><time>2026-04-04T09:48:55.999Z</time></trkpt><trkpt lat="43.429040210872074" lon="10.882745122573045"><ele>159.0</ele><time>2026-04-04T09:48:56.999Z</time></trkpt><trkpt lat="43.42910949861502" lon="10.882999282180927"><ele>159.0</ele><time>2026-04-04T09:48:57.999Z</time></trkpt><trkpt lat="43.42918112116276" lon="10.883244579169588"><ele>159.0</ele><time>2026-04-04T09:48:58.999Z</time></trkpt><trkpt lat="43.42925221673931" lon="10.883485032266119"><ele>159.0</ele><time>2026-04-04T09:48:59.999Z</time></trkpt><trkpt lat="43.42931793195681" lon="10.883719367646185"><ele>161.0</ele><time>2026-04-04T09:49:00.999Z</time></trkpt><trkpt lat="43.42937984560328" lon="10.883945250532824"><ele>163.0</ele><time>2026-04-04T09:49:01.999Z</time></trkpt><trkpt lat="43.42944416784686" lon="10.884166616415746"><ele>165.0</ele><time>2026-04-04T09:49:02.999Z</time></trkpt><trkpt lat="43.42950646423805" lon="10.884394398882892"><ele>167.0</ele><time>2026-04-04T09:49:03.999Z</time></trkpt><trkpt lat="43.42956938177555" lon="10.88462605014769"><ele>169.0</ele><time>2026-04-04T09:49:04.999Z</time></trkpt><trkpt lat="43.42963457223298" lon="10.884855387907113"><ele>171.0</ele><time>2026-04-04T09:49:05.999Z</time></trkpt><trkpt lat="43.429697432268036" lon="10.885075227989903"><ele>168.5</ele><time>2026-04-04T09:49:06.999Z</time></trkpt><trkpt lat="43.42975089832085" lon="10.885281817563541"><ele>166.0</ele><time>2026-04-04T09:49:07.999Z</time></trkpt><trkpt lat="43.42978737198405" lon="10.885469558321514"><ele>163.5</ele><time>2026-04-04T09:49:09Z</time></trkpt><trkpt lat="43.429799288217545" lon="10.885651893918777"><ele>161.0</ele><time>2026-04-04T09:49:10Z</time></trkpt><trkpt lat="43.429787770013455" lon="10.885826450649883"><ele>161.25</ele><time>2026-04-04T09:49:11Z</time></trkpt><trkpt lat="43.42976569169161" lon="10.886002096447816"><ele>161.5</ele><time>2026-04-04T09:49:12Z</time></trkpt><trkpt lat="43.42973721411863" lon="10.886186327326357"><ele>161.75</ele><time>2026-04-04T09:49:13Z</time></trkpt><trkpt lat="43.42969517285896" lon="10.886363866849452"><ele>162.0</ele><time>2026-04-04T09:49:14Z</time></trkpt><trkpt lat="43.42965212843827" lon="10.886519385605427"><ele>164.6</ele><time>2026-04-04T09:49:15Z</time></trkpt><trkpt lat="43.42963235808528" lon="10.88666643553956"><ele>167.2</ele><time>2026-04-04T09:49:16Z</time></trkpt><trkpt lat="43.42961463628604" lon="10.886808610600658"><ele>169.8</ele><time>2026-04-04T09:49:17Z</time></trkpt><trkpt lat="43.429596069242265" lon="10.88695365263586"><ele>172.4</ele><time>2026-04-04T09:49:18Z</time></trkpt><trkpt lat="43.42958767725235" lon="10.887092754249762"><ele>175.0</ele><time>2026-04-04T09:49:19Z</time></trkpt><trkpt lat="43.42958585868941" lon="10.887214029713988"><ele>175.0</ele><time>2026-04-04T09:49:20Z</time></trkpt><trkpt lat="43.42959436931134" lon="10.887324494226927"><ele>175.0</ele><time>2026-04-04T09:49:21Z</time></trkpt><trkpt lat="43.429610586204625" lon="10.887429427431348"><ele>175.0</ele><time>2026-04-04T09:49:22Z</time></trkpt><trkpt lat="43.429641786143094" lon="10.88751133247711"><ele>175.0</ele><time>2026-04-04T09:49:23Z</time></trkpt><trkpt lat="43.429683440242464" lon="10.887590285803709"><ele>175.0</ele><time>2026-04-04T09:49:24Z</time></trkpt><trkpt lat="43.42973833204382" lon="10.887676601711954"><ele>175.0</ele><time>2026-04-04T09:49:25Z</time></trkpt><trkpt lat="43.42981517527596" lon="10.88778172648477"><ele>174.0</ele><time>2026-04-04T09:49:26Z</time></trkpt><trkpt lat="43.42992324857849" lon="10.887899402357348"><ele>173.0</ele><time>2026-04-04T09:49:27Z</time></trkpt><trkpt lat="43.43006616265046" lon="10.888026826866248"><ele>172.0</ele><time>2026-04-04T09:49:28Z</time></trkpt><trkpt lat="43.43023175431189" lon="10.888153528589662"><ele>172.0</ele><time>2026-04-04T09:49:29Z</time></trkpt><trkpt lat="43.43039074156108" lon="10.88827633093481"><ele>172.0</ele><time>2026-04-04T09:49:30Z</time></trkpt><trkpt lat="43.43054207448267" lon="10.888388138416547"><ele>172.0</ele><time>2026-04-04T09:49:31Z</time></trkpt><trkpt lat="43.43068699867591" lon="10.888517196509554"><ele>171.33333333333334</ele><time>2026-04-04T09:49:32Z</time></trkpt><trkpt lat="43.43083451672562" lon="10.888639638962637"><ele>170.66666666666666</ele><time>2026-04-04T09:49:33Z</time></trkpt><trkpt lat="43.43097732670281" lon="10.888752729699819"><ele>170.0</ele><time>2026-04-04T09:49:34Z</time></trkpt><trkpt lat="43.431107980870316" lon="10.88885446521373"><ele>170.0</ele><time>2026-04-04T09:49:35Z</time></trkpt><trkpt lat="43.43123572728849" lon="10.888974525933712"><ele>170.0</ele><time>2026-04-04T09:49:36.001Z</time></trkpt><trkpt lat="43.431357993941155" lon="10.889121162801954"><ele>170.0</ele><time>2026-04-04T09:49:37.001Z</time></trkpt><trkpt lat="43.4314646030933" lon="10.889291163005051"><ele>170.0</ele><time>2026-04-04T09:49:38.001Z</time></trkpt><trkpt lat="43.43155140144396" lon="10.889479585326923"><ele>170.0</ele><time>2026-04-04T09:49:39.001Z</time></trkpt><trkpt lat="43.431618544193356" lon="10.889693921827236"><ele>170.0</ele><time>2026-04-04T09:49:40.001Z</time></trkpt><trkpt lat="43.43166087749841" lon="10.889925916830023"><ele>170.66666666666666</ele><time>2026-04-04T09:49:41.001Z</time></trkpt><trkpt lat="43.43168662940626" lon="10.890145755245388"><ele>171.33333333333334</ele><time>2026-04-04T09:49:42.001Z</time></trkpt><trkpt lat="43.43172163748325" lon="10.890381457592992"><ele>172.0</ele><time>2026-04-04T09:49:43.001Z</time></trkpt><trkpt lat="43.43175860864331" lon="10.890608804645263"><ele>172.0</ele><time>2026-04-04T09:49:44.001Z</time></trkpt><trkpt lat="43.431782125501485" lon="10.890832262679602"><ele>172.0</ele><time>2026-04-04T09:49:45.001Z</time></trkpt><trkpt lat="43.431800934065784" lon="10.891036407282702"><ele>172.0</ele><time>2026-04-04T09:49:46.001Z</time></trkpt><trkpt lat="43.431802140279004" lon="10.891232418766092"><ele>173.0</ele><time>2026-04-04T09:49:47.001Z</time></trkpt><trkpt lat="43.431792336953826" lon="10.891435500743043"><ele>174.0</ele><time>2026-04-04T09:49:48.001Z</time></trkpt><trkpt lat="43.431767548389644" lon="10.89164471252134"><ele>175.0</ele><time>2026-04-04T09:49:49.001Z</time></trkpt><trkpt lat="43.43174601527711" lon="10.891857873405334"><ele>175.4</ele><time>2026-04-04T09:49:50.001Z</time></trkpt><trkpt lat="43.43173208984559" lon="10.892032234143162"><ele>175.8</ele><time>2026-04-04T09:49:51.001Z</time></trkpt><trkpt lat="43.43173049434265" lon="10.892179138716452"><ele>176.2</ele><time>2026-04-04T09:49:52.001Z</time></trkpt><trkpt lat="43.43173106805616" lon="10.892311275568236"><ele>176.6</ele><time>2026-04-04T09:49:53.001Z</time></trkpt><trkpt lat="43.431739869045046" lon="10.892435567430137"><ele>177.0</ele><time>2026-04-04T09:49:54.001Z</time></trkpt><trkpt lat="43.43175091120295" lon="10.892545388396007"><ele>177.14285714285714</ele><time>2026-04-04T09:49:55.001Z</time></trkpt><trkpt lat="43.43176300192138" lon="10.892649554534184"><ele>177.28571428571428</ele><time>2026-04-04T09:49:56.001Z</time></trkpt><trkpt lat="43.431775283492215" lon="10.892744034363934"><ele>177.42857142857142</ele><time>2026-04-04T09:49:57.001Z</time></trkpt><trkpt lat="43.43179149071847" lon="10.89283207609792"><ele>177.57142857142856</ele><time>2026-04-04T09:49:58.001Z</time></trkpt><trkpt lat="43.43182764435527" lon="10.892936764295127"><ele>177.71428571428572</ele><time>2026-04-04T09:50:00.001Z</time></trkpt><trkpt lat="43.43186713614985" lon="10.893012907840042"><ele>177.85714285714283</ele><time>2026-04-04T09:50:04.001Z</time></trkpt><trkpt lat="43.43194640760385" lon="10.892984513637048"><ele>178.0</ele><time>2026-04-04T09:50:07.002Z</time></trkpt><trkpt lat="43.43206202783073" lon="10.892951587352071"><ele>177.0</ele><time>2026-04-04T09:50:09.002Z</time></trkpt><trkpt lat="43.43215148443104" lon="10.892938441490706"><ele>176.0</ele><time>2026-04-04T09:50:10.002Z</time></trkpt><trkpt lat="43.43225680211022" lon="10.892913100403105"><ele>175.0</ele><time>2026-04-04T09:50:11.002Z</time></trkpt><trkpt lat="43.43237511976083" lon="10.892886554000539"><ele>174.0</ele><time>2026-04-04T09:50:12.002Z</time></trkpt><trkpt lat="43.43249682545485" lon="10.892857153990636"><ele>173.0</ele><time>2026-04-04T09:50:13.002Z</time></trkpt><trkpt lat="43.432617314797376" lon="10.892820897262395"><ele>173.0</ele><time>2026-04-04T09:50:14.002Z</time></trkpt><trkpt lat="43.43273859232439" lon="10.892778425731532"><ele>173.0</ele><time>2026-04-04T09:50:15.002Z</time></trkpt><trkpt lat="43.43285647160544" lon="10.892737144042494"><ele>173.0</ele><time>2026-04-04T09:50:16.002Z</time></trkpt><trkpt lat="43.43296851937004" lon="10.892703121552898"><ele>173.0</ele><time>2026-04-04T09:50:17.002Z</time></trkpt><trkpt lat="43.43307383388811" lon="10.892684114721368"><ele>174.0</ele><time>2026-04-04T09:50:18.002Z</time></trkpt><trkpt lat="43.433170945749495" lon="10.892680662614051"><ele>175.0</ele><time>2026-04-04T09:50:19.002Z</time></trkpt><trkpt lat="43.43325627159629" lon="10.892701176372608"><ele>176.0</ele><time>2026-04-04T09:50:20.002Z</time></trkpt><trkpt lat="43.43333052139472" lon="10.892756554868964"><ele>177.0</ele><time>2026-04-04T09:50:21.002Z</time></trkpt><trkpt lat="43.43339839650622" lon="10.892838661863626"><ele>178.0</ele><time>2026-04-04T09:50:22.002Z</time></trkpt><trkpt lat="43.4334822742473" lon="10.892940331800963"><ele>178.0</ele><time>2026-04-04T09:50:23.002Z</time></trkpt><trkpt lat="43.433590816962045" lon="10.89304956175373"><ele>178.0</ele><time>2026-04-04T09:50:24.002Z</time></trkpt><trkpt lat="43.43371256837571" lon="10.893157023654993"><ele>178.0</ele><time>2026-04-04T09:50:25.002Z</time></trkpt><trkpt lat="43.43384594649027" lon="10.893263335847372"><ele>178.0</ele><time>2026-04-04T09:50:26.002Z</time></trkpt><trkpt lat="43.433968070879224" lon="10.89334158847684"><ele>178.60000000000002</ele><time>2026-04-04T09:50:27.002Z</time></trkpt><trkpt lat="43.43407830076818" lon="10.89340326115264"><ele>179.20000000000002</ele><time>2026-04-04T09:50:28.002Z</time></trkpt><trkpt lat="43.43417788583466" lon="10.893477107924442"><ele>179.8</ele><time>2026-04-04T09:50:29.002Z</time></trkpt><trkpt lat="43.4342659076708" lon="10.89356833355077"><ele>180.4</ele><time>2026-04-04T09:50:30.002Z</time></trkpt><trkpt lat="43.43434090355118" lon="10.893673017831897"><ele>181.0</ele><time>2026-04-04T09:50:31.002Z</time></trkpt><trkpt lat="43.43440605460179" lon="10.89377940629315"><ele>181.0</ele><time>2026-04-04T09:50:32.002Z</time></trkpt><trkpt lat="43.43445311669175" lon="10.893861039272112"><ele>181.0</ele><time>2026-04-04T09:50:33.002Z</time></trkpt><trkpt lat="43.43453110460918" lon="10.893973163094364"><ele>181.0</ele><time>2026-04-04T09:50:35.002Z</time></trkpt><trkpt lat="43.4346237470334" lon="10.894003102469883"><ele>181.0</ele><time>2026-04-04T09:50:37.002Z</time></trkpt><trkpt lat="43.434692866251794" lon="10.893920422273768"><ele>181.0</ele><time>2026-04-04T09:50:38.998Z</time></trkpt><trkpt lat="43.43469949463105" lon="10.893767700949441"><ele>183.33333333333334</ele><time>2026-04-04T09:50:40.999Z</time></trkpt><trkpt lat="43.43467865529381" lon="10.893603291227544"><ele>185.66666666666669</ele><time>2026-04-04T09:50:42.999Z</time></trkpt><trkpt lat="43.43466646305465" lon="10.893512023322991"><ele>188.0</ele><time>2026-04-04T09:50:43.999Z</time></trkpt><trkpt lat="43.4346609876164" lon="10.893411171463898"><ele>190.33333333333334</ele><time>2026-04-04T09:50:44.999Z</time></trkpt><trkpt lat="43.43466146458944" lon="10.893298061199525"><ele>192.66666666666666</ele><time>2026-04-04T09:50:45.999Z</time></trkpt><trkpt lat="43.43466219771492" lon="10.893172849639301"><ele>195.0</ele><time>2026-04-04T09:50:46.999Z</time></trkpt><trkpt lat="43.434666704205725" lon="10.893052257772606"><ele>195.33333333333334</ele><time>2026-04-04T09:50:47.999Z</time></trkpt><trkpt lat="43.434658503697136" lon="10.892937126076424"><ele>195.66666666666669</ele><time>2026-04-04T09:50:48.999Z</time></trkpt><trkpt lat="43.4346343345856" lon="10.892826783880091"><ele>196.0</ele><time>2026-04-04T09:50:49.999Z</time></trkpt><trkpt lat="43.43459675635236" lon="10.89271852907392"><ele>196.33333333333334</ele><time>2026-04-04T09:50:50.999Z</time></trkpt><trkpt lat="43.43454659471732" lon="10.892613617453488"><ele>196.66666666666669</ele><time>2026-04-04T09:50:51.999Z</time></trkpt><trkpt lat="43.434498299560566" lon="10.89250749561097"><ele>197.0</ele><time>2026-04-04T09:50:52.999Z</time></trkpt><trkpt lat="43.434458319085586" lon="10.892396657602427"><ele>197.00000000000003</ele><time>2026-04-04T09:50:53.999Z</time></trkpt><trkpt lat="43.4344188354915" lon="10.892282196924098"><ele>197.0</ele><time>2026-04-04T09:50:55Z</time></trkpt><trkpt lat="43.43439316052221" lon="10.892163427374939"><ele>197.0</ele><time>2026-04-04T09:50:56Z</time></trkpt><trkpt lat="43.43438688102798" lon="10.892042887741113"><ele>197.0</ele><time>2026-04-04T09:50:57Z</time></trkpt><trkpt lat="43.43439689399714" lon="10.89193282342349"><ele>197.00000000000003</ele><time>2026-04-04T09:50:58Z</time></trkpt><trkpt lat="43.434423428941166" lon="10.891813822640943"><ele>197.0</ele><time>2026-04-04T09:50:59Z</time></trkpt><trkpt lat="43.434466814327905" lon="10.89170467892325"><ele>197.8</ele><time>2026-04-04T09:51:00Z</time></trkpt><trkpt lat="43.43452650633392" lon="10.891626647082397"><ele>198.6</ele><time>2026-04-04T09:51:01Z</time></trkpt><trkpt lat="43.4346309749183" lon="10.891570121580328"><ele>199.4</ele><time>2026-04-04T09:51:03Z</time></trkpt><trkpt lat="43.43472828381936" lon="10.891636790820296"><ele>200.20000000000002</ele><time>2026-04-04T09:51:05Z</time></trkpt><trkpt lat="43.43477545688853" lon="10.891798110131557"><ele>201.0</ele><time>2026-04-04T09:51:07Z</time></trkpt><trkpt lat="43.43479664548339" lon="10.891898445230058"><ele>202.66666666666666</ele><time>2026-04-04T09:51:08Z</time></trkpt><trkpt lat="43.434814763604926" lon="10.892006533111768"><ele>204.33333333333331</ele><time>2026-04-04T09:51:09Z</time></trkpt><trkpt lat="43.43484568513897" lon="10.892108805937987"><ele>206.0</ele><time>2026-04-04T09:51:10Z</time></trkpt><trkpt lat="43.43489109454669" lon="10.892200140901087"><ele>207.66666666666666</ele><time>2026-04-04T09:51:11Z</time></trkpt><trkpt lat="43.434948842901655" lon="10.892276496731004"><ele>209.33333333333331</ele><time>2026-04-04T09:51:12Z</time></trkpt><trkpt lat="43.43502648974347" lon="10.892358695534304"><ele>211.0</ele><time>2026-04-04T09:51:13Z</time></trkpt><trkpt lat="43.43512426722342" lon="10.89245581448107"><ele>211.0</ele><time>2026-04-04T09:51:14Z</time></trkpt><trkpt lat="43.43522705006148" lon="10.892571086860507"><ele>211.0</ele><time>2026-04-04T09:51:15.001Z</time></trkpt><trkpt lat="43.435327989543715" lon="10.892696343842143"><ele>211.0</ele><time>2026-04-04T09:51:16.001Z</time></trkpt><trkpt lat="43.43544279720983" lon="10.892850059039393"><ele>211.0</ele><time>2026-04-04T09:51:17.001Z</time></trkpt><trkpt lat="43.4355636578331" lon="10.893028093595358"><ele>211.0</ele><time>2026-04-04T09:51:18.001Z</time></trkpt><trkpt lat="43.43567389644545" lon="10.893185976714507"><ele>211.0</ele><time>2026-04-04T09:51:19.001Z</time></trkpt><trkpt lat="43.43576438155828" lon="10.893323740683652"><ele>211.0</ele><time>2026-04-04T09:51:20.001Z</time></trkpt><trkpt lat="43.43584471723751" lon="10.893438217469624"><ele>211.0</ele><time>2026-04-04T09:51:21.001Z</time></trkpt><trkpt lat="43.435915931551335" lon="10.893537199992739"><ele>210.99999999999997</ele><time>2026-04-04T09:51:22.001Z</time></trkpt><trkpt lat="43.43597578213664" lon="10.893626267108353"><ele>211.0</ele><time>2026-04-04T09:51:23.001Z</time></trkpt><trkpt lat="43.43603709861921" lon="10.893698542702497"><ele>211.0</ele><time>2026-04-04T09:51:24.001Z</time></trkpt><trkpt lat="43.43610174302643" lon="10.893752052157739"><ele>211.0</ele><time>2026-04-04T09:51:25.001Z</time></trkpt><trkpt lat="43.436183749225535" lon="10.893795325201594"><ele>210.99999999999997</ele><time>2026-04-04T09:51:26.001Z</time></trkpt><trkpt lat="43.43629113800014" lon="10.893836584541678"><ele>211.0</ele><time>2026-04-04T09:51:27.001Z</time></trkpt><trkpt lat="43.436410904915924" lon="10.893870014530238"><ele>212.75</ele><time>2026-04-04T09:51:28.001Z</time></trkpt><trkpt lat="43.43653515410892" lon="10.89389322415885"><ele>214.5</ele><time>2026-04-04T09:51:29.001Z</time></trkpt><trkpt lat="43.43666485889887" lon="10.89391196906062"><ele>216.25</ele><time>2026-04-04T09:51:30.001Z</time></trkpt><trkpt lat="43.43679117345899" lon="10.893957574835596"><ele>218.0</ele><time>2026-04-04T09:51:31.001Z</time></trkpt><trkpt lat="43.43692582613814" lon="10.894026602863226"><ele>218.0</ele><time>2026-04-04T09:51:32.001Z</time></trkpt><trkpt lat="43.43706708186916" lon="10.894112882676724"><ele>218.0</ele><time>2026-04-04T09:51:33.001Z</time></trkpt><trkpt lat="43.437215317339465" lon="10.894232929029883"><ele>218.0</ele><time>2026-04-04T09:51:34.001Z</time></trkpt><trkpt lat="43.43734344034746" lon="10.894364381722406"><ele>220.25</ele><time>2026-04-04T09:51:35.001Z</time></trkpt><trkpt lat="43.43744068545595" lon="10.894491376798225"><ele>222.5</ele><time>2026-04-04T09:51:36.001Z</time></trkpt><trkpt lat="43.43751514286266" lon="10.894620368193365"><ele>224.75</ele><time>2026-04-04T09:51:37.001Z</time></trkpt><trkpt lat="43.4375782338182" lon="10.894753271968945"><ele>227.0</ele><time>2026-04-04T09:51:38.001Z</time></trkpt><trkpt lat="43.437633654678706" lon="10.894910823378908"><ele>227.0</ele><time>2026-04-04T09:51:39.001Z</time></trkpt><trkpt lat="43.43769156596777" lon="10.895085075536988"><ele>227.0</ele><time>2026-04-04T09:51:40.001Z</time></trkpt><trkpt lat="43.43774824079442" lon="10.89524911277255"><ele>227.0</ele><time>2026-04-04T09:51:41.001Z</time></trkpt><trkpt lat="43.437803394150755" lon="10.895369577674604"><ele>227.0</ele><time>2026-04-04T09:51:42.001Z</time></trkpt><trkpt lat="43.437856939191064" lon="10.89546181445745"><ele>227.33333333333334</ele><time>2026-04-04T09:51:43.002Z</time></trkpt><trkpt lat="43.43791433974239" lon="10.895544164463681"><ele>227.66666666666669</ele><time>2026-04-04T09:51:44.002Z</time></trkpt><trkpt lat="43.43797670628144" lon="10.89562443127226"><ele>228.0</ele><time>2026-04-04T09:51:45.002Z</time></trkpt><trkpt lat="43.4380430141135" lon="10.895691894440098"><ele>228.33333333333331</ele><time>2026-04-04T09:51:46.002Z</time></trkpt><trkpt lat="43.4381017867313" lon="10.895750209921822"><ele>228.66666666666666</ele><time>2026-04-04T09:51:47.002Z</time></trkpt><trkpt lat="43.43814600578909" lon="10.89582217104562"><ele>229.0</ele><time>2026-04-04T09:51:48.002Z</time></trkpt><trkpt lat="43.438176561999114" lon="10.895917452006696"><ele>229.6</ele><time>2026-04-04T09:51:49.002Z</time></trkpt><trkpt lat="43.438179404546084" lon="10.896029741283154"><ele>230.2</ele><time>2026-04-04T09:51:50.002Z</time></trkpt><trkpt lat="43.43816082072109" lon="10.896148229978385"><ele>230.79999999999998</ele><time>2026-04-04T09:51:51.002Z</time></trkpt><trkpt lat="43.4381433980818" lon="10.896276211424993"><ele>231.39999999999998</ele><time>2026-04-04T09:51:52.002Z</time></trkpt><trkpt lat="43.438155360402796" lon="10.896415016529666"><ele>232.0</ele><time>2026-04-04T09:51:53.002Z</time></trkpt><trkpt lat="43.438192930452196" lon="10.896560413355457"><ele>232.0</ele><time>2026-04-04T09:51:54.002Z</time></trkpt><trkpt lat="43.438241190615415" lon="10.896711138796002"><ele>232.0</ele><time>2026-04-04T09:51:55.002Z</time></trkpt><trkpt lat="43.43828707183935" lon="10.896868352785443"><ele>232.0</ele><time>2026-04-04T09:51:56.002Z</time></trkpt><trkpt lat="43.43832537264355" lon="10.897040257800297"><ele>232.0</ele><time>2026-04-04T09:51:57.002Z</time></trkpt><trkpt lat="43.43833852108917" lon="10.897219405463359"><ele>233.75</ele><time>2026-04-04T09:51:58.002Z</time></trkpt><trkpt lat="43.438337699188835" lon="10.897398733025174"><ele>235.5</ele><time>2026-04-04T09:51:59.002Z</time></trkpt><trkpt lat="43.438353590622235" lon="10.897567009778237"><ele>237.25</ele><time>2026-04-04T09:52:00.002Z</time></trkpt><trkpt lat="43.438400920674624" lon="10.897712445554994"><ele>239.0</ele><time>2026-04-04T09:52:01.002Z</time></trkpt><trkpt lat="43.43846623681231" lon="10.89784430892974"><ele>241.0</ele><time>2026-04-04T09:52:02.002Z</time></trkpt><trkpt lat="43.43854525110226" lon="10.89796299191551"><ele>243.0</ele><time>2026-04-04T09:52:03.002Z</time></trkpt><trkpt lat="43.4386264970692" lon="10.89808679721664"><ele>245.0</ele><time>2026-04-04T09:52:04.002Z</time></trkpt><trkpt lat="43.43868317430226" lon="10.898227281740603"><ele>247.0</ele><time>2026-04-04T09:52:05.002Z</time></trkpt><trkpt lat="43.4387152902656" lon="10.898377644873705"><ele>247.5</ele><time>2026-04-04T09:52:06.002Z</time></trkpt><trkpt lat="43.43874810824414" lon="10.898532235018108"><ele>248.0</ele><time>2026-04-04T09:52:07.002Z</time></trkpt><trkpt lat="43.43880001141258" lon="10.89867485269742"><ele>248.5</ele><time>2026-04-04T09:52:08.002Z</time></trkpt><trkpt lat="43.43887625579232" lon="10.898802158468474"><ele>249.0</ele><time>2026-04-04T09:52:09.002Z</time></trkpt><trkpt lat="43.43897942067928" lon="10.89892824932588"><ele>249.39999999999998</ele><time>2026-04-04T09:52:10.002Z</time></trkpt><trkpt lat="43.439092045373584" lon="10.89904195037583"><ele>249.79999999999998</ele><time>2026-04-04T09:52:11.002Z</time></trkpt><trkpt lat="43.43917709288413" lon="10.899139148744391"><ele>250.20000000000002</ele><time>2026-04-04T09:52:12.002Z</time></trkpt><trkpt lat="43.439250997845214" lon="10.899227543908873"><ele>250.60000000000002</ele><time>2026-04-04T09:52:13.002Z</time></trkpt><trkpt lat="43.439322147147045" lon="10.899311979943572"><ele>251.0</ele><time>2026-04-04T09:52:14.002Z</time></trkpt><trkpt lat="43.43938699749103" lon="10.899383733960722"><ele>250.33333333333334</ele><time>2026-04-04T09:52:15.002Z</time></trkpt><trkpt lat="43.43944734227108" lon="10.899440836726583"><ele>249.66666666666669</ele><time>2026-04-04T09:52:16.003Z</time></trkpt><trkpt lat="43.439504142632664" lon="10.899494220651093"><ele>249.0</ele><time>2026-04-04T09:52:17.003Z</time></trkpt><trkpt lat="43.43956185472785" lon="10.899565119380041"><ele>248.33333333333331</ele><time>2026-04-04T09:52:18.003Z</time></trkpt><trkpt lat="43.43961319919803" lon="10.899669306061536"><ele>247.66666666666666</ele><time>2026-04-04T09:52:19.003Z</time></trkpt><trkpt lat="43.43964112065734" lon="10.899803761924032"><ele>247.0</ele><time>2026-04-04T09:52:20.003Z</time></trkpt><trkpt lat="43.43965987518309" lon="10.899929069987028"><ele>247.0</ele><time>2026-04-04T09:52:21.003Z</time></trkpt><trkpt lat="43.43966273232791" lon="10.900055412418082"><ele>247.0</ele><time>2026-04-04T09:52:22.003Z</time></trkpt><trkpt lat="43.43965928186117" lon="10.9001933310029"><ele>247.0</ele><time>2026-04-04T09:52:23.003Z</time></trkpt><trkpt lat="43.43964813882275" lon="10.900336042578656"><ele>247.0</ele><time>2026-04-04T09:52:24.003Z</time></trkpt><trkpt lat="43.43963140454239" lon="10.900483276074135"><ele>247.0</ele><time>2026-04-04T09:52:25.003Z</time></trkpt><trkpt lat="43.43962428830525" lon="10.900633188237709"><ele>247.49999999999997</ele><time>2026-04-04T09:52:26.003Z</time></trkpt><trkpt lat="43.43961930598321" lon="10.900765256938298"><ele>248.0</ele><time>2026-04-04T09:52:27.003Z</time></trkpt><trkpt lat="43.4396175794363" lon="10.900887095604737"><ele>248.5</ele><time>2026-04-04T09:52:28.003Z</time></trkpt><trkpt lat="43.439609022271924" lon="10.901004926974304"><ele>249.0</ele><time>2026-04-04T09:52:29.003Z</time></trkpt><trkpt lat="43.439630985385065" lon="10.901124232974464"><ele>249.49999999999997</ele><time>2026-04-04T09:52:30.003Z</time></trkpt><trkpt lat="43.43965619988315" lon="10.901242302508681"><ele>250.0</ele><time>2026-04-04T09:52:31.003Z</time></trkpt><trkpt lat="43.43969701608921" lon="10.901357854550938"><ele>250.0</ele><time>2026-04-04T09:52:32.003Z</time></trkpt><trkpt lat="43.439753998282114" lon="10.901474054321984"><ele>250.0</ele><time>2026-04-04T09:52:33.003Z</time></trkpt><trkpt lat="43.43982041970951" lon="10.901598916088984"><ele>250.0</ele><time>2026-04-04T09:52:34.003Z</time></trkpt><trkpt lat="43.43988730463999" lon="10.901727176112733"><ele>250.0</ele><time>2026-04-04T09:52:35.003Z</time></trkpt><trkpt lat="43.43995417891858" lon="10.901862362950776"><ele>250.0</ele><time>2026-04-04T09:52:36.003Z</time></trkpt><trkpt lat="43.44002206083403" lon="10.901995517979435"><ele>251.0</ele><time>2026-04-04T09:52:37.003Z</time></trkpt><trkpt lat="43.44009442265486" lon="10.902112482322615"><ele>252.0</ele><time>2026-04-04T09:52:38.003Z</time></trkpt><trkpt lat="43.44017127384868" lon="10.902217684523425"><ele>253.0</ele><time>2026-04-04T09:52:39.003Z</time></trkpt><trkpt lat="43.44025933047988" lon="10.902319473778492"><ele>254.0</ele><time>2026-04-04T09:52:40.003Z</time></trkpt><trkpt lat="43.44036128147571" lon="10.902411132586245"><ele>252.0</ele><time>2026-04-04T09:52:41.003Z</time></trkpt><trkpt lat="43.44047798425674" lon="10.902495113237249"><ele>250.0</ele><time>2026-04-04T09:52:42.003Z</time></trkpt><trkpt lat="43.440605313447215" lon="10.902575838063637"><ele>248.0</ele><time>2026-04-04T09:52:43.003Z</time></trkpt><trkpt lat="43.440736140399665" lon="10.902640144465913"><ele>246.0</ele><time>2026-04-04T09:52:44.003Z</time></trkpt><trkpt lat="43.440865692186485" lon="10.90268514309978"><ele>245.5</ele><time>2026-04-04T09:52:44.999Z</time></trkpt><trkpt lat="43.44099589059987" lon="10.902710754494702"><ele>245.0</ele><time>2026-04-04T09:52:45.999Z</time></trkpt><trkpt lat="43.44112826897834" lon="10.902722176457901"><ele>244.5</ele><time>2026-04-04T09:52:46.999Z</time></trkpt><trkpt lat="43.441262326124786" lon="10.902726074122276"><ele>244.0</ele><time>2026-04-04T09:52:47.999Z</time></trkpt><trkpt lat="43.44139705127887" lon="10.902733575402863"><ele>244.0</ele><time>2026-04-04T09:52:48.999Z</time></trkpt><trkpt lat="43.44153313235837" lon="10.902750883490652"><ele>244.0</ele><time>2026-04-04T09:52:49.999Z</time></trkpt><trkpt lat="43.441669784960055" lon="10.902791700411566"><ele>244.0</ele><time>2026-04-04T09:52:50.999Z</time></trkpt><trkpt lat="43.441812019314234" lon="10.902858261689108"><ele>244.0</ele><time>2026-04-04T09:52:51.999Z</time></trkpt><trkpt lat="43.441952064188804" lon="10.90294917803766"><ele>244.0</ele><time>2026-04-04T09:52:52.999Z</time></trkpt><trkpt lat="43.44208464199922" lon="10.903055871612226"><ele>244.0</ele><time>2026-04-04T09:52:53.999Z</time></trkpt><trkpt lat="43.442212219401064" lon="10.903172767305973"><ele>244.0</ele><time>2026-04-04T09:52:54.999Z</time></trkpt><trkpt lat="43.44233737833836" lon="10.903283950757059"><ele>244.5</ele><time>2026-04-04T09:52:56Z</time></trkpt><trkpt lat="43.44245603881769" lon="10.903399515057858"><ele>245.0</ele><time>2026-04-04T09:52:57Z</time></trkpt><trkpt lat="43.44257186190787" lon="10.903516672916181"><ele>245.5</ele><time>2026-04-04T09:52:58Z</time></trkpt><trkpt lat="43.442684430653145" lon="10.903627261816666"><ele>246.0</ele><time>2026-04-04T09:52:59Z</time></trkpt><trkpt lat="43.44279768907134" lon="10.903735167473098"><ele>245.75</ele><time>2026-04-04T09:53:00Z</time></trkpt><trkpt lat="43.442915157336735" lon="10.903834154730871"><ele>245.5</ele><time>2026-04-04T09:53:01Z</time></trkpt><trkpt lat="43.443033878153855" lon="10.903931279347022"><ele>245.25</ele><time>2026-04-04T09:53:02Z</time></trkpt><trkpt lat="43.443157889027" lon="10.904032375981028"><ele>245.0</ele><time>2026-04-04T09:53:03Z</time></trkpt><trkpt lat="43.443278070881234" lon="10.90414471343047"><ele>243.75</ele><time>2026-04-04T09:53:04Z</time></trkpt><trkpt lat="43.44339291141261" lon="10.904260893787532"><ele>242.5</ele><time>2026-04-04T09:53:05Z</time></trkpt><trkpt lat="43.443503197810124" lon="10.904366085303346"><ele>241.25</ele><time>2026-04-04T09:53:06Z</time></trkpt><trkpt lat="43.44361838929732" lon="10.90446902073147"><ele>240.0</ele><time>2026-04-04T09:53:07Z</time></trkpt><trkpt lat="43.443740267930124" lon="10.904576624706076"><ele>242.75</ele><time>2026-04-04T09:53:08Z</time></trkpt><trkpt lat="43.44386612178665" lon="10.904683778684719"><ele>245.5</ele><time>2026-04-04T09:53:09Z</time></trkpt><trkpt lat="43.44398085095581" lon="10.904785496388925"><ele>248.25</ele><time>2026-04-04T09:53:10Z</time></trkpt><trkpt lat="43.444092010451115" lon="10.904902195899886"><ele>251.0</ele><time>2026-04-04T09:53:11Z</time></trkpt><trkpt lat="43.44419252252896" lon="10.905003924527598"><ele>250.25</ele><time>2026-04-04T09:53:12Z</time></trkpt><trkpt lat="43.44426458918292" lon="10.905114957952724"><ele>249.5</ele><time>2026-04-04T09:53:13Z</time></trkpt><trkpt lat="43.44433284762123" lon="10.905243798700809"><ele>248.75</ele><time>2026-04-04T09:53:14Z</time></trkpt><trkpt lat="43.44440123330501" lon="10.905392269151442"><ele>248.0</ele><time>2026-04-04T09:53:15Z</time></trkpt><trkpt lat="43.44447107361738" lon="10.905556088922046"><ele>248.0</ele><time>2026-04-04T09:53:16Z</time></trkpt><trkpt lat="43.44455049236828" lon="10.905731560302359"><ele>248.0</ele><time>2026-04-04T09:53:17Z</time></trkpt><trkpt lat="43.4446522881564" lon="10.905871934530122"><ele>248.0</ele><time>2026-04-04T09:53:18Z</time></trkpt><trkpt lat="43.44474799937249" lon="10.906021617148905"><ele>248.0</ele><time>2026-04-04T09:53:19Z</time></trkpt><trkpt lat="43.44486075351156" lon="10.906156699866532"><ele>249.0</ele><time>2026-04-04T09:53:20Z</time></trkpt><trkpt lat="43.44496559593082" lon="10.906297247759937"><ele>250.0</ele><time>2026-04-04T09:53:21.001Z</time></trkpt><trkpt lat="43.44506032481417" lon="10.906431151029285"><ele>251.0</ele><time>2026-04-04T09:53:22.001Z</time></trkpt><trkpt lat="43.445154977694834" lon="10.906565854237995"><ele>252.0</ele><time>2026-04-04T09:53:23.001Z</time></trkpt><trkpt lat="43.44525275179815" lon="10.906715315386863"><ele>251.75</ele><time>2026-04-04T09:53:24.001Z</time></trkpt><trkpt lat="43.44534572894328" lon="10.906875131755452"><ele>251.5</ele><time>2026-04-04T09:53:25.001Z</time></trkpt><trkpt lat="43.44543480478419" lon="10.907035717703485"><ele>251.25</ele><time>2026-04-04T09:53:26.001Z</time></trkpt><trkpt lat="43.445524903755796" lon="10.907192335528737"><ele>251.0</ele><time>2026-04-04T09:53:27.001Z</time></trkpt><trkpt lat="43.44561535644613" lon="10.907344640199508"><ele>252.0</ele><time>2026-04-04T09:53:28.001Z</time></trkpt><trkpt lat="43.44570471399021" lon="10.907488931610429"><ele>253.0</ele><time>2026-04-04T09:53:29.001Z</time></trkpt><trkpt lat="43.44578671616745" lon="10.907613112838254"><ele>254.0</ele><time>2026-04-04T09:53:30.001Z</time></trkpt><trkpt lat="43.44586354205508" lon="10.907736516844134"><ele>255.0</ele><time>2026-04-04T09:53:31.001Z</time></trkpt><trkpt lat="43.445932630378934" lon="10.907904085263779"><ele>255.5</ele><time>2026-04-04T09:53:32.001Z</time></trkpt><trkpt lat="43.445999835566" lon="10.908067860240777"><ele>256.0</ele><time>2026-04-04T09:53:33.001Z</time></trkpt><trkpt lat="43.44604929871177" lon="10.908219558192938"><ele>256.5</ele><time>2026-04-04T09:53:34.001Z</time></trkpt><trkpt lat="43.44607691575968" lon="10.908350330291617"><ele>257.0</ele><time>2026-04-04T09:53:35.001Z</time></trkpt><trkpt lat="43.44610490903739" lon="10.908486961907366"><ele>257.2</ele><time>2026-04-04T09:53:36.001Z</time></trkpt><trkpt lat="43.446142106185896" lon="10.908622961864141"><ele>257.4</ele><time>2026-04-04T09:53:37.001Z</time></trkpt><trkpt lat="43.44618601928495" lon="10.90875782908863"><ele>257.6</ele><time>2026-04-04T09:53:38.001Z</time></trkpt><trkpt lat="43.44623380086745" lon="10.908884760984828"><ele>257.8</ele><time>2026-04-04T09:53:39.001Z</time></trkpt><trkpt lat="43.44628227974558" lon="10.909003477159688"><ele>258.0</ele><time>2026-04-04T09:53:40.001Z</time></trkpt><trkpt lat="43.44633432326052" lon="10.909121528398725"><ele>258.0</ele><time>2026-04-04T09:53:41.001Z</time></trkpt><trkpt lat="43.44638981426576" lon="10.909231329926683"><ele>258.0</ele><time>2026-04-04T09:53:42.001Z</time></trkpt><trkpt lat="43.44644263739938" lon="10.909324392546297"><ele>258.0</ele><time>2026-04-04T09:53:43.001Z</time></trkpt><trkpt lat="43.44651189287363" lon="10.90939753164747"><ele>258.0</ele><time>2026-04-04T09:53:44.001Z</time></trkpt><trkpt lat="43.446596947367695" lon="10.909454614712873"><ele>258.0</ele><time>2026-04-04T09:53:45.001Z</time></trkpt><trkpt lat="43.44669618653423" lon="10.909499128977783"><ele>258.75</ele><time>2026-04-04T09:53:46.001Z</time></trkpt><trkpt lat="43.44680398047221" lon="10.909540093001919"><ele>259.5</ele><time>2026-04-04T09:53:47.001Z</time></trkpt><trkpt lat="43.446918724070464" lon="10.909583953319958"><ele>260.25</ele><time>2026-04-04T09:53:48.001Z</time></trkpt><trkpt lat="43.44703781467556" lon="10.909631508415497"><ele>261.0</ele><time>2026-04-04T09:53:49.001Z</time></trkpt><trkpt lat="43.447155834910866" lon="10.909687503675089"><ele>262.5</ele><time>2026-04-04T09:53:50.001Z</time></trkpt><trkpt lat="43.44727705176832" lon="10.909751737091323"><ele>264.0</ele><time>2026-04-04T09:53:51.002Z</time></trkpt><trkpt lat="43.4473926214905" lon="10.909828125027285"><ele>265.5</ele><time>2026-04-04T09:53:52.002Z</time></trkpt><trkpt lat="43.44750555671896" lon="10.909909904566462"><ele>267.0</ele><time>2026-04-04T09:53:53.002Z</time></trkpt><trkpt lat="43.4476203607259" lon="10.909982093305306"><ele>267.0</ele><time>2026-04-04T09:53:54.002Z</time></trkpt><trkpt lat="43.44773953694569" lon="10.910045821819486"><ele>267.0</ele><time>2026-04-04T09:53:55.002Z</time></trkpt><trkpt lat="43.447851341445705" lon="10.910105706011356"><ele>267.0</ele><time>2026-04-04T09:53:56.002Z</time></trkpt><trkpt lat="43.447964355068734" lon="10.91016859813199"><ele>267.0</ele><time>2026-04-04T09:53:57.002Z</time></trkpt><trkpt lat="43.4480744374205" lon="10.910232182425348"><ele>268.25</ele><time>2026-04-04T09:53:58.002Z</time></trkpt><trkpt lat="43.448179887871376" lon="10.910295371603345"><ele>269.5</ele><time>2026-04-04T09:53:59.002Z</time></trkpt><trkpt lat="43.44827719087337" lon="10.910367496314043"><ele>270.75</ele><time>2026-04-04T09:54:00.002Z</time></trkpt><trkpt lat="43.448368302362056" lon="10.910449099887838"><ele>272.0</ele><time>2026-04-04T09:54:01.002Z</time></trkpt><trkpt lat="43.4484671441049" lon="10.910543919844194"><ele>272.0</ele><time>2026-04-04T09:54:02.002Z</time></trkpt><trkpt lat="43.44857161550548" lon="10.91064097113018"><ele>272.0</ele><time>2026-04-04T09:54:03.002Z</time></trkpt><trkpt lat="43.4486847730582" lon="10.910723314718362"><ele>272.0</ele><time>2026-04-04T09:54:04.002Z</time></trkpt><trkpt lat="43.44881054314779" lon="10.910796512653604"><ele>272.0</ele><time>2026-04-04T09:54:05.002Z</time></trkpt><trkpt lat="43.44894816621174" lon="10.910844642664026"><ele>272.33333333333337</ele><time>2026-04-04T09:54:06.002Z</time></trkpt><trkpt lat="43.44909041848251" lon="10.91088105046475"><ele>272.6666666666667</ele><time>2026-04-04T09:54:07.002Z</time></trkpt><trkpt lat="43.44923487149844" lon="10.910932586381998"><ele>273.0</ele><time>2026-04-04T09:54:08.002Z</time></trkpt><trkpt lat="43.44938292843878" lon="10.911004909904099"><ele>273.0</ele><time>2026-04-04T09:54:09.002Z</time></trkpt><trkpt lat="43.44953309485654" lon="10.911081388961117"><ele>273.0</ele><time>2026-04-04T09:54:10.002Z</time></trkpt><trkpt lat="43.4496728621887" lon="10.911158214751662"><ele>273.0</ele><time>2026-04-04T09:54:11.002Z</time></trkpt><trkpt lat="43.449809266158994" lon="10.911232375060617"><ele>274.25</ele><time>2026-04-04T09:54:12.002Z</time></trkpt><trkpt lat="43.44993905686014" lon="10.91130734688826"><ele>275.5</ele><time>2026-04-04T09:54:13.002Z</time></trkpt><trkpt lat="43.450064688352434" lon="10.911382263040803"><ele>276.75</ele><time>2026-04-04T09:54:14.002Z</time></trkpt><trkpt lat="43.450194414842564" lon="10.911454801132038"><ele>278.0</ele><time>2026-04-04T09:54:15.002Z</time></trkpt><trkpt lat="43.45031419206733" lon="10.91152632887111"><ele>278.0</ele><time>2026-04-04T09:54:16.002Z</time></trkpt><trkpt lat="43.45041880187216" lon="10.91160016807661"><ele>278.0</ele><time>2026-04-04T09:54:17.002Z</time></trkpt><trkpt lat="43.450509341734545" lon="10.911676198687458"><ele>278.0</ele><time>2026-04-04T09:54:18.002Z</time></trkpt><trkpt lat="43.450586585247414" lon="10.911753779971972"><ele>278.0</ele><time>2026-04-04T09:54:19.002Z</time></trkpt><trkpt lat="43.450642776869024" lon="10.911838807197702"><ele>278.0</ele><time>2026-04-04T09:54:20.002Z</time></trkpt><trkpt lat="43.450685794344714" lon="10.911921226169563"><ele>278.83333333333337</ele><time>2026-04-04T09:54:21.002Z</time></trkpt><trkpt lat="43.450740495728354" lon="10.911990835180367"><ele>279.6666666666667</ele><time>2026-04-04T09:54:22.002Z</time></trkpt><trkpt lat="43.450818927605944" lon="10.912019871774708"><ele>280.5</ele><time>2026-04-04T09:54:23.002Z</time></trkpt><trkpt lat="43.45090739446552" lon="10.912016920975887"><ele>281.3333333333333</ele><time>2026-04-04T09:54:24.003Z</time></trkpt><trkpt lat="43.45099340007623" lon="10.911991510863231"><ele>282.16666666666663</ele><time>2026-04-04T09:54:25.003Z</time></trkpt><trkpt lat="43.451074728105475" lon="10.911971129491711"><ele>283.0</ele><time>2026-04-04T09:54:26.003Z</time></trkpt><trkpt lat="43.45115688535842" lon="10.911970288133617"><ele>283.0</ele><time>2026-04-04T09:54:27.003Z</time></trkpt><trkpt lat="43.451231726923076" lon="10.911993518907137"><ele>283.0</ele><time>2026-04-04T09:54:28.003Z</time></trkpt><trkpt lat="43.45130931278106" lon="10.912038803053406"><ele>283.0</ele><time>2026-04-04T09:54:29.003Z</time></trkpt><trkpt lat="43.45139689773372" lon="10.912080685349798"><ele>283.0</ele><time>2026-04-04T09:54:30.003Z</time></trkpt><trkpt lat="43.45149924588488" lon="10.912118786414682"><ele>283.0</ele><time>2026-04-04T09:54:31.003Z</time></trkpt><trkpt lat="43.451613034293764" lon="10.912143145910287"><ele>284.0</ele><time>2026-04-04T09:54:32.003Z</time></trkpt><trkpt lat="43.45174524733658" lon="10.912151620395536"><ele>285.0</ele><time>2026-04-04T09:54:33.003Z</time></trkpt><trkpt lat="43.45188765087563" lon="10.912143186589638"><ele>286.0</ele><time>2026-04-04T09:54:34.003Z</time></trkpt><trkpt lat="43.45202887794134" lon="10.912135615667557"><ele>287.0</ele><time>2026-04-04T09:54:35.003Z</time></trkpt><trkpt lat="43.45216558411409" lon="10.912150884544715"><ele>288.25</ele><time>2026-04-04T09:54:36.003Z</time></trkpt><trkpt lat="43.452295174426716" lon="10.912182033860093"><ele>289.5</ele><time>2026-04-04T09:54:37.003Z</time></trkpt><trkpt lat="43.45240761695963" lon="10.912235538876565"><ele>290.75</ele><time>2026-04-04T09:54:38.003Z</time></trkpt><trkpt lat="43.45249957273932" lon="10.912299803774513"><ele>292.0</ele><time>2026-04-04T09:54:39.003Z</time></trkpt><trkpt lat="43.45259425738137" lon="10.912358610836561"><ele>292.0</ele><time>2026-04-04T09:54:40.003Z</time></trkpt><trkpt lat="43.45269609249912" lon="10.912392066505655"><ele>292.0</ele><time>2026-04-04T09:54:41.003Z</time></trkpt><trkpt lat="43.45280741588887" lon="10.91238379709461"><ele>292.0</ele><time>2026-04-04T09:54:42.003Z</time></trkpt><trkpt lat="43.45293207558797" lon="10.912362947839858"><ele>292.0</ele><time>2026-04-04T09:54:43.003Z</time></trkpt><trkpt lat="43.453058937374884" lon="10.91233031040975"><ele>292.4</ele><time>2026-04-04T09:54:44.003Z</time></trkpt><trkpt lat="43.453179237705655" lon="10.912287501725825"><ele>292.79999999999995</ele><time>2026-04-04T09:54:45.003Z</time></trkpt><trkpt lat="43.45329421298974" lon="10.91224986388055"><ele>293.2</ele><time>2026-04-04T09:54:46.003Z</time></trkpt><trkpt lat="43.4533991378449" lon="10.912211322237575"><ele>293.59999999999997</ele><time>2026-04-04T09:54:47.003Z</time></trkpt><trkpt lat="43.453490370017" lon="10.912182721354032"><ele>294.0</ele><time>2026-04-04T09:54:48.003Z</time></trkpt><trkpt lat="43.453572111103256" lon="10.912171524230773"><ele>294.0</ele><time>2026-04-04T09:54:49.003Z</time></trkpt><trkpt lat="43.453654415191004" lon="10.912175254689885"><ele>294.0</ele><time>2026-04-04T09:54:50.003Z</time></trkpt><trkpt lat="43.45373782162827" lon="10.912185810483043"><ele>294.0</ele><time>2026-04-04T09:54:51Z</time></trkpt><trkpt lat="43.45381786101886" lon="10.912208618769252"><ele>294.0</ele><time>2026-04-04T09:54:52Z</time></trkpt><trkpt lat="43.453889283266236" lon="10.912239921920904"><ele>294.0</ele><time>2026-04-04T09:54:53Z</time></trkpt><trkpt lat="43.453961220458915" lon="10.9122704243605"><ele>294.0</ele><time>2026-04-04T09:54:54Z</time></trkpt><trkpt lat="43.454034807636056" lon="10.912301274691378"><ele>293.59999999999997</ele><time>2026-04-04T09:54:55Z</time></trkpt><trkpt lat="43.45411887677033" lon="10.912319774878577"><ele>293.2</ele><time>2026-04-04T09:54:56Z</time></trkpt><trkpt lat="43.454205644646386" lon="10.912327492688618"><ele>292.79999999999995</ele><time>2026-04-04T09:54:57Z</time></trkpt><trkpt lat="43.45429302516995" lon="10.91232862300939"><ele>292.4</ele><time>2026-04-04T09:54:58Z</time></trkpt><trkpt lat="43.4543869630399" lon="10.912319511653108"><ele>292.0</ele><time>2026-04-04T09:54:59Z</time></trkpt><trkpt lat="43.45448461984755" lon="10.91230237271399"><ele>292.0</ele><time>2026-04-04T09:55:00Z</time></trkpt><trkpt lat="43.45458034660165" lon="10.912279208266217"><ele>292.0</ele><time>2026-04-04T09:55:01Z</time></trkpt><trkpt lat="43.454671783486035" lon="10.912238660063885"><ele>292.0</ele><time>2026-04-04T09:55:02Z</time></trkpt><trkpt lat="43.45475847900843" lon="10.91218489538755"><ele>292.0</ele><time>2026-04-04T09:55:03Z</time></trkpt><trkpt lat="43.454842475857504" lon="10.912121454398843"><ele>292.0</ele><time>2026-04-04T09:55:04Z</time></trkpt><trkpt lat="43.45491913550587" lon="10.912060120793292"><ele>290.3333333333333</ele><time>2026-04-04T09:55:05Z</time></trkpt><trkpt lat="43.45499810126746" lon="10.912027665530703"><ele>288.66666666666663</ele><time>2026-04-04T09:55:06Z</time></trkpt><trkpt lat="43.45508185972669" lon="10.91201808343478"><ele>287.0</ele><time>2026-04-04T09:55:07Z</time></trkpt><trkpt lat="43.455165383889266" lon="10.912008441433082"><ele>285.3333333333333</ele><time>2026-04-04T09:55:08Z</time></trkpt><trkpt lat="43.455253866588926" lon="10.91199184976141"><ele>283.6666666666667</ele><time>2026-04-04T09:55:09Z</time></trkpt><trkpt lat="43.455345957076055" lon="10.911979889557458"><ele>282.0</ele><time>2026-04-04T09:55:10Z</time></trkpt><trkpt lat="43.45543814683494" lon="10.911963595993473"><ele>280.3333333333333</ele><time>2026-04-04T09:55:11Z</time></trkpt><trkpt lat="43.455528396271674" lon="10.91193429019481"><ele>278.6666666666667</ele><time>2026-04-04T09:55:12Z</time></trkpt><trkpt lat="43.45561555231222" lon="10.91190835928522"><ele>277.0</ele><time>2026-04-04T09:55:13Z</time></trkpt><trkpt lat="43.45569694777484" lon="10.911877735996338"><ele>275.33333333333337</ele><time>2026-04-04T09:55:14Z</time></trkpt><trkpt lat="43.45577103485689" lon="10.91184738977146"><ele>273.6666666666667</ele><time>2026-04-04T09:55:15Z</time></trkpt><trkpt lat="43.45584157411677" lon="10.91181458212159"><ele>272.0</ele><time>2026-04-04T09:55:16Z</time></trkpt><trkpt lat="43.45590885273159" lon="10.911780775754101"><ele>272.0</ele><time>2026-04-04T09:55:17Z</time></trkpt><trkpt lat="43.45597267667859" lon="10.911748487726022"><ele>272.0</ele><time>2026-04-04T09:55:18Z</time></trkpt><trkpt lat="43.456036148410114" lon="10.911714861924223"><ele>272.0</ele><time>2026-04-04T09:55:19Z</time></trkpt><trkpt lat="43.45609913017522" lon="10.911688737284784"><ele>272.0</ele><time>2026-04-04T09:55:20Z</time></trkpt><trkpt lat="43.456158727617485" lon="10.911657090596691"><ele>272.0</ele><time>2026-04-04T09:55:21Z</time></trkpt><trkpt lat="43.456252837664664" lon="10.9116116468725"><ele>272.0</ele><time>2026-04-04T09:55:23.001Z</time></trkpt><trkpt lat="43.456328790522" lon="10.911536195465779"><ele>272.5</ele><time>2026-04-04T09:55:26.001Z</time></trkpt><trkpt lat="43.45629663011006" lon="10.911317707570852"><ele>273.0</ele><time>2026-04-04T09:55:28.001Z</time></trkpt><trkpt lat="43.45624345666159" lon="10.911225833896776"><ele>273.5</ele><time>2026-04-04T09:55:29.001Z</time></trkpt><trkpt lat="43.45618270584866" lon="10.911098770819365"><ele>274.0</ele><time>2026-04-04T09:55:30.001Z</time></trkpt><trkpt lat="43.45613201653136" lon="10.910942334854793"><ele>274.3333333333333</ele><time>2026-04-04T09:55:31.001Z</time></trkpt><trkpt lat="43.45608702767731" lon="10.910759711372332"><ele>274.6666666666667</ele><time>2026-04-04T09:55:32.001Z</time></trkpt><trkpt lat="43.45603306053062" lon="10.91053632712217"><ele>275.0</ele><time>2026-04-04T09:55:33.001Z</time></trkpt><trkpt lat="43.45597264737576" lon="10.910285157546042"><ele>275.33333333333337</ele><time>2026-04-04T09:55:34.001Z</time></trkpt><trkpt lat="43.455894237218715" lon="10.910028817093238"><ele>275.6666666666667</ele><time>2026-04-04T09:55:35.001Z</time></trkpt><trkpt lat="43.45583326412076" lon="10.909729292917298"><ele>276.0</ele><time>2026-04-04T09:55:36.001Z</time></trkpt><trkpt lat="43.45575295314588" lon="10.90947805796416"><ele>276.0</ele><time>2026-04-04T09:55:37.001Z</time></trkpt><trkpt lat="43.455697036560395" lon="10.90925859845914"><ele>276.0</ele><time>2026-04-04T09:55:38.001Z</time></trkpt><trkpt lat="43.45564951239086" lon="10.909059361760784"><ele>276.0</ele><time>2026-04-04T09:55:39.001Z</time></trkpt><trkpt lat="43.45560278533073" lon="10.908869645155205"><ele>276.5</ele><time>2026-04-04T09:55:40.001Z</time></trkpt><trkpt lat="43.455554778582545" lon="10.908676161856532"><ele>277.0</ele><time>2026-04-04T09:55:41.001Z</time></trkpt><trkpt lat="43.45551033240176" lon="10.908486491440812"><ele>277.5</ele><time>2026-04-04T09:55:42.001Z</time></trkpt><trkpt lat="43.45546639064054" lon="10.908309116507315"><ele>278.0</ele><time>2026-04-04T09:55:43.001Z</time></trkpt><trkpt lat="43.45543235728269" lon="10.908139297143734"><ele>280.4</ele><time>2026-04-04T09:55:44.001Z</time></trkpt><trkpt lat="43.4554081828983" lon="10.90799395870473"><ele>282.8</ele><time>2026-04-04T09:55:45.001Z</time></trkpt><trkpt lat="43.45539702578919" lon="10.90785526660223"><ele>285.2</ele><time>2026-04-04T09:55:46.001Z</time></trkpt><trkpt lat="43.45539575336951" lon="10.907717030193014"><ele>287.6</ele><time>2026-04-04T09:55:47.001Z</time></trkpt><trkpt lat="43.45540548779777" lon="10.907574024921932"><ele>290.0</ele><time>2026-04-04T09:55:48.001Z</time></trkpt><trkpt lat="43.45542799067598" lon="10.907416435594136"><ele>289.75</ele><time>2026-04-04T09:55:49.001Z</time></trkpt><trkpt lat="43.455450806147596" lon="10.907236735088793"><ele>289.5</ele><time>2026-04-04T09:55:50.001Z</time></trkpt><trkpt lat="43.45548868585481" lon="10.907054591833017"><ele>289.25</ele><time>2026-04-04T09:55:51.001Z</time></trkpt><trkpt lat="43.45553410363045" lon="10.9068661390973"><ele>289.0</ele><time>2026-04-04T09:55:52.001Z</time></trkpt><trkpt lat="43.45557859640844" lon="10.906673077097704"><ele>289.0</ele><time>2026-04-04T09:55:53.001Z</time></trkpt><trkpt lat="43.45562064649832" lon="10.906484530197696"><ele>289.0</ele><time>2026-04-04T09:55:54.002Z</time></trkpt><trkpt lat="43.45565887404916" lon="10.906304004321518"><ele>289.0</ele><time>2026-04-04T09:55:55.002Z</time></trkpt><trkpt lat="43.45569909802134" lon="10.906132409447311"><ele>289.0</ele><time>2026-04-04T09:55:56.002Z</time></trkpt><trkpt lat="43.455732565156964" lon="10.905941278970126"><ele>289.75</ele><time>2026-04-04T09:55:57.002Z</time></trkpt><trkpt lat="43.45578265438829" lon="10.905747173871864"><ele>290.5</ele><time>2026-04-04T09:55:58.002Z</time></trkpt><trkpt lat="43.455814584613826" lon="10.905560823269143"><ele>291.25</ele><time>2026-04-04T09:55:59.002Z</time></trkpt><trkpt lat="43.45583150805917" lon="10.905378340682594"><ele>292.0</ele><time>2026-04-04T09:56:00.002Z</time></trkpt><trkpt lat="43.45586706253579" lon="10.905200496860452"><ele>293.8</ele><time>2026-04-04T09:56:01.002Z</time></trkpt><trkpt lat="43.45590103135954" lon="10.905041562677418"><ele>295.6</ele><time>2026-04-04T09:56:02.002Z</time></trkpt><trkpt lat="43.45593500852604" lon="10.904907520186482"><ele>297.40000000000003</ele><time>2026-04-04T09:56:03.002Z</time></trkpt><trkpt lat="43.4560021968696" lon="10.904815381150325"><ele>299.2</ele><time>2026-04-04T09:56:04.002Z</time></trkpt><trkpt lat="43.456051324505786" lon="10.9047307470601"><ele>301.0</ele><time>2026-04-04T09:56:05.002Z</time></trkpt><trkpt lat="43.4561189303384" lon="10.904679626350376"><ele>301.0</ele><time>2026-04-04T09:56:06.002Z</time></trkpt><trkpt lat="43.45620382889811" lon="10.904632269517432"><ele>301.0</ele><time>2026-04-04T09:56:07.002Z</time></trkpt><trkpt lat="43.456305327627376" lon="10.904593922569518"><ele>301.0</ele><time>2026-04-04T09:56:08.002Z</time></trkpt><trkpt lat="43.45642207027647" lon="10.904552360125034"><ele>301.0</ele><time>2026-04-04T09:56:09.002Z</time></trkpt><trkpt lat="43.45653862431338" lon="10.90449986579767"><ele>301.0</ele><time>2026-04-04T09:56:10.002Z</time></trkpt><trkpt lat="43.45663893464935" lon="10.90444775292384"><ele>299.6</ele><time>2026-04-04T09:56:11.002Z</time></trkpt><trkpt lat="43.45672766555912" lon="10.9044015030745"><ele>298.20000000000005</ele><time>2026-04-04T09:56:12.002Z</time></trkpt><trkpt lat="43.45680691999377" lon="10.904364392536062"><ele>296.79999999999995</ele><time>2026-04-04T09:56:13.002Z</time></trkpt><trkpt lat="43.45688950564152" lon="10.90433149693022"><ele>295.4</ele><time>2026-04-04T09:56:14.002Z</time></trkpt><trkpt lat="43.45698081131432" lon="10.904304429226517"><ele>294.0</ele><time>2026-04-04T09:56:15.002Z</time></trkpt><trkpt lat="43.45707690108869" lon="10.904263311726975"><ele>295.8</ele><time>2026-04-04T09:56:16.002Z</time></trkpt><trkpt lat="43.457177616888245" lon="10.90422167684826"><ele>297.59999999999997</ele><time>2026-04-04T09:56:17.002Z</time></trkpt><trkpt lat="43.45728080531272" lon="10.904187984784187"><ele>299.4</ele><time>2026-04-04T09:56:18.002Z</time></trkpt><trkpt lat="43.45737342931008" lon="10.904149953011599"><ele>301.2</ele><time>2026-04-04T09:56:19.002Z</time></trkpt><trkpt lat="43.4574591827689" lon="10.904106087122447"><ele>303.0</ele><time>2026-04-04T09:56:20.002Z</time></trkpt><trkpt lat="43.45753628772061" lon="10.904046253048788"><ele>303.0</ele><time>2026-04-04T09:56:21.002Z</time></trkpt><trkpt lat="43.45760164880518" lon="10.903978866219202"><ele>303.0</ele><time>2026-04-04T09:56:22.002Z</time></trkpt><trkpt lat="43.457657868515454" lon="10.903888954355985"><ele>303.0</ele><time>2026-04-04T09:56:23.002Z</time></trkpt><trkpt lat="43.45771264973772" lon="10.903771232994355"><ele>303.0</ele><time>2026-04-04T09:56:24.002Z</time></trkpt><trkpt lat="43.45777343791377" lon="10.903667511235243"><ele>303.0</ele><time>2026-04-04T09:56:25.002Z</time></trkpt><trkpt lat="43.45780980027803" lon="10.90354660017026"><ele>303.0</ele><time>2026-04-04T09:56:26.002Z</time></trkpt><trkpt lat="43.45783513900823" lon="10.903425468301565"><ele>303.0</ele><time>2026-04-04T09:56:27.003Z</time></trkpt><trkpt lat="43.45784611300766" lon="10.903308439695417"><ele>303.0</ele><time>2026-04-04T09:56:28.003Z</time></trkpt><trkpt lat="43.45784510854263" lon="10.903186335769966"><ele>303.0</ele><time>2026-04-04T09:56:29.003Z</time></trkpt><trkpt lat="43.45782297719917" lon="10.903063387502073"><ele>303.0</ele><time>2026-04-04T09:56:30.003Z</time></trkpt><trkpt lat="43.45778578791693" lon="10.90294063351255"><ele>303.2</ele><time>2026-04-04T09:56:31.003Z</time></trkpt><trkpt lat="43.45773712599995" lon="10.902812172569233"><ele>303.4</ele><time>2026-04-04T09:56:32.003Z</time></trkpt><trkpt lat="43.457688554701186" lon="10.90267788513449"><ele>303.59999999999997</ele><time>2026-04-04T09:56:33.003Z</time></trkpt><trkpt lat="43.45764094222841" lon="10.902550051410746"><ele>303.8</ele><time>2026-04-04T09:56:34.003Z</time></trkpt><trkpt lat="43.45759698038583" lon="10.902431448885952"><ele>304.0</ele><time>2026-04-04T09:56:35.003Z</time></trkpt><trkpt lat="43.457553575267475" lon="10.902307522658345"><ele>302.2</ele><time>2026-04-04T09:56:36.003Z</time></trkpt><trkpt lat="43.45752356401841" lon="10.902168612548765"><ele>300.4</ele><time>2026-04-04T09:56:37.003Z</time></trkpt><trkpt lat="43.457470646264106" lon="10.902035183455016"><ele>298.6</ele><time>2026-04-04T09:56:38.003Z</time></trkpt><trkpt lat="43.457411278498384" lon="10.901911176433163"><ele>296.8</ele><time>2026-04-04T09:56:39.003Z</time></trkpt><trkpt lat="43.45734205920846" lon="10.901783125134425"><ele>295.0</ele><time>2026-04-04T09:56:40.003Z</time></trkpt><trkpt lat="43.457259035312624" lon="10.901651954806635"><ele>294.3333333333333</ele><time>2026-04-04T09:56:41.003Z</time></trkpt><trkpt lat="43.45715180502934" lon="10.901511992693075"><ele>293.6666666666667</ele><time>2026-04-04T09:56:42.003Z</time></trkpt><trkpt lat="43.45703196671633" lon="10.901369590147722"><ele>293.0</ele><time>2026-04-04T09:56:43.003Z</time></trkpt><trkpt lat="43.45691196871929" lon="10.901215228115852"><ele>293.0</ele><time>2026-04-04T09:56:44.003Z</time></trkpt><trkpt lat="43.45680485909563" lon="10.901038829588675"><ele>293.0</ele><time>2026-04-04T09:56:45.003Z</time></trkpt><trkpt lat="43.4566843248398" lon="10.900873433407163"><ele>293.0</ele><time>2026-04-04T09:56:46.003Z</time></trkpt><trkpt lat="43.456572743234105" lon="10.900695719538804"><ele>293.0</ele><time>2026-04-04T09:56:47.003Z</time></trkpt><trkpt lat="43.4564550210618" lon="10.900525362306563"><ele>293.0</ele><time>2026-04-04T09:56:48.003Z</time></trkpt><trkpt lat="43.45632260251088" lon="10.9003738068987"><ele>293.0</ele><time>2026-04-04T09:56:49.003Z</time></trkpt><trkpt lat="43.456195922961065" lon="10.900201352198005"><ele>290.33333333333337</ele><time>2026-04-04T09:56:50.003Z</time></trkpt><trkpt lat="43.456060240928004" lon="10.900033399167906"><ele>287.6666666666667</ele><time>2026-04-04T09:56:51.003Z</time></trkpt><trkpt lat="43.455942507723826" lon="10.899840864512116"><ele>285.0</ele><time>2026-04-04T09:56:52.003Z</time></trkpt><trkpt lat="43.455818269395515" lon="10.899669716945667"><ele>285.0</ele><time>2026-04-04T09:56:53.003Z</time></trkpt><trkpt lat="43.45570115646941" lon="10.899508385417564"><ele>285.0</ele><time>2026-04-04T09:56:54.003Z</time></trkpt><trkpt lat="43.45559813871507" lon="10.899362927859771"><ele>285.0</ele><time>2026-04-04T09:56:55.003Z</time></trkpt><trkpt lat="43.455506689444064" lon="10.899228639174837"><ele>285.0</ele><time>2026-04-04T09:56:56.003Z</time></trkpt><trkpt lat="43.45542529760224" lon="10.899098912494445"><ele>286.25</ele><time>2026-04-04T09:56:57Z</time></trkpt><trkpt lat="43.45535560962576" lon="10.898964960547808"><ele>287.5</ele><time>2026-04-04T09:56:58Z</time></trkpt><trkpt lat="43.45529821490004" lon="10.898815398191763"><ele>288.75</ele><time>2026-04-04T09:56:59Z</time></trkpt><trkpt lat="43.4552541382506" lon="10.898665225582038"><ele>290.0</ele><time>2026-04-04T09:57:00Z</time></trkpt><trkpt lat="43.45523318066469" lon="10.898521103736423"><ele>289.25</ele><time>2026-04-04T09:57:01Z</time></trkpt><trkpt lat="43.45522634620526" lon="10.898376246314742"><ele>288.5</ele><time>2026-04-04T09:57:02Z</time></trkpt><trkpt lat="43.45524082859684" lon="10.89821814257614"><ele>287.75</ele><time>2026-04-04T09:57:03Z</time></trkpt><trkpt lat="43.455244515321816" lon="10.898035328108943"><ele>287.0</ele><time>2026-04-04T09:57:04Z</time></trkpt><trkpt lat="43.45525706488953" lon="10.897843318537634"><ele>287.0</ele><time>2026-04-04T09:57:05Z</time></trkpt><trkpt lat="43.455280902415566" lon="10.897650537524646"><ele>287.0</ele><time>2026-04-04T09:57:06Z</time></trkpt><trkpt lat="43.455285451844915" lon="10.897454840783206"><ele>287.0</ele><time>2026-04-04T09:57:07Z</time></trkpt><trkpt lat="43.45529580660105" lon="10.89727727006535"><ele>287.0</ele><time>2026-04-04T09:57:08Z</time></trkpt><trkpt lat="43.455308163784245" lon="10.897105166256107"><ele>287.0</ele><time>2026-04-04T09:57:09Z</time></trkpt><trkpt lat="43.45532200340694" lon="10.896932608084965"><ele>287.0</ele><time>2026-04-04T09:57:10Z</time></trkpt><trkpt lat="43.455334609032434" lon="10.896762988458383"><ele>287.0</ele><time>2026-04-04T09:57:11Z</time></trkpt><trkpt lat="43.45534449908375" lon="10.896606372205406"><ele>287.0</ele><time>2026-04-04T09:57:12Z</time></trkpt><trkpt lat="43.45535711963329" lon="10.896453205181555"><ele>286.4</ele><time>2026-04-04T09:57:13Z</time></trkpt><trkpt lat="43.45536469976383" lon="10.896295306722122"><ele>285.79999999999995</ele><time>2026-04-04T09:57:14Z</time></trkpt><trkpt lat="43.45536255140686" lon="10.896144206954913"><ele>285.2</ele><time>2026-04-04T09:57:15Z</time></trkpt><trkpt lat="43.45535625816717" lon="10.895998547536042"><ele>284.59999999999997</ele><time>2026-04-04T09:57:16Z</time></trkpt><trkpt lat="43.45534979745143" lon="10.895853390842445"><ele>284.0</ele><time>2026-04-04T09:57:17Z</time></trkpt><trkpt lat="43.455324724892094" lon="10.895718905876775"><ele>283.75</ele><time>2026-04-04T09:57:18Z</time></trkpt><trkpt lat="43.45531202234634" lon="10.895580990812991"><ele>283.5</ele><time>2026-04-04T09:57:19Z</time></trkpt><trkpt lat="43.455308415815814" lon="10.895429976397107"><ele>283.25</ele><time>2026-04-04T09:57:20Z</time></trkpt><trkpt lat="43.455316098743424" lon="10.895272866279143"><ele>283.0</ele><time>2026-04-04T09:57:21Z</time></trkpt><trkpt lat="43.455336114518296" lon="10.895098959026486"><ele>282.4</ele><time>2026-04-04T09:57:22Z</time></trkpt><trkpt lat="43.455350234585346" lon="10.894929721702695"><ele>281.8</ele><time>2026-04-04T09:57:23Z</time></trkpt><trkpt lat="43.455357032899414" lon="10.89479572622869"><ele>281.2</ele><time>2026-04-04T09:57:24Z</time></trkpt><trkpt lat="43.45535477059406" lon="10.894682758182672"><ele>280.6</ele><time>2026-04-04T09:57:25Z</time></trkpt><trkpt lat="43.455346525362636" lon="10.894576317186937"><ele>280.0</ele><time>2026-04-04T09:57:26Z</time></trkpt><trkpt lat="43.455342837317744" lon="10.89446423585095"><ele>280.0</ele><time>2026-04-04T09:57:27Z</time></trkpt><trkpt lat="43.455344915893136" lon="10.894353611058115"><ele>280.0</ele><time>2026-04-04T09:57:28Z</time></trkpt><trkpt lat="43.45534129548526" lon="10.894244022661063"><ele>280.0</ele><time>2026-04-04T09:57:29.001Z</time></trkpt><trkpt lat="43.455337758554336" lon="10.894118444308702"><ele>280.0</ele><time>2026-04-04T09:57:30.001Z</time></trkpt><trkpt lat="43.45534208948589" lon="10.893991771552063"><ele>280.0</ele><time>2026-04-04T09:57:31.001Z</time></trkpt><trkpt lat="43.45532494737318" lon="10.893870788940635"><ele>280.0</ele><time>2026-04-04T09:57:32.001Z</time></trkpt><trkpt lat="43.45528372717838" lon="10.89373453376782"><ele>278.8</ele><time>2026-04-04T09:57:33.001Z</time></trkpt><trkpt lat="43.45524504702964" lon="10.893600545420316"><ele>277.6</ele><time>2026-04-04T09:57:34.001Z</time></trkpt><trkpt lat="43.45520507616014" lon="10.893462803742677"><ele>276.4</ele><time>2026-04-04T09:57:35.001Z</time></trkpt><trkpt lat="43.45516428111408" lon="10.893327653040185"><ele>275.2</ele><time>2026-04-04T09:57:36.001Z</time></trkpt><trkpt lat="43.455122828107015" lon="10.893186175281166"><ele>274.0</ele><time>2026-04-04T09:57:37.001Z</time></trkpt><trkpt lat="43.45508072563998" lon="10.893045046123373"><ele>272.0</ele><time>2026-04-04T09:57:38.001Z</time></trkpt><trkpt lat="43.455041055002255" lon="10.892907764399116"><ele>270.0</ele><time>2026-04-04T09:57:39.001Z</time></trkpt><trkpt lat="43.45499778184724" lon="10.892779440577947"><ele>268.0</ele><time>2026-04-04T09:57:40.001Z</time></trkpt><trkpt lat="43.4549654901895" lon="10.892662148651823"><ele>266.0</ele><time>2026-04-04T09:57:41.001Z</time></trkpt><trkpt lat="43.454898648307086" lon="10.892571704777472"><ele>264.0</ele><time>2026-04-04T09:57:42.001Z</time></trkpt><trkpt lat="43.45484883926704" lon="10.892474143496102"><ele>262.8333333333333</ele><time>2026-04-04T09:57:43.001Z</time></trkpt><trkpt lat="43.454776794859384" lon="10.892407796231321"><ele>261.6666666666667</ele><time>2026-04-04T09:57:44.001Z</time></trkpt><trkpt lat="43.4547108318718" lon="10.89236220782982"><ele>260.5</ele><time>2026-04-04T09:57:45.001Z</time></trkpt><trkpt lat="43.454636384509065" lon="10.892330803589546"><ele>259.33333333333337</ele><time>2026-04-04T09:57:46.001Z</time></trkpt><trkpt lat="43.45455205326332" lon="10.892315126204704"><ele>258.1666666666667</ele><time>2026-04-04T09:57:47.001Z</time></trkpt><trkpt lat="43.45446121479885" lon="10.89230433091595"><ele>257.0</ele><time>2026-04-04T09:57:48.001Z</time></trkpt><trkpt lat="43.454368021059885" lon="10.89229512459337"><ele>256.83333333333337</ele><time>2026-04-04T09:57:49.001Z</time></trkpt><trkpt lat="43.45427354354907" lon="10.892286431334426"><ele>256.6666666666667</ele><time>2026-04-04T09:57:50.001Z</time></trkpt><trkpt lat="43.45418002003407" lon="10.892280160853158"><ele>256.5</ele><time>2026-04-04T09:57:51.001Z</time></trkpt><trkpt lat="43.45410037204743" lon="10.892299003536198"><ele>256.3333333333333</ele><time>2026-04-04T09:57:52.001Z</time></trkpt><trkpt lat="43.454024940532996" lon="10.892281638458899"><ele>256.16666666666663</ele><time>2026-04-04T09:57:53.001Z</time></trkpt><trkpt lat="43.45395170873391" lon="10.892306218578305"><ele>256.0</ele><time>2026-04-04T09:57:54.001Z</time></trkpt><trkpt lat="43.453884195095725" lon="10.892381655823142"><ele>255.99999999999997</ele><time>2026-04-04T09:57:55.001Z</time></trkpt><trkpt lat="43.45384067945886" lon="10.892484906059956"><ele>256.0</ele><time>2026-04-04T09:57:56.001Z</time></trkpt><trkpt lat="43.45380003473556" lon="10.892580465112117"><ele>256.0</ele><time>2026-04-04T09:57:57.001Z</time></trkpt><trkpt lat="43.453767011540606" lon="10.892682941175558"><ele>256.0</ele><time>2026-04-04T09:57:58.001Z</time></trkpt><trkpt lat="43.45373721928543" lon="10.892777495736569"><ele>255.99999999999997</ele><time>2026-04-04T09:57:59.001Z</time></trkpt><trkpt lat="43.45370231661961" lon="10.892865717937283"><ele>256.0</ele><time>2026-04-04T09:58:00.001Z</time></trkpt><trkpt lat="43.45364654835879" lon="10.892919550689827"><ele>255.83333333333331</ele><time>2026-04-04T09:58:01.001Z</time></trkpt><trkpt lat="43.45359898328882" lon="10.8929826706903"><ele>255.66666666666666</ele><time>2026-04-04T09:58:02.002Z</time></trkpt><trkpt lat="43.45351677962194" lon="10.892953979662547"><ele>255.5</ele><time>2026-04-04T09:58:03.002Z</time></trkpt><trkpt lat="43.45343906127458" lon="10.892944452556513"><ele>255.33333333333331</ele><time>2026-04-04T09:58:04.002Z</time></trkpt><trkpt lat="43.453370902089645" lon="10.892891979460806"><ele>255.16666666666666</ele><time>2026-04-04T09:58:05.002Z</time></trkpt><trkpt lat="43.45328183641505" lon="10.892820637030907"><ele>255.0</ele><time>2026-04-04T09:58:06.002Z</time></trkpt><trkpt lat="43.453198806464776" lon="10.892768515513154"><ele>255.0</ele><time>2026-04-04T09:58:07.002Z</time></trkpt><trkpt lat="43.45311604870997" lon="10.892739151981058"><ele>255.0</ele><time>2026-04-04T09:58:08.002Z</time></trkpt><trkpt lat="43.45302013002924" lon="10.89276102668015"><ele>255.0</ele><time>2026-04-04T09:58:09.002Z</time></trkpt><trkpt lat="43.45291580977795" lon="10.892799071032206"><ele>255.0</ele><time>2026-04-04T09:58:10.002Z</time></trkpt><trkpt lat="43.452807544658945" lon="10.892848659897785"><ele>255.0</ele><time>2026-04-04T09:58:11.002Z</time></trkpt><trkpt lat="43.45269205069238" lon="10.892918467440095"><ele>252.8</ele><time>2026-04-04T09:58:12.002Z</time></trkpt><trkpt lat="43.45256719010638" lon="10.892956126241952"><ele>250.6</ele><time>2026-04-04T09:58:13.002Z</time></trkpt><trkpt lat="43.45245465551421" lon="10.893005626446143"><ele>248.39999999999998</ele><time>2026-04-04T09:58:14.002Z</time></trkpt><trkpt lat="43.45236329971743" lon="10.893056511886545"><ele>246.2</ele><time>2026-04-04T09:58:15.002Z</time></trkpt><trkpt lat="43.452289719620154" lon="10.893090909129159"><ele>244.0</ele><time>2026-04-04T09:58:16.002Z</time></trkpt><trkpt lat="43.4522175346802" lon="10.893085426997946"><ele>241.49999999999997</ele><time>2026-04-04T09:58:17.002Z</time></trkpt><trkpt lat="43.45210983871145" lon="10.89303927745889"><ele>239.0</ele><time>2026-04-04T09:58:19.002Z</time></trkpt><trkpt lat="43.45206025179484" lon="10.892976538992626"><ele>236.5</ele><time>2026-04-04T09:58:20.002Z</time></trkpt><trkpt lat="43.45202854961234" lon="10.892901166468453"><ele>234.0</ele><time>2026-04-04T09:58:21.002Z</time></trkpt><trkpt lat="43.45201169075232" lon="10.892815625763184"><ele>231.49999999999997</ele><time>2026-04-04T09:58:22.002Z</time></trkpt><trkpt lat="43.45200514623921" lon="10.892716357798232"><ele>229.0</ele><time>2026-04-04T09:58:23.002Z</time></trkpt><trkpt lat="43.452011749023235" lon="10.892603361101877"><ele>228.66666666666666</ele><time>2026-04-04T09:58:24.002Z</time></trkpt><trkpt lat="43.45201971778644" lon="10.892477317763046"><ele>228.33333333333331</ele><time>2026-04-04T09:58:25.002Z</time></trkpt><trkpt lat="43.45201421329245" lon="10.892346492593118"><ele>228.0</ele><time>2026-04-04T09:58:26.002Z</time></trkpt><trkpt lat="43.452017905059364" lon="10.8922275855614"><ele>227.66666666666669</ele><time>2026-04-04T09:58:27.002Z</time></trkpt><trkpt lat="43.452007429289075" lon="10.892113584472247"><ele>227.33333333333334</ele><time>2026-04-04T09:58:28.002Z</time></trkpt><trkpt lat="43.451986724171725" lon="10.892006923948127"><ele>227.0</ele><time>2026-04-04T09:58:29.002Z</time></trkpt><trkpt lat="43.45194758832278" lon="10.891904883072511"><ele>227.0</ele><time>2026-04-04T09:58:30.002Z</time></trkpt><trkpt lat="43.45190117979137" lon="10.891795683931152"><ele>227.0</ele><time>2026-04-04T09:58:31.002Z</time></trkpt><trkpt lat="43.451823745969214" lon="10.891695921687843"><ele>227.0</ele><time>2026-04-04T09:58:32.002Z</time></trkpt><trkpt lat="43.45173593084152" lon="10.89159970211309"><ele>227.0</ele><time>2026-04-04T09:58:33.002Z</time></trkpt><trkpt lat="43.451626696310456" lon="10.891498527466943"><ele>227.0</ele><time>2026-04-04T09:58:34.002Z</time></trkpt><trkpt lat="43.45150862851021" lon="10.891385701749632"><ele>226.33333333333334</ele><time>2026-04-04T09:58:35.003Z</time></trkpt><trkpt lat="43.4513844275986" lon="10.891267015489714"><ele>225.66666666666669</ele><time>2026-04-04T09:58:36.003Z</time></trkpt><trkpt lat="43.451256086708156" lon="10.891143048104245"><ele>225.0</ele><time>2026-04-04T09:58:37.003Z</time></trkpt><trkpt lat="43.45112430098794" lon="10.891018109179626"><ele>222.66666666666669</ele><time>2026-04-04T09:58:38.003Z</time></trkpt><trkpt lat="43.45099093845387" lon="10.890896763999283"><ele>220.33333333333334</ele><time>2026-04-04T09:58:39.003Z</time></trkpt><trkpt lat="43.450850109785584" lon="10.890772072578855"><ele>218.0</ele><time>2026-04-04T09:58:40.003Z</time></trkpt><trkpt lat="43.450711858188036" lon="10.890644458050874"><ele>218.0</ele><time>2026-04-04T09:58:41.003Z</time></trkpt><trkpt lat="43.450574771847165" lon="10.89050821231515"><ele>218.0</ele><time>2026-04-04T09:58:42.003Z</time></trkpt><trkpt lat="43.450435141891674" lon="10.890372865859584"><ele>218.0</ele><time>2026-04-04T09:58:43.003Z</time></trkpt><trkpt lat="43.45029566677464" lon="10.8902391814143"><ele>217.0</ele><time>2026-04-04T09:58:44.003Z</time></trkpt><trkpt lat="43.45015795892759" lon="10.89010764740095"><ele>216.0</ele><time>2026-04-04T09:58:45.003Z</time></trkpt><trkpt lat="43.450019799041414" lon="10.889976610787771"><ele>215.0</ele><time>2026-04-04T09:58:46.003Z</time></trkpt><trkpt lat="43.44988133887729" lon="10.88984765421752"><ele>215.0</ele><time>2026-04-04T09:58:47.003Z</time></trkpt><trkpt lat="43.44974179011751" lon="10.889717683794958"><ele>215.0</ele><time>2026-04-04T09:58:48.003Z</time></trkpt><trkpt lat="43.449607019115994" lon="10.889585889254331"><ele>215.0</ele><time>2026-04-04T09:58:49.003Z</time></trkpt><trkpt lat="43.44948705495917" lon="10.889447297910445"><ele>214.66666666666669</ele><time>2026-04-04T09:58:50.003Z</time></trkpt><trkpt lat="43.4493789743989" lon="10.88930061504437"><ele>214.33333333333331</ele><time>2026-04-04T09:58:51.003Z</time></trkpt><trkpt lat="43.449271292070804" lon="10.889139659355594"><ele>214.0</ele><time>2026-04-04T09:58:52.003Z</time></trkpt><trkpt lat="43.44917058922495" lon="10.888954396876628"><ele>214.0</ele><time>2026-04-04T09:58:53.003Z</time></trkpt><trkpt lat="43.44907045268375" lon="10.888744179492894"><ele>214.0</ele><time>2026-04-04T09:58:54.003Z</time></trkpt><trkpt lat="43.448969646524326" lon="10.88852610031769"><ele>214.0</ele><time>2026-04-04T09:58:55.003Z</time></trkpt><trkpt lat="43.44886298249031" lon="10.888305459638133"><ele>216.33333333333331</ele><time>2026-04-04T09:58:56.003Z</time></trkpt><trkpt lat="43.44876550624277" lon="10.888106199520035"><ele>218.66666666666669</ele><time>2026-04-04T09:58:57.003Z</time></trkpt><trkpt lat="43.44868435322621" lon="10.887931213721014"><ele>221.0</ele><time>2026-04-04T09:58:58.003Z</time></trkpt><trkpt lat="43.44860823506905" lon="10.887781778373707"><ele>221.0</ele><time>2026-04-04T09:58:59.003Z</time></trkpt><trkpt lat="43.4485319055501" lon="10.887665013974514"><ele>221.0</ele><time>2026-04-04T09:59:00.003Z</time></trkpt><trkpt lat="43.44845037422739" lon="10.887565510209852"><ele>221.0</ele><time>2026-04-04T09:59:01.003Z</time></trkpt><trkpt lat="43.44835510464571" lon="10.887473579714984"><ele>221.0</ele><time>2026-04-04T09:59:02.003Z</time></trkpt><trkpt lat="43.44824326100106" lon="10.887377126058487"><ele>221.5</ele><time>2026-04-04T09:59:03Z</time></trkpt><trkpt lat="43.448120293974334" lon="10.887274626843846"><ele>222.0</ele><time>2026-04-04T09:59:04Z</time></trkpt><trkpt lat="43.4479954878685" lon="10.887170607507258"><ele>222.5</ele><time>2026-04-04T09:59:05Z</time></trkpt><trkpt lat="43.44787328014308" lon="10.887064188179625"><ele>223.0</ele><time>2026-04-04T09:59:06Z</time></trkpt><trkpt lat="43.44775222540558" lon="10.886971622182399"><ele>223.0</ele><time>2026-04-04T09:59:07Z</time></trkpt><trkpt lat="43.44765847783189" lon="10.886850697549468"><ele>223.0</ele><time>2026-04-04T09:59:08Z</time></trkpt><trkpt lat="43.44757245631635" lon="10.886736307518154"><ele>223.0</ele><time>2026-04-04T09:59:09Z</time></trkpt><trkpt lat="43.447506107222715" lon="10.886615052836282"><ele>223.0</ele><time>2026-04-04T09:59:10Z</time></trkpt><trkpt lat="43.447451428963326" lon="10.88648895672097"><ele>220.5</ele><time>2026-04-04T09:59:11Z</time></trkpt><trkpt lat="43.447409898180815" lon="10.88634723031707"><ele>218.0</ele><time>2026-04-04T09:59:12Z</time></trkpt><trkpt lat="43.4473625238714" lon="10.88617863354555"><ele>215.5</ele><time>2026-04-04T09:59:13Z</time></trkpt><trkpt lat="43.44730969235804" lon="10.88597840719529"><ele>213.0</ele><time>2026-04-04T09:59:14Z</time></trkpt><trkpt lat="43.44725847587096" lon="10.88577055215498"><ele>210.0</ele><time>2026-04-04T09:59:15Z</time></trkpt><trkpt lat="43.44719826259381" lon="10.88556887969471"><ele>207.0</ele><time>2026-04-04T09:59:16Z</time></trkpt><trkpt lat="43.44713723840255" lon="10.885366112768327"><ele>204.0</ele><time>2026-04-04T09:59:17Z</time></trkpt><trkpt lat="43.44708528128503" lon="10.885171268923598"><ele>202.75</ele><time>2026-04-04T09:59:18Z</time></trkpt><trkpt lat="43.44704052712231" lon="10.884985392823612"><ele>201.5</ele><time>2026-04-04T09:59:19Z</time></trkpt><trkpt lat="43.44698733181305" lon="10.884819805976214"><ele>200.25</ele><time>2026-04-04T09:59:20Z</time></trkpt><trkpt lat="43.446940027673485" lon="10.884656941280507"><ele>199.0</ele><time>2026-04-04T09:59:21Z</time></trkpt><trkpt lat="43.446912894665374" lon="10.884489515077874"><ele>199.0</ele><time>2026-04-04T09:59:22Z</time></trkpt><trkpt lat="43.44687529357484" lon="10.884333489663174"><ele>199.0</ele><time>2026-04-04T09:59:23Z</time></trkpt><trkpt lat="43.446839901555585" lon="10.884184152070787"><ele>199.0</ele><time>2026-04-04T09:59:24Z</time></trkpt><trkpt lat="43.446804450087306" lon="10.884034234315399"><ele>199.0</ele><time>2026-04-04T09:59:25Z</time></trkpt><trkpt lat="43.4467748425415" lon="10.883885076924209"><ele>198.75</ele><time>2026-04-04T09:59:26Z</time></trkpt><trkpt lat="43.44674683921881" lon="10.883734631899861"><ele>198.5</ele><time>2026-04-04T09:59:27Z</time></trkpt><trkpt lat="43.446724483695284" lon="10.883575330494738"><ele>198.25</ele><time>2026-04-04T09:59:28Z</time></trkpt><trkpt lat="43.446709510396154" lon="10.883405604524457"><ele>198.0</ele><time>2026-04-04T09:59:29Z</time></trkpt><trkpt lat="43.4467019929809" lon="10.883242537370394"><ele>197.0</ele><time>2026-04-04T09:59:30Z</time></trkpt><trkpt lat="43.44669730989331" lon="10.883072707740187"><ele>196.0</ele><time>2026-04-04T09:59:31Z</time></trkpt><trkpt lat="43.4466872683436" lon="10.882900064458134"><ele>195.0</ele><time>2026-04-04T09:59:32Z</time></trkpt><trkpt lat="43.44667195148281" lon="10.882712992202569"><ele>194.0</ele><time>2026-04-04T09:59:33Z</time></trkpt><trkpt lat="43.44665293149534" lon="10.882527728746643"><ele>192.0</ele><time>2026-04-04T09:59:34.001Z</time></trkpt><trkpt lat="43.44664585052322" lon="10.88233606791317"><ele>190.0</ele><time>2026-04-04T09:59:35.001Z</time></trkpt><trkpt lat="43.446630522314194" lon="10.88214503422586"><ele>188.0</ele><time>2026-04-04T09:59:36.001Z</time></trkpt><trkpt lat="43.44661683396738" lon="10.88195383252848"><ele>186.0</ele><time>2026-04-04T09:59:37.001Z</time></trkpt><trkpt lat="43.44659849360194" lon="10.881762449912562"><ele>185.25</ele><time>2026-04-04T09:59:38.001Z</time></trkpt><trkpt lat="43.44658289783465" lon="10.88157449420085"><ele>184.5</ele><time>2026-04-04T09:59:39.001Z</time></trkpt><trkpt lat="43.446571082603576" lon="10.881399018569109"><ele>183.75</ele><time>2026-04-04T09:59:40.001Z</time></trkpt><trkpt lat="43.44655752181551" lon="10.881227102805438"><ele>183.0</ele><time>2026-04-04T09:59:41.001Z</time></trkpt><trkpt lat="43.44654769190653" lon="10.88106211412057"><ele>182.25</ele><time>2026-04-04T09:59:42.001Z</time></trkpt><trkpt lat="43.446547060428465" lon="10.88090371349401"><ele>181.5</ele><time>2026-04-04T09:59:43.001Z</time></trkpt><trkpt lat="43.44655210285375" lon="10.88073936404246"><ele>180.75</ele><time>2026-04-04T09:59:44.001Z</time></trkpt><trkpt lat="43.446578109882296" lon="10.880577068557177"><ele>180.0</ele><time>2026-04-04T09:59:45.001Z</time></trkpt><trkpt lat="43.446593887838375" lon="10.880423227927936"><ele>180.0</ele><time>2026-04-04T09:59:46.001Z</time></trkpt><trkpt lat="43.446603692487734" lon="10.880271161814829"><ele>180.0</ele><time>2026-04-04T09:59:47.001Z</time></trkpt><trkpt lat="43.44662056329666" lon="10.880139992396577"><ele>180.0</ele><time>2026-04-04T09:59:48.001Z</time></trkpt><trkpt lat="43.44663736601666" lon="10.880021991459367"><ele>180.0</ele><time>2026-04-04T09:59:49.001Z</time></trkpt><trkpt lat="43.4466416788979" lon="10.879902370910152"><ele>180.0</ele><time>2026-04-04T09:59:50.001Z</time></trkpt><trkpt lat="43.44663469469391" lon="10.879789051230885"><ele>179.16666666666666</ele><time>2026-04-04T09:59:51.001Z</time></trkpt><trkpt lat="43.44663456078738" lon="10.879678992964845"><ele>178.33333333333334</ele><time>2026-04-04T09:59:52.001Z</time></trkpt><trkpt lat="43.44661868583218" lon="10.879573710385426"><ele>177.5</ele><time>2026-04-04T09:59:53.001Z</time></trkpt><trkpt lat="43.44656221094196" lon="10.879475374754287"><ele>176.66666666666669</ele><time>2026-04-04T09:59:54.001Z</time></trkpt><trkpt lat="43.446523408692656" lon="10.87939225448322"><ele>175.83333333333334</ele><time>2026-04-04T09:59:55.001Z</time></trkpt><trkpt lat="43.446464857825994" lon="10.879267912435662"><ele>175.0</ele><time>2026-04-04T09:59:57.001Z</time></trkpt><trkpt lat="43.44642536029568" lon="10.87918425947052"><ele>174.83333333333334</ele><time>2026-04-04T10:00:01.001Z</time></trkpt><trkpt lat="43.44636712418403" lon="10.879058667883385"><ele>174.66666666666669</ele><time>2026-04-04T10:00:56.003Z</time></trkpt><trkpt lat="43.44631437213623" lon="10.878913946186731"><ele>174.5</ele><time>2026-04-04T10:00:58.003Z</time></trkpt><trkpt lat="43.44629176484297" lon="10.878830053025126"><ele>174.33333333333334</ele><time>2026-04-04T10:00:59.003Z</time></trkpt><trkpt lat="43.446275533599604" lon="10.878738112557766"><ele>174.16666666666666</ele><time>2026-04-04T10:01:00.003Z</time></trkpt><trkpt lat="43.446265708570316" lon="10.878634853291812"><ele>174.0</ele><time>2026-04-04T10:01:01.003Z</time></trkpt><trkpt lat="43.446256873226005" lon="10.87852049653251"><ele>171.33333333333334</ele><time>2026-04-04T10:01:02.003Z</time></trkpt><trkpt lat="43.44623290480764" lon="10.87839967851692"><ele>168.66666666666666</ele><time>2026-04-04T10:01:03.003Z</time></trkpt><trkpt lat="43.44624235129544" lon="10.878272974325736"><ele>166.0</ele><time>2026-04-04T10:01:04.003Z</time></trkpt><trkpt lat="43.44623589520994" lon="10.87815490580771"><ele>163.33333333333331</ele><time>2026-04-04T10:01:05.003Z</time></trkpt><trkpt lat="43.44622625910832" lon="10.878038923577812"><ele>160.66666666666666</ele><time>2026-04-04T10:01:06.003Z</time></trkpt><trkpt lat="43.446219320298226" lon="10.877927183131199"><ele>158.0</ele><time>2026-04-04T10:01:07.003Z</time></trkpt><trkpt lat="43.44621985738743" lon="10.877808618049661"><ele>158.0</ele><time>2026-04-04T10:01:08.003Z</time></trkpt><trkpt lat="43.446232007514126" lon="10.877691395134955"><ele>158.0</ele><time>2026-04-04T10:01:09.001Z</time></trkpt><trkpt lat="43.44626154069112" lon="10.877582922339249"><ele>158.0</ele><time>2026-04-04T10:01:10.001Z</time></trkpt><trkpt lat="43.446307845958934" lon="10.877488793451583"><ele>158.0</ele><time>2026-04-04T10:01:11.001Z</time></trkpt><trkpt lat="43.446361535761824" lon="10.877408625856855"><ele>158.0</ele><time>2026-04-04T10:01:12Z</time></trkpt><trkpt lat="43.446430748705765" lon="10.877333068554059"><ele>158.0</ele><time>2026-04-04T10:01:13Z</time></trkpt><trkpt lat="43.44650998067967" lon="10.877255519982446"><ele>159.0</ele><time>2026-04-04T10:01:14Z</time></trkpt><trkpt lat="43.446597762202394" lon="10.877176877707122"><ele>160.0</ele><time>2026-04-04T10:01:15Z</time></trkpt><trkpt lat="43.44669717939402" lon="10.877104706720448"><ele>161.0</ele><time>2026-04-04T10:01:16Z</time></trkpt><trkpt lat="43.44681475251822" lon="10.877069358723352"><ele>162.0</ele><time>2026-04-04T10:01:17Z</time></trkpt><trkpt lat="43.44693736742683" lon="10.877007366060642"><ele>162.0</ele><time>2026-04-04T10:01:18Z</time></trkpt><trkpt lat="43.44707298077543" lon="10.876969569312271"><ele>162.0</ele><time>2026-04-04T10:01:19Z</time></trkpt><trkpt lat="43.44721376855879" lon="10.876931835138027"><ele>162.0</ele><time>2026-04-04T10:01:20Z</time></trkpt><trkpt lat="43.44734636017075" lon="10.876896382915513"><ele>162.0</ele><time>2026-04-04T10:01:21Z</time></trkpt><trkpt lat="43.44746734349617" lon="10.876855043470668"><ele>161.75</ele><time>2026-04-04T10:01:22Z</time></trkpt><trkpt lat="43.44759321222129" lon="10.876827444222112"><ele>161.5</ele><time>2026-04-04T10:01:23Z</time></trkpt><trkpt lat="43.44771184416298" lon="10.876809321478218"><ele>161.25</ele><time>2026-04-04T10:01:24Z</time></trkpt><trkpt lat="43.447823086985416" lon="10.876798920038812"><ele>161.0</ele><time>2026-04-04T10:01:25Z</time></trkpt><trkpt lat="43.447920036888675" lon="10.876796725743826"><ele>159.33333333333331</ele><time>2026-04-04T10:01:26Z</time></trkpt><trkpt lat="43.44801637392584" lon="10.876817272184248"><ele>157.66666666666666</ele><time>2026-04-04T10:01:27Z</time></trkpt><trkpt lat="43.44810495868019" lon="10.876862143130786"><ele>156.0</ele><time>2026-04-04T10:01:28Z</time></trkpt><trkpt lat="43.448190226219104" lon="10.876926981227687"><ele>154.33333333333334</ele><time>2026-04-04T10:01:29Z</time></trkpt><trkpt lat="43.44826498673086" lon="10.876988938073534"><ele>152.66666666666669</ele><time>2026-04-04T10:01:30Z</time></trkpt><trkpt lat="43.448324136048" lon="10.877044197620695"><ele>151.0</ele><time>2026-04-04T10:01:31Z</time></trkpt><trkpt lat="43.44839278924064" lon="10.877064196779441"><ele>151.0</ele><time>2026-04-04T10:01:32Z</time></trkpt><trkpt lat="43.448465873656446" lon="10.877046965808649"><ele>151.0</ele><time>2026-04-04T10:01:33Z</time></trkpt><trkpt lat="43.44854447413545" lon="10.876999340501465"><ele>151.0</ele><time>2026-04-04T10:01:34Z</time></trkpt><trkpt lat="43.448621224147864" lon="10.87693275144935"><ele>151.0</ele><time>2026-04-04T10:01:35Z</time></trkpt><trkpt lat="43.44869355064602" lon="10.876847217731283"><ele>151.0</ele><time>2026-04-04T10:01:36Z</time></trkpt><trkpt lat="43.44875736158826" lon="10.876745233775845"><ele>151.0</ele><time>2026-04-04T10:01:37Z</time></trkpt><trkpt lat="43.44881639363281" lon="10.876635219186905"><ele>149.25</ele><time>2026-04-04T10:01:38Z</time></trkpt><trkpt lat="43.448868281418726" lon="10.8765027696124"><ele>147.5</ele><time>2026-04-04T10:01:39Z</time></trkpt><trkpt lat="43.44891648574396" lon="10.87635914350902"><ele>145.75</ele><time>2026-04-04T10:01:40.001Z</time></trkpt><trkpt lat="43.44896855097315" lon="10.87620882963814"><ele>144.0</ele><time>2026-04-04T10:01:41.001Z</time></trkpt><trkpt lat="43.44902401254708" lon="10.876053329093638"><ele>143.5</ele><time>2026-04-04T10:01:42.001Z</time></trkpt><trkpt lat="43.449075642753364" lon="10.875890051692268"><ele>143.0</ele><time>2026-04-04T10:01:43.001Z</time></trkpt><trkpt lat="43.44912957651436" lon="10.875732298720362"><ele>142.5</ele><time>2026-04-04T10:01:44.001Z</time></trkpt><trkpt lat="43.449182897076774" lon="10.875576023708671"><ele>142.0</ele><time>2026-04-04T10:01:45.001Z</time></trkpt><trkpt lat="43.449234657974365" lon="10.875405331544437"><ele>142.0</ele><time>2026-04-04T10:01:46.001Z</time></trkpt><trkpt lat="43.44929837922017" lon="10.875229550026946"><ele>142.0</ele><time>2026-04-04T10:01:47.001Z</time></trkpt><trkpt lat="43.44935915340778" lon="10.875053431894823"><ele>142.0</ele><time>2026-04-04T10:01:48.001Z</time></trkpt><trkpt lat="43.449415929357414" lon="10.874877817503492"><ele>142.0</ele><time>2026-04-04T10:01:49.001Z</time></trkpt><trkpt lat="43.44947908587355" lon="10.874705087233705"><ele>141.5</ele><time>2026-04-04T10:01:50.001Z</time></trkpt><trkpt lat="43.44953518611064" lon="10.87452325281339"><ele>141.0</ele><time>2026-04-04T10:01:51.001Z</time></trkpt><trkpt lat="43.44959658579115" lon="10.874362168612699"><ele>140.5</ele><time>2026-04-04T10:01:52.001Z</time></trkpt><trkpt lat="43.449662472967724" lon="10.874211128128618"><ele>140.0</ele><time>2026-04-04T10:01:53.001Z</time></trkpt><trkpt lat="43.449733762742014" lon="10.874069067256473"><ele>141.0</ele><time>2026-04-04T10:01:54.001Z</time></trkpt><trkpt lat="43.44982038099893" lon="10.873927346411717"><ele>142.0</ele><time>2026-04-04T10:01:55.001Z</time></trkpt><trkpt lat="43.44992162901972" lon="10.87378609525204"><ele>143.0</ele><time>2026-04-04T10:01:56.001Z</time></trkpt><trkpt lat="43.45002306963866" lon="10.873638072241892"><ele>144.0</ele><time>2026-04-04T10:01:57.001Z</time></trkpt><trkpt lat="43.45012258979419" lon="10.873490610850775"><ele>141.66666666666666</ele><time>2026-04-04T10:01:58.001Z</time></trkpt><trkpt lat="43.45023804063243" lon="10.873359415642042"><ele>139.33333333333331</ele><time>2026-04-04T10:01:59.001Z</time></trkpt><trkpt lat="43.45033406205013" lon="10.87319632654666"><ele>137.0</ele><time>2026-04-04T10:02:00.001Z</time></trkpt><trkpt lat="43.450444479797056" lon="10.873055278386301"><ele>136.66666666666666</ele><time>2026-04-04T10:02:01.001Z</time></trkpt><trkpt lat="43.450567273369266" lon="10.872889738484625"><ele>136.33333333333334</ele><time>2026-04-04T10:02:02.001Z</time></trkpt><trkpt lat="43.45069605371344" lon="10.872720612968653"><ele>136.0</ele><time>2026-04-04T10:02:03.001Z</time></trkpt><trkpt lat="43.450820394040726" lon="10.872548737854988"><ele>136.0</ele><time>2026-04-04T10:02:04.001Z</time></trkpt><trkpt lat="43.4509420424288" lon="10.87237861443438"><ele>136.0</ele><time>2026-04-04T10:02:05.001Z</time></trkpt><trkpt lat="43.45106689474458" lon="10.872208202980387"><ele>136.0</ele><time>2026-04-04T10:02:06.001Z</time></trkpt><trkpt lat="43.45119653678735" lon="10.872039626650112"><ele>136.66666666666669</ele><time>2026-04-04T10:02:07.001Z</time></trkpt><trkpt lat="43.45133273866159" lon="10.871887139793905"><ele>137.33333333333334</ele><time>2026-04-04T10:02:08.001Z</time></trkpt><trkpt lat="43.45148243431622" lon="10.871743886745932"><ele>138.0</ele><time>2026-04-04T10:02:09.001Z</time></trkpt><trkpt lat="43.451641816858064" lon="10.871605114442882"><ele>138.0</ele><time>2026-04-04T10:02:10.001Z</time></trkpt><trkpt lat="43.451790360553396" lon="10.871473017116"><ele>138.0</ele><time>2026-04-04T10:02:11.001Z</time></trkpt><trkpt lat="43.451936365311084" lon="10.871338102385364"><ele>138.0</ele><time>2026-04-04T10:02:12.001Z</time></trkpt><trkpt lat="43.452068050056134" lon="10.871204821228506"><ele>137.33333333333334</ele><time>2026-04-04T10:02:13.001Z</time></trkpt><trkpt lat="43.45219243730555" lon="10.87107419588542"><ele>136.66666666666669</ele><time>2026-04-04T10:02:14.001Z</time></trkpt><trkpt lat="43.4523175857805" lon="10.870947920203792"><ele>136.0</ele><time>2026-04-04T10:02:15.001Z</time></trkpt><trkpt lat="43.452436894239106" lon="10.870832820878329"><ele>136.0</ele><time>2026-04-04T10:02:16.001Z</time></trkpt><trkpt lat="43.45254438246587" lon="10.870730181297434"><ele>136.0</ele><time>2026-04-04T10:02:17.001Z</time></trkpt><trkpt lat="43.45263961924" lon="10.870633431295893"><ele>136.0</ele><time>2026-04-04T10:02:18.001Z</time></trkpt><trkpt lat="43.45272862232314" lon="10.870543970861306"><ele>136.0</ele><time>2026-04-04T10:02:19.001Z</time></trkpt><trkpt lat="43.452804621836236" lon="10.870452279642167"><ele>136.0</ele><time>2026-04-04T10:02:20.001Z</time></trkpt><trkpt lat="43.452863897320974" lon="10.870352254708633"><ele>136.0</ele><time>2026-04-04T10:02:21.001Z</time></trkpt><trkpt lat="43.45290630138374" lon="10.870247741064432"><ele>136.0</ele><time>2026-04-04T10:02:22.001Z</time></trkpt><trkpt lat="43.452935378057695" lon="10.870141802112071"><ele>136.0</ele><time>2026-04-04T10:02:23.002Z</time></trkpt><trkpt lat="43.452955092876415" lon="10.870034211518966"><ele>136.0</ele><time>2026-04-04T10:02:24.002Z</time></trkpt><trkpt lat="43.45296829952881" lon="10.86991504445384"><ele>136.0</ele><time>2026-04-04T10:02:25.002Z</time></trkpt><trkpt lat="43.4529986513048" lon="10.869792318464707"><ele>135.25</ele><time>2026-04-04T10:02:26.002Z</time></trkpt><trkpt lat="43.453016604277344" lon="10.869644094870603"><ele>134.5</ele><time>2026-04-04T10:02:27.002Z</time></trkpt><trkpt lat="43.45302090834858" lon="10.869474641235186"><ele>133.75</ele><time>2026-04-04T10:02:28.002Z</time></trkpt><trkpt lat="43.453041729357686" lon="10.869292080655715"><ele>133.0</ele><time>2026-04-04T10:02:29.002Z</time></trkpt><trkpt lat="43.45307593384461" lon="10.86911624552573"><ele>133.0</ele><time>2026-04-04T10:02:30.002Z</time></trkpt><trkpt lat="43.45309991445917" lon="10.868940258770388"><ele>133.0</ele><time>2026-04-04T10:02:31.002Z</time></trkpt><trkpt lat="43.453114269257306" lon="10.868760039936936"><ele>133.0</ele><time>2026-04-04T10:02:32.002Z</time></trkpt><trkpt lat="43.45315963719873" lon="10.868589703387354"><ele>133.0</ele><time>2026-04-04T10:02:33.002Z</time></trkpt><trkpt lat="43.45321962747948" lon="10.868415757454477"><ele>133.0</ele><time>2026-04-04T10:02:34.002Z</time></trkpt><trkpt lat="43.45329591880727" lon="10.868232145868316"><ele>133.0</ele><time>2026-04-04T10:02:35.002Z</time></trkpt><trkpt lat="43.4533817462786" lon="10.868033911170505"><ele>133.0</ele><time>2026-04-04T10:02:36.002Z</time></trkpt><trkpt lat="43.45346560842794" lon="10.86783427785163"><ele>133.0</ele><time>2026-04-04T10:02:37.002Z</time></trkpt><trkpt lat="43.45354724099828" lon="10.867642067514282"><ele>133.0</ele><time>2026-04-04T10:02:38.002Z</time></trkpt><trkpt lat="43.45362463757191" lon="10.867463090078813"><ele>133.0</ele><time>2026-04-04T10:02:39.002Z</time></trkpt><trkpt lat="43.45369500182776" lon="10.867289352514478"><ele>133.25</ele><time>2026-04-04T10:02:40.002Z</time></trkpt><trkpt lat="43.453754203057784" lon="10.867113144074647"><ele>133.5</ele><time>2026-04-04T10:02:41.002Z</time></trkpt><trkpt lat="43.453806023751056" lon="10.866939035113452"><ele>133.75</ele><time>2026-04-04T10:02:42.002Z</time></trkpt><trkpt lat="43.45385054117422" lon="10.866762677251957"><ele>134.0</ele><time>2026-04-04T10:02:43.002Z</time></trkpt><trkpt lat="43.453884741138836" lon="10.866580652865522"><ele>134.0</ele><time>2026-04-04T10:02:44.002Z</time></trkpt><trkpt lat="43.45391111598742" lon="10.866391304103164"><ele>134.0</ele><time>2026-04-04T10:02:45.002Z</time></trkpt><trkpt lat="43.45392159384619" lon="10.866186703183486"><ele>134.0</ele><time>2026-04-04T10:02:46.002Z</time></trkpt><trkpt lat="43.45395184268908" lon="10.865977263868661"><ele>134.0</ele><time>2026-04-04T10:02:47.002Z</time></trkpt><trkpt lat="43.45396572179865" lon="10.865754585852708"><ele>132.33333333333331</ele><time>2026-04-04T10:02:48.002Z</time></trkpt><trkpt lat="43.453977480929964" lon="10.86553231919907"><ele>130.66666666666666</ele><time>2026-04-04T10:02:49.002Z</time></trkpt><trkpt lat="43.45397490476196" lon="10.865313711995132"><ele>129.0</ele><time>2026-04-04T10:02:50.002Z</time></trkpt><trkpt lat="43.453992313298954" lon="10.865108453427936"><ele>127.75</ele><time>2026-04-04T10:02:51.002Z</time></trkpt><trkpt lat="43.454000686626195" lon="10.864907951094946"><ele>126.5</ele><time>2026-04-04T10:02:52.002Z</time></trkpt><trkpt lat="43.45400798816186" lon="10.86471475964287"><ele>125.25</ele><time>2026-04-04T10:02:53.002Z</time></trkpt><trkpt lat="43.45401557331777" lon="10.864522143145914"><ele>124.0</ele><time>2026-04-04T10:02:54.002Z</time></trkpt><trkpt lat="43.4539883859452" lon="10.864346229851874"><ele>123.33333333333334</ele><time>2026-04-04T10:02:55.002Z</time></trkpt><trkpt lat="43.45394703308801" lon="10.864147297970478"><ele>122.66666666666666</ele><time>2026-04-04T10:02:56.002Z</time></trkpt><trkpt lat="43.45389474800422" lon="10.863920497058887"><ele>122.0</ele><time>2026-04-04T10:02:57.002Z</time></trkpt><trkpt lat="43.4538397264815" lon="10.863674810818306"><ele>122.33333333333333</ele><time>2026-04-04T10:02:58.002Z</time></trkpt><trkpt lat="43.453790554537186" lon="10.863395964270886"><ele>122.66666666666666</ele><time>2026-04-04T10:02:59.002Z</time></trkpt><trkpt lat="43.45373202565741" lon="10.863128898817282"><ele>123.0</ele><time>2026-04-04T10:03:00.002Z</time></trkpt><trkpt lat="43.453680362338446" lon="10.862869072126747"><ele>122.66666666666666</ele><time>2026-04-04T10:03:01.002Z</time></trkpt><trkpt lat="43.45363022609625" lon="10.862613005696975"><ele>122.33333333333333</ele><time>2026-04-04T10:03:02.003Z</time></trkpt><trkpt lat="43.453579281308606" lon="10.862362933653447"><ele>122.0</ele><time>2026-04-04T10:03:03.003Z</time></trkpt><trkpt lat="43.45353049348548" lon="10.862130922357036"><ele>122.0</ele><time>2026-04-04T10:03:04.003Z</time></trkpt><trkpt lat="43.45348507196793" lon="10.861912684193342"><ele>122.0</ele><time>2026-04-04T10:03:05.003Z</time></trkpt><trkpt lat="43.45344299092526" lon="10.86170579719084"><ele>122.0</ele><time>2026-04-04T10:03:06.003Z</time></trkpt><trkpt lat="43.453402601684246" lon="10.861510935064572"><ele>122.0</ele><time>2026-04-04T10:03:07.003Z</time></trkpt><trkpt lat="43.45336598385168" lon="10.86133415879686"><ele>122.0</ele><time>2026-04-04T10:03:08.003Z</time></trkpt><trkpt lat="43.45333518287065" lon="10.861181113370082"><ele>122.0</ele><time>2026-04-04T10:03:09.003Z</time></trkpt><trkpt lat="43.45330444108947" lon="10.861048649977946"><ele>122.0</ele><time>2026-04-04T10:03:10.003Z</time></trkpt><trkpt lat="43.4532571443625" lon="10.86084200268232"><ele>122.33333333333333</ele><time>2026-04-04T10:03:12.003Z</time></trkpt><trkpt lat="43.45326177752415" lon="10.860732558425921"><ele>122.66666666666666</ele><time>2026-04-04T10:03:14.003Z</time></trkpt><trkpt lat="43.453334855680325" lon="10.860705130374498"><ele>123.0</ele><time>2026-04-04T10:03:15.999Z</time></trkpt><trkpt lat="43.45341515175525" lon="10.86073320064902"><ele>123.33333333333334</ele><time>2026-04-04T10:03:17.999Z</time></trkpt><trkpt lat="43.45352671972671" lon="10.860765450435384"><ele>123.66666666666667</ele><time>2026-04-04T10:03:19.999Z</time></trkpt><trkpt lat="43.453590801914736" lon="10.86076654560387"><ele>124.0</ele><time>2026-04-04T10:03:20.999Z</time></trkpt><trkpt lat="43.45365764747684" lon="10.860766446048977"><ele>124.00000000000001</ele><time>2026-04-04T10:03:21.999Z</time></trkpt><trkpt lat="43.45378785993673" lon="10.860784684643717"><ele>124.0</ele><time>2026-04-04T10:03:23.999Z</time></trkpt><trkpt lat="43.45386528276269" lon="10.860788050613737"><ele>124.0</ele><time>2026-04-04T10:03:24.999Z</time></trkpt><trkpt lat="43.45393328805913" lon="10.860741758569493"><ele>124.0</ele><time>2026-04-04T10:03:25.999Z</time></trkpt><trkpt lat="43.45400566447668" lon="10.86070891300533"><ele>124.00000000000001</ele><time>2026-04-04T10:03:26.999Z</time></trkpt><trkpt lat="43.45408003922885" lon="10.860699476161923"><ele>124.0</ele><time>2026-04-04T10:03:27.999Z</time></trkpt><trkpt lat="43.45416446811984" lon="10.8607178597976"><ele>125.0</ele><time>2026-04-04T10:03:28.999Z</time></trkpt><trkpt lat="43.454259785763846" lon="10.860754592797514"><ele>126.0</ele><time>2026-04-04T10:03:29.999Z</time></trkpt><trkpt lat="43.45436484636951" lon="10.860811067532996"><ele>127.0</ele><time>2026-04-04T10:03:30.999Z</time></trkpt><trkpt lat="43.454475242178226" lon="10.860869134690345"><ele>128.0</ele><time>2026-04-04T10:03:31.999Z</time></trkpt><trkpt lat="43.45459470526252" lon="10.860938939544297"><ele>128.0</ele><time>2026-04-04T10:03:33Z</time></trkpt><trkpt lat="43.45471360416261" lon="10.86101454620922"><ele>128.0</ele><time>2026-04-04T10:03:34Z</time></trkpt><trkpt lat="43.454837176604755" lon="10.861087808093227"><ele>128.0</ele><time>2026-04-04T10:03:35Z</time></trkpt><trkpt lat="43.454972057811794" lon="10.86114271696517"><ele>128.0</ele><time>2026-04-04T10:03:36Z</time></trkpt><trkpt lat="43.455107489505565" lon="10.861189170049828"><ele>128.0</ele><time>2026-04-04T10:03:37Z</time></trkpt><trkpt lat="43.455234218465414" lon="10.8612232466383"><ele>128.0</ele><time>2026-04-04T10:03:38Z</time></trkpt><trkpt lat="43.455342900454475" lon="10.861233182793853"><ele>128.0</ele><time>2026-04-04T10:03:39Z</time></trkpt><trkpt lat="43.45544098502462" lon="10.861226238065825"><ele>128.0</ele><time>2026-04-04T10:03:40Z</time></trkpt><trkpt lat="43.455529471874776" lon="10.861240775112979"><ele>128.0</ele><time>2026-04-04T10:03:41Z</time></trkpt><trkpt lat="43.45560784335054" lon="10.86130095750902"><ele>128.6</ele><time>2026-04-04T10:03:42Z</time></trkpt><trkpt lat="43.45568279618179" lon="10.861389140468097"><ele>129.20000000000002</ele><time>2026-04-04T10:03:43Z</time></trkpt><trkpt lat="43.45575855317238" lon="10.861474471766908"><ele>129.8</ele><time>2026-04-04T10:03:44Z</time></trkpt><trkpt lat="43.45583322813271" lon="10.86155967261162"><ele>130.4</ele><time>2026-04-04T10:03:45Z</time></trkpt><trkpt lat="43.455913329741925" lon="10.861652307921384"><ele>131.0</ele><time>2026-04-04T10:03:46Z</time></trkpt><trkpt lat="43.45598903735525" lon="10.861761028935359"><ele>130.6</ele><time>2026-04-04T10:03:47Z</time></trkpt><trkpt lat="43.45606330649667" lon="10.861880296927348"><ele>130.2</ele><time>2026-04-04T10:03:48Z</time></trkpt><trkpt lat="43.45613696136123" lon="10.861994172459486"><ele>129.8</ele><time>2026-04-04T10:03:49Z</time></trkpt><trkpt lat="43.45620223325852" lon="10.86210033623564"><ele>129.4</ele><time>2026-04-04T10:03:50Z</time></trkpt><trkpt lat="43.45626675331562" lon="10.86219706761789"><ele>129.0</ele><time>2026-04-04T10:03:51Z</time></trkpt><trkpt lat="43.456330787270765" lon="10.862281916770852"><ele>129.0</ele><time>2026-04-04T10:03:52Z</time></trkpt><trkpt lat="43.456397778013624" lon="10.862352801519556"><ele>129.0</ele><time>2026-04-04T10:03:53Z</time></trkpt><trkpt lat="43.45647811479349" lon="10.862408729196341"><ele>129.0</ele><time>2026-04-04T10:03:54Z</time></trkpt><trkpt lat="43.45657167241426" lon="10.862458495691207"><ele>129.0</ele><time>2026-04-04T10:03:55.001Z</time></trkpt><trkpt lat="43.45667520176151" lon="10.862499684198374"><ele>129.0</ele><time>2026-04-04T10:03:56.001Z</time></trkpt><trkpt lat="43.456785857528494" lon="10.86252695160992"><ele>129.0</ele><time>2026-04-04T10:03:57.001Z</time></trkpt><trkpt lat="43.45689603769742" lon="10.862548610622598"><ele>129.0</ele><time>2026-04-04T10:03:58.001Z</time></trkpt><trkpt lat="43.45700771630528" lon="10.86255983869478"><ele>129.0</ele><time>2026-04-04T10:03:59.001Z</time></trkpt><trkpt lat="43.45710172874448" lon="10.86256783305078"><ele>129.0</ele><time>2026-04-04T10:04:00.001Z</time></trkpt><trkpt lat="43.45718105543993" lon="10.862596454776863"><ele>129.0</ele><time>2026-04-04T10:04:01.001Z</time></trkpt><trkpt lat="43.45727158316861" lon="10.862662879264258"><ele>128.8</ele><time>2026-04-04T10:04:02.001Z</time></trkpt><trkpt lat="43.457373241538754" lon="10.862749818528712"><ele>128.60000000000002</ele><time>2026-04-04T10:04:03.001Z</time></trkpt><trkpt lat="43.45747041822954" lon="10.862832151412505"><ele>128.4</ele><time>2026-04-04T10:04:04.001Z</time></trkpt><trkpt lat="43.4575472894346" lon="10.862914939868416"><ele>128.20000000000002</ele><time>2026-04-04T10:04:05.001Z</time></trkpt><trkpt lat="43.45762133366397" lon="10.862987392368957"><ele>128.0</ele><time>2026-04-04T10:04:06.001Z</time></trkpt><trkpt lat="43.4577080167018" lon="10.863045145912768"><ele>128.0</ele><time>2026-04-04T10:04:07.001Z</time></trkpt><trkpt lat="43.457802493998116" lon="10.863084516815185"><ele>128.0</ele><time>2026-04-04T10:04:08.001Z</time></trkpt><trkpt lat="43.45790952540377" lon="10.863099940217504"><ele>128.0</ele><time>2026-04-04T10:04:09.001Z</time></trkpt><trkpt lat="43.45802094892491" lon="10.863104134472179"><ele>128.0</ele><time>2026-04-04T10:04:10.001Z</time></trkpt><trkpt lat="43.458124924893745" lon="10.863110128167124"><ele>128.0</ele><time>2026-04-04T10:04:11.001Z</time></trkpt><trkpt lat="43.4582176796711" lon="10.86313629196483"><ele>128.16666666666666</ele><time>2026-04-04T10:04:12.001Z</time></trkpt><trkpt lat="43.45829872319097" lon="10.863179267728581"><ele>128.33333333333331</ele><time>2026-04-04T10:04:13.001Z</time></trkpt><trkpt lat="43.45836706941648" lon="10.863244268078853"><ele>128.5</ele><time>2026-04-04T10:04:14.001Z</time></trkpt><trkpt lat="43.45842960991828" lon="10.863320886296032"><ele>128.66666666666666</ele><time>2026-04-04T10:04:15.001Z</time></trkpt><trkpt lat="43.45849765013483" lon="10.86340395816737"><ele>128.83333333333334</ele><time>2026-04-04T10:04:16.001Z</time></trkpt><trkpt lat="43.458559644056066" lon="10.86349789156247"><ele>129.0</ele><time>2026-04-04T10:04:17.001Z</time></trkpt><trkpt lat="43.458608166137154" lon="10.863605850239939"><ele>129.0</ele><time>2026-04-04T10:04:18.001Z</time></trkpt><trkpt lat="43.45863937362014" lon="10.863732857524012"><ele>129.0</ele><time>2026-04-04T10:04:19.001Z</time></trkpt><trkpt lat="43.45865711021687" lon="10.863864335890867"><ele>129.0</ele><time>2026-04-04T10:04:20.001Z</time></trkpt><trkpt lat="43.45867997298666" lon="10.863991765624368"><ele>129.0</ele><time>2026-04-04T10:04:21.001Z</time></trkpt><trkpt lat="43.45871558909397" lon="10.864118482215082"><ele>129.0</ele><time>2026-04-04T10:04:22.001Z</time></trkpt><trkpt lat="43.45877503762294" lon="10.864232756088573"><ele>130.0</ele><time>2026-04-04T10:04:23.001Z</time></trkpt><trkpt lat="43.458852730207525" lon="10.864347403749337"><ele>131.0</ele><time>2026-04-04T10:04:24.001Z</time></trkpt><trkpt lat="43.458954449975295" lon="10.864455015834704"><ele>132.0</ele><time>2026-04-04T10:04:25.001Z</time></trkpt><trkpt lat="43.459068918303835" lon="10.864584059217957"><ele>133.0</ele><time>2026-04-04T10:04:26.002Z</time></trkpt><trkpt lat="43.45919371560229" lon="10.864726629196092"><ele>133.0</ele><time>2026-04-04T10:04:27.002Z</time></trkpt><trkpt lat="43.45932296045346" lon="10.864884747750676"><ele>133.0</ele><time>2026-04-04T10:04:28.002Z</time></trkpt><trkpt lat="43.459442720058036" lon="10.865036807833444"><ele>133.0</ele><time>2026-04-04T10:04:29.002Z</time></trkpt><trkpt lat="43.45956828536964" lon="10.865187438296735"><ele>134.0</ele><time>2026-04-04T10:04:30.002Z</time></trkpt><trkpt lat="43.45969608160178" lon="10.865334597039926"><ele>135.0</ele><time>2026-04-04T10:04:31.002Z</time></trkpt><trkpt lat="43.45982155741952" lon="10.865485920066119"><ele>136.0</ele><time>2026-04-04T10:04:32.002Z</time></trkpt><trkpt lat="43.45994308672643" lon="10.865618959447367"><ele>136.0</ele><time>2026-04-04T10:04:33.002Z</time></trkpt><trkpt lat="43.46006889734065" lon="10.865741172538009"><ele>136.0</ele><time>2026-04-04T10:04:34.002Z</time></trkpt><trkpt lat="43.46019778947072" lon="10.865875648186966"><ele>136.0</ele><time>2026-04-04T10:04:35.002Z</time></trkpt><trkpt lat="43.46033843116319" lon="10.86602335775363"><ele>135.0</ele><time>2026-04-04T10:04:36.002Z</time></trkpt><trkpt lat="43.46047971388657" lon="10.86616941490986"><ele>134.0</ele><time>2026-04-04T10:04:37.002Z</time></trkpt><trkpt lat="43.46061896282705" lon="10.86631352227106"><ele>133.0</ele><time>2026-04-04T10:04:38.002Z</time></trkpt><trkpt lat="43.46075551395259" lon="10.866445708942907"><ele>133.0</ele><time>2026-04-04T10:04:39.002Z</time></trkpt><trkpt lat="43.4608765497679" lon="10.866570372640354"><ele>133.0</ele><time>2026-04-04T10:04:40.002Z</time></trkpt><trkpt lat="43.46098814764662" lon="10.866712972242333"><ele>133.0</ele><time>2026-04-04T10:04:41.002Z</time></trkpt><trkpt lat="43.46109722861883" lon="10.86687771126685"><ele>132.66666666666669</ele><time>2026-04-04T10:04:42.002Z</time></trkpt><trkpt lat="43.461203331929845" lon="10.867050414235926"><ele>132.33333333333334</ele><time>2026-04-04T10:04:43.002Z</time></trkpt><trkpt lat="43.4613040958365" lon="10.867209558211602"><ele>132.0</ele><time>2026-04-04T10:04:44.002Z</time></trkpt><trkpt lat="43.46140353803231" lon="10.867354384312511"><ele>133.25</ele><time>2026-04-04T10:04:45.002Z</time></trkpt><trkpt lat="43.46149358574471" lon="10.867485119907306"><ele>134.5</ele><time>2026-04-04T10:04:46.002Z</time></trkpt><trkpt lat="43.46157903202601" lon="10.867603287283536"><ele>135.75</ele><time>2026-04-04T10:04:47.002Z</time></trkpt><trkpt lat="43.4616659720986" lon="10.867708130821393"><ele>137.0</ele><time>2026-04-04T10:04:48.002Z</time></trkpt><trkpt lat="43.46176161624768" lon="10.867801065919844"><ele>137.0</ele><time>2026-04-04T10:04:49.002Z</time></trkpt><trkpt lat="43.461866119342545" lon="10.867885145536606"><ele>137.0</ele><time>2026-04-04T10:04:50.002Z</time></trkpt><trkpt lat="43.46196947857148" lon="10.867964305793674"><ele>137.0</ele><time>2026-04-04T10:04:51.002Z</time></trkpt><trkpt lat="43.46206534496717" lon="10.868048640451002"><ele>137.0</ele><time>2026-04-04T10:04:52.002Z</time></trkpt><trkpt lat="43.46216582897051" lon="10.86814850546628"><ele>137.5</ele><time>2026-04-04T10:04:53.002Z</time></trkpt><trkpt lat="43.46226557069469" lon="10.868247392703315"><ele>138.0</ele><time>2026-04-04T10:04:54.002Z</time></trkpt><trkpt lat="43.46236842185893" lon="10.86834406025992"><ele>138.5</ele><time>2026-04-04T10:04:55.002Z</time></trkpt><trkpt lat="43.46247697127" lon="10.86841998153435"><ele>139.0</ele><time>2026-04-04T10:04:56.002Z</time></trkpt><trkpt lat="43.46258561304013" lon="10.868487782695357"><ele>139.0</ele><time>2026-04-04T10:04:57.002Z</time></trkpt><trkpt lat="43.46269520691269" lon="10.868549448483138"><ele>139.0</ele><time>2026-04-04T10:04:58.002Z</time></trkpt><trkpt lat="43.46279669965046" lon="10.868593535976737"><ele>139.0</ele><time>2026-04-04T10:04:59.002Z</time></trkpt><trkpt lat="43.462884284851306" lon="10.868615220980791"><ele>139.0</ele><time>2026-04-04T10:05:00.003Z</time></trkpt><trkpt lat="43.462967700411895" lon="10.86863483614326"><ele>139.0</ele><time>2026-04-04T10:05:01.003Z</time></trkpt><trkpt lat="43.46304217856285" lon="10.868625132785553"><ele>139.83333333333334</ele><time>2026-04-04T10:05:02.003Z</time></trkpt><trkpt lat="43.46311069618067" lon="10.86859712747201"><ele>140.66666666666669</ele><time>2026-04-04T10:05:03.003Z</time></trkpt><trkpt lat="43.463172071038315" lon="10.868565200655548"><ele>141.5</ele><time>2026-04-04T10:05:04.003Z</time></trkpt><trkpt lat="43.46323946879207" lon="10.868521359294629"><ele>142.33333333333334</ele><time>2026-04-04T10:05:05.003Z</time></trkpt><trkpt lat="43.46331052161163" lon="10.868456192425354"><ele>143.16666666666666</ele><time>2026-04-04T10:05:06.003Z</time></trkpt><trkpt lat="43.46339242602999" lon="10.868385517498856"><ele>144.0</ele><time>2026-04-04T10:05:07.003Z</time></trkpt><trkpt lat="43.46347516191436" lon="10.86829673096388"><ele>146.2</ele><time>2026-04-04T10:05:08.003Z</time></trkpt><trkpt lat="43.46355502499394" lon="10.868206857958718"><ele>148.4</ele><time>2026-04-04T10:05:09.003Z</time></trkpt><trkpt lat="43.46364295402134" lon="10.868119853029024"><ele>150.6</ele><time>2026-04-04T10:05:10.003Z</time></trkpt><trkpt lat="43.46373358667742" lon="10.868028415276202"><ele>152.8</ele><time>2026-04-04T10:05:11.003Z</time></trkpt><trkpt lat="43.46382345903341" lon="10.867936269540687"><ele>155.0</ele><time>2026-04-04T10:05:12.003Z</time></trkpt><trkpt lat="43.46391401134573" lon="10.867858362990697"><ele>155.0</ele><time>2026-04-04T10:05:13.003Z</time></trkpt><trkpt lat="43.464007266457074" lon="10.867800897787552"><ele>155.0</ele><time>2026-04-04T10:05:14.003Z</time></trkpt><trkpt lat="43.4641099092013" lon="10.8677697021423"><ele>155.0</ele><time>2026-04-04T10:05:15.003Z</time></trkpt><trkpt lat="43.46422528940659" lon="10.867758614979431"><ele>155.0</ele><time>2026-04-04T10:05:16.003Z</time></trkpt><trkpt lat="43.46434700825993" lon="10.867766009869449"><ele>155.0</ele><time>2026-04-04T10:05:17.003Z</time></trkpt><trkpt lat="43.464479967537365" lon="10.867775315169679"><ele>156.25</ele><time>2026-04-04T10:05:18.003Z</time></trkpt><trkpt lat="43.464613812240735" lon="10.86778572486619"><ele>157.5</ele><time>2026-04-04T10:05:19.003Z</time></trkpt><trkpt lat="43.46474815525623" lon="10.867783816249666"><ele>158.75</ele><time>2026-04-04T10:05:20.003Z</time></trkpt><trkpt lat="43.46488213680033" lon="10.867773391035964"><ele>160.0</ele><time>2026-04-04T10:05:20.999Z</time></trkpt><trkpt lat="43.46501439471846" lon="10.867758715416947"><ele>160.0</ele><time>2026-04-04T10:05:21.999Z</time></trkpt><trkpt lat="43.46514450173132" lon="10.867740198505485"><ele>160.0</ele><time>2026-04-04T10:05:22.999Z</time></trkpt><trkpt lat="43.46527950732508" lon="10.867722015242967"><ele>160.0</ele><time>2026-04-04T10:05:23.999Z</time></trkpt><trkpt lat="43.465414909361066" lon="10.867702733438467"><ele>160.0</ele><time>2026-04-04T10:05:24.999Z</time></trkpt><trkpt lat="43.46555443553498" lon="10.867681950876705"><ele>161.25</ele><time>2026-04-04T10:05:25.999Z</time></trkpt><trkpt lat="43.46569092689602" lon="10.867646782573692"><ele>162.5</ele><time>2026-04-04T10:05:26.999Z</time></trkpt><trkpt lat="43.465828048327936" lon="10.867603357910859"><ele>163.75</ele><time>2026-04-04T10:05:27.999Z</time></trkpt><trkpt lat="43.46596107708299" lon="10.867556109234314"><ele>165.0</ele><time>2026-04-04T10:05:28.999Z</time></trkpt><trkpt lat="43.4660921531728" lon="10.867509297319167"><ele>167.5</ele><time>2026-04-04T10:05:29.999Z</time></trkpt><trkpt lat="43.466222505397965" lon="10.867462209234198"><ele>170.0</ele><time>2026-04-04T10:05:30.999Z</time></trkpt><trkpt lat="43.46635179313162" lon="10.867421049493128"><ele>172.5</ele><time>2026-04-04T10:05:31.999Z</time></trkpt><trkpt lat="43.46648226170866" lon="10.867384705434377"><ele>175.0</ele><time>2026-04-04T10:05:32.999Z</time></trkpt><trkpt lat="43.466607206736306" lon="10.867349996906949"><ele>176.5</ele><time>2026-04-04T10:05:33.999Z</time></trkpt><trkpt lat="43.46673729412113" lon="10.86731418666528"><ele>178.0</ele><time>2026-04-04T10:05:34.999Z</time></trkpt><trkpt lat="43.466869166779695" lon="10.867283982556065"><ele>179.5</ele><time>2026-04-04T10:05:36Z</time></trkpt><trkpt lat="43.46700742201362" lon="10.86725594861148"><ele>181.0</ele><time>2026-04-04T10:05:37Z</time></trkpt><trkpt lat="43.467150779616006" lon="10.867224295726436"><ele>182.0</ele><time>2026-04-04T10:05:38Z</time></trkpt><trkpt lat="43.46730246173169" lon="10.867196347352614"><ele>183.0</ele><time>2026-04-04T10:05:39Z</time></trkpt><trkpt lat="43.46745369439001" lon="10.86716079931557"><ele>184.0</ele><time>2026-04-04T10:05:40Z</time></trkpt><trkpt lat="43.46760782288222" lon="10.86712356432575"><ele>184.0</ele><time>2026-04-04T10:05:41Z</time></trkpt><trkpt lat="43.46776627702136" lon="10.867086761385906"><ele>184.0</ele><time>2026-04-04T10:05:42Z</time></trkpt><trkpt lat="43.467919624181135" lon="10.86705980829887"><ele>184.0</ele><time>2026-04-04T10:05:43Z</time></trkpt><trkpt lat="43.4680724950381" lon="10.867031433532794"><ele>182.75</ele><time>2026-04-04T10:05:44Z</time></trkpt><trkpt lat="43.468222089665225" lon="10.866998084860116"><ele>181.5</ele><time>2026-04-04T10:05:45Z</time></trkpt><trkpt lat="43.46836640267632" lon="10.866955511029802"><ele>180.25</ele><time>2026-04-04T10:05:46Z</time></trkpt><trkpt lat="43.46849819222228" lon="10.866888019778573"><ele>179.0</ele><time>2026-04-04T10:05:47Z</time></trkpt><trkpt lat="43.4686137852233" lon="10.8667958655112"><ele>181.5</ele><time>2026-04-04T10:05:48Z</time></trkpt><trkpt lat="43.468736284889054" lon="10.866688329852837"><ele>184.0</ele><time>2026-04-04T10:05:49Z</time></trkpt><trkpt lat="43.468868369219024" lon="10.86658721978556"><ele>186.5</ele><time>2026-04-04T10:05:50Z</time></trkpt><trkpt lat="43.46899463872836" lon="10.866511602076187"><ele>189.0</ele><time>2026-04-04T10:05:51Z</time></trkpt><trkpt lat="43.46911992035103" lon="10.866460858401538"><ele>189.0</ele><time>2026-04-04T10:05:52Z</time></trkpt><trkpt lat="43.4692454832855" lon="10.866430968475079"><ele>189.0</ele><time>2026-04-04T10:05:53Z</time></trkpt><trkpt lat="43.46938067476842" lon="10.866417208545359"><ele>189.0</ele><time>2026-04-04T10:05:54Z</time></trkpt><trkpt lat="43.46951858775475" lon="10.866413706891025"><ele>189.0</ele><time>2026-04-04T10:05:55.001Z</time></trkpt><trkpt lat="43.46966184674239" lon="10.866408090308292"><ele>189.75</ele><time>2026-04-04T10:05:56.001Z</time></trkpt><trkpt lat="43.46980026752441" lon="10.866405969377542"><ele>190.5</ele><time>2026-04-04T10:05:57.001Z</time></trkpt><trkpt lat="43.46994400224816" lon="10.86641141924052"><ele>191.25</ele><time>2026-04-04T10:05:58.001Z</time></trkpt><trkpt lat="43.4700870792552" lon="10.866421852583096"><ele>192.0</ele><time>2026-04-04T10:05:59.001Z</time></trkpt><trkpt lat="43.47022686825482" lon="10.866428333339773"><ele>192.0</ele><time>2026-04-04T10:06:00.001Z</time></trkpt><trkpt lat="43.47036966947828" lon="10.866439474742062"><ele>192.0</ele><time>2026-04-04T10:06:01.001Z</time></trkpt><trkpt lat="43.47051230028063" lon="10.866454639376267"><ele>192.0</ele><time>2026-04-04T10:06:02.001Z</time></trkpt><trkpt lat="43.470657884609594" lon="10.866470763029746"><ele>192.0</ele><time>2026-04-04T10:06:03.001Z</time></trkpt><trkpt lat="43.470805974237436" lon="10.866488867676008"><ele>192.25</ele><time>2026-04-04T10:06:04.001Z</time></trkpt><trkpt lat="43.47095058351703" lon="10.8665077273126"><ele>192.5</ele><time>2026-04-04T10:06:05.001Z</time></trkpt><trkpt lat="43.47109766569679" lon="10.866526641299002"><ele>192.75</ele><time>2026-04-04T10:06:06.001Z</time></trkpt><trkpt lat="43.471242759635416" lon="10.866544401098261"><ele>193.0</ele><time>2026-04-04T10:06:07.001Z</time></trkpt><trkpt lat="43.47138899137911" lon="10.86656221258226"><ele>195.0</ele><time>2026-04-04T10:06:08.001Z</time></trkpt><trkpt lat="43.47153955285911" lon="10.86657913827908"><ele>197.0</ele><time>2026-04-04T10:06:09.001Z</time></trkpt><trkpt lat="43.47169349113118" lon="10.866596610772225"><ele>199.0</ele><time>2026-04-04T10:06:10.001Z</time></trkpt><trkpt lat="43.47185264898926" lon="10.866615822726423"><ele>199.0</ele><time>2026-04-04T10:06:11.001Z</time></trkpt><trkpt lat="43.47200992224724" lon="10.866638014306593"><ele>199.0</ele><time>2026-04-04T10:06:12.001Z</time></trkpt><trkpt lat="43.472163568538996" lon="10.86666442701756"><ele>199.0</ele><time>2026-04-04T10:06:13.001Z</time></trkpt><trkpt lat="43.47231490277893" lon="10.866696480958161"><ele>200.25</ele><time>2026-04-04T10:06:14.001Z</time></trkpt><trkpt lat="43.47245448949522" lon="10.866732469201283"><ele>201.5</ele><time>2026-04-04T10:06:15.001Z</time></trkpt><trkpt lat="43.47258464070417" lon="10.86676035153627"><ele>202.75</ele><time>2026-04-04T10:06:16.001Z</time></trkpt><trkpt lat="43.47270739759406" lon="10.866776602981462"><ele>204.0</ele><time>2026-04-04T10:06:17.001Z</time></trkpt><trkpt lat="43.47282021152567" lon="10.86678681688042"><ele>205.2</ele><time>2026-04-04T10:06:18.001Z</time></trkpt><trkpt lat="43.472929343951364" lon="10.866781817073292"><ele>206.39999999999998</ele><time>2026-04-04T10:06:19.001Z</time></trkpt><trkpt lat="43.47304569569905" lon="10.86676413190677"><ele>207.6</ele><time>2026-04-04T10:06:20.001Z</time></trkpt><trkpt lat="43.473157346910284" lon="10.86673535124553"><ele>208.8</ele><time>2026-04-04T10:06:21.001Z</time></trkpt><trkpt lat="43.47326232186488" lon="10.866713181916069"><ele>210.0</ele><time>2026-04-04T10:06:22.001Z</time></trkpt><trkpt lat="43.47335218446516" lon="10.866698979117757"><ele>210.0</ele><time>2026-04-04T10:06:23.001Z</time></trkpt><trkpt lat="43.47342402909721" lon="10.866670798239017"><ele>210.0</ele><time>2026-04-04T10:06:24.002Z</time></trkpt><trkpt lat="43.4734987944565" lon="10.866566400867962"><ele>210.0</ele><time>2026-04-04T10:06:26.002Z</time></trkpt><trkpt lat="43.47353236811914" lon="10.866440737817603"><ele>210.0</ele><time>2026-04-04T10:06:28.002Z</time></trkpt><trkpt lat="43.47356327300784" lon="10.866345073500787"><ele>210.0</ele><time>2026-04-04T10:06:30.002Z</time></trkpt><trkpt lat="43.47352204659471" lon="10.866167508475026"><ele>210.0</ele><time>2026-04-04T10:06:32.002Z</time></trkpt><trkpt lat="43.47347845492081" lon="10.866093754781817"><ele>210.0</ele><time>2026-04-04T10:06:51.002Z</time></trkpt><trkpt lat="43.473437529381606" lon="10.866024511750625"><ele>210.0</ele><time>2026-04-04T10:08:04.001Z</time></trkpt><trkpt lat="43.473350003605276" lon="10.865877303634967"><ele>210.0</ele><time>2026-04-04T10:08:06.001Z</time></trkpt><trkpt lat="43.473281256494275" lon="10.865762700796324"><ele>210.0</ele><time>2026-04-04T10:08:07.001Z</time></trkpt><trkpt lat="43.47320669107103" lon="10.865638398669388"><ele>210.33333333333331</ele><time>2026-04-04T10:08:08.001Z</time></trkpt><trkpt lat="43.473119674193" lon="10.865493339891815"><ele>210.66666666666666</ele><time>2026-04-04T10:08:09.001Z</time></trkpt><trkpt lat="43.473020019615106" lon="10.865325948549474"><ele>211.0</ele><time>2026-04-04T10:08:10.001Z</time></trkpt><trkpt lat="43.472912674481165" lon="10.865145346770793"><ele>211.0</ele><time>2026-04-04T10:08:11.001Z</time></trkpt><trkpt lat="43.47280154942526" lon="10.864958385843362"><ele>211.0</ele><time>2026-04-04T10:08:12.001Z</time></trkpt><trkpt lat="43.47268767966282" lon="10.864766806923756"><ele>211.0</ele><time>2026-04-04T10:08:13.001Z</time></trkpt><trkpt lat="43.47256343213442" lon="10.864557768088552"><ele>211.0</ele><time>2026-04-04T10:08:14.001Z</time></trkpt><trkpt lat="43.47243980199702" lon="10.864348252357173"><ele>211.0</ele><time>2026-04-04T10:08:15.001Z</time></trkpt><trkpt lat="43.472316333624036" lon="10.864125418082619"><ele>211.0</ele><time>2026-04-04T10:08:16.001Z</time></trkpt><trkpt lat="43.472208017201346" lon="10.863886890984418"><ele>209.66666666666666</ele><time>2026-04-04T10:08:17.001Z</time></trkpt><trkpt lat="43.472138786336906" lon="10.86361975445411"><ele>208.33333333333331</ele><time>2026-04-04T10:08:18.001Z</time></trkpt><trkpt lat="43.47211398225843" lon="10.863339229101452"><ele>207.0</ele><time>2026-04-04T10:08:19.001Z</time></trkpt><trkpt lat="43.47211746661894" lon="10.863055096559256"><ele>205.33333333333331</ele><time>2026-04-04T10:08:20.001Z</time></trkpt><trkpt lat="43.472115700746386" lon="10.862798348956913"><ele>203.66666666666666</ele><time>2026-04-04T10:08:21.001Z</time></trkpt><trkpt lat="43.47214679598228" lon="10.862578271877009"><ele>202.0</ele><time>2026-04-04T10:08:22.001Z</time></trkpt><trkpt lat="43.47218495422781" lon="10.86237024654611"><ele>201.75</ele><time>2026-04-04T10:08:23.001Z</time></trkpt><trkpt lat="43.4721875064303" lon="10.862171007348518"><ele>201.5</ele><time>2026-04-04T10:08:24.001Z</time></trkpt><trkpt lat="43.472185783698094" lon="10.861974616128203"><ele>201.25</ele><time>2026-04-04T10:08:25.001Z</time></trkpt><trkpt lat="43.472182817409774" lon="10.861777924709408"><ele>201.0</ele><time>2026-04-04T10:08:26.001Z</time></trkpt><trkpt lat="43.47217289389791" lon="10.861583029811497"><ele>201.75</ele><time>2026-04-04T10:08:27.001Z</time></trkpt><trkpt lat="43.47215463006645" lon="10.86138302589766"><ele>202.5</ele><time>2026-04-04T10:08:28.002Z</time></trkpt><trkpt lat="43.4721246685137" lon="10.861185811133913"><ele>203.25</ele><time>2026-04-04T10:08:29.002Z</time></trkpt><trkpt lat="43.472082409933094" lon="10.860991080560394"><ele>204.0</ele><time>2026-04-04T10:08:30.002Z</time></trkpt><trkpt lat="43.472022497317674" lon="10.860802178900778"><ele>206.0</ele><time>2026-04-04T10:08:31.002Z</time></trkpt><trkpt lat="43.471952886016425" lon="10.86061462475583"><ele>208.0</ele><time>2026-04-04T10:08:32.002Z</time></trkpt><trkpt lat="43.47188013728332" lon="10.860429957049025"><ele>210.0</ele><time>2026-04-04T10:08:33.002Z</time></trkpt><trkpt lat="43.471805028090536" lon="10.860248127494396"><ele>209.0</ele><time>2026-04-04T10:08:34.002Z</time></trkpt><trkpt lat="43.47174993244963" lon="10.860042171584375"><ele>208.0</ele><time>2026-04-04T10:08:35.002Z</time></trkpt><trkpt lat="43.47168664999603" lon="10.859829520441565"><ele>207.0</ele><time>2026-04-04T10:08:36.002Z</time></trkpt><trkpt lat="43.47162728375414" lon="10.859612783246567"><ele>207.0</ele><time>2026-04-04T10:08:37.002Z</time></trkpt><trkpt lat="43.471574176400914" lon="10.859393239808126"><ele>207.0</ele><time>2026-04-04T10:08:38.002Z</time></trkpt><trkpt lat="43.47152505204663" lon="10.859175237941587"><ele>207.0</ele><time>2026-04-04T10:08:39.002Z</time></trkpt><trkpt lat="43.47147629386778" lon="10.858954008765672"><ele>206.0</ele><time>2026-04-04T10:08:40.002Z</time></trkpt><trkpt lat="43.47142831644751" lon="10.858736322054046"><ele>205.0</ele><time>2026-04-04T10:08:41.002Z</time></trkpt><trkpt lat="43.471379975934916" lon="10.858516987935536"><ele>204.0</ele><time>2026-04-04T10:08:42.002Z</time></trkpt><trkpt lat="43.47133238516086" lon="10.85830105556454"><ele>203.66666666666669</ele><time>2026-04-04T10:08:43.002Z</time></trkpt><trkpt lat="43.47128474990467" lon="10.858084921405931"><ele>203.33333333333334</ele><time>2026-04-04T10:08:44.002Z</time></trkpt><trkpt lat="43.471238258510496" lon="10.857873977190124"><ele>203.0</ele><time>2026-04-04T10:08:45.002Z</time></trkpt><trkpt lat="43.471193432017515" lon="10.857658601849208"><ele>202.66666666666669</ele><time>2026-04-04T10:08:46.002Z</time></trkpt><trkpt lat="43.47115729327608" lon="10.857437046196658"><ele>202.33333333333331</ele><time>2026-04-04T10:08:47.002Z</time></trkpt><trkpt lat="43.471137386899365" lon="10.857196934540028"><ele>202.0</ele><time>2026-04-04T10:08:48.002Z</time></trkpt><trkpt lat="43.47111847588543" lon="10.856939715297807"><ele>204.0</ele><time>2026-04-04T10:08:49.002Z</time></trkpt><trkpt lat="43.47113476378413" lon="10.856687130768702"><ele>206.0</ele><time>2026-04-04T10:08:50.002Z</time></trkpt><trkpt lat="43.47116873160485" lon="10.85643416117894"><ele>208.0</ele><time>2026-04-04T10:08:51.002Z</time></trkpt><trkpt lat="43.471193834782085" lon="10.856168447465839"><ele>209.33333333333331</ele><time>2026-04-04T10:08:52.002Z</time></trkpt><trkpt lat="43.47121655082158" lon="10.855902189616481"><ele>210.66666666666669</ele><time>2026-04-04T10:08:53.002Z</time></trkpt><trkpt lat="43.47120450621052" lon="10.855630934038789"><ele>212.0</ele><time>2026-04-04T10:08:54.002Z</time></trkpt><trkpt lat="43.47116927576456" lon="10.855360506430747"><ele>212.0</ele><time>2026-04-04T10:08:55.002Z</time></trkpt><trkpt lat="43.47112784603655" lon="10.855123847141865"><ele>212.0</ele><time>2026-04-04T10:08:56.002Z</time></trkpt><trkpt lat="43.47108649162495" lon="10.854895021977695"><ele>212.0</ele><time>2026-04-04T10:08:57.002Z</time></trkpt><trkpt lat="43.47103888275459" lon="10.854721238956296"><ele>211.33333333333334</ele><time>2026-04-04T10:08:58.002Z</time></trkpt><trkpt lat="43.47101602554903" lon="10.854505291957931"><ele>210.66666666666669</ele><time>2026-04-04T10:08:59.002Z</time></trkpt><trkpt lat="43.47098257547247" lon="10.854297316212051"><ele>210.0</ele><time>2026-04-04T10:09:00.002Z</time></trkpt><trkpt lat="43.47095955365205" lon="10.85408331499112"><ele>207.66666666666669</ele><time>2026-04-04T10:09:01.002Z</time></trkpt><trkpt lat="43.470970008899506" lon="10.853848524712523"><ele>205.33333333333334</ele><time>2026-04-04T10:09:02.002Z</time></trkpt><trkpt lat="43.471008411682845" lon="10.853603257356253"><ele>203.0</ele><time>2026-04-04T10:09:03.003Z</time></trkpt><trkpt lat="43.471063850470514" lon="10.853337088727082"><ele>201.33333333333334</ele><time>2026-04-04T10:09:04.003Z</time></trkpt><trkpt lat="43.47112353167366" lon="10.853065393355278"><ele>199.66666666666669</ele><time>2026-04-04T10:09:05.003Z</time></trkpt><trkpt lat="43.471181546423026" lon="10.85280242600746"><ele>198.0</ele><time>2026-04-04T10:09:06.003Z</time></trkpt><trkpt lat="43.47123479943307" lon="10.85255188284938"><ele>197.0</ele><time>2026-04-04T10:09:07.003Z</time></trkpt><trkpt lat="43.47127459616274" lon="10.852309211889123"><ele>196.0</ele><time>2026-04-04T10:09:08.003Z</time></trkpt><trkpt lat="43.47129203339312" lon="10.852074090111744"><ele>195.0</ele><time>2026-04-04T10:09:09.003Z</time></trkpt><trkpt lat="43.47128762551871" lon="10.851834055820875"><ele>192.66666666666666</ele><time>2026-04-04T10:09:10.003Z</time></trkpt><trkpt lat="43.471255011994785" lon="10.851588359306499"><ele>190.33333333333331</ele><time>2026-04-04T10:09:11.003Z</time></trkpt><trkpt lat="43.471201481643554" lon="10.851339629734136"><ele>188.0</ele><time>2026-04-04T10:09:12.003Z</time></trkpt><trkpt lat="43.47114405642437" lon="10.851074822419429"><ele>188.66666666666666</ele><time>2026-04-04T10:09:13.003Z</time></trkpt><trkpt lat="43.47108311740676" lon="10.850804659210388"><ele>189.33333333333334</ele><time>2026-04-04T10:09:14.003Z</time></trkpt><trkpt lat="43.47101953247006" lon="10.850524271795171"><ele>190.0</ele><time>2026-04-04T10:09:15.003Z</time></trkpt><trkpt lat="43.470950667034856" lon="10.850233628071955"><ele>192.5</ele><time>2026-04-04T10:09:16.003Z</time></trkpt><trkpt lat="43.470897353268334" lon="10.84992989605527"><ele>195.0</ele><time>2026-04-04T10:09:17.003Z</time></trkpt><trkpt lat="43.470828288289624" lon="10.84962718174786"><ele>195.0</ele><time>2026-04-04T10:09:18.003Z</time></trkpt><trkpt lat="43.47075847656628" lon="10.849338917381452"><ele>195.0</ele><time>2026-04-04T10:09:19.003Z</time></trkpt><trkpt lat="43.4706864082203" lon="10.849065669667608"><ele>195.0</ele><time>2026-04-04T10:09:20.003Z</time></trkpt><trkpt lat="43.47060131494374" lon="10.848810264995473"><ele>197.33333333333331</ele><time>2026-04-04T10:09:21.003Z</time></trkpt><trkpt lat="43.47053070487005" lon="10.848548595265807"><ele>199.66666666666666</ele><time>2026-04-04T10:09:22.003Z</time></trkpt><trkpt lat="43.4704561707396" lon="10.848289492627265"><ele>202.0</ele><time>2026-04-04T10:09:23.003Z</time></trkpt><trkpt lat="43.470384506093176" lon="10.848034812291397"><ele>198.0</ele><time>2026-04-04T10:09:24.003Z</time></trkpt><trkpt lat="43.4703180737686" lon="10.847789613934854"><ele>194.0</ele><time>2026-04-04T10:09:25.003Z</time></trkpt><trkpt lat="43.47024315787418" lon="10.847553920297868"><ele>190.0</ele><time>2026-04-04T10:09:26.003Z</time></trkpt><trkpt lat="43.47015394299663" lon="10.847324469034398"><ele>190.0</ele><time>2026-04-04T10:09:27.003Z</time></trkpt><trkpt lat="43.470049283600474" lon="10.84709968691728"><ele>190.0</ele><time>2026-04-04T10:09:28.003Z</time></trkpt><trkpt lat="43.46995182005727" lon="10.846866267295674"><ele>190.0</ele><time>2026-04-04T10:09:29.003Z</time></trkpt><trkpt lat="43.469830986245036" lon="10.846674573430592"><ele>192.66666666666669</ele><time>2026-04-04T10:09:30.003Z</time></trkpt><trkpt lat="43.469725925643594" lon="10.84648570372456"><ele>195.33333333333334</ele><time>2026-04-04T10:09:31.003Z</time></trkpt><trkpt lat="43.469639713197836" lon="10.846291699446546"><ele>198.0</ele><time>2026-04-04T10:09:32.003Z</time></trkpt><trkpt lat="43.46954821916235" lon="10.846124820848042"><ele>192.66666666666666</ele><time>2026-04-04T10:09:33Z</time></trkpt><trkpt lat="43.46950831180512" lon="10.845930576139544"><ele>187.33333333333331</ele><time>2026-04-04T10:09:34Z</time></trkpt><trkpt lat="43.46949515431304" lon="10.845703605769392"><ele>182.0</ele><time>2026-04-04T10:09:35Z</time></trkpt><trkpt lat="43.46950254655102" lon="10.845455809997292"><ele>182.0</ele><time>2026-04-04T10:09:36Z</time></trkpt><trkpt lat="43.469514008983595" lon="10.8451859755367"><ele>182.0</ele><time>2026-04-04T10:09:37Z</time></trkpt><trkpt lat="43.46952852041169" lon="10.844902098130277"><ele>182.0</ele><time>2026-04-04T10:09:38Z</time></trkpt><trkpt lat="43.46954677351074" lon="10.844624327060858"><ele>182.0</ele><time>2026-04-04T10:09:39Z</time></trkpt><trkpt lat="43.46955495056225" lon="10.844357645355277"><ele>182.0</ele><time>2026-04-04T10:09:40Z</time></trkpt><trkpt lat="43.469549099553355" lon="10.844099691672767"><ele>182.0</ele><time>2026-04-04T10:09:41Z</time></trkpt><trkpt lat="43.4695207650995" lon="10.843848859769347"><ele>182.0</ele><time>2026-04-04T10:09:42Z</time></trkpt><trkpt lat="43.46947226191361" lon="10.84360672949627"><ele>182.0</ele><time>2026-04-04T10:09:43Z</time></trkpt><trkpt lat="43.469413308655675" lon="10.843370032465542"><ele>182.0</ele><time>2026-04-04T10:09:44Z</time></trkpt><trkpt lat="43.469346163052016" lon="10.843128935977775"><ele>185.0</ele><time>2026-04-04T10:09:45Z</time></trkpt><trkpt lat="43.469287466119546" lon="10.842908186535917"><ele>188.0</ele><time>2026-04-04T10:09:46Z</time></trkpt><trkpt lat="43.46923116893461" lon="10.842700333645604"><ele>191.0</ele><time>2026-04-04T10:09:47Z</time></trkpt><trkpt lat="43.4691717948368" lon="10.842501079737449"><ele>191.33333333333331</ele><time>2026-04-04T10:09:48Z</time></trkpt><trkpt lat="43.469121227029596" lon="10.842309349594945"><ele>191.66666666666666</ele><time>2026-04-04T10:09:49Z</time></trkpt><trkpt lat="43.469107872609236" lon="10.842106279726325"><ele>192.0</ele><time>2026-04-04T10:09:50Z</time></trkpt><trkpt lat="43.46914011415854" lon="10.841881252796199"><ele>192.33333333333331</ele><time>2026-04-04T10:09:51Z</time></trkpt><trkpt lat="43.469216854458566" lon="10.841663687876112"><ele>192.66666666666666</ele><time>2026-04-04T10:09:52Z</time></trkpt><trkpt lat="43.469303341507384" lon="10.841476779415753"><ele>193.0</ele><time>2026-04-04T10:09:53Z</time></trkpt><trkpt lat="43.46936712915637" lon="10.841289406120032"><ele>193.0</ele><time>2026-04-04T10:09:54Z</time></trkpt><trkpt lat="43.46939848939003" lon="10.841090998237375"><ele>193.0</ele><time>2026-04-04T10:09:55Z</time></trkpt><trkpt lat="43.469408179916606" lon="10.840875218832135"><ele>193.0</ele><time>2026-04-04T10:09:56Z</time></trkpt><trkpt lat="43.46935565562948" lon="10.840633640976437"><ele>192.33333333333331</ele><time>2026-04-04T10:09:57Z</time></trkpt><trkpt lat="43.46928458949766" lon="10.840389816493197"><ele>191.66666666666666</ele><time>2026-04-04T10:09:58Z</time></trkpt><trkpt lat="43.469206956395524" lon="10.840129926913532"><ele>191.0</ele><time>2026-04-04T10:09:59Z</time></trkpt><trkpt lat="43.46913257597573" lon="10.839880924571201"><ele>191.0</ele><time>2026-04-04T10:10:00Z</time></trkpt><trkpt lat="43.46905514490536" lon="10.839621710982625"><ele>191.0</ele><time>2026-04-04T10:10:01Z</time></trkpt><trkpt lat="43.468984529883386" lon="10.839385314661605"><ele>191.0</ele><time>2026-04-04T10:10:02Z</time></trkpt><trkpt lat="43.468777105359166" lon="10.839257128061114"><ele>193.66666666666666</ele><time>2026-04-04T10:10:03Z</time></trkpt><trkpt lat="43.46875274591956" lon="10.83905133073598"><ele>196.33333333333331</ele><time>2026-04-04T10:10:04Z</time></trkpt><trkpt lat="43.468732949194234" lon="10.838849233960644"><ele>199.0</ele><time>2026-04-04T10:10:05Z</time></trkpt><trkpt lat="43.46869383381435" lon="10.8386418128572"><ele>197.33333333333331</ele><time>2026-04-04T10:10:06Z</time></trkpt><trkpt lat="43.46864304123781" lon="10.838432189525967"><ele>195.66666666666669</ele><time>2026-04-04T10:10:07Z</time></trkpt><trkpt lat="43.46858878434247" lon="10.838231910342419"><ele>194.0</ele><time>2026-04-04T10:10:08Z</time></trkpt><trkpt lat="43.46852728054556" lon="10.838048471512751"><ele>194.0</ele><time>2026-04-04T10:10:09.001Z</time></trkpt><trkpt lat="43.46844044593263" lon="10.837883678246202"><ele>194.0</ele><time>2026-04-04T10:10:10.001Z</time></trkpt><trkpt lat="43.46835344376975" lon="10.837722436678591"><ele>194.0</ele><time>2026-04-04T10:10:11.001Z</time></trkpt><trkpt lat="43.46827606733563" lon="10.837538628492638"><ele>194.0</ele><time>2026-04-04T10:10:12.001Z</time></trkpt><trkpt lat="43.46816159063813" lon="10.837388473290732"><ele>192.0</ele><time>2026-04-04T10:10:13.001Z</time></trkpt><trkpt lat="43.46803542192601" lon="10.837249172780524"><ele>190.0</ele><time>2026-04-04T10:10:14.001Z</time></trkpt><trkpt lat="43.46789934115601" lon="10.837124172123671"><ele>188.0</ele><time>2026-04-04T10:10:15.001Z</time></trkpt><trkpt lat="43.46775080383517" lon="10.837014347799988"><ele>188.0</ele><time>2026-04-04T10:10:16.001Z</time></trkpt><trkpt lat="43.46759363832005" lon="10.83692337712735"><ele>188.0</ele><time>2026-04-04T10:10:17.001Z</time></trkpt><trkpt lat="43.46743044706645" lon="10.836848107879959"><ele>188.0</ele><time>2026-04-04T10:10:18.001Z</time></trkpt><trkpt lat="43.46728255262711" lon="10.836794076759542"><ele>184.66666666666666</ele><time>2026-04-04T10:10:19.001Z</time></trkpt><trkpt lat="43.467126530756126" lon="10.83673228639378"><ele>181.33333333333334</ele><time>2026-04-04T10:10:20.001Z</time></trkpt><trkpt lat="43.46697079391893" lon="10.83665573938591"><ele>178.0</ele><time>2026-04-04T10:10:21.001Z</time></trkpt><trkpt lat="43.466819740641476" lon="10.836561834847373"><ele>178.0</ele><time>2026-04-04T10:10:22.001Z</time></trkpt><trkpt lat="43.466671680532684" lon="10.836453497699738"><ele>178.0</ele><time>2026-04-04T10:10:23.001Z</time></trkpt><trkpt lat="43.46652927203232" lon="10.836334509934167"><ele>178.0</ele><time>2026-04-04T10:10:24.001Z</time></trkpt><trkpt lat="43.466387448516215" lon="10.836215368723792"><ele>177.0</ele><time>2026-04-04T10:10:25.001Z</time></trkpt><trkpt lat="43.46626324085425" lon="10.836055594075374"><ele>176.0</ele><time>2026-04-04T10:10:26.001Z</time></trkpt><trkpt lat="43.46615286102213" lon="10.835880301250397"><ele>175.0</ele><time>2026-04-04T10:10:27.001Z</time></trkpt><trkpt lat="43.466045090552285" lon="10.83570236364109"><ele>175.0</ele><time>2026-04-04T10:10:28.001Z</time></trkpt><trkpt lat="43.46594700056173" lon="10.835513746806269"><ele>175.0</ele><time>2026-04-04T10:10:29.001Z</time></trkpt><trkpt lat="43.4658485235694" lon="10.835316469703105"><ele>175.0</ele><time>2026-04-04T10:10:30.001Z</time></trkpt><trkpt lat="43.465750799463606" lon="10.835116712530384"><ele>172.33333333333334</ele><time>2026-04-04T10:10:31.001Z</time></trkpt><trkpt lat="43.46565160922492" lon="10.834912622157317"><ele>169.66666666666666</ele><time>2026-04-04T10:10:32.001Z</time></trkpt><trkpt lat="43.46555290964652" lon="10.834709541303916"><ele>167.0</ele><time>2026-04-04T10:10:33.001Z</time></trkpt><trkpt lat="43.46545297188287" lon="10.834503912828037"><ele>165.66666666666666</ele><time>2026-04-04T10:10:34.001Z</time></trkpt><trkpt lat="43.46535115942775" lon="10.834292849116274"><ele>164.33333333333334</ele><time>2026-04-04T10:10:35.001Z</time></trkpt><trkpt lat="43.46524814807377" lon="10.83407913175534"><ele>163.0</ele><time>2026-04-04T10:10:36.001Z</time></trkpt><trkpt lat="43.4651453835442" lon="10.833865926604345"><ele>163.0</ele><time>2026-04-04T10:10:37.001Z</time></trkpt><trkpt lat="43.46504697751106" lon="10.833661336936173"><ele>163.0</ele><time>2026-04-04T10:10:38.001Z</time></trkpt><trkpt lat="43.464951104904564" lon="10.83346188444483"><ele>163.0</ele><time>2026-04-04T10:10:39.001Z</time></trkpt><trkpt lat="43.464856288218286" lon="10.83326556989724"><ele>162.0</ele><time>2026-04-04T10:10:40.001Z</time></trkpt><trkpt lat="43.46472149758413" lon="10.833114193386281"><ele>161.0</ele><time>2026-04-04T10:10:41.001Z</time></trkpt><trkpt lat="43.46460750228938" lon="10.832948578959506"><ele>160.0</ele><time>2026-04-04T10:10:42.001Z</time></trkpt><trkpt lat="43.46447461804862" lon="10.832805029919879"><ele>159.0</ele><time>2026-04-04T10:10:43.001Z</time></trkpt><trkpt lat="43.464336491292606" lon="10.832671211213002"><ele>158.0</ele><time>2026-04-04T10:10:44.001Z</time></trkpt><trkpt lat="43.46419849423152" lon="10.832508142879794"><ele>157.0</ele><time>2026-04-04T10:10:45.001Z</time></trkpt><trkpt lat="43.464029072918606" lon="10.832424617052391"><ele>157.0</ele><time>2026-04-04T10:10:46.002Z</time></trkpt><trkpt lat="43.46384888298932" lon="10.832369939249741"><ele>157.0</ele><time>2026-04-04T10:10:47.002Z</time></trkpt><trkpt lat="43.46367690875734" lon="10.832328414536825"><ele>157.0</ele><time>2026-04-04T10:10:48.002Z</time></trkpt><trkpt lat="43.46350473536867" lon="10.832286841724011"><ele>154.0</ele><time>2026-04-04T10:10:49.002Z</time></trkpt><trkpt lat="43.46333447055526" lon="10.832245729758322"><ele>151.0</ele><time>2026-04-04T10:10:50.002Z</time></trkpt><trkpt lat="43.463172631824854" lon="10.832206652356911"><ele>148.0</ele><time>2026-04-04T10:10:51.002Z</time></trkpt><trkpt lat="43.46301825216435" lon="10.832169376008968"><ele>143.33333333333334</ele><time>2026-04-04T10:10:52.002Z</time></trkpt><trkpt lat="43.46286480483612" lon="10.832127775633856"><ele>138.66666666666666</ele><time>2026-04-04T10:10:53.002Z</time></trkpt><trkpt lat="43.46271388999656" lon="10.832079578070738"><ele>134.0</ele><time>2026-04-04T10:10:54.002Z</time></trkpt><trkpt lat="43.46256675812525" lon="10.832021774066453"><ele>134.0</ele><time>2026-04-04T10:10:55.002Z</time></trkpt><trkpt lat="43.46241931526804" lon="10.831960665827655"><ele>134.0</ele><time>2026-04-04T10:10:56.002Z</time></trkpt><trkpt lat="43.462275274599534" lon="10.831897954382656"><ele>134.0</ele><time>2026-04-04T10:10:57.002Z</time></trkpt><trkpt lat="43.462125072378385" lon="10.831851506906744"><ele>133.5</ele><time>2026-04-04T10:10:58.002Z</time></trkpt><trkpt lat="43.46198315306875" lon="10.831785866940216"><ele>133.0</ele><time>2026-04-04T10:10:59.002Z</time></trkpt><trkpt lat="43.4618410182983" lon="10.831714842521487"><ele>132.5</ele><time>2026-04-04T10:11:00.002Z</time></trkpt><trkpt lat="43.461703749686635" lon="10.831670163129624"><ele>132.0</ele><time>2026-04-04T10:11:01.002Z</time></trkpt><trkpt lat="43.46157025780525" lon="10.831589842463384"><ele>132.0</ele><time>2026-04-04T10:11:02.002Z</time></trkpt><trkpt lat="43.461425846770176" lon="10.831548593507922"><ele>132.0</ele><time>2026-04-04T10:11:03.002Z</time></trkpt><trkpt lat="43.46129616924964" lon="10.831470126101324"><ele>132.0</ele><time>2026-04-04T10:11:04.002Z</time></trkpt><trkpt lat="43.46116565170442" lon="10.831412966785848"><ele>132.0</ele><time>2026-04-04T10:11:05.002Z</time></trkpt><trkpt lat="43.46103463449922" lon="10.83135553656546"><ele>132.0</ele><time>2026-04-04T10:11:06.002Z</time></trkpt><trkpt lat="43.46091145236045" lon="10.831301540741284"><ele>132.0</ele><time>2026-04-04T10:11:07.002Z</time></trkpt><trkpt lat="43.46079801311079" lon="10.831251777828443"><ele>132.0</ele><time>2026-04-04T10:11:08.002Z</time></trkpt><trkpt lat="43.46069551853845" lon="10.831206811796104"><ele>132.0</ele><time>2026-04-04T10:11:09.002Z</time></trkpt><trkpt lat="43.46061127089379" lon="10.83116985098122"><ele>132.0</ele><time>2026-04-04T10:11:10.002Z</time></trkpt><trkpt lat="43.46054280616992" lon="10.831154938789266"><ele>132.0</ele><time>2026-04-04T10:11:11.002Z</time></trkpt><trkpt lat="43.460501899189275" lon="10.831053815689994"><ele>132.0</ele><time>2026-04-04T10:11:13.002Z</time></trkpt><trkpt lat="43.460569576484204" lon="10.830915760358705"><ele>132.0</ele><time>2026-04-04T10:11:14.002Z</time></trkpt><trkpt lat="43.46060889226709" lon="10.830834096667552"><ele>132.0</ele><time>2026-04-04T10:11:15.002Z</time></trkpt><trkpt lat="43.460668152493284" lon="10.830731790871226"><ele>132.0</ele><time>2026-04-04T10:11:16.002Z</time></trkpt><trkpt lat="43.460698421973156" lon="10.830583281278976"><ele>130.25</ele><time>2026-04-04T10:11:17.002Z</time></trkpt><trkpt lat="43.46070759182174" lon="10.830404473913447"><ele>128.5</ele><time>2026-04-04T10:11:18.002Z</time></trkpt><trkpt lat="43.460700631292156" lon="10.83025214657749"><ele>126.75</ele><time>2026-04-04T10:11:19.002Z</time></trkpt><trkpt lat="43.46070728267011" lon="10.830068995133098"><ele>125.0</ele><time>2026-04-04T10:11:20.002Z</time></trkpt><trkpt lat="43.46075927930223" lon="10.82990658404331"><ele>124.75</ele><time>2026-04-04T10:11:21.002Z</time></trkpt><trkpt lat="43.460855833759936" lon="10.829762192696519"><ele>124.5</ele><time>2026-04-04T10:11:22.003Z</time></trkpt><trkpt lat="43.46097218078775" lon="10.829642449756362"><ele>124.25</ele><time>2026-04-04T10:11:23.003Z</time></trkpt><trkpt lat="43.461091639898555" lon="10.829527168600167"><ele>124.0</ele><time>2026-04-04T10:11:24.003Z</time></trkpt><trkpt lat="43.46122529205642" lon="10.829444927968211"><ele>128.0</ele><time>2026-04-04T10:11:25.003Z</time></trkpt><trkpt lat="43.46138048792677" lon="10.829376288427389"><ele>132.0</ele><time>2026-04-04T10:11:26.003Z</time></trkpt><trkpt lat="43.46155587847014" lon="10.829311628331954"><ele>136.0</ele><time>2026-04-04T10:11:27.003Z</time></trkpt><trkpt lat="43.461741081006714" lon="10.829200491230097"><ele>136.0</ele><time>2026-04-04T10:11:28.003Z</time></trkpt><trkpt lat="43.4619402099987" lon="10.82909530025956"><ele>136.0</ele><time>2026-04-04T10:11:29.003Z</time></trkpt><trkpt lat="43.46213314749521" lon="10.828999577166137"><ele>136.0</ele><time>2026-04-04T10:11:30.003Z</time></trkpt><trkpt lat="43.46231361323901" lon="10.828920132605903"><ele>139.0</ele><time>2026-04-04T10:11:31.003Z</time></trkpt><trkpt lat="43.46248854668307" lon="10.828858061738968"><ele>142.0</ele><time>2026-04-04T10:11:32.003Z</time></trkpt><trkpt lat="43.462652097593875" lon="10.828808837852975"><ele>145.0</ele><time>2026-04-04T10:11:33.003Z</time></trkpt><trkpt lat="43.46280340713008" lon="10.82878130126524"><ele>144.33333333333334</ele><time>2026-04-04T10:11:34.003Z</time></trkpt><trkpt lat="43.46295677090194" lon="10.828733716036975"><ele>143.66666666666666</ele><time>2026-04-04T10:11:35.003Z</time></trkpt><trkpt lat="43.46311243073334" lon="10.828685544530085"><ele>143.0</ele><time>2026-04-04T10:11:36.003Z</time></trkpt><trkpt lat="43.46324623859541" lon="10.828642908304182"><ele>143.0</ele><time>2026-04-04T10:11:37.003Z</time></trkpt><trkpt lat="43.46338093502925" lon="10.828548329061464"><ele>143.0</ele><time>2026-04-04T10:11:38.003Z</time></trkpt><trkpt lat="43.46350535877385" lon="10.828467276771146"><ele>143.0</ele><time>2026-04-04T10:11:38.999Z</time></trkpt><trkpt lat="43.46362495100417" lon="10.828370311280977"><ele>143.0</ele><time>2026-04-04T10:11:39.999Z</time></trkpt><trkpt lat="43.46373649227332" lon="10.828290257209389"><ele>138.5</ele><time>2026-04-04T10:11:40.999Z</time></trkpt><trkpt lat="43.46384797238659" lon="10.828246167000653"><ele>134.0</ele><time>2026-04-04T10:11:41.999Z</time></trkpt><trkpt lat="43.46395817019638" lon="10.82821506898568"><ele>129.5</ele><time>2026-04-04T10:11:42.999Z</time></trkpt><trkpt lat="43.46406555168336" lon="10.828303432551522"><ele>125.0</ele><time>2026-04-04T10:11:43.999Z</time></trkpt><trkpt lat="43.46415295506061" lon="10.828423263725607"><ele>126.75</ele><time>2026-04-04T10:11:44.999Z</time></trkpt><trkpt lat="43.464241488627636" lon="10.828554065017663"><ele>128.5</ele><time>2026-04-04T10:11:45.999Z</time></trkpt><trkpt lat="43.46434600186888" lon="10.828697230258628"><ele>130.25</ele><time>2026-04-04T10:11:46.999Z</time></trkpt><trkpt lat="43.464436569352245" lon="10.8288509471127"><ele>132.0</ele><time>2026-04-04T10:11:47.999Z</time></trkpt><trkpt lat="43.46454007293924" lon="10.828966845728761"><ele>131.2</ele><time>2026-04-04T10:11:49Z</time></trkpt><trkpt lat="43.464628681841106" lon="10.82910426238266"><ele>130.39999999999998</ele><time>2026-04-04T10:11:50Z</time></trkpt><trkpt lat="43.46472157922302" lon="10.829196249505411"><ele>129.60000000000002</ele><time>2026-04-04T10:11:51Z</time></trkpt><trkpt lat="43.46481743446624" lon="10.829224342673436"><ele>128.8</ele><time>2026-04-04T10:11:52Z</time></trkpt><trkpt lat="43.46491018464408" lon="10.829202937344263"><ele>128.0</ele><time>2026-04-04T10:11:53Z</time></trkpt><trkpt lat="43.46500977249399" lon="10.82916121202551"><ele>128.0</ele><time>2026-04-04T10:11:54Z</time></trkpt><trkpt lat="43.465105692409814" lon="10.829015607636594"><ele>128.0</ele><time>2026-04-04T10:11:55Z</time></trkpt><trkpt lat="43.46516176984482" lon="10.828823888168579"><ele>128.0</ele><time>2026-04-04T10:11:56Z</time></trkpt><trkpt lat="43.46519943605951" lon="10.82866357411721"><ele>128.0</ele><time>2026-04-04T10:11:57Z</time></trkpt><trkpt lat="43.46524362404306" lon="10.828473785407635"><ele>126.25</ele><time>2026-04-04T10:11:58Z</time></trkpt><trkpt lat="43.46528625560231" lon="10.828288351695155"><ele>124.5</ele><time>2026-04-04T10:11:59Z</time></trkpt><trkpt lat="43.465318805768604" lon="10.828102814402852"><ele>122.75</ele><time>2026-04-04T10:12:00Z</time></trkpt><trkpt lat="43.465361177633085" lon="10.827927199786126"><ele>121.0</ele><time>2026-04-04T10:12:01Z</time></trkpt><trkpt lat="43.4653981287907" lon="10.827761442695618"><ele>121.0</ele><time>2026-04-04T10:12:02Z</time></trkpt><trkpt lat="43.465461383015345" lon="10.82761880001685"><ele>121.0</ele><time>2026-04-04T10:12:03Z</time></trkpt><trkpt lat="43.46553943522747" lon="10.827503735908534"><ele>121.0</ele><time>2026-04-04T10:12:04Z</time></trkpt><trkpt lat="43.46564182278997" lon="10.827427786438873"><ele>121.0</ele><time>2026-04-04T10:12:05Z</time></trkpt><trkpt lat="43.46575684246093" lon="10.827411497635463"><ele>121.0</ele><time>2026-04-04T10:12:06Z</time></trkpt><trkpt lat="43.46588632418053" lon="10.827437332830481"><ele>121.0</ele><time>2026-04-04T10:12:07Z</time></trkpt><trkpt lat="43.46603996155996" lon="10.827491373399118"><ele>121.0</ele><time>2026-04-04T10:12:08Z</time></trkpt><trkpt lat="43.46621884343931" lon="10.827549268241553"><ele>119.66666666666667</ele><time>2026-04-04T10:12:09Z</time></trkpt><trkpt lat="43.466390842841406" lon="10.827600500530618"><ele>118.33333333333334</ele><time>2026-04-04T10:12:10Z</time></trkpt><trkpt lat="43.466544836117805" lon="10.827685559079324"><ele>117.0</ele><time>2026-04-04T10:12:11Z</time></trkpt><trkpt lat="43.4666852112622" lon="10.827810490601722"><ele>116.75</ele><time>2026-04-04T10:12:12Z</time></trkpt><trkpt lat="43.466810503505485" lon="10.827942623455591"><ele>116.5</ele><time>2026-04-04T10:12:13Z</time></trkpt><trkpt lat="43.46691634466005" lon="10.828074067025613"><ele>116.25</ele><time>2026-04-04T10:12:14Z</time></trkpt><trkpt lat="43.467013451568945" lon="10.828192384447087"><ele>116.0</ele><time>2026-04-04T10:12:15.001Z</time></trkpt><trkpt lat="43.46712736061316" lon="10.828236352247577"><ele>116.0</ele><time>2026-04-04T10:12:16.001Z</time></trkpt><trkpt lat="43.46725346254189" lon="10.82827183428085"><ele>116.0</ele><time>2026-04-04T10:12:17.001Z</time></trkpt><trkpt lat="43.46740772697687" lon="10.828247340921928"><ele>116.0</ele><time>2026-04-04T10:12:18.001Z</time></trkpt><trkpt lat="43.46757076579387" lon="10.828210553390337"><ele>116.0</ele><time>2026-04-04T10:12:19.001Z</time></trkpt><trkpt lat="43.4677462042203" lon="10.828182243923909"><ele>116.0</ele><time>2026-04-04T10:12:20.001Z</time></trkpt><trkpt lat="43.46793624096992" lon="10.828155348979609"><ele>116.0</ele><time>2026-04-04T10:12:21.001Z</time></trkpt><trkpt lat="43.468135951747314" lon="10.828134340356732"><ele>116.0</ele><time>2026-04-04T10:12:22.001Z</time></trkpt><trkpt lat="43.468335552953384" lon="10.828115331010533"><ele>115.33333333333333</ele><time>2026-04-04T10:12:23.001Z</time></trkpt><trkpt lat="43.46851581105191" lon="10.828084452798421"><ele>114.66666666666666</ele><time>2026-04-04T10:12:24.001Z</time></trkpt><trkpt lat="43.46868165198811" lon="10.828063821770774"><ele>114.0</ele><time>2026-04-04T10:12:25.001Z</time></trkpt><trkpt lat="43.46883778095998" lon="10.828099995641846"><ele>116.0</ele><time>2026-04-04T10:12:26.001Z</time></trkpt><trkpt lat="43.468985722960404" lon="10.828187207639532"><ele>118.0</ele><time>2026-04-04T10:12:27.001Z</time></trkpt><trkpt lat="43.469132404148596" lon="10.828324561718087"><ele>120.0</ele><time>2026-04-04T10:12:28.001Z</time></trkpt><trkpt lat="43.46926923214563" lon="10.82848984783962"><ele>120.0</ele><time>2026-04-04T10:12:29.001Z</time></trkpt><trkpt lat="43.46941389710378" lon="10.828626230010682"><ele>120.0</ele><time>2026-04-04T10:12:30.001Z</time></trkpt><trkpt lat="43.46955398395734" lon="10.82875542200116"><ele>120.0</ele><time>2026-04-04T10:12:31.001Z</time></trkpt><trkpt lat="43.46968045190309" lon="10.828881824777604"><ele>121.0</ele><time>2026-04-04T10:12:32.001Z</time></trkpt><trkpt lat="43.46977387205737" lon="10.82903338310326"><ele>122.0</ele><time>2026-04-04T10:12:33.001Z</time></trkpt><trkpt lat="43.46985684270013" lon="10.829207845753919"><ele>123.0</ele><time>2026-04-04T10:12:34.001Z</time></trkpt><trkpt lat="43.469924849185865" lon="10.829398974338895"><ele>123.0</ele><time>2026-04-04T10:12:35.001Z</time></trkpt><trkpt lat="43.46996001384235" lon="10.829606614997838"><ele>123.0</ele><time>2026-04-04T10:12:36.001Z</time></trkpt><trkpt lat="43.469996182665824" lon="10.829822048256995"><ele>123.0</ele><time>2026-04-04T10:12:37.001Z</time></trkpt><trkpt lat="43.470036137729196" lon="10.830040992251003"><ele>122.0</ele><time>2026-04-04T10:12:38.001Z</time></trkpt><trkpt lat="43.4700792818537" lon="10.830249356944558"><ele>121.0</ele><time>2026-04-04T10:12:39.001Z</time></trkpt><trkpt lat="43.4701287368142" lon="10.830443270564933"><ele>120.0</ele><time>2026-04-04T10:12:40.001Z</time></trkpt><trkpt lat="43.470184957139686" lon="10.83061622784023"><ele>119.0</ele><time>2026-04-04T10:12:41.001Z</time></trkpt><trkpt lat="43.470255088024714" lon="10.830773956234696"><ele>119.0</ele><time>2026-04-04T10:12:42.001Z</time></trkpt><trkpt lat="43.470345713258716" lon="10.830919145237942"><ele>119.0</ele><time>2026-04-04T10:12:43.001Z</time></trkpt><trkpt lat="43.4704553506676" lon="10.831042867389542"><ele>119.0</ele><time>2026-04-04T10:12:44.001Z</time></trkpt><trkpt lat="43.47058823340607" lon="10.831127837579043"><ele>119.0</ele><time>2026-04-04T10:12:45.001Z</time></trkpt><trkpt lat="43.470731459011496" lon="10.831224403360636"><ele>120.66666666666666</ele><time>2026-04-04T10:12:46.002Z</time></trkpt><trkpt lat="43.470875759836076" lon="10.831333670548048"><ele>122.33333333333334</ele><time>2026-04-04T10:12:47.002Z</time></trkpt><trkpt lat="43.47102528249559" lon="10.83142368038792"><ele>124.0</ele><time>2026-04-04T10:12:48.002Z</time></trkpt><trkpt lat="43.47117013482285" lon="10.831521860980667"><ele>125.66666666666667</ele><time>2026-04-04T10:12:49.002Z</time></trkpt><trkpt lat="43.47131167297754" lon="10.831613449761283"><ele>127.33333333333334</ele><time>2026-04-04T10:12:50.002Z</time></trkpt><trkpt lat="43.47144995370746" lon="10.831707396124145"><ele>129.0</ele><time>2026-04-04T10:12:51.002Z</time></trkpt><trkpt lat="43.47158418544473" lon="10.831797788253574"><ele>127.66666666666666</ele><time>2026-04-04T10:12:52.002Z</time></trkpt><trkpt lat="43.47171626705335" lon="10.831889735475638"><ele>126.33333333333333</ele><time>2026-04-04T10:12:53.002Z</time></trkpt><trkpt lat="43.471847682690644" lon="10.831985152358245"><ele>125.0</ele><time>2026-04-04T10:12:54.002Z</time></trkpt><trkpt lat="43.4719946664065" lon="10.832055254265477"><ele>126.33333333333333</ele><time>2026-04-04T10:12:55.002Z</time></trkpt><trkpt lat="43.472141678819796" lon="10.832143643484509"><ele>127.66666666666666</ele><time>2026-04-04T10:12:56.002Z</time></trkpt><trkpt lat="43.472310063263095" lon="10.832244212277503"><ele>129.0</ele><time>2026-04-04T10:12:57.002Z</time></trkpt><trkpt lat="43.47249060376609" lon="10.832298560638757"><ele>129.0</ele><time>2026-04-04T10:12:58.002Z</time></trkpt><trkpt lat="43.47264343300294" lon="10.832336134524647"><ele>129.0</ele><time>2026-04-04T10:12:59.002Z</time></trkpt><trkpt lat="43.47277581134208" lon="10.832330000756448"><ele>129.0</ele><time>2026-04-04T10:13:00.002Z</time></trkpt><trkpt lat="43.472895735435145" lon="10.832330525047103"><ele>129.0</ele><time>2026-04-04T10:13:01.002Z</time></trkpt><trkpt lat="43.47301210818946" lon="10.832331421659147"><ele>130.66666666666666</ele><time>2026-04-04T10:13:02.002Z</time></trkpt><trkpt lat="43.473130452503284" lon="10.832281013059141"><ele>132.33333333333331</ele><time>2026-04-04T10:13:03.002Z</time></trkpt><trkpt lat="43.473262293921934" lon="10.8321865126054"><ele>134.0</ele><time>2026-04-04T10:13:04.002Z</time></trkpt><trkpt lat="43.473419753542856" lon="10.832063857800506"><ele>134.0</ele><time>2026-04-04T10:13:05.002Z</time></trkpt><trkpt lat="43.47359734324663" lon="10.831929628090277"><ele>134.0</ele><time>2026-04-04T10:13:06.002Z</time></trkpt><trkpt lat="43.473794489634265" lon="10.831769249896414"><ele>134.0</ele><time>2026-04-04T10:13:07.002Z</time></trkpt><trkpt lat="43.47400364408074" lon="10.831598905274799"><ele>140.0</ele><time>2026-04-04T10:13:08.002Z</time></trkpt><trkpt lat="43.47420859928277" lon="10.83143343539409"><ele>146.0</ele><time>2026-04-04T10:13:09.002Z</time></trkpt><trkpt lat="43.47441316876969" lon="10.831261937521086"><ele>146.66666666666666</ele><time>2026-04-04T10:13:10.002Z</time></trkpt><trkpt lat="43.474604540244" lon="10.831096970737587"><ele>147.33333333333334</ele><time>2026-04-04T10:13:11.002Z</time></trkpt><trkpt lat="43.47478124071939" lon="10.830955178761824"><ele>148.0</ele><time>2026-04-04T10:13:12.002Z</time></trkpt><trkpt lat="43.474944732550334" lon="10.830825611032632"><ele>150.33333333333334</ele><time>2026-04-04T10:13:13.002Z</time></trkpt><trkpt lat="43.475098075614795" lon="10.830700552924661"><ele>152.66666666666666</ele><time>2026-04-04T10:13:14.002Z</time></trkpt><trkpt lat="43.475255000438985" lon="10.830568990157586"><ele>155.0</ele><time>2026-04-04T10:13:15.002Z</time></trkpt><trkpt lat="43.475418529251215" lon="10.830436635775545"><ele>155.0</ele><time>2026-04-04T10:13:16.002Z</time></trkpt><trkpt lat="43.475586255893816" lon="10.83032003387432"><ele>155.0</ele><time>2026-04-04T10:13:17.002Z</time></trkpt><trkpt lat="43.475742433329856" lon="10.830213889693258"><ele>155.0</ele><time>2026-04-04T10:13:18.002Z</time></trkpt><trkpt lat="43.47589045618473" lon="10.830101502122886"><ele>155.0</ele><time>2026-04-04T10:13:19.003Z</time></trkpt><trkpt lat="43.47602997688724" lon="10.82999184670557"><ele>155.0</ele><time>2026-04-04T10:13:20.003Z</time></trkpt><trkpt lat="43.47616079518348" lon="10.829891753938155"><ele>155.0</ele><time>2026-04-04T10:13:21.003Z</time></trkpt><trkpt lat="43.47628556182546" lon="10.829796864554423"><ele>155.0</ele><time>2026-04-04T10:13:22.003Z</time></trkpt><trkpt lat="43.47641961769547" lon="10.829725118970357"><ele>155.0</ele><time>2026-04-04T10:13:23.003Z</time></trkpt><trkpt lat="43.47655769230133" lon="10.829670255496536"><ele>155.0</ele><time>2026-04-04T10:13:24.003Z</time></trkpt><trkpt lat="43.47670675018425" lon="10.829714181203574"><ele>155.0</ele><time>2026-04-04T10:13:25.003Z</time></trkpt><trkpt lat="43.4768525874816" lon="10.829716810712082"><ele>155.0</ele><time>2026-04-04T10:13:26.003Z</time></trkpt><trkpt lat="43.47700606547327" lon="10.829731467403544"><ele>155.0</ele><time>2026-04-04T10:13:27.003Z</time></trkpt><trkpt lat="43.47717508345691" lon="10.829735627803142"><ele>155.0</ele><time>2026-04-04T10:13:28.003Z</time></trkpt><trkpt lat="43.47736634515464" lon="10.829760407880649"><ele>158.5</ele><time>2026-04-04T10:13:29.003Z</time></trkpt><trkpt lat="43.47757280515832" lon="10.829451948259802"><ele>162.0</ele><time>2026-04-04T10:13:30.003Z</time></trkpt><trkpt lat="43.477775266335264" lon="10.829328313446519"><ele>166.5</ele><time>2026-04-04T10:13:31.003Z</time></trkpt><trkpt lat="43.47798629833364" lon="10.829203749330727"><ele>171.0</ele><time>2026-04-04T10:13:32.003Z</time></trkpt><trkpt lat="43.47820369355651" lon="10.829079322794398"><ele>171.0</ele><time>2026-04-04T10:13:33.003Z</time></trkpt><trkpt lat="43.478423141689646" lon="10.828957032954825"><ele>171.0</ele><time>2026-04-04T10:13:34.003Z</time></trkpt><trkpt lat="43.47862610098197" lon="10.82884841445792"><ele>174.0</ele><time>2026-04-04T10:13:35.003Z</time></trkpt><trkpt lat="43.478810162057535" lon="10.82875300458072"><ele>177.0</ele><time>2026-04-04T10:13:36.003Z</time></trkpt><trkpt lat="43.478969791390476" lon="10.828665238528382"><ele>180.0</ele><time>2026-04-04T10:13:37.003Z</time></trkpt><trkpt lat="43.479106389565565" lon="10.828587871801444"><ele>180.0</ele><time>2026-04-04T10:13:38.003Z</time></trkpt><trkpt lat="43.47923189213615" lon="10.82854994514233"><ele>180.0</ele><time>2026-04-04T10:13:39.003Z</time></trkpt><trkpt lat="43.47935021266865" lon="10.828567822508706"><ele>180.0</ele><time>2026-04-04T10:13:40.003Z</time></trkpt><trkpt lat="43.479473104485265" lon="10.828636029367877"><ele>180.0</ele><time>2026-04-04T10:13:41.003Z</time></trkpt><trkpt lat="43.4796037803795" lon="10.828714965747206"><ele>180.66666666666666</ele><time>2026-04-04T10:13:42.003Z</time></trkpt><trkpt lat="43.47975746194483" lon="10.828795559000694"><ele>181.33333333333331</ele><time>2026-04-04T10:13:43.003Z</time></trkpt><trkpt lat="43.479928578084824" lon="10.828898418581527"><ele>182.0</ele><time>2026-04-04T10:13:44.003Z</time></trkpt><trkpt lat="43.48009600017557" lon="10.829000045859127"><ele>182.0</ele><time>2026-04-04T10:13:45Z</time></trkpt><trkpt lat="43.480276702429045" lon="10.829108461408316"><ele>182.0</ele><time>2026-04-04T10:13:46Z</time></trkpt><trkpt lat="43.480463411307696" lon="10.829220073243635"><ele>182.0</ele><time>2026-04-04T10:13:47Z</time></trkpt><trkpt lat="43.48064650315803" lon="10.829325050555378"><ele>185.66666666666666</ele><time>2026-04-04T10:13:48Z</time></trkpt><trkpt lat="43.48081629599981" lon="10.829430888752574"><ele>189.33333333333331</ele><time>2026-04-04T10:13:49Z</time></trkpt><trkpt lat="43.48096148649154" lon="10.829525602951547"><ele>193.0</ele><time>2026-04-04T10:13:50Z</time></trkpt><trkpt lat="43.48108509638939" lon="10.829604033862713"><ele>193.0</ele><time>2026-04-04T10:13:51Z</time></trkpt><trkpt lat="43.48118629046237" lon="10.829639770242663"><ele>193.0</ele><time>2026-04-04T10:13:52Z</time></trkpt><trkpt lat="43.481268285501805" lon="10.829702981619814"><ele>193.0</ele><time>2026-04-04T10:13:53Z</time></trkpt><trkpt lat="43.48133121857942" lon="10.829745124278341"><ele>193.0</ele><time>2026-04-04T10:13:54Z</time></trkpt><trkpt lat="43.48140126852537" lon="10.829785653384251"><ele>193.0</ele><time>2026-04-04T10:13:56Z</time></trkpt><trkpt lat="43.48150284804774" lon="10.829868150779928"><ele>193.75</ele><time>2026-04-04T10:13:58Z</time></trkpt><trkpt lat="43.48157883320412" lon="10.829989341186772"><ele>194.5</ele><time>2026-04-04T10:14:00Z</time></trkpt><trkpt lat="43.48160089966099" lon="10.830140696917022"><ele>195.25</ele><time>2026-04-04T10:14:02Z</time></trkpt><trkpt lat="43.48175521323955" lon="10.830119761561004"><ele>196.0</ele><time>2026-04-04T10:14:06Z</time></trkpt><trkpt lat="43.48182790800458" lon="10.83007291724923"><ele>196.0</ele><time>2026-04-04T10:14:07Z</time></trkpt><trkpt lat="43.481907625764215" lon="10.829960297144435"><ele>196.0</ele><time>2026-04-04T10:14:08Z</time></trkpt><trkpt lat="43.48200203047548" lon="10.829838704502869"><ele>196.0</ele><time>2026-04-04T10:14:09Z</time></trkpt><trkpt lat="43.48209416057334" lon="10.82972696902442"><ele>196.0</ele><time>2026-04-04T10:14:10Z</time></trkpt><trkpt lat="43.48220761654683" lon="10.829638923219726"><ele>194.25</ele><time>2026-04-04T10:14:11Z</time></trkpt><trkpt lat="43.482352553276236" lon="10.82959583559517"><ele>192.5</ele><time>2026-04-04T10:14:12Z</time></trkpt><trkpt lat="43.48249593322792" lon="10.829564637435286"><ele>190.75</ele><time>2026-04-04T10:14:13Z</time></trkpt><trkpt lat="43.48262207749364" lon="10.829528485319086"><ele>189.0</ele><time>2026-04-04T10:14:14Z</time></trkpt><trkpt lat="43.48272344895494" lon="10.829479781289933"><ele>189.0</ele><time>2026-04-04T10:14:15Z</time></trkpt><trkpt lat="43.482801988831035" lon="10.829414080254331"><ele>189.0</ele><time>2026-04-04T10:14:16.001Z</time></trkpt><trkpt lat="43.48285635804669" lon="10.82931780128153"><ele>189.0</ele><time>2026-04-04T10:14:17.001Z</time></trkpt><trkpt lat="43.48286194458289" lon="10.829173592248253"><ele>189.0</ele><time>2026-04-04T10:14:18.001Z</time></trkpt><trkpt lat="43.48284606268116" lon="10.829024745734104"><ele>189.0</ele><time>2026-04-04T10:14:19.001Z</time></trkpt><trkpt lat="43.48282203758192" lon="10.82885870378865"><ele>191.0</ele><time>2026-04-04T10:14:20.001Z</time></trkpt><trkpt lat="43.48277218870583" lon="10.82870480893612"><ele>193.0</ele><time>2026-04-04T10:14:21.001Z</time></trkpt><trkpt lat="43.482701352738616" lon="10.828557371825612"><ele>195.0</ele><time>2026-04-04T10:14:22.001Z</time></trkpt><trkpt lat="43.48262752597698" lon="10.828416678394703"><ele>197.0</ele><time>2026-04-04T10:14:23.001Z</time></trkpt><trkpt lat="43.48255346041601" lon="10.8282727437835"><ele>197.0</ele><time>2026-04-04T10:14:24.001Z</time></trkpt><trkpt lat="43.48249628431507" lon="10.82814880952565"><ele>197.0</ele><time>2026-04-04T10:14:25.001Z</time></trkpt><trkpt lat="43.4824554531041" lon="10.828024007881014"><ele>197.0</ele><time>2026-04-04T10:14:26.001Z</time></trkpt><trkpt lat="43.482429526006314" lon="10.827892359878994"><ele>197.0</ele><time>2026-04-04T10:14:27.001Z</time></trkpt><trkpt lat="43.48242038930174" lon="10.827743233447066"><ele>197.0</ele><time>2026-04-04T10:14:28.001Z</time></trkpt><trkpt lat="43.48241587534368" lon="10.827578850094152"><ele>195.25</ele><time>2026-04-04T10:14:29.001Z</time></trkpt><trkpt lat="43.48241525084711" lon="10.827406891078999"><ele>193.5</ele><time>2026-04-04T10:14:30.001Z</time></trkpt><trkpt lat="43.482422558833" lon="10.827226437481784"><ele>191.75</ele><time>2026-04-04T10:14:31.001Z</time></trkpt><trkpt lat="43.48243404857446" lon="10.82703685657938"><ele>190.0</ele><time>2026-04-04T10:14:32.001Z</time></trkpt><trkpt lat="43.48245285776815" lon="10.826840578631222"><ele>188.66666666666669</ele><time>2026-04-04T10:14:33.001Z</time></trkpt><trkpt lat="43.48246325436948" lon="10.82662602948468"><ele>187.33333333333334</ele><time>2026-04-04T10:14:34.001Z</time></trkpt><trkpt lat="43.48249374110001" lon="10.826396793067032"><ele>186.0</ele><time>2026-04-04T10:14:35.001Z</time></trkpt><trkpt lat="43.482520655110946" lon="10.8261614618373"><ele>184.33333333333334</ele><time>2026-04-04T10:14:36.001Z</time></trkpt><trkpt lat="43.48256487332876" lon="10.825917241856217"><ele>182.66666666666669</ele><time>2026-04-04T10:14:37.001Z</time></trkpt><trkpt lat="43.48258117713556" lon="10.82566008444382"><ele>181.0</ele><time>2026-04-04T10:14:38.001Z</time></trkpt><trkpt lat="43.482612227707136" lon="10.825410317085764"><ele>181.0</ele><time>2026-04-04T10:14:39.001Z</time></trkpt><trkpt lat="43.48264244843002" lon="10.825155006945728"><ele>181.0</ele><time>2026-04-04T10:14:40.001Z</time></trkpt><trkpt lat="43.48266506657225" lon="10.824898069267372"><ele>181.0</ele><time>2026-04-04T10:14:41.001Z</time></trkpt><trkpt lat="43.482665716949214" lon="10.824644542873587"><ele>178.0</ele><time>2026-04-04T10:14:42.001Z</time></trkpt><trkpt lat="43.48267311948266" lon="10.824403462077148"><ele>175.0</ele><time>2026-04-04T10:14:43.001Z</time></trkpt><trkpt lat="43.482662367352624" lon="10.824178521754186"><ele>172.0</ele><time>2026-04-04T10:14:44.001Z</time></trkpt><trkpt lat="43.482651919500874" lon="10.823959947148232"><ele>171.5</ele><time>2026-04-04T10:14:45.001Z</time></trkpt><trkpt lat="43.48264737015662" lon="10.823752083354329"><ele>171.0</ele><time>2026-04-04T10:14:46.001Z</time></trkpt><trkpt lat="43.48265316267215" lon="10.823552580033441"><ele>170.5</ele><time>2026-04-04T10:14:47.002Z</time></trkpt><trkpt lat="43.48266682003324" lon="10.823351834507916"><ele>170.0</ele><time>2026-04-04T10:14:48.002Z</time></trkpt><trkpt lat="43.48271223713823" lon="10.823162018683165"><ele>170.0</ele><time>2026-04-04T10:14:49.002Z</time></trkpt><trkpt lat="43.482761692594494" lon="10.822982092030378"><ele>170.0</ele><time>2026-04-04T10:14:50.002Z</time></trkpt><trkpt lat="43.48279211557806" lon="10.82278633120206"><ele>170.0</ele><time>2026-04-04T10:14:51.002Z</time></trkpt><trkpt lat="43.48279853783862" lon="10.822574330668406"><ele>170.0</ele><time>2026-04-04T10:14:52.002Z</time></trkpt><trkpt lat="43.482782128130914" lon="10.822355810448766"><ele>169.66666666666666</ele><time>2026-04-04T10:14:53.002Z</time></trkpt><trkpt lat="43.48275844694475" lon="10.822129851497825"><ele>169.33333333333334</ele><time>2026-04-04T10:14:54.002Z</time></trkpt><trkpt lat="43.482731727578894" lon="10.82189708692787"><ele>169.0</ele><time>2026-04-04T10:14:55.002Z</time></trkpt><trkpt lat="43.482703466424404" lon="10.821650890691288"><ele>167.33333333333334</ele><time>2026-04-04T10:14:56.002Z</time></trkpt><trkpt lat="43.48267312734801" lon="10.821394120234537"><ele>165.66666666666666</ele><time>2026-04-04T10:14:57.002Z</time></trkpt><trkpt lat="43.48264313468318" lon="10.821134195942596"><ele>164.0</ele><time>2026-04-04T10:14:58.002Z</time></trkpt><trkpt lat="43.48261962716548" lon="10.820884796937124"><ele>163.66666666666666</ele><time>2026-04-04T10:14:59.002Z</time></trkpt><trkpt lat="43.48260583957408" lon="10.820649121682216"><ele>163.33333333333334</ele><time>2026-04-04T10:15:00.002Z</time></trkpt><trkpt lat="43.482613234640326" lon="10.820415277612959"><ele>163.0</ele><time>2026-04-04T10:15:01.002Z</time></trkpt><trkpt lat="43.482640375577304" lon="10.820173708798075"><ele>162.66666666666669</ele><time>2026-04-04T10:15:02.002Z</time></trkpt><trkpt lat="43.482664346366846" lon="10.819927814900613"><ele>162.33333333333334</ele><time>2026-04-04T10:15:03.002Z</time></trkpt><trkpt lat="43.482662105155505" lon="10.81968771297993"><ele>162.0</ele><time>2026-04-04T10:15:04.002Z</time></trkpt><trkpt lat="43.48266374499463" lon="10.819455407370068"><ele>161.33333333333334</ele><time>2026-04-04T10:15:05.002Z</time></trkpt><trkpt lat="43.48264644546374" lon="10.819226333185702"><ele>160.66666666666669</ele><time>2026-04-04T10:15:06.002Z</time></trkpt><trkpt lat="43.48264440188163" lon="10.819008673793142"><ele>160.0</ele><time>2026-04-04T10:15:07.002Z</time></trkpt><trkpt lat="43.482627787711216" lon="10.818794754932231"><ele>160.0</ele><time>2026-04-04T10:15:08.002Z</time></trkpt><trkpt lat="43.482601386898544" lon="10.818583192275863"><ele>160.0</ele><time>2026-04-04T10:15:09.002Z</time></trkpt><trkpt lat="43.48256349951565" lon="10.818371001241733"><ele>160.0</ele><time>2026-04-04T10:15:10.002Z</time></trkpt><trkpt lat="43.482525340998365" lon="10.818162444461754"><ele>158.5</ele><time>2026-04-04T10:15:11.002Z</time></trkpt><trkpt lat="43.48249016523848" lon="10.817964963214854"><ele>157.0</ele><time>2026-04-04T10:15:12.002Z</time></trkpt><trkpt lat="43.482459375763874" lon="10.817786464972896"><ele>155.5</ele><time>2026-04-04T10:15:13.002Z</time></trkpt><trkpt lat="43.4824295881642" lon="10.817619688819663"><ele>154.0</ele><time>2026-04-04T10:15:14.002Z</time></trkpt><trkpt lat="43.48239234392361" lon="10.81747524074807"><ele>152.4</ele><time>2026-04-04T10:15:15.002Z</time></trkpt><trkpt lat="43.48234273085336" lon="10.817349809480428"><ele>150.8</ele><time>2026-04-04T10:15:16.002Z</time></trkpt><trkpt lat="43.48232590819899" lon="10.817207283331532"><ele>149.2</ele><time>2026-04-04T10:15:17.002Z</time></trkpt><trkpt lat="43.48232668804618" lon="10.817049573779878"><ele>147.6</ele><time>2026-04-04T10:15:18.002Z</time></trkpt><trkpt lat="43.4823707311598" lon="10.81689136635445"><ele>146.0</ele><time>2026-04-04T10:15:19.002Z</time></trkpt><trkpt lat="43.48241208117908" lon="10.81671183542547"><ele>144.33333333333331</ele><time>2026-04-04T10:15:20.003Z</time></trkpt><trkpt lat="43.482487168557746" lon="10.816519711276127"><ele>142.66666666666666</ele><time>2026-04-04T10:15:21.003Z</time></trkpt><trkpt lat="43.48256815042221" lon="10.816311917741851"><ele>141.0</ele><time>2026-04-04T10:15:22.003Z</time></trkpt><trkpt lat="43.48264328015971" lon="10.816095667145287"><ele>140.0</ele><time>2026-04-04T10:15:23.003Z</time></trkpt><trkpt lat="43.48273608361781" lon="10.815882112050478"><ele>139.0</ele><time>2026-04-04T10:15:24.003Z</time></trkpt><trkpt lat="43.48281770772841" lon="10.815657149244023"><ele>138.0</ele><time>2026-04-04T10:15:25.003Z</time></trkpt><trkpt lat="43.482899336055624" lon="10.815426351391215"><ele>136.33333333333334</ele><time>2026-04-04T10:15:26.003Z</time></trkpt><trkpt lat="43.48297800239249" lon="10.815205537435395"><ele>134.66666666666669</ele><time>2026-04-04T10:15:27.003Z</time></trkpt><trkpt lat="43.48305894151576" lon="10.814981821250475"><ele>133.0</ele><time>2026-04-04T10:15:28.003Z</time></trkpt><trkpt lat="43.48314016364041" lon="10.814756183145327"><ele>133.0</ele><time>2026-04-04T10:15:29.003Z</time></trkpt><trkpt lat="43.483218644457864" lon="10.814537289911272"><ele>133.0</ele><time>2026-04-04T10:15:30.003Z</time></trkpt><trkpt lat="43.483300183339395" lon="10.814311056046646"><ele>133.0</ele><time>2026-04-04T10:15:31.003Z</time></trkpt><trkpt lat="43.48338132686547" lon="10.814093160033075"><ele>134.0</ele><time>2026-04-04T10:15:32.003Z</time></trkpt><trkpt lat="43.48346588680543" lon="10.813876343056917"><ele>135.0</ele><time>2026-04-04T10:15:33.003Z</time></trkpt><trkpt lat="43.48357492136665" lon="10.813700344843157"><ele>136.0</ele><time>2026-04-04T10:15:34.003Z</time></trkpt><trkpt lat="43.48371875858063" lon="10.813547527378116"><ele>136.33333333333334</ele><time>2026-04-04T10:15:35.003Z</time></trkpt><trkpt lat="43.48388900050317" lon="10.813373559251033"><ele>136.66666666666666</ele><time>2026-04-04T10:15:36.003Z</time></trkpt><trkpt lat="43.48407592697047" lon="10.813183056671766"><ele>137.0</ele><time>2026-04-04T10:15:37.003Z</time></trkpt><trkpt lat="43.484269713254236" lon="10.812972345497396"><ele>137.0</ele><time>2026-04-04T10:15:38.003Z</time></trkpt><trkpt lat="43.48445049966368" lon="10.812798150192643"><ele>137.0</ele><time>2026-04-04T10:15:39.003Z</time></trkpt><trkpt lat="43.484612726356445" lon="10.81263994261414"><ele>137.0</ele><time>2026-04-04T10:15:40.003Z</time></trkpt><trkpt lat="43.484758886618614" lon="10.812476562626237"><ele>137.33333333333331</ele><time>2026-04-04T10:15:41.003Z</time></trkpt><trkpt lat="43.484876996934716" lon="10.812287304918405"><ele>137.66666666666666</ele><time>2026-04-04T10:15:42.003Z</time></trkpt><trkpt lat="43.484960928913935" lon="10.8120648593653"><ele>138.0</ele><time>2026-04-04T10:15:43.003Z</time></trkpt><trkpt lat="43.485032769952895" lon="10.811793870896768"><ele>138.33333333333334</ele><time>2026-04-04T10:15:44.003Z</time></trkpt><trkpt lat="43.48510650437532" lon="10.811505882789152"><ele>138.66666666666669</ele><time>2026-04-04T10:15:45.003Z</time></trkpt><trkpt lat="43.4852086217745" lon="10.811245152322636"><ele>139.0</ele><time>2026-04-04T10:15:46.003Z</time></trkpt><trkpt lat="43.48528804985929" lon="10.810968750311517"><ele>139.0</ele><time>2026-04-04T10:15:47.003Z</time></trkpt><trkpt lat="43.48537662578004" lon="10.810694580700373"><ele>139.0</ele><time>2026-04-04T10:15:48.003Z</time></trkpt><trkpt lat="43.48545635898946" lon="10.810413157444463"><ele>139.0</ele><time>2026-04-04T10:15:49.003Z</time></trkpt><trkpt lat="43.48553075396351" lon="10.810121898836588"><ele>137.66666666666669</ele><time>2026-04-04T10:15:50.003Z</time></trkpt><trkpt lat="43.48559692666437" lon="10.809826031731914"><ele>136.33333333333334</ele><time>2026-04-04T10:15:51Z</time></trkpt><trkpt lat="43.48566047894267" lon="10.809539984076162"><ele>135.0</ele><time>2026-04-04T10:15:52Z</time></trkpt><trkpt lat="43.48572350643947" lon="10.809275632084956"><ele>135.0</ele><time>2026-04-04T10:15:53Z</time></trkpt><trkpt lat="43.485778877075695" lon="10.809028009793273"><ele>135.0</ele><time>2026-04-04T10:15:54Z</time></trkpt><trkpt lat="43.48582613064101" lon="10.808773827225258"><ele>135.0</ele><time>2026-04-04T10:15:55Z</time></trkpt><trkpt lat="43.485863597012894" lon="10.8085007159637"><ele>135.66666666666666</ele><time>2026-04-04T10:15:56Z</time></trkpt><trkpt lat="43.48587718650585" lon="10.808214721604282"><ele>136.33333333333331</ele><time>2026-04-04T10:15:57Z</time></trkpt><trkpt lat="43.48585990341582" lon="10.807925788099027"><ele>137.0</ele><time>2026-04-04T10:15:58Z</time></trkpt><trkpt lat="43.48583944159601" lon="10.807637360846435"><ele>137.33333333333331</ele><time>2026-04-04T10:15:59Z</time></trkpt><trkpt lat="43.485793371561876" lon="10.807349989332094"><ele>137.66666666666666</ele><time>2026-04-04T10:16:00Z</time></trkpt><trkpt lat="43.485705770208064" lon="10.807066501794653"><ele>138.0</ele><time>2026-04-04T10:16:01Z</time></trkpt><trkpt lat="43.485611892387695" lon="10.80677593940037"><ele>138.0</ele><time>2026-04-04T10:16:02Z</time></trkpt><trkpt lat="43.48550879677181" lon="10.80648499574392"><ele>138.0</ele><time>2026-04-04T10:16:03Z</time></trkpt><trkpt lat="43.48540747317943" lon="10.806197685563163"><ele>136.5</ele><time>2026-04-04T10:16:04Z</time></trkpt><trkpt lat="43.48530745157682" lon="10.805914067082725"><ele>135.0</ele><time>2026-04-04T10:16:05Z</time></trkpt><trkpt lat="43.48520662050403" lon="10.805628153530927"><ele>135.0</ele><time>2026-04-04T10:16:06Z</time></trkpt><trkpt lat="43.48510791146589" lon="10.805352402810314"><ele>135.0</ele><time>2026-04-04T10:16:07Z</time></trkpt><trkpt lat="43.48501590240662" lon="10.805103844371729"><ele>135.0</ele><time>2026-04-04T10:16:08Z</time></trkpt><trkpt lat="43.4849372181048" lon="10.804866103793676"><ele>136.33333333333334</ele><time>2026-04-04T10:16:09Z</time></trkpt><trkpt lat="43.48488740348346" lon="10.804626398814241"><ele>137.66666666666669</ele><time>2026-04-04T10:16:10Z</time></trkpt><trkpt lat="43.48485731135887" lon="10.804371305207603"><ele>139.0</ele><time>2026-04-04T10:16:11Z</time></trkpt><trkpt lat="43.48483128209721" lon="10.804097716636274"><ele>140.0</ele><time>2026-04-04T10:16:12Z</time></trkpt><trkpt lat="43.48480795481356" lon="10.803845086469474"><ele>141.0</ele><time>2026-04-04T10:16:13Z</time></trkpt><trkpt lat="43.484793567048115" lon="10.803618817850529"><ele>142.0</ele><time>2026-04-04T10:16:14Z</time></trkpt><trkpt lat="43.484796168613684" lon="10.803422579433471"><ele>142.0</ele><time>2026-04-04T10:16:15Z</time></trkpt><trkpt lat="43.48481059090928" lon="10.80324134830925"><ele>142.0</ele><time>2026-04-04T10:16:16Z</time></trkpt><trkpt lat="43.48485289280129" lon="10.803057020640091"><ele>142.0</ele><time>2026-04-04T10:16:17Z</time></trkpt><trkpt lat="43.484924637416384" lon="10.8028515645429"><ele>142.0</ele><time>2026-04-04T10:16:18Z</time></trkpt><trkpt lat="43.48499935807567" lon="10.802635843379102"><ele>142.0</ele><time>2026-04-04T10:16:19Z</time></trkpt><trkpt lat="43.48506424897302" lon="10.80241940579145"><ele>142.0</ele><time>2026-04-04T10:16:20Z</time></trkpt><trkpt lat="43.485143755150936" lon="10.80223507186069"><ele>142.0</ele><time>2026-04-04T10:16:21.001Z</time></trkpt><trkpt lat="43.48522686862437" lon="10.802073114240281"><ele>142.0</ele><time>2026-04-04T10:16:22.001Z</time></trkpt><trkpt lat="43.48533019077656" lon="10.801933018677948"><ele>142.0</ele><time>2026-04-04T10:16:23.001Z</time></trkpt><trkpt lat="43.485455861678695" lon="10.801797883372558"><ele>142.0</ele><time>2026-04-04T10:16:24.001Z</time></trkpt><trkpt lat="43.48559220729777" lon="10.801660589180493"><ele>141.66666666666669</ele><time>2026-04-04T10:16:25.001Z</time></trkpt><trkpt lat="43.48572652340938" lon="10.801535260734019"><ele>141.33333333333334</ele><time>2026-04-04T10:16:26.001Z</time></trkpt><trkpt lat="43.48585075742507" lon="10.801414006341965"><ele>141.0</ele><time>2026-04-04T10:16:27.001Z</time></trkpt><trkpt lat="43.4859711264382" lon="10.801295260053154"><ele>141.0</ele><time>2026-04-04T10:16:28.001Z</time></trkpt><trkpt lat="43.486086176923536" lon="10.801169535657731"><ele>141.0</ele><time>2026-04-04T10:16:29.001Z</time></trkpt><trkpt lat="43.486173952022256" lon="10.800999321190009"><ele>141.0</ele><time>2026-04-04T10:16:30.001Z</time></trkpt><trkpt lat="43.486230329648805" lon="10.800796323951575"><ele>139.33333333333334</ele><time>2026-04-04T10:16:31.001Z</time></trkpt><trkpt lat="43.48626202338829" lon="10.800570530234907"><ele>137.66666666666669</ele><time>2026-04-04T10:16:32.001Z</time></trkpt><trkpt lat="43.48629214343759" lon="10.800349585172341"><ele>136.0</ele><time>2026-04-04T10:16:33.001Z</time></trkpt><trkpt lat="43.48632329409919" lon="10.800124146176085"><ele>133.66666666666669</ele><time>2026-04-04T10:16:34.001Z</time></trkpt><trkpt lat="43.486371051274034" lon="10.799914580523186"><ele>131.33333333333334</ele><time>2026-04-04T10:16:35.001Z</time></trkpt><trkpt lat="43.48638640094804" lon="10.799704709946731"><ele>129.0</ele><time>2026-04-04T10:16:36.001Z</time></trkpt><trkpt lat="43.48643220208786" lon="10.799514297840496"><ele>128.5</ele><time>2026-04-04T10:16:37.001Z</time></trkpt><trkpt lat="43.486461083855644" lon="10.799325976735846"><ele>128.0</ele><time>2026-04-04T10:16:38.001Z</time></trkpt><trkpt lat="43.48647457006962" lon="10.799136937332282"><ele>127.5</ele><time>2026-04-04T10:16:39.001Z</time></trkpt><trkpt lat="43.48651777959355" lon="10.798967299185755"><ele>127.0</ele><time>2026-04-04T10:16:40.001Z</time></trkpt><trkpt lat="43.486554767668274" lon="10.79880398911919"><ele>127.0</ele><time>2026-04-04T10:16:41.001Z</time></trkpt><trkpt lat="43.486611001015746" lon="10.798630593291321"><ele>127.0</ele><time>2026-04-04T10:16:42.001Z</time></trkpt><trkpt lat="43.48668633231493" lon="10.798446313727757"><ele>127.0</ele><time>2026-04-04T10:16:43.001Z</time></trkpt><trkpt lat="43.48677520616475" lon="10.798244648136006"><ele>127.66666666666667</ele><time>2026-04-04T10:16:44.001Z</time></trkpt><trkpt lat="43.486874062949404" lon="10.79801807809658"><ele>128.33333333333334</ele><time>2026-04-04T10:16:45.001Z</time></trkpt><trkpt lat="43.48696937603412" lon="10.797772751961851"><ele>129.0</ele><time>2026-04-04T10:16:46.001Z</time></trkpt><trkpt lat="43.487099697037756" lon="10.797511962586693"><ele>128.33333333333334</ele><time>2026-04-04T10:16:47.001Z</time></trkpt><trkpt lat="43.48720969855843" lon="10.797255232228917"><ele>127.66666666666667</ele><time>2026-04-04T10:16:48.001Z</time></trkpt><trkpt lat="43.48730661640505" lon="10.79702483251787"><ele>127.0</ele><time>2026-04-04T10:16:49.001Z</time></trkpt><trkpt lat="43.48739806314306" lon="10.796806666994119"><ele>127.0</ele><time>2026-04-04T10:16:50.001Z</time></trkpt><trkpt lat="43.4874894306376" lon="10.796608353878717"><ele>127.0</ele><time>2026-04-04T10:16:51.001Z</time></trkpt><trkpt lat="43.48758437637749" lon="10.796446021800389"><ele>127.0</ele><time>2026-04-04T10:16:52.001Z</time></trkpt><trkpt lat="43.4877096525327" lon="10.796327285521542"><ele>127.0</ele><time>2026-04-04T10:16:53.001Z</time></trkpt><trkpt lat="43.48788003162012" lon="10.796272362246613"><ele>127.0</ele><time>2026-04-04T10:16:54.001Z</time></trkpt><trkpt lat="43.48806942427034" lon="10.79627454133326"><ele>127.0</ele><time>2026-04-04T10:16:55.002Z</time></trkpt><trkpt lat="43.48826766587463" lon="10.796315418585236"><ele>125.0</ele><time>2026-04-04T10:16:56.002Z</time></trkpt><trkpt lat="43.48846758975395" lon="10.796343177701422"><ele>123.0</ele><time>2026-04-04T10:16:57.002Z</time></trkpt><trkpt lat="43.48865051455321" lon="10.796303275280398"><ele>121.0</ele><time>2026-04-04T10:16:58.002Z</time></trkpt><trkpt lat="43.48881310245693" lon="10.79626222753585"><ele>120.25</ele><time>2026-04-04T10:16:59.002Z</time></trkpt><trkpt lat="43.48896720537386" lon="10.796234319156316"><ele>119.5</ele><time>2026-04-04T10:17:00.002Z</time></trkpt><trkpt lat="43.48910809156272" lon="10.796183860216136"><ele>118.75</ele><time>2026-04-04T10:17:01.002Z</time></trkpt><trkpt lat="43.48922907716055" lon="10.796106259267559"><ele>118.0</ele><time>2026-04-04T10:17:02.002Z</time></trkpt><trkpt lat="43.48933957197608" lon="10.79603504361583"><ele>117.75</ele><time>2026-04-04T10:17:03.002Z</time></trkpt><trkpt lat="43.48943358707052" lon="10.795960624236928"><ele>117.5</ele><time>2026-04-04T10:17:04.002Z</time></trkpt><trkpt lat="43.489498022488" lon="10.795818915364368"><ele>117.25</ele><time>2026-04-04T10:17:05.002Z</time></trkpt><trkpt lat="43.48955222214582" lon="10.795652441537635"><ele>117.0</ele><time>2026-04-04T10:17:06.002Z</time></trkpt><trkpt lat="43.48960891871789" lon="10.79547246855925"><ele>117.0</ele><time>2026-04-04T10:17:07.002Z</time></trkpt><trkpt lat="43.48966660464451" lon="10.795285854846428"><ele>117.0</ele><time>2026-04-04T10:17:08.002Z</time></trkpt><trkpt lat="43.48973308153211" lon="10.795091962476043"><ele>117.0</ele><time>2026-04-04T10:17:09.002Z</time></trkpt><trkpt lat="43.48979921572381" lon="10.794884759249754"><ele>118.66666666666666</ele><time>2026-04-04T10:17:10.002Z</time></trkpt><trkpt lat="43.48986690991894" lon="10.79467329648974"><ele>120.33333333333333</ele><time>2026-04-04T10:17:11.002Z</time></trkpt><trkpt lat="43.489931311981024" lon="10.794471346161158"><ele>122.0</ele><time>2026-04-04T10:17:12.002Z</time></trkpt><trkpt lat="43.48999327467309" lon="10.794274716973291"><ele>123.75</ele><time>2026-04-04T10:17:13.002Z</time></trkpt><trkpt lat="43.49004981630295" lon="10.794078483874637"><ele>125.5</ele><time>2026-04-04T10:17:14.002Z</time></trkpt><trkpt lat="43.49010299776153" lon="10.793892462952805"><ele>127.25</ele><time>2026-04-04T10:17:15.002Z</time></trkpt><trkpt lat="43.4901497273368" lon="10.793725671853979"><ele>129.0</ele><time>2026-04-04T10:17:16.002Z</time></trkpt><trkpt lat="43.490198731228396" lon="10.793572339140107"><ele>128.5</ele><time>2026-04-04T10:17:17.002Z</time></trkpt><trkpt lat="43.4902425347696" lon="10.79341604237286"><ele>128.0</ele><time>2026-04-04T10:17:18.002Z</time></trkpt><trkpt lat="43.490295383852896" lon="10.793265177141715"><ele>127.5</ele><time>2026-04-04T10:17:19.002Z</time></trkpt><trkpt lat="43.49036239892543" lon="10.793103940446054"><ele>127.0</ele><time>2026-04-04T10:17:20.002Z</time></trkpt><trkpt lat="43.49041547716706" lon="10.792923634987012"><ele>127.33333333333334</ele><time>2026-04-04T10:17:21.002Z</time></trkpt><trkpt lat="43.49047497562072" lon="10.792726653178356"><ele>127.66666666666666</ele><time>2026-04-04T10:17:22.002Z</time></trkpt><trkpt lat="43.49054959340296" lon="10.792531424168605"><ele>128.0</ele><time>2026-04-04T10:17:23.002Z</time></trkpt><trkpt lat="43.49063638227487" lon="10.792338625978445"><ele>128.66666666666666</ele><time>2026-04-04T10:17:24.002Z</time></trkpt><trkpt lat="43.49072386390705" lon="10.792152106131288"><ele>129.33333333333334</ele><time>2026-04-04T10:17:25.002Z</time></trkpt><trkpt lat="43.490813394080305" lon="10.791958314701036"><ele>130.0</ele><time>2026-04-04T10:17:26.002Z</time></trkpt><trkpt lat="43.49090284444835" lon="10.791753273847076"><ele>130.66666666666669</ele><time>2026-04-04T10:17:27.002Z</time></trkpt><trkpt lat="43.49099697917373" lon="10.791545867127741"><ele>131.33333333333334</ele><time>2026-04-04T10:17:28.002Z</time></trkpt><trkpt lat="43.49109664340535" lon="10.79133854297534"><ele>132.0</ele><time>2026-04-04T10:17:29.003Z</time></trkpt><trkpt lat="43.49119262905478" lon="10.791132899364602"><ele>128.66666666666666</ele><time>2026-04-04T10:17:30.003Z</time></trkpt><trkpt lat="43.49129831955247" lon="10.790919297480267"><ele>125.33333333333333</ele><time>2026-04-04T10:17:31.003Z</time></trkpt><trkpt lat="43.491411041696985" lon="10.790719060937493"><ele>122.0</ele><time>2026-04-04T10:17:32.003Z</time></trkpt><trkpt lat="43.491523494459344" lon="10.790524667365919"><ele>122.0</ele><time>2026-04-04T10:17:33.003Z</time></trkpt><trkpt lat="43.49163640939036" lon="10.79034246983446"><ele>122.0</ele><time>2026-04-04T10:17:34.003Z</time></trkpt><trkpt lat="43.49174160738327" lon="10.790178386734508"><ele>122.0</ele><time>2026-04-04T10:17:35.003Z</time></trkpt><trkpt lat="43.491836499013935" lon="10.790014784065201"><ele>122.25</ele><time>2026-04-04T10:17:36.003Z</time></trkpt><trkpt lat="43.49192347864134" lon="10.789852319134459"><ele>122.5</ele><time>2026-04-04T10:17:37.003Z</time></trkpt><trkpt lat="43.49200985345079" lon="10.789707534647114"><ele>122.75</ele><time>2026-04-04T10:17:38.003Z</time></trkpt><trkpt lat="43.49209088098207" lon="10.789588055607775"><ele>123.0</ele><time>2026-04-04T10:17:39.003Z</time></trkpt><trkpt lat="43.49216365663678" lon="10.789469103122169"><ele>122.0</ele><time>2026-04-04T10:17:40.003Z</time></trkpt><trkpt lat="43.49222602351404" lon="10.789352535546213"><ele>121.00000000000001</ele><time>2026-04-04T10:17:41.003Z</time></trkpt><trkpt lat="43.4922788655478" lon="10.789257139432584"><ele>120.00000000000001</ele><time>2026-04-04T10:17:42.003Z</time></trkpt><trkpt lat="43.49235727090805" lon="10.789129892909079"><ele>119.0</ele><time>2026-04-04T10:17:44.003Z</time></trkpt><trkpt lat="43.49244073665304" lon="10.789020501588961"><ele>118.0</ele><time>2026-04-04T10:17:46.003Z</time></trkpt><trkpt lat="43.49248578512169" lon="10.788895942051559"><ele>118.0</ele><time>2026-04-04T10:17:47.003Z</time></trkpt><trkpt lat="43.49254262082129" lon="10.788786734907594"><ele>118.00000000000001</ele><time>2026-04-04T10:17:48.003Z</time></trkpt><trkpt lat="43.492614754690635" lon="10.788670931201409"><ele>118.00000000000001</ele><time>2026-04-04T10:17:49.003Z</time></trkpt><trkpt lat="43.49269183598974" lon="10.78854489266784"><ele>118.0</ele><time>2026-04-04T10:17:50.003Z</time></trkpt><trkpt lat="43.49276829360294" lon="10.788437910711636"><ele>118.0</ele><time>2026-04-04T10:17:51.003Z</time></trkpt><trkpt lat="43.49284363143788" lon="10.788331720968772"><ele>118.80000000000001</ele><time>2026-04-04T10:17:52.003Z</time></trkpt><trkpt lat="43.492918617207444" lon="10.78821766503115"><ele>119.60000000000001</ele><time>2026-04-04T10:17:53.003Z</time></trkpt><trkpt lat="43.4929923551592" lon="10.788096956936053"><ele>120.39999999999999</ele><time>2026-04-04T10:17:54.003Z</time></trkpt><trkpt lat="43.49306120057188" lon="10.787981255856794"><ele>121.19999999999999</ele><time>2026-04-04T10:17:55.003Z</time></trkpt><trkpt lat="43.49312816365149" lon="10.787858447094562"><ele>122.0</ele><time>2026-04-04T10:17:56.003Z</time></trkpt><trkpt lat="43.49317793453642" lon="10.787727826716916"><ele>123.0</ele><time>2026-04-04T10:17:57Z</time></trkpt><trkpt lat="43.49322618345154" lon="10.78758363368838"><ele>124.0</ele><time>2026-04-04T10:17:58Z</time></trkpt><trkpt lat="43.49327102843392" lon="10.787418111160857"><ele>125.0</ele><time>2026-04-04T10:17:59Z</time></trkpt><trkpt lat="43.49332253874519" lon="10.787240723688285"><ele>126.0</ele><time>2026-04-04T10:18:00Z</time></trkpt><trkpt lat="43.49335473348731" lon="10.787053426366233"><ele>126.0</ele><time>2026-04-04T10:18:01Z</time></trkpt><trkpt lat="43.493389365005136" lon="10.786864709974264"><ele>126.0</ele><time>2026-04-04T10:18:02Z</time></trkpt><trkpt lat="43.493430898135514" lon="10.786672408658488"><ele>126.0</ele><time>2026-04-04T10:18:03Z</time></trkpt><trkpt lat="43.49347287521291" lon="10.786471266729196"><ele>126.0</ele><time>2026-04-04T10:18:04Z</time></trkpt><trkpt lat="43.49350931218563" lon="10.786261932657057"><ele>126.66666666666666</ele><time>2026-04-04T10:18:05Z</time></trkpt><trkpt lat="43.49354325066061" lon="10.786054049839526"><ele>127.33333333333333</ele><time>2026-04-04T10:18:06Z</time></trkpt><trkpt lat="43.49357114117316" lon="10.785845552508624"><ele>128.0</ele><time>2026-04-04T10:18:07Z</time></trkpt><trkpt lat="43.49359804316364" lon="10.785637274204298"><ele>128.75</ele><time>2026-04-04T10:18:08Z</time></trkpt><trkpt lat="43.493624973952656" lon="10.78544264522098"><ele>129.5</ele><time>2026-04-04T10:18:09Z</time></trkpt><trkpt lat="43.49365340556759" lon="10.78527440306803"><ele>130.25</ele><time>2026-04-04T10:18:10Z</time></trkpt><trkpt lat="43.49368252654086" lon="10.785135357884236"><ele>131.0</ele><time>2026-04-04T10:18:11Z</time></trkpt><trkpt lat="43.49371795089542" lon="10.785022363136768"><ele>130.0</ele><time>2026-04-04T10:18:12Z</time></trkpt><trkpt lat="43.49375032746962" lon="10.784925516550903"><ele>129.0</ele><time>2026-04-04T10:18:13Z</time></trkpt><trkpt lat="43.49377398125113" lon="10.784829702130631"><ele>128.0</ele><time>2026-04-04T10:18:14Z</time></trkpt><trkpt lat="43.49379020704302" lon="10.784736424230609"><ele>127.0</ele><time>2026-04-04T10:18:15Z</time></trkpt><trkpt lat="43.49382201330968" lon="10.784573248458582"><ele>126.0</ele><time>2026-04-04T10:18:17Z</time></trkpt><trkpt lat="43.49387769043429" lon="10.784431998722802"><ele>127.4</ele><time>2026-04-04T10:18:19Z</time></trkpt><trkpt lat="43.49392980751052" lon="10.784280513594279"><ele>128.8</ele><time>2026-04-04T10:18:21Z</time></trkpt><trkpt lat="43.49403750100077" lon="10.784264944261771"><ele>130.20000000000002</ele><time>2026-04-04T10:18:22Z</time></trkpt><trkpt lat="43.494100262875655" lon="10.784214292854058"><ele>131.6</ele><time>2026-04-04T10:18:23Z</time></trkpt><trkpt lat="43.4941674851475" lon="10.784160145169436"><ele>133.0</ele><time>2026-04-04T10:18:24Z</time></trkpt><trkpt lat="43.4942333410809" lon="10.78410597113205"><ele>133.0</ele><time>2026-04-04T10:18:25Z</time></trkpt><trkpt lat="43.49430073857474" lon="10.784064121374684"><ele>133.0</ele><time>2026-04-04T10:18:26Z</time></trkpt><trkpt lat="43.494360455660456" lon="10.784014145982914"><ele>133.0</ele><time>2026-04-04T10:18:27Z</time></trkpt><trkpt lat="43.494411785157546" lon="10.783959531479221"><ele>133.0</ele><time>2026-04-04T10:18:28.001Z</time></trkpt><trkpt lat="43.494475571078745" lon="10.78391177066438"><ele>133.0</ele><time>2026-04-04T10:18:29.001Z</time></trkpt><trkpt lat="43.49453860823859" lon="10.783845665461559"><ele>133.0</ele><time>2026-04-04T10:18:30.001Z</time></trkpt><trkpt lat="43.49461568952073" lon="10.783787202763525"><ele>133.0</ele><time>2026-04-04T10:18:31.001Z</time></trkpt><trkpt lat="43.49470111951515" lon="10.783725567635079"><ele>131.8</ele><time>2026-04-04T10:18:32.001Z</time></trkpt><trkpt lat="43.49478590105754" lon="10.783664432871072"><ele>130.60000000000002</ele><time>2026-04-04T10:18:33.001Z</time></trkpt><trkpt lat="43.494871765197814" lon="10.78360145581335"><ele>129.39999999999998</ele><time>2026-04-04T10:18:34.001Z</time></trkpt><trkpt lat="43.49495862808529" lon="10.783535217637787"><ele>128.2</ele><time>2026-04-04T10:18:35.001Z</time></trkpt><trkpt lat="43.49505657131099" lon="10.783465064282577"><ele>127.0</ele><time>2026-04-04T10:18:36.001Z</time></trkpt><trkpt lat="43.49514707981264" lon="10.783398127418128"><ele>126.39999999999999</ele><time>2026-04-04T10:18:37.001Z</time></trkpt><trkpt lat="43.49523970636711" lon="10.783340190303607"><ele>125.79999999999998</ele><time>2026-04-04T10:18:38.001Z</time></trkpt><trkpt lat="43.49532709467434" lon="10.783279926537483"><ele>125.2</ele><time>2026-04-04T10:18:39.001Z</time></trkpt><trkpt lat="43.495406327002314" lon="10.78322208004653"><ele>124.6</ele><time>2026-04-04T10:18:40.001Z</time></trkpt><trkpt lat="43.49547456118815" lon="10.783166193651793"><ele>124.0</ele><time>2026-04-04T10:18:41.001Z</time></trkpt><trkpt lat="43.49554882842276" lon="10.783116886298513"><ele>123.14285714285715</ele><time>2026-04-04T10:18:42.001Z</time></trkpt><trkpt lat="43.495618593562625" lon="10.783083729374239"><ele>122.2857142857143</ele><time>2026-04-04T10:18:43.001Z</time></trkpt><trkpt lat="43.4956803511385" lon="10.783047431300519"><ele>121.42857142857143</ele><time>2026-04-04T10:18:44.001Z</time></trkpt><trkpt lat="43.49575012226145" lon="10.78307337544235"><ele>120.57142857142858</ele><time>2026-04-04T10:18:45.001Z</time></trkpt><trkpt lat="43.495822600742976" lon="10.783092365735056"><ele>119.71428571428572</ele><time>2026-04-04T10:18:46.001Z</time></trkpt><trkpt lat="43.49589892419499" lon="10.783118424122875"><ele>118.85714285714286</ele><time>2026-04-04T10:18:47.001Z</time></trkpt><trkpt lat="43.49597295668203" lon="10.783160594544634"><ele>118.0</ele><time>2026-04-04T10:18:48.001Z</time></trkpt><trkpt lat="43.49603918655811" lon="10.78319155294556"><ele>118.0</ele><time>2026-04-04T10:18:49.001Z</time></trkpt><trkpt lat="43.4961577109021" lon="10.78321277267885"><ele>118.0</ele><time>2026-04-04T10:18:51.001Z</time></trkpt><trkpt lat="43.49629761502967" lon="10.783201497714277"><ele>118.0</ele><time>2026-04-04T10:18:53.001Z</time></trkpt><trkpt lat="43.49636784154703" lon="10.783182019997097"><ele>118.0</ele><time>2026-04-04T10:18:54.001Z</time></trkpt><trkpt lat="43.49649621313498" lon="10.783111405613202"><ele>118.80000000000001</ele><time>2026-04-04T10:18:56.001Z</time></trkpt><trkpt lat="43.49658131548876" lon="10.783059244701795"><ele>119.60000000000001</ele><time>2026-04-04T10:18:57.001Z</time></trkpt><trkpt lat="43.49668196618638" lon="10.783023984467196"><ele>120.39999999999999</ele><time>2026-04-04T10:18:58.001Z</time></trkpt><trkpt lat="43.49677631683981" lon="10.782997812608556"><ele>121.19999999999999</ele><time>2026-04-04T10:18:59.001Z</time></trkpt><trkpt lat="43.49687757057106" lon="10.78296829105317"><ele>122.0</ele><time>2026-04-04T10:19:00.001Z</time></trkpt><trkpt lat="43.49697504920135" lon="10.782933812540856"><ele>122.0</ele><time>2026-04-04T10:19:01.001Z</time></trkpt><trkpt lat="43.497076246955366" lon="10.782885013391176"><ele>121.99999999999999</ele><time>2026-04-04T10:19:02.001Z</time></trkpt><trkpt lat="43.49717132845183" lon="10.782824101584021"><ele>121.99999999999999</ele><time>2026-04-04T10:19:03.001Z</time></trkpt><trkpt lat="43.49726020666255" lon="10.782750839665885"><ele>122.0</ele><time>2026-04-04T10:19:04.002Z</time></trkpt><trkpt lat="43.497338132283865" lon="10.782676973732695"><ele>122.0</ele><time>2026-04-04T10:19:05.002Z</time></trkpt><trkpt lat="43.49741318730145" lon="10.782596884338417"><ele>122.66666666666666</ele><time>2026-04-04T10:19:06.002Z</time></trkpt><trkpt lat="43.49747989277528" lon="10.782518334224042"><ele>123.33333333333333</ele><time>2026-04-04T10:19:07.002Z</time></trkpt><trkpt lat="43.49753699602123" lon="10.782443100910848"><ele>124.0</ele><time>2026-04-04T10:19:08.002Z</time></trkpt><trkpt lat="43.49757932251795" lon="10.782362917927554"><ele>124.66666666666666</ele><time>2026-04-04T10:19:09.002Z</time></trkpt><trkpt lat="43.4976193948921" lon="10.782265845879701"><ele>125.33333333333333</ele><time>2026-04-04T10:19:10.002Z</time></trkpt><trkpt lat="43.4976453003791" lon="10.782150353918025"><ele>126.0</ele><time>2026-04-04T10:19:11.002Z</time></trkpt><trkpt lat="43.49766597280359" lon="10.782019218924114"><ele>126.0</ele><time>2026-04-04T10:19:12.002Z</time></trkpt><trkpt lat="43.497679183823756" lon="10.781879277875221"><ele>126.0</ele><time>2026-04-04T10:19:13.002Z</time></trkpt><trkpt lat="43.49769540071834" lon="10.781730861048015"><ele>126.0</ele><time>2026-04-04T10:19:14.002Z</time></trkpt><trkpt lat="43.497699810391296" lon="10.781572742227564"><ele>126.0</ele><time>2026-04-04T10:19:15.002Z</time></trkpt><trkpt lat="43.49769570400746" lon="10.78141706101281"><ele>126.0</ele><time>2026-04-04T10:19:16.002Z</time></trkpt><trkpt lat="43.497698864258965" lon="10.78125931463762"><ele>127.0</ele><time>2026-04-04T10:19:17.002Z</time></trkpt><trkpt lat="43.497704729081654" lon="10.781096929544848"><ele>128.0</ele><time>2026-04-04T10:19:18.002Z</time></trkpt><trkpt lat="43.497713754509626" lon="10.780933163644674"><ele>129.0</ele><time>2026-04-04T10:19:19.002Z</time></trkpt><trkpt lat="43.497730945480285" lon="10.780761628787648"><ele>130.0</ele><time>2026-04-04T10:19:20.002Z</time></trkpt><trkpt lat="43.49775227385096" lon="10.780578615254127"><ele>130.0</ele><time>2026-04-04T10:19:21.002Z</time></trkpt><trkpt lat="43.49778045592319" lon="10.78038099219564"><ele>130.0</ele><time>2026-04-04T10:19:22.002Z</time></trkpt><trkpt lat="43.497768562509265" lon="10.780179490290271"><ele>130.0</ele><time>2026-04-04T10:19:23.002Z</time></trkpt><trkpt lat="43.497768408826325" lon="10.779969771552182"><ele>130.0</ele><time>2026-04-04T10:19:24.002Z</time></trkpt><trkpt lat="43.497776757713616" lon="10.779762660780964"><ele>129.5</ele><time>2026-04-04T10:19:25.002Z</time></trkpt><trkpt lat="43.49778623655653" lon="10.779563730878387"><ele>129.0</ele><time>2026-04-04T10:19:26.002Z</time></trkpt><trkpt lat="43.497794625258926" lon="10.779363423201612"><ele>128.5</ele><time>2026-04-04T10:19:27.002Z</time></trkpt><trkpt lat="43.49780826253088" lon="10.779173324740048"><ele>128.0</ele><time>2026-04-04T10:19:28.002Z</time></trkpt><trkpt lat="43.497821263627515" lon="10.77898359022446"><ele>128.0</ele><time>2026-04-04T10:19:29.002Z</time></trkpt><trkpt lat="43.49783826776298" lon="10.77880412083591"><ele>128.0</ele><time>2026-04-04T10:19:30.002Z</time></trkpt><trkpt lat="43.49786315362284" lon="10.778630719917336"><ele>128.0</ele><time>2026-04-04T10:19:31.002Z</time></trkpt><trkpt lat="43.49789043269509" lon="10.778471724379008"><ele>128.0</ele><time>2026-04-04T10:19:32.002Z</time></trkpt><trkpt lat="43.49791666440574" lon="10.778318890164915"><ele>128.25</ele><time>2026-04-04T10:19:33.002Z</time></trkpt><trkpt lat="43.49792882239872" lon="10.778164556511744"><ele>128.5</ele><time>2026-04-04T10:19:34.002Z</time></trkpt><trkpt lat="43.497922663456734" lon="10.778000442717204"><ele>128.75</ele><time>2026-04-04T10:19:35.002Z</time></trkpt><trkpt lat="43.49791645982134" lon="10.777840381620862"><ele>129.0</ele><time>2026-04-04T10:19:36.002Z</time></trkpt><trkpt lat="43.49791361698388" lon="10.777695449768796"><ele>130.66666666666666</ele><time>2026-04-04T10:19:37.002Z</time></trkpt><trkpt lat="43.4979047785631" lon="10.777565380397524"><ele>132.33333333333334</ele><time>2026-04-04T10:19:38.002Z</time></trkpt><trkpt lat="43.497899148717906" lon="10.7774516622878"><ele>134.0</ele><time>2026-04-04T10:19:39.003Z</time></trkpt><trkpt lat="43.49788972167151" lon="10.777312511345903"><ele>135.66666666666669</ele><time>2026-04-04T10:19:41.003Z</time></trkpt><trkpt lat="43.49788067899297" lon="10.777202919012034"><ele>137.33333333333334</ele><time>2026-04-04T10:19:44.003Z</time></trkpt><trkpt lat="43.49787021447512" lon="10.77711251400534"><ele>139.0</ele><time>2026-04-04T10:19:48.003Z</time></trkpt><trkpt lat="43.49787761663782" lon="10.777017204906398"><ele>139.0</ele><time>2026-04-04T10:24:08.003Z</time></trkpt><trkpt lat="43.49774238045126" lon="10.777046064473087"><ele>139.0</ele><time>2026-04-04T10:24:09.003Z</time></trkpt><trkpt lat="43.4977362214857" lon="10.777132943960561"><ele>139.0</ele><time>2026-04-04T10:28:58.001Z</time></trkpt><trkpt lat="43.49771008062592" lon="10.777220852469863"><ele>139.0</ele><time>2026-04-04T10:29:06.001Z</time></trkpt><trkpt lat="43.497659567098715" lon="10.777276986921459"><ele>139.0</ele><time>2026-04-04T10:29:12.001Z</time></trkpt><trkpt lat="43.497597539535676" lon="10.777320010740976"><ele>139.0</ele><time>2026-04-04T10:29:19.001Z</time></trkpt><trkpt lat="43.49753603292601" lon="10.777353393194192"><ele>139.0</ele><time>2026-04-04T10:29:25.001Z</time></trkpt><trkpt lat="43.4974760342935" lon="10.777394957218847"><ele>139.0</ele><time>2026-04-04T10:29:33.002Z</time></trkpt><trkpt lat="43.49741363434884" lon="10.777379065303691"><ele>139.0</ele><time>2026-04-04T10:29:40.002Z</time></trkpt><trkpt lat="43.49734846757289" lon="10.777406149598107"><ele>139.0</ele><time>2026-04-04T10:29:46.002Z</time></trkpt><trkpt lat="43.49726724410338" lon="10.777421160318536"><ele>139.0</ele><time>2026-04-04T10:29:56.002Z</time></trkpt><trkpt lat="43.49720034652406" lon="10.777429133377819"><ele>139.0</ele><time>2026-04-04T10:30:03.002Z</time></trkpt><trkpt lat="43.497130670819146" lon="10.7774457171969"><ele>139.0</ele><time>2026-04-04T10:30:10.002Z</time></trkpt><trkpt lat="43.497057715127596" lon="10.777457346717467"><ele>138.71428571428572</ele><time>2026-04-04T10:30:20.002Z</time></trkpt><trkpt lat="43.49699370874442" lon="10.777423966899999"><ele>138.42857142857144</ele><time>2026-04-04T10:30:26.002Z</time></trkpt><trkpt lat="43.496930283477965" lon="10.777386570587858"><ele>138.14285714285717</ele><time>2026-04-04T10:30:32.002Z</time></trkpt><trkpt lat="43.49686416967905" lon="10.77738775271572"><ele>137.85714285714286</ele><time>2026-04-04T10:30:36.002Z</time></trkpt><trkpt lat="43.49683008559971" lon="10.777298493341668"><ele>137.57142857142858</ele><time>2026-04-04T10:30:46.001Z</time></trkpt><trkpt lat="43.496762438767114" lon="10.777300083481142"><ele>137.2857142857143</ele><time>2026-04-04T10:31:25.001Z</time></trkpt><trkpt lat="43.49672350119808" lon="10.777230341524783"><ele>137.0</ele><time>2026-04-04T10:31:48.001Z</time></trkpt><trkpt lat="43.49665624373424" lon="10.777260130096462"><ele>137.0</ele><time>2026-04-04T10:33:41.001Z</time></trkpt><trkpt lat="43.49663520487346" lon="10.777357409438581"><ele>137.0</ele><time>2026-04-04T10:34:06.001Z</time></trkpt><trkpt lat="43.49663386768519" lon="10.777259634777424"><ele>137.0</ele><time>2026-04-04T10:34:25.001Z</time></trkpt><trkpt lat="43.496690366979884" lon="10.777200440233523"><ele>137.0</ele><time>2026-04-04T10:35:42Z</time></trkpt><trkpt lat="43.496703366717185" lon="10.777289089514733"><ele>137.0</ele><time>2026-04-04T10:37:12Z</time></trkpt><trkpt lat="43.49669597523959" lon="10.777196042404768"><ele>137.0</ele><time>2026-04-04T10:37:39Z</time></trkpt><trkpt lat="43.496736178517494" lon="10.777333262744799"><ele>137.00000000000003</ele><time>2026-04-04T10:37:56Z</time></trkpt><trkpt lat="43.49672867935264" lon="10.777421578299503"><ele>137.0</ele><time>2026-04-04T10:38:00Z</time></trkpt><trkpt lat="43.4966905947646" lon="10.777494367181014"><ele>137.0</ele><time>2026-04-04T10:38:10Z</time></trkpt><trkpt lat="43.496633857947465" lon="10.777555146936148"><ele>137.0</ele><time>2026-04-04T10:38:17Z</time></trkpt><trkpt lat="43.49658069814334" lon="10.777628479437274"><ele>137.0</ele><time>2026-04-04T10:38:25Z</time></trkpt><trkpt lat="43.496529254907536" lon="10.777692857393752"><ele>137.00000000000003</ele><time>2026-04-04T10:38:37Z</time></trkpt><trkpt lat="43.49654548101302" lon="10.77760073312798"><ele>137.0</ele><time>2026-04-04T10:39:36Z</time></trkpt><trkpt lat="43.496607142714595" lon="10.777536554926677"><ele>137.00000000000003</ele><time>2026-04-04T10:39:42Z</time></trkpt><trkpt lat="43.49666438576105" lon="10.777480540075794"><ele>137.0</ele><time>2026-04-04T10:39:47Z</time></trkpt><trkpt lat="43.496717100043966" lon="10.77742456124661"><ele>137.0</ele><time>2026-04-04T10:39:54Z</time></trkpt><trkpt lat="43.496727344281226" lon="10.777332377238393"><ele>137.0</ele><time>2026-04-04T10:40:00Z</time></trkpt><trkpt lat="43.496758820409035" lon="10.777240611475161"><ele>137.0</ele><time>2026-04-04T10:40:07Z</time></trkpt><trkpt lat="43.49682429931754" lon="10.777269892811406"><ele>137.00000000000003</ele><time>2026-04-04T10:40:12Z</time></trkpt><trkpt lat="43.49689873852632" lon="10.777246513947937"><ele>137.0</ele><time>2026-04-04T10:40:20Z</time></trkpt><trkpt lat="43.496968754901225" lon="10.777217456311783"><ele>137.00000000000003</ele><time>2026-04-04T10:40:28Z</time></trkpt><trkpt lat="43.497025775325994" lon="10.77726602455165"><ele>137.0</ele><time>2026-04-04T10:40:32Z</time></trkpt><trkpt lat="43.49708362568027" lon="10.777318248021064"><ele>137.0</ele><time>2026-04-04T10:40:36Z</time></trkpt><trkpt lat="43.49714994530292" lon="10.777318850932524"><ele>137.0</ele><time>2026-04-04T10:40:41Z</time></trkpt><trkpt lat="43.4972148244307" lon="10.777317204242467"><ele>137.0</ele><time>2026-04-04T10:40:45Z</time></trkpt><trkpt lat="43.497287756459066" lon="10.77731569440828"><ele>137.00000000000003</ele><time>2026-04-04T10:40:51Z</time></trkpt><trkpt lat="43.497364887783625" lon="10.777299859822321"><ele>137.0</ele><time>2026-04-04T10:40:57Z</time></trkpt><trkpt lat="43.497428276405266" lon="10.7773043844839"><ele>137.2857142857143</ele><time>2026-04-04T10:41:02Z</time></trkpt><trkpt lat="43.497498437953425" lon="10.77728711040945"><ele>137.57142857142858</ele><time>2026-04-04T10:41:07Z</time></trkpt><trkpt lat="43.4975628096511" lon="10.777246320460037"><ele>137.85714285714286</ele><time>2026-04-04T10:41:14Z</time></trkpt><trkpt lat="43.49763048267165" lon="10.77719885303852"><ele>138.14285714285717</ele><time>2026-04-04T10:41:20Z</time></trkpt><trkpt lat="43.49768115475804" lon="10.777134068059851"><ele>138.42857142857144</ele><time>2026-04-04T10:41:26Z</time></trkpt><trkpt lat="43.49767991560428" lon="10.777236878466866"><ele>138.71428571428572</ele><time>2026-04-04T10:44:34Z</time></trkpt><trkpt lat="43.49761809463266" lon="10.777302538695901"><ele>139.0</ele><time>2026-04-04T10:44:40Z</time></trkpt><trkpt lat="43.497549071479376" lon="10.777348010334581"><ele>139.0</ele><time>2026-04-04T10:44:46Z</time></trkpt><trkpt lat="43.49747228914613" lon="10.77735592181595"><ele>139.0</ele><time>2026-04-04T10:44:50Z</time></trkpt><trkpt lat="43.49740389270186" lon="10.777379698682688"><ele>139.0</ele><time>2026-04-04T10:44:55Z</time></trkpt><trkpt lat="43.4973359918318" lon="10.77740265171032"><ele>139.0</ele><time>2026-04-04T10:45:00Z</time></trkpt><trkpt lat="43.49726048671672" lon="10.777407412304957"><ele>139.0</ele><time>2026-04-04T10:45:06Z</time></trkpt><trkpt lat="43.497195929252925" lon="10.777432938910422"><ele>139.0</ele><time>2026-04-04T10:45:12Z</time></trkpt><trkpt lat="43.497123307899045" lon="10.777430476386053"><ele>139.0</ele><time>2026-04-04T10:45:17Z</time></trkpt><trkpt lat="43.49704937562577" lon="10.777411677220062"><ele>138.71428571428572</ele><time>2026-04-04T10:45:22Z</time></trkpt><trkpt lat="43.496983653876164" lon="10.777378330332889"><ele>138.42857142857144</ele><time>2026-04-04T10:45:26Z</time></trkpt><trkpt lat="43.496926860567555" lon="10.77733917079701"><ele>138.14285714285717</ele><time>2026-04-04T10:45:30Z</time></trkpt><trkpt lat="43.49685160427858" lon="10.777315260307892"><ele>137.85714285714286</ele><time>2026-04-04T10:45:36Z</time></trkpt><trkpt lat="43.4967895010962" lon="10.77728920811816"><ele>137.57142857142858</ele><time>2026-04-04T10:45:42Z</time></trkpt><trkpt lat="43.4967442586902" lon="10.777374729297778"><ele>137.2857142857143</ele><time>2026-04-04T10:45:51Z</time></trkpt><trkpt lat="43.496717100563764" lon="10.777467316887062"><ele>137.0</ele><time>2026-04-04T10:45:56Z</time></trkpt><trkpt lat="43.496671718494326" lon="10.777545260739677"><ele>137.0</ele><time>2026-04-04T10:46:02Z</time></trkpt><trkpt lat="43.49662387644558" lon="10.777605913501484"><ele>137.0</ele><time>2026-04-04T10:46:07Z</time></trkpt><trkpt lat="43.49656595028754" lon="10.77765027911363"><ele>137.0</ele><time>2026-04-04T10:46:12Z</time></trkpt><trkpt lat="43.496509734752024" lon="10.777694369514698"><ele>129.0</ele><time>2026-04-04T10:46:19Z</time></trkpt></trkseg></trk></gpx>